<?xml version="1.0" encoding="UTF-8" standalone="no" ?>
<gpx xmlns="http://www.topografix.com/GPX/1/1" xmlns:xsi="http://www.w3.org/2001/XMLSchema-instance" xsi:schemaLocation="http://www.topografix.com/GPX/1/1 http://www.topografix.com/GPX/1/1/gpx.xsd" version="1.1" creator="VisuGPX - https://www.visugpx.com">
  <metadata>
    <name>Entre Bart et Sainte Marie</name>
    <desc><![CDATA[Entre Bart et Sainte Marie________________________]]></desc>
  </metadata>
  <wpt lat="47.49139" lon="6.76536">
    <ele>370.5</ele>
    <name><![CDATA[Point de cheminement 1]]></name>
    <desc><![CDATA[]]></desc>
  </wpt>
  <wpt lat="47.50688" lon="6.76206">
    <ele>430</ele>
    <name><![CDATA[Point de cheminement 2]]></name>
    <desc><![CDATA[]]></desc>
  </wpt>
  <wpt lat="47.51191" lon="6.72564">
    <ele>474</ele>
    <name><![CDATA[Point de cheminement 3]]></name>
    <desc><![CDATA[]]></desc>
  </wpt>
  <wpt lat="47.50239" lon="6.7301">
    <ele>388.5</ele>
    <name><![CDATA[Point de cheminement 4]]></name>
    <desc><![CDATA[]]></desc>
  </wpt>
  <wpt lat="47.51108" lon="6.77035">
    <ele>426.6</ele>
    <name><![CDATA[Point de cheminement 5]]></name>
    <desc><![CDATA[]]></desc>
  </wpt>
  <trk>
    <name><![CDATA[18]]></name>
    <desc><![CDATA[]]></desc>
    <trkseg>
      <trkpt lat="47.51788" lon="6.7751">
        <ele>536</ele>
        <time>2017-11-01T08:16:04.114Z</time>
      </trkpt>
      <trkpt lat="47.51787" lon="6.77477">
        <ele>482.6</ele>
        <time>2017-11-01T08:16:05.114Z</time>
      </trkpt>
      <trkpt lat="47.5176" lon="6.77398">
        <ele>361.3</ele>
        <time>2017-11-01T08:16:06.028Z</time>
      </trkpt>
      <trkpt lat="47.5176" lon="6.77416">
        <ele>350.1</ele>
        <time>2017-11-01T08:16:12.016Z</time>
      </trkpt>
      <trkpt lat="47.5177" lon="6.77438">
        <ele>364.5</ele>
        <time>2017-11-01T08:16:13.016Z</time>
      </trkpt>
      <trkpt lat="47.51778" lon="6.77446">
        <ele>374.9</ele>
        <time>2017-11-01T08:16:14.016Z</time>
      </trkpt>
      <trkpt lat="47.51791" lon="6.77467">
        <ele>393.3</ele>
        <time>2017-11-01T08:16:15.016Z</time>
      </trkpt>
      <trkpt lat="47.5179" lon="6.77466">
        <ele>396.9</ele>
        <time>2017-11-01T08:16:16.016Z</time>
      </trkpt>
      <trkpt lat="47.51776" lon="6.77451">
        <ele>421.1</ele>
        <time>2017-11-01T08:16:17.063Z</time>
      </trkpt>
      <trkpt lat="47.51788" lon="6.77467">
        <ele>445.3</ele>
        <time>2017-11-01T08:16:20.106Z</time>
      </trkpt>
      <trkpt lat="47.5179" lon="6.77471">
        <ele>449.6</ele>
        <time>2017-11-01T08:16:24.090Z</time>
      </trkpt>
      <trkpt lat="47.51802" lon="6.77468">
        <ele>446.9</ele>
        <time>2017-11-01T08:16:25.089Z</time>
      </trkpt>
      <trkpt lat="47.51802" lon="6.77468">
        <ele>435.8</ele>
        <time>2017-11-01T08:17:54.000Z</time>
      </trkpt>
      <trkpt lat="47.51813" lon="6.77482">
        <ele>435.8</ele>
        <time>2017-11-01T08:17:55.000Z</time>
      </trkpt>
      <trkpt lat="47.51813" lon="6.77484">
        <ele>435.9</ele>
        <time>2017-11-01T08:17:56.000Z</time>
      </trkpt>
      <trkpt lat="47.51814" lon="6.77489">
        <ele>435.8</ele>
        <time>2017-11-01T08:17:57.000Z</time>
      </trkpt>
      <trkpt lat="47.51811" lon="6.77492">
        <ele>435.7</ele>
        <time>2017-11-01T08:17:58.000Z</time>
      </trkpt>
      <trkpt lat="47.51807" lon="6.77494">
        <ele>435.7</ele>
        <time>2017-11-01T08:17:59.000Z</time>
      </trkpt>
      <trkpt lat="47.51803" lon="6.77495">
        <ele>435.7</ele>
        <time>2017-11-01T08:18:00.000Z</time>
      </trkpt>
      <trkpt lat="47.51798" lon="6.77494">
        <ele>435.8</ele>
        <time>2017-11-01T08:18:01.000Z</time>
      </trkpt>
      <trkpt lat="47.51794" lon="6.77494">
        <ele>435.8</ele>
        <time>2017-11-01T08:18:02.000Z</time>
      </trkpt>
      <trkpt lat="47.51791" lon="6.77493">
        <ele>435.9</ele>
        <time>2017-11-01T08:18:03.000Z</time>
      </trkpt>
      <trkpt lat="47.51788" lon="6.77492">
        <ele>436</ele>
        <time>2017-11-01T08:18:04.000Z</time>
      </trkpt>
      <trkpt lat="47.51784" lon="6.7749">
        <ele>436</ele>
        <time>2017-11-01T08:18:05.000Z</time>
      </trkpt>
      <trkpt lat="47.5178" lon="6.77489">
        <ele>436.1</ele>
        <time>2017-11-01T08:18:06.000Z</time>
      </trkpt>
      <trkpt lat="47.51776" lon="6.77488">
        <ele>436.2</ele>
        <time>2017-11-01T08:18:07.000Z</time>
      </trkpt>
      <trkpt lat="47.51773" lon="6.77487">
        <ele>436.3</ele>
        <time>2017-11-01T08:18:08.000Z</time>
      </trkpt>
      <trkpt lat="47.51769" lon="6.77486">
        <ele>436.4</ele>
        <time>2017-11-01T08:18:09.000Z</time>
      </trkpt>
      <trkpt lat="47.51765" lon="6.77486">
        <ele>436.5</ele>
        <time>2017-11-01T08:18:10.000Z</time>
      </trkpt>
      <trkpt lat="47.51763" lon="6.77485">
        <ele>436.6</ele>
        <time>2017-11-01T08:18:11.000Z</time>
      </trkpt>
      <trkpt lat="47.5176" lon="6.77484">
        <ele>436.7</ele>
        <time>2017-11-01T08:18:12.000Z</time>
      </trkpt>
      <trkpt lat="47.51756" lon="6.77483">
        <ele>438</ele>
        <time>2017-11-01T08:18:13.000Z</time>
      </trkpt>
      <trkpt lat="47.51751" lon="6.77482">
        <ele>439.8</ele>
        <time>2017-11-01T08:18:14.000Z</time>
      </trkpt>
      <trkpt lat="47.51746" lon="6.77481">
        <ele>441</ele>
        <time>2017-11-01T08:18:15.000Z</time>
      </trkpt>
      <trkpt lat="47.51741" lon="6.77481">
        <ele>442.3</ele>
        <time>2017-11-01T08:18:16.000Z</time>
      </trkpt>
      <trkpt lat="47.51737" lon="6.7748">
        <ele>442.9</ele>
        <time>2017-11-01T08:18:17.000Z</time>
      </trkpt>
      <trkpt lat="47.51733" lon="6.77482">
        <ele>443.7</ele>
        <time>2017-11-01T08:18:18.000Z</time>
      </trkpt>
      <trkpt lat="47.5173" lon="6.77486">
        <ele>443.5</ele>
        <time>2017-11-01T08:18:19.000Z</time>
      </trkpt>
      <trkpt lat="47.51728" lon="6.77489">
        <ele>443.6</ele>
        <time>2017-11-01T08:18:20.000Z</time>
      </trkpt>
      <trkpt lat="47.51726" lon="6.77493">
        <ele>443.3</ele>
        <time>2017-11-01T08:18:21.000Z</time>
      </trkpt>
      <trkpt lat="47.51725" lon="6.77497">
        <ele>443.3</ele>
        <time>2017-11-01T08:18:22.000Z</time>
      </trkpt>
      <trkpt lat="47.51724" lon="6.77503">
        <ele>443.5</ele>
        <time>2017-11-01T08:18:23.000Z</time>
      </trkpt>
      <trkpt lat="47.51723" lon="6.77509">
        <ele>442.4</ele>
        <time>2017-11-01T08:18:24.000Z</time>
      </trkpt>
      <trkpt lat="47.51722" lon="6.77515">
        <ele>442</ele>
        <time>2017-11-01T08:18:25.000Z</time>
      </trkpt>
      <trkpt lat="47.51721" lon="6.77521">
        <ele>441.5</ele>
        <time>2017-11-01T08:18:26.000Z</time>
      </trkpt>
      <trkpt lat="47.51721" lon="6.77529">
        <ele>441</ele>
        <time>2017-11-01T08:18:27.000Z</time>
      </trkpt>
      <trkpt lat="47.5172" lon="6.77536">
        <ele>441.1</ele>
        <time>2017-11-01T08:18:28.000Z</time>
      </trkpt>
      <trkpt lat="47.51719" lon="6.77543">
        <ele>440.9</ele>
        <time>2017-11-01T08:18:29.000Z</time>
      </trkpt>
      <trkpt lat="47.51716" lon="6.77549">
        <ele>440.5</ele>
        <time>2017-11-01T08:18:30.000Z</time>
      </trkpt>
      <trkpt lat="47.51712" lon="6.7755">
        <ele>440.6</ele>
        <time>2017-11-01T08:18:32.000Z</time>
      </trkpt>
      <trkpt lat="47.51711" lon="6.7755">
        <ele>440.8</ele>
        <time>2017-11-01T08:18:33.000Z</time>
      </trkpt>
      <trkpt lat="47.51708" lon="6.77548">
        <ele>440.9</ele>
        <time>2017-11-01T08:18:34.000Z</time>
      </trkpt>
      <trkpt lat="47.51707" lon="6.77546">
        <ele>440.9</ele>
        <time>2017-11-01T08:18:35.000Z</time>
      </trkpt>
      <trkpt lat="47.51705" lon="6.77544">
        <ele>440.9</ele>
        <time>2017-11-01T08:18:36.000Z</time>
      </trkpt>
      <trkpt lat="47.51702" lon="6.7754">
        <ele>440.8</ele>
        <time>2017-11-01T08:18:37.000Z</time>
      </trkpt>
      <trkpt lat="47.51699" lon="6.77536">
        <ele>440</ele>
        <time>2017-11-01T08:18:38.000Z</time>
      </trkpt>
      <trkpt lat="47.51694" lon="6.77532">
        <ele>439.3</ele>
        <time>2017-11-01T08:18:39.000Z</time>
      </trkpt>
      <trkpt lat="47.51689" lon="6.77528">
        <ele>438.8</ele>
        <time>2017-11-01T08:18:40.000Z</time>
      </trkpt>
      <trkpt lat="47.51684" lon="6.77523">
        <ele>439.5</ele>
        <time>2017-11-01T08:18:41.000Z</time>
      </trkpt>
      <trkpt lat="47.51678" lon="6.77518">
        <ele>440.2</ele>
        <time>2017-11-01T08:18:42.000Z</time>
      </trkpt>
      <trkpt lat="47.51673" lon="6.77513">
        <ele>439.7</ele>
        <time>2017-11-01T08:18:43.000Z</time>
      </trkpt>
      <trkpt lat="47.51668" lon="6.77508">
        <ele>439.4</ele>
        <time>2017-11-01T08:18:44.000Z</time>
      </trkpt>
      <trkpt lat="47.51663" lon="6.77502">
        <ele>439.6</ele>
        <time>2017-11-01T08:18:45.000Z</time>
      </trkpt>
      <trkpt lat="47.51657" lon="6.77495">
        <ele>439.7</ele>
        <time>2017-11-01T08:18:46.000Z</time>
      </trkpt>
      <trkpt lat="47.51652" lon="6.7749">
        <ele>439.1</ele>
        <time>2017-11-01T08:18:47.000Z</time>
      </trkpt>
      <trkpt lat="47.51647" lon="6.77484">
        <ele>438.4</ele>
        <time>2017-11-01T08:18:48.000Z</time>
      </trkpt>
      <trkpt lat="47.51642" lon="6.77478">
        <ele>438</ele>
        <time>2017-11-01T08:18:49.000Z</time>
      </trkpt>
      <trkpt lat="47.51637" lon="6.77472">
        <ele>438.2</ele>
        <time>2017-11-01T08:18:50.000Z</time>
      </trkpt>
      <trkpt lat="47.51632" lon="6.77466">
        <ele>437.6</ele>
        <time>2017-11-01T08:18:51.000Z</time>
      </trkpt>
      <trkpt lat="47.51626" lon="6.7746">
        <ele>437.3</ele>
        <time>2017-11-01T08:18:52.000Z</time>
      </trkpt>
      <trkpt lat="47.51621" lon="6.77455">
        <ele>436.9</ele>
        <time>2017-11-01T08:18:53.000Z</time>
      </trkpt>
      <trkpt lat="47.51615" lon="6.77449">
        <ele>436.8</ele>
        <time>2017-11-01T08:18:54.000Z</time>
      </trkpt>
      <trkpt lat="47.51609" lon="6.77442">
        <ele>437</ele>
        <time>2017-11-01T08:18:55.000Z</time>
      </trkpt>
      <trkpt lat="47.51603" lon="6.77435">
        <ele>437.7</ele>
        <time>2017-11-01T08:18:56.000Z</time>
      </trkpt>
      <trkpt lat="47.51596" lon="6.77428">
        <ele>438.1</ele>
        <time>2017-11-01T08:18:57.000Z</time>
      </trkpt>
      <trkpt lat="47.5159" lon="6.7742">
        <ele>438.9</ele>
        <time>2017-11-01T08:18:58.000Z</time>
      </trkpt>
      <trkpt lat="47.51583" lon="6.77413">
        <ele>439.1</ele>
        <time>2017-11-01T08:18:59.000Z</time>
      </trkpt>
      <trkpt lat="47.51577" lon="6.77404">
        <ele>439.1</ele>
        <time>2017-11-01T08:19:00.000Z</time>
      </trkpt>
      <trkpt lat="47.5157" lon="6.77396">
        <ele>439.2</ele>
        <time>2017-11-01T08:19:01.000Z</time>
      </trkpt>
      <trkpt lat="47.51564" lon="6.77388">
        <ele>439.4</ele>
        <time>2017-11-01T08:19:02.000Z</time>
      </trkpt>
      <trkpt lat="47.51557" lon="6.7738">
        <ele>439.1</ele>
        <time>2017-11-01T08:19:03.000Z</time>
      </trkpt>
      <trkpt lat="47.51551" lon="6.77372">
        <ele>438.4</ele>
        <time>2017-11-01T08:19:04.000Z</time>
      </trkpt>
      <trkpt lat="47.51545" lon="6.77364">
        <ele>438.4</ele>
        <time>2017-11-01T08:19:05.000Z</time>
      </trkpt>
      <trkpt lat="47.51538" lon="6.77355">
        <ele>438.4</ele>
        <time>2017-11-01T08:19:06.000Z</time>
      </trkpt>
      <trkpt lat="47.51532" lon="6.77347">
        <ele>438</ele>
        <time>2017-11-01T08:19:07.000Z</time>
      </trkpt>
      <trkpt lat="47.51524" lon="6.77338">
        <ele>436.7</ele>
        <time>2017-11-01T08:19:08.000Z</time>
      </trkpt>
      <trkpt lat="47.51516" lon="6.7733">
        <ele>436.1</ele>
        <time>2017-11-01T08:19:09.000Z</time>
      </trkpt>
      <trkpt lat="47.51508" lon="6.7732">
        <ele>434.8</ele>
        <time>2017-11-01T08:19:10.000Z</time>
      </trkpt>
      <trkpt lat="47.51499" lon="6.7731">
        <ele>433.8</ele>
        <time>2017-11-01T08:19:11.000Z</time>
      </trkpt>
      <trkpt lat="47.51493" lon="6.77301">
        <ele>433.1</ele>
        <time>2017-11-01T08:19:12.000Z</time>
      </trkpt>
      <trkpt lat="47.51489" lon="6.77295">
        <ele>432.4</ele>
        <time>2017-11-01T08:19:13.000Z</time>
      </trkpt>
      <trkpt lat="47.51487" lon="6.77289">
        <ele>431.4</ele>
        <time>2017-11-01T08:19:14.000Z</time>
      </trkpt>
      <trkpt lat="47.51485" lon="6.77282">
        <ele>430.4</ele>
        <time>2017-11-01T08:19:15.000Z</time>
      </trkpt>
      <trkpt lat="47.51484" lon="6.77275">
        <ele>429.4</ele>
        <time>2017-11-01T08:19:16.000Z</time>
      </trkpt>
      <trkpt lat="47.51482" lon="6.77268">
        <ele>427.9</ele>
        <time>2017-11-01T08:19:17.000Z</time>
      </trkpt>
      <trkpt lat="47.51481" lon="6.77262">
        <ele>427.2</ele>
        <time>2017-11-01T08:19:18.000Z</time>
      </trkpt>
      <trkpt lat="47.51481" lon="6.77254">
        <ele>426.8</ele>
        <time>2017-11-01T08:19:19.000Z</time>
      </trkpt>
      <trkpt lat="47.51481" lon="6.77247">
        <ele>426.5</ele>
        <time>2017-11-01T08:19:20.000Z</time>
      </trkpt>
      <trkpt lat="47.5148" lon="6.77241">
        <ele>426.9</ele>
        <time>2017-11-01T08:19:21.000Z</time>
      </trkpt>
      <trkpt lat="47.5148" lon="6.77233">
        <ele>427.2</ele>
        <time>2017-11-01T08:19:22.000Z</time>
      </trkpt>
      <trkpt lat="47.5148" lon="6.77226">
        <ele>427</ele>
        <time>2017-11-01T08:19:23.000Z</time>
      </trkpt>
      <trkpt lat="47.51479" lon="6.77219">
        <ele>426.6</ele>
        <time>2017-11-01T08:19:24.000Z</time>
      </trkpt>
      <trkpt lat="47.51476" lon="6.77211">
        <ele>425.9</ele>
        <time>2017-11-01T08:19:25.000Z</time>
      </trkpt>
      <trkpt lat="47.51472" lon="6.77205">
        <ele>425.1</ele>
        <time>2017-11-01T08:19:26.000Z</time>
      </trkpt>
      <trkpt lat="47.51468" lon="6.77203">
        <ele>424.9</ele>
        <time>2017-11-01T08:19:27.000Z</time>
      </trkpt>
      <trkpt lat="47.51463" lon="6.77205">
        <ele>424.7</ele>
        <time>2017-11-01T08:19:28.000Z</time>
      </trkpt>
      <trkpt lat="47.51456" lon="6.77208">
        <ele>424.4</ele>
        <time>2017-11-01T08:19:29.000Z</time>
      </trkpt>
      <trkpt lat="47.51451" lon="6.7721">
        <ele>424.3</ele>
        <time>2017-11-01T08:19:30.000Z</time>
      </trkpt>
      <trkpt lat="47.51445" lon="6.77212">
        <ele>424.2</ele>
        <time>2017-11-01T08:19:31.000Z</time>
      </trkpt>
      <trkpt lat="47.51439" lon="6.77213">
        <ele>423.4</ele>
        <time>2017-11-01T08:19:32.000Z</time>
      </trkpt>
      <trkpt lat="47.51434" lon="6.77215">
        <ele>422.6</ele>
        <time>2017-11-01T08:19:33.000Z</time>
      </trkpt>
      <trkpt lat="47.51428" lon="6.77217">
        <ele>422.4</ele>
        <time>2017-11-01T08:19:34.000Z</time>
      </trkpt>
      <trkpt lat="47.51422" lon="6.7722">
        <ele>422.2</ele>
        <time>2017-11-01T08:19:35.000Z</time>
      </trkpt>
      <trkpt lat="47.51417" lon="6.77222">
        <ele>422</ele>
        <time>2017-11-01T08:19:36.000Z</time>
      </trkpt>
      <trkpt lat="47.51412" lon="6.77225">
        <ele>421.4</ele>
        <time>2017-11-01T08:19:37.000Z</time>
      </trkpt>
      <trkpt lat="47.51406" lon="6.77227">
        <ele>421.2</ele>
        <time>2017-11-01T08:19:38.000Z</time>
      </trkpt>
      <trkpt lat="47.51401" lon="6.77229">
        <ele>421.2</ele>
        <time>2017-11-01T08:19:39.000Z</time>
      </trkpt>
      <trkpt lat="47.51396" lon="6.77232">
        <ele>420.6</ele>
        <time>2017-11-01T08:19:40.000Z</time>
      </trkpt>
      <trkpt lat="47.51391" lon="6.77235">
        <ele>419.8</ele>
        <time>2017-11-01T08:19:41.000Z</time>
      </trkpt>
      <trkpt lat="47.51387" lon="6.77238">
        <ele>418.7</ele>
        <time>2017-11-01T08:19:42.000Z</time>
      </trkpt>
      <trkpt lat="47.51382" lon="6.77241">
        <ele>417.3</ele>
        <time>2017-11-01T08:19:43.000Z</time>
      </trkpt>
      <trkpt lat="47.51378" lon="6.77244">
        <ele>415.9</ele>
        <time>2017-11-01T08:19:44.000Z</time>
      </trkpt>
      <trkpt lat="47.51375" lon="6.77247">
        <ele>414.9</ele>
        <time>2017-11-01T08:19:45.000Z</time>
      </trkpt>
      <trkpt lat="47.5137" lon="6.7725">
        <ele>415.2</ele>
        <time>2017-11-01T08:19:46.000Z</time>
      </trkpt>
      <trkpt lat="47.51366" lon="6.77253">
        <ele>415.1</ele>
        <time>2017-11-01T08:19:47.000Z</time>
      </trkpt>
      <trkpt lat="47.51362" lon="6.77256">
        <ele>415.9</ele>
        <time>2017-11-01T08:19:48.000Z</time>
      </trkpt>
      <trkpt lat="47.51359" lon="6.77258">
        <ele>416.6</ele>
        <time>2017-11-01T08:19:49.000Z</time>
      </trkpt>
      <trkpt lat="47.51356" lon="6.77261">
        <ele>417.3</ele>
        <time>2017-11-01T08:19:50.000Z</time>
      </trkpt>
      <trkpt lat="47.51352" lon="6.77264">
        <ele>418.1</ele>
        <time>2017-11-01T08:19:51.000Z</time>
      </trkpt>
      <trkpt lat="47.51349" lon="6.77267">
        <ele>418.3</ele>
        <time>2017-11-01T08:19:52.000Z</time>
      </trkpt>
      <trkpt lat="47.51345" lon="6.77271">
        <ele>420.2</ele>
        <time>2017-11-01T08:19:53.000Z</time>
      </trkpt>
      <trkpt lat="47.51341" lon="6.77274">
        <ele>421.9</ele>
        <time>2017-11-01T08:19:54.000Z</time>
      </trkpt>
      <trkpt lat="47.51338" lon="6.77276">
        <ele>422</ele>
        <time>2017-11-01T08:19:55.000Z</time>
      </trkpt>
      <trkpt lat="47.51335" lon="6.77278">
        <ele>422.2</ele>
        <time>2017-11-01T08:19:56.000Z</time>
      </trkpt>
      <trkpt lat="47.51331" lon="6.77279">
        <ele>422.3</ele>
        <time>2017-11-01T08:19:57.000Z</time>
      </trkpt>
      <trkpt lat="47.51328" lon="6.7728">
        <ele>422.4</ele>
        <time>2017-11-01T08:19:58.000Z</time>
      </trkpt>
      <trkpt lat="47.51324" lon="6.7728">
        <ele>422.6</ele>
        <time>2017-11-01T08:19:59.000Z</time>
      </trkpt>
      <trkpt lat="47.51318" lon="6.77281">
        <ele>422.8</ele>
        <time>2017-11-01T08:20:00.000Z</time>
      </trkpt>
      <trkpt lat="47.51315" lon="6.77281">
        <ele>422.9</ele>
        <time>2017-11-01T08:20:01.000Z</time>
      </trkpt>
      <trkpt lat="47.51311" lon="6.7728">
        <ele>423</ele>
        <time>2017-11-01T08:20:02.000Z</time>
      </trkpt>
      <trkpt lat="47.51308" lon="6.7728">
        <ele>423.1</ele>
        <time>2017-11-01T08:20:03.000Z</time>
      </trkpt>
      <trkpt lat="47.51304" lon="6.77279">
        <ele>423.2</ele>
        <time>2017-11-01T08:20:04.000Z</time>
      </trkpt>
      <trkpt lat="47.51301" lon="6.77278">
        <ele>423.3</ele>
        <time>2017-11-01T08:20:05.000Z</time>
      </trkpt>
      <trkpt lat="47.51297" lon="6.77277">
        <ele>423.4</ele>
        <time>2017-11-01T08:20:06.000Z</time>
      </trkpt>
      <trkpt lat="47.51294" lon="6.77276">
        <ele>423.5</ele>
        <time>2017-11-01T08:20:07.000Z</time>
      </trkpt>
      <trkpt lat="47.51291" lon="6.77275">
        <ele>424.7</ele>
        <time>2017-11-01T08:20:08.000Z</time>
      </trkpt>
      <trkpt lat="47.51287" lon="6.77273">
        <ele>425.3</ele>
        <time>2017-11-01T08:20:09.000Z</time>
      </trkpt>
      <trkpt lat="47.51284" lon="6.77271">
        <ele>425.9</ele>
        <time>2017-11-01T08:20:10.000Z</time>
      </trkpt>
      <trkpt lat="47.5128" lon="6.77269">
        <ele>426</ele>
        <time>2017-11-01T08:20:11.000Z</time>
      </trkpt>
      <trkpt lat="47.51276" lon="6.77267">
        <ele>426.5</ele>
        <time>2017-11-01T08:20:12.000Z</time>
      </trkpt>
      <trkpt lat="47.51272" lon="6.77265">
        <ele>426.4</ele>
        <time>2017-11-01T08:20:13.000Z</time>
      </trkpt>
      <trkpt lat="47.51269" lon="6.77263">
        <ele>426.4</ele>
        <time>2017-11-01T08:20:14.000Z</time>
      </trkpt>
      <trkpt lat="47.51265" lon="6.7726">
        <ele>426.3</ele>
        <time>2017-11-01T08:20:15.000Z</time>
      </trkpt>
      <trkpt lat="47.51261" lon="6.77256">
        <ele>425.8</ele>
        <time>2017-11-01T08:20:16.000Z</time>
      </trkpt>
      <trkpt lat="47.51258" lon="6.77251">
        <ele>424.9</ele>
        <time>2017-11-01T08:20:17.000Z</time>
      </trkpt>
      <trkpt lat="47.51254" lon="6.77247">
        <ele>424.2</ele>
        <time>2017-11-01T08:20:18.000Z</time>
      </trkpt>
      <trkpt lat="47.51251" lon="6.77241">
        <ele>423.9</ele>
        <time>2017-11-01T08:20:19.000Z</time>
      </trkpt>
      <trkpt lat="47.51248" lon="6.77236">
        <ele>423.8</ele>
        <time>2017-11-01T08:20:20.000Z</time>
      </trkpt>
      <trkpt lat="47.51245" lon="6.77231">
        <ele>423.4</ele>
        <time>2017-11-01T08:20:21.000Z</time>
      </trkpt>
      <trkpt lat="47.51242" lon="6.77225">
        <ele>423.3</ele>
        <time>2017-11-01T08:20:22.000Z</time>
      </trkpt>
      <trkpt lat="47.51239" lon="6.77219">
        <ele>423</ele>
        <time>2017-11-01T08:20:23.000Z</time>
      </trkpt>
      <trkpt lat="47.51235" lon="6.77213">
        <ele>423.1</ele>
        <time>2017-11-01T08:20:24.000Z</time>
      </trkpt>
      <trkpt lat="47.51232" lon="6.77207">
        <ele>423.8</ele>
        <time>2017-11-01T08:20:25.000Z</time>
      </trkpt>
      <trkpt lat="47.51229" lon="6.77201">
        <ele>423.8</ele>
        <time>2017-11-01T08:20:26.000Z</time>
      </trkpt>
      <trkpt lat="47.51226" lon="6.77194">
        <ele>424.1</ele>
        <time>2017-11-01T08:20:27.000Z</time>
      </trkpt>
      <trkpt lat="47.51222" lon="6.77188">
        <ele>424.5</ele>
        <time>2017-11-01T08:20:28.000Z</time>
      </trkpt>
      <trkpt lat="47.51218" lon="6.77181">
        <ele>425</ele>
        <time>2017-11-01T08:20:29.000Z</time>
      </trkpt>
      <trkpt lat="47.51214" lon="6.77174">
        <ele>425.1</ele>
        <time>2017-11-01T08:20:30.000Z</time>
      </trkpt>
      <trkpt lat="47.51211" lon="6.77167">
        <ele>425.6</ele>
        <time>2017-11-01T08:20:31.000Z</time>
      </trkpt>
      <trkpt lat="47.51207" lon="6.77159">
        <ele>426.4</ele>
        <time>2017-11-01T08:20:32.000Z</time>
      </trkpt>
      <trkpt lat="47.51203" lon="6.77151">
        <ele>426.6</ele>
        <time>2017-11-01T08:20:33.000Z</time>
      </trkpt>
      <trkpt lat="47.51198" lon="6.77143">
        <ele>427</ele>
        <time>2017-11-01T08:20:34.000Z</time>
      </trkpt>
      <trkpt lat="47.51194" lon="6.77134">
        <ele>426.7</ele>
        <time>2017-11-01T08:20:35.000Z</time>
      </trkpt>
      <trkpt lat="47.51189" lon="6.77125">
        <ele>426.3</ele>
        <time>2017-11-01T08:20:36.000Z</time>
      </trkpt>
      <trkpt lat="47.51184" lon="6.77115">
        <ele>425.4</ele>
        <time>2017-11-01T08:20:37.000Z</time>
      </trkpt>
      <trkpt lat="47.51179" lon="6.77106">
        <ele>424.9</ele>
        <time>2017-11-01T08:20:38.000Z</time>
      </trkpt>
      <trkpt lat="47.51175" lon="6.77098">
        <ele>424</ele>
        <time>2017-11-01T08:20:39.000Z</time>
      </trkpt>
      <trkpt lat="47.5117" lon="6.77089">
        <ele>423.1</ele>
        <time>2017-11-01T08:20:40.000Z</time>
      </trkpt>
      <trkpt lat="47.51165" lon="6.77081">
        <ele>422.7</ele>
        <time>2017-11-01T08:20:41.000Z</time>
      </trkpt>
      <trkpt lat="47.51161" lon="6.77074">
        <ele>423.2</ele>
        <time>2017-11-01T08:20:42.000Z</time>
      </trkpt>
      <trkpt lat="47.51156" lon="6.77067">
        <ele>424</ele>
        <time>2017-11-01T08:20:43.000Z</time>
      </trkpt>
      <trkpt lat="47.51151" lon="6.77061">
        <ele>424.8</ele>
        <time>2017-11-01T08:20:44.000Z</time>
      </trkpt>
      <trkpt lat="47.51145" lon="6.77055">
        <ele>425.8</ele>
        <time>2017-11-01T08:20:45.000Z</time>
      </trkpt>
      <trkpt lat="47.5114" lon="6.7705">
        <ele>426.3</ele>
        <time>2017-11-01T08:20:46.000Z</time>
      </trkpt>
      <trkpt lat="47.51135" lon="6.77047">
        <ele>426.3</ele>
        <time>2017-11-01T08:20:47.000Z</time>
      </trkpt>
      <trkpt lat="47.5113" lon="6.77042">
        <ele>427</ele>
        <time>2017-11-01T08:20:48.000Z</time>
      </trkpt>
      <trkpt lat="47.51124" lon="6.77037">
        <ele>427.2</ele>
        <time>2017-11-01T08:20:49.000Z</time>
      </trkpt>
      <trkpt lat="47.51118" lon="6.77032">
        <ele>427.2</ele>
        <time>2017-11-01T08:20:50.000Z</time>
      </trkpt>
      <trkpt lat="47.51113" lon="6.77027">
        <ele>427.5</ele>
        <time>2017-11-01T08:20:51.000Z</time>
      </trkpt>
      <trkpt lat="47.51107" lon="6.77022">
        <ele>427</ele>
        <time>2017-11-01T08:20:52.000Z</time>
      </trkpt>
      <trkpt lat="47.51103" lon="6.77018">
        <ele>425.7</ele>
        <time>2017-11-01T08:20:53.000Z</time>
      </trkpt>
      <trkpt lat="47.51098" lon="6.77014">
        <ele>424.9</ele>
        <time>2017-11-01T08:20:54.000Z</time>
      </trkpt>
      <trkpt lat="47.51092" lon="6.7701">
        <ele>423.9</ele>
        <time>2017-11-01T08:20:55.000Z</time>
      </trkpt>
      <trkpt lat="47.51087" lon="6.77006">
        <ele>422.9</ele>
        <time>2017-11-01T08:20:56.000Z</time>
      </trkpt>
      <trkpt lat="47.51082" lon="6.77001">
        <ele>422</ele>
        <time>2017-11-01T08:20:57.000Z</time>
      </trkpt>
      <trkpt lat="47.51077" lon="6.76997">
        <ele>420.7</ele>
        <time>2017-11-01T08:20:58.000Z</time>
      </trkpt>
      <trkpt lat="47.51072" lon="6.76992">
        <ele>419.6</ele>
        <time>2017-11-01T08:20:59.000Z</time>
      </trkpt>
      <trkpt lat="47.51067" lon="6.76988">
        <ele>418.4</ele>
        <time>2017-11-01T08:21:00.000Z</time>
      </trkpt>
      <trkpt lat="47.51062" lon="6.76985">
        <ele>418.1</ele>
        <time>2017-11-01T08:21:01.000Z</time>
      </trkpt>
      <trkpt lat="47.51057" lon="6.76981">
        <ele>417.7</ele>
        <time>2017-11-01T08:21:02.000Z</time>
      </trkpt>
      <trkpt lat="47.51052" lon="6.76976">
        <ele>416.6</ele>
        <time>2017-11-01T08:21:03.000Z</time>
      </trkpt>
      <trkpt lat="47.51048" lon="6.76972">
        <ele>416.2</ele>
        <time>2017-11-01T08:21:04.000Z</time>
      </trkpt>
      <trkpt lat="47.51043" lon="6.76969">
        <ele>415.4</ele>
        <time>2017-11-01T08:21:05.000Z</time>
      </trkpt>
      <trkpt lat="47.51038" lon="6.76965">
        <ele>414.6</ele>
        <time>2017-11-01T08:21:06.000Z</time>
      </trkpt>
      <trkpt lat="47.51033" lon="6.76962">
        <ele>413.7</ele>
        <time>2017-11-01T08:21:07.000Z</time>
      </trkpt>
      <trkpt lat="47.51029" lon="6.76959">
        <ele>413.2</ele>
        <time>2017-11-01T08:21:08.000Z</time>
      </trkpt>
      <trkpt lat="47.51025" lon="6.76956">
        <ele>412.5</ele>
        <time>2017-11-01T08:21:09.000Z</time>
      </trkpt>
      <trkpt lat="47.51019" lon="6.76952">
        <ele>411.4</ele>
        <time>2017-11-01T08:21:10.000Z</time>
      </trkpt>
      <trkpt lat="47.51014" lon="6.76948">
        <ele>411.2</ele>
        <time>2017-11-01T08:21:11.000Z</time>
      </trkpt>
      <trkpt lat="47.51009" lon="6.76944">
        <ele>411.9</ele>
        <time>2017-11-01T08:21:12.000Z</time>
      </trkpt>
      <trkpt lat="47.51004" lon="6.7694">
        <ele>411.3</ele>
        <time>2017-11-01T08:21:13.000Z</time>
      </trkpt>
      <trkpt lat="47.51" lon="6.76936">
        <ele>411.3</ele>
        <time>2017-11-01T08:21:14.000Z</time>
      </trkpt>
      <trkpt lat="47.50996" lon="6.76931">
        <ele>412.5</ele>
        <time>2017-11-01T08:21:15.000Z</time>
      </trkpt>
      <trkpt lat="47.5099" lon="6.76925">
        <ele>413.7</ele>
        <time>2017-11-01T08:21:16.000Z</time>
      </trkpt>
      <trkpt lat="47.50985" lon="6.7692">
        <ele>415</ele>
        <time>2017-11-01T08:21:17.000Z</time>
      </trkpt>
      <trkpt lat="47.50979" lon="6.76917">
        <ele>415.5</ele>
        <time>2017-11-01T08:21:18.000Z</time>
      </trkpt>
      <trkpt lat="47.50974" lon="6.76915">
        <ele>416</ele>
        <time>2017-11-01T08:21:19.000Z</time>
      </trkpt>
      <trkpt lat="47.50969" lon="6.76913">
        <ele>415.9</ele>
        <time>2017-11-01T08:21:20.000Z</time>
      </trkpt>
      <trkpt lat="47.50965" lon="6.76907">
        <ele>416.6</ele>
        <time>2017-11-01T08:21:21.000Z</time>
      </trkpt>
      <trkpt lat="47.50961" lon="6.76902">
        <ele>417.1</ele>
        <time>2017-11-01T08:21:22.000Z</time>
      </trkpt>
      <trkpt lat="47.50957" lon="6.76897">
        <ele>417.3</ele>
        <time>2017-11-01T08:21:23.000Z</time>
      </trkpt>
      <trkpt lat="47.50953" lon="6.76893">
        <ele>417.2</ele>
        <time>2017-11-01T08:21:24.000Z</time>
      </trkpt>
      <trkpt lat="47.50949" lon="6.76888">
        <ele>417</ele>
        <time>2017-11-01T08:21:25.000Z</time>
      </trkpt>
      <trkpt lat="47.50945" lon="6.76884">
        <ele>417.1</ele>
        <time>2017-11-01T08:21:26.000Z</time>
      </trkpt>
      <trkpt lat="47.50941" lon="6.7688">
        <ele>417.7</ele>
        <time>2017-11-01T08:21:27.000Z</time>
      </trkpt>
      <trkpt lat="47.50937" lon="6.76875">
        <ele>419.1</ele>
        <time>2017-11-01T08:21:28.000Z</time>
      </trkpt>
      <trkpt lat="47.50933" lon="6.7687">
        <ele>420</ele>
        <time>2017-11-01T08:21:29.000Z</time>
      </trkpt>
      <trkpt lat="47.5093" lon="6.76865">
        <ele>420.7</ele>
        <time>2017-11-01T08:21:30.000Z</time>
      </trkpt>
      <trkpt lat="47.50926" lon="6.7686">
        <ele>421.9</ele>
        <time>2017-11-01T08:21:31.000Z</time>
      </trkpt>
      <trkpt lat="47.50923" lon="6.76855">
        <ele>423.1</ele>
        <time>2017-11-01T08:21:32.000Z</time>
      </trkpt>
      <trkpt lat="47.5092" lon="6.76851">
        <ele>424.2</ele>
        <time>2017-11-01T08:21:33.000Z</time>
      </trkpt>
      <trkpt lat="47.50918" lon="6.76846">
        <ele>424.3</ele>
        <time>2017-11-01T08:21:34.000Z</time>
      </trkpt>
      <trkpt lat="47.50916" lon="6.76841">
        <ele>424.3</ele>
        <time>2017-11-01T08:21:35.000Z</time>
      </trkpt>
      <trkpt lat="47.50915" lon="6.76836">
        <ele>424.3</ele>
        <time>2017-11-01T08:21:36.000Z</time>
      </trkpt>
      <trkpt lat="47.50913" lon="6.76831">
        <ele>424.3</ele>
        <time>2017-11-01T08:21:37.000Z</time>
      </trkpt>
      <trkpt lat="47.50911" lon="6.76826">
        <ele>424.4</ele>
        <time>2017-11-01T08:21:38.000Z</time>
      </trkpt>
      <trkpt lat="47.50909" lon="6.76821">
        <ele>424.5</ele>
        <time>2017-11-01T08:21:38.999Z</time>
      </trkpt>
      <trkpt lat="47.50907" lon="6.76816">
        <ele>425.3</ele>
        <time>2017-11-01T08:21:39.999Z</time>
      </trkpt>
      <trkpt lat="47.50905" lon="6.76812">
        <ele>425.3</ele>
        <time>2017-11-01T08:21:40.999Z</time>
      </trkpt>
      <trkpt lat="47.50903" lon="6.76807">
        <ele>425.8</ele>
        <time>2017-11-01T08:21:41.999Z</time>
      </trkpt>
      <trkpt lat="47.509" lon="6.76802">
        <ele>426.4</ele>
        <time>2017-11-01T08:21:42.999Z</time>
      </trkpt>
      <trkpt lat="47.50898" lon="6.76797">
        <ele>426.4</ele>
        <time>2017-11-01T08:21:43.999Z</time>
      </trkpt>
      <trkpt lat="47.50896" lon="6.76792">
        <ele>426.7</ele>
        <time>2017-11-01T08:21:44.999Z</time>
      </trkpt>
      <trkpt lat="47.50893" lon="6.76786">
        <ele>427</ele>
        <time>2017-11-01T08:21:45.999Z</time>
      </trkpt>
      <trkpt lat="47.50891" lon="6.76781">
        <ele>428.1</ele>
        <time>2017-11-01T08:21:46.999Z</time>
      </trkpt>
      <trkpt lat="47.50889" lon="6.76775">
        <ele>428.5</ele>
        <time>2017-11-01T08:21:47.999Z</time>
      </trkpt>
      <trkpt lat="47.50887" lon="6.7677">
        <ele>428.5</ele>
        <time>2017-11-01T08:21:48.999Z</time>
      </trkpt>
      <trkpt lat="47.50886" lon="6.76766">
        <ele>428.5</ele>
        <time>2017-11-01T08:21:49.999Z</time>
      </trkpt>
      <trkpt lat="47.50884" lon="6.76761">
        <ele>428.5</ele>
        <time>2017-11-01T08:21:50.999Z</time>
      </trkpt>
      <trkpt lat="47.50882" lon="6.76756">
        <ele>428.7</ele>
        <time>2017-11-01T08:21:51.999Z</time>
      </trkpt>
      <trkpt lat="47.50881" lon="6.76753">
        <ele>428.6</ele>
        <time>2017-11-01T08:21:52.999Z</time>
      </trkpt>
      <trkpt lat="47.50879" lon="6.76749">
        <ele>428.6</ele>
        <time>2017-11-01T08:21:53.999Z</time>
      </trkpt>
      <trkpt lat="47.50878" lon="6.76746">
        <ele>428.6</ele>
        <time>2017-11-01T08:21:54.999Z</time>
      </trkpt>
      <trkpt lat="47.50877" lon="6.76741">
        <ele>428.7</ele>
        <time>2017-11-01T08:21:55.999Z</time>
      </trkpt>
      <trkpt lat="47.50875" lon="6.76736">
        <ele>429.5</ele>
        <time>2017-11-01T08:21:56.999Z</time>
      </trkpt>
      <trkpt lat="47.50872" lon="6.7673">
        <ele>429.5</ele>
        <time>2017-11-01T08:21:57.999Z</time>
      </trkpt>
      <trkpt lat="47.50871" lon="6.76725">
        <ele>429.5</ele>
        <time>2017-11-01T08:21:58.999Z</time>
      </trkpt>
      <trkpt lat="47.50869" lon="6.76721">
        <ele>429.4</ele>
        <time>2017-11-01T08:21:59.999Z</time>
      </trkpt>
      <trkpt lat="47.50867" lon="6.76717">
        <ele>429.4</ele>
        <time>2017-11-01T08:22:00.999Z</time>
      </trkpt>
      <trkpt lat="47.50866" lon="6.76712">
        <ele>429.4</ele>
        <time>2017-11-01T08:22:01.999Z</time>
      </trkpt>
      <trkpt lat="47.50864" lon="6.76708">
        <ele>429.3</ele>
        <time>2017-11-01T08:22:02.999Z</time>
      </trkpt>
      <trkpt lat="47.50863" lon="6.76704">
        <ele>429.3</ele>
        <time>2017-11-01T08:22:03.999Z</time>
      </trkpt>
      <trkpt lat="47.50861" lon="6.76699">
        <ele>429.3</ele>
        <time>2017-11-01T08:22:04.999Z</time>
      </trkpt>
      <trkpt lat="47.5086" lon="6.76694">
        <ele>429.3</ele>
        <time>2017-11-01T08:22:05.999Z</time>
      </trkpt>
      <trkpt lat="47.50859" lon="6.7669">
        <ele>429.3</ele>
        <time>2017-11-01T08:22:06.999Z</time>
      </trkpt>
      <trkpt lat="47.50858" lon="6.76686">
        <ele>429.4</ele>
        <time>2017-11-01T08:22:07.999Z</time>
      </trkpt>
      <trkpt lat="47.50856" lon="6.76681">
        <ele>429.4</ele>
        <time>2017-11-01T08:22:08.999Z</time>
      </trkpt>
      <trkpt lat="47.50855" lon="6.76677">
        <ele>429.4</ele>
        <time>2017-11-01T08:22:09.999Z</time>
      </trkpt>
      <trkpt lat="47.50853" lon="6.76672">
        <ele>429.4</ele>
        <time>2017-11-01T08:22:10.999Z</time>
      </trkpt>
      <trkpt lat="47.50852" lon="6.76668">
        <ele>429.4</ele>
        <time>2017-11-01T08:22:11.999Z</time>
      </trkpt>
      <trkpt lat="47.5085" lon="6.76664">
        <ele>429.3</ele>
        <time>2017-11-01T08:22:12.999Z</time>
      </trkpt>
      <trkpt lat="47.50849" lon="6.7666">
        <ele>429.3</ele>
        <time>2017-11-01T08:22:13.999Z</time>
      </trkpt>
      <trkpt lat="47.50847" lon="6.76656">
        <ele>429.2</ele>
        <time>2017-11-01T08:22:14.999Z</time>
      </trkpt>
      <trkpt lat="47.50845" lon="6.76651">
        <ele>429.3</ele>
        <time>2017-11-01T08:22:15.999Z</time>
      </trkpt>
      <trkpt lat="47.50843" lon="6.76646">
        <ele>429.2</ele>
        <time>2017-11-01T08:22:16.999Z</time>
      </trkpt>
      <trkpt lat="47.50841" lon="6.76641">
        <ele>429.2</ele>
        <time>2017-11-01T08:22:17.999Z</time>
      </trkpt>
      <trkpt lat="47.5084" lon="6.76637">
        <ele>429.2</ele>
        <time>2017-11-01T08:22:18.999Z</time>
      </trkpt>
      <trkpt lat="47.50838" lon="6.76633">
        <ele>429.2</ele>
        <time>2017-11-01T08:22:19.999Z</time>
      </trkpt>
      <trkpt lat="47.50836" lon="6.76628">
        <ele>429.2</ele>
        <time>2017-11-01T08:22:20.999Z</time>
      </trkpt>
      <trkpt lat="47.50834" lon="6.76624">
        <ele>429.2</ele>
        <time>2017-11-01T08:22:21.999Z</time>
      </trkpt>
      <trkpt lat="47.50833" lon="6.7662">
        <ele>429.2</ele>
        <time>2017-11-01T08:22:22.999Z</time>
      </trkpt>
      <trkpt lat="47.50832" lon="6.76616">
        <ele>429.2</ele>
        <time>2017-11-01T08:22:23.999Z</time>
      </trkpt>
      <trkpt lat="47.5083" lon="6.76611">
        <ele>429.2</ele>
        <time>2017-11-01T08:22:24.999Z</time>
      </trkpt>
      <trkpt lat="47.50829" lon="6.76606">
        <ele>429.2</ele>
        <time>2017-11-01T08:22:25.999Z</time>
      </trkpt>
      <trkpt lat="47.50827" lon="6.76603">
        <ele>429.2</ele>
        <time>2017-11-01T08:22:26.999Z</time>
      </trkpt>
      <trkpt lat="47.50826" lon="6.766">
        <ele>429.2</ele>
        <time>2017-11-01T08:22:27.999Z</time>
      </trkpt>
      <trkpt lat="47.50822" lon="6.76598">
        <ele>429.3</ele>
        <time>2017-11-01T08:22:29.999Z</time>
      </trkpt>
      <trkpt lat="47.50819" lon="6.76599">
        <ele>429.4</ele>
        <time>2017-11-01T08:22:30.999Z</time>
      </trkpt>
      <trkpt lat="47.50815" lon="6.766">
        <ele>429.5</ele>
        <time>2017-11-01T08:22:32.999Z</time>
      </trkpt>
      <trkpt lat="47.50813" lon="6.766">
        <ele>429.5</ele>
        <time>2017-11-01T08:22:33.999Z</time>
      </trkpt>
      <trkpt lat="47.5081" lon="6.76597">
        <ele>429.5</ele>
        <time>2017-11-01T08:22:35.999Z</time>
      </trkpt>
      <trkpt lat="47.50807" lon="6.76595">
        <ele>429.5</ele>
        <time>2017-11-01T08:22:36.999Z</time>
      </trkpt>
      <trkpt lat="47.50804" lon="6.76596">
        <ele>429.5</ele>
        <time>2017-11-01T08:22:37.999Z</time>
      </trkpt>
      <trkpt lat="47.50802" lon="6.76598">
        <ele>429.5</ele>
        <time>2017-11-01T08:22:38.999Z</time>
      </trkpt>
      <trkpt lat="47.50799" lon="6.76599">
        <ele>429.5</ele>
        <time>2017-11-01T08:22:42.999Z</time>
      </trkpt>
      <trkpt lat="47.50798" lon="6.76599">
        <ele>429.5</ele>
        <time>2017-11-01T08:22:43.999Z</time>
      </trkpt>
      <trkpt lat="47.50798" lon="6.76599">
        <ele>430.4</ele>
        <time>2017-11-01T08:22:55.999Z</time>
      </trkpt>
      <trkpt lat="47.50787" lon="6.76597">
        <ele>430.6</ele>
        <time>2017-11-01T08:22:56.999Z</time>
      </trkpt>
      <trkpt lat="47.50787" lon="6.76597">
        <ele>432.9</ele>
        <time>2017-11-01T08:23:14.999Z</time>
      </trkpt>
      <trkpt lat="47.50775" lon="6.76597">
        <ele>433.1</ele>
        <time>2017-11-01T08:23:15.999Z</time>
      </trkpt>
      <trkpt lat="47.50772" lon="6.76597">
        <ele>433.3</ele>
        <time>2017-11-01T08:23:16.999Z</time>
      </trkpt>
      <trkpt lat="47.5077" lon="6.76597">
        <ele>433.5</ele>
        <time>2017-11-01T08:23:17.999Z</time>
      </trkpt>
      <trkpt lat="47.50768" lon="6.76598">
        <ele>433.8</ele>
        <time>2017-11-01T08:23:18.999Z</time>
      </trkpt>
      <trkpt lat="47.50765" lon="6.76597">
        <ele>434.1</ele>
        <time>2017-11-01T08:23:19.999Z</time>
      </trkpt>
      <trkpt lat="47.50762" lon="6.76597">
        <ele>434.3</ele>
        <time>2017-11-01T08:23:20.999Z</time>
      </trkpt>
      <trkpt lat="47.50759" lon="6.76597">
        <ele>434.5</ele>
        <time>2017-11-01T08:23:21.999Z</time>
      </trkpt>
      <trkpt lat="47.50756" lon="6.76598">
        <ele>434.6</ele>
        <time>2017-11-01T08:23:22.999Z</time>
      </trkpt>
      <trkpt lat="47.50752" lon="6.76599">
        <ele>434.8</ele>
        <time>2017-11-01T08:23:23.999Z</time>
      </trkpt>
      <trkpt lat="47.5075" lon="6.76599">
        <ele>434.9</ele>
        <time>2017-11-01T08:23:24.999Z</time>
      </trkpt>
      <trkpt lat="47.50747" lon="6.76599">
        <ele>435</ele>
        <time>2017-11-01T08:23:25.999Z</time>
      </trkpt>
      <trkpt lat="47.50744" lon="6.76599">
        <ele>435.1</ele>
        <time>2017-11-01T08:23:26.999Z</time>
      </trkpt>
      <trkpt lat="47.5074" lon="6.766">
        <ele>435.2</ele>
        <time>2017-11-01T08:23:27.999Z</time>
      </trkpt>
      <trkpt lat="47.50737" lon="6.766">
        <ele>435.3</ele>
        <time>2017-11-01T08:23:28.999Z</time>
      </trkpt>
      <trkpt lat="47.50733" lon="6.76599">
        <ele>435.4</ele>
        <time>2017-11-01T08:23:29.999Z</time>
      </trkpt>
      <trkpt lat="47.50731" lon="6.76598">
        <ele>435.5</ele>
        <time>2017-11-01T08:23:30.999Z</time>
      </trkpt>
      <trkpt lat="47.50728" lon="6.76597">
        <ele>435.6</ele>
        <time>2017-11-01T08:23:31.999Z</time>
      </trkpt>
      <trkpt lat="47.50725" lon="6.76597">
        <ele>435.7</ele>
        <time>2017-11-01T08:23:32.999Z</time>
      </trkpt>
      <trkpt lat="47.50722" lon="6.76596">
        <ele>435.7</ele>
        <time>2017-11-01T08:23:33.999Z</time>
      </trkpt>
      <trkpt lat="47.50718" lon="6.76596">
        <ele>435.8</ele>
        <time>2017-11-01T08:23:34.999Z</time>
      </trkpt>
      <trkpt lat="47.50714" lon="6.76596">
        <ele>435.9</ele>
        <time>2017-11-01T08:23:35.999Z</time>
      </trkpt>
      <trkpt lat="47.50711" lon="6.76596">
        <ele>436</ele>
        <time>2017-11-01T08:23:36.999Z</time>
      </trkpt>
      <trkpt lat="47.50708" lon="6.76595">
        <ele>436.2</ele>
        <time>2017-11-01T08:23:37.999Z</time>
      </trkpt>
      <trkpt lat="47.50704" lon="6.76595">
        <ele>436.2</ele>
        <time>2017-11-01T08:23:38.999Z</time>
      </trkpt>
      <trkpt lat="47.507" lon="6.76594">
        <ele>436.3</ele>
        <time>2017-11-01T08:23:39.999Z</time>
      </trkpt>
      <trkpt lat="47.50697" lon="6.76594">
        <ele>436.4</ele>
        <time>2017-11-01T08:23:40.999Z</time>
      </trkpt>
      <trkpt lat="47.50694" lon="6.76594">
        <ele>436.5</ele>
        <time>2017-11-01T08:23:41.999Z</time>
      </trkpt>
      <trkpt lat="47.50691" lon="6.76593">
        <ele>436.6</ele>
        <time>2017-11-01T08:23:42.999Z</time>
      </trkpt>
      <trkpt lat="47.50688" lon="6.76593">
        <ele>436.7</ele>
        <time>2017-11-01T08:23:43.999Z</time>
      </trkpt>
      <trkpt lat="47.50684" lon="6.76592">
        <ele>436.9</ele>
        <time>2017-11-01T08:23:44.999Z</time>
      </trkpt>
      <trkpt lat="47.5068" lon="6.76592">
        <ele>437</ele>
        <time>2017-11-01T08:23:45.999Z</time>
      </trkpt>
      <trkpt lat="47.50677" lon="6.76593">
        <ele>437.2</ele>
        <time>2017-11-01T08:23:46.999Z</time>
      </trkpt>
      <trkpt lat="47.50672" lon="6.76593">
        <ele>438.9</ele>
        <time>2017-11-01T08:23:47.999Z</time>
      </trkpt>
      <trkpt lat="47.50668" lon="6.76594">
        <ele>440.4</ele>
        <time>2017-11-01T08:23:48.999Z</time>
      </trkpt>
      <trkpt lat="47.50665" lon="6.76595">
        <ele>440.5</ele>
        <time>2017-11-01T08:23:49.999Z</time>
      </trkpt>
      <trkpt lat="47.50662" lon="6.76596">
        <ele>440.6</ele>
        <time>2017-11-01T08:23:50.999Z</time>
      </trkpt>
      <trkpt lat="47.50658" lon="6.76597">
        <ele>440.8</ele>
        <time>2017-11-01T08:23:51.999Z</time>
      </trkpt>
      <trkpt lat="47.50655" lon="6.76597">
        <ele>441</ele>
        <time>2017-11-01T08:23:52.999Z</time>
      </trkpt>
      <trkpt lat="47.50652" lon="6.76599">
        <ele>441.1</ele>
        <time>2017-11-01T08:23:53.999Z</time>
      </trkpt>
      <trkpt lat="47.50649" lon="6.766">
        <ele>441.3</ele>
        <time>2017-11-01T08:23:54.999Z</time>
      </trkpt>
      <trkpt lat="47.50646" lon="6.76601">
        <ele>441.4</ele>
        <time>2017-11-01T08:23:55.999Z</time>
      </trkpt>
      <trkpt lat="47.50642" lon="6.76603">
        <ele>441.6</ele>
        <time>2017-11-01T08:23:56.999Z</time>
      </trkpt>
      <trkpt lat="47.50638" lon="6.76605">
        <ele>441.8</ele>
        <time>2017-11-01T08:23:57.999Z</time>
      </trkpt>
      <trkpt lat="47.50635" lon="6.76607">
        <ele>441.9</ele>
        <time>2017-11-01T08:23:58.999Z</time>
      </trkpt>
      <trkpt lat="47.50631" lon="6.76608">
        <ele>442.1</ele>
        <time>2017-11-01T08:23:59.999Z</time>
      </trkpt>
      <trkpt lat="47.50628" lon="6.7661">
        <ele>442.2</ele>
        <time>2017-11-01T08:24:00.999Z</time>
      </trkpt>
      <trkpt lat="47.50626" lon="6.76613">
        <ele>442.3</ele>
        <time>2017-11-01T08:24:01.999Z</time>
      </trkpt>
      <trkpt lat="47.50623" lon="6.76615">
        <ele>442.3</ele>
        <time>2017-11-01T08:24:02.999Z</time>
      </trkpt>
      <trkpt lat="47.50621" lon="6.76617">
        <ele>442.3</ele>
        <time>2017-11-01T08:24:03.999Z</time>
      </trkpt>
      <trkpt lat="47.50619" lon="6.76619">
        <ele>442.4</ele>
        <time>2017-11-01T08:24:04.999Z</time>
      </trkpt>
      <trkpt lat="47.50616" lon="6.76621">
        <ele>442.5</ele>
        <time>2017-11-01T08:24:05.999Z</time>
      </trkpt>
      <trkpt lat="47.50613" lon="6.76623">
        <ele>442.6</ele>
        <time>2017-11-01T08:24:06.999Z</time>
      </trkpt>
      <trkpt lat="47.50611" lon="6.76624">
        <ele>442.8</ele>
        <time>2017-11-01T08:24:07.999Z</time>
      </trkpt>
      <trkpt lat="47.50608" lon="6.76625">
        <ele>442.9</ele>
        <time>2017-11-01T08:24:08.999Z</time>
      </trkpt>
      <trkpt lat="47.50604" lon="6.76626">
        <ele>443</ele>
        <time>2017-11-01T08:24:09.999Z</time>
      </trkpt>
      <trkpt lat="47.50601" lon="6.76628">
        <ele>443.1</ele>
        <time>2017-11-01T08:24:10.999Z</time>
      </trkpt>
      <trkpt lat="47.50597" lon="6.7663">
        <ele>443.3</ele>
        <time>2017-11-01T08:24:11.999Z</time>
      </trkpt>
      <trkpt lat="47.50594" lon="6.76631">
        <ele>443.3</ele>
        <time>2017-11-01T08:24:12.999Z</time>
      </trkpt>
      <trkpt lat="47.5059" lon="6.76632">
        <ele>443.4</ele>
        <time>2017-11-01T08:24:13.999Z</time>
      </trkpt>
      <trkpt lat="47.50587" lon="6.76634">
        <ele>443.4</ele>
        <time>2017-11-01T08:24:14.999Z</time>
      </trkpt>
      <trkpt lat="47.50584" lon="6.76635">
        <ele>443.5</ele>
        <time>2017-11-01T08:24:15.999Z</time>
      </trkpt>
      <trkpt lat="47.50582" lon="6.76635">
        <ele>443.5</ele>
        <time>2017-11-01T08:24:16.999Z</time>
      </trkpt>
      <trkpt lat="47.50578" lon="6.76636">
        <ele>443.6</ele>
        <time>2017-11-01T08:24:17.999Z</time>
      </trkpt>
      <trkpt lat="47.50576" lon="6.76637">
        <ele>443.7</ele>
        <time>2017-11-01T08:24:18.999Z</time>
      </trkpt>
      <trkpt lat="47.50571" lon="6.76638">
        <ele>443.8</ele>
        <time>2017-11-01T08:24:19.999Z</time>
      </trkpt>
      <trkpt lat="47.50567" lon="6.76639">
        <ele>445</ele>
        <time>2017-11-01T08:24:20.999Z</time>
      </trkpt>
      <trkpt lat="47.50563" lon="6.7664">
        <ele>446.5</ele>
        <time>2017-11-01T08:24:21.999Z</time>
      </trkpt>
      <trkpt lat="47.5056" lon="6.76641">
        <ele>447.6</ele>
        <time>2017-11-01T08:24:22.999Z</time>
      </trkpt>
      <trkpt lat="47.50557" lon="6.76642">
        <ele>447.7</ele>
        <time>2017-11-01T08:24:23.999Z</time>
      </trkpt>
      <trkpt lat="47.50553" lon="6.76644">
        <ele>447.7</ele>
        <time>2017-11-01T08:24:24.999Z</time>
      </trkpt>
      <trkpt lat="47.5055" lon="6.76644">
        <ele>448.6</ele>
        <time>2017-11-01T08:24:25.999Z</time>
      </trkpt>
      <trkpt lat="47.50546" lon="6.76645">
        <ele>448.7</ele>
        <time>2017-11-01T08:24:26.999Z</time>
      </trkpt>
      <trkpt lat="47.50542" lon="6.76646">
        <ele>448.7</ele>
        <time>2017-11-01T08:24:27.999Z</time>
      </trkpt>
      <trkpt lat="47.50538" lon="6.76647">
        <ele>449.2</ele>
        <time>2017-11-01T08:24:28.999Z</time>
      </trkpt>
      <trkpt lat="47.50533" lon="6.76648">
        <ele>449.8</ele>
        <time>2017-11-01T08:24:29.999Z</time>
      </trkpt>
      <trkpt lat="47.50529" lon="6.7665">
        <ele>449.5</ele>
        <time>2017-11-01T08:24:30.999Z</time>
      </trkpt>
      <trkpt lat="47.50525" lon="6.76651">
        <ele>449.2</ele>
        <time>2017-11-01T08:24:31.999Z</time>
      </trkpt>
      <trkpt lat="47.50521" lon="6.76652">
        <ele>448.8</ele>
        <time>2017-11-01T08:24:32.999Z</time>
      </trkpt>
      <trkpt lat="47.50516" lon="6.76654">
        <ele>448.8</ele>
        <time>2017-11-01T08:24:33.999Z</time>
      </trkpt>
      <trkpt lat="47.50512" lon="6.76655">
        <ele>448.4</ele>
        <time>2017-11-01T08:24:34.999Z</time>
      </trkpt>
      <trkpt lat="47.50506" lon="6.76657">
        <ele>447.9</ele>
        <time>2017-11-01T08:24:35.999Z</time>
      </trkpt>
      <trkpt lat="47.50501" lon="6.76658">
        <ele>447.4</ele>
        <time>2017-11-01T08:24:36.999Z</time>
      </trkpt>
      <trkpt lat="47.50495" lon="6.7666">
        <ele>447.3</ele>
        <time>2017-11-01T08:24:37.999Z</time>
      </trkpt>
      <trkpt lat="47.50489" lon="6.76662">
        <ele>447.3</ele>
        <time>2017-11-01T08:24:38.999Z</time>
      </trkpt>
      <trkpt lat="47.50484" lon="6.76663">
        <ele>447.4</ele>
        <time>2017-11-01T08:24:39.999Z</time>
      </trkpt>
      <trkpt lat="47.50479" lon="6.76665">
        <ele>447.9</ele>
        <time>2017-11-01T08:24:40.999Z</time>
      </trkpt>
      <trkpt lat="47.50474" lon="6.76667">
        <ele>448.3</ele>
        <time>2017-11-01T08:24:41.999Z</time>
      </trkpt>
      <trkpt lat="47.50469" lon="6.76668">
        <ele>448.8</ele>
        <time>2017-11-01T08:24:42.999Z</time>
      </trkpt>
      <trkpt lat="47.50463" lon="6.7667">
        <ele>449</ele>
        <time>2017-11-01T08:24:43.999Z</time>
      </trkpt>
      <trkpt lat="47.50457" lon="6.76672">
        <ele>449.3</ele>
        <time>2017-11-01T08:24:44.999Z</time>
      </trkpt>
      <trkpt lat="47.50452" lon="6.76674">
        <ele>449.5</ele>
        <time>2017-11-01T08:24:45.999Z</time>
      </trkpt>
      <trkpt lat="47.50448" lon="6.76676">
        <ele>449.5</ele>
        <time>2017-11-01T08:24:46.999Z</time>
      </trkpt>
      <trkpt lat="47.50442" lon="6.76678">
        <ele>449.5</ele>
        <time>2017-11-01T08:24:47.999Z</time>
      </trkpt>
      <trkpt lat="47.50436" lon="6.7668">
        <ele>449.5</ele>
        <time>2017-11-01T08:24:48.999Z</time>
      </trkpt>
      <trkpt lat="47.50431" lon="6.76682">
        <ele>449.8</ele>
        <time>2017-11-01T08:24:49.999Z</time>
      </trkpt>
      <trkpt lat="47.50425" lon="6.76684">
        <ele>449.9</ele>
        <time>2017-11-01T08:24:50.999Z</time>
      </trkpt>
      <trkpt lat="47.50419" lon="6.76686">
        <ele>450.4</ele>
        <time>2017-11-01T08:24:51.999Z</time>
      </trkpt>
      <trkpt lat="47.50414" lon="6.76688">
        <ele>450.5</ele>
        <time>2017-11-01T08:24:52.999Z</time>
      </trkpt>
      <trkpt lat="47.50409" lon="6.7669">
        <ele>450.7</ele>
        <time>2017-11-01T08:24:53.999Z</time>
      </trkpt>
      <trkpt lat="47.50405" lon="6.76692">
        <ele>451.1</ele>
        <time>2017-11-01T08:24:54.999Z</time>
      </trkpt>
      <trkpt lat="47.504" lon="6.76694">
        <ele>451.6</ele>
        <time>2017-11-01T08:24:55.999Z</time>
      </trkpt>
      <trkpt lat="47.50395" lon="6.76696">
        <ele>452.4</ele>
        <time>2017-11-01T08:24:56.999Z</time>
      </trkpt>
      <trkpt lat="47.50391" lon="6.76697">
        <ele>452.7</ele>
        <time>2017-11-01T08:24:57.999Z</time>
      </trkpt>
      <trkpt lat="47.50387" lon="6.76701">
        <ele>452.5</ele>
        <time>2017-11-01T08:24:58.999Z</time>
      </trkpt>
      <trkpt lat="47.50383" lon="6.76704">
        <ele>451.4</ele>
        <time>2017-11-01T08:24:59.999Z</time>
      </trkpt>
      <trkpt lat="47.50378" lon="6.76706">
        <ele>451</ele>
        <time>2017-11-01T08:25:00.999Z</time>
      </trkpt>
      <trkpt lat="47.50374" lon="6.76707">
        <ele>450.7</ele>
        <time>2017-11-01T08:25:01.999Z</time>
      </trkpt>
      <trkpt lat="47.5037" lon="6.76709">
        <ele>451.4</ele>
        <time>2017-11-01T08:25:02.999Z</time>
      </trkpt>
      <trkpt lat="47.50366" lon="6.76711">
        <ele>451.5</ele>
        <time>2017-11-01T08:25:03.999Z</time>
      </trkpt>
      <trkpt lat="47.50361" lon="6.76713">
        <ele>451.3</ele>
        <time>2017-11-01T08:25:04.999Z</time>
      </trkpt>
      <trkpt lat="47.50357" lon="6.76715">
        <ele>450.4</ele>
        <time>2017-11-01T08:25:05.999Z</time>
      </trkpt>
      <trkpt lat="47.50353" lon="6.76716">
        <ele>450.6</ele>
        <time>2017-11-01T08:25:06.999Z</time>
      </trkpt>
      <trkpt lat="47.5035" lon="6.76717">
        <ele>450.2</ele>
        <time>2017-11-01T08:25:07.999Z</time>
      </trkpt>
      <trkpt lat="47.50346" lon="6.76719">
        <ele>449.7</ele>
        <time>2017-11-01T08:25:08.999Z</time>
      </trkpt>
      <trkpt lat="47.50342" lon="6.76721">
        <ele>449.5</ele>
        <time>2017-11-01T08:25:09.999Z</time>
      </trkpt>
      <trkpt lat="47.50339" lon="6.76722">
        <ele>448.6</ele>
        <time>2017-11-01T08:25:10.999Z</time>
      </trkpt>
      <trkpt lat="47.50335" lon="6.76724">
        <ele>449</ele>
        <time>2017-11-01T08:25:11.999Z</time>
      </trkpt>
      <trkpt lat="47.5033" lon="6.76726">
        <ele>449.2</ele>
        <time>2017-11-01T08:25:12.999Z</time>
      </trkpt>
      <trkpt lat="47.50326" lon="6.76728">
        <ele>449</ele>
        <time>2017-11-01T08:25:13.999Z</time>
      </trkpt>
      <trkpt lat="47.50321" lon="6.7673">
        <ele>448.8</ele>
        <time>2017-11-01T08:25:14.999Z</time>
      </trkpt>
      <trkpt lat="47.50316" lon="6.76732">
        <ele>448.6</ele>
        <time>2017-11-01T08:25:15.999Z</time>
      </trkpt>
      <trkpt lat="47.50313" lon="6.76734">
        <ele>448.6</ele>
        <time>2017-11-01T08:25:16.999Z</time>
      </trkpt>
      <trkpt lat="47.50308" lon="6.76736">
        <ele>448.4</ele>
        <time>2017-11-01T08:25:17.999Z</time>
      </trkpt>
      <trkpt lat="47.50303" lon="6.76736">
        <ele>448.4</ele>
        <time>2017-11-01T08:25:18.999Z</time>
      </trkpt>
      <trkpt lat="47.50298" lon="6.76737">
        <ele>448.6</ele>
        <time>2017-11-01T08:25:19.999Z</time>
      </trkpt>
      <trkpt lat="47.50294" lon="6.76737">
        <ele>448.5</ele>
        <time>2017-11-01T08:25:20.999Z</time>
      </trkpt>
      <trkpt lat="47.50289" lon="6.76738">
        <ele>448.2</ele>
        <time>2017-11-01T08:25:21.999Z</time>
      </trkpt>
      <trkpt lat="47.50285" lon="6.76739">
        <ele>448.3</ele>
        <time>2017-11-01T08:25:22.999Z</time>
      </trkpt>
      <trkpt lat="47.5028" lon="6.7674">
        <ele>448.7</ele>
        <time>2017-11-01T08:25:23.999Z</time>
      </trkpt>
      <trkpt lat="47.50276" lon="6.76741">
        <ele>449.5</ele>
        <time>2017-11-01T08:25:24.999Z</time>
      </trkpt>
      <trkpt lat="47.50272" lon="6.76742">
        <ele>449.5</ele>
        <time>2017-11-01T08:25:25.999Z</time>
      </trkpt>
      <trkpt lat="47.50269" lon="6.76743">
        <ele>450.5</ele>
        <time>2017-11-01T08:25:26.999Z</time>
      </trkpt>
      <trkpt lat="47.50265" lon="6.76745">
        <ele>450.5</ele>
        <time>2017-11-01T08:25:27.999Z</time>
      </trkpt>
      <trkpt lat="47.50263" lon="6.76745">
        <ele>450.5</ele>
        <time>2017-11-01T08:25:28.999Z</time>
      </trkpt>
      <trkpt lat="47.50259" lon="6.76747">
        <ele>450.4</ele>
        <time>2017-11-01T08:25:29.999Z</time>
      </trkpt>
      <trkpt lat="47.50255" lon="6.76748">
        <ele>450.3</ele>
        <time>2017-11-01T08:25:30.999Z</time>
      </trkpt>
      <trkpt lat="47.50252" lon="6.76748">
        <ele>450.3</ele>
        <time>2017-11-01T08:25:31.999Z</time>
      </trkpt>
      <trkpt lat="47.50249" lon="6.76745">
        <ele>450.3</ele>
        <time>2017-11-01T08:25:32.999Z</time>
      </trkpt>
      <trkpt lat="47.50247" lon="6.76741">
        <ele>450.2</ele>
        <time>2017-11-01T08:25:33.999Z</time>
      </trkpt>
      <trkpt lat="47.50245" lon="6.76737">
        <ele>450.1</ele>
        <time>2017-11-01T08:25:34.999Z</time>
      </trkpt>
      <trkpt lat="47.50243" lon="6.76735">
        <ele>450.1</ele>
        <time>2017-11-01T08:25:35.999Z</time>
      </trkpt>
      <trkpt lat="47.50241" lon="6.76732">
        <ele>450</ele>
        <time>2017-11-01T08:25:36.999Z</time>
      </trkpt>
      <trkpt lat="47.50239" lon="6.76729">
        <ele>449.9</ele>
        <time>2017-11-01T08:25:37.999Z</time>
      </trkpt>
      <trkpt lat="47.50237" lon="6.76725">
        <ele>450</ele>
        <time>2017-11-01T08:25:38.999Z</time>
      </trkpt>
      <trkpt lat="47.50235" lon="6.76721">
        <ele>449.9</ele>
        <time>2017-11-01T08:25:39.999Z</time>
      </trkpt>
      <trkpt lat="47.50234" lon="6.76716">
        <ele>449.9</ele>
        <time>2017-11-01T08:25:40.999Z</time>
      </trkpt>
      <trkpt lat="47.50232" lon="6.76711">
        <ele>448.7</ele>
        <time>2017-11-01T08:25:41.999Z</time>
      </trkpt>
      <trkpt lat="47.5023" lon="6.76707">
        <ele>447.3</ele>
        <time>2017-11-01T08:25:42.999Z</time>
      </trkpt>
      <trkpt lat="47.50229" lon="6.76702">
        <ele>447.3</ele>
        <time>2017-11-01T08:25:43.999Z</time>
      </trkpt>
      <trkpt lat="47.50226" lon="6.76697">
        <ele>447.3</ele>
        <time>2017-11-01T08:25:44.999Z</time>
      </trkpt>
      <trkpt lat="47.50225" lon="6.76693">
        <ele>447.2</ele>
        <time>2017-11-01T08:25:45.999Z</time>
      </trkpt>
      <trkpt lat="47.50223" lon="6.76688">
        <ele>446.8</ele>
        <time>2017-11-01T08:25:46.999Z</time>
      </trkpt>
      <trkpt lat="47.50221" lon="6.76682">
        <ele>446.8</ele>
        <time>2017-11-01T08:25:47.999Z</time>
      </trkpt>
      <trkpt lat="47.5022" lon="6.76678">
        <ele>446.8</ele>
        <time>2017-11-01T08:25:48.999Z</time>
      </trkpt>
      <trkpt lat="47.50218" lon="6.76672">
        <ele>446.9</ele>
        <time>2017-11-01T08:25:49.999Z</time>
      </trkpt>
      <trkpt lat="47.50216" lon="6.76666">
        <ele>446.2</ele>
        <time>2017-11-01T08:25:50.999Z</time>
      </trkpt>
      <trkpt lat="47.50214" lon="6.7666">
        <ele>446</ele>
        <time>2017-11-01T08:25:51.999Z</time>
      </trkpt>
      <trkpt lat="47.50212" lon="6.76655">
        <ele>445.8</ele>
        <time>2017-11-01T08:25:52.999Z</time>
      </trkpt>
      <trkpt lat="47.5021" lon="6.7665">
        <ele>445.8</ele>
        <time>2017-11-01T08:25:53.999Z</time>
      </trkpt>
      <trkpt lat="47.50208" lon="6.76645">
        <ele>445.8</ele>
        <time>2017-11-01T08:25:54.999Z</time>
      </trkpt>
      <trkpt lat="47.50206" lon="6.7664">
        <ele>446.2</ele>
        <time>2017-11-01T08:25:55.999Z</time>
      </trkpt>
      <trkpt lat="47.50203" lon="6.76634">
        <ele>446.7</ele>
        <time>2017-11-01T08:25:56.999Z</time>
      </trkpt>
      <trkpt lat="47.50201" lon="6.76629">
        <ele>447.4</ele>
        <time>2017-11-01T08:25:57.999Z</time>
      </trkpt>
      <trkpt lat="47.50199" lon="6.76624">
        <ele>447.4</ele>
        <time>2017-11-01T08:25:58.999Z</time>
      </trkpt>
      <trkpt lat="47.50197" lon="6.76619">
        <ele>447.4</ele>
        <time>2017-11-01T08:25:59.999Z</time>
      </trkpt>
      <trkpt lat="47.50195" lon="6.76616">
        <ele>447.3</ele>
        <time>2017-11-01T08:26:00.999Z</time>
      </trkpt>
      <trkpt lat="47.50194" lon="6.76611">
        <ele>447.2</ele>
        <time>2017-11-01T08:26:01.999Z</time>
      </trkpt>
      <trkpt lat="47.50192" lon="6.76607">
        <ele>447.1</ele>
        <time>2017-11-01T08:26:02.999Z</time>
      </trkpt>
      <trkpt lat="47.50191" lon="6.76602">
        <ele>446.9</ele>
        <time>2017-11-01T08:26:03.999Z</time>
      </trkpt>
      <trkpt lat="47.50189" lon="6.76596">
        <ele>446.6</ele>
        <time>2017-11-01T08:26:04.999Z</time>
      </trkpt>
      <trkpt lat="47.50188" lon="6.7659">
        <ele>446.2</ele>
        <time>2017-11-01T08:26:05.999Z</time>
      </trkpt>
      <trkpt lat="47.50188" lon="6.76583">
        <ele>445.9</ele>
        <time>2017-11-01T08:26:06.999Z</time>
      </trkpt>
      <trkpt lat="47.50187" lon="6.76577">
        <ele>445.5</ele>
        <time>2017-11-01T08:26:07.999Z</time>
      </trkpt>
      <trkpt lat="47.50188" lon="6.76573">
        <ele>445.2</ele>
        <time>2017-11-01T08:26:08.999Z</time>
      </trkpt>
      <trkpt lat="47.50191" lon="6.76569">
        <ele>444.9</ele>
        <time>2017-11-01T08:26:09.999Z</time>
      </trkpt>
      <trkpt lat="47.50196" lon="6.76566">
        <ele>444.6</ele>
        <time>2017-11-01T08:26:10.999Z</time>
      </trkpt>
      <trkpt lat="47.50199" lon="6.76563">
        <ele>444.3</ele>
        <time>2017-11-01T08:26:11.999Z</time>
      </trkpt>
      <trkpt lat="47.50205" lon="6.7656">
        <ele>444</ele>
        <time>2017-11-01T08:26:12.999Z</time>
      </trkpt>
      <trkpt lat="47.50209" lon="6.76558">
        <ele>443.1</ele>
        <time>2017-11-01T08:26:14.999Z</time>
      </trkpt>
      <trkpt lat="47.50208" lon="6.76554">
        <ele>438.7</ele>
        <time>2017-11-01T08:26:15.999Z</time>
      </trkpt>
      <trkpt lat="47.50208" lon="6.7655">
        <ele>436</ele>
        <time>2017-11-01T08:26:16.999Z</time>
      </trkpt>
      <trkpt lat="47.50207" lon="6.76546">
        <ele>435.6</ele>
        <time>2017-11-01T08:26:17.999Z</time>
      </trkpt>
      <trkpt lat="47.50204" lon="6.76541">
        <ele>433</ele>
        <time>2017-11-01T08:26:18.999Z</time>
      </trkpt>
      <trkpt lat="47.50203" lon="6.76535">
        <ele>430.5</ele>
        <time>2017-11-01T08:26:19.999Z</time>
      </trkpt>
      <trkpt lat="47.50202" lon="6.76528">
        <ele>427.7</ele>
        <time>2017-11-01T08:26:20.999Z</time>
      </trkpt>
      <trkpt lat="47.502" lon="6.76522">
        <ele>425.4</ele>
        <time>2017-11-01T08:26:21.999Z</time>
      </trkpt>
      <trkpt lat="47.50198" lon="6.76517">
        <ele>423.1</ele>
        <time>2017-11-01T08:26:22.999Z</time>
      </trkpt>
      <trkpt lat="47.50195" lon="6.76512">
        <ele>420.3</ele>
        <time>2017-11-01T08:26:23.999Z</time>
      </trkpt>
      <trkpt lat="47.50193" lon="6.76507">
        <ele>418.4</ele>
        <time>2017-11-01T08:26:24.999Z</time>
      </trkpt>
      <trkpt lat="47.50191" lon="6.76502">
        <ele>417.1</ele>
        <time>2017-11-01T08:26:25.999Z</time>
      </trkpt>
      <trkpt lat="47.50189" lon="6.76494">
        <ele>416</ele>
        <time>2017-11-01T08:26:26.999Z</time>
      </trkpt>
      <trkpt lat="47.50185" lon="6.76482">
        <ele>414.4</ele>
        <time>2017-11-01T08:26:27.999Z</time>
      </trkpt>
      <trkpt lat="47.50184" lon="6.76472">
        <ele>412.7</ele>
        <time>2017-11-01T08:26:28.999Z</time>
      </trkpt>
      <trkpt lat="47.50182" lon="6.76464">
        <ele>410.8</ele>
        <time>2017-11-01T08:26:29.999Z</time>
      </trkpt>
      <trkpt lat="47.50177" lon="6.76456">
        <ele>409.1</ele>
        <time>2017-11-01T08:26:30.999Z</time>
      </trkpt>
      <trkpt lat="47.5017" lon="6.76448">
        <ele>406.7</ele>
        <time>2017-11-01T08:26:31.999Z</time>
      </trkpt>
      <trkpt lat="47.50165" lon="6.7644">
        <ele>404.2</ele>
        <time>2017-11-01T08:26:32.999Z</time>
      </trkpt>
      <trkpt lat="47.5016" lon="6.76431">
        <ele>403.7</ele>
        <time>2017-11-01T08:26:33.999Z</time>
      </trkpt>
      <trkpt lat="47.50154" lon="6.7642">
        <ele>403.5</ele>
        <time>2017-11-01T08:26:34.999Z</time>
      </trkpt>
      <trkpt lat="47.50147" lon="6.76408">
        <ele>402.7</ele>
        <time>2017-11-01T08:26:35.999Z</time>
      </trkpt>
      <trkpt lat="47.5014" lon="6.76397">
        <ele>400.7</ele>
        <time>2017-11-01T08:26:36.999Z</time>
      </trkpt>
      <trkpt lat="47.50136" lon="6.76386">
        <ele>398.8</ele>
        <time>2017-11-01T08:26:37.999Z</time>
      </trkpt>
      <trkpt lat="47.50131" lon="6.76375">
        <ele>398.9</ele>
        <time>2017-11-01T08:26:38.999Z</time>
      </trkpt>
      <trkpt lat="47.50128" lon="6.76364">
        <ele>398.2</ele>
        <time>2017-11-01T08:26:39.999Z</time>
      </trkpt>
      <trkpt lat="47.50125" lon="6.7635">
        <ele>396.9</ele>
        <time>2017-11-01T08:26:40.999Z</time>
      </trkpt>
      <trkpt lat="47.50124" lon="6.76338">
        <ele>396.3</ele>
        <time>2017-11-01T08:26:41.999Z</time>
      </trkpt>
      <trkpt lat="47.50124" lon="6.76327">
        <ele>395.9</ele>
        <time>2017-11-01T08:26:42.999Z</time>
      </trkpt>
      <trkpt lat="47.50122" lon="6.76316">
        <ele>395.7</ele>
        <time>2017-11-01T08:26:43.999Z</time>
      </trkpt>
      <trkpt lat="47.50119" lon="6.76305">
        <ele>396.1</ele>
        <time>2017-11-01T08:26:44.999Z</time>
      </trkpt>
      <trkpt lat="47.50117" lon="6.76293">
        <ele>396.9</ele>
        <time>2017-11-01T08:26:45.999Z</time>
      </trkpt>
      <trkpt lat="47.50115" lon="6.76288">
        <ele>397.1</ele>
        <time>2017-11-01T08:26:46.999Z</time>
      </trkpt>
      <trkpt lat="47.50113" lon="6.76282">
        <ele>396.7</ele>
        <time>2017-11-01T08:26:47.999Z</time>
      </trkpt>
      <trkpt lat="47.5011" lon="6.76277">
        <ele>397</ele>
        <time>2017-11-01T08:26:48.999Z</time>
      </trkpt>
      <trkpt lat="47.50107" lon="6.76273">
        <ele>395.8</ele>
        <time>2017-11-01T08:26:49.999Z</time>
      </trkpt>
      <trkpt lat="47.50104" lon="6.76266">
        <ele>393.9</ele>
        <time>2017-11-01T08:26:50.999Z</time>
      </trkpt>
      <trkpt lat="47.50099" lon="6.76259">
        <ele>392.4</ele>
        <time>2017-11-01T08:26:51.999Z</time>
      </trkpt>
      <trkpt lat="47.50095" lon="6.76252">
        <ele>391.3</ele>
        <time>2017-11-01T08:26:52.999Z</time>
      </trkpt>
      <trkpt lat="47.50094" lon="6.76244">
        <ele>390.3</ele>
        <time>2017-11-01T08:26:53.999Z</time>
      </trkpt>
      <trkpt lat="47.50093" lon="6.76233">
        <ele>388.9</ele>
        <time>2017-11-01T08:26:54.999Z</time>
      </trkpt>
      <trkpt lat="47.5009" lon="6.76222">
        <ele>388.1</ele>
        <time>2017-11-01T08:26:55.999Z</time>
      </trkpt>
      <trkpt lat="47.50083" lon="6.76196">
        <ele>386.2</ele>
        <time>2017-11-01T08:26:57.999Z</time>
      </trkpt>
      <trkpt lat="47.5008" lon="6.76184">
        <ele>385</ele>
        <time>2017-11-01T08:26:58.999Z</time>
      </trkpt>
      <trkpt lat="47.50077" lon="6.76176">
        <ele>382.7</ele>
        <time>2017-11-01T08:26:59.999Z</time>
      </trkpt>
      <trkpt lat="47.50074" lon="6.76168">
        <ele>379.9</ele>
        <time>2017-11-01T08:27:00.999Z</time>
      </trkpt>
      <trkpt lat="47.50073" lon="6.76159">
        <ele>378.6</ele>
        <time>2017-11-01T08:27:01.999Z</time>
      </trkpt>
      <trkpt lat="47.50071" lon="6.76148">
        <ele>378.2</ele>
        <time>2017-11-01T08:27:02.999Z</time>
      </trkpt>
      <trkpt lat="47.50068" lon="6.76139">
        <ele>378.9</ele>
        <time>2017-11-01T08:27:03.999Z</time>
      </trkpt>
      <trkpt lat="47.50061" lon="6.76129">
        <ele>377.4</ele>
        <time>2017-11-01T08:27:04.999Z</time>
      </trkpt>
      <trkpt lat="47.50057" lon="6.76121">
        <ele>376.1</ele>
        <time>2017-11-01T08:27:05.999Z</time>
      </trkpt>
      <trkpt lat="47.50056" lon="6.76106">
        <ele>375.2</ele>
        <time>2017-11-01T08:27:06.999Z</time>
      </trkpt>
      <trkpt lat="47.50055" lon="6.76091">
        <ele>373.5</ele>
        <time>2017-11-01T08:27:07.999Z</time>
      </trkpt>
      <trkpt lat="47.50053" lon="6.76077">
        <ele>371.1</ele>
        <time>2017-11-01T08:27:08.999Z</time>
      </trkpt>
      <trkpt lat="47.50048" lon="6.76071">
        <ele>369.6</ele>
        <time>2017-11-01T08:27:09.999Z</time>
      </trkpt>
      <trkpt lat="47.50041" lon="6.76068">
        <ele>368.5</ele>
        <time>2017-11-01T08:27:10.999Z</time>
      </trkpt>
      <trkpt lat="47.50034" lon="6.76062">
        <ele>369.2</ele>
        <time>2017-11-01T08:27:11.999Z</time>
      </trkpt>
      <trkpt lat="47.50025" lon="6.76052">
        <ele>371.1</ele>
        <time>2017-11-01T08:27:12.999Z</time>
      </trkpt>
      <trkpt lat="47.50017" lon="6.76042">
        <ele>373.4</ele>
        <time>2017-11-01T08:27:13.999Z</time>
      </trkpt>
      <trkpt lat="47.50009" lon="6.7603">
        <ele>376.2</ele>
        <time>2017-11-01T08:27:14.999Z</time>
      </trkpt>
      <trkpt lat="47.50002" lon="6.76018">
        <ele>377.6</ele>
        <time>2017-11-01T08:27:15.999Z</time>
      </trkpt>
      <trkpt lat="47.49997" lon="6.76002">
        <ele>377.2</ele>
        <time>2017-11-01T08:27:16.999Z</time>
      </trkpt>
      <trkpt lat="47.49993" lon="6.75989">
        <ele>378</ele>
        <time>2017-11-01T08:27:17.999Z</time>
      </trkpt>
      <trkpt lat="47.49991" lon="6.75977">
        <ele>378.7</ele>
        <time>2017-11-01T08:27:18.999Z</time>
      </trkpt>
      <trkpt lat="47.49992" lon="6.75962">
        <ele>379.7</ele>
        <time>2017-11-01T08:27:19.999Z</time>
      </trkpt>
      <trkpt lat="47.49994" lon="6.7595">
        <ele>379.4</ele>
        <time>2017-11-01T08:27:20.999Z</time>
      </trkpt>
      <trkpt lat="47.49996" lon="6.75939">
        <ele>379.1</ele>
        <time>2017-11-01T08:27:21.999Z</time>
      </trkpt>
      <trkpt lat="47.49996" lon="6.75928">
        <ele>381</ele>
        <time>2017-11-01T08:27:22.999Z</time>
      </trkpt>
      <trkpt lat="47.49992" lon="6.75913">
        <ele>383.8</ele>
        <time>2017-11-01T08:27:23.999Z</time>
      </trkpt>
      <trkpt lat="47.4999" lon="6.75899">
        <ele>385.9</ele>
        <time>2017-11-01T08:27:24.999Z</time>
      </trkpt>
      <trkpt lat="47.4999" lon="6.75886">
        <ele>388.5</ele>
        <time>2017-11-01T08:27:25.999Z</time>
      </trkpt>
      <trkpt lat="47.49989" lon="6.75871">
        <ele>390</ele>
        <time>2017-11-01T08:27:26.999Z</time>
      </trkpt>
      <trkpt lat="47.49987" lon="6.75856">
        <ele>390.7</ele>
        <time>2017-11-01T08:27:27.999Z</time>
      </trkpt>
      <trkpt lat="47.49983" lon="6.75843">
        <ele>391.7</ele>
        <time>2017-11-01T08:27:28.999Z</time>
      </trkpt>
      <trkpt lat="47.4998" lon="6.75832">
        <ele>391.4</ele>
        <time>2017-11-01T08:27:29.999Z</time>
      </trkpt>
      <trkpt lat="47.49977" lon="6.75824">
        <ele>390.6</ele>
        <time>2017-11-01T08:27:30.999Z</time>
      </trkpt>
      <trkpt lat="47.49972" lon="6.75814">
        <ele>389.6</ele>
        <time>2017-11-01T08:27:31.999Z</time>
      </trkpt>
      <trkpt lat="47.49969" lon="6.75805">
        <ele>388.5</ele>
        <time>2017-11-01T08:27:32.999Z</time>
      </trkpt>
      <trkpt lat="47.49966" lon="6.75795">
        <ele>387.7</ele>
        <time>2017-11-01T08:27:33.999Z</time>
      </trkpt>
      <trkpt lat="47.4996" lon="6.7578">
        <ele>386.8</ele>
        <time>2017-11-01T08:27:34.999Z</time>
      </trkpt>
      <trkpt lat="47.49955" lon="6.75769">
        <ele>388.5</ele>
        <time>2017-11-01T08:27:35.999Z</time>
      </trkpt>
      <trkpt lat="47.4995" lon="6.75758">
        <ele>390.1</ele>
        <time>2017-11-01T08:27:36.999Z</time>
      </trkpt>
      <trkpt lat="47.49944" lon="6.75753">
        <ele>391.1</ele>
        <time>2017-11-01T08:27:37.999Z</time>
      </trkpt>
      <trkpt lat="47.49938" lon="6.75746">
        <ele>391.9</ele>
        <time>2017-11-01T08:27:38.999Z</time>
      </trkpt>
      <trkpt lat="47.49931" lon="6.75739">
        <ele>394</ele>
        <time>2017-11-01T08:27:39.999Z</time>
      </trkpt>
      <trkpt lat="47.49925" lon="6.75732">
        <ele>394.9</ele>
        <time>2017-11-01T08:27:40.999Z</time>
      </trkpt>
      <trkpt lat="47.49917" lon="6.75727">
        <ele>395.7</ele>
        <time>2017-11-01T08:27:41.999Z</time>
      </trkpt>
      <trkpt lat="47.49909" lon="6.75726">
        <ele>396.3</ele>
        <time>2017-11-01T08:27:42.999Z</time>
      </trkpt>
      <trkpt lat="47.49902" lon="6.75726">
        <ele>396.6</ele>
        <time>2017-11-01T08:27:43.999Z</time>
      </trkpt>
      <trkpt lat="47.49894" lon="6.75726">
        <ele>396.3</ele>
        <time>2017-11-01T08:27:44.999Z</time>
      </trkpt>
      <trkpt lat="47.49888" lon="6.75726">
        <ele>395.8</ele>
        <time>2017-11-01T08:27:45.999Z</time>
      </trkpt>
      <trkpt lat="47.49881" lon="6.75726">
        <ele>395.9</ele>
        <time>2017-11-01T08:27:46.999Z</time>
      </trkpt>
      <trkpt lat="47.49869" lon="6.75729">
        <ele>395.9</ele>
        <time>2017-11-01T08:27:47.999Z</time>
      </trkpt>
      <trkpt lat="47.4986" lon="6.75732">
        <ele>395.7</ele>
        <time>2017-11-01T08:27:48.999Z</time>
      </trkpt>
      <trkpt lat="47.4985" lon="6.75736">
        <ele>396.6</ele>
        <time>2017-11-01T08:27:49.999Z</time>
      </trkpt>
      <trkpt lat="47.49839" lon="6.7574">
        <ele>397.3</ele>
        <time>2017-11-01T08:27:50.999Z</time>
      </trkpt>
      <trkpt lat="47.49827" lon="6.75741">
        <ele>398.4</ele>
        <time>2017-11-01T08:27:51.999Z</time>
      </trkpt>
      <trkpt lat="47.49816" lon="6.75742">
        <ele>399</ele>
        <time>2017-11-01T08:27:52.999Z</time>
      </trkpt>
      <trkpt lat="47.49805" lon="6.75743">
        <ele>398.8</ele>
        <time>2017-11-01T08:27:53.999Z</time>
      </trkpt>
      <trkpt lat="47.49793" lon="6.75743">
        <ele>398.8</ele>
        <time>2017-11-01T08:27:54.999Z</time>
      </trkpt>
      <trkpt lat="47.49782" lon="6.75745">
        <ele>399.1</ele>
        <time>2017-11-01T08:27:55.999Z</time>
      </trkpt>
      <trkpt lat="47.49771" lon="6.75748">
        <ele>399.2</ele>
        <time>2017-11-01T08:27:56.999Z</time>
      </trkpt>
      <trkpt lat="47.4976" lon="6.75751">
        <ele>400</ele>
        <time>2017-11-01T08:27:57.999Z</time>
      </trkpt>
      <trkpt lat="47.4975" lon="6.75754">
        <ele>400.6</ele>
        <time>2017-11-01T08:27:58.999Z</time>
      </trkpt>
      <trkpt lat="47.49739" lon="6.75758">
        <ele>401.6</ele>
        <time>2017-11-01T08:27:59.999Z</time>
      </trkpt>
      <trkpt lat="47.4973" lon="6.75761">
        <ele>402.1</ele>
        <time>2017-11-01T08:28:00.999Z</time>
      </trkpt>
      <trkpt lat="47.49721" lon="6.75765">
        <ele>402</ele>
        <time>2017-11-01T08:28:01.999Z</time>
      </trkpt>
      <trkpt lat="47.49713" lon="6.75769">
        <ele>401.4</ele>
        <time>2017-11-01T08:28:02.999Z</time>
      </trkpt>
      <trkpt lat="47.49705" lon="6.75771">
        <ele>401.3</ele>
        <time>2017-11-01T08:28:03.999Z</time>
      </trkpt>
      <trkpt lat="47.49697" lon="6.75774">
        <ele>401.4</ele>
        <time>2017-11-01T08:28:04.999Z</time>
      </trkpt>
      <trkpt lat="47.4969" lon="6.75776">
        <ele>401.2</ele>
        <time>2017-11-01T08:28:05.999Z</time>
      </trkpt>
      <trkpt lat="47.49683" lon="6.75778">
        <ele>400.4</ele>
        <time>2017-11-01T08:28:06.999Z</time>
      </trkpt>
      <trkpt lat="47.49676" lon="6.75779">
        <ele>399.5</ele>
        <time>2017-11-01T08:28:07.999Z</time>
      </trkpt>
      <trkpt lat="47.49669" lon="6.75779">
        <ele>398.4</ele>
        <time>2017-11-01T08:28:08.999Z</time>
      </trkpt>
      <trkpt lat="47.49662" lon="6.7578">
        <ele>398.4</ele>
        <time>2017-11-01T08:28:09.999Z</time>
      </trkpt>
      <trkpt lat="47.49655" lon="6.75784">
        <ele>398</ele>
        <time>2017-11-01T08:28:10.999Z</time>
      </trkpt>
      <trkpt lat="47.49647" lon="6.75788">
        <ele>398.1</ele>
        <time>2017-11-01T08:28:11.999Z</time>
      </trkpt>
      <trkpt lat="47.4964" lon="6.75791">
        <ele>398.3</ele>
        <time>2017-11-01T08:28:12.999Z</time>
      </trkpt>
      <trkpt lat="47.49632" lon="6.7579">
        <ele>398.2</ele>
        <time>2017-11-01T08:28:13.999Z</time>
      </trkpt>
      <trkpt lat="47.49624" lon="6.75787">
        <ele>397.9</ele>
        <time>2017-11-01T08:28:14.999Z</time>
      </trkpt>
      <trkpt lat="47.49616" lon="6.75785">
        <ele>398.2</ele>
        <time>2017-11-01T08:28:15.999Z</time>
      </trkpt>
      <trkpt lat="47.49611" lon="6.75784">
        <ele>397.5</ele>
        <time>2017-11-01T08:28:16.999Z</time>
      </trkpt>
      <trkpt lat="47.49607" lon="6.75785">
        <ele>397.3</ele>
        <time>2017-11-01T08:28:17.999Z</time>
      </trkpt>
      <trkpt lat="47.49604" lon="6.75784">
        <ele>397</ele>
        <time>2017-11-01T08:28:18.999Z</time>
      </trkpt>
      <trkpt lat="47.49601" lon="6.75783">
        <ele>396.2</ele>
        <time>2017-11-01T08:28:23.999Z</time>
      </trkpt>
      <trkpt lat="47.49589" lon="6.7578">
        <ele>396.1</ele>
        <time>2017-11-01T08:28:24.999Z</time>
      </trkpt>
      <trkpt lat="47.49589" lon="6.7578">
        <ele>395.9</ele>
        <time>2017-11-01T08:28:25.999Z</time>
      </trkpt>
      <trkpt lat="47.49581" lon="6.75777">
        <ele>395.7</ele>
        <time>2017-11-01T08:28:26.999Z</time>
      </trkpt>
      <trkpt lat="47.49576" lon="6.75776">
        <ele>395.4</ele>
        <time>2017-11-01T08:28:27.999Z</time>
      </trkpt>
      <trkpt lat="47.4957" lon="6.75774">
        <ele>392.3</ele>
        <time>2017-11-01T08:28:28.999Z</time>
      </trkpt>
      <trkpt lat="47.49566" lon="6.75772">
        <ele>391.9</ele>
        <time>2017-11-01T08:28:29.999Z</time>
      </trkpt>
      <trkpt lat="47.49562" lon="6.75771">
        <ele>391.5</ele>
        <time>2017-11-01T08:28:30.999Z</time>
      </trkpt>
      <trkpt lat="47.49559" lon="6.7577">
        <ele>391</ele>
        <time>2017-11-01T08:28:31.999Z</time>
      </trkpt>
      <trkpt lat="47.49556" lon="6.75767">
        <ele>390.5</ele>
        <time>2017-11-01T08:28:32.999Z</time>
      </trkpt>
      <trkpt lat="47.49555" lon="6.75764">
        <ele>390.1</ele>
        <time>2017-11-01T08:28:33.999Z</time>
      </trkpt>
      <trkpt lat="47.49554" lon="6.75761">
        <ele>389.6</ele>
        <time>2017-11-01T08:28:34.999Z</time>
      </trkpt>
      <trkpt lat="47.49554" lon="6.75755">
        <ele>389.2</ele>
        <time>2017-11-01T08:28:35.999Z</time>
      </trkpt>
      <trkpt lat="47.49554" lon="6.75748">
        <ele>389</ele>
        <time>2017-11-01T08:28:36.999Z</time>
      </trkpt>
      <trkpt lat="47.49558" lon="6.75742">
        <ele>384.8</ele>
        <time>2017-11-01T08:28:37.999Z</time>
      </trkpt>
      <trkpt lat="47.49563" lon="6.75741">
        <ele>382.5</ele>
        <time>2017-11-01T08:28:38.999Z</time>
      </trkpt>
      <trkpt lat="47.49568" lon="6.75739">
        <ele>380.2</ele>
        <time>2017-11-01T08:28:39.999Z</time>
      </trkpt>
      <trkpt lat="47.49574" lon="6.75736">
        <ele>378.6</ele>
        <time>2017-11-01T08:28:40.999Z</time>
      </trkpt>
      <trkpt lat="47.49579" lon="6.75733">
        <ele>377.9</ele>
        <time>2017-11-01T08:28:41.999Z</time>
      </trkpt>
      <trkpt lat="47.49584" lon="6.75728">
        <ele>376.3</ele>
        <time>2017-11-01T08:28:42.999Z</time>
      </trkpt>
      <trkpt lat="47.49589" lon="6.75722">
        <ele>375.2</ele>
        <time>2017-11-01T08:28:43.999Z</time>
      </trkpt>
      <trkpt lat="47.49593" lon="6.75714">
        <ele>374</ele>
        <time>2017-11-01T08:28:44.999Z</time>
      </trkpt>
      <trkpt lat="47.49597" lon="6.75706">
        <ele>372.9</ele>
        <time>2017-11-01T08:28:45.999Z</time>
      </trkpt>
      <trkpt lat="47.49599" lon="6.75697">
        <ele>372.2</ele>
        <time>2017-11-01T08:28:46.999Z</time>
      </trkpt>
      <trkpt lat="47.496" lon="6.75687">
        <ele>371.3</ele>
        <time>2017-11-01T08:28:47.999Z</time>
      </trkpt>
      <trkpt lat="47.49596" lon="6.75679">
        <ele>370</ele>
        <time>2017-11-01T08:28:48.999Z</time>
      </trkpt>
      <trkpt lat="47.49589" lon="6.75675">
        <ele>368.9</ele>
        <time>2017-11-01T08:28:49.999Z</time>
      </trkpt>
      <trkpt lat="47.49584" lon="6.75669">
        <ele>368.1</ele>
        <time>2017-11-01T08:28:50.999Z</time>
      </trkpt>
      <trkpt lat="47.49579" lon="6.75664">
        <ele>367.7</ele>
        <time>2017-11-01T08:28:51.999Z</time>
      </trkpt>
      <trkpt lat="47.49572" lon="6.75667">
        <ele>367.4</ele>
        <time>2017-11-01T08:28:52.999Z</time>
      </trkpt>
      <trkpt lat="47.49568" lon="6.75672">
        <ele>367.7</ele>
        <time>2017-11-01T08:28:53.999Z</time>
      </trkpt>
      <trkpt lat="47.49563" lon="6.75678">
        <ele>368</ele>
        <time>2017-11-01T08:28:54.999Z</time>
      </trkpt>
      <trkpt lat="47.49558" lon="6.75685">
        <ele>368.6</ele>
        <time>2017-11-01T08:28:55.999Z</time>
      </trkpt>
      <trkpt lat="47.49553" lon="6.75692">
        <ele>368.7</ele>
        <time>2017-11-01T08:28:56.999Z</time>
      </trkpt>
      <trkpt lat="47.49549" lon="6.75698">
        <ele>368.4</ele>
        <time>2017-11-01T08:28:57.999Z</time>
      </trkpt>
      <trkpt lat="47.49545" lon="6.75704">
        <ele>368.2</ele>
        <time>2017-11-01T08:28:58.999Z</time>
      </trkpt>
      <trkpt lat="47.4954" lon="6.7571">
        <ele>368</ele>
        <time>2017-11-01T08:28:59.999Z</time>
      </trkpt>
      <trkpt lat="47.49535" lon="6.75716">
        <ele>368.4</ele>
        <time>2017-11-01T08:29:00.999Z</time>
      </trkpt>
      <trkpt lat="47.4953" lon="6.7572">
        <ele>369</ele>
        <time>2017-11-01T08:29:01.999Z</time>
      </trkpt>
      <trkpt lat="47.49525" lon="6.75724">
        <ele>369.7</ele>
        <time>2017-11-01T08:29:02.999Z</time>
      </trkpt>
      <trkpt lat="47.49521" lon="6.75728">
        <ele>369.7</ele>
        <time>2017-11-01T08:29:03.999Z</time>
      </trkpt>
      <trkpt lat="47.49516" lon="6.75731">
        <ele>368.9</ele>
        <time>2017-11-01T08:29:04.999Z</time>
      </trkpt>
      <trkpt lat="47.4951" lon="6.75734">
        <ele>368.8</ele>
        <time>2017-11-01T08:29:05.999Z</time>
      </trkpt>
      <trkpt lat="47.49505" lon="6.75737">
        <ele>369.8</ele>
        <time>2017-11-01T08:29:06.999Z</time>
      </trkpt>
      <trkpt lat="47.49498" lon="6.7574">
        <ele>369.8</ele>
        <time>2017-11-01T08:29:07.999Z</time>
      </trkpt>
      <trkpt lat="47.49492" lon="6.75742">
        <ele>369.2</ele>
        <time>2017-11-01T08:29:08.999Z</time>
      </trkpt>
      <trkpt lat="47.49485" lon="6.75742">
        <ele>368.8</ele>
        <time>2017-11-01T08:29:09.999Z</time>
      </trkpt>
      <trkpt lat="47.4948" lon="6.75737">
        <ele>368.4</ele>
        <time>2017-11-01T08:29:10.999Z</time>
      </trkpt>
      <trkpt lat="47.49474" lon="6.75731">
        <ele>368.2</ele>
        <time>2017-11-01T08:29:11.999Z</time>
      </trkpt>
      <trkpt lat="47.4947" lon="6.75723">
        <ele>368.7</ele>
        <time>2017-11-01T08:29:12.999Z</time>
      </trkpt>
      <trkpt lat="47.49468" lon="6.75717">
        <ele>369</ele>
        <time>2017-11-01T08:29:13.999Z</time>
      </trkpt>
      <trkpt lat="47.49466" lon="6.75711">
        <ele>369.1</ele>
        <time>2017-11-01T08:29:14.999Z</time>
      </trkpt>
      <trkpt lat="47.49464" lon="6.75704">
        <ele>369.1</ele>
        <time>2017-11-01T08:29:15.999Z</time>
      </trkpt>
      <trkpt lat="47.49461" lon="6.75696">
        <ele>369.6</ele>
        <time>2017-11-01T08:29:16.999Z</time>
      </trkpt>
      <trkpt lat="47.49457" lon="6.75692">
        <ele>370.4</ele>
        <time>2017-11-01T08:29:17.999Z</time>
      </trkpt>
      <trkpt lat="47.49452" lon="6.75694">
        <ele>371.1</ele>
        <time>2017-11-01T08:29:18.999Z</time>
      </trkpt>
      <trkpt lat="47.49448" lon="6.75697">
        <ele>371.6</ele>
        <time>2017-11-01T08:29:19.999Z</time>
      </trkpt>
      <trkpt lat="47.49445" lon="6.75697">
        <ele>371.8</ele>
        <time>2017-11-01T08:29:20.999Z</time>
      </trkpt>
      <trkpt lat="47.49441" lon="6.75696">
        <ele>371.9</ele>
        <time>2017-11-01T08:29:21.999Z</time>
      </trkpt>
      <trkpt lat="47.49439" lon="6.75691">
        <ele>371.9</ele>
        <time>2017-11-01T08:29:22.999Z</time>
      </trkpt>
      <trkpt lat="47.49436" lon="6.75685">
        <ele>372</ele>
        <time>2017-11-01T08:29:23.999Z</time>
      </trkpt>
      <trkpt lat="47.49434" lon="6.7568">
        <ele>372</ele>
        <time>2017-11-01T08:29:24.999Z</time>
      </trkpt>
      <trkpt lat="47.49433" lon="6.75674">
        <ele>371.9</ele>
        <time>2017-11-01T08:29:25.999Z</time>
      </trkpt>
      <trkpt lat="47.4943" lon="6.75671">
        <ele>372</ele>
        <time>2017-11-01T08:29:26.999Z</time>
      </trkpt>
      <trkpt lat="47.49427" lon="6.7567">
        <ele>372</ele>
        <time>2017-11-01T08:29:27.999Z</time>
      </trkpt>
      <trkpt lat="47.49424" lon="6.75669">
        <ele>372</ele>
        <time>2017-11-01T08:29:28.999Z</time>
      </trkpt>
      <trkpt lat="47.4942" lon="6.7567">
        <ele>372</ele>
        <time>2017-11-01T08:29:29.999Z</time>
      </trkpt>
      <trkpt lat="47.49416" lon="6.75673">
        <ele>371.7</ele>
        <time>2017-11-01T08:29:30.999Z</time>
      </trkpt>
      <trkpt lat="47.49409" lon="6.75678">
        <ele>371.1</ele>
        <time>2017-11-01T08:29:31.999Z</time>
      </trkpt>
      <trkpt lat="47.49404" lon="6.75682">
        <ele>370.7</ele>
        <time>2017-11-01T08:29:32.999Z</time>
      </trkpt>
      <trkpt lat="47.494" lon="6.75686">
        <ele>370.8</ele>
        <time>2017-11-01T08:29:33.999Z</time>
      </trkpt>
      <trkpt lat="47.49395" lon="6.75689">
        <ele>370.3</ele>
        <time>2017-11-01T08:29:34.999Z</time>
      </trkpt>
      <trkpt lat="47.49391" lon="6.75692">
        <ele>370.1</ele>
        <time>2017-11-01T08:29:35.999Z</time>
      </trkpt>
      <trkpt lat="47.49388" lon="6.75695">
        <ele>370.5</ele>
        <time>2017-11-01T08:29:36.999Z</time>
      </trkpt>
      <trkpt lat="47.49384" lon="6.75698">
        <ele>370.5</ele>
        <time>2017-11-01T08:29:37.999Z</time>
      </trkpt>
      <trkpt lat="47.49381" lon="6.75701">
        <ele>370.5</ele>
        <time>2017-11-01T08:29:38.999Z</time>
      </trkpt>
      <trkpt lat="47.49379" lon="6.75704">
        <ele>370.5</ele>
        <time>2017-11-01T08:29:39.999Z</time>
      </trkpt>
      <trkpt lat="47.49376" lon="6.75707">
        <ele>370.5</ele>
        <time>2017-11-01T08:29:40.999Z</time>
      </trkpt>
      <trkpt lat="47.49372" lon="6.75711">
        <ele>370.4</ele>
        <time>2017-11-01T08:29:41.999Z</time>
      </trkpt>
      <trkpt lat="47.49368" lon="6.75714">
        <ele>370.1</ele>
        <time>2017-11-01T08:29:42.999Z</time>
      </trkpt>
      <trkpt lat="47.49364" lon="6.75716">
        <ele>370.1</ele>
        <time>2017-11-01T08:29:43.999Z</time>
      </trkpt>
      <trkpt lat="47.49362" lon="6.75717">
        <ele>370.1</ele>
        <time>2017-11-01T08:29:44.999Z</time>
      </trkpt>
      <trkpt lat="47.49359" lon="6.7572">
        <ele>370.1</ele>
        <time>2017-11-01T08:29:45.999Z</time>
      </trkpt>
      <trkpt lat="47.49356" lon="6.75722">
        <ele>370.1</ele>
        <time>2017-11-01T08:29:46.999Z</time>
      </trkpt>
      <trkpt lat="47.49351" lon="6.75723">
        <ele>370.2</ele>
        <time>2017-11-01T08:29:47.999Z</time>
      </trkpt>
      <trkpt lat="47.49346" lon="6.75724">
        <ele>370.6</ele>
        <time>2017-11-01T08:29:48.999Z</time>
      </trkpt>
      <trkpt lat="47.49341" lon="6.75726">
        <ele>369.5</ele>
        <time>2017-11-01T08:29:49.999Z</time>
      </trkpt>
      <trkpt lat="47.49337" lon="6.7573">
        <ele>368.9</ele>
        <time>2017-11-01T08:29:50.999Z</time>
      </trkpt>
      <trkpt lat="47.49332" lon="6.75734">
        <ele>369.4</ele>
        <time>2017-11-01T08:29:51.999Z</time>
      </trkpt>
      <trkpt lat="47.49327" lon="6.75739">
        <ele>369.5</ele>
        <time>2017-11-01T08:29:52.999Z</time>
      </trkpt>
      <trkpt lat="47.49322" lon="6.75743">
        <ele>369.4</ele>
        <time>2017-11-01T08:29:53.999Z</time>
      </trkpt>
      <trkpt lat="47.49317" lon="6.75746">
        <ele>368.6</ele>
        <time>2017-11-01T08:29:54.999Z</time>
      </trkpt>
      <trkpt lat="47.49312" lon="6.75752">
        <ele>367.3</ele>
        <time>2017-11-01T08:29:55.999Z</time>
      </trkpt>
      <trkpt lat="47.49308" lon="6.75756">
        <ele>367</ele>
        <time>2017-11-01T08:29:56.999Z</time>
      </trkpt>
      <trkpt lat="47.49303" lon="6.75761">
        <ele>366.6</ele>
        <time>2017-11-01T08:29:57.999Z</time>
      </trkpt>
      <trkpt lat="47.49298" lon="6.75767">
        <ele>366.1</ele>
        <time>2017-11-01T08:29:58.999Z</time>
      </trkpt>
      <trkpt lat="47.49295" lon="6.75774">
        <ele>366.2</ele>
        <time>2017-11-01T08:29:59.999Z</time>
      </trkpt>
      <trkpt lat="47.49292" lon="6.75781">
        <ele>365.8</ele>
        <time>2017-11-01T08:30:00.999Z</time>
      </trkpt>
      <trkpt lat="47.49289" lon="6.75788">
        <ele>366.7</ele>
        <time>2017-11-01T08:30:01.999Z</time>
      </trkpt>
      <trkpt lat="47.49286" lon="6.75792">
        <ele>367.5</ele>
        <time>2017-11-01T08:30:02.999Z</time>
      </trkpt>
      <trkpt lat="47.49283" lon="6.75797">
        <ele>366.9</ele>
        <time>2017-11-01T08:30:03.999Z</time>
      </trkpt>
      <trkpt lat="47.49278" lon="6.75804">
        <ele>365.9</ele>
        <time>2017-11-01T08:30:04.999Z</time>
      </trkpt>
      <trkpt lat="47.49273" lon="6.75811">
        <ele>365.3</ele>
        <time>2017-11-01T08:30:05.999Z</time>
      </trkpt>
      <trkpt lat="47.49269" lon="6.75817">
        <ele>364.9</ele>
        <time>2017-11-01T08:30:06.999Z</time>
      </trkpt>
      <trkpt lat="47.49265" lon="6.75823">
        <ele>364.7</ele>
        <time>2017-11-01T08:30:07.999Z</time>
      </trkpt>
      <trkpt lat="47.49261" lon="6.75828">
        <ele>364.4</ele>
        <time>2017-11-01T08:30:08.999Z</time>
      </trkpt>
      <trkpt lat="47.49256" lon="6.75835">
        <ele>364.3</ele>
        <time>2017-11-01T08:30:09.999Z</time>
      </trkpt>
      <trkpt lat="47.49252" lon="6.75842">
        <ele>364.5</ele>
        <time>2017-11-01T08:30:10.999Z</time>
      </trkpt>
      <trkpt lat="47.49249" lon="6.75847">
        <ele>364.1</ele>
        <time>2017-11-01T08:30:11.999Z</time>
      </trkpt>
      <trkpt lat="47.49247" lon="6.75852">
        <ele>363.3</ele>
        <time>2017-11-01T08:30:12.999Z</time>
      </trkpt>
      <trkpt lat="47.49245" lon="6.75857">
        <ele>362.8</ele>
        <time>2017-11-01T08:30:13.999Z</time>
      </trkpt>
      <trkpt lat="47.49242" lon="6.75863">
        <ele>362.7</ele>
        <time>2017-11-01T08:30:14.999Z</time>
      </trkpt>
      <trkpt lat="47.49239" lon="6.7587">
        <ele>362.9</ele>
        <time>2017-11-01T08:30:15.999Z</time>
      </trkpt>
      <trkpt lat="47.49235" lon="6.75878">
        <ele>363.5</ele>
        <time>2017-11-01T08:30:16.999Z</time>
      </trkpt>
      <trkpt lat="47.49232" lon="6.75885">
        <ele>363.6</ele>
        <time>2017-11-01T08:30:17.999Z</time>
      </trkpt>
      <trkpt lat="47.4923" lon="6.75892">
        <ele>363.8</ele>
        <time>2017-11-01T08:30:18.999Z</time>
      </trkpt>
      <trkpt lat="47.49228" lon="6.75898">
        <ele>363.6</ele>
        <time>2017-11-01T08:30:19.999Z</time>
      </trkpt>
      <trkpt lat="47.49224" lon="6.75907">
        <ele>363.4</ele>
        <time>2017-11-01T08:30:20.999Z</time>
      </trkpt>
      <trkpt lat="47.49222" lon="6.75915">
        <ele>364.2</ele>
        <time>2017-11-01T08:30:21.999Z</time>
      </trkpt>
      <trkpt lat="47.49219" lon="6.75922">
        <ele>365.3</ele>
        <time>2017-11-01T08:30:22.999Z</time>
      </trkpt>
      <trkpt lat="47.49216" lon="6.75929">
        <ele>365</ele>
        <time>2017-11-01T08:30:23.999Z</time>
      </trkpt>
      <trkpt lat="47.49212" lon="6.75936">
        <ele>365.2</ele>
        <time>2017-11-01T08:30:24.999Z</time>
      </trkpt>
      <trkpt lat="47.49209" lon="6.75944">
        <ele>365.7</ele>
        <time>2017-11-01T08:30:25.999Z</time>
      </trkpt>
      <trkpt lat="47.49206" lon="6.7595">
        <ele>366.1</ele>
        <time>2017-11-01T08:30:26.999Z</time>
      </trkpt>
      <trkpt lat="47.49202" lon="6.75958">
        <ele>365.8</ele>
        <time>2017-11-01T08:30:27.999Z</time>
      </trkpt>
      <trkpt lat="47.49199" lon="6.75964">
        <ele>366.2</ele>
        <time>2017-11-01T08:30:28.999Z</time>
      </trkpt>
      <trkpt lat="47.49195" lon="6.75973">
        <ele>366.6</ele>
        <time>2017-11-01T08:30:29.999Z</time>
      </trkpt>
      <trkpt lat="47.49192" lon="6.7598">
        <ele>367.5</ele>
        <time>2017-11-01T08:30:30.999Z</time>
      </trkpt>
      <trkpt lat="47.49189" lon="6.75987">
        <ele>367.8</ele>
        <time>2017-11-01T08:30:31.999Z</time>
      </trkpt>
      <trkpt lat="47.49185" lon="6.75994">
        <ele>367.8</ele>
        <time>2017-11-01T08:30:32.999Z</time>
      </trkpt>
      <trkpt lat="47.49181" lon="6.76001">
        <ele>367.5</ele>
        <time>2017-11-01T08:30:33.999Z</time>
      </trkpt>
      <trkpt lat="47.49177" lon="6.7601">
        <ele>367.7</ele>
        <time>2017-11-01T08:30:34.999Z</time>
      </trkpt>
      <trkpt lat="47.49173" lon="6.76019">
        <ele>368</ele>
        <time>2017-11-01T08:30:35.999Z</time>
      </trkpt>
      <trkpt lat="47.49171" lon="6.76026">
        <ele>368.6</ele>
        <time>2017-11-01T08:30:36.999Z</time>
      </trkpt>
      <trkpt lat="47.49168" lon="6.76032">
        <ele>369.3</ele>
        <time>2017-11-01T08:30:37.999Z</time>
      </trkpt>
      <trkpt lat="47.49165" lon="6.76039">
        <ele>369.1</ele>
        <time>2017-11-01T08:30:38.999Z</time>
      </trkpt>
      <trkpt lat="47.49162" lon="6.76047">
        <ele>369.5</ele>
        <time>2017-11-01T08:30:39.999Z</time>
      </trkpt>
      <trkpt lat="47.4916" lon="6.76055">
        <ele>369.4</ele>
        <time>2017-11-01T08:30:40.999Z</time>
      </trkpt>
      <trkpt lat="47.49157" lon="6.76064">
        <ele>370.1</ele>
        <time>2017-11-01T08:30:41.999Z</time>
      </trkpt>
      <trkpt lat="47.49154" lon="6.76071">
        <ele>370.2</ele>
        <time>2017-11-01T08:30:42.999Z</time>
      </trkpt>
      <trkpt lat="47.49151" lon="6.76078">
        <ele>370.3</ele>
        <time>2017-11-01T08:30:43.999Z</time>
      </trkpt>
      <trkpt lat="47.49149" lon="6.76085">
        <ele>370.7</ele>
        <time>2017-11-01T08:30:44.999Z</time>
      </trkpt>
      <trkpt lat="47.49147" lon="6.76092">
        <ele>371.2</ele>
        <time>2017-11-01T08:30:45.999Z</time>
      </trkpt>
      <trkpt lat="47.49145" lon="6.761">
        <ele>371.1</ele>
        <time>2017-11-01T08:30:46.999Z</time>
      </trkpt>
      <trkpt lat="47.49143" lon="6.76109">
        <ele>371.6</ele>
        <time>2017-11-01T08:30:47.999Z</time>
      </trkpt>
      <trkpt lat="47.49141" lon="6.76116">
        <ele>372.3</ele>
        <time>2017-11-01T08:30:48.999Z</time>
      </trkpt>
      <trkpt lat="47.49139" lon="6.76125">
        <ele>372.6</ele>
        <time>2017-11-01T08:30:49.999Z</time>
      </trkpt>
      <trkpt lat="47.49138" lon="6.76132">
        <ele>372.2</ele>
        <time>2017-11-01T08:30:50.999Z</time>
      </trkpt>
      <trkpt lat="47.49137" lon="6.76138">
        <ele>372.3</ele>
        <time>2017-11-01T08:30:51.999Z</time>
      </trkpt>
      <trkpt lat="47.49136" lon="6.76146">
        <ele>372.3</ele>
        <time>2017-11-01T08:30:52.999Z</time>
      </trkpt>
      <trkpt lat="47.49135" lon="6.76153">
        <ele>373</ele>
        <time>2017-11-01T08:30:53.999Z</time>
      </trkpt>
      <trkpt lat="47.49134" lon="6.7616">
        <ele>373.3</ele>
        <time>2017-11-01T08:30:54.999Z</time>
      </trkpt>
      <trkpt lat="47.49134" lon="6.76167">
        <ele>373.3</ele>
        <time>2017-11-01T08:30:55.999Z</time>
      </trkpt>
      <trkpt lat="47.49133" lon="6.76175">
        <ele>373.1</ele>
        <time>2017-11-01T08:30:56.999Z</time>
      </trkpt>
      <trkpt lat="47.49133" lon="6.76185">
        <ele>372.8</ele>
        <time>2017-11-01T08:30:57.999Z</time>
      </trkpt>
      <trkpt lat="47.49133" lon="6.76194">
        <ele>372.5</ele>
        <time>2017-11-01T08:30:58.999Z</time>
      </trkpt>
      <trkpt lat="47.49132" lon="6.76202">
        <ele>372.7</ele>
        <time>2017-11-01T08:30:59.999Z</time>
      </trkpt>
      <trkpt lat="47.49133" lon="6.76211">
        <ele>372.5</ele>
        <time>2017-11-01T08:31:00.999Z</time>
      </trkpt>
      <trkpt lat="47.49133" lon="6.76219">
        <ele>371.8</ele>
        <time>2017-11-01T08:31:01.999Z</time>
      </trkpt>
      <trkpt lat="47.49133" lon="6.76227">
        <ele>371.1</ele>
        <time>2017-11-01T08:31:02.999Z</time>
      </trkpt>
      <trkpt lat="47.49133" lon="6.76233">
        <ele>371.1</ele>
        <time>2017-11-01T08:31:03.999Z</time>
      </trkpt>
      <trkpt lat="47.49133" lon="6.7624">
        <ele>370.7</ele>
        <time>2017-11-01T08:31:04.999Z</time>
      </trkpt>
      <trkpt lat="47.49133" lon="6.76247">
        <ele>370.4</ele>
        <time>2017-11-01T08:31:05.999Z</time>
      </trkpt>
      <trkpt lat="47.49133" lon="6.76257">
        <ele>369.4</ele>
        <time>2017-11-01T08:31:06.999Z</time>
      </trkpt>
      <trkpt lat="47.49132" lon="6.76264">
        <ele>368.6</ele>
        <time>2017-11-01T08:31:07.999Z</time>
      </trkpt>
      <trkpt lat="47.49131" lon="6.76271">
        <ele>366.9</ele>
        <time>2017-11-01T08:31:08.999Z</time>
      </trkpt>
      <trkpt lat="47.49131" lon="6.76277">
        <ele>365.8</ele>
        <time>2017-11-01T08:31:09.999Z</time>
      </trkpt>
      <trkpt lat="47.49131" lon="6.76285">
        <ele>364.6</ele>
        <time>2017-11-01T08:31:10.999Z</time>
      </trkpt>
      <trkpt lat="47.4913" lon="6.76294">
        <ele>363.9</ele>
        <time>2017-11-01T08:31:11.999Z</time>
      </trkpt>
      <trkpt lat="47.4913" lon="6.76303">
        <ele>363.4</ele>
        <time>2017-11-01T08:31:12.999Z</time>
      </trkpt>
      <trkpt lat="47.4913" lon="6.76312">
        <ele>363.1</ele>
        <time>2017-11-01T08:31:13.999Z</time>
      </trkpt>
      <trkpt lat="47.49129" lon="6.76321">
        <ele>363.7</ele>
        <time>2017-11-01T08:31:14.999Z</time>
      </trkpt>
      <trkpt lat="47.49129" lon="6.7633">
        <ele>364</ele>
        <time>2017-11-01T08:31:15.999Z</time>
      </trkpt>
      <trkpt lat="47.49129" lon="6.76339">
        <ele>364</ele>
        <time>2017-11-01T08:31:16.999Z</time>
      </trkpt>
      <trkpt lat="47.49129" lon="6.76348">
        <ele>364.1</ele>
        <time>2017-11-01T08:31:17.999Z</time>
      </trkpt>
      <trkpt lat="47.49129" lon="6.76358">
        <ele>364.1</ele>
        <time>2017-11-01T08:31:18.999Z</time>
      </trkpt>
      <trkpt lat="47.49129" lon="6.76366">
        <ele>363.7</ele>
        <time>2017-11-01T08:31:19.999Z</time>
      </trkpt>
      <trkpt lat="47.49129" lon="6.76374">
        <ele>363.6</ele>
        <time>2017-11-01T08:31:20.999Z</time>
      </trkpt>
      <trkpt lat="47.49129" lon="6.76382">
        <ele>363.8</ele>
        <time>2017-11-01T08:31:21.999Z</time>
      </trkpt>
      <trkpt lat="47.49129" lon="6.7639">
        <ele>364</ele>
        <time>2017-11-01T08:31:22.999Z</time>
      </trkpt>
      <trkpt lat="47.49129" lon="6.76398">
        <ele>364.5</ele>
        <time>2017-11-01T08:31:23.999Z</time>
      </trkpt>
      <trkpt lat="47.49129" lon="6.76405">
        <ele>365.3</ele>
        <time>2017-11-01T08:31:24.999Z</time>
      </trkpt>
      <trkpt lat="47.49128" lon="6.76413">
        <ele>365.7</ele>
        <time>2017-11-01T08:31:25.999Z</time>
      </trkpt>
      <trkpt lat="47.49128" lon="6.76422">
        <ele>365.9</ele>
        <time>2017-11-01T08:31:26.999Z</time>
      </trkpt>
      <trkpt lat="47.49128" lon="6.76431">
        <ele>366.5</ele>
        <time>2017-11-01T08:31:27.999Z</time>
      </trkpt>
      <trkpt lat="47.49128" lon="6.76438">
        <ele>366.8</ele>
        <time>2017-11-01T08:31:28.999Z</time>
      </trkpt>
      <trkpt lat="47.49128" lon="6.76446">
        <ele>367</ele>
        <time>2017-11-01T08:31:29.999Z</time>
      </trkpt>
      <trkpt lat="47.49128" lon="6.76455">
        <ele>367.2</ele>
        <time>2017-11-01T08:31:30.999Z</time>
      </trkpt>
      <trkpt lat="47.49128" lon="6.76464">
        <ele>367.5</ele>
        <time>2017-11-01T08:31:31.999Z</time>
      </trkpt>
      <trkpt lat="47.49128" lon="6.76472">
        <ele>367.8</ele>
        <time>2017-11-01T08:31:32.999Z</time>
      </trkpt>
      <trkpt lat="47.49127" lon="6.7648">
        <ele>368.3</ele>
        <time>2017-11-01T08:31:33.999Z</time>
      </trkpt>
      <trkpt lat="47.49127" lon="6.76486">
        <ele>368.4</ele>
        <time>2017-11-01T08:31:34.999Z</time>
      </trkpt>
      <trkpt lat="47.49126" lon="6.76495">
        <ele>368.8</ele>
        <time>2017-11-01T08:31:35.999Z</time>
      </trkpt>
      <trkpt lat="47.49127" lon="6.76504">
        <ele>369.1</ele>
        <time>2017-11-01T08:31:36.999Z</time>
      </trkpt>
      <trkpt lat="47.49128" lon="6.76513">
        <ele>368.8</ele>
        <time>2017-11-01T08:31:37.999Z</time>
      </trkpt>
      <trkpt lat="47.49131" lon="6.76521">
        <ele>368.6</ele>
        <time>2017-11-01T08:31:38.999Z</time>
      </trkpt>
      <trkpt lat="47.49136" lon="6.76526">
        <ele>369.1</ele>
        <time>2017-11-01T08:31:39.999Z</time>
      </trkpt>
      <trkpt lat="47.4914" lon="6.76531">
        <ele>367.8</ele>
        <time>2017-11-01T08:31:40.999Z</time>
      </trkpt>
      <trkpt lat="47.49145" lon="6.76531">
        <ele>367.5</ele>
        <time>2017-11-01T08:31:41.999Z</time>
      </trkpt>
      <trkpt lat="47.49151" lon="6.76528">
        <ele>366.6</ele>
        <time>2017-11-01T08:31:42.999Z</time>
      </trkpt>
      <trkpt lat="47.49156" lon="6.76524">
        <ele>365.7</ele>
        <time>2017-11-01T08:31:43.999Z</time>
      </trkpt>
      <trkpt lat="47.4916" lon="6.7652">
        <ele>365</ele>
        <time>2017-11-01T08:31:44.999Z</time>
      </trkpt>
      <trkpt lat="47.49164" lon="6.76518">
        <ele>364.2</ele>
        <time>2017-11-01T08:31:45.999Z</time>
      </trkpt>
      <trkpt lat="47.49167" lon="6.76515">
        <ele>364.2</ele>
        <time>2017-11-01T08:31:46.999Z</time>
      </trkpt>
      <trkpt lat="47.4917" lon="6.76513">
        <ele>364.2</ele>
        <time>2017-11-01T08:31:47.999Z</time>
      </trkpt>
      <trkpt lat="47.49172" lon="6.7651">
        <ele>364.1</ele>
        <time>2017-11-01T08:31:48.999Z</time>
      </trkpt>
      <trkpt lat="47.49175" lon="6.76508">
        <ele>364</ele>
        <time>2017-11-01T08:31:49.999Z</time>
      </trkpt>
      <trkpt lat="47.49177" lon="6.76505">
        <ele>364</ele>
        <time>2017-11-01T08:31:50.999Z</time>
      </trkpt>
      <trkpt lat="47.49179" lon="6.76501">
        <ele>363.9</ele>
        <time>2017-11-01T08:31:51.999Z</time>
      </trkpt>
      <trkpt lat="47.49181" lon="6.76493">
        <ele>363.7</ele>
        <time>2017-11-01T08:31:52.999Z</time>
      </trkpt>
      <trkpt lat="47.4918" lon="6.76489">
        <ele>363.6</ele>
        <time>2017-11-01T08:31:53.999Z</time>
      </trkpt>
      <trkpt lat="47.49178" lon="6.76485">
        <ele>363.5</ele>
        <time>2017-11-01T08:31:54.999Z</time>
      </trkpt>
      <trkpt lat="47.49176" lon="6.76481">
        <ele>363.3</ele>
        <time>2017-11-01T08:31:55.999Z</time>
      </trkpt>
      <trkpt lat="47.49174" lon="6.76477">
        <ele>363</ele>
        <time>2017-11-01T08:31:56.999Z</time>
      </trkpt>
      <trkpt lat="47.49171" lon="6.76475">
        <ele>363.3</ele>
        <time>2017-11-01T08:33:04.999Z</time>
      </trkpt>
      <trkpt lat="47.49179" lon="6.76491">
        <ele>363.4</ele>
        <time>2017-11-01T08:33:05.999Z</time>
      </trkpt>
      <trkpt lat="47.4918" lon="6.76494">
        <ele>363.6</ele>
        <time>2017-11-01T08:33:06.999Z</time>
      </trkpt>
      <trkpt lat="47.49181" lon="6.76498">
        <ele>363.7</ele>
        <time>2017-11-01T08:33:07.999Z</time>
      </trkpt>
      <trkpt lat="47.49181" lon="6.765">
        <ele>363.8</ele>
        <time>2017-11-01T08:33:08.999Z</time>
      </trkpt>
      <trkpt lat="47.4918" lon="6.76505">
        <ele>363.9</ele>
        <time>2017-11-01T08:33:09.999Z</time>
      </trkpt>
      <trkpt lat="47.49178" lon="6.7651">
        <ele>364</ele>
        <time>2017-11-01T08:33:11.999Z</time>
      </trkpt>
      <trkpt lat="47.49176" lon="6.76512">
        <ele>364</ele>
        <time>2017-11-01T08:33:12.999Z</time>
      </trkpt>
      <trkpt lat="47.49173" lon="6.76514">
        <ele>364</ele>
        <time>2017-11-01T08:33:13.999Z</time>
      </trkpt>
      <trkpt lat="47.4917" lon="6.76515">
        <ele>364.1</ele>
        <time>2017-11-01T08:33:14.999Z</time>
      </trkpt>
      <trkpt lat="47.49167" lon="6.76517">
        <ele>364.2</ele>
        <time>2017-11-01T08:33:15.999Z</time>
      </trkpt>
      <trkpt lat="47.49164" lon="6.76519">
        <ele>364.3</ele>
        <time>2017-11-01T08:33:16.999Z</time>
      </trkpt>
      <trkpt lat="47.49161" lon="6.76522">
        <ele>365.7</ele>
        <time>2017-11-01T08:33:17.999Z</time>
      </trkpt>
      <trkpt lat="47.49156" lon="6.76526">
        <ele>366.9</ele>
        <time>2017-11-01T08:33:18.999Z</time>
      </trkpt>
      <trkpt lat="47.49152" lon="6.7653">
        <ele>368</ele>
        <time>2017-11-01T08:33:19.999Z</time>
      </trkpt>
      <trkpt lat="47.49148" lon="6.76533">
        <ele>368.9</ele>
        <time>2017-11-01T08:33:20.999Z</time>
      </trkpt>
      <trkpt lat="47.49143" lon="6.76535">
        <ele>369.8</ele>
        <time>2017-11-01T08:33:21.999Z</time>
      </trkpt>
      <trkpt lat="47.49139" lon="6.76536">
        <ele>370.5</ele>
        <time>2017-11-01T08:33:22.999Z</time>
      </trkpt>
      <trkpt lat="47.49135" lon="6.76536">
        <ele>371.2</ele>
        <time>2017-11-01T08:33:23.999Z</time>
      </trkpt>
      <trkpt lat="47.49132" lon="6.76533">
        <ele>371.3</ele>
        <time>2017-11-01T08:33:24.999Z</time>
      </trkpt>
      <trkpt lat="47.4913" lon="6.76529">
        <ele>371.3</ele>
        <time>2017-11-01T08:33:25.999Z</time>
      </trkpt>
      <trkpt lat="47.49125" lon="6.7652">
        <ele>371.4</ele>
        <time>2017-11-01T08:33:26.999Z</time>
      </trkpt>
      <trkpt lat="47.49123" lon="6.76513">
        <ele>371.3</ele>
        <time>2017-11-01T08:33:27.999Z</time>
      </trkpt>
      <trkpt lat="47.4912" lon="6.76503">
        <ele>371.2</ele>
        <time>2017-11-01T08:33:28.999Z</time>
      </trkpt>
      <trkpt lat="47.49119" lon="6.76497">
        <ele>371</ele>
        <time>2017-11-01T08:33:29.999Z</time>
      </trkpt>
      <trkpt lat="47.49118" lon="6.76491">
        <ele>370.8</ele>
        <time>2017-11-01T08:33:30.999Z</time>
      </trkpt>
      <trkpt lat="47.49118" lon="6.76484">
        <ele>370.6</ele>
        <time>2017-11-01T08:33:31.999Z</time>
      </trkpt>
      <trkpt lat="47.49119" lon="6.76477">
        <ele>370.4</ele>
        <time>2017-11-01T08:33:32.999Z</time>
      </trkpt>
      <trkpt lat="47.49118" lon="6.7647">
        <ele>368.6</ele>
        <time>2017-11-01T08:33:33.999Z</time>
      </trkpt>
      <trkpt lat="47.49119" lon="6.76464">
        <ele>368.5</ele>
        <time>2017-11-01T08:33:34.999Z</time>
      </trkpt>
      <trkpt lat="47.4912" lon="6.76458">
        <ele>367</ele>
        <time>2017-11-01T08:33:35.999Z</time>
      </trkpt>
      <trkpt lat="47.4912" lon="6.7645">
        <ele>366.5</ele>
        <time>2017-11-01T08:33:36.999Z</time>
      </trkpt>
      <trkpt lat="47.49121" lon="6.76444">
        <ele>366.5</ele>
        <time>2017-11-01T08:33:37.999Z</time>
      </trkpt>
      <trkpt lat="47.49121" lon="6.76439">
        <ele>366.4</ele>
        <time>2017-11-01T08:33:38.999Z</time>
      </trkpt>
      <trkpt lat="47.49121" lon="6.76435">
        <ele>366.2</ele>
        <time>2017-11-01T08:33:39.999Z</time>
      </trkpt>
      <trkpt lat="47.49121" lon="6.7643">
        <ele>366.1</ele>
        <time>2017-11-01T08:33:40.999Z</time>
      </trkpt>
      <trkpt lat="47.49118" lon="6.76427">
        <ele>366</ele>
        <time>2017-11-01T08:33:42.999Z</time>
      </trkpt>
      <trkpt lat="47.49117" lon="6.76425">
        <ele>366</ele>
        <time>2017-11-01T08:33:43.999Z</time>
      </trkpt>
      <trkpt lat="47.49115" lon="6.76423">
        <ele>366.1</ele>
        <time>2017-11-01T08:33:44.999Z</time>
      </trkpt>
      <trkpt lat="47.49112" lon="6.76423">
        <ele>366</ele>
        <time>2017-11-01T08:33:45.999Z</time>
      </trkpt>
      <trkpt lat="47.49107" lon="6.76424">
        <ele>365.9</ele>
        <time>2017-11-01T08:33:47.999Z</time>
      </trkpt>
      <trkpt lat="47.49105" lon="6.76426">
        <ele>365.9</ele>
        <time>2017-11-01T08:33:48.999Z</time>
      </trkpt>
      <trkpt lat="47.49102" lon="6.76427">
        <ele>365.9</ele>
        <time>2017-11-01T08:33:49.999Z</time>
      </trkpt>
      <trkpt lat="47.491" lon="6.76432">
        <ele>365.8</ele>
        <time>2017-11-01T08:33:50.999Z</time>
      </trkpt>
      <trkpt lat="47.49101" lon="6.76438">
        <ele>364.9</ele>
        <time>2017-11-01T08:33:51.999Z</time>
      </trkpt>
      <trkpt lat="47.49102" lon="6.76444">
        <ele>364.9</ele>
        <time>2017-11-01T08:33:52.999Z</time>
      </trkpt>
      <trkpt lat="47.49102" lon="6.76449">
        <ele>364.9</ele>
        <time>2017-11-01T08:33:53.999Z</time>
      </trkpt>
      <trkpt lat="47.49103" lon="6.76459">
        <ele>365</ele>
        <time>2017-11-01T08:33:54.999Z</time>
      </trkpt>
      <trkpt lat="47.49102" lon="6.76466">
        <ele>365.4</ele>
        <time>2017-11-01T08:33:55.999Z</time>
      </trkpt>
      <trkpt lat="47.49102" lon="6.76471">
        <ele>365.6</ele>
        <time>2017-11-01T08:33:56.999Z</time>
      </trkpt>
      <trkpt lat="47.49102" lon="6.76477">
        <ele>365.5</ele>
        <time>2017-11-01T08:33:57.999Z</time>
      </trkpt>
      <trkpt lat="47.49102" lon="6.76482">
        <ele>365.5</ele>
        <time>2017-11-01T08:33:58.999Z</time>
      </trkpt>
      <trkpt lat="47.49102" lon="6.76487">
        <ele>365.5</ele>
        <time>2017-11-01T08:33:59.999Z</time>
      </trkpt>
      <trkpt lat="47.49102" lon="6.76491">
        <ele>365.5</ele>
        <time>2017-11-01T08:34:00.999Z</time>
      </trkpt>
      <trkpt lat="47.49103" lon="6.76497">
        <ele>365.5</ele>
        <time>2017-11-01T08:34:01.999Z</time>
      </trkpt>
      <trkpt lat="47.49103" lon="6.76502">
        <ele>365.4</ele>
        <time>2017-11-01T08:34:02.999Z</time>
      </trkpt>
      <trkpt lat="47.49103" lon="6.76507">
        <ele>365.3</ele>
        <time>2017-11-01T08:34:03.999Z</time>
      </trkpt>
      <trkpt lat="47.49103" lon="6.76514">
        <ele>365.2</ele>
        <time>2017-11-01T08:34:04.999Z</time>
      </trkpt>
      <trkpt lat="47.49103" lon="6.76522">
        <ele>364.1</ele>
        <time>2017-11-01T08:34:05.999Z</time>
      </trkpt>
      <trkpt lat="47.49103" lon="6.76529">
        <ele>363.9</ele>
        <time>2017-11-01T08:34:06.999Z</time>
      </trkpt>
      <trkpt lat="47.49102" lon="6.76536">
        <ele>363.9</ele>
        <time>2017-11-01T08:34:07.999Z</time>
      </trkpt>
      <trkpt lat="47.49101" lon="6.76542">
        <ele>364</ele>
        <time>2017-11-01T08:34:08.999Z</time>
      </trkpt>
      <trkpt lat="47.49101" lon="6.76548">
        <ele>364</ele>
        <time>2017-11-01T08:34:09.999Z</time>
      </trkpt>
      <trkpt lat="47.491" lon="6.76555">
        <ele>364.5</ele>
        <time>2017-11-01T08:34:10.999Z</time>
      </trkpt>
      <trkpt lat="47.49099" lon="6.76562">
        <ele>364.9</ele>
        <time>2017-11-01T08:34:11.999Z</time>
      </trkpt>
      <trkpt lat="47.49098" lon="6.76569">
        <ele>365.8</ele>
        <time>2017-11-01T08:34:12.999Z</time>
      </trkpt>
      <trkpt lat="47.49097" lon="6.76576">
        <ele>365.1</ele>
        <time>2017-11-01T08:34:13.999Z</time>
      </trkpt>
      <trkpt lat="47.49096" lon="6.76584">
        <ele>365</ele>
        <time>2017-11-01T08:34:14.999Z</time>
      </trkpt>
      <trkpt lat="47.49096" lon="6.76591">
        <ele>364.2</ele>
        <time>2017-11-01T08:34:15.999Z</time>
      </trkpt>
      <trkpt lat="47.49094" lon="6.76597">
        <ele>364</ele>
        <time>2017-11-01T08:34:16.999Z</time>
      </trkpt>
      <trkpt lat="47.49092" lon="6.76604">
        <ele>363.6</ele>
        <time>2017-11-01T08:34:17.999Z</time>
      </trkpt>
      <trkpt lat="47.4909" lon="6.7661">
        <ele>363.7</ele>
        <time>2017-11-01T08:34:18.999Z</time>
      </trkpt>
      <trkpt lat="47.49088" lon="6.76617">
        <ele>363.5</ele>
        <time>2017-11-01T08:34:19.999Z</time>
      </trkpt>
      <trkpt lat="47.49086" lon="6.76622">
        <ele>363.3</ele>
        <time>2017-11-01T08:34:20.999Z</time>
      </trkpt>
      <trkpt lat="47.49085" lon="6.76628">
        <ele>363.2</ele>
        <time>2017-11-01T08:34:21.999Z</time>
      </trkpt>
      <trkpt lat="47.49083" lon="6.76635">
        <ele>363</ele>
        <time>2017-11-01T08:34:22.999Z</time>
      </trkpt>
      <trkpt lat="47.49081" lon="6.7664">
        <ele>362.8</ele>
        <time>2017-11-01T08:34:23.999Z</time>
      </trkpt>
      <trkpt lat="47.4908" lon="6.76646">
        <ele>362.2</ele>
        <time>2017-11-01T08:34:24.999Z</time>
      </trkpt>
      <trkpt lat="47.49078" lon="6.76653">
        <ele>361.1</ele>
        <time>2017-11-01T08:34:25.999Z</time>
      </trkpt>
      <trkpt lat="47.49076" lon="6.76659">
        <ele>360.5</ele>
        <time>2017-11-01T08:34:26.999Z</time>
      </trkpt>
      <trkpt lat="47.49074" lon="6.76666">
        <ele>359.5</ele>
        <time>2017-11-01T08:34:27.999Z</time>
      </trkpt>
      <trkpt lat="47.49072" lon="6.76672">
        <ele>358.9</ele>
        <time>2017-11-01T08:34:28.999Z</time>
      </trkpt>
      <trkpt lat="47.4907" lon="6.76677">
        <ele>358.7</ele>
        <time>2017-11-01T08:34:29.999Z</time>
      </trkpt>
      <trkpt lat="47.49069" lon="6.76683">
        <ele>358.5</ele>
        <time>2017-11-01T08:34:30.999Z</time>
      </trkpt>
      <trkpt lat="47.49067" lon="6.76689">
        <ele>358.4</ele>
        <time>2017-11-01T08:34:31.999Z</time>
      </trkpt>
      <trkpt lat="47.49065" lon="6.76695">
        <ele>358.6</ele>
        <time>2017-11-01T08:34:32.999Z</time>
      </trkpt>
      <trkpt lat="47.49063" lon="6.76701">
        <ele>358.7</ele>
        <time>2017-11-01T08:34:33.999Z</time>
      </trkpt>
      <trkpt lat="47.49061" lon="6.76708">
        <ele>359.4</ele>
        <time>2017-11-01T08:34:34.999Z</time>
      </trkpt>
      <trkpt lat="47.49059" lon="6.76713">
        <ele>359.9</ele>
        <time>2017-11-01T08:34:35.999Z</time>
      </trkpt>
      <trkpt lat="47.49058" lon="6.76719">
        <ele>360.6</ele>
        <time>2017-11-01T08:34:36.999Z</time>
      </trkpt>
      <trkpt lat="47.49057" lon="6.76725">
        <ele>361.2</ele>
        <time>2017-11-01T08:34:37.999Z</time>
      </trkpt>
      <trkpt lat="47.49056" lon="6.76731">
        <ele>361.5</ele>
        <time>2017-11-01T08:34:38.999Z</time>
      </trkpt>
      <trkpt lat="47.49054" lon="6.76737">
        <ele>361.5</ele>
        <time>2017-11-01T08:34:39.999Z</time>
      </trkpt>
      <trkpt lat="47.49053" lon="6.76744">
        <ele>361.4</ele>
        <time>2017-11-01T08:34:40.999Z</time>
      </trkpt>
      <trkpt lat="47.49051" lon="6.76749">
        <ele>361.4</ele>
        <time>2017-11-01T08:34:41.999Z</time>
      </trkpt>
      <trkpt lat="47.4905" lon="6.76756">
        <ele>361.2</ele>
        <time>2017-11-01T08:34:42.999Z</time>
      </trkpt>
      <trkpt lat="47.49049" lon="6.7676">
        <ele>361.1</ele>
        <time>2017-11-01T08:34:43.999Z</time>
      </trkpt>
      <trkpt lat="47.49047" lon="6.76766">
        <ele>360.8</ele>
        <time>2017-11-01T08:34:44.999Z</time>
      </trkpt>
      <trkpt lat="47.49045" lon="6.76767">
        <ele>360.7</ele>
        <time>2017-11-01T08:34:45.999Z</time>
      </trkpt>
      <trkpt lat="47.49041" lon="6.76769">
        <ele>360.7</ele>
        <time>2017-11-01T08:34:47.999Z</time>
      </trkpt>
      <trkpt lat="47.49039" lon="6.7677">
        <ele>360.8</ele>
        <time>2017-11-01T08:34:48.999Z</time>
      </trkpt>
      <trkpt lat="47.49035" lon="6.76772">
        <ele>360.8</ele>
        <time>2017-11-01T08:34:50.999Z</time>
      </trkpt>
      <trkpt lat="47.49034" lon="6.76773">
        <ele>360.8</ele>
        <time>2017-11-01T08:34:51.999Z</time>
      </trkpt>
      <trkpt lat="47.49031" lon="6.76774">
        <ele>360.7</ele>
        <time>2017-11-01T08:34:52.999Z</time>
      </trkpt>
      <trkpt lat="47.49028" lon="6.76773">
        <ele>360.6</ele>
        <time>2017-11-01T08:34:53.999Z</time>
      </trkpt>
      <trkpt lat="47.49024" lon="6.76774">
        <ele>360.5</ele>
        <time>2017-11-01T08:34:54.999Z</time>
      </trkpt>
      <trkpt lat="47.4902" lon="6.76774">
        <ele>360.3</ele>
        <time>2017-11-01T08:34:55.999Z</time>
      </trkpt>
      <trkpt lat="47.49017" lon="6.76773">
        <ele>360.2</ele>
        <time>2017-11-01T08:34:56.999Z</time>
      </trkpt>
      <trkpt lat="47.49014" lon="6.76773">
        <ele>360.1</ele>
        <time>2017-11-01T08:34:57.999Z</time>
      </trkpt>
      <trkpt lat="47.49011" lon="6.76777">
        <ele>358.9</ele>
        <time>2017-11-01T08:35:00.999Z</time>
      </trkpt>
      <trkpt lat="47.49011" lon="6.7678">
        <ele>358.8</ele>
        <time>2017-11-01T08:35:01.999Z</time>
      </trkpt>
      <trkpt lat="47.4901" lon="6.76786">
        <ele>358.5</ele>
        <time>2017-11-01T08:35:02.999Z</time>
      </trkpt>
      <trkpt lat="47.49009" lon="6.76789">
        <ele>358.5</ele>
        <time>2017-11-01T08:35:03.999Z</time>
      </trkpt>
      <trkpt lat="47.49009" lon="6.76793">
        <ele>358.5</ele>
        <time>2017-11-01T08:35:04.999Z</time>
      </trkpt>
      <trkpt lat="47.49008" lon="6.76798">
        <ele>358.5</ele>
        <time>2017-11-01T08:35:05.999Z</time>
      </trkpt>
      <trkpt lat="47.49007" lon="6.76802">
        <ele>358.5</ele>
        <time>2017-11-01T08:35:06.999Z</time>
      </trkpt>
      <trkpt lat="47.49006" lon="6.76807">
        <ele>358.5</ele>
        <time>2017-11-01T08:35:07.999Z</time>
      </trkpt>
      <trkpt lat="47.49005" lon="6.76812">
        <ele>358.5</ele>
        <time>2017-11-01T08:35:08.999Z</time>
      </trkpt>
      <trkpt lat="47.49005" lon="6.76817">
        <ele>358.4</ele>
        <time>2017-11-01T08:35:09.999Z</time>
      </trkpt>
      <trkpt lat="47.49004" lon="6.76823">
        <ele>357.8</ele>
        <time>2017-11-01T08:35:10.999Z</time>
      </trkpt>
      <trkpt lat="47.49003" lon="6.76829">
        <ele>357.8</ele>
        <time>2017-11-01T08:35:11.999Z</time>
      </trkpt>
      <trkpt lat="47.49001" lon="6.76835">
        <ele>357.8</ele>
        <time>2017-11-01T08:35:12.999Z</time>
      </trkpt>
      <trkpt lat="47.49" lon="6.76841">
        <ele>357.8</ele>
        <time>2017-11-01T08:35:13.999Z</time>
      </trkpt>
      <trkpt lat="47.49" lon="6.76845">
        <ele>357.8</ele>
        <time>2017-11-01T08:35:14.999Z</time>
      </trkpt>
      <trkpt lat="47.48999" lon="6.76849">
        <ele>357.9</ele>
        <time>2017-11-01T08:35:15.999Z</time>
      </trkpt>
      <trkpt lat="47.48998" lon="6.76853">
        <ele>358</ele>
        <time>2017-11-01T08:35:16.999Z</time>
      </trkpt>
      <trkpt lat="47.48998" lon="6.76857">
        <ele>358.1</ele>
        <time>2017-11-01T08:35:17.999Z</time>
      </trkpt>
      <trkpt lat="47.48997" lon="6.76862">
        <ele>358.1</ele>
        <time>2017-11-01T08:35:18.999Z</time>
      </trkpt>
      <trkpt lat="47.48996" lon="6.76866">
        <ele>358.1</ele>
        <time>2017-11-01T08:35:19.999Z</time>
      </trkpt>
      <trkpt lat="47.48997" lon="6.7687">
        <ele>358.1</ele>
        <time>2017-11-01T08:35:20.999Z</time>
      </trkpt>
      <trkpt lat="47.48996" lon="6.76875">
        <ele>359.2</ele>
        <time>2017-11-01T08:35:21.999Z</time>
      </trkpt>
      <trkpt lat="47.48995" lon="6.76879">
        <ele>359.2</ele>
        <time>2017-11-01T08:35:22.999Z</time>
      </trkpt>
      <trkpt lat="47.48994" lon="6.76884">
        <ele>359.7</ele>
        <time>2017-11-01T08:35:23.999Z</time>
      </trkpt>
      <trkpt lat="47.48993" lon="6.76888">
        <ele>359.8</ele>
        <time>2017-11-01T08:35:24.999Z</time>
      </trkpt>
      <trkpt lat="47.48992" lon="6.76893">
        <ele>359.8</ele>
        <time>2017-11-01T08:35:25.999Z</time>
      </trkpt>
      <trkpt lat="47.48991" lon="6.76897">
        <ele>360.7</ele>
        <time>2017-11-01T08:35:26.999Z</time>
      </trkpt>
      <trkpt lat="47.48989" lon="6.76901">
        <ele>360.7</ele>
        <time>2017-11-01T08:35:27.999Z</time>
      </trkpt>
      <trkpt lat="47.48988" lon="6.76905">
        <ele>360.7</ele>
        <time>2017-11-01T08:35:28.999Z</time>
      </trkpt>
      <trkpt lat="47.48986" lon="6.76909">
        <ele>360.8</ele>
        <time>2017-11-01T08:35:29.999Z</time>
      </trkpt>
      <trkpt lat="47.48985" lon="6.76912">
        <ele>360.8</ele>
        <time>2017-11-01T08:35:30.999Z</time>
      </trkpt>
      <trkpt lat="47.48983" lon="6.76916">
        <ele>360.9</ele>
        <time>2017-11-01T08:35:31.999Z</time>
      </trkpt>
      <trkpt lat="47.48982" lon="6.76919">
        <ele>360.9</ele>
        <time>2017-11-01T08:35:32.999Z</time>
      </trkpt>
      <trkpt lat="47.4898" lon="6.76921">
        <ele>361</ele>
        <time>2017-11-01T08:35:33.999Z</time>
      </trkpt>
      <trkpt lat="47.48978" lon="6.76924">
        <ele>361</ele>
        <time>2017-11-01T08:35:34.999Z</time>
      </trkpt>
      <trkpt lat="47.48977" lon="6.76927">
        <ele>361</ele>
        <time>2017-11-01T08:35:35.999Z</time>
      </trkpt>
      <trkpt lat="47.48976" lon="6.76932">
        <ele>361</ele>
        <time>2017-11-01T08:35:36.999Z</time>
      </trkpt>
      <trkpt lat="47.48976" lon="6.76936">
        <ele>361</ele>
        <time>2017-11-01T08:35:37.999Z</time>
      </trkpt>
      <trkpt lat="47.48976" lon="6.76942">
        <ele>360.9</ele>
        <time>2017-11-01T08:35:38.999Z</time>
      </trkpt>
      <trkpt lat="47.48975" lon="6.7695">
        <ele>360.8</ele>
        <time>2017-11-01T08:35:39.999Z</time>
      </trkpt>
      <trkpt lat="47.48975" lon="6.76955">
        <ele>361.3</ele>
        <time>2017-11-01T08:35:40.999Z</time>
      </trkpt>
      <trkpt lat="47.48975" lon="6.76961">
        <ele>361.3</ele>
        <time>2017-11-01T08:35:41.999Z</time>
      </trkpt>
      <trkpt lat="47.48974" lon="6.76968">
        <ele>361.9</ele>
        <time>2017-11-01T08:35:42.999Z</time>
      </trkpt>
      <trkpt lat="47.48974" lon="6.76973">
        <ele>361.9</ele>
        <time>2017-11-01T08:35:43.999Z</time>
      </trkpt>
      <trkpt lat="47.48974" lon="6.76979">
        <ele>361.8</ele>
        <time>2017-11-01T08:35:44.999Z</time>
      </trkpt>
      <trkpt lat="47.48974" lon="6.76984">
        <ele>362</ele>
        <time>2017-11-01T08:35:45.999Z</time>
      </trkpt>
      <trkpt lat="47.48974" lon="6.7699">
        <ele>362.9</ele>
        <time>2017-11-01T08:35:46.999Z</time>
      </trkpt>
      <trkpt lat="47.48974" lon="6.76996">
        <ele>363.1</ele>
        <time>2017-11-01T08:35:47.999Z</time>
      </trkpt>
      <trkpt lat="47.48973" lon="6.77">
        <ele>363</ele>
        <time>2017-11-01T08:35:48.999Z</time>
      </trkpt>
      <trkpt lat="47.48973" lon="6.77006">
        <ele>362.5</ele>
        <time>2017-11-01T08:35:49.999Z</time>
      </trkpt>
      <trkpt lat="47.48973" lon="6.77012">
        <ele>362.4</ele>
        <time>2017-11-01T08:35:50.999Z</time>
      </trkpt>
      <trkpt lat="47.48973" lon="6.77017">
        <ele>362.6</ele>
        <time>2017-11-01T08:35:51.999Z</time>
      </trkpt>
      <trkpt lat="47.48972" lon="6.77023">
        <ele>362.3</ele>
        <time>2017-11-01T08:35:52.999Z</time>
      </trkpt>
      <trkpt lat="47.48971" lon="6.7703">
        <ele>362.2</ele>
        <time>2017-11-01T08:35:53.999Z</time>
      </trkpt>
      <trkpt lat="47.4897" lon="6.77036">
        <ele>362.8</ele>
        <time>2017-11-01T08:35:54.999Z</time>
      </trkpt>
      <trkpt lat="47.4897" lon="6.77042">
        <ele>362.8</ele>
        <time>2017-11-01T08:35:55.999Z</time>
      </trkpt>
      <trkpt lat="47.4897" lon="6.77047">
        <ele>362.8</ele>
        <time>2017-11-01T08:35:56.999Z</time>
      </trkpt>
      <trkpt lat="47.4897" lon="6.77053">
        <ele>362.8</ele>
        <time>2017-11-01T08:35:57.999Z</time>
      </trkpt>
      <trkpt lat="47.4897" lon="6.77059">
        <ele>362.8</ele>
        <time>2017-11-01T08:35:58.999Z</time>
      </trkpt>
      <trkpt lat="47.4897" lon="6.77066">
        <ele>362.8</ele>
        <time>2017-11-01T08:35:59.999Z</time>
      </trkpt>
      <trkpt lat="47.48969" lon="6.77072">
        <ele>362.6</ele>
        <time>2017-11-01T08:36:00.999Z</time>
      </trkpt>
      <trkpt lat="47.48969" lon="6.77078">
        <ele>362.6</ele>
        <time>2017-11-01T08:36:01.999Z</time>
      </trkpt>
      <trkpt lat="47.48969" lon="6.77084">
        <ele>362.5</ele>
        <time>2017-11-01T08:36:02.999Z</time>
      </trkpt>
      <trkpt lat="47.4897" lon="6.7709">
        <ele>362.5</ele>
        <time>2017-11-01T08:36:03.999Z</time>
      </trkpt>
      <trkpt lat="47.48969" lon="6.77097">
        <ele>362.1</ele>
        <time>2017-11-01T08:36:04.999Z</time>
      </trkpt>
      <trkpt lat="47.4897" lon="6.77102">
        <ele>362.2</ele>
        <time>2017-11-01T08:36:05.999Z</time>
      </trkpt>
      <trkpt lat="47.4897" lon="6.77108">
        <ele>362.2</ele>
        <time>2017-11-01T08:36:06.999Z</time>
      </trkpt>
      <trkpt lat="47.4897" lon="6.77115">
        <ele>362.2</ele>
        <time>2017-11-01T08:36:07.999Z</time>
      </trkpt>
      <trkpt lat="47.4897" lon="6.77121">
        <ele>361.7</ele>
        <time>2017-11-01T08:36:08.999Z</time>
      </trkpt>
      <trkpt lat="47.48971" lon="6.77127">
        <ele>361.1</ele>
        <time>2017-11-01T08:36:09.999Z</time>
      </trkpt>
      <trkpt lat="47.48971" lon="6.77133">
        <ele>360.8</ele>
        <time>2017-11-01T08:36:10.999Z</time>
      </trkpt>
      <trkpt lat="47.48971" lon="6.77138">
        <ele>360.8</ele>
        <time>2017-11-01T08:36:11.999Z</time>
      </trkpt>
      <trkpt lat="47.48972" lon="6.77143">
        <ele>360.9</ele>
        <time>2017-11-01T08:36:12.999Z</time>
      </trkpt>
      <trkpt lat="47.48972" lon="6.77148">
        <ele>360.5</ele>
        <time>2017-11-01T08:36:13.999Z</time>
      </trkpt>
      <trkpt lat="47.48971" lon="6.77153">
        <ele>360.6</ele>
        <time>2017-11-01T08:36:14.999Z</time>
      </trkpt>
      <trkpt lat="47.4897" lon="6.77158">
        <ele>360.6</ele>
        <time>2017-11-01T08:36:15.999Z</time>
      </trkpt>
      <trkpt lat="47.4897" lon="6.77162">
        <ele>360.7</ele>
        <time>2017-11-01T08:36:16.999Z</time>
      </trkpt>
      <trkpt lat="47.48968" lon="6.77168">
        <ele>360.9</ele>
        <time>2017-11-01T08:36:22.999Z</time>
      </trkpt>
      <trkpt lat="47.48963" lon="6.77178">
        <ele>361</ele>
        <time>2017-11-01T08:36:23.999Z</time>
      </trkpt>
      <trkpt lat="47.48963" lon="6.77183">
        <ele>361</ele>
        <time>2017-11-01T08:36:24.999Z</time>
      </trkpt>
      <trkpt lat="47.48961" lon="6.77188">
        <ele>361.1</ele>
        <time>2017-11-01T08:36:25.999Z</time>
      </trkpt>
      <trkpt lat="47.48961" lon="6.77193">
        <ele>361.2</ele>
        <time>2017-11-01T08:36:26.999Z</time>
      </trkpt>
      <trkpt lat="47.4896" lon="6.77198">
        <ele>361.3</ele>
        <time>2017-11-01T08:36:27.999Z</time>
      </trkpt>
      <trkpt lat="47.48961" lon="6.77203">
        <ele>361.5</ele>
        <time>2017-11-01T08:36:28.999Z</time>
      </trkpt>
      <trkpt lat="47.4896" lon="6.7721">
        <ele>363</ele>
        <time>2017-11-01T08:36:29.999Z</time>
      </trkpt>
      <trkpt lat="47.4896" lon="6.77217">
        <ele>363.7</ele>
        <time>2017-11-01T08:36:30.999Z</time>
      </trkpt>
      <trkpt lat="47.48958" lon="6.77223">
        <ele>364.2</ele>
        <time>2017-11-01T08:36:31.999Z</time>
      </trkpt>
      <trkpt lat="47.48957" lon="6.7723">
        <ele>364.1</ele>
        <time>2017-11-01T08:36:32.999Z</time>
      </trkpt>
      <trkpt lat="47.48955" lon="6.77235">
        <ele>364.1</ele>
        <time>2017-11-01T08:36:33.999Z</time>
      </trkpt>
      <trkpt lat="47.48953" lon="6.7724">
        <ele>364.1</ele>
        <time>2017-11-01T08:36:34.999Z</time>
      </trkpt>
      <trkpt lat="47.48951" lon="6.77246">
        <ele>363.5</ele>
        <time>2017-11-01T08:36:35.999Z</time>
      </trkpt>
      <trkpt lat="47.48949" lon="6.77252">
        <ele>363</ele>
        <time>2017-11-01T08:36:36.999Z</time>
      </trkpt>
      <trkpt lat="47.48946" lon="6.77257">
        <ele>362.7</ele>
        <time>2017-11-01T08:36:37.999Z</time>
      </trkpt>
      <trkpt lat="47.48943" lon="6.77261">
        <ele>362.7</ele>
        <time>2017-11-01T08:36:38.999Z</time>
      </trkpt>
      <trkpt lat="47.48941" lon="6.77266">
        <ele>362.8</ele>
        <time>2017-11-01T08:36:39.999Z</time>
      </trkpt>
      <trkpt lat="47.48939" lon="6.77272">
        <ele>362.8</ele>
        <time>2017-11-01T08:36:40.999Z</time>
      </trkpt>
      <trkpt lat="47.48936" lon="6.77277">
        <ele>362.6</ele>
        <time>2017-11-01T08:36:41.999Z</time>
      </trkpt>
      <trkpt lat="47.48933" lon="6.77283">
        <ele>362.1</ele>
        <time>2017-11-01T08:36:42.999Z</time>
      </trkpt>
      <trkpt lat="47.48932" lon="6.77289">
        <ele>361.6</ele>
        <time>2017-11-01T08:36:43.999Z</time>
      </trkpt>
      <trkpt lat="47.48932" lon="6.77294">
        <ele>361.2</ele>
        <time>2017-11-01T08:36:44.999Z</time>
      </trkpt>
      <trkpt lat="47.48934" lon="6.773">
        <ele>361.5</ele>
        <time>2017-11-01T08:36:45.999Z</time>
      </trkpt>
      <trkpt lat="47.48936" lon="6.77302">
        <ele>362.2</ele>
        <time>2017-11-01T08:36:46.999Z</time>
      </trkpt>
      <trkpt lat="47.4894" lon="6.77305">
        <ele>362.4</ele>
        <time>2017-11-01T08:36:47.999Z</time>
      </trkpt>
      <trkpt lat="47.48945" lon="6.77307">
        <ele>362.7</ele>
        <time>2017-11-01T08:36:48.999Z</time>
      </trkpt>
      <trkpt lat="47.48948" lon="6.77308">
        <ele>362.7</ele>
        <time>2017-11-01T08:36:49.999Z</time>
      </trkpt>
      <trkpt lat="47.48952" lon="6.77309">
        <ele>363.1</ele>
        <time>2017-11-01T08:36:50.999Z</time>
      </trkpt>
      <trkpt lat="47.48955" lon="6.7731">
        <ele>362.7</ele>
        <time>2017-11-01T08:36:51.999Z</time>
      </trkpt>
      <trkpt lat="47.48959" lon="6.77311">
        <ele>362.6</ele>
        <time>2017-11-01T08:36:52.999Z</time>
      </trkpt>
      <trkpt lat="47.48964" lon="6.77312">
        <ele>362.6</ele>
        <time>2017-11-01T08:36:53.999Z</time>
      </trkpt>
      <trkpt lat="47.48967" lon="6.77313">
        <ele>362.6</ele>
        <time>2017-11-01T08:36:54.999Z</time>
      </trkpt>
      <trkpt lat="47.48971" lon="6.77313">
        <ele>362.6</ele>
        <time>2017-11-01T08:36:55.999Z</time>
      </trkpt>
      <trkpt lat="47.48975" lon="6.77312">
        <ele>362.3</ele>
        <time>2017-11-01T08:36:56.999Z</time>
      </trkpt>
      <trkpt lat="47.48979" lon="6.77312">
        <ele>362.7</ele>
        <time>2017-11-01T08:36:57.999Z</time>
      </trkpt>
      <trkpt lat="47.48984" lon="6.77312">
        <ele>362.6</ele>
        <time>2017-11-01T08:36:58.999Z</time>
      </trkpt>
      <trkpt lat="47.48987" lon="6.77313">
        <ele>362.9</ele>
        <time>2017-11-01T08:36:59.999Z</time>
      </trkpt>
      <trkpt lat="47.48991" lon="6.77314">
        <ele>364.1</ele>
        <time>2017-11-01T08:37:00.999Z</time>
      </trkpt>
      <trkpt lat="47.48995" lon="6.77316">
        <ele>364.7</ele>
        <time>2017-11-01T08:37:01.999Z</time>
      </trkpt>
      <trkpt lat="47.48999" lon="6.77317">
        <ele>364.8</ele>
        <time>2017-11-01T08:37:02.999Z</time>
      </trkpt>
      <trkpt lat="47.49003" lon="6.77318">
        <ele>365.4</ele>
        <time>2017-11-01T08:37:03.999Z</time>
      </trkpt>
      <trkpt lat="47.49006" lon="6.77318">
        <ele>365.4</ele>
        <time>2017-11-01T08:37:04.999Z</time>
      </trkpt>
      <trkpt lat="47.4901" lon="6.77319">
        <ele>365.4</ele>
        <time>2017-11-01T08:37:05.999Z</time>
      </trkpt>
      <trkpt lat="47.49014" lon="6.77319">
        <ele>365.5</ele>
        <time>2017-11-01T08:37:06.999Z</time>
      </trkpt>
      <trkpt lat="47.49016" lon="6.77319">
        <ele>365.6</ele>
        <time>2017-11-01T08:37:07.999Z</time>
      </trkpt>
      <trkpt lat="47.49019" lon="6.77319">
        <ele>365.6</ele>
        <time>2017-11-01T08:37:08.999Z</time>
      </trkpt>
      <trkpt lat="47.49021" lon="6.77319">
        <ele>365.6</ele>
        <time>2017-11-01T08:37:09.999Z</time>
      </trkpt>
      <trkpt lat="47.49024" lon="6.77319">
        <ele>365.6</ele>
        <time>2017-11-01T08:37:10.999Z</time>
      </trkpt>
      <trkpt lat="47.49027" lon="6.77318">
        <ele>365.6</ele>
        <time>2017-11-01T08:37:11.999Z</time>
      </trkpt>
      <trkpt lat="47.4903" lon="6.77318">
        <ele>365.6</ele>
        <time>2017-11-01T08:37:12.999Z</time>
      </trkpt>
      <trkpt lat="47.49035" lon="6.77318">
        <ele>366</ele>
        <time>2017-11-01T08:37:13.999Z</time>
      </trkpt>
      <trkpt lat="47.49039" lon="6.77317">
        <ele>365.6</ele>
        <time>2017-11-01T08:37:14.999Z</time>
      </trkpt>
      <trkpt lat="47.49042" lon="6.77316">
        <ele>365.5</ele>
        <time>2017-11-01T08:37:15.999Z</time>
      </trkpt>
      <trkpt lat="47.49045" lon="6.77312">
        <ele>364.3</ele>
        <time>2017-11-01T08:37:16.999Z</time>
      </trkpt>
      <trkpt lat="47.49049" lon="6.7731">
        <ele>363.4</ele>
        <time>2017-11-01T08:37:17.999Z</time>
      </trkpt>
      <trkpt lat="47.49053" lon="6.77307">
        <ele>362.3</ele>
        <time>2017-11-01T08:37:18.999Z</time>
      </trkpt>
      <trkpt lat="47.49058" lon="6.77307">
        <ele>361.2</ele>
        <time>2017-11-01T08:37:19.999Z</time>
      </trkpt>
      <trkpt lat="47.49062" lon="6.77307">
        <ele>360.1</ele>
        <time>2017-11-01T08:37:20.999Z</time>
      </trkpt>
      <trkpt lat="47.49065" lon="6.77307">
        <ele>360.1</ele>
        <time>2017-11-01T08:37:21.999Z</time>
      </trkpt>
      <trkpt lat="47.49069" lon="6.77308">
        <ele>360</ele>
        <time>2017-11-01T08:37:22.999Z</time>
      </trkpt>
      <trkpt lat="47.49073" lon="6.7731">
        <ele>358.7</ele>
        <time>2017-11-01T08:37:23.999Z</time>
      </trkpt>
      <trkpt lat="47.49077" lon="6.77313">
        <ele>357.8</ele>
        <time>2017-11-01T08:37:24.999Z</time>
      </trkpt>
      <trkpt lat="47.49081" lon="6.77316">
        <ele>357.7</ele>
        <time>2017-11-01T08:37:25.999Z</time>
      </trkpt>
      <trkpt lat="47.49085" lon="6.7732">
        <ele>357.7</ele>
        <time>2017-11-01T08:37:26.999Z</time>
      </trkpt>
      <trkpt lat="47.49089" lon="6.77324">
        <ele>357.7</ele>
        <time>2017-11-01T08:37:27.999Z</time>
      </trkpt>
      <trkpt lat="47.49094" lon="6.77326">
        <ele>357.7</ele>
        <time>2017-11-01T08:37:28.999Z</time>
      </trkpt>
      <trkpt lat="47.49098" lon="6.77328">
        <ele>357.8</ele>
        <time>2017-11-01T08:37:29.999Z</time>
      </trkpt>
      <trkpt lat="47.49101" lon="6.77329">
        <ele>357.8</ele>
        <time>2017-11-01T08:37:30.999Z</time>
      </trkpt>
      <trkpt lat="47.49105" lon="6.77331">
        <ele>358</ele>
        <time>2017-11-01T08:37:32.999Z</time>
      </trkpt>
      <trkpt lat="47.49109" lon="6.77332">
        <ele>358.1</ele>
        <time>2017-11-01T08:37:33.999Z</time>
      </trkpt>
      <trkpt lat="47.49112" lon="6.77333">
        <ele>358.2</ele>
        <time>2017-11-01T08:37:34.999Z</time>
      </trkpt>
      <trkpt lat="47.49116" lon="6.77334">
        <ele>359.4</ele>
        <time>2017-11-01T08:37:35.999Z</time>
      </trkpt>
      <trkpt lat="47.4912" lon="6.77336">
        <ele>360</ele>
        <time>2017-11-01T08:37:36.999Z</time>
      </trkpt>
      <trkpt lat="47.49125" lon="6.77336">
        <ele>360.1</ele>
        <time>2017-11-01T08:37:37.999Z</time>
      </trkpt>
      <trkpt lat="47.49129" lon="6.77337">
        <ele>361.1</ele>
        <time>2017-11-01T08:37:38.999Z</time>
      </trkpt>
      <trkpt lat="47.49132" lon="6.77337">
        <ele>361.6</ele>
        <time>2017-11-01T08:37:39.999Z</time>
      </trkpt>
      <trkpt lat="47.49136" lon="6.77337">
        <ele>361.7</ele>
        <time>2017-11-01T08:37:40.999Z</time>
      </trkpt>
      <trkpt lat="47.49139" lon="6.77337">
        <ele>362.6</ele>
        <time>2017-11-01T08:37:41.999Z</time>
      </trkpt>
      <trkpt lat="47.49142" lon="6.77337">
        <ele>363.5</ele>
        <time>2017-11-01T08:37:42.999Z</time>
      </trkpt>
      <trkpt lat="47.49146" lon="6.77337">
        <ele>363.5</ele>
        <time>2017-11-01T08:37:43.999Z</time>
      </trkpt>
      <trkpt lat="47.49149" lon="6.77337">
        <ele>364.2</ele>
        <time>2017-11-01T08:37:44.999Z</time>
      </trkpt>
      <trkpt lat="47.49152" lon="6.77337">
        <ele>364.3</ele>
        <time>2017-11-01T08:37:45.999Z</time>
      </trkpt>
      <trkpt lat="47.49156" lon="6.77337">
        <ele>364.3</ele>
        <time>2017-11-01T08:37:46.999Z</time>
      </trkpt>
      <trkpt lat="47.49161" lon="6.77337">
        <ele>364.3</ele>
        <time>2017-11-01T08:37:47.999Z</time>
      </trkpt>
      <trkpt lat="47.49165" lon="6.77337">
        <ele>364.4</ele>
        <time>2017-11-01T08:37:48.999Z</time>
      </trkpt>
      <trkpt lat="47.49168" lon="6.77338">
        <ele>364.4</ele>
        <time>2017-11-01T08:37:49.999Z</time>
      </trkpt>
      <trkpt lat="47.49169" lon="6.77343">
        <ele>364.3</ele>
        <time>2017-11-01T08:37:51.999Z</time>
      </trkpt>
      <trkpt lat="47.49168" lon="6.77347">
        <ele>364.4</ele>
        <time>2017-11-01T08:37:52.999Z</time>
      </trkpt>
      <trkpt lat="47.49165" lon="6.7735">
        <ele>363.9</ele>
        <time>2017-11-01T08:37:53.999Z</time>
      </trkpt>
      <trkpt lat="47.49161" lon="6.77354">
        <ele>363.9</ele>
        <time>2017-11-01T08:37:54.999Z</time>
      </trkpt>
      <trkpt lat="47.49157" lon="6.77357">
        <ele>363.8</ele>
        <time>2017-11-01T08:37:55.999Z</time>
      </trkpt>
      <trkpt lat="47.49154" lon="6.77361">
        <ele>363.8</ele>
        <time>2017-11-01T08:37:56.999Z</time>
      </trkpt>
      <trkpt lat="47.49151" lon="6.77364">
        <ele>363.8</ele>
        <time>2017-11-01T08:37:57.999Z</time>
      </trkpt>
      <trkpt lat="47.49148" lon="6.77367">
        <ele>363.7</ele>
        <time>2017-11-01T08:37:58.999Z</time>
      </trkpt>
      <trkpt lat="47.49146" lon="6.77369">
        <ele>363.7</ele>
        <time>2017-11-01T08:37:59.999Z</time>
      </trkpt>
      <trkpt lat="47.49143" lon="6.77372">
        <ele>363.6</ele>
        <time>2017-11-01T08:38:00.999Z</time>
      </trkpt>
      <trkpt lat="47.4914" lon="6.77376">
        <ele>363.1</ele>
        <time>2017-11-01T08:38:01.999Z</time>
      </trkpt>
      <trkpt lat="47.49137" lon="6.77378">
        <ele>363</ele>
        <time>2017-11-01T08:38:02.999Z</time>
      </trkpt>
      <trkpt lat="47.49135" lon="6.77381">
        <ele>362.9</ele>
        <time>2017-11-01T08:38:03.999Z</time>
      </trkpt>
      <trkpt lat="47.49133" lon="6.77385">
        <ele>362.3</ele>
        <time>2017-11-01T08:38:04.999Z</time>
      </trkpt>
      <trkpt lat="47.4913" lon="6.77388">
        <ele>361.9</ele>
        <time>2017-11-01T08:38:05.999Z</time>
      </trkpt>
      <trkpt lat="47.49126" lon="6.77392">
        <ele>361.8</ele>
        <time>2017-11-01T08:38:06.999Z</time>
      </trkpt>
      <trkpt lat="47.49123" lon="6.77395">
        <ele>361.4</ele>
        <time>2017-11-01T08:38:07.999Z</time>
      </trkpt>
      <trkpt lat="47.49119" lon="6.77398">
        <ele>361.7</ele>
        <time>2017-11-01T08:38:08.999Z</time>
      </trkpt>
      <trkpt lat="47.49115" lon="6.77401">
        <ele>362</ele>
        <time>2017-11-01T08:38:09.999Z</time>
      </trkpt>
      <trkpt lat="47.49111" lon="6.77404">
        <ele>362.2</ele>
        <time>2017-11-01T08:38:10.999Z</time>
      </trkpt>
      <trkpt lat="47.49107" lon="6.77407">
        <ele>362.3</ele>
        <time>2017-11-01T08:38:11.999Z</time>
      </trkpt>
      <trkpt lat="47.49103" lon="6.7741">
        <ele>362.3</ele>
        <time>2017-11-01T08:38:12.999Z</time>
      </trkpt>
      <trkpt lat="47.491" lon="6.77413">
        <ele>362</ele>
        <time>2017-11-01T08:38:13.999Z</time>
      </trkpt>
      <trkpt lat="47.49097" lon="6.77415">
        <ele>362.7</ele>
        <time>2017-11-01T08:38:14.999Z</time>
      </trkpt>
      <trkpt lat="47.49092" lon="6.77418">
        <ele>363.2</ele>
        <time>2017-11-01T08:38:15.999Z</time>
      </trkpt>
      <trkpt lat="47.49089" lon="6.7742">
        <ele>363.2</ele>
        <time>2017-11-01T08:38:16.999Z</time>
      </trkpt>
      <trkpt lat="47.49084" lon="6.77422">
        <ele>363.2</ele>
        <time>2017-11-01T08:38:17.999Z</time>
      </trkpt>
      <trkpt lat="47.49079" lon="6.77424">
        <ele>363.7</ele>
        <time>2017-11-01T08:38:18.999Z</time>
      </trkpt>
      <trkpt lat="47.49075" lon="6.77425">
        <ele>362.9</ele>
        <time>2017-11-01T08:38:19.999Z</time>
      </trkpt>
      <trkpt lat="47.49071" lon="6.77428">
        <ele>362.8</ele>
        <time>2017-11-01T08:38:20.999Z</time>
      </trkpt>
      <trkpt lat="47.49068" lon="6.77429">
        <ele>362.8</ele>
        <time>2017-11-01T08:38:21.999Z</time>
      </trkpt>
      <trkpt lat="47.49065" lon="6.7743">
        <ele>362.7</ele>
        <time>2017-11-01T08:38:22.999Z</time>
      </trkpt>
      <trkpt lat="47.49061" lon="6.77431">
        <ele>362.7</ele>
        <time>2017-11-01T08:38:23.999Z</time>
      </trkpt>
      <trkpt lat="47.49058" lon="6.77432">
        <ele>362.7</ele>
        <time>2017-11-01T08:38:24.999Z</time>
      </trkpt>
      <trkpt lat="47.49054" lon="6.77434">
        <ele>361.9</ele>
        <time>2017-11-01T08:38:25.999Z</time>
      </trkpt>
      <trkpt lat="47.4905" lon="6.77436">
        <ele>361.9</ele>
        <time>2017-11-01T08:38:26.999Z</time>
      </trkpt>
      <trkpt lat="47.49047" lon="6.77438">
        <ele>361.9</ele>
        <time>2017-11-01T08:38:27.999Z</time>
      </trkpt>
      <trkpt lat="47.49043" lon="6.77441">
        <ele>361.9</ele>
        <time>2017-11-01T08:38:28.999Z</time>
      </trkpt>
      <trkpt lat="47.4904" lon="6.77443">
        <ele>361.6</ele>
        <time>2017-11-01T08:38:29.999Z</time>
      </trkpt>
      <trkpt lat="47.49036" lon="6.77445">
        <ele>362</ele>
        <time>2017-11-01T08:38:30.999Z</time>
      </trkpt>
      <trkpt lat="47.49033" lon="6.77447">
        <ele>362</ele>
        <time>2017-11-01T08:38:31.999Z</time>
      </trkpt>
      <trkpt lat="47.4903" lon="6.77449">
        <ele>362</ele>
        <time>2017-11-01T08:38:32.999Z</time>
      </trkpt>
      <trkpt lat="47.49027" lon="6.77452">
        <ele>362.1</ele>
        <time>2017-11-01T08:38:33.999Z</time>
      </trkpt>
      <trkpt lat="47.49024" lon="6.77455">
        <ele>362.1</ele>
        <time>2017-11-01T08:38:34.999Z</time>
      </trkpt>
      <trkpt lat="47.4902" lon="6.77459">
        <ele>362.1</ele>
        <time>2017-11-01T08:38:35.999Z</time>
      </trkpt>
      <trkpt lat="47.49017" lon="6.77462">
        <ele>362.1</ele>
        <time>2017-11-01T08:38:36.999Z</time>
      </trkpt>
      <trkpt lat="47.49015" lon="6.77467">
        <ele>362.7</ele>
        <time>2017-11-01T08:38:37.999Z</time>
      </trkpt>
      <trkpt lat="47.49013" lon="6.77472">
        <ele>362.6</ele>
        <time>2017-11-01T08:38:38.999Z</time>
      </trkpt>
      <trkpt lat="47.49011" lon="6.77478">
        <ele>362.5</ele>
        <time>2017-11-01T08:38:39.999Z</time>
      </trkpt>
      <trkpt lat="47.4901" lon="6.77482">
        <ele>362.5</ele>
        <time>2017-11-01T08:38:40.999Z</time>
      </trkpt>
      <trkpt lat="47.4901" lon="6.77487">
        <ele>362.5</ele>
        <time>2017-11-01T08:38:41.999Z</time>
      </trkpt>
      <trkpt lat="47.4901" lon="6.77491">
        <ele>362.5</ele>
        <time>2017-11-01T08:38:42.999Z</time>
      </trkpt>
      <trkpt lat="47.4901" lon="6.77497">
        <ele>363</ele>
        <time>2017-11-01T08:38:43.999Z</time>
      </trkpt>
      <trkpt lat="47.4901" lon="6.77503">
        <ele>362.9</ele>
        <time>2017-11-01T08:38:44.999Z</time>
      </trkpt>
      <trkpt lat="47.4901" lon="6.77508">
        <ele>363</ele>
        <time>2017-11-01T08:38:45.999Z</time>
      </trkpt>
      <trkpt lat="47.4901" lon="6.77513">
        <ele>363</ele>
        <time>2017-11-01T08:38:46.999Z</time>
      </trkpt>
      <trkpt lat="47.4901" lon="6.77516">
        <ele>363.1</ele>
        <time>2017-11-01T08:38:47.999Z</time>
      </trkpt>
      <trkpt lat="47.4901" lon="6.7752">
        <ele>363.2</ele>
        <time>2017-11-01T08:38:48.999Z</time>
      </trkpt>
      <trkpt lat="47.49011" lon="6.77525">
        <ele>363.1</ele>
        <time>2017-11-01T08:38:49.999Z</time>
      </trkpt>
      <trkpt lat="47.4901" lon="6.77529">
        <ele>363.1</ele>
        <time>2017-11-01T08:38:50.999Z</time>
      </trkpt>
      <trkpt lat="47.49009" lon="6.77532">
        <ele>363.1</ele>
        <time>2017-11-01T08:38:51.999Z</time>
      </trkpt>
      <trkpt lat="47.49009" lon="6.77536">
        <ele>363.1</ele>
        <time>2017-11-01T08:38:52.999Z</time>
      </trkpt>
      <trkpt lat="47.49008" lon="6.77539">
        <ele>363.1</ele>
        <time>2017-11-01T08:38:53.999Z</time>
      </trkpt>
      <trkpt lat="47.49006" lon="6.77543">
        <ele>363.2</ele>
        <time>2017-11-01T08:38:54.999Z</time>
      </trkpt>
      <trkpt lat="47.49004" lon="6.77545">
        <ele>363.2</ele>
        <time>2017-11-01T08:38:55.999Z</time>
      </trkpt>
      <trkpt lat="47.49002" lon="6.77548">
        <ele>363.2</ele>
        <time>2017-11-01T08:38:56.999Z</time>
      </trkpt>
      <trkpt lat="47.49" lon="6.7755">
        <ele>363.2</ele>
        <time>2017-11-01T08:38:57.999Z</time>
      </trkpt>
      <trkpt lat="47.48997" lon="6.77553">
        <ele>363.1</ele>
        <time>2017-11-01T08:38:58.999Z</time>
      </trkpt>
      <trkpt lat="47.48994" lon="6.77557">
        <ele>363.1</ele>
        <time>2017-11-01T08:38:59.999Z</time>
      </trkpt>
      <trkpt lat="47.4899" lon="6.7756">
        <ele>363.1</ele>
        <time>2017-11-01T08:39:00.999Z</time>
      </trkpt>
      <trkpt lat="47.48988" lon="6.77562">
        <ele>363.1</ele>
        <time>2017-11-01T08:39:01.999Z</time>
      </trkpt>
      <trkpt lat="47.48985" lon="6.77564">
        <ele>363.1</ele>
        <time>2017-11-01T08:39:02.999Z</time>
      </trkpt>
      <trkpt lat="47.48983" lon="6.77567">
        <ele>363.2</ele>
        <time>2017-11-01T08:39:03.999Z</time>
      </trkpt>
      <trkpt lat="47.4898" lon="6.7757">
        <ele>363.2</ele>
        <time>2017-11-01T08:39:04.999Z</time>
      </trkpt>
      <trkpt lat="47.48978" lon="6.77574">
        <ele>363.2</ele>
        <time>2017-11-01T08:39:05.999Z</time>
      </trkpt>
      <trkpt lat="47.48974" lon="6.77578">
        <ele>363.3</ele>
        <time>2017-11-01T08:39:06.999Z</time>
      </trkpt>
      <trkpt lat="47.48971" lon="6.77582">
        <ele>363.3</ele>
        <time>2017-11-01T08:39:07.999Z</time>
      </trkpt>
      <trkpt lat="47.48968" lon="6.77585">
        <ele>363.3</ele>
        <time>2017-11-01T08:39:08.999Z</time>
      </trkpt>
      <trkpt lat="47.48965" lon="6.77587">
        <ele>363.4</ele>
        <time>2017-11-01T08:39:09.999Z</time>
      </trkpt>
      <trkpt lat="47.48962" lon="6.7759">
        <ele>363.4</ele>
        <time>2017-11-01T08:39:10.999Z</time>
      </trkpt>
      <trkpt lat="47.48959" lon="6.77594">
        <ele>363.4</ele>
        <time>2017-11-01T08:39:11.999Z</time>
      </trkpt>
      <trkpt lat="47.48956" lon="6.77597">
        <ele>363.4</ele>
        <time>2017-11-01T08:39:12.999Z</time>
      </trkpt>
      <trkpt lat="47.48952" lon="6.776">
        <ele>363.4</ele>
        <time>2017-11-01T08:39:13.999Z</time>
      </trkpt>
      <trkpt lat="47.48949" lon="6.77604">
        <ele>363.4</ele>
        <time>2017-11-01T08:39:14.999Z</time>
      </trkpt>
      <trkpt lat="47.48946" lon="6.77609">
        <ele>363.3</ele>
        <time>2017-11-01T08:39:15.999Z</time>
      </trkpt>
      <trkpt lat="47.48944" lon="6.77615">
        <ele>363.2</ele>
        <time>2017-11-01T08:39:16.999Z</time>
      </trkpt>
      <trkpt lat="47.48942" lon="6.7762">
        <ele>363.1</ele>
        <time>2017-11-01T08:39:17.999Z</time>
      </trkpt>
      <trkpt lat="47.4894" lon="6.77625">
        <ele>362.9</ele>
        <time>2017-11-01T08:39:18.999Z</time>
      </trkpt>
      <trkpt lat="47.48939" lon="6.7763">
        <ele>362.8</ele>
        <time>2017-11-01T08:39:20.999Z</time>
      </trkpt>
      <trkpt lat="47.4894" lon="6.77634">
        <ele>362.7</ele>
        <time>2017-11-01T08:39:21.999Z</time>
      </trkpt>
      <trkpt lat="47.48943" lon="6.77637">
        <ele>362.5</ele>
        <time>2017-11-01T08:39:23.999Z</time>
      </trkpt>
      <trkpt lat="47.48945" lon="6.77639">
        <ele>362.5</ele>
        <time>2017-11-01T08:39:24.999Z</time>
      </trkpt>
      <trkpt lat="47.48948" lon="6.77641">
        <ele>362.4</ele>
        <time>2017-11-01T08:39:25.999Z</time>
      </trkpt>
      <trkpt lat="47.4895" lon="6.77643">
        <ele>362.3</ele>
        <time>2017-11-01T08:39:26.999Z</time>
      </trkpt>
      <trkpt lat="47.48953" lon="6.77645">
        <ele>362.2</ele>
        <time>2017-11-01T08:39:27.999Z</time>
      </trkpt>
      <trkpt lat="47.48955" lon="6.77649">
        <ele>362.1</ele>
        <time>2017-11-01T08:39:28.999Z</time>
      </trkpt>
      <trkpt lat="47.48957" lon="6.77652">
        <ele>362</ele>
        <time>2017-11-01T08:39:29.999Z</time>
      </trkpt>
      <trkpt lat="47.48959" lon="6.77654">
        <ele>361.8</ele>
        <time>2017-11-01T08:39:30.999Z</time>
      </trkpt>
      <trkpt lat="47.48963" lon="6.77654">
        <ele>361.7</ele>
        <time>2017-11-01T08:39:31.999Z</time>
      </trkpt>
      <trkpt lat="47.48965" lon="6.77656">
        <ele>361.5</ele>
        <time>2017-11-01T08:39:32.999Z</time>
      </trkpt>
      <trkpt lat="47.48968" lon="6.77659">
        <ele>361.4</ele>
        <time>2017-11-01T08:39:33.999Z</time>
      </trkpt>
      <trkpt lat="47.48971" lon="6.77662">
        <ele>361.3</ele>
        <time>2017-11-01T08:39:34.999Z</time>
      </trkpt>
      <trkpt lat="47.48974" lon="6.77664">
        <ele>361.2</ele>
        <time>2017-11-01T08:39:35.999Z</time>
      </trkpt>
      <trkpt lat="47.48976" lon="6.77667">
        <ele>361.1</ele>
        <time>2017-11-01T08:39:36.999Z</time>
      </trkpt>
      <trkpt lat="47.4898" lon="6.77668">
        <ele>361</ele>
        <time>2017-11-01T08:39:37.999Z</time>
      </trkpt>
      <trkpt lat="47.48983" lon="6.77669">
        <ele>361</ele>
        <time>2017-11-01T08:39:38.999Z</time>
      </trkpt>
      <trkpt lat="47.48987" lon="6.77672">
        <ele>360.9</ele>
        <time>2017-11-01T08:39:39.999Z</time>
      </trkpt>
      <trkpt lat="47.4899" lon="6.77675">
        <ele>361.1</ele>
        <time>2017-11-01T08:39:40.999Z</time>
      </trkpt>
      <trkpt lat="47.48994" lon="6.77678">
        <ele>361.1</ele>
        <time>2017-11-01T08:39:41.999Z</time>
      </trkpt>
      <trkpt lat="47.48997" lon="6.7768">
        <ele>361.1</ele>
        <time>2017-11-01T08:39:42.999Z</time>
      </trkpt>
      <trkpt lat="47.49001" lon="6.77683">
        <ele>361.9</ele>
        <time>2017-11-01T08:39:43.999Z</time>
      </trkpt>
      <trkpt lat="47.49005" lon="6.77685">
        <ele>362</ele>
        <time>2017-11-01T08:39:44.999Z</time>
      </trkpt>
      <trkpt lat="47.49009" lon="6.77687">
        <ele>362</ele>
        <time>2017-11-01T08:39:45.999Z</time>
      </trkpt>
      <trkpt lat="47.49012" lon="6.7769">
        <ele>362</ele>
        <time>2017-11-01T08:39:46.999Z</time>
      </trkpt>
      <trkpt lat="47.49016" lon="6.77693">
        <ele>362</ele>
        <time>2017-11-01T08:39:47.999Z</time>
      </trkpt>
      <trkpt lat="47.49019" lon="6.77696">
        <ele>361.9</ele>
        <time>2017-11-01T08:39:48.999Z</time>
      </trkpt>
      <trkpt lat="47.49023" lon="6.77699">
        <ele>361.1</ele>
        <time>2017-11-01T08:39:49.999Z</time>
      </trkpt>
      <trkpt lat="47.49026" lon="6.77702">
        <ele>361.1</ele>
        <time>2017-11-01T08:39:50.999Z</time>
      </trkpt>
      <trkpt lat="47.49027" lon="6.77705">
        <ele>361</ele>
        <time>2017-11-01T08:39:51.999Z</time>
      </trkpt>
      <trkpt lat="47.49029" lon="6.77709">
        <ele>360.9</ele>
        <time>2017-11-01T08:39:52.999Z</time>
      </trkpt>
      <trkpt lat="47.49031" lon="6.77713">
        <ele>360.9</ele>
        <time>2017-11-01T08:39:53.999Z</time>
      </trkpt>
      <trkpt lat="47.49033" lon="6.77718">
        <ele>360.7</ele>
        <time>2017-11-01T08:40:00.999Z</time>
      </trkpt>
      <trkpt lat="47.49037" lon="6.77722">
        <ele>360.6</ele>
        <time>2017-11-01T08:40:01.999Z</time>
      </trkpt>
      <trkpt lat="47.49039" lon="6.77725">
        <ele>360.6</ele>
        <time>2017-11-01T08:40:02.999Z</time>
      </trkpt>
      <trkpt lat="47.49043" lon="6.77728">
        <ele>360.6</ele>
        <time>2017-11-01T08:40:03.999Z</time>
      </trkpt>
      <trkpt lat="47.49046" lon="6.77731">
        <ele>360.7</ele>
        <time>2017-11-01T08:40:04.999Z</time>
      </trkpt>
      <trkpt lat="47.4905" lon="6.77734">
        <ele>361.7</ele>
        <time>2017-11-01T08:40:05.999Z</time>
      </trkpt>
      <trkpt lat="47.49054" lon="6.77738">
        <ele>362.3</ele>
        <time>2017-11-01T08:40:06.999Z</time>
      </trkpt>
      <trkpt lat="47.49058" lon="6.77741">
        <ele>362.9</ele>
        <time>2017-11-01T08:40:07.999Z</time>
      </trkpt>
      <trkpt lat="47.49061" lon="6.77744">
        <ele>363.6</ele>
        <time>2017-11-01T08:40:08.999Z</time>
      </trkpt>
      <trkpt lat="47.49065" lon="6.77747">
        <ele>363.6</ele>
        <time>2017-11-01T08:40:09.999Z</time>
      </trkpt>
      <trkpt lat="47.49068" lon="6.7775">
        <ele>363.6</ele>
        <time>2017-11-01T08:40:10.999Z</time>
      </trkpt>
      <trkpt lat="47.49072" lon="6.77753">
        <ele>363.9</ele>
        <time>2017-11-01T08:40:11.999Z</time>
      </trkpt>
      <trkpt lat="47.49076" lon="6.77756">
        <ele>364</ele>
        <time>2017-11-01T08:40:12.999Z</time>
      </trkpt>
      <trkpt lat="47.4908" lon="6.77759">
        <ele>364.2</ele>
        <time>2017-11-01T08:40:13.999Z</time>
      </trkpt>
      <trkpt lat="47.49083" lon="6.77763">
        <ele>364</ele>
        <time>2017-11-01T08:40:14.999Z</time>
      </trkpt>
      <trkpt lat="47.49086" lon="6.77765">
        <ele>364</ele>
        <time>2017-11-01T08:40:15.999Z</time>
      </trkpt>
      <trkpt lat="47.4909" lon="6.77768">
        <ele>363.3</ele>
        <time>2017-11-01T08:40:16.999Z</time>
      </trkpt>
      <trkpt lat="47.49094" lon="6.7777">
        <ele>363.3</ele>
        <time>2017-11-01T08:40:17.999Z</time>
      </trkpt>
      <trkpt lat="47.49098" lon="6.77773">
        <ele>363.3</ele>
        <time>2017-11-01T08:40:18.999Z</time>
      </trkpt>
      <trkpt lat="47.49102" lon="6.77775">
        <ele>363.5</ele>
        <time>2017-11-01T08:40:19.999Z</time>
      </trkpt>
      <trkpt lat="47.49106" lon="6.77778">
        <ele>363.3</ele>
        <time>2017-11-01T08:40:20.999Z</time>
      </trkpt>
      <trkpt lat="47.4911" lon="6.7778">
        <ele>363.3</ele>
        <time>2017-11-01T08:40:21.999Z</time>
      </trkpt>
      <trkpt lat="47.49115" lon="6.77783">
        <ele>362.6</ele>
        <time>2017-11-01T08:40:22.999Z</time>
      </trkpt>
      <trkpt lat="47.49118" lon="6.77786">
        <ele>362.5</ele>
        <time>2017-11-01T08:40:23.999Z</time>
      </trkpt>
      <trkpt lat="47.49122" lon="6.7779">
        <ele>361.6</ele>
        <time>2017-11-01T08:40:24.999Z</time>
      </trkpt>
      <trkpt lat="47.49127" lon="6.77793">
        <ele>361.7</ele>
        <time>2017-11-01T08:40:25.999Z</time>
      </trkpt>
      <trkpt lat="47.4913" lon="6.77796">
        <ele>361.2</ele>
        <time>2017-11-01T08:40:26.999Z</time>
      </trkpt>
      <trkpt lat="47.49134" lon="6.778">
        <ele>360.8</ele>
        <time>2017-11-01T08:40:27.999Z</time>
      </trkpt>
      <trkpt lat="47.49138" lon="6.77805">
        <ele>360.4</ele>
        <time>2017-11-01T08:40:28.999Z</time>
      </trkpt>
      <trkpt lat="47.49142" lon="6.77808">
        <ele>360.5</ele>
        <time>2017-11-01T08:40:29.999Z</time>
      </trkpt>
      <trkpt lat="47.49146" lon="6.7781">
        <ele>360.5</ele>
        <time>2017-11-01T08:40:30.999Z</time>
      </trkpt>
      <trkpt lat="47.4915" lon="6.77813">
        <ele>361</ele>
        <time>2017-11-01T08:40:31.999Z</time>
      </trkpt>
      <trkpt lat="47.49154" lon="6.77815">
        <ele>361.4</ele>
        <time>2017-11-01T08:40:32.999Z</time>
      </trkpt>
      <trkpt lat="47.49158" lon="6.77818">
        <ele>361.1</ele>
        <time>2017-11-01T08:40:33.999Z</time>
      </trkpt>
      <trkpt lat="47.49162" lon="6.7782">
        <ele>360.9</ele>
        <time>2017-11-01T08:40:34.999Z</time>
      </trkpt>
      <trkpt lat="47.49165" lon="6.77822">
        <ele>360.8</ele>
        <time>2017-11-01T08:40:35.999Z</time>
      </trkpt>
      <trkpt lat="47.49167" lon="6.77824">
        <ele>360.7</ele>
        <time>2017-11-01T08:40:36.999Z</time>
      </trkpt>
      <trkpt lat="47.49171" lon="6.77827">
        <ele>360.6</ele>
        <time>2017-11-01T08:40:37.999Z</time>
      </trkpt>
      <trkpt lat="47.49175" lon="6.77831">
        <ele>360.5</ele>
        <time>2017-11-01T08:40:38.999Z</time>
      </trkpt>
      <trkpt lat="47.4918" lon="6.77834">
        <ele>359</ele>
        <time>2017-11-01T08:40:39.999Z</time>
      </trkpt>
      <trkpt lat="47.49184" lon="6.77836">
        <ele>358</ele>
        <time>2017-11-01T08:40:40.999Z</time>
      </trkpt>
      <trkpt lat="47.49187" lon="6.77838">
        <ele>357.9</ele>
        <time>2017-11-01T08:40:41.999Z</time>
      </trkpt>
      <trkpt lat="47.49191" lon="6.77841">
        <ele>357.9</ele>
        <time>2017-11-01T08:40:42.999Z</time>
      </trkpt>
      <trkpt lat="47.49195" lon="6.77844">
        <ele>357.5</ele>
        <time>2017-11-01T08:40:43.999Z</time>
      </trkpt>
      <trkpt lat="47.49199" lon="6.77847">
        <ele>358</ele>
        <time>2017-11-01T08:40:44.999Z</time>
      </trkpt>
      <trkpt lat="47.49203" lon="6.77849">
        <ele>358.4</ele>
        <time>2017-11-01T08:40:45.999Z</time>
      </trkpt>
      <trkpt lat="47.49208" lon="6.77853">
        <ele>358.3</ele>
        <time>2017-11-01T08:40:46.999Z</time>
      </trkpt>
      <trkpt lat="47.49212" lon="6.77855">
        <ele>358</ele>
        <time>2017-11-01T08:40:47.999Z</time>
      </trkpt>
      <trkpt lat="47.49217" lon="6.77857">
        <ele>357.4</ele>
        <time>2017-11-01T08:40:48.999Z</time>
      </trkpt>
      <trkpt lat="47.49221" lon="6.7786">
        <ele>357.4</ele>
        <time>2017-11-01T08:40:49.999Z</time>
      </trkpt>
      <trkpt lat="47.49225" lon="6.77863">
        <ele>356.8</ele>
        <time>2017-11-01T08:40:50.999Z</time>
      </trkpt>
      <trkpt lat="47.4923" lon="6.77866">
        <ele>357</ele>
        <time>2017-11-01T08:40:51.999Z</time>
      </trkpt>
      <trkpt lat="47.49233" lon="6.77869">
        <ele>356.5</ele>
        <time>2017-11-01T08:40:52.999Z</time>
      </trkpt>
      <trkpt lat="47.49236" lon="6.7787">
        <ele>356.6</ele>
        <time>2017-11-01T08:40:53.999Z</time>
      </trkpt>
      <trkpt lat="47.49238" lon="6.77872">
        <ele>356.7</ele>
        <time>2017-11-01T08:40:54.999Z</time>
      </trkpt>
      <trkpt lat="47.49241" lon="6.77871">
        <ele>356.8</ele>
        <time>2017-11-01T08:40:55.999Z</time>
      </trkpt>
      <trkpt lat="47.49245" lon="6.77872">
        <ele>356.9</ele>
        <time>2017-11-01T08:40:56.999Z</time>
      </trkpt>
      <trkpt lat="47.49247" lon="6.7787">
        <ele>356.9</ele>
        <time>2017-11-01T08:40:57.999Z</time>
      </trkpt>
      <trkpt lat="47.49251" lon="6.77869">
        <ele>357.1</ele>
        <time>2017-11-01T08:40:59.999Z</time>
      </trkpt>
      <trkpt lat="47.49252" lon="6.77867">
        <ele>357.1</ele>
        <time>2017-11-01T08:41:00.999Z</time>
      </trkpt>
      <trkpt lat="47.49255" lon="6.77867">
        <ele>357.2</ele>
        <time>2017-11-01T08:41:01.999Z</time>
      </trkpt>
      <trkpt lat="47.49258" lon="6.77869">
        <ele>357.2</ele>
        <time>2017-11-01T08:41:02.999Z</time>
      </trkpt>
      <trkpt lat="47.49261" lon="6.7787">
        <ele>357.3</ele>
        <time>2017-11-01T08:41:03.999Z</time>
      </trkpt>
      <trkpt lat="47.49263" lon="6.77871">
        <ele>357.3</ele>
        <time>2017-11-01T08:41:04.999Z</time>
      </trkpt>
      <trkpt lat="47.49266" lon="6.77871">
        <ele>357.4</ele>
        <time>2017-11-01T08:41:05.999Z</time>
      </trkpt>
      <trkpt lat="47.49268" lon="6.77873">
        <ele>357.4</ele>
        <time>2017-11-01T08:41:06.999Z</time>
      </trkpt>
      <trkpt lat="47.49272" lon="6.77874">
        <ele>357.5</ele>
        <time>2017-11-01T08:41:07.999Z</time>
      </trkpt>
      <trkpt lat="47.49276" lon="6.77876">
        <ele>357.6</ele>
        <time>2017-11-01T08:41:08.999Z</time>
      </trkpt>
      <trkpt lat="47.49279" lon="6.77877">
        <ele>357.8</ele>
        <time>2017-11-01T08:41:09.999Z</time>
      </trkpt>
      <trkpt lat="47.49281" lon="6.77878">
        <ele>357.8</ele>
        <time>2017-11-01T08:41:10.999Z</time>
      </trkpt>
      <trkpt lat="47.49284" lon="6.7788">
        <ele>357.8</ele>
        <time>2017-11-01T08:41:11.999Z</time>
      </trkpt>
      <trkpt lat="47.49289" lon="6.77881">
        <ele>357.8</ele>
        <time>2017-11-01T08:41:12.999Z</time>
      </trkpt>
      <trkpt lat="47.49293" lon="6.77883">
        <ele>357.7</ele>
        <time>2017-11-01T08:41:13.999Z</time>
      </trkpt>
      <trkpt lat="47.49296" lon="6.77884">
        <ele>357.7</ele>
        <time>2017-11-01T08:41:14.999Z</time>
      </trkpt>
      <trkpt lat="47.49301" lon="6.77885">
        <ele>356.9</ele>
        <time>2017-11-01T08:41:15.999Z</time>
      </trkpt>
      <trkpt lat="47.49304" lon="6.77885">
        <ele>356.8</ele>
        <time>2017-11-01T08:41:16.999Z</time>
      </trkpt>
      <trkpt lat="47.49308" lon="6.77886">
        <ele>356.8</ele>
        <time>2017-11-01T08:41:17.999Z</time>
      </trkpt>
      <trkpt lat="47.49311" lon="6.77887">
        <ele>356.8</ele>
        <time>2017-11-01T08:41:18.999Z</time>
      </trkpt>
      <trkpt lat="47.49315" lon="6.77887">
        <ele>356.8</ele>
        <time>2017-11-01T08:41:19.999Z</time>
      </trkpt>
      <trkpt lat="47.4932" lon="6.77886">
        <ele>357.1</ele>
        <time>2017-11-01T08:41:20.999Z</time>
      </trkpt>
      <trkpt lat="47.49324" lon="6.77886">
        <ele>357.4</ele>
        <time>2017-11-01T08:41:21.999Z</time>
      </trkpt>
      <trkpt lat="47.49327" lon="6.77887">
        <ele>357.5</ele>
        <time>2017-11-01T08:41:22.999Z</time>
      </trkpt>
      <trkpt lat="47.49332" lon="6.77888">
        <ele>358.2</ele>
        <time>2017-11-01T08:41:23.999Z</time>
      </trkpt>
      <trkpt lat="47.49336" lon="6.77887">
        <ele>359</ele>
        <time>2017-11-01T08:41:24.999Z</time>
      </trkpt>
      <trkpt lat="47.4934" lon="6.77886">
        <ele>359.1</ele>
        <time>2017-11-01T08:41:25.999Z</time>
      </trkpt>
      <trkpt lat="47.49344" lon="6.77885">
        <ele>359.2</ele>
        <time>2017-11-01T08:41:26.999Z</time>
      </trkpt>
      <trkpt lat="47.49348" lon="6.77884">
        <ele>359.3</ele>
        <time>2017-11-01T08:41:27.999Z</time>
      </trkpt>
      <trkpt lat="47.49352" lon="6.77883">
        <ele>359.4</ele>
        <time>2017-11-01T08:41:28.999Z</time>
      </trkpt>
      <trkpt lat="47.49356" lon="6.77881">
        <ele>359.4</ele>
        <time>2017-11-01T08:41:29.999Z</time>
      </trkpt>
      <trkpt lat="47.49359" lon="6.77879">
        <ele>359.4</ele>
        <time>2017-11-01T08:41:30.999Z</time>
      </trkpt>
      <trkpt lat="47.49363" lon="6.77876">
        <ele>359.3</ele>
        <time>2017-11-01T08:41:31.999Z</time>
      </trkpt>
      <trkpt lat="47.49367" lon="6.77873">
        <ele>358.6</ele>
        <time>2017-11-01T08:41:32.999Z</time>
      </trkpt>
      <trkpt lat="47.49371" lon="6.77871">
        <ele>358.6</ele>
        <time>2017-11-01T08:41:33.999Z</time>
      </trkpt>
      <trkpt lat="47.49374" lon="6.77868">
        <ele>358.6</ele>
        <time>2017-11-01T08:41:34.999Z</time>
      </trkpt>
      <trkpt lat="47.49377" lon="6.77866">
        <ele>358.8</ele>
        <time>2017-11-01T08:41:35.999Z</time>
      </trkpt>
      <trkpt lat="47.49381" lon="6.77864">
        <ele>357.9</ele>
        <time>2017-11-01T08:41:36.999Z</time>
      </trkpt>
      <trkpt lat="47.49384" lon="6.77862">
        <ele>357.9</ele>
        <time>2017-11-01T08:41:37.999Z</time>
      </trkpt>
      <trkpt lat="47.49388" lon="6.7786">
        <ele>357.1</ele>
        <time>2017-11-01T08:41:38.999Z</time>
      </trkpt>
      <trkpt lat="47.49392" lon="6.77857">
        <ele>356.5</ele>
        <time>2017-11-01T08:41:39.999Z</time>
      </trkpt>
      <trkpt lat="47.49396" lon="6.77854">
        <ele>356.5</ele>
        <time>2017-11-01T08:41:40.999Z</time>
      </trkpt>
      <trkpt lat="47.49399" lon="6.77851">
        <ele>356.5</ele>
        <time>2017-11-01T08:41:41.999Z</time>
      </trkpt>
      <trkpt lat="47.49403" lon="6.77848">
        <ele>356.3</ele>
        <time>2017-11-01T08:41:42.999Z</time>
      </trkpt>
      <trkpt lat="47.49407" lon="6.77845">
        <ele>356.3</ele>
        <time>2017-11-01T08:41:43.999Z</time>
      </trkpt>
      <trkpt lat="47.49411" lon="6.77842">
        <ele>356.3</ele>
        <time>2017-11-01T08:41:44.999Z</time>
      </trkpt>
      <trkpt lat="47.49415" lon="6.7784">
        <ele>356.3</ele>
        <time>2017-11-01T08:41:45.999Z</time>
      </trkpt>
      <trkpt lat="47.49419" lon="6.77837">
        <ele>355.8</ele>
        <time>2017-11-01T08:41:46.999Z</time>
      </trkpt>
      <trkpt lat="47.49423" lon="6.77835">
        <ele>355.7</ele>
        <time>2017-11-01T08:41:47.999Z</time>
      </trkpt>
      <trkpt lat="47.49427" lon="6.77833">
        <ele>355.8</ele>
        <time>2017-11-01T08:41:48.999Z</time>
      </trkpt>
      <trkpt lat="47.49431" lon="6.7783">
        <ele>354.8</ele>
        <time>2017-11-01T08:41:49.999Z</time>
      </trkpt>
      <trkpt lat="47.49435" lon="6.77827">
        <ele>354.1</ele>
        <time>2017-11-01T08:41:50.999Z</time>
      </trkpt>
      <trkpt lat="47.49439" lon="6.77824">
        <ele>354.4</ele>
        <time>2017-11-01T08:41:51.999Z</time>
      </trkpt>
      <trkpt lat="47.49443" lon="6.77821">
        <ele>355.1</ele>
        <time>2017-11-01T08:41:52.999Z</time>
      </trkpt>
      <trkpt lat="47.49447" lon="6.77817">
        <ele>355.7</ele>
        <time>2017-11-01T08:41:53.999Z</time>
      </trkpt>
      <trkpt lat="47.49451" lon="6.77814">
        <ele>357.1</ele>
        <time>2017-11-01T08:41:54.999Z</time>
      </trkpt>
      <trkpt lat="47.49455" lon="6.77811">
        <ele>358.1</ele>
        <time>2017-11-01T08:41:55.999Z</time>
      </trkpt>
      <trkpt lat="47.49459" lon="6.77808">
        <ele>358.1</ele>
        <time>2017-11-01T08:41:56.999Z</time>
      </trkpt>
      <trkpt lat="47.49463" lon="6.77805">
        <ele>357.8</ele>
        <time>2017-11-01T08:41:57.999Z</time>
      </trkpt>
      <trkpt lat="47.49468" lon="6.77802">
        <ele>358.4</ele>
        <time>2017-11-01T08:41:58.999Z</time>
      </trkpt>
      <trkpt lat="47.49472" lon="6.77799">
        <ele>358.6</ele>
        <time>2017-11-01T08:41:59.999Z</time>
      </trkpt>
      <trkpt lat="47.49476" lon="6.77797">
        <ele>357.8</ele>
        <time>2017-11-01T08:42:00.999Z</time>
      </trkpt>
      <trkpt lat="47.4948" lon="6.77794">
        <ele>357</ele>
        <time>2017-11-01T08:42:01.999Z</time>
      </trkpt>
      <trkpt lat="47.49484" lon="6.77791">
        <ele>356.5</ele>
        <time>2017-11-01T08:42:02.999Z</time>
      </trkpt>
      <trkpt lat="47.49488" lon="6.77788">
        <ele>356.3</ele>
        <time>2017-11-01T08:42:03.999Z</time>
      </trkpt>
      <trkpt lat="47.49493" lon="6.77785">
        <ele>356</ele>
        <time>2017-11-01T08:42:04.999Z</time>
      </trkpt>
      <trkpt lat="47.49496" lon="6.77783">
        <ele>355.9</ele>
        <time>2017-11-01T08:42:05.999Z</time>
      </trkpt>
      <trkpt lat="47.495" lon="6.77781">
        <ele>355.8</ele>
        <time>2017-11-01T08:42:06.999Z</time>
      </trkpt>
      <trkpt lat="47.49503" lon="6.77779">
        <ele>355.7</ele>
        <time>2017-11-01T08:42:07.999Z</time>
      </trkpt>
      <trkpt lat="47.49507" lon="6.77776">
        <ele>355.4</ele>
        <time>2017-11-01T08:42:08.999Z</time>
      </trkpt>
      <trkpt lat="47.4951" lon="6.77774">
        <ele>355.3</ele>
        <time>2017-11-01T08:42:09.999Z</time>
      </trkpt>
      <trkpt lat="47.49514" lon="6.77772">
        <ele>355.3</ele>
        <time>2017-11-01T08:42:10.999Z</time>
      </trkpt>
      <trkpt lat="47.49516" lon="6.7777">
        <ele>355.3</ele>
        <time>2017-11-01T08:42:11.999Z</time>
      </trkpt>
      <trkpt lat="47.49519" lon="6.77769">
        <ele>355.3</ele>
        <time>2017-11-01T08:42:12.999Z</time>
      </trkpt>
      <trkpt lat="47.49524" lon="6.77766">
        <ele>354.8</ele>
        <time>2017-11-01T08:42:13.999Z</time>
      </trkpt>
      <trkpt lat="47.49528" lon="6.77762">
        <ele>354.7</ele>
        <time>2017-11-01T08:42:14.999Z</time>
      </trkpt>
      <trkpt lat="47.49533" lon="6.77758">
        <ele>354.5</ele>
        <time>2017-11-01T08:42:15.999Z</time>
      </trkpt>
      <trkpt lat="47.49536" lon="6.77754">
        <ele>355</ele>
        <time>2017-11-01T08:42:16.999Z</time>
      </trkpt>
      <trkpt lat="47.49541" lon="6.77751">
        <ele>355.4</ele>
        <time>2017-11-01T08:42:17.999Z</time>
      </trkpt>
      <trkpt lat="47.49545" lon="6.77748">
        <ele>356.6</ele>
        <time>2017-11-01T08:42:18.999Z</time>
      </trkpt>
      <trkpt lat="47.49549" lon="6.77745">
        <ele>357</ele>
        <time>2017-11-01T08:42:19.999Z</time>
      </trkpt>
      <trkpt lat="47.49553" lon="6.77742">
        <ele>356.9</ele>
        <time>2017-11-01T08:42:20.999Z</time>
      </trkpt>
      <trkpt lat="47.49557" lon="6.77739">
        <ele>356.2</ele>
        <time>2017-11-01T08:42:21.999Z</time>
      </trkpt>
      <trkpt lat="47.49561" lon="6.77736">
        <ele>355.6</ele>
        <time>2017-11-01T08:42:22.999Z</time>
      </trkpt>
      <trkpt lat="47.49565" lon="6.77733">
        <ele>354.8</ele>
        <time>2017-11-01T08:42:23.999Z</time>
      </trkpt>
      <trkpt lat="47.49568" lon="6.7773">
        <ele>354.8</ele>
        <time>2017-11-01T08:42:24.999Z</time>
      </trkpt>
      <trkpt lat="47.4957" lon="6.77726">
        <ele>354.8</ele>
        <time>2017-11-01T08:42:25.999Z</time>
      </trkpt>
      <trkpt lat="47.49573" lon="6.77722">
        <ele>354.9</ele>
        <time>2017-11-01T08:42:26.999Z</time>
      </trkpt>
      <trkpt lat="47.49577" lon="6.77718">
        <ele>355.4</ele>
        <time>2017-11-01T08:42:27.999Z</time>
      </trkpt>
      <trkpt lat="47.4958" lon="6.77713">
        <ele>355.3</ele>
        <time>2017-11-01T08:42:28.999Z</time>
      </trkpt>
      <trkpt lat="47.49583" lon="6.7771">
        <ele>354.9</ele>
        <time>2017-11-01T08:42:29.999Z</time>
      </trkpt>
      <trkpt lat="47.49587" lon="6.77707">
        <ele>354.1</ele>
        <time>2017-11-01T08:42:30.999Z</time>
      </trkpt>
      <trkpt lat="47.49591" lon="6.77705">
        <ele>353.5</ele>
        <time>2017-11-01T08:42:31.999Z</time>
      </trkpt>
      <trkpt lat="47.49595" lon="6.77701">
        <ele>353.5</ele>
        <time>2017-11-01T08:42:32.999Z</time>
      </trkpt>
      <trkpt lat="47.49599" lon="6.77699">
        <ele>353.5</ele>
        <time>2017-11-01T08:42:33.999Z</time>
      </trkpt>
      <trkpt lat="47.49603" lon="6.77697">
        <ele>353.5</ele>
        <time>2017-11-01T08:42:34.999Z</time>
      </trkpt>
      <trkpt lat="47.49607" lon="6.77695">
        <ele>354.4</ele>
        <time>2017-11-01T08:42:35.999Z</time>
      </trkpt>
      <trkpt lat="47.49611" lon="6.77691">
        <ele>355.1</ele>
        <time>2017-11-01T08:42:36.999Z</time>
      </trkpt>
      <trkpt lat="47.49616" lon="6.77689">
        <ele>355.8</ele>
        <time>2017-11-01T08:42:37.999Z</time>
      </trkpt>
      <trkpt lat="47.4962" lon="6.77686">
        <ele>356</ele>
        <time>2017-11-01T08:42:38.999Z</time>
      </trkpt>
      <trkpt lat="47.49623" lon="6.77685">
        <ele>356.1</ele>
        <time>2017-11-01T08:42:39.999Z</time>
      </trkpt>
      <trkpt lat="47.49626" lon="6.77682">
        <ele>356.2</ele>
        <time>2017-11-01T08:42:40.999Z</time>
      </trkpt>
      <trkpt lat="47.4963" lon="6.77679">
        <ele>356.8</ele>
        <time>2017-11-01T08:42:41.999Z</time>
      </trkpt>
      <trkpt lat="47.49633" lon="6.77676">
        <ele>356.7</ele>
        <time>2017-11-01T08:42:42.999Z</time>
      </trkpt>
      <trkpt lat="47.49635" lon="6.77674">
        <ele>356.6</ele>
        <time>2017-11-01T08:42:43.999Z</time>
      </trkpt>
      <trkpt lat="47.49638" lon="6.77671">
        <ele>356.6</ele>
        <time>2017-11-01T08:42:44.999Z</time>
      </trkpt>
      <trkpt lat="47.49642" lon="6.77668">
        <ele>356</ele>
        <time>2017-11-01T08:42:45.999Z</time>
      </trkpt>
      <trkpt lat="47.49645" lon="6.77664">
        <ele>355.8</ele>
        <time>2017-11-01T08:42:46.999Z</time>
      </trkpt>
      <trkpt lat="47.49649" lon="6.77662">
        <ele>355.7</ele>
        <time>2017-11-01T08:42:47.999Z</time>
      </trkpt>
      <trkpt lat="47.49652" lon="6.77659">
        <ele>355.7</ele>
        <time>2017-11-01T08:42:48.999Z</time>
      </trkpt>
      <trkpt lat="47.49656" lon="6.77658">
        <ele>355.1</ele>
        <time>2017-11-01T08:42:49.999Z</time>
      </trkpt>
      <trkpt lat="47.49659" lon="6.77656">
        <ele>355</ele>
        <time>2017-11-01T08:42:50.999Z</time>
      </trkpt>
      <trkpt lat="47.49664" lon="6.77655">
        <ele>354.8</ele>
        <time>2017-11-01T08:42:51.999Z</time>
      </trkpt>
      <trkpt lat="47.49668" lon="6.77653">
        <ele>354.7</ele>
        <time>2017-11-01T08:42:52.999Z</time>
      </trkpt>
      <trkpt lat="47.49673" lon="6.77651">
        <ele>354.6</ele>
        <time>2017-11-01T08:42:53.999Z</time>
      </trkpt>
      <trkpt lat="47.49677" lon="6.77649">
        <ele>355</ele>
        <time>2017-11-01T08:42:54.999Z</time>
      </trkpt>
      <trkpt lat="47.49681" lon="6.77647">
        <ele>354.8</ele>
        <time>2017-11-01T08:42:55.999Z</time>
      </trkpt>
      <trkpt lat="47.49685" lon="6.77644">
        <ele>354.7</ele>
        <time>2017-11-01T08:42:56.999Z</time>
      </trkpt>
      <trkpt lat="47.49689" lon="6.77641">
        <ele>354.3</ele>
        <time>2017-11-01T08:42:57.999Z</time>
      </trkpt>
      <trkpt lat="47.49694" lon="6.77639">
        <ele>354.2</ele>
        <time>2017-11-01T08:42:58.999Z</time>
      </trkpt>
      <trkpt lat="47.49697" lon="6.77637">
        <ele>354.2</ele>
        <time>2017-11-01T08:42:59.999Z</time>
      </trkpt>
      <trkpt lat="47.49701" lon="6.77634">
        <ele>354.2</ele>
        <time>2017-11-01T08:43:00.999Z</time>
      </trkpt>
      <trkpt lat="47.49705" lon="6.77632">
        <ele>353.5</ele>
        <time>2017-11-01T08:43:01.999Z</time>
      </trkpt>
      <trkpt lat="47.49708" lon="6.77628">
        <ele>353.1</ele>
        <time>2017-11-01T08:43:02.999Z</time>
      </trkpt>
      <trkpt lat="47.49712" lon="6.77624">
        <ele>352.9</ele>
        <time>2017-11-01T08:43:03.999Z</time>
      </trkpt>
      <trkpt lat="47.49715" lon="6.77621">
        <ele>352.8</ele>
        <time>2017-11-01T08:43:04.999Z</time>
      </trkpt>
      <trkpt lat="47.49718" lon="6.77618">
        <ele>352.8</ele>
        <time>2017-11-01T08:43:05.999Z</time>
      </trkpt>
      <trkpt lat="47.49721" lon="6.77614">
        <ele>353.2</ele>
        <time>2017-11-01T08:43:06.999Z</time>
      </trkpt>
      <trkpt lat="47.49724" lon="6.77612">
        <ele>353.2</ele>
        <time>2017-11-01T08:43:07.999Z</time>
      </trkpt>
      <trkpt lat="47.49727" lon="6.77609">
        <ele>353.2</ele>
        <time>2017-11-01T08:43:08.999Z</time>
      </trkpt>
      <trkpt lat="47.4973" lon="6.77606">
        <ele>353.8</ele>
        <time>2017-11-01T08:43:09.999Z</time>
      </trkpt>
      <trkpt lat="47.49733" lon="6.77602">
        <ele>353.8</ele>
        <time>2017-11-01T08:43:10.999Z</time>
      </trkpt>
      <trkpt lat="47.49737" lon="6.77599">
        <ele>353.5</ele>
        <time>2017-11-01T08:43:11.999Z</time>
      </trkpt>
      <trkpt lat="47.49741" lon="6.77595">
        <ele>353.6</ele>
        <time>2017-11-01T08:43:12.999Z</time>
      </trkpt>
      <trkpt lat="47.49745" lon="6.77592">
        <ele>353.6</ele>
        <time>2017-11-01T08:43:13.999Z</time>
      </trkpt>
      <trkpt lat="47.4975" lon="6.77588">
        <ele>353.3</ele>
        <time>2017-11-01T08:43:14.999Z</time>
      </trkpt>
      <trkpt lat="47.49754" lon="6.77584">
        <ele>353</ele>
        <time>2017-11-01T08:43:15.999Z</time>
      </trkpt>
      <trkpt lat="47.49759" lon="6.77581">
        <ele>352.5</ele>
        <time>2017-11-01T08:43:16.999Z</time>
      </trkpt>
      <trkpt lat="47.49763" lon="6.77578">
        <ele>352</ele>
        <time>2017-11-01T08:43:17.999Z</time>
      </trkpt>
      <trkpt lat="47.49768" lon="6.77575">
        <ele>350.8</ele>
        <time>2017-11-01T08:43:18.999Z</time>
      </trkpt>
      <trkpt lat="47.49772" lon="6.77572">
        <ele>350.1</ele>
        <time>2017-11-01T08:43:19.999Z</time>
      </trkpt>
      <trkpt lat="47.49776" lon="6.77569">
        <ele>349.9</ele>
        <time>2017-11-01T08:43:20.999Z</time>
      </trkpt>
      <trkpt lat="47.49781" lon="6.77565">
        <ele>349.9</ele>
        <time>2017-11-01T08:43:21.999Z</time>
      </trkpt>
      <trkpt lat="47.49785" lon="6.77562">
        <ele>349.8</ele>
        <time>2017-11-01T08:43:22.999Z</time>
      </trkpt>
      <trkpt lat="47.4979" lon="6.77559">
        <ele>350.1</ele>
        <time>2017-11-01T08:43:23.999Z</time>
      </trkpt>
      <trkpt lat="47.49794" lon="6.77556">
        <ele>349.8</ele>
        <time>2017-11-01T08:43:24.999Z</time>
      </trkpt>
      <trkpt lat="47.49799" lon="6.77553">
        <ele>350</ele>
        <time>2017-11-01T08:43:25.999Z</time>
      </trkpt>
      <trkpt lat="47.49804" lon="6.7755">
        <ele>350.6</ele>
        <time>2017-11-01T08:43:26.999Z</time>
      </trkpt>
      <trkpt lat="47.49808" lon="6.77547">
        <ele>351.7</ele>
        <time>2017-11-01T08:43:27.999Z</time>
      </trkpt>
      <trkpt lat="47.49812" lon="6.77544">
        <ele>352.1</ele>
        <time>2017-11-01T08:43:28.999Z</time>
      </trkpt>
      <trkpt lat="47.49816" lon="6.77541">
        <ele>352.9</ele>
        <time>2017-11-01T08:43:29.999Z</time>
      </trkpt>
      <trkpt lat="47.4982" lon="6.77538">
        <ele>352.4</ele>
        <time>2017-11-01T08:43:30.999Z</time>
      </trkpt>
      <trkpt lat="47.49825" lon="6.77536">
        <ele>352</ele>
        <time>2017-11-01T08:43:31.999Z</time>
      </trkpt>
      <trkpt lat="47.49828" lon="6.77533">
        <ele>352.1</ele>
        <time>2017-11-01T08:43:32.999Z</time>
      </trkpt>
      <trkpt lat="47.49832" lon="6.7753">
        <ele>352.4</ele>
        <time>2017-11-01T08:43:33.999Z</time>
      </trkpt>
      <trkpt lat="47.49835" lon="6.77527">
        <ele>352.8</ele>
        <time>2017-11-01T08:43:34.999Z</time>
      </trkpt>
      <trkpt lat="47.49839" lon="6.77525">
        <ele>352.8</ele>
        <time>2017-11-01T08:43:35.999Z</time>
      </trkpt>
      <trkpt lat="47.49843" lon="6.77523">
        <ele>352.8</ele>
        <time>2017-11-01T08:43:36.999Z</time>
      </trkpt>
      <trkpt lat="47.49848" lon="6.77519">
        <ele>353.1</ele>
        <time>2017-11-01T08:43:37.999Z</time>
      </trkpt>
      <trkpt lat="47.49852" lon="6.77516">
        <ele>353.4</ele>
        <time>2017-11-01T08:43:38.999Z</time>
      </trkpt>
      <trkpt lat="47.49856" lon="6.77514">
        <ele>353.5</ele>
        <time>2017-11-01T08:43:39.999Z</time>
      </trkpt>
      <trkpt lat="47.4986" lon="6.77511">
        <ele>353.3</ele>
        <time>2017-11-01T08:43:40.999Z</time>
      </trkpt>
      <trkpt lat="47.49864" lon="6.77509">
        <ele>353.4</ele>
        <time>2017-11-01T08:43:41.999Z</time>
      </trkpt>
      <trkpt lat="47.49867" lon="6.77506">
        <ele>353.6</ele>
        <time>2017-11-01T08:43:42.999Z</time>
      </trkpt>
      <trkpt lat="47.49871" lon="6.77503">
        <ele>353.7</ele>
        <time>2017-11-01T08:43:43.999Z</time>
      </trkpt>
      <trkpt lat="47.49875" lon="6.77501">
        <ele>353.9</ele>
        <time>2017-11-01T08:43:44.999Z</time>
      </trkpt>
      <trkpt lat="47.49879" lon="6.77498">
        <ele>353.7</ele>
        <time>2017-11-01T08:43:45.999Z</time>
      </trkpt>
      <trkpt lat="47.49883" lon="6.77495">
        <ele>353.3</ele>
        <time>2017-11-01T08:43:46.999Z</time>
      </trkpt>
      <trkpt lat="47.49887" lon="6.77492">
        <ele>353.9</ele>
        <time>2017-11-01T08:43:47.999Z</time>
      </trkpt>
      <trkpt lat="47.49891" lon="6.7749">
        <ele>353.8</ele>
        <time>2017-11-01T08:43:48.999Z</time>
      </trkpt>
      <trkpt lat="47.49896" lon="6.77487">
        <ele>353.9</ele>
        <time>2017-11-01T08:43:49.999Z</time>
      </trkpt>
      <trkpt lat="47.499" lon="6.77483">
        <ele>353.8</ele>
        <time>2017-11-01T08:43:50.999Z</time>
      </trkpt>
      <trkpt lat="47.49905" lon="6.7748">
        <ele>354.4</ele>
        <time>2017-11-01T08:43:51.999Z</time>
      </trkpt>
      <trkpt lat="47.49909" lon="6.77478">
        <ele>354.8</ele>
        <time>2017-11-01T08:43:52.999Z</time>
      </trkpt>
      <trkpt lat="47.49913" lon="6.77475">
        <ele>355.7</ele>
        <time>2017-11-01T08:43:53.999Z</time>
      </trkpt>
      <trkpt lat="47.49917" lon="6.77472">
        <ele>356.4</ele>
        <time>2017-11-01T08:43:54.999Z</time>
      </trkpt>
      <trkpt lat="47.49921" lon="6.77469">
        <ele>356.7</ele>
        <time>2017-11-01T08:43:55.999Z</time>
      </trkpt>
      <trkpt lat="47.49925" lon="6.77466">
        <ele>356.7</ele>
        <time>2017-11-01T08:43:56.999Z</time>
      </trkpt>
      <trkpt lat="47.49929" lon="6.77463">
        <ele>357.2</ele>
        <time>2017-11-01T08:43:57.999Z</time>
      </trkpt>
      <trkpt lat="47.49932" lon="6.77461">
        <ele>357.6</ele>
        <time>2017-11-01T08:43:58.999Z</time>
      </trkpt>
      <trkpt lat="47.49937" lon="6.77458">
        <ele>357.8</ele>
        <time>2017-11-01T08:43:59.999Z</time>
      </trkpt>
      <trkpt lat="47.49941" lon="6.77456">
        <ele>358</ele>
        <time>2017-11-01T08:44:00.999Z</time>
      </trkpt>
      <trkpt lat="47.49944" lon="6.77453">
        <ele>358.6</ele>
        <time>2017-11-01T08:44:01.999Z</time>
      </trkpt>
      <trkpt lat="47.49948" lon="6.7745">
        <ele>358.7</ele>
        <time>2017-11-01T08:44:02.999Z</time>
      </trkpt>
      <trkpt lat="47.49949" lon="6.77446">
        <ele>359.8</ele>
        <time>2017-11-01T08:44:03.999Z</time>
      </trkpt>
      <trkpt lat="47.49952" lon="6.77443">
        <ele>361.1</ele>
        <time>2017-11-01T08:44:04.999Z</time>
      </trkpt>
      <trkpt lat="47.49956" lon="6.77442">
        <ele>361.5</ele>
        <time>2017-11-01T08:44:05.999Z</time>
      </trkpt>
      <trkpt lat="47.49959" lon="6.7744">
        <ele>361.5</ele>
        <time>2017-11-01T08:44:06.999Z</time>
      </trkpt>
      <trkpt lat="47.49963" lon="6.77438">
        <ele>361.6</ele>
        <time>2017-11-01T08:44:07.999Z</time>
      </trkpt>
      <trkpt lat="47.49966" lon="6.77436">
        <ele>361.6</ele>
        <time>2017-11-01T08:44:08.999Z</time>
      </trkpt>
      <trkpt lat="47.49969" lon="6.77435">
        <ele>361.8</ele>
        <time>2017-11-01T08:44:09.999Z</time>
      </trkpt>
      <trkpt lat="47.49972" lon="6.77433">
        <ele>361.8</ele>
        <time>2017-11-01T08:44:10.999Z</time>
      </trkpt>
      <trkpt lat="47.49975" lon="6.7743">
        <ele>361.8</ele>
        <time>2017-11-01T08:44:11.999Z</time>
      </trkpt>
      <trkpt lat="47.49979" lon="6.77428">
        <ele>361.9</ele>
        <time>2017-11-01T08:44:12.999Z</time>
      </trkpt>
      <trkpt lat="47.49982" lon="6.77426">
        <ele>361.9</ele>
        <time>2017-11-01T08:44:13.999Z</time>
      </trkpt>
      <trkpt lat="47.49986" lon="6.77423">
        <ele>362.3</ele>
        <time>2017-11-01T08:44:14.999Z</time>
      </trkpt>
      <trkpt lat="47.49989" lon="6.7742">
        <ele>362.8</ele>
        <time>2017-11-01T08:44:15.999Z</time>
      </trkpt>
      <trkpt lat="47.49992" lon="6.77417">
        <ele>363.2</ele>
        <time>2017-11-01T08:44:16.999Z</time>
      </trkpt>
      <trkpt lat="47.49995" lon="6.77414">
        <ele>363.3</ele>
        <time>2017-11-01T08:44:17.999Z</time>
      </trkpt>
      <trkpt lat="47.49997" lon="6.77411">
        <ele>363.2</ele>
        <time>2017-11-01T08:44:18.999Z</time>
      </trkpt>
      <trkpt lat="47.49999" lon="6.77407">
        <ele>362.6</ele>
        <time>2017-11-01T08:44:19.999Z</time>
      </trkpt>
      <trkpt lat="47.50001" lon="6.77402">
        <ele>362.1</ele>
        <time>2017-11-01T08:44:20.999Z</time>
      </trkpt>
      <trkpt lat="47.50003" lon="6.77397">
        <ele>362.1</ele>
        <time>2017-11-01T08:44:21.999Z</time>
      </trkpt>
      <trkpt lat="47.50005" lon="6.77392">
        <ele>362</ele>
        <time>2017-11-01T08:44:22.999Z</time>
      </trkpt>
      <trkpt lat="47.50007" lon="6.77387">
        <ele>361.6</ele>
        <time>2017-11-01T08:44:23.999Z</time>
      </trkpt>
      <trkpt lat="47.50009" lon="6.77381">
        <ele>361.1</ele>
        <time>2017-11-01T08:44:24.999Z</time>
      </trkpt>
      <trkpt lat="47.50013" lon="6.77373">
        <ele>360.8</ele>
        <time>2017-11-01T08:44:25.999Z</time>
      </trkpt>
      <trkpt lat="47.50016" lon="6.77367">
        <ele>360.4</ele>
        <time>2017-11-01T08:44:26.999Z</time>
      </trkpt>
      <trkpt lat="47.50019" lon="6.77361">
        <ele>360.3</ele>
        <time>2017-11-01T08:44:27.999Z</time>
      </trkpt>
      <trkpt lat="47.50023" lon="6.77358">
        <ele>359.9</ele>
        <time>2017-11-01T08:44:28.999Z</time>
      </trkpt>
      <trkpt lat="47.50027" lon="6.77356">
        <ele>359.1</ele>
        <time>2017-11-01T08:44:29.999Z</time>
      </trkpt>
      <trkpt lat="47.50031" lon="6.77357">
        <ele>359</ele>
        <time>2017-11-01T08:44:30.999Z</time>
      </trkpt>
      <trkpt lat="47.50035" lon="6.77359">
        <ele>359</ele>
        <time>2017-11-01T08:44:31.999Z</time>
      </trkpt>
      <trkpt lat="47.50038" lon="6.77361">
        <ele>358.9</ele>
        <time>2017-11-01T08:44:32.999Z</time>
      </trkpt>
      <trkpt lat="47.50042" lon="6.77363">
        <ele>358.9</ele>
        <time>2017-11-01T08:44:33.999Z</time>
      </trkpt>
      <trkpt lat="47.50045" lon="6.77365">
        <ele>359</ele>
        <time>2017-11-01T08:44:34.999Z</time>
      </trkpt>
      <trkpt lat="47.50047" lon="6.77366">
        <ele>359.1</ele>
        <time>2017-11-01T08:44:35.999Z</time>
      </trkpt>
      <trkpt lat="47.5005" lon="6.77369">
        <ele>359.3</ele>
        <time>2017-11-01T08:44:37.999Z</time>
      </trkpt>
      <trkpt lat="47.50051" lon="6.7737">
        <ele>359.4</ele>
        <time>2017-11-01T08:44:38.999Z</time>
      </trkpt>
      <trkpt lat="47.50056" lon="6.77371">
        <ele>359.6</ele>
        <time>2017-11-01T08:44:40.999Z</time>
      </trkpt>
      <trkpt lat="47.50057" lon="6.77371">
        <ele>359.7</ele>
        <time>2017-11-01T08:44:41.999Z</time>
      </trkpt>
      <trkpt lat="47.50058" lon="6.77367">
        <ele>359.8</ele>
        <time>2017-11-01T08:44:42.999Z</time>
      </trkpt>
      <trkpt lat="47.50058" lon="6.77363">
        <ele>359.9</ele>
        <time>2017-11-01T08:44:43.999Z</time>
      </trkpt>
      <trkpt lat="47.50057" lon="6.7736">
        <ele>359.9</ele>
        <time>2017-11-01T08:44:44.999Z</time>
      </trkpt>
      <trkpt lat="47.50055" lon="6.77358">
        <ele>359.9</ele>
        <time>2017-11-01T08:44:45.999Z</time>
      </trkpt>
      <trkpt lat="47.50053" lon="6.77355">
        <ele>360</ele>
        <time>2017-11-01T08:44:46.999Z</time>
      </trkpt>
      <trkpt lat="47.50051" lon="6.77353">
        <ele>360</ele>
        <time>2017-11-01T08:44:47.999Z</time>
      </trkpt>
      <trkpt lat="47.50048" lon="6.7735">
        <ele>360</ele>
        <time>2017-11-01T08:44:48.999Z</time>
      </trkpt>
      <trkpt lat="47.50046" lon="6.77348">
        <ele>360</ele>
        <time>2017-11-01T08:44:49.999Z</time>
      </trkpt>
      <trkpt lat="47.50044" lon="6.77345">
        <ele>360</ele>
        <time>2017-11-01T08:44:50.999Z</time>
      </trkpt>
      <trkpt lat="47.50043" lon="6.77341">
        <ele>360</ele>
        <time>2017-11-01T08:44:51.999Z</time>
      </trkpt>
      <trkpt lat="47.50041" lon="6.77339">
        <ele>360</ele>
        <time>2017-11-01T08:44:52.999Z</time>
      </trkpt>
      <trkpt lat="47.5004" lon="6.77335">
        <ele>359.9</ele>
        <time>2017-11-01T08:44:53.999Z</time>
      </trkpt>
      <trkpt lat="47.50038" lon="6.77331">
        <ele>359.9</ele>
        <time>2017-11-01T08:44:54.999Z</time>
      </trkpt>
      <trkpt lat="47.50037" lon="6.77327">
        <ele>359.8</ele>
        <time>2017-11-01T08:44:55.999Z</time>
      </trkpt>
      <trkpt lat="47.50035" lon="6.77321">
        <ele>359.8</ele>
        <time>2017-11-01T08:44:56.999Z</time>
      </trkpt>
      <trkpt lat="47.50033" lon="6.77315">
        <ele>359.7</ele>
        <time>2017-11-01T08:44:57.999Z</time>
      </trkpt>
      <trkpt lat="47.50032" lon="6.7731">
        <ele>359.8</ele>
        <time>2017-11-01T08:44:58.999Z</time>
      </trkpt>
      <trkpt lat="47.50031" lon="6.77304">
        <ele>359.7</ele>
        <time>2017-11-01T08:44:59.999Z</time>
      </trkpt>
      <trkpt lat="47.5003" lon="6.77299">
        <ele>359.7</ele>
        <time>2017-11-01T08:45:00.999Z</time>
      </trkpt>
      <trkpt lat="47.50029" lon="6.77294">
        <ele>359.7</ele>
        <time>2017-11-01T08:45:01.999Z</time>
      </trkpt>
      <trkpt lat="47.50028" lon="6.7729">
        <ele>359.7</ele>
        <time>2017-11-01T08:45:02.999Z</time>
      </trkpt>
      <trkpt lat="47.50027" lon="6.77285">
        <ele>359.7</ele>
        <time>2017-11-01T08:45:03.999Z</time>
      </trkpt>
      <trkpt lat="47.50026" lon="6.7728">
        <ele>359.7</ele>
        <time>2017-11-01T08:45:04.999Z</time>
      </trkpt>
      <trkpt lat="47.50025" lon="6.77276">
        <ele>359.6</ele>
        <time>2017-11-01T08:45:05.999Z</time>
      </trkpt>
      <trkpt lat="47.50024" lon="6.7727">
        <ele>359.5</ele>
        <time>2017-11-01T08:45:06.999Z</time>
      </trkpt>
      <trkpt lat="47.50023" lon="6.77265">
        <ele>359.5</ele>
        <time>2017-11-01T08:45:07.999Z</time>
      </trkpt>
      <trkpt lat="47.50022" lon="6.7726">
        <ele>359.4</ele>
        <time>2017-11-01T08:45:08.999Z</time>
      </trkpt>
      <trkpt lat="47.50021" lon="6.77254">
        <ele>359.4</ele>
        <time>2017-11-01T08:45:09.999Z</time>
      </trkpt>
      <trkpt lat="47.5002" lon="6.77249">
        <ele>359.3</ele>
        <time>2017-11-01T08:45:10.999Z</time>
      </trkpt>
      <trkpt lat="47.50019" lon="6.77245">
        <ele>359.2</ele>
        <time>2017-11-01T08:45:11.999Z</time>
      </trkpt>
      <trkpt lat="47.50018" lon="6.7724">
        <ele>359.2</ele>
        <time>2017-11-01T08:45:12.999Z</time>
      </trkpt>
      <trkpt lat="47.50018" lon="6.77236">
        <ele>359.2</ele>
        <time>2017-11-01T08:45:13.999Z</time>
      </trkpt>
      <trkpt lat="47.50016" lon="6.7723">
        <ele>359</ele>
        <time>2017-11-01T08:45:15.999Z</time>
      </trkpt>
      <trkpt lat="47.50016" lon="6.77229">
        <ele>358.8</ele>
        <time>2017-11-01T08:45:16.999Z</time>
      </trkpt>
      <trkpt lat="47.50018" lon="6.77226">
        <ele>358.9</ele>
        <time>2017-11-01T08:45:40.999Z</time>
      </trkpt>
      <trkpt lat="47.5002" lon="6.77224">
        <ele>359.1</ele>
        <time>2017-11-01T08:45:41.999Z</time>
      </trkpt>
      <trkpt lat="47.50023" lon="6.77224">
        <ele>359.3</ele>
        <time>2017-11-01T08:45:42.999Z</time>
      </trkpt>
      <trkpt lat="47.50025" lon="6.77224">
        <ele>359.4</ele>
        <time>2017-11-01T08:45:43.999Z</time>
      </trkpt>
      <trkpt lat="47.50028" lon="6.77223">
        <ele>359.5</ele>
        <time>2017-11-01T08:45:44.999Z</time>
      </trkpt>
      <trkpt lat="47.50031" lon="6.77221">
        <ele>359.6</ele>
        <time>2017-11-01T08:45:45.999Z</time>
      </trkpt>
      <trkpt lat="47.50035" lon="6.77219">
        <ele>359.7</ele>
        <time>2017-11-01T08:45:46.999Z</time>
      </trkpt>
      <trkpt lat="47.50039" lon="6.77218">
        <ele>359.9</ele>
        <time>2017-11-01T08:45:47.999Z</time>
      </trkpt>
      <trkpt lat="47.50042" lon="6.77217">
        <ele>360</ele>
        <time>2017-11-01T08:45:48.999Z</time>
      </trkpt>
      <trkpt lat="47.50046" lon="6.77217">
        <ele>360.1</ele>
        <time>2017-11-01T08:45:49.999Z</time>
      </trkpt>
      <trkpt lat="47.50049" lon="6.77216">
        <ele>360.2</ele>
        <time>2017-11-01T08:45:50.999Z</time>
      </trkpt>
      <trkpt lat="47.50052" lon="6.77215">
        <ele>360.4</ele>
        <time>2017-11-01T08:45:51.999Z</time>
      </trkpt>
      <trkpt lat="47.50056" lon="6.77213">
        <ele>360.5</ele>
        <time>2017-11-01T08:45:52.999Z</time>
      </trkpt>
      <trkpt lat="47.5006" lon="6.77213">
        <ele>362.2</ele>
        <time>2017-11-01T08:45:53.999Z</time>
      </trkpt>
      <trkpt lat="47.50065" lon="6.77212">
        <ele>363.4</ele>
        <time>2017-11-01T08:45:54.999Z</time>
      </trkpt>
      <trkpt lat="47.50069" lon="6.77212">
        <ele>364.3</ele>
        <time>2017-11-01T08:45:55.999Z</time>
      </trkpt>
      <trkpt lat="47.50073" lon="6.77211">
        <ele>365</ele>
        <time>2017-11-01T08:45:56.999Z</time>
      </trkpt>
      <trkpt lat="47.50078" lon="6.77209">
        <ele>365.4</ele>
        <time>2017-11-01T08:45:57.999Z</time>
      </trkpt>
      <trkpt lat="47.50081" lon="6.77206">
        <ele>365.4</ele>
        <time>2017-11-01T08:45:58.999Z</time>
      </trkpt>
      <trkpt lat="47.50085" lon="6.77205">
        <ele>365.4</ele>
        <time>2017-11-01T08:45:59.999Z</time>
      </trkpt>
      <trkpt lat="47.50089" lon="6.77204">
        <ele>365.4</ele>
        <time>2017-11-01T08:46:00.999Z</time>
      </trkpt>
      <trkpt lat="47.50092" lon="6.77203">
        <ele>365.3</ele>
        <time>2017-11-01T08:46:01.999Z</time>
      </trkpt>
      <trkpt lat="47.50096" lon="6.77201">
        <ele>365.2</ele>
        <time>2017-11-01T08:46:02.999Z</time>
      </trkpt>
      <trkpt lat="47.501" lon="6.772">
        <ele>365.2</ele>
        <time>2017-11-01T08:46:03.999Z</time>
      </trkpt>
      <trkpt lat="47.50102" lon="6.77199">
        <ele>365.3</ele>
        <time>2017-11-01T08:46:06.999Z</time>
      </trkpt>
      <trkpt lat="47.50104" lon="6.77198">
        <ele>365.3</ele>
        <time>2017-11-01T08:46:07.999Z</time>
      </trkpt>
      <trkpt lat="47.50108" lon="6.77197">
        <ele>365.6</ele>
        <time>2017-11-01T08:46:46.999Z</time>
      </trkpt>
      <trkpt lat="47.50109" lon="6.77198">
        <ele>365.5</ele>
        <time>2017-11-01T08:46:47.999Z</time>
      </trkpt>
      <trkpt lat="47.50113" lon="6.77199">
        <ele>365.9</ele>
        <time>2017-11-01T08:46:59.999Z</time>
      </trkpt>
      <trkpt lat="47.50116" lon="6.77201">
        <ele>365.9</ele>
        <time>2017-11-01T08:47:00.999Z</time>
      </trkpt>
      <trkpt lat="47.50119" lon="6.77201">
        <ele>366</ele>
        <time>2017-11-01T08:47:01.999Z</time>
      </trkpt>
      <trkpt lat="47.50124" lon="6.77203">
        <ele>367.7</ele>
        <time>2017-11-01T08:47:02.999Z</time>
      </trkpt>
      <trkpt lat="47.50127" lon="6.77204">
        <ele>367.5</ele>
        <time>2017-11-01T08:47:03.999Z</time>
      </trkpt>
      <trkpt lat="47.50132" lon="6.77206">
        <ele>368.1</ele>
        <time>2017-11-01T08:47:04.999Z</time>
      </trkpt>
      <trkpt lat="47.50137" lon="6.77207">
        <ele>368.6</ele>
        <time>2017-11-01T08:47:05.999Z</time>
      </trkpt>
      <trkpt lat="47.50142" lon="6.77208">
        <ele>368.8</ele>
        <time>2017-11-01T08:47:06.999Z</time>
      </trkpt>
      <trkpt lat="47.50147" lon="6.7721">
        <ele>368.6</ele>
        <time>2017-11-01T08:47:07.999Z</time>
      </trkpt>
      <trkpt lat="47.50152" lon="6.77213">
        <ele>369.4</ele>
        <time>2017-11-01T08:47:08.999Z</time>
      </trkpt>
      <trkpt lat="47.50157" lon="6.77216">
        <ele>369.2</ele>
        <time>2017-11-01T08:47:09.999Z</time>
      </trkpt>
      <trkpt lat="47.50161" lon="6.7722">
        <ele>369.4</ele>
        <time>2017-11-01T08:47:10.999Z</time>
      </trkpt>
      <trkpt lat="47.50165" lon="6.77223">
        <ele>369.4</ele>
        <time>2017-11-01T08:47:11.999Z</time>
      </trkpt>
      <trkpt lat="47.50169" lon="6.77227">
        <ele>369.3</ele>
        <time>2017-11-01T08:47:12.999Z</time>
      </trkpt>
      <trkpt lat="47.50173" lon="6.7723">
        <ele>368.8</ele>
        <time>2017-11-01T08:47:13.999Z</time>
      </trkpt>
      <trkpt lat="47.50177" lon="6.77233">
        <ele>368.5</ele>
        <time>2017-11-01T08:47:14.999Z</time>
      </trkpt>
      <trkpt lat="47.50181" lon="6.77237">
        <ele>368.8</ele>
        <time>2017-11-01T08:47:15.999Z</time>
      </trkpt>
      <trkpt lat="47.50186" lon="6.77241">
        <ele>368.4</ele>
        <time>2017-11-01T08:47:16.999Z</time>
      </trkpt>
      <trkpt lat="47.50191" lon="6.77245">
        <ele>368.3</ele>
        <time>2017-11-01T08:47:17.999Z</time>
      </trkpt>
      <trkpt lat="47.50196" lon="6.77249">
        <ele>368.2</ele>
        <time>2017-11-01T08:47:18.999Z</time>
      </trkpt>
      <trkpt lat="47.502" lon="6.77253">
        <ele>367.2</ele>
        <time>2017-11-01T08:47:19.999Z</time>
      </trkpt>
      <trkpt lat="47.50203" lon="6.77257">
        <ele>366.7</ele>
        <time>2017-11-01T08:47:20.999Z</time>
      </trkpt>
      <trkpt lat="47.50207" lon="6.77261">
        <ele>366.3</ele>
        <time>2017-11-01T08:47:21.999Z</time>
      </trkpt>
      <trkpt lat="47.50211" lon="6.77265">
        <ele>365.6</ele>
        <time>2017-11-01T08:47:22.999Z</time>
      </trkpt>
      <trkpt lat="47.50216" lon="6.77269">
        <ele>365.4</ele>
        <time>2017-11-01T08:47:23.999Z</time>
      </trkpt>
      <trkpt lat="47.50219" lon="6.77272">
        <ele>365.1</ele>
        <time>2017-11-01T08:47:24.999Z</time>
      </trkpt>
      <trkpt lat="47.50222" lon="6.77275">
        <ele>364.9</ele>
        <time>2017-11-01T08:47:25.999Z</time>
      </trkpt>
      <trkpt lat="47.50227" lon="6.77277">
        <ele>364.7</ele>
        <time>2017-11-01T08:47:26.999Z</time>
      </trkpt>
      <trkpt lat="47.5023" lon="6.7728">
        <ele>364.2</ele>
        <time>2017-11-01T08:47:27.999Z</time>
      </trkpt>
      <trkpt lat="47.50234" lon="6.77283">
        <ele>363.4</ele>
        <time>2017-11-01T08:47:28.999Z</time>
      </trkpt>
      <trkpt lat="47.50238" lon="6.77285">
        <ele>363.5</ele>
        <time>2017-11-01T08:47:29.999Z</time>
      </trkpt>
      <trkpt lat="47.50242" lon="6.77288">
        <ele>363.8</ele>
        <time>2017-11-01T08:47:30.999Z</time>
      </trkpt>
      <trkpt lat="47.50246" lon="6.7729">
        <ele>363.5</ele>
        <time>2017-11-01T08:47:31.999Z</time>
      </trkpt>
      <trkpt lat="47.50249" lon="6.77292">
        <ele>363.5</ele>
        <time>2017-11-01T08:47:32.999Z</time>
      </trkpt>
      <trkpt lat="47.50252" lon="6.77294">
        <ele>363.4</ele>
        <time>2017-11-01T08:47:33.999Z</time>
      </trkpt>
      <trkpt lat="47.50255" lon="6.77296">
        <ele>363.3</ele>
        <time>2017-11-01T08:47:34.999Z</time>
      </trkpt>
      <trkpt lat="47.50258" lon="6.77298">
        <ele>363.3</ele>
        <time>2017-11-01T08:47:35.999Z</time>
      </trkpt>
      <trkpt lat="47.50261" lon="6.77301">
        <ele>363.3</ele>
        <time>2017-11-01T08:47:36.999Z</time>
      </trkpt>
      <trkpt lat="47.50265" lon="6.77303">
        <ele>363.3</ele>
        <time>2017-11-01T08:47:38.999Z</time>
      </trkpt>
      <trkpt lat="47.50267" lon="6.77304">
        <ele>363.3</ele>
        <time>2017-11-01T08:47:39.999Z</time>
      </trkpt>
      <trkpt lat="47.5027" lon="6.77305">
        <ele>363.4</ele>
        <time>2017-11-01T08:47:40.999Z</time>
      </trkpt>
      <trkpt lat="47.50272" lon="6.77306">
        <ele>363.5</ele>
        <time>2017-11-01T08:47:41.999Z</time>
      </trkpt>
      <trkpt lat="47.50274" lon="6.77307">
        <ele>363.5</ele>
        <time>2017-11-01T08:47:42.999Z</time>
      </trkpt>
      <trkpt lat="47.50277" lon="6.77309">
        <ele>363.6</ele>
        <time>2017-11-01T08:47:43.999Z</time>
      </trkpt>
      <trkpt lat="47.5028" lon="6.77312">
        <ele>363.7</ele>
        <time>2017-11-01T08:47:44.999Z</time>
      </trkpt>
      <trkpt lat="47.50283" lon="6.77314">
        <ele>363.7</ele>
        <time>2017-11-01T08:47:45.999Z</time>
      </trkpt>
      <trkpt lat="47.50286" lon="6.77316">
        <ele>363.7</ele>
        <time>2017-11-01T08:47:46.999Z</time>
      </trkpt>
      <trkpt lat="47.50289" lon="6.77318">
        <ele>364.2</ele>
        <time>2017-11-01T08:47:47.999Z</time>
      </trkpt>
      <trkpt lat="47.50293" lon="6.7732">
        <ele>364.6</ele>
        <time>2017-11-01T08:47:48.999Z</time>
      </trkpt>
      <trkpt lat="47.50296" lon="6.77322">
        <ele>364</ele>
        <time>2017-11-01T08:47:49.999Z</time>
      </trkpt>
      <trkpt lat="47.503" lon="6.77326">
        <ele>363.2</ele>
        <time>2017-11-01T08:47:50.999Z</time>
      </trkpt>
      <trkpt lat="47.50303" lon="6.77328">
        <ele>362.1</ele>
        <time>2017-11-01T08:47:51.999Z</time>
      </trkpt>
      <trkpt lat="47.50307" lon="6.77331">
        <ele>362.2</ele>
        <time>2017-11-01T08:47:52.999Z</time>
      </trkpt>
      <trkpt lat="47.5031" lon="6.77334">
        <ele>361.7</ele>
        <time>2017-11-01T08:47:53.999Z</time>
      </trkpt>
      <trkpt lat="47.50313" lon="6.77338">
        <ele>361.7</ele>
        <time>2017-11-01T08:47:54.999Z</time>
      </trkpt>
      <trkpt lat="47.50318" lon="6.77342">
        <ele>362.1</ele>
        <time>2017-11-01T08:47:55.999Z</time>
      </trkpt>
      <trkpt lat="47.50322" lon="6.77341">
        <ele>362.5</ele>
        <time>2017-11-01T08:47:56.999Z</time>
      </trkpt>
      <trkpt lat="47.50325" lon="6.77336">
        <ele>362</ele>
        <time>2017-11-01T08:47:57.999Z</time>
      </trkpt>
      <trkpt lat="47.50327" lon="6.77329">
        <ele>361</ele>
        <time>2017-11-01T08:47:58.999Z</time>
      </trkpt>
      <trkpt lat="47.50329" lon="6.77322">
        <ele>360.6</ele>
        <time>2017-11-01T08:47:59.999Z</time>
      </trkpt>
      <trkpt lat="47.50331" lon="6.77316">
        <ele>360.6</ele>
        <time>2017-11-01T08:48:00.999Z</time>
      </trkpt>
      <trkpt lat="47.50333" lon="6.77309">
        <ele>360.5</ele>
        <time>2017-11-01T08:48:01.999Z</time>
      </trkpt>
      <trkpt lat="47.50335" lon="6.77303">
        <ele>360.3</ele>
        <time>2017-11-01T08:48:02.999Z</time>
      </trkpt>
      <trkpt lat="47.50337" lon="6.77298">
        <ele>360.1</ele>
        <time>2017-11-01T08:48:03.999Z</time>
      </trkpt>
      <trkpt lat="47.50338" lon="6.77293">
        <ele>360.1</ele>
        <time>2017-11-01T08:48:04.999Z</time>
      </trkpt>
      <trkpt lat="47.5034" lon="6.77289">
        <ele>360</ele>
        <time>2017-11-01T08:48:05.999Z</time>
      </trkpt>
      <trkpt lat="47.50342" lon="6.77284">
        <ele>359.9</ele>
        <time>2017-11-01T08:48:06.999Z</time>
      </trkpt>
      <trkpt lat="47.50342" lon="6.77279">
        <ele>359.9</ele>
        <time>2017-11-01T08:48:07.999Z</time>
      </trkpt>
      <trkpt lat="47.50343" lon="6.77275">
        <ele>359.8</ele>
        <time>2017-11-01T08:48:08.999Z</time>
      </trkpt>
      <trkpt lat="47.50342" lon="6.77273">
        <ele>359.8</ele>
        <time>2017-11-01T08:48:09.999Z</time>
      </trkpt>
      <trkpt lat="47.5034" lon="6.77269">
        <ele>359.7</ele>
        <time>2017-11-01T08:48:10.999Z</time>
      </trkpt>
      <trkpt lat="47.50337" lon="6.77265">
        <ele>359.1</ele>
        <time>2017-11-01T08:48:11.999Z</time>
      </trkpt>
      <trkpt lat="47.50335" lon="6.77262">
        <ele>358.8</ele>
        <time>2017-11-01T08:48:12.999Z</time>
      </trkpt>
      <trkpt lat="47.50333" lon="6.77258">
        <ele>358.7</ele>
        <time>2017-11-01T08:48:13.999Z</time>
      </trkpt>
      <trkpt lat="47.50331" lon="6.77254">
        <ele>358.4</ele>
        <time>2017-11-01T08:48:14.999Z</time>
      </trkpt>
      <trkpt lat="47.50328" lon="6.77249">
        <ele>357</ele>
        <time>2017-11-01T08:48:15.999Z</time>
      </trkpt>
      <trkpt lat="47.50326" lon="6.77244">
        <ele>356.4</ele>
        <time>2017-11-01T08:48:16.999Z</time>
      </trkpt>
      <trkpt lat="47.50323" lon="6.77239">
        <ele>356</ele>
        <time>2017-11-01T08:48:17.999Z</time>
      </trkpt>
      <trkpt lat="47.50321" lon="6.77233">
        <ele>355.1</ele>
        <time>2017-11-01T08:48:18.999Z</time>
      </trkpt>
      <trkpt lat="47.50318" lon="6.77227">
        <ele>354.1</ele>
        <time>2017-11-01T08:48:19.999Z</time>
      </trkpt>
      <trkpt lat="47.50316" lon="6.7722">
        <ele>352.6</ele>
        <time>2017-11-01T08:48:20.999Z</time>
      </trkpt>
      <trkpt lat="47.50313" lon="6.77215">
        <ele>351.5</ele>
        <time>2017-11-01T08:48:21.999Z</time>
      </trkpt>
      <trkpt lat="47.50311" lon="6.77208">
        <ele>350.7</ele>
        <time>2017-11-01T08:48:22.999Z</time>
      </trkpt>
      <trkpt lat="47.50309" lon="6.77201">
        <ele>350.4</ele>
        <time>2017-11-01T08:48:23.999Z</time>
      </trkpt>
      <trkpt lat="47.50306" lon="6.77194">
        <ele>350.4</ele>
        <time>2017-11-01T08:48:24.999Z</time>
      </trkpt>
      <trkpt lat="47.50303" lon="6.77188">
        <ele>351</ele>
        <time>2017-11-01T08:48:25.999Z</time>
      </trkpt>
      <trkpt lat="47.50301" lon="6.77183">
        <ele>351.8</ele>
        <time>2017-11-01T08:48:26.999Z</time>
      </trkpt>
      <trkpt lat="47.50298" lon="6.77176">
        <ele>351.9</ele>
        <time>2017-11-01T08:48:27.999Z</time>
      </trkpt>
      <trkpt lat="47.50298" lon="6.77169">
        <ele>351.9</ele>
        <time>2017-11-01T08:48:28.999Z</time>
      </trkpt>
      <trkpt lat="47.50298" lon="6.7716">
        <ele>352.1</ele>
        <time>2017-11-01T08:48:29.999Z</time>
      </trkpt>
      <trkpt lat="47.50296" lon="6.77153">
        <ele>352</ele>
        <time>2017-11-01T08:48:30.999Z</time>
      </trkpt>
      <trkpt lat="47.50293" lon="6.77146">
        <ele>351.1</ele>
        <time>2017-11-01T08:48:31.999Z</time>
      </trkpt>
      <trkpt lat="47.50292" lon="6.7714">
        <ele>351</ele>
        <time>2017-11-01T08:48:32.999Z</time>
      </trkpt>
      <trkpt lat="47.50291" lon="6.77133">
        <ele>350.8</ele>
        <time>2017-11-01T08:48:33.999Z</time>
      </trkpt>
      <trkpt lat="47.5029" lon="6.77126">
        <ele>351.3</ele>
        <time>2017-11-01T08:48:34.999Z</time>
      </trkpt>
      <trkpt lat="47.5029" lon="6.77118">
        <ele>351.5</ele>
        <time>2017-11-01T08:48:35.999Z</time>
      </trkpt>
      <trkpt lat="47.50289" lon="6.77112">
        <ele>351.7</ele>
        <time>2017-11-01T08:48:36.999Z</time>
      </trkpt>
      <trkpt lat="47.50289" lon="6.77106">
        <ele>351.7</ele>
        <time>2017-11-01T08:48:37.999Z</time>
      </trkpt>
      <trkpt lat="47.50287" lon="6.77102">
        <ele>351.8</ele>
        <time>2017-11-01T08:48:38.999Z</time>
      </trkpt>
      <trkpt lat="47.50283" lon="6.77097">
        <ele>351.8</ele>
        <time>2017-11-01T08:48:39.999Z</time>
      </trkpt>
      <trkpt lat="47.50279" lon="6.77094">
        <ele>351.7</ele>
        <time>2017-11-01T08:48:40.999Z</time>
      </trkpt>
      <trkpt lat="47.50276" lon="6.77092">
        <ele>351.9</ele>
        <time>2017-11-01T08:48:41.999Z</time>
      </trkpt>
      <trkpt lat="47.50273" lon="6.77093">
        <ele>352.5</ele>
        <time>2017-11-01T08:48:42.999Z</time>
      </trkpt>
      <trkpt lat="47.5027" lon="6.77094">
        <ele>352.6</ele>
        <time>2017-11-01T08:48:43.999Z</time>
      </trkpt>
      <trkpt lat="47.50267" lon="6.77094">
        <ele>352.6</ele>
        <time>2017-11-01T08:48:44.999Z</time>
      </trkpt>
      <trkpt lat="47.50265" lon="6.77094">
        <ele>352.6</ele>
        <time>2017-11-01T08:48:45.999Z</time>
      </trkpt>
      <trkpt lat="47.50261" lon="6.77094">
        <ele>352.7</ele>
        <time>2017-11-01T08:48:46.999Z</time>
      </trkpt>
      <trkpt lat="47.50258" lon="6.77094">
        <ele>352.7</ele>
        <time>2017-11-01T08:48:47.999Z</time>
      </trkpt>
      <trkpt lat="47.50254" lon="6.77096">
        <ele>353.1</ele>
        <time>2017-11-01T08:48:50.999Z</time>
      </trkpt>
      <trkpt lat="47.50252" lon="6.77097">
        <ele>353.4</ele>
        <time>2017-11-01T08:48:51.999Z</time>
      </trkpt>
      <trkpt lat="47.5025" lon="6.771">
        <ele>354</ele>
        <time>2017-11-01T08:48:53.999Z</time>
      </trkpt>
      <trkpt lat="47.50248" lon="6.771">
        <ele>354.4</ele>
        <time>2017-11-01T08:48:54.999Z</time>
      </trkpt>
      <trkpt lat="47.50244" lon="6.77102">
        <ele>355</ele>
        <time>2017-11-01T08:48:56.999Z</time>
      </trkpt>
      <trkpt lat="47.50242" lon="6.77104">
        <ele>355.4</ele>
        <time>2017-11-01T08:48:57.999Z</time>
      </trkpt>
      <trkpt lat="47.50238" lon="6.77105">
        <ele>356.5</ele>
        <time>2017-11-01T08:49:00.999Z</time>
      </trkpt>
      <trkpt lat="47.50237" lon="6.77105">
        <ele>356.9</ele>
        <time>2017-11-01T08:49:01.999Z</time>
      </trkpt>
      <trkpt lat="47.50236" lon="6.77104">
        <ele>357.3</ele>
        <time>2017-11-01T08:49:02.999Z</time>
      </trkpt>
      <trkpt lat="47.50233" lon="6.77101">
        <ele>357.6</ele>
        <time>2017-11-01T08:49:03.999Z</time>
      </trkpt>
      <trkpt lat="47.50229" lon="6.77105">
        <ele>367.1</ele>
        <time>2017-11-01T08:49:44.999Z</time>
      </trkpt>
      <trkpt lat="47.50229" lon="6.77105">
        <ele>367</ele>
        <time>2017-11-01T08:49:45.999Z</time>
      </trkpt>
      <trkpt lat="47.50225" lon="6.77101">
        <ele>369.2</ele>
        <time>2017-11-01T08:50:09.999Z</time>
      </trkpt>
      <trkpt lat="47.50222" lon="6.77101">
        <ele>369.6</ele>
        <time>2017-11-01T08:50:10.999Z</time>
      </trkpt>
      <trkpt lat="47.5022" lon="6.77096">
        <ele>376</ele>
        <time>2017-11-01T08:50:39.999Z</time>
      </trkpt>
      <trkpt lat="47.5022" lon="6.77095">
        <ele>376.3</ele>
        <time>2017-11-01T08:50:40.999Z</time>
      </trkpt>
      <trkpt lat="47.50219" lon="6.77089">
        <ele>377.5</ele>
        <time>2017-11-01T08:50:57.999Z</time>
      </trkpt>
      <trkpt lat="47.5022" lon="6.77088">
        <ele>377.8</ele>
        <time>2017-11-01T08:50:58.999Z</time>
      </trkpt>
      <trkpt lat="47.50217" lon="6.77083">
        <ele>381</ele>
        <time>2017-11-01T08:51:56.000Z</time>
      </trkpt>
      <trkpt lat="47.50217" lon="6.77083">
        <ele>381</ele>
        <time>2017-11-01T08:51:57.000Z</time>
      </trkpt>
      <trkpt lat="47.50214" lon="6.77078">
        <ele>381.9</ele>
        <time>2017-11-01T08:52:27.000Z</time>
      </trkpt>
      <trkpt lat="47.50215" lon="6.77077">
        <ele>382</ele>
        <time>2017-11-01T08:52:28.000Z</time>
      </trkpt>
      <trkpt lat="47.50215" lon="6.7707">
        <ele>383.1</ele>
        <time>2017-11-01T08:52:36.000Z</time>
      </trkpt>
      <trkpt lat="47.50215" lon="6.77069">
        <ele>383.3</ele>
        <time>2017-11-01T08:52:37.000Z</time>
      </trkpt>
      <trkpt lat="47.50215" lon="6.77064">
        <ele>383.4</ele>
        <time>2017-11-01T08:52:43.000Z</time>
      </trkpt>
      <trkpt lat="47.50214" lon="6.77062">
        <ele>383.2</ele>
        <time>2017-11-01T08:52:44.000Z</time>
      </trkpt>
      <trkpt lat="47.50215" lon="6.77059">
        <ele>383.5</ele>
        <time>2017-11-01T08:52:49.000Z</time>
      </trkpt>
      <trkpt lat="47.50215" lon="6.77054">
        <ele>383.7</ele>
        <time>2017-11-01T08:52:50.000Z</time>
      </trkpt>
      <trkpt lat="47.50217" lon="6.77048">
        <ele>385.1</ele>
        <time>2017-11-01T08:52:55.000Z</time>
      </trkpt>
      <trkpt lat="47.50217" lon="6.77047">
        <ele>385.6</ele>
        <time>2017-11-01T08:52:56.000Z</time>
      </trkpt>
      <trkpt lat="47.50216" lon="6.77041">
        <ele>390.1</ele>
        <time>2017-11-01T08:53:10.000Z</time>
      </trkpt>
      <trkpt lat="47.50216" lon="6.7704">
        <ele>390.5</ele>
        <time>2017-11-01T08:53:11.000Z</time>
      </trkpt>
      <trkpt lat="47.50212" lon="6.77042">
        <ele>392.4</ele>
        <time>2017-11-01T08:53:28.000Z</time>
      </trkpt>
      <trkpt lat="47.50211" lon="6.77042">
        <ele>392.6</ele>
        <time>2017-11-01T08:53:29.000Z</time>
      </trkpt>
      <trkpt lat="47.50206" lon="6.77041">
        <ele>394.7</ele>
        <time>2017-11-01T08:54:02.000Z</time>
      </trkpt>
      <trkpt lat="47.50206" lon="6.77043">
        <ele>394.8</ele>
        <time>2017-11-01T08:54:03.000Z</time>
      </trkpt>
      <trkpt lat="47.50204" lon="6.77048">
        <ele>397.1</ele>
        <time>2017-11-01T08:54:19.000Z</time>
      </trkpt>
      <trkpt lat="47.50203" lon="6.7705">
        <ele>397.3</ele>
        <time>2017-11-01T08:54:20.000Z</time>
      </trkpt>
      <trkpt lat="47.50201" lon="6.77053">
        <ele>398.1</ele>
        <time>2017-11-01T08:54:46.000Z</time>
      </trkpt>
      <trkpt lat="47.50201" lon="6.77057">
        <ele>398.3</ele>
        <time>2017-11-01T08:54:47.000Z</time>
      </trkpt>
      <trkpt lat="47.50204" lon="6.77062">
        <ele>399</ele>
        <time>2017-11-01T08:54:53.000Z</time>
      </trkpt>
      <trkpt lat="47.50203" lon="6.77065">
        <ele>399.1</ele>
        <time>2017-11-01T08:54:54.000Z</time>
      </trkpt>
      <trkpt lat="47.50202" lon="6.77067">
        <ele>399.2</ele>
        <time>2017-11-01T08:54:55.000Z</time>
      </trkpt>
      <trkpt lat="47.502" lon="6.77072">
        <ele>399.4</ele>
        <time>2017-11-01T08:54:56.000Z</time>
      </trkpt>
      <trkpt lat="47.50199" lon="6.77078">
        <ele>399.6</ele>
        <time>2017-11-01T08:54:59.000Z</time>
      </trkpt>
      <trkpt lat="47.50198" lon="6.77079">
        <ele>399.8</ele>
        <time>2017-11-01T08:55:00.000Z</time>
      </trkpt>
      <trkpt lat="47.50196" lon="6.77083">
        <ele>400.4</ele>
        <time>2017-11-01T08:55:08.000Z</time>
      </trkpt>
      <trkpt lat="47.50195" lon="6.77085">
        <ele>400.4</ele>
        <time>2017-11-01T08:55:09.000Z</time>
      </trkpt>
      <trkpt lat="47.50191" lon="6.77084">
        <ele>401.4</ele>
        <time>2017-11-01T08:55:25.000Z</time>
      </trkpt>
      <trkpt lat="47.5019" lon="6.77085">
        <ele>401.5</ele>
        <time>2017-11-01T08:55:26.000Z</time>
      </trkpt>
      <trkpt lat="47.50186" lon="6.77086">
        <ele>405.1</ele>
        <time>2017-11-01T08:56:04.000Z</time>
      </trkpt>
      <trkpt lat="47.50185" lon="6.7709">
        <ele>405.3</ele>
        <time>2017-11-01T08:56:05.000Z</time>
      </trkpt>
      <trkpt lat="47.50186" lon="6.77084">
        <ele>409.2</ele>
        <time>2017-11-01T08:57:09.000Z</time>
      </trkpt>
      <trkpt lat="47.50186" lon="6.77081">
        <ele>409.2</ele>
        <time>2017-11-01T08:57:10.000Z</time>
      </trkpt>
      <trkpt lat="47.50186" lon="6.77076">
        <ele>409.1</ele>
        <time>2017-11-01T08:57:12.000Z</time>
      </trkpt>
      <trkpt lat="47.50186" lon="6.77073">
        <ele>409</ele>
        <time>2017-11-01T08:57:13.000Z</time>
      </trkpt>
      <trkpt lat="47.50187" lon="6.7707">
        <ele>409</ele>
        <time>2017-11-01T08:57:14.000Z</time>
      </trkpt>
      <trkpt lat="47.50186" lon="6.77065">
        <ele>408.9</ele>
        <time>2017-11-01T08:57:15.000Z</time>
      </trkpt>
      <trkpt lat="47.50186" lon="6.77061">
        <ele>408.9</ele>
        <time>2017-11-01T08:57:16.000Z</time>
      </trkpt>
      <trkpt lat="47.50185" lon="6.77057">
        <ele>408.9</ele>
        <time>2017-11-01T08:57:17.000Z</time>
      </trkpt>
      <trkpt lat="47.50185" lon="6.77052">
        <ele>408.7</ele>
        <time>2017-11-01T08:57:19.000Z</time>
      </trkpt>
      <trkpt lat="47.50183" lon="6.7705">
        <ele>408.7</ele>
        <time>2017-11-01T08:57:20.000Z</time>
      </trkpt>
      <trkpt lat="47.50181" lon="6.77046">
        <ele>408.7</ele>
        <time>2017-11-01T08:57:22.000Z</time>
      </trkpt>
      <trkpt lat="47.50181" lon="6.77043">
        <ele>408.7</ele>
        <time>2017-11-01T08:57:23.000Z</time>
      </trkpt>
      <trkpt lat="47.50179" lon="6.77038">
        <ele>408.7</ele>
        <time>2017-11-01T08:57:26.000Z</time>
      </trkpt>
      <trkpt lat="47.50179" lon="6.77037">
        <ele>408.7</ele>
        <time>2017-11-01T08:57:27.000Z</time>
      </trkpt>
      <trkpt lat="47.50178" lon="6.77032">
        <ele>409</ele>
        <time>2017-11-01T08:57:30.000Z</time>
      </trkpt>
      <trkpt lat="47.50177" lon="6.7703">
        <ele>409.1</ele>
        <time>2017-11-01T08:57:31.000Z</time>
      </trkpt>
      <trkpt lat="47.50176" lon="6.77025">
        <ele>409.4</ele>
        <time>2017-11-01T08:57:33.000Z</time>
      </trkpt>
      <trkpt lat="47.50176" lon="6.77023">
        <ele>409.5</ele>
        <time>2017-11-01T08:57:34.000Z</time>
      </trkpt>
      <trkpt lat="47.50175" lon="6.77017">
        <ele>411.4</ele>
        <time>2017-11-01T08:57:47.000Z</time>
      </trkpt>
      <trkpt lat="47.50173" lon="6.77012">
        <ele>411.5</ele>
        <time>2017-11-01T08:57:48.000Z</time>
      </trkpt>
      <trkpt lat="47.50171" lon="6.77007">
        <ele>412.5</ele>
        <time>2017-11-01T08:57:52.000Z</time>
      </trkpt>
      <trkpt lat="47.5017" lon="6.77005">
        <ele>412.7</ele>
        <time>2017-11-01T08:57:53.000Z</time>
      </trkpt>
      <trkpt lat="47.50169" lon="6.76999">
        <ele>412.9</ele>
        <time>2017-11-01T08:57:55.000Z</time>
      </trkpt>
      <trkpt lat="47.50169" lon="6.76998">
        <ele>413.1</ele>
        <time>2017-11-01T08:57:56.000Z</time>
      </trkpt>
      <trkpt lat="47.50169" lon="6.76993">
        <ele>414.4</ele>
        <time>2017-11-01T08:58:05.000Z</time>
      </trkpt>
      <trkpt lat="47.5017" lon="6.76988">
        <ele>414.7</ele>
        <time>2017-11-01T08:58:06.000Z</time>
      </trkpt>
      <trkpt lat="47.50171" lon="6.76983">
        <ele>414.9</ele>
        <time>2017-11-01T08:58:07.000Z</time>
      </trkpt>
      <trkpt lat="47.5017" lon="6.76978">
        <ele>415.1</ele>
        <time>2017-11-01T08:58:08.000Z</time>
      </trkpt>
      <trkpt lat="47.50171" lon="6.76976">
        <ele>416</ele>
        <time>2017-11-01T08:58:14.000Z</time>
      </trkpt>
      <trkpt lat="47.50172" lon="6.76971">
        <ele>416.3</ele>
        <time>2017-11-01T08:58:15.000Z</time>
      </trkpt>
      <trkpt lat="47.50175" lon="6.76968">
        <ele>420.7</ele>
        <time>2017-11-01T08:58:39.000Z</time>
      </trkpt>
      <trkpt lat="47.50176" lon="6.76967">
        <ele>420.9</ele>
        <time>2017-11-01T08:58:40.000Z</time>
      </trkpt>
      <trkpt lat="47.50178" lon="6.76965">
        <ele>424.1</ele>
        <time>2017-11-01T08:58:51.000Z</time>
      </trkpt>
      <trkpt lat="47.50179" lon="6.76963">
        <ele>424.3</ele>
        <time>2017-11-01T08:58:52.000Z</time>
      </trkpt>
      <trkpt lat="47.50183" lon="6.76964">
        <ele>426.8</ele>
        <time>2017-11-01T08:58:59.000Z</time>
      </trkpt>
      <trkpt lat="47.50184" lon="6.76964">
        <ele>427.2</ele>
        <time>2017-11-01T08:59:00.000Z</time>
      </trkpt>
      <trkpt lat="47.50187" lon="6.76959">
        <ele>429.1</ele>
        <time>2017-11-01T08:59:07.000Z</time>
      </trkpt>
      <trkpt lat="47.50187" lon="6.76959">
        <ele>429.3</ele>
        <time>2017-11-01T08:59:08.000Z</time>
      </trkpt>
      <trkpt lat="47.50191" lon="6.7696">
        <ele>433.2</ele>
        <time>2017-11-01T08:59:34.000Z</time>
      </trkpt>
      <trkpt lat="47.50192" lon="6.76959">
        <ele>433.3</ele>
        <time>2017-11-01T08:59:35.000Z</time>
      </trkpt>
      <trkpt lat="47.50195" lon="6.76956">
        <ele>433.2</ele>
        <time>2017-11-01T08:59:45.000Z</time>
      </trkpt>
      <trkpt lat="47.50196" lon="6.76956">
        <ele>433.2</ele>
        <time>2017-11-01T08:59:46.000Z</time>
      </trkpt>
      <trkpt lat="47.502" lon="6.76954">
        <ele>434.5</ele>
        <time>2017-11-01T09:00:00.000Z</time>
      </trkpt>
      <trkpt lat="47.502" lon="6.76953">
        <ele>434.6</ele>
        <time>2017-11-01T09:00:01.000Z</time>
      </trkpt>
      <trkpt lat="47.502" lon="6.76947">
        <ele>434.6</ele>
        <time>2017-11-01T09:00:05.000Z</time>
      </trkpt>
      <trkpt lat="47.502" lon="6.76945">
        <ele>434.5</ele>
        <time>2017-11-01T09:00:06.000Z</time>
      </trkpt>
      <trkpt lat="47.502" lon="6.7694">
        <ele>433.8</ele>
        <time>2017-11-01T09:00:11.000Z</time>
      </trkpt>
      <trkpt lat="47.50199" lon="6.76938">
        <ele>433.6</ele>
        <time>2017-11-01T09:00:12.000Z</time>
      </trkpt>
      <trkpt lat="47.50196" lon="6.76934">
        <ele>433.1</ele>
        <time>2017-11-01T09:00:18.000Z</time>
      </trkpt>
      <trkpt lat="47.50196" lon="6.76933">
        <ele>433.1</ele>
        <time>2017-11-01T09:00:19.000Z</time>
      </trkpt>
      <trkpt lat="47.50194" lon="6.76929">
        <ele>432.8</ele>
        <time>2017-11-01T09:00:22.000Z</time>
      </trkpt>
      <trkpt lat="47.50193" lon="6.76926">
        <ele>432.8</ele>
        <time>2017-11-01T09:00:23.000Z</time>
      </trkpt>
      <trkpt lat="47.50192" lon="6.7692">
        <ele>433.3</ele>
        <time>2017-11-01T09:00:29.000Z</time>
      </trkpt>
      <trkpt lat="47.50192" lon="6.76919">
        <ele>433.3</ele>
        <time>2017-11-01T09:00:30.000Z</time>
      </trkpt>
      <trkpt lat="47.50193" lon="6.76914">
        <ele>433.6</ele>
        <time>2017-11-01T09:00:40.000Z</time>
      </trkpt>
      <trkpt lat="47.50193" lon="6.76913">
        <ele>433.6</ele>
        <time>2017-11-01T09:00:41.000Z</time>
      </trkpt>
      <trkpt lat="47.50195" lon="6.76909">
        <ele>434.4</ele>
        <time>2017-11-01T09:00:53.000Z</time>
      </trkpt>
      <trkpt lat="47.50196" lon="6.76908">
        <ele>434.5</ele>
        <time>2017-11-01T09:00:54.000Z</time>
      </trkpt>
      <trkpt lat="47.50198" lon="6.76902">
        <ele>435.3</ele>
        <time>2017-11-01T09:01:01.000Z</time>
      </trkpt>
      <trkpt lat="47.50198" lon="6.76901">
        <ele>435.5</ele>
        <time>2017-11-01T09:01:02.000Z</time>
      </trkpt>
      <trkpt lat="47.50199" lon="6.76895">
        <ele>436.8</ele>
        <time>2017-11-01T09:01:07.000Z</time>
      </trkpt>
      <trkpt lat="47.50198" lon="6.76893">
        <ele>437</ele>
        <time>2017-11-01T09:01:08.000Z</time>
      </trkpt>
      <trkpt lat="47.50198" lon="6.76887">
        <ele>438.7</ele>
        <time>2017-11-01T09:01:16.000Z</time>
      </trkpt>
      <trkpt lat="47.50198" lon="6.76886">
        <ele>439</ele>
        <time>2017-11-01T09:01:17.000Z</time>
      </trkpt>
      <trkpt lat="47.50198" lon="6.7688">
        <ele>440.6</ele>
        <time>2017-11-01T09:01:26.000Z</time>
      </trkpt>
      <trkpt lat="47.50198" lon="6.76879">
        <ele>440.7</ele>
        <time>2017-11-01T09:01:27.000Z</time>
      </trkpt>
      <trkpt lat="47.50195" lon="6.76875">
        <ele>441.7</ele>
        <time>2017-11-01T09:01:35.000Z</time>
      </trkpt>
      <trkpt lat="47.50194" lon="6.76871">
        <ele>441.8</ele>
        <time>2017-11-01T09:01:36.000Z</time>
      </trkpt>
      <trkpt lat="47.50191" lon="6.76867">
        <ele>442.5</ele>
        <time>2017-11-01T09:01:42.000Z</time>
      </trkpt>
      <trkpt lat="47.5019" lon="6.76866">
        <ele>442.7</ele>
        <time>2017-11-01T09:01:43.000Z</time>
      </trkpt>
      <trkpt lat="47.50188" lon="6.76861">
        <ele>443.8</ele>
        <time>2017-11-01T09:01:50.000Z</time>
      </trkpt>
      <trkpt lat="47.50187" lon="6.76861">
        <ele>444</ele>
        <time>2017-11-01T09:01:51.000Z</time>
      </trkpt>
      <trkpt lat="47.50185" lon="6.76855">
        <ele>444.6</ele>
        <time>2017-11-01T09:01:55.000Z</time>
      </trkpt>
      <trkpt lat="47.50184" lon="6.76855">
        <ele>444.7</ele>
        <time>2017-11-01T09:01:56.000Z</time>
      </trkpt>
      <trkpt lat="47.5018" lon="6.76854">
        <ele>444.9</ele>
        <time>2017-11-01T09:01:59.000Z</time>
      </trkpt>
      <trkpt lat="47.5018" lon="6.76852">
        <ele>445.1</ele>
        <time>2017-11-01T09:02:00.000Z</time>
      </trkpt>
      <trkpt lat="47.50178" lon="6.76847">
        <ele>445.5</ele>
        <time>2017-11-01T09:02:06.000Z</time>
      </trkpt>
      <trkpt lat="47.50177" lon="6.76847">
        <ele>445.6</ele>
        <time>2017-11-01T09:02:07.000Z</time>
      </trkpt>
      <trkpt lat="47.50176" lon="6.76853">
        <ele>447</ele>
        <time>2017-11-01T09:02:16.000Z</time>
      </trkpt>
      <trkpt lat="47.50177" lon="6.76854">
        <ele>447.1</ele>
        <time>2017-11-01T09:02:17.000Z</time>
      </trkpt>
      <trkpt lat="47.50181" lon="6.76856">
        <ele>447.1</ele>
        <time>2017-11-01T09:02:20.000Z</time>
      </trkpt>
      <trkpt lat="47.50182" lon="6.76855">
        <ele>447.1</ele>
        <time>2017-11-01T09:02:21.000Z</time>
      </trkpt>
      <trkpt lat="47.50185" lon="6.76851">
        <ele>447</ele>
        <time>2017-11-01T09:02:25.000Z</time>
      </trkpt>
      <trkpt lat="47.50186" lon="6.7685">
        <ele>447.1</ele>
        <time>2017-11-01T09:02:26.000Z</time>
      </trkpt>
      <trkpt lat="47.50188" lon="6.76846">
        <ele>447.3</ele>
        <time>2017-11-01T09:02:28.000Z</time>
      </trkpt>
      <trkpt lat="47.50189" lon="6.76844">
        <ele>447.3</ele>
        <time>2017-11-01T09:02:29.000Z</time>
      </trkpt>
      <trkpt lat="47.50193" lon="6.76842">
        <ele>447.4</ele>
        <time>2017-11-01T09:02:31.000Z</time>
      </trkpt>
      <trkpt lat="47.50195" lon="6.7684">
        <ele>447.4</ele>
        <time>2017-11-01T09:02:32.000Z</time>
      </trkpt>
      <trkpt lat="47.50198" lon="6.76839">
        <ele>447.5</ele>
        <time>2017-11-01T09:02:34.000Z</time>
      </trkpt>
      <trkpt lat="47.502" lon="6.76837">
        <ele>447.6</ele>
        <time>2017-11-01T09:02:35.000Z</time>
      </trkpt>
      <trkpt lat="47.50203" lon="6.76835">
        <ele>447.6</ele>
        <time>2017-11-01T09:02:37.000Z</time>
      </trkpt>
      <trkpt lat="47.50204" lon="6.76833">
        <ele>447.5</ele>
        <time>2017-11-01T09:02:38.000Z</time>
      </trkpt>
      <trkpt lat="47.50207" lon="6.7683">
        <ele>447.5</ele>
        <time>2017-11-01T09:02:42.000Z</time>
      </trkpt>
      <trkpt lat="47.50209" lon="6.76828">
        <ele>447.5</ele>
        <time>2017-11-01T09:02:43.000Z</time>
      </trkpt>
      <trkpt lat="47.50212" lon="6.76825">
        <ele>447.5</ele>
        <time>2017-11-01T09:02:45.000Z</time>
      </trkpt>
      <trkpt lat="47.50213" lon="6.76824">
        <ele>447.4</ele>
        <time>2017-11-01T09:02:46.000Z</time>
      </trkpt>
      <trkpt lat="47.50216" lon="6.7682">
        <ele>447.2</ele>
        <time>2017-11-01T09:02:48.000Z</time>
      </trkpt>
      <trkpt lat="47.50218" lon="6.76819">
        <ele>447.1</ele>
        <time>2017-11-01T09:02:49.000Z</time>
      </trkpt>
      <trkpt lat="47.5022" lon="6.76817">
        <ele>447</ele>
        <time>2017-11-01T09:02:50.000Z</time>
      </trkpt>
      <trkpt lat="47.50223" lon="6.76816">
        <ele>446.9</ele>
        <time>2017-11-01T09:02:51.000Z</time>
      </trkpt>
      <trkpt lat="47.50225" lon="6.76815">
        <ele>446.9</ele>
        <time>2017-11-01T09:02:52.000Z</time>
      </trkpt>
      <trkpt lat="47.50228" lon="6.76814">
        <ele>446.8</ele>
        <time>2017-11-01T09:02:53.000Z</time>
      </trkpt>
      <trkpt lat="47.50231" lon="6.76812">
        <ele>446.7</ele>
        <time>2017-11-01T09:02:54.000Z</time>
      </trkpt>
      <trkpt lat="47.50233" lon="6.7681">
        <ele>446.6</ele>
        <time>2017-11-01T09:02:55.000Z</time>
      </trkpt>
      <trkpt lat="47.50236" lon="6.76809">
        <ele>446.5</ele>
        <time>2017-11-01T09:02:56.000Z</time>
      </trkpt>
      <trkpt lat="47.50238" lon="6.76808">
        <ele>446.5</ele>
        <time>2017-11-01T09:02:57.000Z</time>
      </trkpt>
      <trkpt lat="47.50241" lon="6.76806">
        <ele>446.4</ele>
        <time>2017-11-01T09:02:58.000Z</time>
      </trkpt>
      <trkpt lat="47.50244" lon="6.76804">
        <ele>446.4</ele>
        <time>2017-11-01T09:02:59.000Z</time>
      </trkpt>
      <trkpt lat="47.50246" lon="6.76799">
        <ele>446.3</ele>
        <time>2017-11-01T09:03:01.000Z</time>
      </trkpt>
      <trkpt lat="47.50247" lon="6.76795">
        <ele>446.3</ele>
        <time>2017-11-01T09:03:02.000Z</time>
      </trkpt>
      <trkpt lat="47.50247" lon="6.76791">
        <ele>446.2</ele>
        <time>2017-11-01T09:03:03.000Z</time>
      </trkpt>
      <trkpt lat="47.50247" lon="6.76787">
        <ele>446.2</ele>
        <time>2017-11-01T09:03:04.000Z</time>
      </trkpt>
      <trkpt lat="47.50246" lon="6.76781">
        <ele>446.2</ele>
        <time>2017-11-01T09:03:06.000Z</time>
      </trkpt>
      <trkpt lat="47.50245" lon="6.76778">
        <ele>446.2</ele>
        <time>2017-11-01T09:03:07.000Z</time>
      </trkpt>
      <trkpt lat="47.50243" lon="6.76772">
        <ele>446.2</ele>
        <time>2017-11-01T09:03:09.000Z</time>
      </trkpt>
      <trkpt lat="47.50243" lon="6.76769">
        <ele>446.2</ele>
        <time>2017-11-01T09:03:10.000Z</time>
      </trkpt>
      <trkpt lat="47.50243" lon="6.76765">
        <ele>446.3</ele>
        <time>2017-11-01T09:03:11.000Z</time>
      </trkpt>
      <trkpt lat="47.50244" lon="6.76762">
        <ele>446.4</ele>
        <time>2017-11-01T09:03:12.000Z</time>
      </trkpt>
      <trkpt lat="47.50244" lon="6.76758">
        <ele>446.6</ele>
        <time>2017-11-01T09:03:13.000Z</time>
      </trkpt>
      <trkpt lat="47.50245" lon="6.76755">
        <ele>446.7</ele>
        <time>2017-11-01T09:03:14.000Z</time>
      </trkpt>
      <trkpt lat="47.50245" lon="6.76752">
        <ele>446.8</ele>
        <time>2017-11-01T09:03:15.000Z</time>
      </trkpt>
      <trkpt lat="47.50245" lon="6.76748">
        <ele>446.8</ele>
        <time>2017-11-01T09:03:16.000Z</time>
      </trkpt>
      <trkpt lat="47.50245" lon="6.76742">
        <ele>446.8</ele>
        <time>2017-11-01T09:03:18.000Z</time>
      </trkpt>
      <trkpt lat="47.50244" lon="6.76739">
        <ele>446.9</ele>
        <time>2017-11-01T09:03:19.000Z</time>
      </trkpt>
      <trkpt lat="47.50242" lon="6.76735">
        <ele>446.9</ele>
        <time>2017-11-01T09:03:21.000Z</time>
      </trkpt>
      <trkpt lat="47.50241" lon="6.76733">
        <ele>446.9</ele>
        <time>2017-11-01T09:03:22.000Z</time>
      </trkpt>
      <trkpt lat="47.50239" lon="6.76729">
        <ele>446.9</ele>
        <time>2017-11-01T09:03:23.000Z</time>
      </trkpt>
      <trkpt lat="47.50238" lon="6.76725">
        <ele>446.8</ele>
        <time>2017-11-01T09:03:24.000Z</time>
      </trkpt>
      <trkpt lat="47.50236" lon="6.76722">
        <ele>446.7</ele>
        <time>2017-11-01T09:03:25.000Z</time>
      </trkpt>
      <trkpt lat="47.50235" lon="6.76719">
        <ele>446.7</ele>
        <time>2017-11-01T09:03:26.000Z</time>
      </trkpt>
      <trkpt lat="47.50234" lon="6.76716">
        <ele>446.7</ele>
        <time>2017-11-01T09:03:27.000Z</time>
      </trkpt>
      <trkpt lat="47.50233" lon="6.76713">
        <ele>446.6</ele>
        <time>2017-11-01T09:03:28.000Z</time>
      </trkpt>
      <trkpt lat="47.50231" lon="6.76709">
        <ele>446.6</ele>
        <time>2017-11-01T09:03:29.000Z</time>
      </trkpt>
      <trkpt lat="47.50229" lon="6.76705">
        <ele>446.6</ele>
        <time>2017-11-01T09:03:30.000Z</time>
      </trkpt>
      <trkpt lat="47.50228" lon="6.76701">
        <ele>446.6</ele>
        <time>2017-11-01T09:03:31.000Z</time>
      </trkpt>
      <trkpt lat="47.50226" lon="6.76695">
        <ele>446.6</ele>
        <time>2017-11-01T09:03:32.000Z</time>
      </trkpt>
      <trkpt lat="47.50224" lon="6.7669">
        <ele>446.6</ele>
        <time>2017-11-01T09:03:33.000Z</time>
      </trkpt>
      <trkpt lat="47.50222" lon="6.76685">
        <ele>446.6</ele>
        <time>2017-11-01T09:03:34.000Z</time>
      </trkpt>
      <trkpt lat="47.5022" lon="6.7668">
        <ele>446.6</ele>
        <time>2017-11-01T09:03:35.000Z</time>
      </trkpt>
      <trkpt lat="47.50219" lon="6.76675">
        <ele>446.6</ele>
        <time>2017-11-01T09:03:36.000Z</time>
      </trkpt>
      <trkpt lat="47.50218" lon="6.7667">
        <ele>446.6</ele>
        <time>2017-11-01T09:03:37.000Z</time>
      </trkpt>
      <trkpt lat="47.50216" lon="6.76666">
        <ele>446.6</ele>
        <time>2017-11-01T09:03:38.000Z</time>
      </trkpt>
      <trkpt lat="47.50215" lon="6.76661">
        <ele>446.6</ele>
        <time>2017-11-01T09:03:39.000Z</time>
      </trkpt>
      <trkpt lat="47.50214" lon="6.76659">
        <ele>446.5</ele>
        <time>2017-11-01T09:03:40.000Z</time>
      </trkpt>
      <trkpt lat="47.50213" lon="6.76655">
        <ele>446.5</ele>
        <time>2017-11-01T09:03:41.000Z</time>
      </trkpt>
      <trkpt lat="47.50212" lon="6.7665">
        <ele>446.5</ele>
        <time>2017-11-01T09:03:42.000Z</time>
      </trkpt>
      <trkpt lat="47.5021" lon="6.76646">
        <ele>446.4</ele>
        <time>2017-11-01T09:03:43.000Z</time>
      </trkpt>
      <trkpt lat="47.50209" lon="6.7664">
        <ele>446.3</ele>
        <time>2017-11-01T09:03:44.000Z</time>
      </trkpt>
      <trkpt lat="47.50207" lon="6.76635">
        <ele>446.2</ele>
        <time>2017-11-01T09:03:45.000Z</time>
      </trkpt>
      <trkpt lat="47.50205" lon="6.7663">
        <ele>446.2</ele>
        <time>2017-11-01T09:03:46.000Z</time>
      </trkpt>
      <trkpt lat="47.50203" lon="6.76624">
        <ele>446.2</ele>
        <time>2017-11-01T09:03:47.000Z</time>
      </trkpt>
      <trkpt lat="47.50201" lon="6.76619">
        <ele>446.2</ele>
        <time>2017-11-01T09:03:48.000Z</time>
      </trkpt>
      <trkpt lat="47.50199" lon="6.76612">
        <ele>446.4</ele>
        <time>2017-11-01T09:03:49.000Z</time>
      </trkpt>
      <trkpt lat="47.50198" lon="6.76607">
        <ele>446.4</ele>
        <time>2017-11-01T09:03:50.000Z</time>
      </trkpt>
      <trkpt lat="47.50197" lon="6.76603">
        <ele>446.5</ele>
        <time>2017-11-01T09:03:51.000Z</time>
      </trkpt>
      <trkpt lat="47.50195" lon="6.76598">
        <ele>446.6</ele>
        <time>2017-11-01T09:03:52.000Z</time>
      </trkpt>
      <trkpt lat="47.50194" lon="6.76593">
        <ele>446.6</ele>
        <time>2017-11-01T09:03:53.000Z</time>
      </trkpt>
      <trkpt lat="47.50193" lon="6.76589">
        <ele>446.7</ele>
        <time>2017-11-01T09:03:54.000Z</time>
      </trkpt>
      <trkpt lat="47.50193" lon="6.76585">
        <ele>446.5</ele>
        <time>2017-11-01T09:03:55.000Z</time>
      </trkpt>
      <trkpt lat="47.50192" lon="6.76581">
        <ele>446.3</ele>
        <time>2017-11-01T09:03:57.000Z</time>
      </trkpt>
      <trkpt lat="47.50191" lon="6.76576">
        <ele>446.1</ele>
        <time>2017-11-01T09:03:58.000Z</time>
      </trkpt>
      <trkpt lat="47.50192" lon="6.76572">
        <ele>446</ele>
        <time>2017-11-01T09:03:59.000Z</time>
      </trkpt>
      <trkpt lat="47.50194" lon="6.76567">
        <ele>445.7</ele>
        <time>2017-11-01T09:04:00.000Z</time>
      </trkpt>
      <trkpt lat="47.50196" lon="6.76565">
        <ele>445.5</ele>
        <time>2017-11-01T09:04:01.000Z</time>
      </trkpt>
      <trkpt lat="47.50199" lon="6.76565">
        <ele>445.3</ele>
        <time>2017-11-01T09:04:02.000Z</time>
      </trkpt>
      <trkpt lat="47.50202" lon="6.76565">
        <ele>445.1</ele>
        <time>2017-11-01T09:04:03.000Z</time>
      </trkpt>
      <trkpt lat="47.50206" lon="6.76566">
        <ele>444.9</ele>
        <time>2017-11-01T09:04:04.000Z</time>
      </trkpt>
      <trkpt lat="47.5021" lon="6.76566">
        <ele>444.7</ele>
        <time>2017-11-01T09:04:05.000Z</time>
      </trkpt>
      <trkpt lat="47.50215" lon="6.76563">
        <ele>444.4</ele>
        <time>2017-11-01T09:04:06.000Z</time>
      </trkpt>
      <trkpt lat="47.50221" lon="6.76558">
        <ele>444.2</ele>
        <time>2017-11-01T09:04:07.000Z</time>
      </trkpt>
      <trkpt lat="47.50225" lon="6.76556">
        <ele>441.9</ele>
        <time>2017-11-01T09:04:08.000Z</time>
      </trkpt>
      <trkpt lat="47.5023" lon="6.76553">
        <ele>439.4</ele>
        <time>2017-11-01T09:04:09.000Z</time>
      </trkpt>
      <trkpt lat="47.50235" lon="6.76552">
        <ele>437.3</ele>
        <time>2017-11-01T09:04:10.000Z</time>
      </trkpt>
      <trkpt lat="47.50242" lon="6.76551">
        <ele>435.7</ele>
        <time>2017-11-01T09:04:11.000Z</time>
      </trkpt>
      <trkpt lat="47.50246" lon="6.76549">
        <ele>434.4</ele>
        <time>2017-11-01T09:04:12.000Z</time>
      </trkpt>
      <trkpt lat="47.50251" lon="6.76547">
        <ele>433.4</ele>
        <time>2017-11-01T09:04:13.000Z</time>
      </trkpt>
      <trkpt lat="47.50256" lon="6.76545">
        <ele>432.5</ele>
        <time>2017-11-01T09:04:14.000Z</time>
      </trkpt>
      <trkpt lat="47.50261" lon="6.76543">
        <ele>431.7</ele>
        <time>2017-11-01T09:04:15.000Z</time>
      </trkpt>
      <trkpt lat="47.50267" lon="6.76542">
        <ele>430.8</ele>
        <time>2017-11-01T09:04:16.000Z</time>
      </trkpt>
      <trkpt lat="47.50272" lon="6.7654">
        <ele>431.4</ele>
        <time>2017-11-01T09:04:17.000Z</time>
      </trkpt>
      <trkpt lat="47.50276" lon="6.76539">
        <ele>431.8</ele>
        <time>2017-11-01T09:04:18.000Z</time>
      </trkpt>
      <trkpt lat="47.50282" lon="6.76537">
        <ele>432.1</ele>
        <time>2017-11-01T09:04:19.000Z</time>
      </trkpt>
      <trkpt lat="47.50287" lon="6.76537">
        <ele>432.1</ele>
        <time>2017-11-01T09:04:20.000Z</time>
      </trkpt>
      <trkpt lat="47.50291" lon="6.76537">
        <ele>431.9</ele>
        <time>2017-11-01T09:04:21.000Z</time>
      </trkpt>
      <trkpt lat="47.50296" lon="6.76536">
        <ele>431.9</ele>
        <time>2017-11-01T09:04:22.000Z</time>
      </trkpt>
      <trkpt lat="47.50302" lon="6.76534">
        <ele>431.6</ele>
        <time>2017-11-01T09:04:23.000Z</time>
      </trkpt>
      <trkpt lat="47.50307" lon="6.76533">
        <ele>431.7</ele>
        <time>2017-11-01T09:04:24.000Z</time>
      </trkpt>
      <trkpt lat="47.50314" lon="6.76533">
        <ele>431.7</ele>
        <time>2017-11-01T09:04:25.000Z</time>
      </trkpt>
      <trkpt lat="47.50317" lon="6.76532">
        <ele>431.6</ele>
        <time>2017-11-01T09:04:26.000Z</time>
      </trkpt>
      <trkpt lat="47.5032" lon="6.7653">
        <ele>431.5</ele>
        <time>2017-11-01T09:04:27.000Z</time>
      </trkpt>
      <trkpt lat="47.50325" lon="6.76529">
        <ele>430.6</ele>
        <time>2017-11-01T09:04:28.000Z</time>
      </trkpt>
      <trkpt lat="47.50329" lon="6.76527">
        <ele>430.5</ele>
        <time>2017-11-01T09:04:29.000Z</time>
      </trkpt>
      <trkpt lat="47.50331" lon="6.76522">
        <ele>430.5</ele>
        <time>2017-11-01T09:04:30.000Z</time>
      </trkpt>
      <trkpt lat="47.50332" lon="6.76517">
        <ele>430.4</ele>
        <time>2017-11-01T09:04:31.000Z</time>
      </trkpt>
      <trkpt lat="47.50336" lon="6.76514">
        <ele>430.4</ele>
        <time>2017-11-01T09:04:32.000Z</time>
      </trkpt>
      <trkpt lat="47.50341" lon="6.76511">
        <ele>430.4</ele>
        <time>2017-11-01T09:04:33.000Z</time>
      </trkpt>
      <trkpt lat="47.50343" lon="6.76504">
        <ele>430.4</ele>
        <time>2017-11-01T09:04:34.000Z</time>
      </trkpt>
      <trkpt lat="47.50344" lon="6.76497">
        <ele>431.5</ele>
        <time>2017-11-01T09:04:35.000Z</time>
      </trkpt>
      <trkpt lat="47.50346" lon="6.76487">
        <ele>432</ele>
        <time>2017-11-01T09:04:36.000Z</time>
      </trkpt>
      <trkpt lat="47.50349" lon="6.76477">
        <ele>432.4</ele>
        <time>2017-11-01T09:04:37.000Z</time>
      </trkpt>
      <trkpt lat="47.50351" lon="6.76468">
        <ele>432.9</ele>
        <time>2017-11-01T09:04:38.000Z</time>
      </trkpt>
      <trkpt lat="47.50352" lon="6.76459">
        <ele>433.2</ele>
        <time>2017-11-01T09:04:39.000Z</time>
      </trkpt>
      <trkpt lat="47.50353" lon="6.76452">
        <ele>432.8</ele>
        <time>2017-11-01T09:04:40.000Z</time>
      </trkpt>
      <trkpt lat="47.50354" lon="6.76444">
        <ele>432.6</ele>
        <time>2017-11-01T09:04:41.000Z</time>
      </trkpt>
      <trkpt lat="47.50356" lon="6.76435">
        <ele>432.3</ele>
        <time>2017-11-01T09:04:42.000Z</time>
      </trkpt>
      <trkpt lat="47.50359" lon="6.76428">
        <ele>432.4</ele>
        <time>2017-11-01T09:04:43.000Z</time>
      </trkpt>
      <trkpt lat="47.50363" lon="6.76423">
        <ele>432.3</ele>
        <time>2017-11-01T09:04:44.000Z</time>
      </trkpt>
      <trkpt lat="47.50365" lon="6.76419">
        <ele>432.4</ele>
        <time>2017-11-01T09:04:45.000Z</time>
      </trkpt>
      <trkpt lat="47.50369" lon="6.76413">
        <ele>432.4</ele>
        <time>2017-11-01T09:04:46.000Z</time>
      </trkpt>
      <trkpt lat="47.50373" lon="6.76407">
        <ele>432.5</ele>
        <time>2017-11-01T09:04:47.000Z</time>
      </trkpt>
      <trkpt lat="47.50376" lon="6.76402">
        <ele>432.5</ele>
        <time>2017-11-01T09:04:48.000Z</time>
      </trkpt>
      <trkpt lat="47.50377" lon="6.76396">
        <ele>432.6</ele>
        <time>2017-11-01T09:04:49.000Z</time>
      </trkpt>
      <trkpt lat="47.50378" lon="6.76391">
        <ele>432.6</ele>
        <time>2017-11-01T09:04:50.000Z</time>
      </trkpt>
      <trkpt lat="47.5038" lon="6.76386">
        <ele>432.6</ele>
        <time>2017-11-01T09:04:51.000Z</time>
      </trkpt>
      <trkpt lat="47.50382" lon="6.7638">
        <ele>432.6</ele>
        <time>2017-11-01T09:04:52.000Z</time>
      </trkpt>
      <trkpt lat="47.50385" lon="6.76375">
        <ele>432.7</ele>
        <time>2017-11-01T09:04:53.000Z</time>
      </trkpt>
      <trkpt lat="47.50388" lon="6.76369">
        <ele>432.7</ele>
        <time>2017-11-01T09:04:54.000Z</time>
      </trkpt>
      <trkpt lat="47.50389" lon="6.76363">
        <ele>432.7</ele>
        <time>2017-11-01T09:04:55.000Z</time>
      </trkpt>
      <trkpt lat="47.5039" lon="6.76358">
        <ele>432.6</ele>
        <time>2017-11-01T09:04:56.000Z</time>
      </trkpt>
      <trkpt lat="47.50393" lon="6.76354">
        <ele>432.6</ele>
        <time>2017-11-01T09:04:57.000Z</time>
      </trkpt>
      <trkpt lat="47.50394" lon="6.7635">
        <ele>432.6</ele>
        <time>2017-11-01T09:04:58.000Z</time>
      </trkpt>
      <trkpt lat="47.50397" lon="6.76345">
        <ele>432.7</ele>
        <time>2017-11-01T09:05:00.000Z</time>
      </trkpt>
      <trkpt lat="47.504" lon="6.76342">
        <ele>432.8</ele>
        <time>2017-11-01T09:05:01.000Z</time>
      </trkpt>
      <trkpt lat="47.50401" lon="6.7634">
        <ele>432.7</ele>
        <time>2017-11-01T09:05:02.000Z</time>
      </trkpt>
      <trkpt lat="47.50401" lon="6.76336">
        <ele>432.7</ele>
        <time>2017-11-01T09:05:03.000Z</time>
      </trkpt>
      <trkpt lat="47.50403" lon="6.76332">
        <ele>432.6</ele>
        <time>2017-11-01T09:05:05.000Z</time>
      </trkpt>
      <trkpt lat="47.50404" lon="6.76329">
        <ele>432.6</ele>
        <time>2017-11-01T09:05:06.000Z</time>
      </trkpt>
      <trkpt lat="47.50405" lon="6.76326">
        <ele>432.4</ele>
        <time>2017-11-01T09:05:07.000Z</time>
      </trkpt>
      <trkpt lat="47.50407" lon="6.76324">
        <ele>432.4</ele>
        <time>2017-11-01T09:05:08.000Z</time>
      </trkpt>
      <trkpt lat="47.50409" lon="6.76323">
        <ele>432.4</ele>
        <time>2017-11-01T09:05:09.000Z</time>
      </trkpt>
      <trkpt lat="47.50411" lon="6.76319">
        <ele>432.5</ele>
        <time>2017-11-01T09:05:10.000Z</time>
      </trkpt>
      <trkpt lat="47.50413" lon="6.76314">
        <ele>432.7</ele>
        <time>2017-11-01T09:05:11.000Z</time>
      </trkpt>
      <trkpt lat="47.50414" lon="6.76305">
        <ele>432.8</ele>
        <time>2017-11-01T09:05:12.000Z</time>
      </trkpt>
      <trkpt lat="47.50414" lon="6.763">
        <ele>433</ele>
        <time>2017-11-01T09:05:13.000Z</time>
      </trkpt>
      <trkpt lat="47.50413" lon="6.76297">
        <ele>433.1</ele>
        <time>2017-11-01T09:05:14.000Z</time>
      </trkpt>
      <trkpt lat="47.50414" lon="6.76291">
        <ele>433.4</ele>
        <time>2017-11-01T09:05:16.000Z</time>
      </trkpt>
      <trkpt lat="47.50416" lon="6.76288">
        <ele>433.5</ele>
        <time>2017-11-01T09:05:17.000Z</time>
      </trkpt>
      <trkpt lat="47.5042" lon="6.76285">
        <ele>433.6</ele>
        <time>2017-11-01T09:05:19.000Z</time>
      </trkpt>
      <trkpt lat="47.5042" lon="6.76282">
        <ele>433.6</ele>
        <time>2017-11-01T09:05:20.000Z</time>
      </trkpt>
      <trkpt lat="47.50421" lon="6.76279">
        <ele>433.6</ele>
        <time>2017-11-01T09:05:21.000Z</time>
      </trkpt>
      <trkpt lat="47.50422" lon="6.76276">
        <ele>433.6</ele>
        <time>2017-11-01T09:05:22.000Z</time>
      </trkpt>
      <trkpt lat="47.50423" lon="6.76272">
        <ele>433.7</ele>
        <time>2017-11-01T09:05:23.000Z</time>
      </trkpt>
      <trkpt lat="47.50426" lon="6.76268">
        <ele>433.7</ele>
        <time>2017-11-01T09:05:24.000Z</time>
      </trkpt>
      <trkpt lat="47.50429" lon="6.76264">
        <ele>433.8</ele>
        <time>2017-11-01T09:05:25.000Z</time>
      </trkpt>
      <trkpt lat="47.50432" lon="6.76261">
        <ele>433.9</ele>
        <time>2017-11-01T09:05:26.000Z</time>
      </trkpt>
      <trkpt lat="47.50433" lon="6.76257">
        <ele>433.9</ele>
        <time>2017-11-01T09:05:27.000Z</time>
      </trkpt>
      <trkpt lat="47.50434" lon="6.76252">
        <ele>434</ele>
        <time>2017-11-01T09:05:28.000Z</time>
      </trkpt>
      <trkpt lat="47.50438" lon="6.76248">
        <ele>434</ele>
        <time>2017-11-01T09:05:30.000Z</time>
      </trkpt>
      <trkpt lat="47.50439" lon="6.76246">
        <ele>434.2</ele>
        <time>2017-11-01T09:05:31.000Z</time>
      </trkpt>
      <trkpt lat="47.50441" lon="6.76241">
        <ele>434.5</ele>
        <time>2017-11-01T09:05:33.000Z</time>
      </trkpt>
      <trkpt lat="47.50441" lon="6.76239">
        <ele>434.5</ele>
        <time>2017-11-01T09:05:34.000Z</time>
      </trkpt>
      <trkpt lat="47.50443" lon="6.76236">
        <ele>434.8</ele>
        <time>2017-11-01T09:05:36.000Z</time>
      </trkpt>
      <trkpt lat="47.50444" lon="6.76233">
        <ele>434.8</ele>
        <time>2017-11-01T09:05:37.000Z</time>
      </trkpt>
      <trkpt lat="47.50446" lon="6.76231">
        <ele>434.9</ele>
        <time>2017-11-01T09:05:38.000Z</time>
      </trkpt>
      <trkpt lat="47.50448" lon="6.76229">
        <ele>435</ele>
        <time>2017-11-01T09:05:39.000Z</time>
      </trkpt>
      <trkpt lat="47.50452" lon="6.76226">
        <ele>434.9</ele>
        <time>2017-11-01T09:05:41.000Z</time>
      </trkpt>
      <trkpt lat="47.50454" lon="6.76225">
        <ele>434.8</ele>
        <time>2017-11-01T09:05:42.000Z</time>
      </trkpt>
      <trkpt lat="47.50457" lon="6.76222">
        <ele>434.6</ele>
        <time>2017-11-01T09:05:44.000Z</time>
      </trkpt>
      <trkpt lat="47.50459" lon="6.76221">
        <ele>434.5</ele>
        <time>2017-11-01T09:05:45.000Z</time>
      </trkpt>
      <trkpt lat="47.50462" lon="6.7622">
        <ele>434.5</ele>
        <time>2017-11-01T09:05:46.000Z</time>
      </trkpt>
      <trkpt lat="47.50465" lon="6.7622">
        <ele>434.5</ele>
        <time>2017-11-01T09:05:47.000Z</time>
      </trkpt>
      <trkpt lat="47.50469" lon="6.7622">
        <ele>434.7</ele>
        <time>2017-11-01T09:05:49.000Z</time>
      </trkpt>
      <trkpt lat="47.50472" lon="6.76221">
        <ele>434.9</ele>
        <time>2017-11-01T09:05:50.000Z</time>
      </trkpt>
      <trkpt lat="47.50474" lon="6.76221">
        <ele>434.9</ele>
        <time>2017-11-01T09:05:51.000Z</time>
      </trkpt>
      <trkpt lat="47.50476" lon="6.76222">
        <ele>435</ele>
        <time>2017-11-01T09:05:52.000Z</time>
      </trkpt>
      <trkpt lat="47.50481" lon="6.7622">
        <ele>435.1</ele>
        <time>2017-11-01T09:05:54.000Z</time>
      </trkpt>
      <trkpt lat="47.50482" lon="6.76219">
        <ele>435.1</ele>
        <time>2017-11-01T09:05:55.000Z</time>
      </trkpt>
      <trkpt lat="47.50484" lon="6.76218">
        <ele>435.2</ele>
        <time>2017-11-01T09:05:56.000Z</time>
      </trkpt>
      <trkpt lat="47.50486" lon="6.76216">
        <ele>435.2</ele>
        <time>2017-11-01T09:05:57.000Z</time>
      </trkpt>
      <trkpt lat="47.50488" lon="6.76214">
        <ele>435.2</ele>
        <time>2017-11-01T09:05:58.000Z</time>
      </trkpt>
      <trkpt lat="47.50491" lon="6.76212">
        <ele>435.3</ele>
        <time>2017-11-01T09:05:59.000Z</time>
      </trkpt>
      <trkpt lat="47.50495" lon="6.76211">
        <ele>435.3</ele>
        <time>2017-11-01T09:06:00.000Z</time>
      </trkpt>
      <trkpt lat="47.50499" lon="6.76209">
        <ele>435.3</ele>
        <time>2017-11-01T09:06:01.000Z</time>
      </trkpt>
      <trkpt lat="47.50501" lon="6.76208">
        <ele>435.3</ele>
        <time>2017-11-01T09:06:02.000Z</time>
      </trkpt>
      <trkpt lat="47.50504" lon="6.76206">
        <ele>435.3</ele>
        <time>2017-11-01T09:06:03.000Z</time>
      </trkpt>
      <trkpt lat="47.50506" lon="6.76205">
        <ele>435.2</ele>
        <time>2017-11-01T09:06:04.000Z</time>
      </trkpt>
      <trkpt lat="47.50509" lon="6.76205">
        <ele>435.2</ele>
        <time>2017-11-01T09:06:05.000Z</time>
      </trkpt>
      <trkpt lat="47.50512" lon="6.76205">
        <ele>435.2</ele>
        <time>2017-11-01T09:06:06.000Z</time>
      </trkpt>
      <trkpt lat="47.50514" lon="6.76205">
        <ele>435.2</ele>
        <time>2017-11-01T09:06:07.000Z</time>
      </trkpt>
      <trkpt lat="47.50516" lon="6.76204">
        <ele>435.2</ele>
        <time>2017-11-01T09:06:08.000Z</time>
      </trkpt>
      <trkpt lat="47.50519" lon="6.76203">
        <ele>435.2</ele>
        <time>2017-11-01T09:06:09.000Z</time>
      </trkpt>
      <trkpt lat="47.50521" lon="6.76203">
        <ele>435</ele>
        <time>2017-11-01T09:06:10.000Z</time>
      </trkpt>
      <trkpt lat="47.50524" lon="6.76201">
        <ele>434.9</ele>
        <time>2017-11-01T09:06:11.000Z</time>
      </trkpt>
      <trkpt lat="47.50528" lon="6.76199">
        <ele>434.8</ele>
        <time>2017-11-01T09:06:12.000Z</time>
      </trkpt>
      <trkpt lat="47.50533" lon="6.76194">
        <ele>433</ele>
        <time>2017-11-01T09:06:13.000Z</time>
      </trkpt>
      <trkpt lat="47.50538" lon="6.7619">
        <ele>431</ele>
        <time>2017-11-01T09:06:14.000Z</time>
      </trkpt>
      <trkpt lat="47.50542" lon="6.76185">
        <ele>429.4</ele>
        <time>2017-11-01T09:06:15.000Z</time>
      </trkpt>
      <trkpt lat="47.50545" lon="6.7618">
        <ele>429</ele>
        <time>2017-11-01T09:06:17.000Z</time>
      </trkpt>
      <trkpt lat="47.50548" lon="6.76179">
        <ele>428.9</ele>
        <time>2017-11-01T09:06:18.000Z</time>
      </trkpt>
      <trkpt lat="47.50551" lon="6.76178">
        <ele>428.8</ele>
        <time>2017-11-01T09:06:19.000Z</time>
      </trkpt>
      <trkpt lat="47.50554" lon="6.76176">
        <ele>428.8</ele>
        <time>2017-11-01T09:06:20.000Z</time>
      </trkpt>
      <trkpt lat="47.50557" lon="6.76172">
        <ele>428.7</ele>
        <time>2017-11-01T09:06:21.000Z</time>
      </trkpt>
      <trkpt lat="47.50559" lon="6.7617">
        <ele>428.6</ele>
        <time>2017-11-01T09:06:22.000Z</time>
      </trkpt>
      <trkpt lat="47.50563" lon="6.76167">
        <ele>428.4</ele>
        <time>2017-11-01T09:06:24.000Z</time>
      </trkpt>
      <trkpt lat="47.50563" lon="6.76165">
        <ele>428.4</ele>
        <time>2017-11-01T09:06:25.000Z</time>
      </trkpt>
      <trkpt lat="47.50567" lon="6.76163">
        <ele>428.7</ele>
        <time>2017-11-01T09:06:31.000Z</time>
      </trkpt>
      <trkpt lat="47.50568" lon="6.76163">
        <ele>428.9</ele>
        <time>2017-11-01T09:06:32.000Z</time>
      </trkpt>
      <trkpt lat="47.50572" lon="6.76164">
        <ele>429</ele>
        <time>2017-11-01T09:06:36.000Z</time>
      </trkpt>
      <trkpt lat="47.50573" lon="6.76165">
        <ele>429</ele>
        <time>2017-11-01T09:06:37.000Z</time>
      </trkpt>
      <trkpt lat="47.50576" lon="6.76161">
        <ele>429</ele>
        <time>2017-11-01T09:06:44.000Z</time>
      </trkpt>
      <trkpt lat="47.50576" lon="6.7616">
        <ele>429</ele>
        <time>2017-11-01T09:06:45.000Z</time>
      </trkpt>
      <trkpt lat="47.50579" lon="6.76154">
        <ele>429.6</ele>
        <time>2017-11-01T09:06:51.000Z</time>
      </trkpt>
      <trkpt lat="47.50579" lon="6.76154">
        <ele>430</ele>
        <time>2017-11-01T09:06:52.000Z</time>
      </trkpt>
      <trkpt lat="47.50583" lon="6.76156">
        <ele>433</ele>
        <time>2017-11-01T09:07:29.000Z</time>
      </trkpt>
      <trkpt lat="47.50585" lon="6.76156">
        <ele>433</ele>
        <time>2017-11-01T09:07:30.000Z</time>
      </trkpt>
      <trkpt lat="47.50588" lon="6.76156">
        <ele>433.1</ele>
        <time>2017-11-01T09:07:31.000Z</time>
      </trkpt>
      <trkpt lat="47.5059" lon="6.76156">
        <ele>433.3</ele>
        <time>2017-11-01T09:07:32.000Z</time>
      </trkpt>
      <trkpt lat="47.50593" lon="6.76158">
        <ele>433.3</ele>
        <time>2017-11-01T09:07:33.000Z</time>
      </trkpt>
      <trkpt lat="47.50596" lon="6.7616">
        <ele>433.5</ele>
        <time>2017-11-01T09:07:34.000Z</time>
      </trkpt>
      <trkpt lat="47.50599" lon="6.76161">
        <ele>433.6</ele>
        <time>2017-11-01T09:07:35.000Z</time>
      </trkpt>
      <trkpt lat="47.50603" lon="6.76162">
        <ele>434.4</ele>
        <time>2017-11-01T09:07:36.000Z</time>
      </trkpt>
      <trkpt lat="47.50607" lon="6.76161">
        <ele>435</ele>
        <time>2017-11-01T09:07:37.000Z</time>
      </trkpt>
      <trkpt lat="47.50612" lon="6.76161">
        <ele>435.4</ele>
        <time>2017-11-01T09:07:38.000Z</time>
      </trkpt>
      <trkpt lat="47.50617" lon="6.76161">
        <ele>435.6</ele>
        <time>2017-11-01T09:07:39.000Z</time>
      </trkpt>
      <trkpt lat="47.50622" lon="6.76161">
        <ele>435.5</ele>
        <time>2017-11-01T09:07:40.000Z</time>
      </trkpt>
      <trkpt lat="47.50627" lon="6.76162">
        <ele>434.8</ele>
        <time>2017-11-01T09:07:41.000Z</time>
      </trkpt>
      <trkpt lat="47.50632" lon="6.76162">
        <ele>434.6</ele>
        <time>2017-11-01T09:07:42.000Z</time>
      </trkpt>
      <trkpt lat="47.50637" lon="6.76161">
        <ele>433.9</ele>
        <time>2017-11-01T09:07:43.000Z</time>
      </trkpt>
      <trkpt lat="47.50642" lon="6.76162">
        <ele>433</ele>
        <time>2017-11-01T09:07:44.000Z</time>
      </trkpt>
      <trkpt lat="47.50647" lon="6.76165">
        <ele>432.8</ele>
        <time>2017-11-01T09:07:45.000Z</time>
      </trkpt>
      <trkpt lat="47.50653" lon="6.76169">
        <ele>432.5</ele>
        <time>2017-11-01T09:07:46.000Z</time>
      </trkpt>
      <trkpt lat="47.50656" lon="6.76174">
        <ele>432.3</ele>
        <time>2017-11-01T09:07:47.000Z</time>
      </trkpt>
      <trkpt lat="47.50662" lon="6.76178">
        <ele>432.2</ele>
        <time>2017-11-01T09:07:48.000Z</time>
      </trkpt>
      <trkpt lat="47.50667" lon="6.7618">
        <ele>432</ele>
        <time>2017-11-01T09:07:49.000Z</time>
      </trkpt>
      <trkpt lat="47.5067" lon="6.76182">
        <ele>431.4</ele>
        <time>2017-11-01T09:07:51.000Z</time>
      </trkpt>
      <trkpt lat="47.50672" lon="6.76184">
        <ele>431.1</ele>
        <time>2017-11-01T09:07:52.000Z</time>
      </trkpt>
      <trkpt lat="47.50673" lon="6.76185">
        <ele>430.8</ele>
        <time>2017-11-01T09:07:53.000Z</time>
      </trkpt>
      <trkpt lat="47.50677" lon="6.76187">
        <ele>430.6</ele>
        <time>2017-11-01T09:07:54.000Z</time>
      </trkpt>
      <trkpt lat="47.50679" lon="6.76191">
        <ele>430.2</ele>
        <time>2017-11-01T09:07:56.000Z</time>
      </trkpt>
      <trkpt lat="47.5068" lon="6.76194">
        <ele>430.1</ele>
        <time>2017-11-01T09:07:57.000Z</time>
      </trkpt>
      <trkpt lat="47.50683" lon="6.762">
        <ele>430.1</ele>
        <time>2017-11-01T09:07:58.000Z</time>
      </trkpt>
      <trkpt lat="47.50684" lon="6.76203">
        <ele>430</ele>
        <time>2017-11-01T09:07:59.000Z</time>
      </trkpt>
      <trkpt lat="47.50688" lon="6.76206">
        <ele>430</ele>
        <time>2017-11-01T09:08:00.000Z</time>
      </trkpt>
      <trkpt lat="47.5069" lon="6.76208">
        <ele>429.8</ele>
        <time>2017-11-01T09:08:01.000Z</time>
      </trkpt>
      <trkpt lat="47.50692" lon="6.76211">
        <ele>429.8</ele>
        <time>2017-11-01T09:08:02.000Z</time>
      </trkpt>
      <trkpt lat="47.50694" lon="6.76217">
        <ele>429.7</ele>
        <time>2017-11-01T09:08:04.000Z</time>
      </trkpt>
      <trkpt lat="47.50697" lon="6.76216">
        <ele>429.5</ele>
        <time>2017-11-01T09:08:05.000Z</time>
      </trkpt>
      <trkpt lat="47.50701" lon="6.76216">
        <ele>429.4</ele>
        <time>2017-11-01T09:08:06.000Z</time>
      </trkpt>
      <trkpt lat="47.50705" lon="6.76216">
        <ele>429.2</ele>
        <time>2017-11-01T09:08:07.000Z</time>
      </trkpt>
      <trkpt lat="47.50709" lon="6.76217">
        <ele>429</ele>
        <time>2017-11-01T09:08:08.000Z</time>
      </trkpt>
      <trkpt lat="47.50713" lon="6.76218">
        <ele>429</ele>
        <time>2017-11-01T09:08:09.000Z</time>
      </trkpt>
      <trkpt lat="47.50717" lon="6.76216">
        <ele>428.7</ele>
        <time>2017-11-01T09:08:11.000Z</time>
      </trkpt>
      <trkpt lat="47.50717" lon="6.76215">
        <ele>428.6</ele>
        <time>2017-11-01T09:08:12.000Z</time>
      </trkpt>
      <trkpt lat="47.50719" lon="6.76212">
        <ele>428.4</ele>
        <time>2017-11-01T09:08:13.000Z</time>
      </trkpt>
      <trkpt lat="47.50721" lon="6.7621">
        <ele>428.3</ele>
        <time>2017-11-01T09:08:14.000Z</time>
      </trkpt>
      <trkpt lat="47.50723" lon="6.76209">
        <ele>428.2</ele>
        <time>2017-11-01T09:08:15.000Z</time>
      </trkpt>
      <trkpt lat="47.50726" lon="6.76205">
        <ele>428</ele>
        <time>2017-11-01T09:08:16.000Z</time>
      </trkpt>
      <trkpt lat="47.50727" lon="6.76201">
        <ele>427.8</ele>
        <time>2017-11-01T09:08:17.000Z</time>
      </trkpt>
      <trkpt lat="47.50727" lon="6.76197">
        <ele>427.6</ele>
        <time>2017-11-01T09:08:18.000Z</time>
      </trkpt>
      <trkpt lat="47.50728" lon="6.76193">
        <ele>427.3</ele>
        <time>2017-11-01T09:08:19.000Z</time>
      </trkpt>
      <trkpt lat="47.50728" lon="6.76188">
        <ele>427</ele>
        <time>2017-11-01T09:08:20.000Z</time>
      </trkpt>
      <trkpt lat="47.50728" lon="6.76182">
        <ele>426.7</ele>
        <time>2017-11-01T09:08:21.000Z</time>
      </trkpt>
      <trkpt lat="47.50728" lon="6.76173">
        <ele>426.4</ele>
        <time>2017-11-01T09:08:22.000Z</time>
      </trkpt>
      <trkpt lat="47.50728" lon="6.76166">
        <ele>426</ele>
        <time>2017-11-01T09:08:23.000Z</time>
      </trkpt>
      <trkpt lat="47.50728" lon="6.7616">
        <ele>425.2</ele>
        <time>2017-11-01T09:08:25.000Z</time>
      </trkpt>
      <trkpt lat="47.50729" lon="6.76156">
        <ele>424.9</ele>
        <time>2017-11-01T09:08:26.000Z</time>
      </trkpt>
      <trkpt lat="47.50729" lon="6.76151">
        <ele>424.4</ele>
        <time>2017-11-01T09:08:27.000Z</time>
      </trkpt>
      <trkpt lat="47.50729" lon="6.76142">
        <ele>424</ele>
        <time>2017-11-01T09:08:28.000Z</time>
      </trkpt>
      <trkpt lat="47.50729" lon="6.76138">
        <ele>423.5</ele>
        <time>2017-11-01T09:08:29.000Z</time>
      </trkpt>
      <trkpt lat="47.5073" lon="6.76134">
        <ele>423.1</ele>
        <time>2017-11-01T09:08:30.000Z</time>
      </trkpt>
      <trkpt lat="47.50732" lon="6.76131">
        <ele>422.8</ele>
        <time>2017-11-01T09:08:31.000Z</time>
      </trkpt>
      <trkpt lat="47.50734" lon="6.76126">
        <ele>422.4</ele>
        <time>2017-11-01T09:08:32.000Z</time>
      </trkpt>
      <trkpt lat="47.50735" lon="6.76122">
        <ele>421.9</ele>
        <time>2017-11-01T09:08:33.000Z</time>
      </trkpt>
      <trkpt lat="47.50736" lon="6.76119">
        <ele>421.6</ele>
        <time>2017-11-01T09:08:34.000Z</time>
      </trkpt>
      <trkpt lat="47.50738" lon="6.76117">
        <ele>421.3</ele>
        <time>2017-11-01T09:08:35.000Z</time>
      </trkpt>
      <trkpt lat="47.5074" lon="6.76114">
        <ele>421</ele>
        <time>2017-11-01T09:08:36.000Z</time>
      </trkpt>
      <trkpt lat="47.50742" lon="6.76111">
        <ele>420.7</ele>
        <time>2017-11-01T09:08:37.000Z</time>
      </trkpt>
      <trkpt lat="47.50744" lon="6.76104">
        <ele>420.4</ele>
        <time>2017-11-01T09:08:38.000Z</time>
      </trkpt>
      <trkpt lat="47.50748" lon="6.76099">
        <ele>420.1</ele>
        <time>2017-11-01T09:08:39.000Z</time>
      </trkpt>
      <trkpt lat="47.5075" lon="6.76096">
        <ele>419.8</ele>
        <time>2017-11-01T09:08:40.000Z</time>
      </trkpt>
      <trkpt lat="47.5075" lon="6.7609">
        <ele>419.5</ele>
        <time>2017-11-01T09:08:41.000Z</time>
      </trkpt>
      <trkpt lat="47.50751" lon="6.76084">
        <ele>418.8</ele>
        <time>2017-11-01T09:08:44.000Z</time>
      </trkpt>
      <trkpt lat="47.5075" lon="6.76082">
        <ele>418.6</ele>
        <time>2017-11-01T09:08:45.000Z</time>
      </trkpt>
      <trkpt lat="47.5075" lon="6.76079">
        <ele>418.5</ele>
        <time>2017-11-01T09:08:46.000Z</time>
      </trkpt>
      <trkpt lat="47.5075" lon="6.76073">
        <ele>418.3</ele>
        <time>2017-11-01T09:08:47.000Z</time>
      </trkpt>
      <trkpt lat="47.50751" lon="6.76069">
        <ele>418.2</ele>
        <time>2017-11-01T09:08:48.000Z</time>
      </trkpt>
      <trkpt lat="47.50751" lon="6.76063">
        <ele>418.2</ele>
        <time>2017-11-01T09:08:49.000Z</time>
      </trkpt>
      <trkpt lat="47.50755" lon="6.76059">
        <ele>418.2</ele>
        <time>2017-11-01T09:08:50.000Z</time>
      </trkpt>
      <trkpt lat="47.5076" lon="6.76055">
        <ele>418.2</ele>
        <time>2017-11-01T09:08:51.000Z</time>
      </trkpt>
      <trkpt lat="47.50762" lon="6.7605">
        <ele>418.2</ele>
        <time>2017-11-01T09:08:53.000Z</time>
      </trkpt>
      <trkpt lat="47.50764" lon="6.76048">
        <ele>418.1</ele>
        <time>2017-11-01T09:08:54.000Z</time>
      </trkpt>
      <trkpt lat="47.50768" lon="6.76045">
        <ele>418.1</ele>
        <time>2017-11-01T09:08:55.000Z</time>
      </trkpt>
      <trkpt lat="47.50772" lon="6.76041">
        <ele>418.2</ele>
        <time>2017-11-01T09:08:56.000Z</time>
      </trkpt>
      <trkpt lat="47.50775" lon="6.76036">
        <ele>418.2</ele>
        <time>2017-11-01T09:08:57.000Z</time>
      </trkpt>
      <trkpt lat="47.50776" lon="6.76033">
        <ele>418.2</ele>
        <time>2017-11-01T09:08:58.000Z</time>
      </trkpt>
      <trkpt lat="47.50778" lon="6.76028">
        <ele>418.2</ele>
        <time>2017-11-01T09:09:00.000Z</time>
      </trkpt>
      <trkpt lat="47.50777" lon="6.76025">
        <ele>418.2</ele>
        <time>2017-11-01T09:09:01.000Z</time>
      </trkpt>
      <trkpt lat="47.50779" lon="6.7602">
        <ele>418</ele>
        <time>2017-11-01T09:09:03.000Z</time>
      </trkpt>
      <trkpt lat="47.5078" lon="6.76017">
        <ele>418</ele>
        <time>2017-11-01T09:09:04.000Z</time>
      </trkpt>
      <trkpt lat="47.50783" lon="6.76013">
        <ele>417.9</ele>
        <time>2017-11-01T09:09:06.000Z</time>
      </trkpt>
      <trkpt lat="47.50784" lon="6.76011">
        <ele>417.7</ele>
        <time>2017-11-01T09:09:07.000Z</time>
      </trkpt>
      <trkpt lat="47.50788" lon="6.76009">
        <ele>417.5</ele>
        <time>2017-11-01T09:09:08.000Z</time>
      </trkpt>
      <trkpt lat="47.50791" lon="6.76006">
        <ele>417.4</ele>
        <time>2017-11-01T09:09:09.000Z</time>
      </trkpt>
      <trkpt lat="47.50795" lon="6.76005">
        <ele>416.8</ele>
        <time>2017-11-01T09:09:16.000Z</time>
      </trkpt>
      <trkpt lat="47.50796" lon="6.76005">
        <ele>417</ele>
        <time>2017-11-01T09:09:17.000Z</time>
      </trkpt>
      <trkpt lat="47.50799" lon="6.76001">
        <ele>417.1</ele>
        <time>2017-11-01T09:09:18.000Z</time>
      </trkpt>
      <trkpt lat="47.50802" lon="6.76">
        <ele>417.2</ele>
        <time>2017-11-01T09:09:19.000Z</time>
      </trkpt>
      <trkpt lat="47.50804" lon="6.75999">
        <ele>417.6</ele>
        <time>2017-11-01T09:09:21.000Z</time>
      </trkpt>
      <trkpt lat="47.50806" lon="6.75996">
        <ele>417.7</ele>
        <time>2017-11-01T09:09:22.000Z</time>
      </trkpt>
      <trkpt lat="47.5081" lon="6.75994">
        <ele>418.6</ele>
        <time>2017-11-01T09:09:26.000Z</time>
      </trkpt>
      <trkpt lat="47.50814" lon="6.75992">
        <ele>418.9</ele>
        <time>2017-11-01T09:09:27.000Z</time>
      </trkpt>
      <trkpt lat="47.50815" lon="6.75987">
        <ele>419.8</ele>
        <time>2017-11-01T09:09:31.000Z</time>
      </trkpt>
      <trkpt lat="47.50816" lon="6.75985">
        <ele>420</ele>
        <time>2017-11-01T09:09:32.000Z</time>
      </trkpt>
      <trkpt lat="47.50816" lon="6.75983">
        <ele>420.2</ele>
        <time>2017-11-01T09:09:33.000Z</time>
      </trkpt>
      <trkpt lat="47.50816" lon="6.75978">
        <ele>420.3</ele>
        <time>2017-11-01T09:09:34.000Z</time>
      </trkpt>
      <trkpt lat="47.50817" lon="6.75973">
        <ele>420.3</ele>
        <time>2017-11-01T09:09:36.000Z</time>
      </trkpt>
      <trkpt lat="47.50817" lon="6.7597">
        <ele>420.3</ele>
        <time>2017-11-01T09:09:37.000Z</time>
      </trkpt>
      <trkpt lat="47.50815" lon="6.75963">
        <ele>420.2</ele>
        <time>2017-11-01T09:09:38.000Z</time>
      </trkpt>
      <trkpt lat="47.50813" lon="6.75957">
        <ele>419.9</ele>
        <time>2017-11-01T09:09:40.000Z</time>
      </trkpt>
      <trkpt lat="47.50814" lon="6.75952">
        <ele>419.7</ele>
        <time>2017-11-01T09:09:41.000Z</time>
      </trkpt>
      <trkpt lat="47.50815" lon="6.75948">
        <ele>419.6</ele>
        <time>2017-11-01T09:09:42.000Z</time>
      </trkpt>
      <trkpt lat="47.50815" lon="6.75945">
        <ele>419.4</ele>
        <time>2017-11-01T09:09:43.000Z</time>
      </trkpt>
      <trkpt lat="47.50815" lon="6.75942">
        <ele>419.1</ele>
        <time>2017-11-01T09:09:44.000Z</time>
      </trkpt>
      <trkpt lat="47.50816" lon="6.75938">
        <ele>418.9</ele>
        <time>2017-11-01T09:09:45.000Z</time>
      </trkpt>
      <trkpt lat="47.50818" lon="6.75932">
        <ele>418.6</ele>
        <time>2017-11-01T09:09:46.000Z</time>
      </trkpt>
      <trkpt lat="47.5082" lon="6.75927">
        <ele>418.4</ele>
        <time>2017-11-01T09:09:47.000Z</time>
      </trkpt>
      <trkpt lat="47.50818" lon="6.75919">
        <ele>418.1</ele>
        <time>2017-11-01T09:09:48.000Z</time>
      </trkpt>
      <trkpt lat="47.50819" lon="6.75912">
        <ele>417.9</ele>
        <time>2017-11-01T09:09:49.000Z</time>
      </trkpt>
      <trkpt lat="47.50819" lon="6.75908">
        <ele>417.5</ele>
        <time>2017-11-01T09:09:50.000Z</time>
      </trkpt>
      <trkpt lat="47.50818" lon="6.75905">
        <ele>417.2</ele>
        <time>2017-11-01T09:09:51.000Z</time>
      </trkpt>
      <trkpt lat="47.50818" lon="6.75901">
        <ele>417.1</ele>
        <time>2017-11-01T09:09:52.000Z</time>
      </trkpt>
      <trkpt lat="47.50819" lon="6.75896">
        <ele>416.9</ele>
        <time>2017-11-01T09:09:53.000Z</time>
      </trkpt>
      <trkpt lat="47.50819" lon="6.75889">
        <ele>416.7</ele>
        <time>2017-11-01T09:09:54.000Z</time>
      </trkpt>
      <trkpt lat="47.50818" lon="6.75884">
        <ele>416.5</ele>
        <time>2017-11-01T09:09:55.000Z</time>
      </trkpt>
      <trkpt lat="47.50817" lon="6.75879">
        <ele>416.5</ele>
        <time>2017-11-01T09:09:56.000Z</time>
      </trkpt>
      <trkpt lat="47.50817" lon="6.75876">
        <ele>416.5</ele>
        <time>2017-11-01T09:09:57.000Z</time>
      </trkpt>
      <trkpt lat="47.50816" lon="6.75872">
        <ele>416.5</ele>
        <time>2017-11-01T09:09:58.000Z</time>
      </trkpt>
      <trkpt lat="47.50815" lon="6.75867">
        <ele>416.5</ele>
        <time>2017-11-01T09:09:59.000Z</time>
      </trkpt>
      <trkpt lat="47.50815" lon="6.7586">
        <ele>416.5</ele>
        <time>2017-11-01T09:10:00.000Z</time>
      </trkpt>
      <trkpt lat="47.50818" lon="6.75854">
        <ele>416.4</ele>
        <time>2017-11-01T09:10:01.000Z</time>
      </trkpt>
      <trkpt lat="47.50818" lon="6.7585">
        <ele>416.4</ele>
        <time>2017-11-01T09:10:02.000Z</time>
      </trkpt>
      <trkpt lat="47.50819" lon="6.75845">
        <ele>416.4</ele>
        <time>2017-11-01T09:10:03.000Z</time>
      </trkpt>
      <trkpt lat="47.50818" lon="6.75841">
        <ele>416.3</ele>
        <time>2017-11-01T09:10:04.000Z</time>
      </trkpt>
      <trkpt lat="47.50818" lon="6.75836">
        <ele>416.1</ele>
        <time>2017-11-01T09:10:05.000Z</time>
      </trkpt>
      <trkpt lat="47.50818" lon="6.75828">
        <ele>416</ele>
        <time>2017-11-01T09:10:06.000Z</time>
      </trkpt>
      <trkpt lat="47.50819" lon="6.75824">
        <ele>415.7</ele>
        <time>2017-11-01T09:10:07.000Z</time>
      </trkpt>
      <trkpt lat="47.50819" lon="6.7582">
        <ele>415.4</ele>
        <time>2017-11-01T09:10:08.000Z</time>
      </trkpt>
      <trkpt lat="47.5082" lon="6.75811">
        <ele>415.1</ele>
        <time>2017-11-01T09:10:09.000Z</time>
      </trkpt>
      <trkpt lat="47.5082" lon="6.75809">
        <ele>415</ele>
        <time>2017-11-01T09:10:10.000Z</time>
      </trkpt>
      <trkpt lat="47.5082" lon="6.75804">
        <ele>415</ele>
        <time>2017-11-01T09:10:11.000Z</time>
      </trkpt>
      <trkpt lat="47.5082" lon="6.758">
        <ele>414.9</ele>
        <time>2017-11-01T09:10:12.000Z</time>
      </trkpt>
      <trkpt lat="47.5082" lon="6.75796">
        <ele>414.8</ele>
        <time>2017-11-01T09:10:13.000Z</time>
      </trkpt>
      <trkpt lat="47.50821" lon="6.75792">
        <ele>414.9</ele>
        <time>2017-11-01T09:10:14.000Z</time>
      </trkpt>
      <trkpt lat="47.50822" lon="6.75787">
        <ele>414.9</ele>
        <time>2017-11-01T09:10:15.000Z</time>
      </trkpt>
      <trkpt lat="47.50823" lon="6.75783">
        <ele>415</ele>
        <time>2017-11-01T09:10:16.000Z</time>
      </trkpt>
      <trkpt lat="47.50825" lon="6.75777">
        <ele>415.1</ele>
        <time>2017-11-01T09:10:17.000Z</time>
      </trkpt>
      <trkpt lat="47.50828" lon="6.75773">
        <ele>415.5</ele>
        <time>2017-11-01T09:10:21.000Z</time>
      </trkpt>
      <trkpt lat="47.50828" lon="6.75771">
        <ele>415.7</ele>
        <time>2017-11-01T09:10:22.000Z</time>
      </trkpt>
      <trkpt lat="47.50832" lon="6.75769">
        <ele>416.6</ele>
        <time>2017-11-01T09:10:26.000Z</time>
      </trkpt>
      <trkpt lat="47.50834" lon="6.75769">
        <ele>416.9</ele>
        <time>2017-11-01T09:10:27.000Z</time>
      </trkpt>
      <trkpt lat="47.50837" lon="6.7577">
        <ele>417.3</ele>
        <time>2017-11-01T09:10:29.000Z</time>
      </trkpt>
      <trkpt lat="47.50839" lon="6.75771">
        <ele>417.5</ele>
        <time>2017-11-01T09:10:30.000Z</time>
      </trkpt>
      <trkpt lat="47.50842" lon="6.75768">
        <ele>417.7</ele>
        <time>2017-11-01T09:10:33.000Z</time>
      </trkpt>
      <trkpt lat="47.50844" lon="6.75768">
        <ele>417.7</ele>
        <time>2017-11-01T09:10:34.000Z</time>
      </trkpt>
      <trkpt lat="47.50845" lon="6.75766">
        <ele>417.7</ele>
        <time>2017-11-01T09:10:35.000Z</time>
      </trkpt>
      <trkpt lat="47.50848" lon="6.75762">
        <ele>417.8</ele>
        <time>2017-11-01T09:10:36.000Z</time>
      </trkpt>
      <trkpt lat="47.50851" lon="6.75757">
        <ele>418.1</ele>
        <time>2017-11-01T09:10:40.000Z</time>
      </trkpt>
      <trkpt lat="47.50851" lon="6.75756">
        <ele>418.2</ele>
        <time>2017-11-01T09:10:41.000Z</time>
      </trkpt>
      <trkpt lat="47.50847" lon="6.75758">
        <ele>418.7</ele>
        <time>2017-11-01T09:10:59.000Z</time>
      </trkpt>
      <trkpt lat="47.50846" lon="6.75762">
        <ele>418.5</ele>
        <time>2017-11-01T09:11:00.000Z</time>
      </trkpt>
      <trkpt lat="47.50845" lon="6.75764">
        <ele>418.5</ele>
        <time>2017-11-01T09:11:01.000Z</time>
      </trkpt>
      <trkpt lat="47.50843" lon="6.75767">
        <ele>418.3</ele>
        <time>2017-11-01T09:11:02.000Z</time>
      </trkpt>
      <trkpt lat="47.5084" lon="6.75771">
        <ele>418.3</ele>
        <time>2017-11-01T09:11:04.000Z</time>
      </trkpt>
      <trkpt lat="47.50837" lon="6.75773">
        <ele>418.3</ele>
        <time>2017-11-01T09:11:05.000Z</time>
      </trkpt>
      <trkpt lat="47.50833" lon="6.75773">
        <ele>418.2</ele>
        <time>2017-11-01T09:11:07.000Z</time>
      </trkpt>
      <trkpt lat="47.50832" lon="6.75773">
        <ele>418.1</ele>
        <time>2017-11-01T09:11:08.000Z</time>
      </trkpt>
      <trkpt lat="47.50828" lon="6.75774">
        <ele>418.4</ele>
        <time>2017-11-01T09:11:10.000Z</time>
      </trkpt>
      <trkpt lat="47.50828" lon="6.75776">
        <ele>418.7</ele>
        <time>2017-11-01T09:11:11.000Z</time>
      </trkpt>
      <trkpt lat="47.50829" lon="6.75782">
        <ele>419.2</ele>
        <time>2017-11-01T09:11:17.000Z</time>
      </trkpt>
      <trkpt lat="47.5083" lon="6.75783">
        <ele>419.2</ele>
        <time>2017-11-01T09:11:18.000Z</time>
      </trkpt>
      <trkpt lat="47.50833" lon="6.75784">
        <ele>418.6</ele>
        <time>2017-11-01T09:11:21.000Z</time>
      </trkpt>
      <trkpt lat="47.50834" lon="6.75785">
        <ele>418.4</ele>
        <time>2017-11-01T09:11:22.000Z</time>
      </trkpt>
      <trkpt lat="47.50838" lon="6.75786">
        <ele>418.1</ele>
        <time>2017-11-01T09:11:25.000Z</time>
      </trkpt>
      <trkpt lat="47.5084" lon="6.75787">
        <ele>418</ele>
        <time>2017-11-01T09:11:26.000Z</time>
      </trkpt>
      <trkpt lat="47.50842" lon="6.75789">
        <ele>417.9</ele>
        <time>2017-11-01T09:11:27.000Z</time>
      </trkpt>
      <trkpt lat="47.50844" lon="6.7579">
        <ele>417.7</ele>
        <time>2017-11-01T09:11:28.000Z</time>
      </trkpt>
      <trkpt lat="47.50848" lon="6.75791">
        <ele>417.3</ele>
        <time>2017-11-01T09:11:30.000Z</time>
      </trkpt>
      <trkpt lat="47.50852" lon="6.75793">
        <ele>417.3</ele>
        <time>2017-11-01T09:11:31.000Z</time>
      </trkpt>
      <trkpt lat="47.50856" lon="6.75793">
        <ele>417.3</ele>
        <time>2017-11-01T09:11:33.000Z</time>
      </trkpt>
      <trkpt lat="47.50858" lon="6.75793">
        <ele>417.3</ele>
        <time>2017-11-01T09:11:34.000Z</time>
      </trkpt>
      <trkpt lat="47.50862" lon="6.75794">
        <ele>417.7</ele>
        <time>2017-11-01T09:11:37.000Z</time>
      </trkpt>
      <trkpt lat="47.50865" lon="6.75796">
        <ele>417.9</ele>
        <time>2017-11-01T09:11:38.000Z</time>
      </trkpt>
      <trkpt lat="47.50869" lon="6.75797">
        <ele>418.2</ele>
        <time>2017-11-01T09:11:40.000Z</time>
      </trkpt>
      <trkpt lat="47.50871" lon="6.75798">
        <ele>418.4</ele>
        <time>2017-11-01T09:11:41.000Z</time>
      </trkpt>
      <trkpt lat="47.50873" lon="6.75799">
        <ele>418.6</ele>
        <time>2017-11-01T09:11:42.000Z</time>
      </trkpt>
      <trkpt lat="47.50875" lon="6.75801">
        <ele>418.8</ele>
        <time>2017-11-01T09:11:43.000Z</time>
      </trkpt>
      <trkpt lat="47.50879" lon="6.75803">
        <ele>419.5</ele>
        <time>2017-11-01T09:11:46.000Z</time>
      </trkpt>
      <trkpt lat="47.50881" lon="6.75804">
        <ele>419.7</ele>
        <time>2017-11-01T09:11:47.000Z</time>
      </trkpt>
      <trkpt lat="47.50884" lon="6.75804">
        <ele>420.1</ele>
        <time>2017-11-01T09:11:49.000Z</time>
      </trkpt>
      <trkpt lat="47.50887" lon="6.75805">
        <ele>420.3</ele>
        <time>2017-11-01T09:11:50.000Z</time>
      </trkpt>
      <trkpt lat="47.5089" lon="6.75806">
        <ele>420.3</ele>
        <time>2017-11-01T09:11:51.000Z</time>
      </trkpt>
      <trkpt lat="47.50892" lon="6.75806">
        <ele>420.3</ele>
        <time>2017-11-01T09:11:52.000Z</time>
      </trkpt>
      <trkpt lat="47.50895" lon="6.75807">
        <ele>420.3</ele>
        <time>2017-11-01T09:11:53.000Z</time>
      </trkpt>
      <trkpt lat="47.509" lon="6.75808">
        <ele>420.3</ele>
        <time>2017-11-01T09:11:54.000Z</time>
      </trkpt>
      <trkpt lat="47.50905" lon="6.75809">
        <ele>420.3</ele>
        <time>2017-11-01T09:11:55.000Z</time>
      </trkpt>
      <trkpt lat="47.5091" lon="6.7581">
        <ele>420.3</ele>
        <time>2017-11-01T09:11:56.000Z</time>
      </trkpt>
      <trkpt lat="47.50913" lon="6.75809">
        <ele>420.3</ele>
        <time>2017-11-01T09:11:57.000Z</time>
      </trkpt>
      <trkpt lat="47.50917" lon="6.7581">
        <ele>420.2</ele>
        <time>2017-11-01T09:11:58.000Z</time>
      </trkpt>
      <trkpt lat="47.50919" lon="6.75811">
        <ele>420.1</ele>
        <time>2017-11-01T09:11:59.000Z</time>
      </trkpt>
      <trkpt lat="47.50921" lon="6.75812">
        <ele>420.1</ele>
        <time>2017-11-01T09:12:00.000Z</time>
      </trkpt>
      <trkpt lat="47.50924" lon="6.75813">
        <ele>419.9</ele>
        <time>2017-11-01T09:12:01.000Z</time>
      </trkpt>
      <trkpt lat="47.50927" lon="6.75814">
        <ele>419.8</ele>
        <time>2017-11-01T09:12:02.000Z</time>
      </trkpt>
      <trkpt lat="47.5093" lon="6.75814">
        <ele>419.7</ele>
        <time>2017-11-01T09:12:03.000Z</time>
      </trkpt>
      <trkpt lat="47.50932" lon="6.75815">
        <ele>419.6</ele>
        <time>2017-11-01T09:12:04.000Z</time>
      </trkpt>
      <trkpt lat="47.50936" lon="6.75818">
        <ele>419.4</ele>
        <time>2017-11-01T09:12:05.000Z</time>
      </trkpt>
      <trkpt lat="47.50939" lon="6.75819">
        <ele>419.3</ele>
        <time>2017-11-01T09:12:06.000Z</time>
      </trkpt>
      <trkpt lat="47.50942" lon="6.75818">
        <ele>419.1</ele>
        <time>2017-11-01T09:12:07.000Z</time>
      </trkpt>
      <trkpt lat="47.50946" lon="6.75817">
        <ele>418.9</ele>
        <time>2017-11-01T09:12:08.000Z</time>
      </trkpt>
      <trkpt lat="47.50952" lon="6.75816">
        <ele>418.8</ele>
        <time>2017-11-01T09:12:09.000Z</time>
      </trkpt>
      <trkpt lat="47.50955" lon="6.75818">
        <ele>418.6</ele>
        <time>2017-11-01T09:12:10.000Z</time>
      </trkpt>
      <trkpt lat="47.50959" lon="6.75822">
        <ele>418.4</ele>
        <time>2017-11-01T09:12:11.000Z</time>
      </trkpt>
      <trkpt lat="47.50963" lon="6.75826">
        <ele>418.2</ele>
        <time>2017-11-01T09:12:12.000Z</time>
      </trkpt>
      <trkpt lat="47.50964" lon="6.75832">
        <ele>418.1</ele>
        <time>2017-11-01T09:12:13.000Z</time>
      </trkpt>
      <trkpt lat="47.50966" lon="6.75835">
        <ele>417.8</ele>
        <time>2017-11-01T09:12:14.000Z</time>
      </trkpt>
      <trkpt lat="47.5097" lon="6.75835">
        <ele>417.4</ele>
        <time>2017-11-01T09:12:18.000Z</time>
      </trkpt>
      <trkpt lat="47.50974" lon="6.75835">
        <ele>417.4</ele>
        <time>2017-11-01T09:12:19.000Z</time>
      </trkpt>
      <trkpt lat="47.50979" lon="6.75836">
        <ele>417.4</ele>
        <time>2017-11-01T09:12:20.000Z</time>
      </trkpt>
      <trkpt lat="47.50982" lon="6.75839">
        <ele>417.3</ele>
        <time>2017-11-01T09:12:21.000Z</time>
      </trkpt>
      <trkpt lat="47.50983" lon="6.7584">
        <ele>417.2</ele>
        <time>2017-11-01T09:12:22.000Z</time>
      </trkpt>
      <trkpt lat="47.50988" lon="6.7584">
        <ele>416.6</ele>
        <time>2017-11-01T09:12:25.000Z</time>
      </trkpt>
      <trkpt lat="47.50988" lon="6.7584">
        <ele>416.3</ele>
        <time>2017-11-01T09:12:26.000Z</time>
      </trkpt>
      <trkpt lat="47.50991" lon="6.75839">
        <ele>416</ele>
        <time>2017-11-01T09:12:28.000Z</time>
      </trkpt>
      <trkpt lat="47.50997" lon="6.75837">
        <ele>415.6</ele>
        <time>2017-11-01T09:12:29.000Z</time>
      </trkpt>
      <trkpt lat="47.51003" lon="6.75834">
        <ele>415.3</ele>
        <time>2017-11-01T09:12:30.000Z</time>
      </trkpt>
      <trkpt lat="47.51011" lon="6.7583">
        <ele>415</ele>
        <time>2017-11-01T09:12:31.000Z</time>
      </trkpt>
      <trkpt lat="47.51019" lon="6.75829">
        <ele>412.5</ele>
        <time>2017-11-01T09:12:32.000Z</time>
      </trkpt>
      <trkpt lat="47.51026" lon="6.75829">
        <ele>410.4</ele>
        <time>2017-11-01T09:12:33.000Z</time>
      </trkpt>
      <trkpt lat="47.51032" lon="6.75831">
        <ele>410.2</ele>
        <time>2017-11-01T09:12:34.000Z</time>
      </trkpt>
      <trkpt lat="47.51038" lon="6.75831">
        <ele>410</ele>
        <time>2017-11-01T09:12:35.000Z</time>
      </trkpt>
      <trkpt lat="47.51044" lon="6.7583">
        <ele>409.7</ele>
        <time>2017-11-01T09:12:36.000Z</time>
      </trkpt>
      <trkpt lat="47.51045" lon="6.75828">
        <ele>409.5</ele>
        <time>2017-11-01T09:12:37.000Z</time>
      </trkpt>
      <trkpt lat="47.51049" lon="6.75829">
        <ele>409.3</ele>
        <time>2017-11-01T09:12:38.000Z</time>
      </trkpt>
      <trkpt lat="47.51051" lon="6.75827">
        <ele>409</ele>
        <time>2017-11-01T09:12:39.000Z</time>
      </trkpt>
      <trkpt lat="47.51057" lon="6.75825">
        <ele>408.8</ele>
        <time>2017-11-01T09:12:40.000Z</time>
      </trkpt>
      <trkpt lat="47.5106" lon="6.75827">
        <ele>408.5</ele>
        <time>2017-11-01T09:12:42.000Z</time>
      </trkpt>
      <trkpt lat="47.51062" lon="6.75827">
        <ele>408.3</ele>
        <time>2017-11-01T09:12:43.000Z</time>
      </trkpt>
      <trkpt lat="47.51065" lon="6.75828">
        <ele>408.2</ele>
        <time>2017-11-01T09:12:44.000Z</time>
      </trkpt>
      <trkpt lat="47.51067" lon="6.75827">
        <ele>408</ele>
        <time>2017-11-01T09:12:45.000Z</time>
      </trkpt>
      <trkpt lat="47.51069" lon="6.75827">
        <ele>407.7</ele>
        <time>2017-11-01T09:12:46.000Z</time>
      </trkpt>
      <trkpt lat="47.51071" lon="6.75826">
        <ele>407.4</ele>
        <time>2017-11-01T09:12:47.000Z</time>
      </trkpt>
      <trkpt lat="47.51075" lon="6.75825">
        <ele>404.3</ele>
        <time>2017-11-01T09:13:28.000Z</time>
      </trkpt>
      <trkpt lat="47.51077" lon="6.75825">
        <ele>403.8</ele>
        <time>2017-11-01T09:13:29.000Z</time>
      </trkpt>
      <trkpt lat="47.51079" lon="6.75825">
        <ele>403.4</ele>
        <time>2017-11-01T09:13:30.000Z</time>
      </trkpt>
      <trkpt lat="47.51083" lon="6.75827">
        <ele>403</ele>
        <time>2017-11-01T09:13:31.000Z</time>
      </trkpt>
      <trkpt lat="47.51084" lon="6.75826">
        <ele>402.5</ele>
        <time>2017-11-01T09:13:32.000Z</time>
      </trkpt>
      <trkpt lat="47.51089" lon="6.75823">
        <ele>402</ele>
        <time>2017-11-01T09:13:33.000Z</time>
      </trkpt>
      <trkpt lat="47.51093" lon="6.75821">
        <ele>401.5</ele>
        <time>2017-11-01T09:13:34.000Z</time>
      </trkpt>
      <trkpt lat="47.51097" lon="6.75819">
        <ele>401.1</ele>
        <time>2017-11-01T09:13:35.000Z</time>
      </trkpt>
      <trkpt lat="47.511" lon="6.75817">
        <ele>400.7</ele>
        <time>2017-11-01T09:13:36.000Z</time>
      </trkpt>
      <trkpt lat="47.51102" lon="6.75814">
        <ele>400.2</ele>
        <time>2017-11-01T09:13:37.000Z</time>
      </trkpt>
      <trkpt lat="47.51104" lon="6.7581">
        <ele>399.4</ele>
        <time>2017-11-01T09:13:39.000Z</time>
      </trkpt>
      <trkpt lat="47.51107" lon="6.75808">
        <ele>398.8</ele>
        <time>2017-11-01T09:13:40.000Z</time>
      </trkpt>
      <trkpt lat="47.5111" lon="6.75806">
        <ele>398.4</ele>
        <time>2017-11-01T09:13:41.000Z</time>
      </trkpt>
      <trkpt lat="47.51116" lon="6.75803">
        <ele>398</ele>
        <time>2017-11-01T09:13:42.000Z</time>
      </trkpt>
      <trkpt lat="47.51121" lon="6.75801">
        <ele>397.5</ele>
        <time>2017-11-01T09:13:43.000Z</time>
      </trkpt>
      <trkpt lat="47.51126" lon="6.75801">
        <ele>397</ele>
        <time>2017-11-01T09:13:44.000Z</time>
      </trkpt>
      <trkpt lat="47.5113" lon="6.758">
        <ele>396.5</ele>
        <time>2017-11-01T09:13:45.000Z</time>
      </trkpt>
      <trkpt lat="47.51134" lon="6.75798">
        <ele>392</ele>
        <time>2017-11-01T09:13:46.000Z</time>
      </trkpt>
      <trkpt lat="47.51139" lon="6.75795">
        <ele>391.7</ele>
        <time>2017-11-01T09:13:47.000Z</time>
      </trkpt>
      <trkpt lat="47.51143" lon="6.75791">
        <ele>391.4</ele>
        <time>2017-11-01T09:13:48.000Z</time>
      </trkpt>
      <trkpt lat="47.51146" lon="6.7579">
        <ele>391.2</ele>
        <time>2017-11-01T09:13:49.000Z</time>
      </trkpt>
      <trkpt lat="47.51151" lon="6.75787">
        <ele>391</ele>
        <time>2017-11-01T09:13:50.000Z</time>
      </trkpt>
      <trkpt lat="47.51156" lon="6.75787">
        <ele>390.8</ele>
        <time>2017-11-01T09:13:51.000Z</time>
      </trkpt>
      <trkpt lat="47.51157" lon="6.75788">
        <ele>390.6</ele>
        <time>2017-11-01T09:13:52.000Z</time>
      </trkpt>
      <trkpt lat="47.51161" lon="6.75789">
        <ele>390.3</ele>
        <time>2017-11-01T09:13:53.000Z</time>
      </trkpt>
      <trkpt lat="47.51165" lon="6.7579">
        <ele>389.9</ele>
        <time>2017-11-01T09:13:55.000Z</time>
      </trkpt>
      <trkpt lat="47.51166" lon="6.75789">
        <ele>389.7</ele>
        <time>2017-11-01T09:13:56.000Z</time>
      </trkpt>
      <trkpt lat="47.51167" lon="6.75783">
        <ele>388.4</ele>
        <time>2017-11-01T09:14:21.000Z</time>
      </trkpt>
      <trkpt lat="47.51168" lon="6.75783">
        <ele>388.1</ele>
        <time>2017-11-01T09:14:22.000Z</time>
      </trkpt>
      <trkpt lat="47.51169" lon="6.75778">
        <ele>385.3</ele>
        <time>2017-11-01T09:14:30.000Z</time>
      </trkpt>
      <trkpt lat="47.51171" lon="6.75777">
        <ele>385.2</ele>
        <time>2017-11-01T09:14:31.000Z</time>
      </trkpt>
      <trkpt lat="47.51173" lon="6.75772">
        <ele>385</ele>
        <time>2017-11-01T09:14:40.000Z</time>
      </trkpt>
      <trkpt lat="47.51173" lon="6.75771">
        <ele>385</ele>
        <time>2017-11-01T09:14:41.000Z</time>
      </trkpt>
      <trkpt lat="47.5117" lon="6.75766">
        <ele>385.4</ele>
        <time>2017-11-01T09:14:46.000Z</time>
      </trkpt>
      <trkpt lat="47.5117" lon="6.75763">
        <ele>385.6</ele>
        <time>2017-11-01T09:14:47.000Z</time>
      </trkpt>
      <trkpt lat="47.51169" lon="6.75757">
        <ele>386.2</ele>
        <time>2017-11-01T09:14:49.000Z</time>
      </trkpt>
      <trkpt lat="47.51167" lon="6.75753">
        <ele>386.5</ele>
        <time>2017-11-01T09:14:50.000Z</time>
      </trkpt>
      <trkpt lat="47.51167" lon="6.75748">
        <ele>387</ele>
        <time>2017-11-01T09:14:52.000Z</time>
      </trkpt>
      <trkpt lat="47.51166" lon="6.75746">
        <ele>387.2</ele>
        <time>2017-11-01T09:14:53.000Z</time>
      </trkpt>
      <trkpt lat="47.51165" lon="6.7574">
        <ele>387.4</ele>
        <time>2017-11-01T09:14:55.000Z</time>
      </trkpt>
      <trkpt lat="47.51165" lon="6.75737">
        <ele>387.4</ele>
        <time>2017-11-01T09:14:56.000Z</time>
      </trkpt>
      <trkpt lat="47.51165" lon="6.75731">
        <ele>387.3</ele>
        <time>2017-11-01T09:14:58.000Z</time>
      </trkpt>
      <trkpt lat="47.51165" lon="6.75727">
        <ele>387.2</ele>
        <time>2017-11-01T09:14:59.000Z</time>
      </trkpt>
      <trkpt lat="47.51163" lon="6.75721">
        <ele>387.2</ele>
        <time>2017-11-01T09:15:01.000Z</time>
      </trkpt>
      <trkpt lat="47.51162" lon="6.75718">
        <ele>387.1</ele>
        <time>2017-11-01T09:15:02.000Z</time>
      </trkpt>
      <trkpt lat="47.51159" lon="6.75715">
        <ele>387</ele>
        <time>2017-11-01T09:15:04.000Z</time>
      </trkpt>
      <trkpt lat="47.51159" lon="6.75712">
        <ele>387</ele>
        <time>2017-11-01T09:15:05.000Z</time>
      </trkpt>
      <trkpt lat="47.51157" lon="6.75708">
        <ele>386.9</ele>
        <time>2017-11-01T09:15:06.000Z</time>
      </trkpt>
      <trkpt lat="47.51157" lon="6.75706">
        <ele>386.9</ele>
        <time>2017-11-01T09:15:07.000Z</time>
      </trkpt>
      <trkpt lat="47.51155" lon="6.75703">
        <ele>386.9</ele>
        <time>2017-11-01T09:15:08.000Z</time>
      </trkpt>
      <trkpt lat="47.51154" lon="6.757">
        <ele>387.1</ele>
        <time>2017-11-01T09:15:09.000Z</time>
      </trkpt>
      <trkpt lat="47.51153" lon="6.75696">
        <ele>387.2</ele>
        <time>2017-11-01T09:15:10.000Z</time>
      </trkpt>
      <trkpt lat="47.51152" lon="6.75692">
        <ele>387.3</ele>
        <time>2017-11-01T09:15:11.000Z</time>
      </trkpt>
      <trkpt lat="47.5115" lon="6.75687">
        <ele>387.4</ele>
        <time>2017-11-01T09:15:12.000Z</time>
      </trkpt>
      <trkpt lat="47.51148" lon="6.75684">
        <ele>387.5</ele>
        <time>2017-11-01T09:15:13.000Z</time>
      </trkpt>
      <trkpt lat="47.51145" lon="6.75678">
        <ele>387.7</ele>
        <time>2017-11-01T09:15:14.000Z</time>
      </trkpt>
      <trkpt lat="47.51142" lon="6.75672">
        <ele>387.9</ele>
        <time>2017-11-01T09:15:15.000Z</time>
      </trkpt>
      <trkpt lat="47.5114" lon="6.75669">
        <ele>388.1</ele>
        <time>2017-11-01T09:15:16.000Z</time>
      </trkpt>
      <trkpt lat="47.51138" lon="6.75665">
        <ele>388.2</ele>
        <time>2017-11-01T09:15:17.000Z</time>
      </trkpt>
      <trkpt lat="47.51137" lon="6.75659">
        <ele>388.4</ele>
        <time>2017-11-01T09:15:18.000Z</time>
      </trkpt>
      <trkpt lat="47.51137" lon="6.75655">
        <ele>388.5</ele>
        <time>2017-11-01T09:15:19.000Z</time>
      </trkpt>
      <trkpt lat="47.51136" lon="6.7565">
        <ele>388.7</ele>
        <time>2017-11-01T09:15:20.000Z</time>
      </trkpt>
      <trkpt lat="47.51135" lon="6.75646">
        <ele>388.9</ele>
        <time>2017-11-01T09:15:21.000Z</time>
      </trkpt>
      <trkpt lat="47.51133" lon="6.75639">
        <ele>389.1</ele>
        <time>2017-11-01T09:15:22.000Z</time>
      </trkpt>
      <trkpt lat="47.51132" lon="6.75636">
        <ele>389.2</ele>
        <time>2017-11-01T09:15:23.000Z</time>
      </trkpt>
      <trkpt lat="47.51132" lon="6.75632">
        <ele>389.3</ele>
        <time>2017-11-01T09:15:24.000Z</time>
      </trkpt>
      <trkpt lat="47.5113" lon="6.75628">
        <ele>389.5</ele>
        <time>2017-11-01T09:15:25.000Z</time>
      </trkpt>
      <trkpt lat="47.51129" lon="6.75625">
        <ele>389.6</ele>
        <time>2017-11-01T09:15:26.000Z</time>
      </trkpt>
      <trkpt lat="47.51128" lon="6.75622">
        <ele>389.7</ele>
        <time>2017-11-01T09:15:27.000Z</time>
      </trkpt>
      <trkpt lat="47.51127" lon="6.75618">
        <ele>389.8</ele>
        <time>2017-11-01T09:15:28.000Z</time>
      </trkpt>
      <trkpt lat="47.51126" lon="6.75613">
        <ele>389.8</ele>
        <time>2017-11-01T09:15:29.000Z</time>
      </trkpt>
      <trkpt lat="47.51125" lon="6.75609">
        <ele>389.7</ele>
        <time>2017-11-01T09:15:30.000Z</time>
      </trkpt>
      <trkpt lat="47.51123" lon="6.75606">
        <ele>389.7</ele>
        <time>2017-11-01T09:15:31.000Z</time>
      </trkpt>
      <trkpt lat="47.51122" lon="6.75602">
        <ele>389.6</ele>
        <time>2017-11-01T09:15:32.000Z</time>
      </trkpt>
      <trkpt lat="47.5112" lon="6.75598">
        <ele>389.6</ele>
        <time>2017-11-01T09:15:33.000Z</time>
      </trkpt>
      <trkpt lat="47.51118" lon="6.75592">
        <ele>389.4</ele>
        <time>2017-11-01T09:15:34.000Z</time>
      </trkpt>
      <trkpt lat="47.51117" lon="6.75589">
        <ele>389.3</ele>
        <time>2017-11-01T09:15:35.000Z</time>
      </trkpt>
      <trkpt lat="47.51116" lon="6.75586">
        <ele>389.2</ele>
        <time>2017-11-01T09:15:36.000Z</time>
      </trkpt>
      <trkpt lat="47.51114" lon="6.75583">
        <ele>389.1</ele>
        <time>2017-11-01T09:15:37.000Z</time>
      </trkpt>
      <trkpt lat="47.51112" lon="6.75579">
        <ele>389</ele>
        <time>2017-11-01T09:15:38.000Z</time>
      </trkpt>
      <trkpt lat="47.51111" lon="6.75577">
        <ele>389</ele>
        <time>2017-11-01T09:15:39.000Z</time>
      </trkpt>
      <trkpt lat="47.5111" lon="6.75573">
        <ele>389.1</ele>
        <time>2017-11-01T09:15:40.000Z</time>
      </trkpt>
      <trkpt lat="47.51109" lon="6.75569">
        <ele>389.2</ele>
        <time>2017-11-01T09:15:41.000Z</time>
      </trkpt>
      <trkpt lat="47.51108" lon="6.75564">
        <ele>389.3</ele>
        <time>2017-11-01T09:15:42.000Z</time>
      </trkpt>
      <trkpt lat="47.51108" lon="6.75559">
        <ele>389.4</ele>
        <time>2017-11-01T09:15:43.000Z</time>
      </trkpt>
      <trkpt lat="47.51107" lon="6.75556">
        <ele>389.4</ele>
        <time>2017-11-01T09:15:44.000Z</time>
      </trkpt>
      <trkpt lat="47.51105" lon="6.75549">
        <ele>389.4</ele>
        <time>2017-11-01T09:15:45.000Z</time>
      </trkpt>
      <trkpt lat="47.51104" lon="6.75543">
        <ele>389.4</ele>
        <time>2017-11-01T09:15:51.000Z</time>
      </trkpt>
      <trkpt lat="47.51103" lon="6.75539">
        <ele>389.4</ele>
        <time>2017-11-01T09:15:52.000Z</time>
      </trkpt>
      <trkpt lat="47.51103" lon="6.75534">
        <ele>389.4</ele>
        <time>2017-11-01T09:15:53.000Z</time>
      </trkpt>
      <trkpt lat="47.51102" lon="6.75524">
        <ele>389.3</ele>
        <time>2017-11-01T09:15:54.000Z</time>
      </trkpt>
      <trkpt lat="47.511" lon="6.75518">
        <ele>389.3</ele>
        <time>2017-11-01T09:15:55.000Z</time>
      </trkpt>
      <trkpt lat="47.51097" lon="6.75511">
        <ele>389.3</ele>
        <time>2017-11-01T09:15:56.000Z</time>
      </trkpt>
      <trkpt lat="47.51094" lon="6.75506">
        <ele>389.2</ele>
        <time>2017-11-01T09:15:57.000Z</time>
      </trkpt>
      <trkpt lat="47.51091" lon="6.75502">
        <ele>389.1</ele>
        <time>2017-11-01T09:15:58.000Z</time>
      </trkpt>
      <trkpt lat="47.51089" lon="6.75498">
        <ele>389.1</ele>
        <time>2017-11-01T09:15:59.000Z</time>
      </trkpt>
      <trkpt lat="47.51086" lon="6.75494">
        <ele>389</ele>
        <time>2017-11-01T09:16:00.000Z</time>
      </trkpt>
      <trkpt lat="47.51084" lon="6.75489">
        <ele>388.9</ele>
        <time>2017-11-01T09:16:02.000Z</time>
      </trkpt>
      <trkpt lat="47.51083" lon="6.75485">
        <ele>388.8</ele>
        <time>2017-11-01T09:16:03.000Z</time>
      </trkpt>
      <trkpt lat="47.51081" lon="6.75481">
        <ele>388.7</ele>
        <time>2017-11-01T09:16:04.000Z</time>
      </trkpt>
      <trkpt lat="47.51079" lon="6.75477">
        <ele>388.7</ele>
        <time>2017-11-01T09:16:05.000Z</time>
      </trkpt>
      <trkpt lat="47.51077" lon="6.75473">
        <ele>388.6</ele>
        <time>2017-11-01T09:16:06.000Z</time>
      </trkpt>
      <trkpt lat="47.51075" lon="6.75469">
        <ele>388.6</ele>
        <time>2017-11-01T09:16:07.000Z</time>
      </trkpt>
      <trkpt lat="47.51073" lon="6.75465">
        <ele>388.4</ele>
        <time>2017-11-01T09:16:08.000Z</time>
      </trkpt>
      <trkpt lat="47.51071" lon="6.75457">
        <ele>388.3</ele>
        <time>2017-11-01T09:16:09.000Z</time>
      </trkpt>
      <trkpt lat="47.51068" lon="6.7545">
        <ele>388.1</ele>
        <time>2017-11-01T09:16:10.000Z</time>
      </trkpt>
      <trkpt lat="47.51066" lon="6.75446">
        <ele>388</ele>
        <time>2017-11-01T09:16:11.000Z</time>
      </trkpt>
      <trkpt lat="47.51064" lon="6.75442">
        <ele>387.9</ele>
        <time>2017-11-01T09:16:12.000Z</time>
      </trkpt>
      <trkpt lat="47.51062" lon="6.75438">
        <ele>387.8</ele>
        <time>2017-11-01T09:16:13.000Z</time>
      </trkpt>
      <trkpt lat="47.51061" lon="6.75434">
        <ele>387.7</ele>
        <time>2017-11-01T09:16:14.000Z</time>
      </trkpt>
      <trkpt lat="47.51059" lon="6.7543">
        <ele>387.7</ele>
        <time>2017-11-01T09:16:15.000Z</time>
      </trkpt>
      <trkpt lat="47.51057" lon="6.75426">
        <ele>387.7</ele>
        <time>2017-11-01T09:16:16.000Z</time>
      </trkpt>
      <trkpt lat="47.51055" lon="6.75419">
        <ele>387.8</ele>
        <time>2017-11-01T09:16:17.000Z</time>
      </trkpt>
      <trkpt lat="47.51054" lon="6.75415">
        <ele>387.8</ele>
        <time>2017-11-01T09:16:18.000Z</time>
      </trkpt>
      <trkpt lat="47.51053" lon="6.75412">
        <ele>387.8</ele>
        <time>2017-11-01T09:16:19.000Z</time>
      </trkpt>
      <trkpt lat="47.51051" lon="6.75405">
        <ele>387.8</ele>
        <time>2017-11-01T09:16:20.000Z</time>
      </trkpt>
      <trkpt lat="47.51049" lon="6.75401">
        <ele>387.6</ele>
        <time>2017-11-01T09:16:22.000Z</time>
      </trkpt>
      <trkpt lat="47.51048" lon="6.75398">
        <ele>387.4</ele>
        <time>2017-11-01T09:16:23.000Z</time>
      </trkpt>
      <trkpt lat="47.51047" lon="6.75392">
        <ele>387.2</ele>
        <time>2017-11-01T09:16:24.000Z</time>
      </trkpt>
      <trkpt lat="47.51045" lon="6.75389">
        <ele>387.1</ele>
        <time>2017-11-01T09:16:25.000Z</time>
      </trkpt>
      <trkpt lat="47.51043" lon="6.75385">
        <ele>386.6</ele>
        <time>2017-11-01T09:16:28.000Z</time>
      </trkpt>
      <trkpt lat="47.51041" lon="6.75383">
        <ele>386.3</ele>
        <time>2017-11-01T09:16:29.000Z</time>
      </trkpt>
      <trkpt lat="47.51039" lon="6.75379">
        <ele>386</ele>
        <time>2017-11-01T09:16:31.000Z</time>
      </trkpt>
      <trkpt lat="47.51038" lon="6.75377">
        <ele>385.9</ele>
        <time>2017-11-01T09:16:32.000Z</time>
      </trkpt>
      <trkpt lat="47.51039" lon="6.75371">
        <ele>385.6</ele>
        <time>2017-11-01T09:16:34.000Z</time>
      </trkpt>
      <trkpt lat="47.5104" lon="6.7537">
        <ele>385.3</ele>
        <time>2017-11-01T09:16:35.000Z</time>
      </trkpt>
      <trkpt lat="47.51042" lon="6.75371">
        <ele>384.4</ele>
        <time>2017-11-01T09:16:38.000Z</time>
      </trkpt>
      <trkpt lat="47.51044" lon="6.75372">
        <ele>384.1</ele>
        <time>2017-11-01T09:16:39.000Z</time>
      </trkpt>
      <trkpt lat="47.51048" lon="6.75372">
        <ele>383.7</ele>
        <time>2017-11-01T09:16:41.000Z</time>
      </trkpt>
      <trkpt lat="47.5105" lon="6.75371">
        <ele>383.6</ele>
        <time>2017-11-01T09:16:42.000Z</time>
      </trkpt>
      <trkpt lat="47.51054" lon="6.75372">
        <ele>382.2</ele>
        <time>2017-11-01T09:16:48.000Z</time>
      </trkpt>
      <trkpt lat="47.51055" lon="6.75373">
        <ele>382</ele>
        <time>2017-11-01T09:16:49.000Z</time>
      </trkpt>
      <trkpt lat="47.51053" lon="6.75376">
        <ele>375.3</ele>
        <time>2017-11-01T09:19:21.000Z</time>
      </trkpt>
      <trkpt lat="47.51051" lon="6.75377">
        <ele>375.5</ele>
        <time>2017-11-01T09:19:22.000Z</time>
      </trkpt>
      <trkpt lat="47.51044" lon="6.75376">
        <ele>375.6</ele>
        <time>2017-11-01T09:19:23.000Z</time>
      </trkpt>
      <trkpt lat="47.5104" lon="6.75377">
        <ele>375.8</ele>
        <time>2017-11-01T09:19:24.000Z</time>
      </trkpt>
      <trkpt lat="47.51035" lon="6.75377">
        <ele>375.8</ele>
        <time>2017-11-01T09:19:25.000Z</time>
      </trkpt>
      <trkpt lat="47.51031" lon="6.75378">
        <ele>375.8</ele>
        <time>2017-11-01T09:19:26.000Z</time>
      </trkpt>
      <trkpt lat="47.51026" lon="6.75378">
        <ele>375.9</ele>
        <time>2017-11-01T09:19:27.000Z</time>
      </trkpt>
      <trkpt lat="47.51021" lon="6.75378">
        <ele>375.9</ele>
        <time>2017-11-01T09:19:28.000Z</time>
      </trkpt>
      <trkpt lat="47.51018" lon="6.75377">
        <ele>375.9</ele>
        <time>2017-11-01T09:19:29.000Z</time>
      </trkpt>
      <trkpt lat="47.51014" lon="6.75377">
        <ele>375.9</ele>
        <time>2017-11-01T09:19:30.000Z</time>
      </trkpt>
      <trkpt lat="47.5101" lon="6.75375">
        <ele>375.9</ele>
        <time>2017-11-01T09:19:31.000Z</time>
      </trkpt>
      <trkpt lat="47.51007" lon="6.75375">
        <ele>376.3</ele>
        <time>2017-11-01T09:19:32.000Z</time>
      </trkpt>
      <trkpt lat="47.51003" lon="6.75374">
        <ele>376.1</ele>
        <time>2017-11-01T09:19:33.000Z</time>
      </trkpt>
      <trkpt lat="47.50999" lon="6.75373">
        <ele>375.4</ele>
        <time>2017-11-01T09:19:34.000Z</time>
      </trkpt>
      <trkpt lat="47.50995" lon="6.75371">
        <ele>374.3</ele>
        <time>2017-11-01T09:19:35.000Z</time>
      </trkpt>
      <trkpt lat="47.50991" lon="6.7537">
        <ele>373.8</ele>
        <time>2017-11-01T09:19:36.000Z</time>
      </trkpt>
      <trkpt lat="47.50988" lon="6.75367">
        <ele>373.7</ele>
        <time>2017-11-01T09:19:37.000Z</time>
      </trkpt>
      <trkpt lat="47.50985" lon="6.75365">
        <ele>373.6</ele>
        <time>2017-11-01T09:19:38.000Z</time>
      </trkpt>
      <trkpt lat="47.50981" lon="6.75363">
        <ele>373.4</ele>
        <time>2017-11-01T09:19:39.000Z</time>
      </trkpt>
      <trkpt lat="47.50978" lon="6.75362">
        <ele>373.2</ele>
        <time>2017-11-01T09:19:40.000Z</time>
      </trkpt>
      <trkpt lat="47.50975" lon="6.75361">
        <ele>373</ele>
        <time>2017-11-01T09:19:41.000Z</time>
      </trkpt>
      <trkpt lat="47.50972" lon="6.7536">
        <ele>372.9</ele>
        <time>2017-11-01T09:19:42.000Z</time>
      </trkpt>
      <trkpt lat="47.50968" lon="6.75359">
        <ele>372.8</ele>
        <time>2017-11-01T09:19:43.000Z</time>
      </trkpt>
      <trkpt lat="47.50964" lon="6.75358">
        <ele>372.6</ele>
        <time>2017-11-01T09:19:44.000Z</time>
      </trkpt>
      <trkpt lat="47.5096" lon="6.75357">
        <ele>372.4</ele>
        <time>2017-11-01T09:19:45.000Z</time>
      </trkpt>
      <trkpt lat="47.50957" lon="6.75357">
        <ele>372.3</ele>
        <time>2017-11-01T09:19:46.000Z</time>
      </trkpt>
      <trkpt lat="47.50954" lon="6.75357">
        <ele>372.3</ele>
        <time>2017-11-01T09:19:47.000Z</time>
      </trkpt>
      <trkpt lat="47.5095" lon="6.75356">
        <ele>372.3</ele>
        <time>2017-11-01T09:19:48.000Z</time>
      </trkpt>
      <trkpt lat="47.50946" lon="6.75356">
        <ele>372.2</ele>
        <time>2017-11-01T09:19:49.000Z</time>
      </trkpt>
      <trkpt lat="47.50943" lon="6.75356">
        <ele>372.1</ele>
        <time>2017-11-01T09:19:50.000Z</time>
      </trkpt>
      <trkpt lat="47.50939" lon="6.75356">
        <ele>372</ele>
        <time>2017-11-01T09:19:51.000Z</time>
      </trkpt>
      <trkpt lat="47.50936" lon="6.75356">
        <ele>372</ele>
        <time>2017-11-01T09:19:52.000Z</time>
      </trkpt>
      <trkpt lat="47.50932" lon="6.75355">
        <ele>372.1</ele>
        <time>2017-11-01T09:19:53.000Z</time>
      </trkpt>
      <trkpt lat="47.50928" lon="6.75353">
        <ele>372.2</ele>
        <time>2017-11-01T09:19:54.000Z</time>
      </trkpt>
      <trkpt lat="47.50924" lon="6.75354">
        <ele>372.3</ele>
        <time>2017-11-01T09:19:55.000Z</time>
      </trkpt>
      <trkpt lat="47.5092" lon="6.75354">
        <ele>372.4</ele>
        <time>2017-11-01T09:19:56.000Z</time>
      </trkpt>
      <trkpt lat="47.50917" lon="6.75353">
        <ele>372.5</ele>
        <time>2017-11-01T09:19:57.000Z</time>
      </trkpt>
      <trkpt lat="47.50914" lon="6.75353">
        <ele>372.6</ele>
        <time>2017-11-01T09:19:58.000Z</time>
      </trkpt>
      <trkpt lat="47.50909" lon="6.75351">
        <ele>372.7</ele>
        <time>2017-11-01T09:19:59.000Z</time>
      </trkpt>
      <trkpt lat="47.50905" lon="6.7535">
        <ele>372.7</ele>
        <time>2017-11-01T09:20:00.000Z</time>
      </trkpt>
      <trkpt lat="47.50901" lon="6.75347">
        <ele>372.9</ele>
        <time>2017-11-01T09:20:01.000Z</time>
      </trkpt>
      <trkpt lat="47.50893" lon="6.75343">
        <ele>373</ele>
        <time>2017-11-01T09:20:02.000Z</time>
      </trkpt>
      <trkpt lat="47.5089" lon="6.75341">
        <ele>373.1</ele>
        <time>2017-11-01T09:20:03.000Z</time>
      </trkpt>
      <trkpt lat="47.50886" lon="6.7534">
        <ele>373.2</ele>
        <time>2017-11-01T09:20:04.000Z</time>
      </trkpt>
      <trkpt lat="47.50882" lon="6.75339">
        <ele>373.3</ele>
        <time>2017-11-01T09:20:05.000Z</time>
      </trkpt>
      <trkpt lat="47.50878" lon="6.75338">
        <ele>374.5</ele>
        <time>2017-11-01T09:20:06.000Z</time>
      </trkpt>
      <trkpt lat="47.50874" lon="6.75337">
        <ele>375.9</ele>
        <time>2017-11-01T09:20:07.000Z</time>
      </trkpt>
      <trkpt lat="47.50871" lon="6.75337">
        <ele>376</ele>
        <time>2017-11-01T09:20:08.000Z</time>
      </trkpt>
      <trkpt lat="47.50867" lon="6.75336">
        <ele>376.7</ele>
        <time>2017-11-01T09:20:09.000Z</time>
      </trkpt>
      <trkpt lat="47.50862" lon="6.75335">
        <ele>376.5</ele>
        <time>2017-11-01T09:20:10.000Z</time>
      </trkpt>
      <trkpt lat="47.50858" lon="6.75333">
        <ele>376.2</ele>
        <time>2017-11-01T09:20:11.000Z</time>
      </trkpt>
      <trkpt lat="47.50854" lon="6.75332">
        <ele>375.6</ele>
        <time>2017-11-01T09:20:12.000Z</time>
      </trkpt>
      <trkpt lat="47.5085" lon="6.7533">
        <ele>375.2</ele>
        <time>2017-11-01T09:20:13.000Z</time>
      </trkpt>
      <trkpt lat="47.50846" lon="6.75327">
        <ele>375.8</ele>
        <time>2017-11-01T09:20:14.000Z</time>
      </trkpt>
      <trkpt lat="47.50841" lon="6.75324">
        <ele>376.5</ele>
        <time>2017-11-01T09:20:15.000Z</time>
      </trkpt>
      <trkpt lat="47.50837" lon="6.75322">
        <ele>377.5</ele>
        <time>2017-11-01T09:20:16.000Z</time>
      </trkpt>
      <trkpt lat="47.50833" lon="6.75319">
        <ele>377.9</ele>
        <time>2017-11-01T09:20:17.000Z</time>
      </trkpt>
      <trkpt lat="47.50829" lon="6.75317">
        <ele>378.7</ele>
        <time>2017-11-01T09:20:18.000Z</time>
      </trkpt>
      <trkpt lat="47.50825" lon="6.75315">
        <ele>378.7</ele>
        <time>2017-11-01T09:20:19.000Z</time>
      </trkpt>
      <trkpt lat="47.5082" lon="6.75314">
        <ele>378.1</ele>
        <time>2017-11-01T09:20:20.000Z</time>
      </trkpt>
      <trkpt lat="47.50817" lon="6.75312">
        <ele>378.4</ele>
        <time>2017-11-01T09:20:21.000Z</time>
      </trkpt>
      <trkpt lat="47.50814" lon="6.7531">
        <ele>378.4</ele>
        <time>2017-11-01T09:20:22.000Z</time>
      </trkpt>
      <trkpt lat="47.50811" lon="6.75308">
        <ele>378.3</ele>
        <time>2017-11-01T09:20:23.000Z</time>
      </trkpt>
      <trkpt lat="47.50807" lon="6.75307">
        <ele>378.3</ele>
        <time>2017-11-01T09:20:24.000Z</time>
      </trkpt>
      <trkpt lat="47.50803" lon="6.75305">
        <ele>378.6</ele>
        <time>2017-11-01T09:20:25.000Z</time>
      </trkpt>
      <trkpt lat="47.50799" lon="6.75304">
        <ele>378.7</ele>
        <time>2017-11-01T09:20:26.000Z</time>
      </trkpt>
      <trkpt lat="47.50795" lon="6.75303">
        <ele>378.3</ele>
        <time>2017-11-01T09:20:27.000Z</time>
      </trkpt>
      <trkpt lat="47.50791" lon="6.75302">
        <ele>378.2</ele>
        <time>2017-11-01T09:20:28.000Z</time>
      </trkpt>
      <trkpt lat="47.50787" lon="6.75302">
        <ele>377.8</ele>
        <time>2017-11-01T09:20:29.000Z</time>
      </trkpt>
      <trkpt lat="47.50783" lon="6.75303">
        <ele>377.2</ele>
        <time>2017-11-01T09:20:30.000Z</time>
      </trkpt>
      <trkpt lat="47.50779" lon="6.75305">
        <ele>377.1</ele>
        <time>2017-11-01T09:20:31.000Z</time>
      </trkpt>
      <trkpt lat="47.50774" lon="6.75306">
        <ele>376.9</ele>
        <time>2017-11-01T09:20:32.000Z</time>
      </trkpt>
      <trkpt lat="47.50769" lon="6.75308">
        <ele>376.3</ele>
        <time>2017-11-01T09:20:33.000Z</time>
      </trkpt>
      <trkpt lat="47.50765" lon="6.75311">
        <ele>376.4</ele>
        <time>2017-11-01T09:20:34.000Z</time>
      </trkpt>
      <trkpt lat="47.50762" lon="6.75314">
        <ele>376.4</ele>
        <time>2017-11-01T09:20:35.000Z</time>
      </trkpt>
      <trkpt lat="47.50758" lon="6.75317">
        <ele>375.9</ele>
        <time>2017-11-01T09:20:36.000Z</time>
      </trkpt>
      <trkpt lat="47.50755" lon="6.75319">
        <ele>375.8</ele>
        <time>2017-11-01T09:20:37.000Z</time>
      </trkpt>
      <trkpt lat="47.5075" lon="6.75322">
        <ele>375.4</ele>
        <time>2017-11-01T09:20:38.000Z</time>
      </trkpt>
      <trkpt lat="47.50747" lon="6.75324">
        <ele>375.3</ele>
        <time>2017-11-01T09:20:39.000Z</time>
      </trkpt>
      <trkpt lat="47.50744" lon="6.75326">
        <ele>375.3</ele>
        <time>2017-11-01T09:20:40.000Z</time>
      </trkpt>
      <trkpt lat="47.5074" lon="6.75329">
        <ele>374.9</ele>
        <time>2017-11-01T09:20:41.000Z</time>
      </trkpt>
      <trkpt lat="47.50737" lon="6.75331">
        <ele>374.3</ele>
        <time>2017-11-01T09:20:42.000Z</time>
      </trkpt>
      <trkpt lat="47.50734" lon="6.75333">
        <ele>374.2</ele>
        <time>2017-11-01T09:20:43.000Z</time>
      </trkpt>
      <trkpt lat="47.5073" lon="6.75335">
        <ele>374.1</ele>
        <time>2017-11-01T09:20:44.000Z</time>
      </trkpt>
      <trkpt lat="47.50727" lon="6.75338">
        <ele>374</ele>
        <time>2017-11-01T09:20:45.000Z</time>
      </trkpt>
      <trkpt lat="47.50724" lon="6.75342">
        <ele>373.8</ele>
        <time>2017-11-01T09:20:46.000Z</time>
      </trkpt>
      <trkpt lat="47.5072" lon="6.75342">
        <ele>373</ele>
        <time>2017-11-01T09:21:04.000Z</time>
      </trkpt>
      <trkpt lat="47.5072" lon="6.75342">
        <ele>372.9</ele>
        <time>2017-11-01T09:21:05.000Z</time>
      </trkpt>
      <trkpt lat="47.50716" lon="6.75345">
        <ele>372.8</ele>
        <time>2017-11-01T09:21:07.000Z</time>
      </trkpt>
      <trkpt lat="47.50714" lon="6.75347">
        <ele>372.8</ele>
        <time>2017-11-01T09:21:08.000Z</time>
      </trkpt>
      <trkpt lat="47.50711" lon="6.75349">
        <ele>372.8</ele>
        <time>2017-11-01T09:21:09.000Z</time>
      </trkpt>
      <trkpt lat="47.50709" lon="6.75351">
        <ele>372.8</ele>
        <time>2017-11-01T09:21:10.000Z</time>
      </trkpt>
      <trkpt lat="47.50705" lon="6.75353">
        <ele>372.8</ele>
        <time>2017-11-01T09:21:11.000Z</time>
      </trkpt>
      <trkpt lat="47.50703" lon="6.75354">
        <ele>372.8</ele>
        <time>2017-11-01T09:21:12.000Z</time>
      </trkpt>
      <trkpt lat="47.507" lon="6.75356">
        <ele>372.8</ele>
        <time>2017-11-01T09:21:13.000Z</time>
      </trkpt>
      <trkpt lat="47.50698" lon="6.75358">
        <ele>372.8</ele>
        <time>2017-11-01T09:21:14.000Z</time>
      </trkpt>
      <trkpt lat="47.50696" lon="6.7536">
        <ele>372.9</ele>
        <time>2017-11-01T09:21:15.000Z</time>
      </trkpt>
      <trkpt lat="47.50693" lon="6.75361">
        <ele>372.9</ele>
        <time>2017-11-01T09:21:16.000Z</time>
      </trkpt>
      <trkpt lat="47.50691" lon="6.75361">
        <ele>372.9</ele>
        <time>2017-11-01T09:21:17.000Z</time>
      </trkpt>
      <trkpt lat="47.50687" lon="6.75362">
        <ele>373</ele>
        <time>2017-11-01T09:21:18.000Z</time>
      </trkpt>
      <trkpt lat="47.50684" lon="6.75362">
        <ele>373</ele>
        <time>2017-11-01T09:21:19.000Z</time>
      </trkpt>
      <trkpt lat="47.50682" lon="6.75362">
        <ele>373</ele>
        <time>2017-11-01T09:21:20.000Z</time>
      </trkpt>
      <trkpt lat="47.50679" lon="6.75363">
        <ele>372.9</ele>
        <time>2017-11-01T09:21:21.000Z</time>
      </trkpt>
      <trkpt lat="47.50677" lon="6.75363">
        <ele>372.9</ele>
        <time>2017-11-01T09:21:22.000Z</time>
      </trkpt>
      <trkpt lat="47.50674" lon="6.75364">
        <ele>372.9</ele>
        <time>2017-11-01T09:21:23.000Z</time>
      </trkpt>
      <trkpt lat="47.50671" lon="6.75365">
        <ele>372.8</ele>
        <time>2017-11-01T09:21:24.000Z</time>
      </trkpt>
      <trkpt lat="47.50669" lon="6.75365">
        <ele>372.8</ele>
        <time>2017-11-01T09:21:25.000Z</time>
      </trkpt>
      <trkpt lat="47.50666" lon="6.75365">
        <ele>372.8</ele>
        <time>2017-11-01T09:21:26.000Z</time>
      </trkpt>
      <trkpt lat="47.50664" lon="6.75365">
        <ele>372.8</ele>
        <time>2017-11-01T09:21:27.000Z</time>
      </trkpt>
      <trkpt lat="47.50662" lon="6.75366">
        <ele>372.8</ele>
        <time>2017-11-01T09:21:28.000Z</time>
      </trkpt>
      <trkpt lat="47.50659" lon="6.75367">
        <ele>372.7</ele>
        <time>2017-11-01T09:21:29.000Z</time>
      </trkpt>
      <trkpt lat="47.50656" lon="6.75368">
        <ele>372.7</ele>
        <time>2017-11-01T09:21:30.000Z</time>
      </trkpt>
      <trkpt lat="47.50653" lon="6.75369">
        <ele>372.7</ele>
        <time>2017-11-01T09:21:31.000Z</time>
      </trkpt>
      <trkpt lat="47.5065" lon="6.75371">
        <ele>372.8</ele>
        <time>2017-11-01T09:21:32.000Z</time>
      </trkpt>
      <trkpt lat="47.50647" lon="6.75373">
        <ele>372.8</ele>
        <time>2017-11-01T09:21:33.000Z</time>
      </trkpt>
      <trkpt lat="47.50644" lon="6.75374">
        <ele>372.8</ele>
        <time>2017-11-01T09:21:34.000Z</time>
      </trkpt>
      <trkpt lat="47.50641" lon="6.75376">
        <ele>372.9</ele>
        <time>2017-11-01T09:21:35.000Z</time>
      </trkpt>
      <trkpt lat="47.50637" lon="6.75378">
        <ele>372.9</ele>
        <time>2017-11-01T09:21:36.000Z</time>
      </trkpt>
      <trkpt lat="47.50633" lon="6.75379">
        <ele>372.9</ele>
        <time>2017-11-01T09:21:37.000Z</time>
      </trkpt>
      <trkpt lat="47.5063" lon="6.7538">
        <ele>373</ele>
        <time>2017-11-01T09:21:38.000Z</time>
      </trkpt>
      <trkpt lat="47.50628" lon="6.75381">
        <ele>373</ele>
        <time>2017-11-01T09:21:39.000Z</time>
      </trkpt>
      <trkpt lat="47.50625" lon="6.75383">
        <ele>373</ele>
        <time>2017-11-01T09:21:40.000Z</time>
      </trkpt>
      <trkpt lat="47.50621" lon="6.75385">
        <ele>373.2</ele>
        <time>2017-11-01T09:21:42.000Z</time>
      </trkpt>
      <trkpt lat="47.5062" lon="6.75385">
        <ele>373.2</ele>
        <time>2017-11-01T09:21:43.000Z</time>
      </trkpt>
      <trkpt lat="47.50616" lon="6.75386">
        <ele>373.4</ele>
        <time>2017-11-01T09:21:45.000Z</time>
      </trkpt>
      <trkpt lat="47.50615" lon="6.75387">
        <ele>373.5</ele>
        <time>2017-11-01T09:21:46.000Z</time>
      </trkpt>
      <trkpt lat="47.50611" lon="6.75387">
        <ele>373.6</ele>
        <time>2017-11-01T09:21:48.000Z</time>
      </trkpt>
      <trkpt lat="47.50609" lon="6.75387">
        <ele>373.7</ele>
        <time>2017-11-01T09:21:49.000Z</time>
      </trkpt>
      <trkpt lat="47.50606" lon="6.75387">
        <ele>373.7</ele>
        <time>2017-11-01T09:21:50.000Z</time>
      </trkpt>
      <trkpt lat="47.50603" lon="6.75387">
        <ele>373.8</ele>
        <time>2017-11-01T09:21:51.000Z</time>
      </trkpt>
      <trkpt lat="47.506" lon="6.75386">
        <ele>373.9</ele>
        <time>2017-11-01T09:21:52.000Z</time>
      </trkpt>
      <trkpt lat="47.50597" lon="6.75386">
        <ele>374</ele>
        <time>2017-11-01T09:21:53.000Z</time>
      </trkpt>
      <trkpt lat="47.50592" lon="6.75385">
        <ele>374.1</ele>
        <time>2017-11-01T09:21:54.000Z</time>
      </trkpt>
      <trkpt lat="47.50588" lon="6.75385">
        <ele>375.3</ele>
        <time>2017-11-01T09:21:55.000Z</time>
      </trkpt>
      <trkpt lat="47.50583" lon="6.75384">
        <ele>376.2</ele>
        <time>2017-11-01T09:21:56.000Z</time>
      </trkpt>
      <trkpt lat="47.50579" lon="6.75383">
        <ele>376.8</ele>
        <time>2017-11-01T09:21:57.000Z</time>
      </trkpt>
      <trkpt lat="47.50574" lon="6.75383">
        <ele>377.2</ele>
        <time>2017-11-01T09:21:58.000Z</time>
      </trkpt>
      <trkpt lat="47.50569" lon="6.75382">
        <ele>377.5</ele>
        <time>2017-11-01T09:21:59.000Z</time>
      </trkpt>
      <trkpt lat="47.50565" lon="6.75381">
        <ele>377.8</ele>
        <time>2017-11-01T09:22:00.000Z</time>
      </trkpt>
      <trkpt lat="47.5056" lon="6.75381">
        <ele>377.9</ele>
        <time>2017-11-01T09:22:01.000Z</time>
      </trkpt>
      <trkpt lat="47.50555" lon="6.75379">
        <ele>377.9</ele>
        <time>2017-11-01T09:22:02.000Z</time>
      </trkpt>
      <trkpt lat="47.50551" lon="6.75378">
        <ele>377.6</ele>
        <time>2017-11-01T09:22:03.000Z</time>
      </trkpt>
      <trkpt lat="47.50546" lon="6.75376">
        <ele>377.3</ele>
        <time>2017-11-01T09:22:04.000Z</time>
      </trkpt>
      <trkpt lat="47.5054" lon="6.75374">
        <ele>377.3</ele>
        <time>2017-11-01T09:22:05.000Z</time>
      </trkpt>
      <trkpt lat="47.50535" lon="6.75372">
        <ele>377.5</ele>
        <time>2017-11-01T09:22:06.000Z</time>
      </trkpt>
      <trkpt lat="47.5053" lon="6.75369">
        <ele>376.9</ele>
        <time>2017-11-01T09:22:07.000Z</time>
      </trkpt>
      <trkpt lat="47.50526" lon="6.75366">
        <ele>376.8</ele>
        <time>2017-11-01T09:22:08.000Z</time>
      </trkpt>
      <trkpt lat="47.50522" lon="6.75363">
        <ele>376.7</ele>
        <time>2017-11-01T09:22:09.000Z</time>
      </trkpt>
      <trkpt lat="47.50518" lon="6.75359">
        <ele>376.1</ele>
        <time>2017-11-01T09:22:10.000Z</time>
      </trkpt>
      <trkpt lat="47.50514" lon="6.75355">
        <ele>375</ele>
        <time>2017-11-01T09:22:10.999Z</time>
      </trkpt>
      <trkpt lat="47.50511" lon="6.75349">
        <ele>374</ele>
        <time>2017-11-01T09:22:11.999Z</time>
      </trkpt>
      <trkpt lat="47.50508" lon="6.75343">
        <ele>373.2</ele>
        <time>2017-11-01T09:22:12.999Z</time>
      </trkpt>
      <trkpt lat="47.50506" lon="6.75337">
        <ele>372.5</ele>
        <time>2017-11-01T09:22:13.999Z</time>
      </trkpt>
      <trkpt lat="47.50504" lon="6.7533">
        <ele>372.1</ele>
        <time>2017-11-01T09:22:14.999Z</time>
      </trkpt>
      <trkpt lat="47.50503" lon="6.75323">
        <ele>371.6</ele>
        <time>2017-11-01T09:22:15.999Z</time>
      </trkpt>
      <trkpt lat="47.50501" lon="6.75316">
        <ele>371.3</ele>
        <time>2017-11-01T09:22:16.999Z</time>
      </trkpt>
      <trkpt lat="47.505" lon="6.75309">
        <ele>370.9</ele>
        <time>2017-11-01T09:22:17.999Z</time>
      </trkpt>
      <trkpt lat="47.505" lon="6.75302">
        <ele>370.7</ele>
        <time>2017-11-01T09:22:18.999Z</time>
      </trkpt>
      <trkpt lat="47.50499" lon="6.75296">
        <ele>370.4</ele>
        <time>2017-11-01T09:22:19.999Z</time>
      </trkpt>
      <trkpt lat="47.50499" lon="6.7529">
        <ele>369.9</ele>
        <time>2017-11-01T09:22:20.999Z</time>
      </trkpt>
      <trkpt lat="47.50498" lon="6.75284">
        <ele>369.4</ele>
        <time>2017-11-01T09:22:21.999Z</time>
      </trkpt>
      <trkpt lat="47.50498" lon="6.75278">
        <ele>369.3</ele>
        <time>2017-11-01T09:22:22.999Z</time>
      </trkpt>
      <trkpt lat="47.50497" lon="6.7527">
        <ele>369.1</ele>
        <time>2017-11-01T09:22:23.999Z</time>
      </trkpt>
      <trkpt lat="47.50496" lon="6.75263">
        <ele>368.8</ele>
        <time>2017-11-01T09:22:24.999Z</time>
      </trkpt>
      <trkpt lat="47.50495" lon="6.75256">
        <ele>368.8</ele>
        <time>2017-11-01T09:22:25.999Z</time>
      </trkpt>
      <trkpt lat="47.50494" lon="6.75247">
        <ele>368.2</ele>
        <time>2017-11-01T09:22:26.999Z</time>
      </trkpt>
      <trkpt lat="47.50493" lon="6.75241">
        <ele>368.6</ele>
        <time>2017-11-01T09:22:27.999Z</time>
      </trkpt>
      <trkpt lat="47.50492" lon="6.75233">
        <ele>369.1</ele>
        <time>2017-11-01T09:22:28.999Z</time>
      </trkpt>
      <trkpt lat="47.5049" lon="6.75224">
        <ele>369.3</ele>
        <time>2017-11-01T09:22:29.999Z</time>
      </trkpt>
      <trkpt lat="47.5049" lon="6.75216">
        <ele>369.6</ele>
        <time>2017-11-01T09:22:30.999Z</time>
      </trkpt>
      <trkpt lat="47.50491" lon="6.75209">
        <ele>369.7</ele>
        <time>2017-11-01T09:22:31.999Z</time>
      </trkpt>
      <trkpt lat="47.50491" lon="6.75203">
        <ele>369.9</ele>
        <time>2017-11-01T09:22:32.999Z</time>
      </trkpt>
      <trkpt lat="47.50491" lon="6.75196">
        <ele>370.1</ele>
        <time>2017-11-01T09:22:33.999Z</time>
      </trkpt>
      <trkpt lat="47.50491" lon="6.75189">
        <ele>370.4</ele>
        <time>2017-11-01T09:22:34.999Z</time>
      </trkpt>
      <trkpt lat="47.50492" lon="6.75183">
        <ele>371.2</ele>
        <time>2017-11-01T09:22:35.999Z</time>
      </trkpt>
      <trkpt lat="47.50493" lon="6.75177">
        <ele>371.7</ele>
        <time>2017-11-01T09:22:36.999Z</time>
      </trkpt>
      <trkpt lat="47.50494" lon="6.75173">
        <ele>371.7</ele>
        <time>2017-11-01T09:22:37.999Z</time>
      </trkpt>
      <trkpt lat="47.50496" lon="6.75168">
        <ele>371.8</ele>
        <time>2017-11-01T09:22:38.999Z</time>
      </trkpt>
      <trkpt lat="47.50499" lon="6.75165">
        <ele>372</ele>
        <time>2017-11-01T09:22:40.999Z</time>
      </trkpt>
      <trkpt lat="47.50501" lon="6.75163">
        <ele>372.1</ele>
        <time>2017-11-01T09:22:41.999Z</time>
      </trkpt>
      <trkpt lat="47.50503" lon="6.75161">
        <ele>372.2</ele>
        <time>2017-11-01T09:22:42.999Z</time>
      </trkpt>
      <trkpt lat="47.50506" lon="6.75162">
        <ele>372.2</ele>
        <time>2017-11-01T09:22:43.999Z</time>
      </trkpt>
      <trkpt lat="47.50509" lon="6.75162">
        <ele>372.2</ele>
        <time>2017-11-01T09:22:44.999Z</time>
      </trkpt>
      <trkpt lat="47.50513" lon="6.75162">
        <ele>372.2</ele>
        <time>2017-11-01T09:22:45.999Z</time>
      </trkpt>
      <trkpt lat="47.50516" lon="6.75163">
        <ele>372.2</ele>
        <time>2017-11-01T09:22:46.999Z</time>
      </trkpt>
      <trkpt lat="47.5052" lon="6.75163">
        <ele>372.3</ele>
        <time>2017-11-01T09:22:47.999Z</time>
      </trkpt>
      <trkpt lat="47.50523" lon="6.75163">
        <ele>372.4</ele>
        <time>2017-11-01T09:22:48.999Z</time>
      </trkpt>
      <trkpt lat="47.50527" lon="6.75164">
        <ele>372.4</ele>
        <time>2017-11-01T09:22:49.999Z</time>
      </trkpt>
      <trkpt lat="47.50531" lon="6.75165">
        <ele>372.8</ele>
        <time>2017-11-01T09:22:50.999Z</time>
      </trkpt>
      <trkpt lat="47.50536" lon="6.75167">
        <ele>373.3</ele>
        <time>2017-11-01T09:22:51.999Z</time>
      </trkpt>
      <trkpt lat="47.5054" lon="6.75168">
        <ele>373.3</ele>
        <time>2017-11-01T09:22:52.999Z</time>
      </trkpt>
      <trkpt lat="47.50543" lon="6.75169">
        <ele>373.3</ele>
        <time>2017-11-01T09:22:53.999Z</time>
      </trkpt>
      <trkpt lat="47.50546" lon="6.7517">
        <ele>373.3</ele>
        <time>2017-11-01T09:22:54.999Z</time>
      </trkpt>
      <trkpt lat="47.50549" lon="6.75171">
        <ele>373.2</ele>
        <time>2017-11-01T09:22:55.999Z</time>
      </trkpt>
      <trkpt lat="47.50552" lon="6.75171">
        <ele>373.2</ele>
        <time>2017-11-01T09:22:56.999Z</time>
      </trkpt>
      <trkpt lat="47.50556" lon="6.75172">
        <ele>373.2</ele>
        <time>2017-11-01T09:22:57.999Z</time>
      </trkpt>
      <trkpt lat="47.50558" lon="6.75172">
        <ele>373.1</ele>
        <time>2017-11-01T09:22:58.999Z</time>
      </trkpt>
      <trkpt lat="47.50561" lon="6.75174">
        <ele>373</ele>
        <time>2017-11-01T09:22:59.999Z</time>
      </trkpt>
      <trkpt lat="47.50563" lon="6.75174">
        <ele>372.9</ele>
        <time>2017-11-01T09:23:00.999Z</time>
      </trkpt>
      <trkpt lat="47.50565" lon="6.75174">
        <ele>372.9</ele>
        <time>2017-11-01T09:23:01.999Z</time>
      </trkpt>
      <trkpt lat="47.50567" lon="6.75175">
        <ele>372.8</ele>
        <time>2017-11-01T09:23:02.999Z</time>
      </trkpt>
      <trkpt lat="47.50571" lon="6.75175">
        <ele>372.8</ele>
        <time>2017-11-01T09:23:03.999Z</time>
      </trkpt>
      <trkpt lat="47.50574" lon="6.75176">
        <ele>372.7</ele>
        <time>2017-11-01T09:23:04.999Z</time>
      </trkpt>
      <trkpt lat="47.50575" lon="6.75177">
        <ele>372.5</ele>
        <time>2017-11-01T09:23:05.999Z</time>
      </trkpt>
      <trkpt lat="47.5058" lon="6.75177">
        <ele>372.4</ele>
        <time>2017-11-01T09:23:07.999Z</time>
      </trkpt>
      <trkpt lat="47.50582" lon="6.75177">
        <ele>372.3</ele>
        <time>2017-11-01T09:23:08.999Z</time>
      </trkpt>
      <trkpt lat="47.50585" lon="6.75178">
        <ele>372.2</ele>
        <time>2017-11-01T09:23:09.999Z</time>
      </trkpt>
      <trkpt lat="47.50587" lon="6.75179">
        <ele>372.1</ele>
        <time>2017-11-01T09:23:10.999Z</time>
      </trkpt>
      <trkpt lat="47.50589" lon="6.7518">
        <ele>371.9</ele>
        <time>2017-11-01T09:23:11.999Z</time>
      </trkpt>
      <trkpt lat="47.50592" lon="6.75181">
        <ele>371.7</ele>
        <time>2017-11-01T09:23:12.999Z</time>
      </trkpt>
      <trkpt lat="47.50595" lon="6.75182">
        <ele>371.4</ele>
        <time>2017-11-01T09:23:13.999Z</time>
      </trkpt>
      <trkpt lat="47.50597" lon="6.75184">
        <ele>371.1</ele>
        <time>2017-11-01T09:23:14.999Z</time>
      </trkpt>
      <trkpt lat="47.506" lon="6.75186">
        <ele>370.9</ele>
        <time>2017-11-01T09:23:15.999Z</time>
      </trkpt>
      <trkpt lat="47.50603" lon="6.75187">
        <ele>370.7</ele>
        <time>2017-11-01T09:23:16.999Z</time>
      </trkpt>
      <trkpt lat="47.50606" lon="6.75188">
        <ele>370.5</ele>
        <time>2017-11-01T09:23:17.999Z</time>
      </trkpt>
      <trkpt lat="47.50609" lon="6.7519">
        <ele>370.3</ele>
        <time>2017-11-01T09:23:18.999Z</time>
      </trkpt>
      <trkpt lat="47.50613" lon="6.75192">
        <ele>370.1</ele>
        <time>2017-11-01T09:23:19.999Z</time>
      </trkpt>
      <trkpt lat="47.50616" lon="6.75193">
        <ele>369.8</ele>
        <time>2017-11-01T09:23:20.999Z</time>
      </trkpt>
      <trkpt lat="47.5062" lon="6.75195">
        <ele>369.6</ele>
        <time>2017-11-01T09:23:21.999Z</time>
      </trkpt>
      <trkpt lat="47.50624" lon="6.75196">
        <ele>369.4</ele>
        <time>2017-11-01T09:23:22.999Z</time>
      </trkpt>
      <trkpt lat="47.50629" lon="6.75198">
        <ele>367</ele>
        <time>2017-11-01T09:23:23.999Z</time>
      </trkpt>
      <trkpt lat="47.50635" lon="6.75199">
        <ele>365.1</ele>
        <time>2017-11-01T09:23:24.999Z</time>
      </trkpt>
      <trkpt lat="47.50639" lon="6.75199">
        <ele>363.3</ele>
        <time>2017-11-01T09:23:25.999Z</time>
      </trkpt>
      <trkpt lat="47.50643" lon="6.75199">
        <ele>362</ele>
        <time>2017-11-01T09:23:26.999Z</time>
      </trkpt>
      <trkpt lat="47.50648" lon="6.752">
        <ele>360.6</ele>
        <time>2017-11-01T09:23:27.999Z</time>
      </trkpt>
      <trkpt lat="47.50652" lon="6.75201">
        <ele>360.5</ele>
        <time>2017-11-01T09:23:28.999Z</time>
      </trkpt>
      <trkpt lat="47.50656" lon="6.75202">
        <ele>359.9</ele>
        <time>2017-11-01T09:23:29.999Z</time>
      </trkpt>
      <trkpt lat="47.50661" lon="6.75203">
        <ele>358.8</ele>
        <time>2017-11-01T09:23:30.999Z</time>
      </trkpt>
      <trkpt lat="47.50665" lon="6.75204">
        <ele>358.3</ele>
        <time>2017-11-01T09:23:31.999Z</time>
      </trkpt>
      <trkpt lat="47.5067" lon="6.75204">
        <ele>359</ele>
        <time>2017-11-01T09:23:32.999Z</time>
      </trkpt>
      <trkpt lat="47.50674" lon="6.75204">
        <ele>359.4</ele>
        <time>2017-11-01T09:23:33.999Z</time>
      </trkpt>
      <trkpt lat="47.50678" lon="6.75204">
        <ele>360.2</ele>
        <time>2017-11-01T09:23:34.999Z</time>
      </trkpt>
      <trkpt lat="47.50683" lon="6.75204">
        <ele>360.7</ele>
        <time>2017-11-01T09:23:35.999Z</time>
      </trkpt>
      <trkpt lat="47.50689" lon="6.75204">
        <ele>361.3</ele>
        <time>2017-11-01T09:23:36.999Z</time>
      </trkpt>
      <trkpt lat="47.50693" lon="6.75203">
        <ele>361.2</ele>
        <time>2017-11-01T09:23:37.999Z</time>
      </trkpt>
      <trkpt lat="47.50698" lon="6.75203">
        <ele>360.6</ele>
        <time>2017-11-01T09:23:38.999Z</time>
      </trkpt>
      <trkpt lat="47.50703" lon="6.75201">
        <ele>360.3</ele>
        <time>2017-11-01T09:23:39.999Z</time>
      </trkpt>
      <trkpt lat="47.50707" lon="6.75199">
        <ele>360.2</ele>
        <time>2017-11-01T09:23:40.999Z</time>
      </trkpt>
      <trkpt lat="47.50712" lon="6.75196">
        <ele>360.5</ele>
        <time>2017-11-01T09:23:41.999Z</time>
      </trkpt>
      <trkpt lat="47.50716" lon="6.75194">
        <ele>360.5</ele>
        <time>2017-11-01T09:23:42.999Z</time>
      </trkpt>
      <trkpt lat="47.5072" lon="6.75192">
        <ele>360.5</ele>
        <time>2017-11-01T09:23:43.999Z</time>
      </trkpt>
      <trkpt lat="47.50724" lon="6.75191">
        <ele>359.8</ele>
        <time>2017-11-01T09:23:44.999Z</time>
      </trkpt>
      <trkpt lat="47.50728" lon="6.75189">
        <ele>359.2</ele>
        <time>2017-11-01T09:23:45.999Z</time>
      </trkpt>
      <trkpt lat="47.50732" lon="6.75186">
        <ele>359.1</ele>
        <time>2017-11-01T09:23:46.999Z</time>
      </trkpt>
      <trkpt lat="47.50737" lon="6.75184">
        <ele>359.1</ele>
        <time>2017-11-01T09:23:47.999Z</time>
      </trkpt>
      <trkpt lat="47.50742" lon="6.75182">
        <ele>358.6</ele>
        <time>2017-11-01T09:23:48.999Z</time>
      </trkpt>
      <trkpt lat="47.50746" lon="6.75181">
        <ele>358.6</ele>
        <time>2017-11-01T09:23:49.999Z</time>
      </trkpt>
      <trkpt lat="47.5075" lon="6.75179">
        <ele>358.9</ele>
        <time>2017-11-01T09:23:50.999Z</time>
      </trkpt>
      <trkpt lat="47.50753" lon="6.75177">
        <ele>359.4</ele>
        <time>2017-11-01T09:23:51.999Z</time>
      </trkpt>
      <trkpt lat="47.50756" lon="6.75175">
        <ele>359.4</ele>
        <time>2017-11-01T09:23:52.999Z</time>
      </trkpt>
      <trkpt lat="47.5076" lon="6.75173">
        <ele>359.4</ele>
        <time>2017-11-01T09:23:53.999Z</time>
      </trkpt>
      <trkpt lat="47.50764" lon="6.75171">
        <ele>359.5</ele>
        <time>2017-11-01T09:23:54.999Z</time>
      </trkpt>
      <trkpt lat="47.50767" lon="6.75169">
        <ele>359.6</ele>
        <time>2017-11-01T09:23:55.999Z</time>
      </trkpt>
      <trkpt lat="47.5077" lon="6.75167">
        <ele>359.8</ele>
        <time>2017-11-01T09:23:56.999Z</time>
      </trkpt>
      <trkpt lat="47.50773" lon="6.75165">
        <ele>359.9</ele>
        <time>2017-11-01T09:23:57.999Z</time>
      </trkpt>
      <trkpt lat="47.50777" lon="6.75164">
        <ele>360.1</ele>
        <time>2017-11-01T09:23:58.999Z</time>
      </trkpt>
      <trkpt lat="47.50781" lon="6.75162">
        <ele>360.4</ele>
        <time>2017-11-01T09:23:59.999Z</time>
      </trkpt>
      <trkpt lat="47.50784" lon="6.7516">
        <ele>360.6</ele>
        <time>2017-11-01T09:24:00.999Z</time>
      </trkpt>
      <trkpt lat="47.50787" lon="6.75157">
        <ele>360.8</ele>
        <time>2017-11-01T09:24:01.999Z</time>
      </trkpt>
      <trkpt lat="47.5079" lon="6.75156">
        <ele>361</ele>
        <time>2017-11-01T09:24:02.999Z</time>
      </trkpt>
      <trkpt lat="47.50793" lon="6.75155">
        <ele>361.2</ele>
        <time>2017-11-01T09:24:03.999Z</time>
      </trkpt>
      <trkpt lat="47.50796" lon="6.75154">
        <ele>361.4</ele>
        <time>2017-11-01T09:24:04.999Z</time>
      </trkpt>
      <trkpt lat="47.50799" lon="6.75153">
        <ele>361.6</ele>
        <time>2017-11-01T09:24:05.999Z</time>
      </trkpt>
      <trkpt lat="47.50803" lon="6.75151">
        <ele>361.7</ele>
        <time>2017-11-01T09:24:06.999Z</time>
      </trkpt>
      <trkpt lat="47.50808" lon="6.75149">
        <ele>361.8</ele>
        <time>2017-11-01T09:24:07.999Z</time>
      </trkpt>
      <trkpt lat="47.50812" lon="6.75148">
        <ele>361.9</ele>
        <time>2017-11-01T09:24:08.999Z</time>
      </trkpt>
      <trkpt lat="47.50815" lon="6.75146">
        <ele>362.1</ele>
        <time>2017-11-01T09:24:09.999Z</time>
      </trkpt>
      <trkpt lat="47.50818" lon="6.75144">
        <ele>362.2</ele>
        <time>2017-11-01T09:24:10.999Z</time>
      </trkpt>
      <trkpt lat="47.50821" lon="6.75142">
        <ele>362.2</ele>
        <time>2017-11-01T09:24:11.999Z</time>
      </trkpt>
      <trkpt lat="47.50825" lon="6.75139">
        <ele>363.6</ele>
        <time>2017-11-01T09:24:12.999Z</time>
      </trkpt>
      <trkpt lat="47.50828" lon="6.75138">
        <ele>363.7</ele>
        <time>2017-11-01T09:24:13.999Z</time>
      </trkpt>
      <trkpt lat="47.50831" lon="6.75136">
        <ele>363.8</ele>
        <time>2017-11-01T09:24:14.999Z</time>
      </trkpt>
      <trkpt lat="47.50834" lon="6.75135">
        <ele>363.9</ele>
        <time>2017-11-01T09:24:15.999Z</time>
      </trkpt>
      <trkpt lat="47.50836" lon="6.75134">
        <ele>363.9</ele>
        <time>2017-11-01T09:24:16.999Z</time>
      </trkpt>
      <trkpt lat="47.50839" lon="6.75134">
        <ele>364</ele>
        <time>2017-11-01T09:24:17.999Z</time>
      </trkpt>
      <trkpt lat="47.50841" lon="6.75133">
        <ele>364.1</ele>
        <time>2017-11-01T09:24:18.999Z</time>
      </trkpt>
      <trkpt lat="47.50843" lon="6.75132">
        <ele>364.3</ele>
        <time>2017-11-01T09:24:19.999Z</time>
      </trkpt>
      <trkpt lat="47.50846" lon="6.75132">
        <ele>364.4</ele>
        <time>2017-11-01T09:24:20.999Z</time>
      </trkpt>
      <trkpt lat="47.50848" lon="6.75131">
        <ele>364.6</ele>
        <time>2017-11-01T09:24:21.999Z</time>
      </trkpt>
      <trkpt lat="47.50852" lon="6.75132">
        <ele>364.8</ele>
        <time>2017-11-01T09:24:25.999Z</time>
      </trkpt>
      <trkpt lat="47.50853" lon="6.75132">
        <ele>364.8</ele>
        <time>2017-11-01T09:24:26.999Z</time>
      </trkpt>
      <trkpt lat="47.50853" lon="6.75127">
        <ele>365.8</ele>
        <time>2017-11-01T09:24:33.999Z</time>
      </trkpt>
      <trkpt lat="47.50852" lon="6.75123">
        <ele>365.9</ele>
        <time>2017-11-01T09:24:34.999Z</time>
      </trkpt>
      <trkpt lat="47.50851" lon="6.75119">
        <ele>366</ele>
        <time>2017-11-01T09:24:35.999Z</time>
      </trkpt>
      <trkpt lat="47.5085" lon="6.75117">
        <ele>366.1</ele>
        <time>2017-11-01T09:24:36.999Z</time>
      </trkpt>
      <trkpt lat="47.50848" lon="6.75112">
        <ele>366.2</ele>
        <time>2017-11-01T09:24:38.999Z</time>
      </trkpt>
      <trkpt lat="47.50847" lon="6.7511">
        <ele>366.3</ele>
        <time>2017-11-01T09:24:39.999Z</time>
      </trkpt>
      <trkpt lat="47.50847" lon="6.75105">
        <ele>366.8</ele>
        <time>2017-11-01T09:24:42.999Z</time>
      </trkpt>
      <trkpt lat="47.50847" lon="6.75102">
        <ele>366.9</ele>
        <time>2017-11-01T09:24:43.999Z</time>
      </trkpt>
      <trkpt lat="47.50848" lon="6.75096">
        <ele>367.4</ele>
        <time>2017-11-01T09:24:47.999Z</time>
      </trkpt>
      <trkpt lat="47.50849" lon="6.75095">
        <ele>367.5</ele>
        <time>2017-11-01T09:24:48.999Z</time>
      </trkpt>
      <trkpt lat="47.50852" lon="6.75091">
        <ele>367.8</ele>
        <time>2017-11-01T09:24:51.999Z</time>
      </trkpt>
      <trkpt lat="47.50852" lon="6.7509">
        <ele>367.8</ele>
        <time>2017-11-01T09:24:52.999Z</time>
      </trkpt>
      <trkpt lat="47.50854" lon="6.75084">
        <ele>368</ele>
        <time>2017-11-01T09:24:57.999Z</time>
      </trkpt>
      <trkpt lat="47.50854" lon="6.75083">
        <ele>368.1</ele>
        <time>2017-11-01T09:24:58.999Z</time>
      </trkpt>
      <trkpt lat="47.50856" lon="6.75077">
        <ele>369</ele>
        <time>2017-11-01T09:25:08.999Z</time>
      </trkpt>
      <trkpt lat="47.50857" lon="6.75078">
        <ele>369</ele>
        <time>2017-11-01T09:25:09.999Z</time>
      </trkpt>
      <trkpt lat="47.50859" lon="6.75072">
        <ele>368.9</ele>
        <time>2017-11-01T09:25:11.999Z</time>
      </trkpt>
      <trkpt lat="47.50859" lon="6.75071">
        <ele>369</ele>
        <time>2017-11-01T09:25:12.999Z</time>
      </trkpt>
      <trkpt lat="47.50858" lon="6.75064">
        <ele>369.8</ele>
        <time>2017-11-01T09:25:18.999Z</time>
      </trkpt>
      <trkpt lat="47.50859" lon="6.75062">
        <ele>369.9</ele>
        <time>2017-11-01T09:25:19.999Z</time>
      </trkpt>
      <trkpt lat="47.50861" lon="6.75059">
        <ele>370.5</ele>
        <time>2017-11-01T09:25:22.999Z</time>
      </trkpt>
      <trkpt lat="47.50862" lon="6.75056">
        <ele>370.7</ele>
        <time>2017-11-01T09:25:23.999Z</time>
      </trkpt>
      <trkpt lat="47.50863" lon="6.75049">
        <ele>371.3</ele>
        <time>2017-11-01T09:25:26.999Z</time>
      </trkpt>
      <trkpt lat="47.50864" lon="6.75048">
        <ele>371.5</ele>
        <time>2017-11-01T09:25:27.999Z</time>
      </trkpt>
      <trkpt lat="47.50867" lon="6.75044">
        <ele>373</ele>
        <time>2017-11-01T09:25:33.999Z</time>
      </trkpt>
      <trkpt lat="47.50868" lon="6.75043">
        <ele>373.3</ele>
        <time>2017-11-01T09:25:34.999Z</time>
      </trkpt>
      <trkpt lat="47.50871" lon="6.75039">
        <ele>374.2</ele>
        <time>2017-11-01T09:25:39.999Z</time>
      </trkpt>
      <trkpt lat="47.50872" lon="6.75037">
        <ele>374.3</ele>
        <time>2017-11-01T09:25:40.999Z</time>
      </trkpt>
      <trkpt lat="47.50874" lon="6.75033">
        <ele>374.9</ele>
        <time>2017-11-01T09:25:50.999Z</time>
      </trkpt>
      <trkpt lat="47.50874" lon="6.75031">
        <ele>374.9</ele>
        <time>2017-11-01T09:25:51.999Z</time>
      </trkpt>
      <trkpt lat="47.50876" lon="6.75025">
        <ele>374.7</ele>
        <time>2017-11-01T09:25:53.999Z</time>
      </trkpt>
      <trkpt lat="47.50877" lon="6.75023">
        <ele>374.5</ele>
        <time>2017-11-01T09:25:54.999Z</time>
      </trkpt>
      <trkpt lat="47.50877" lon="6.75021">
        <ele>374.4</ele>
        <time>2017-11-01T09:25:55.999Z</time>
      </trkpt>
      <trkpt lat="47.5088" lon="6.75018">
        <ele>374.3</ele>
        <time>2017-11-01T09:25:56.999Z</time>
      </trkpt>
      <trkpt lat="47.50883" lon="6.75015">
        <ele>374</ele>
        <time>2017-11-01T09:25:58.999Z</time>
      </trkpt>
      <trkpt lat="47.50885" lon="6.75013">
        <ele>373.9</ele>
        <time>2017-11-01T09:25:59.999Z</time>
      </trkpt>
      <trkpt lat="47.50885" lon="6.75006">
        <ele>374.7</ele>
        <time>2017-11-01T09:26:05.999Z</time>
      </trkpt>
      <trkpt lat="47.50885" lon="6.75005">
        <ele>374.9</ele>
        <time>2017-11-01T09:26:06.999Z</time>
      </trkpt>
      <trkpt lat="47.50888" lon="6.75001">
        <ele>375.4</ele>
        <time>2017-11-01T09:26:08.999Z</time>
      </trkpt>
      <trkpt lat="47.50889" lon="6.75">
        <ele>375.6</ele>
        <time>2017-11-01T09:26:09.999Z</time>
      </trkpt>
      <trkpt lat="47.5089" lon="6.74995">
        <ele>376.7</ele>
        <time>2017-11-01T09:26:14.999Z</time>
      </trkpt>
      <trkpt lat="47.5089" lon="6.74994">
        <ele>377</ele>
        <time>2017-11-01T09:26:15.999Z</time>
      </trkpt>
      <trkpt lat="47.5089" lon="6.74989">
        <ele>378.9</ele>
        <time>2017-11-01T09:26:23.999Z</time>
      </trkpt>
      <trkpt lat="47.50891" lon="6.74987">
        <ele>379.1</ele>
        <time>2017-11-01T09:26:24.999Z</time>
      </trkpt>
      <trkpt lat="47.5089" lon="6.74981">
        <ele>379.9</ele>
        <time>2017-11-01T09:26:30.999Z</time>
      </trkpt>
      <trkpt lat="47.5089" lon="6.7498">
        <ele>380.1</ele>
        <time>2017-11-01T09:26:31.999Z</time>
      </trkpt>
      <trkpt lat="47.50893" lon="6.74975">
        <ele>381.9</ele>
        <time>2017-11-01T09:26:37.999Z</time>
      </trkpt>
      <trkpt lat="47.50893" lon="6.74974">
        <ele>382.2</ele>
        <time>2017-11-01T09:26:38.999Z</time>
      </trkpt>
      <trkpt lat="47.5089" lon="6.7497">
        <ele>384.2</ele>
        <time>2017-11-01T09:26:44.999Z</time>
      </trkpt>
      <trkpt lat="47.50889" lon="6.74969">
        <ele>384.5</ele>
        <time>2017-11-01T09:26:45.999Z</time>
      </trkpt>
      <trkpt lat="47.50889" lon="6.74963">
        <ele>385.7</ele>
        <time>2017-11-01T09:26:50.999Z</time>
      </trkpt>
      <trkpt lat="47.5089" lon="6.74962">
        <ele>385.8</ele>
        <time>2017-11-01T09:26:51.999Z</time>
      </trkpt>
      <trkpt lat="47.50892" lon="6.74959">
        <ele>386</ele>
        <time>2017-11-01T09:26:54.999Z</time>
      </trkpt>
      <trkpt lat="47.50894" lon="6.74957">
        <ele>386.1</ele>
        <time>2017-11-01T09:26:55.999Z</time>
      </trkpt>
      <trkpt lat="47.50896" lon="6.74953">
        <ele>386.2</ele>
        <time>2017-11-01T09:26:57.999Z</time>
      </trkpt>
      <trkpt lat="47.50897" lon="6.74952">
        <ele>386.2</ele>
        <time>2017-11-01T09:26:58.999Z</time>
      </trkpt>
      <trkpt lat="47.50899" lon="6.74949">
        <ele>386.2</ele>
        <time>2017-11-01T09:27:00.999Z</time>
      </trkpt>
      <trkpt lat="47.509" lon="6.74947">
        <ele>386.2</ele>
        <time>2017-11-01T09:27:01.999Z</time>
      </trkpt>
      <trkpt lat="47.50903" lon="6.74943">
        <ele>386.1</ele>
        <time>2017-11-01T09:27:04.999Z</time>
      </trkpt>
      <trkpt lat="47.50905" lon="6.74942">
        <ele>386.2</ele>
        <time>2017-11-01T09:27:05.999Z</time>
      </trkpt>
      <trkpt lat="47.50908" lon="6.7494">
        <ele>386.1</ele>
        <time>2017-11-01T09:27:08.999Z</time>
      </trkpt>
      <trkpt lat="47.5091" lon="6.74938">
        <ele>386</ele>
        <time>2017-11-01T09:27:09.999Z</time>
      </trkpt>
      <trkpt lat="47.50913" lon="6.74936">
        <ele>385.8</ele>
        <time>2017-11-01T09:27:12.999Z</time>
      </trkpt>
      <trkpt lat="47.50914" lon="6.74934">
        <ele>385.8</ele>
        <time>2017-11-01T09:27:13.999Z</time>
      </trkpt>
      <trkpt lat="47.50916" lon="6.74933">
        <ele>385.7</ele>
        <time>2017-11-01T09:27:14.999Z</time>
      </trkpt>
      <trkpt lat="47.50919" lon="6.74932">
        <ele>385.6</ele>
        <time>2017-11-01T09:27:15.999Z</time>
      </trkpt>
      <trkpt lat="47.50921" lon="6.7493">
        <ele>385.4</ele>
        <time>2017-11-01T09:27:16.999Z</time>
      </trkpt>
      <trkpt lat="47.50924" lon="6.74927">
        <ele>385.2</ele>
        <time>2017-11-01T09:27:17.999Z</time>
      </trkpt>
      <trkpt lat="47.50927" lon="6.74925">
        <ele>385</ele>
        <time>2017-11-01T09:27:18.999Z</time>
      </trkpt>
      <trkpt lat="47.5093" lon="6.74924">
        <ele>384.8</ele>
        <time>2017-11-01T09:27:19.999Z</time>
      </trkpt>
      <trkpt lat="47.50933" lon="6.74923">
        <ele>384.7</ele>
        <time>2017-11-01T09:27:20.999Z</time>
      </trkpt>
      <trkpt lat="47.50935" lon="6.74922">
        <ele>384.5</ele>
        <time>2017-11-01T09:27:21.999Z</time>
      </trkpt>
      <trkpt lat="47.50938" lon="6.7492">
        <ele>384.3</ele>
        <time>2017-11-01T09:27:22.999Z</time>
      </trkpt>
      <trkpt lat="47.5094" lon="6.74918">
        <ele>384.2</ele>
        <time>2017-11-01T09:27:23.999Z</time>
      </trkpt>
      <trkpt lat="47.50943" lon="6.74915">
        <ele>384</ele>
        <time>2017-11-01T09:27:24.999Z</time>
      </trkpt>
      <trkpt lat="47.50947" lon="6.74914">
        <ele>383.8</ele>
        <time>2017-11-01T09:27:25.999Z</time>
      </trkpt>
      <trkpt lat="47.5095" lon="6.74912">
        <ele>383.6</ele>
        <time>2017-11-01T09:27:26.999Z</time>
      </trkpt>
      <trkpt lat="47.50953" lon="6.7491">
        <ele>383.4</ele>
        <time>2017-11-01T09:27:27.999Z</time>
      </trkpt>
      <trkpt lat="47.50956" lon="6.74907">
        <ele>383.1</ele>
        <time>2017-11-01T09:27:29.999Z</time>
      </trkpt>
      <trkpt lat="47.50958" lon="6.74905">
        <ele>382.8</ele>
        <time>2017-11-01T09:27:30.999Z</time>
      </trkpt>
      <trkpt lat="47.50959" lon="6.74901">
        <ele>382.3</ele>
        <time>2017-11-01T09:27:32.999Z</time>
      </trkpt>
      <trkpt lat="47.50961" lon="6.74899">
        <ele>382.1</ele>
        <time>2017-11-01T09:27:33.999Z</time>
      </trkpt>
      <trkpt lat="47.50964" lon="6.74896">
        <ele>381.6</ele>
        <time>2017-11-01T09:27:35.999Z</time>
      </trkpt>
      <trkpt lat="47.50967" lon="6.74894">
        <ele>381.4</ele>
        <time>2017-11-01T09:27:36.999Z</time>
      </trkpt>
      <trkpt lat="47.50969" lon="6.74894">
        <ele>381.3</ele>
        <time>2017-11-01T09:27:37.999Z</time>
      </trkpt>
      <trkpt lat="47.50972" lon="6.74892">
        <ele>381.1</ele>
        <time>2017-11-01T09:27:38.999Z</time>
      </trkpt>
      <trkpt lat="47.50974" lon="6.74888">
        <ele>380.9</ele>
        <time>2017-11-01T09:27:39.999Z</time>
      </trkpt>
      <trkpt lat="47.50975" lon="6.74885">
        <ele>380.6</ele>
        <time>2017-11-01T09:27:40.999Z</time>
      </trkpt>
      <trkpt lat="47.50977" lon="6.74883">
        <ele>380.4</ele>
        <time>2017-11-01T09:27:41.999Z</time>
      </trkpt>
      <trkpt lat="47.50978" lon="6.7488">
        <ele>380.1</ele>
        <time>2017-11-01T09:27:42.999Z</time>
      </trkpt>
      <trkpt lat="47.5098" lon="6.74877">
        <ele>379.8</ele>
        <time>2017-11-01T09:27:43.999Z</time>
      </trkpt>
      <trkpt lat="47.50982" lon="6.74875">
        <ele>379.5</ele>
        <time>2017-11-01T09:27:44.999Z</time>
      </trkpt>
      <trkpt lat="47.50984" lon="6.74872">
        <ele>379.2</ele>
        <time>2017-11-01T09:27:45.999Z</time>
      </trkpt>
      <trkpt lat="47.50986" lon="6.7487">
        <ele>379</ele>
        <time>2017-11-01T09:27:46.999Z</time>
      </trkpt>
      <trkpt lat="47.50987" lon="6.74865">
        <ele>378.7</ele>
        <time>2017-11-01T09:27:48.999Z</time>
      </trkpt>
      <trkpt lat="47.50987" lon="6.74863">
        <ele>378.6</ele>
        <time>2017-11-01T09:27:49.999Z</time>
      </trkpt>
      <trkpt lat="47.5099" lon="6.74858">
        <ele>378.6</ele>
        <time>2017-11-01T09:27:52.999Z</time>
      </trkpt>
      <trkpt lat="47.50991" lon="6.74858">
        <ele>378.6</ele>
        <time>2017-11-01T09:27:53.999Z</time>
      </trkpt>
      <trkpt lat="47.50994" lon="6.74854">
        <ele>378.7</ele>
        <time>2017-11-01T09:27:56.999Z</time>
      </trkpt>
      <trkpt lat="47.50995" lon="6.74853">
        <ele>378.7</ele>
        <time>2017-11-01T09:27:57.999Z</time>
      </trkpt>
      <trkpt lat="47.50998" lon="6.7485">
        <ele>379</ele>
        <time>2017-11-01T09:28:02.999Z</time>
      </trkpt>
      <trkpt lat="47.50999" lon="6.74849">
        <ele>379.5</ele>
        <time>2017-11-01T09:28:03.999Z</time>
      </trkpt>
      <trkpt lat="47.51" lon="6.74849">
        <ele>379.9</ele>
        <time>2017-11-01T09:28:04.999Z</time>
      </trkpt>
      <trkpt lat="47.51004" lon="6.74848">
        <ele>380.4</ele>
        <time>2017-11-01T09:28:05.999Z</time>
      </trkpt>
      <trkpt lat="47.51005" lon="6.74844">
        <ele>381.8</ele>
        <time>2017-11-01T09:28:08.999Z</time>
      </trkpt>
      <trkpt lat="47.51006" lon="6.74842">
        <ele>382.2</ele>
        <time>2017-11-01T09:28:09.999Z</time>
      </trkpt>
      <trkpt lat="47.51009" lon="6.7484">
        <ele>383.4</ele>
        <time>2017-11-01T09:28:17.999Z</time>
      </trkpt>
      <trkpt lat="47.5101" lon="6.74839">
        <ele>383.6</ele>
        <time>2017-11-01T09:28:18.999Z</time>
      </trkpt>
      <trkpt lat="47.51013" lon="6.74837">
        <ele>384.2</ele>
        <time>2017-11-01T09:28:22.999Z</time>
      </trkpt>
      <trkpt lat="47.51014" lon="6.74836">
        <ele>384.4</ele>
        <time>2017-11-01T09:28:23.999Z</time>
      </trkpt>
      <trkpt lat="47.51018" lon="6.74834">
        <ele>384.8</ele>
        <time>2017-11-01T09:28:26.999Z</time>
      </trkpt>
      <trkpt lat="47.5102" lon="6.74833">
        <ele>385.1</ele>
        <time>2017-11-01T09:28:27.999Z</time>
      </trkpt>
      <trkpt lat="47.51024" lon="6.74832">
        <ele>385.2</ele>
        <time>2017-11-01T09:28:30.999Z</time>
      </trkpt>
      <trkpt lat="47.51025" lon="6.74831">
        <ele>385.3</ele>
        <time>2017-11-01T09:28:31.999Z</time>
      </trkpt>
      <trkpt lat="47.51029" lon="6.74829">
        <ele>385.6</ele>
        <time>2017-11-01T09:28:35.999Z</time>
      </trkpt>
      <trkpt lat="47.5103" lon="6.74828">
        <ele>385.6</ele>
        <time>2017-11-01T09:28:36.999Z</time>
      </trkpt>
      <trkpt lat="47.51034" lon="6.74827">
        <ele>385.7</ele>
        <time>2017-11-01T09:28:38.999Z</time>
      </trkpt>
      <trkpt lat="47.51036" lon="6.74826">
        <ele>385.7</ele>
        <time>2017-11-01T09:28:39.999Z</time>
      </trkpt>
      <trkpt lat="47.51037" lon="6.74824">
        <ele>385.8</ele>
        <time>2017-11-01T09:28:40.999Z</time>
      </trkpt>
      <trkpt lat="47.51039" lon="6.74821">
        <ele>385.7</ele>
        <time>2017-11-01T09:28:41.999Z</time>
      </trkpt>
      <trkpt lat="47.51041" lon="6.74817">
        <ele>385.6</ele>
        <time>2017-11-01T09:28:42.999Z</time>
      </trkpt>
      <trkpt lat="47.51042" lon="6.74815">
        <ele>385.6</ele>
        <time>2017-11-01T09:28:43.999Z</time>
      </trkpt>
      <trkpt lat="47.51043" lon="6.74811">
        <ele>385.5</ele>
        <time>2017-11-01T09:28:44.999Z</time>
      </trkpt>
      <trkpt lat="47.51044" lon="6.74809">
        <ele>385.5</ele>
        <time>2017-11-01T09:28:45.999Z</time>
      </trkpt>
      <trkpt lat="47.51047" lon="6.74803">
        <ele>385.2</ele>
        <time>2017-11-01T09:28:47.999Z</time>
      </trkpt>
      <trkpt lat="47.51047" lon="6.74801">
        <ele>385.1</ele>
        <time>2017-11-01T09:28:48.999Z</time>
      </trkpt>
      <trkpt lat="47.51048" lon="6.74799">
        <ele>385</ele>
        <time>2017-11-01T09:28:49.999Z</time>
      </trkpt>
      <trkpt lat="47.51049" lon="6.74794">
        <ele>384.9</ele>
        <time>2017-11-01T09:28:50.999Z</time>
      </trkpt>
      <trkpt lat="47.5105" lon="6.7479">
        <ele>384.7</ele>
        <time>2017-11-01T09:28:51.999Z</time>
      </trkpt>
      <trkpt lat="47.51052" lon="6.74787">
        <ele>384.6</ele>
        <time>2017-11-01T09:28:52.999Z</time>
      </trkpt>
      <trkpt lat="47.51055" lon="6.74784">
        <ele>384.1</ele>
        <time>2017-11-01T09:28:55.999Z</time>
      </trkpt>
      <trkpt lat="47.51056" lon="6.74782">
        <ele>384</ele>
        <time>2017-11-01T09:28:56.999Z</time>
      </trkpt>
      <trkpt lat="47.51058" lon="6.74781">
        <ele>383.9</ele>
        <time>2017-11-01T09:28:57.999Z</time>
      </trkpt>
      <trkpt lat="47.5106" lon="6.74778">
        <ele>383.8</ele>
        <time>2017-11-01T09:28:58.999Z</time>
      </trkpt>
      <trkpt lat="47.51063" lon="6.74773">
        <ele>383.4</ele>
        <time>2017-11-01T09:29:01.999Z</time>
      </trkpt>
      <trkpt lat="47.51064" lon="6.74772">
        <ele>383.2</ele>
        <time>2017-11-01T09:29:02.999Z</time>
      </trkpt>
      <trkpt lat="47.51067" lon="6.7477">
        <ele>383</ele>
        <time>2017-11-01T09:29:04.999Z</time>
      </trkpt>
      <trkpt lat="47.5107" lon="6.7477">
        <ele>382.9</ele>
        <time>2017-11-01T09:29:05.999Z</time>
      </trkpt>
      <trkpt lat="47.51073" lon="6.74771">
        <ele>382.9</ele>
        <time>2017-11-01T09:29:06.999Z</time>
      </trkpt>
      <trkpt lat="47.51075" lon="6.74772">
        <ele>382.8</ele>
        <time>2017-11-01T09:29:07.999Z</time>
      </trkpt>
      <trkpt lat="47.51078" lon="6.74774">
        <ele>382.8</ele>
        <time>2017-11-01T09:29:09.999Z</time>
      </trkpt>
      <trkpt lat="47.51081" lon="6.74775">
        <ele>382.7</ele>
        <time>2017-11-01T09:29:10.999Z</time>
      </trkpt>
      <trkpt lat="47.51084" lon="6.74776">
        <ele>382.6</ele>
        <time>2017-11-01T09:29:11.999Z</time>
      </trkpt>
      <trkpt lat="47.51085" lon="6.74776">
        <ele>382.5</ele>
        <time>2017-11-01T09:29:12.999Z</time>
      </trkpt>
      <trkpt lat="47.51087" lon="6.74776">
        <ele>382.3</ele>
        <time>2017-11-01T09:29:13.999Z</time>
      </trkpt>
      <trkpt lat="47.51092" lon="6.74776">
        <ele>382.3</ele>
        <time>2017-11-01T09:29:14.999Z</time>
      </trkpt>
      <trkpt lat="47.51094" lon="6.74775">
        <ele>382.2</ele>
        <time>2017-11-01T09:29:16.999Z</time>
      </trkpt>
      <trkpt lat="47.51096" lon="6.74776">
        <ele>382</ele>
        <time>2017-11-01T09:29:17.999Z</time>
      </trkpt>
      <trkpt lat="47.51099" lon="6.74775">
        <ele>381.8</ele>
        <time>2017-11-01T09:29:18.999Z</time>
      </trkpt>
      <trkpt lat="47.51103" lon="6.74776">
        <ele>381.6</ele>
        <time>2017-11-01T09:29:19.999Z</time>
      </trkpt>
      <trkpt lat="47.51106" lon="6.74774">
        <ele>381.4</ele>
        <time>2017-11-01T09:29:20.999Z</time>
      </trkpt>
      <trkpt lat="47.51108" lon="6.74774">
        <ele>381.3</ele>
        <time>2017-11-01T09:29:21.999Z</time>
      </trkpt>
      <trkpt lat="47.51111" lon="6.74773">
        <ele>381.1</ele>
        <time>2017-11-01T09:29:22.999Z</time>
      </trkpt>
      <trkpt lat="47.51114" lon="6.74772">
        <ele>381</ele>
        <time>2017-11-01T09:29:23.999Z</time>
      </trkpt>
      <trkpt lat="47.51118" lon="6.74771">
        <ele>380.9</ele>
        <time>2017-11-01T09:29:24.999Z</time>
      </trkpt>
      <trkpt lat="47.51122" lon="6.74771">
        <ele>380.9</ele>
        <time>2017-11-01T09:29:25.999Z</time>
      </trkpt>
      <trkpt lat="47.51125" lon="6.74771">
        <ele>380.9</ele>
        <time>2017-11-01T09:29:26.999Z</time>
      </trkpt>
      <trkpt lat="47.51127" lon="6.74771">
        <ele>380.9</ele>
        <time>2017-11-01T09:29:27.999Z</time>
      </trkpt>
      <trkpt lat="47.5113" lon="6.74771">
        <ele>381</ele>
        <time>2017-11-01T09:29:28.999Z</time>
      </trkpt>
      <trkpt lat="47.51132" lon="6.74771">
        <ele>380.9</ele>
        <time>2017-11-01T09:29:29.999Z</time>
      </trkpt>
      <trkpt lat="47.51134" lon="6.74771">
        <ele>380.9</ele>
        <time>2017-11-01T09:29:30.999Z</time>
      </trkpt>
      <trkpt lat="47.51137" lon="6.74771">
        <ele>380.8</ele>
        <time>2017-11-01T09:29:31.999Z</time>
      </trkpt>
      <trkpt lat="47.5114" lon="6.74772">
        <ele>380.6</ele>
        <time>2017-11-01T09:29:32.999Z</time>
      </trkpt>
      <trkpt lat="47.51144" lon="6.74773">
        <ele>380.5</ele>
        <time>2017-11-01T09:29:33.999Z</time>
      </trkpt>
      <trkpt lat="47.51148" lon="6.74775">
        <ele>379.8</ele>
        <time>2017-11-01T09:29:37.999Z</time>
      </trkpt>
      <trkpt lat="47.51149" lon="6.74775">
        <ele>379.8</ele>
        <time>2017-11-01T09:29:38.999Z</time>
      </trkpt>
      <trkpt lat="47.51151" lon="6.7477">
        <ele>380.4</ele>
        <time>2017-11-01T09:29:45.999Z</time>
      </trkpt>
      <trkpt lat="47.51152" lon="6.74769">
        <ele>380.6</ele>
        <time>2017-11-01T09:29:46.999Z</time>
      </trkpt>
      <trkpt lat="47.51153" lon="6.74763">
        <ele>381.4</ele>
        <time>2017-11-01T09:29:50.999Z</time>
      </trkpt>
      <trkpt lat="47.51153" lon="6.74761">
        <ele>381.6</ele>
        <time>2017-11-01T09:29:51.999Z</time>
      </trkpt>
      <trkpt lat="47.51153" lon="6.74756">
        <ele>383</ele>
        <time>2017-11-01T09:29:55.999Z</time>
      </trkpt>
      <trkpt lat="47.51153" lon="6.74754">
        <ele>383.4</ele>
        <time>2017-11-01T09:29:56.999Z</time>
      </trkpt>
      <trkpt lat="47.51154" lon="6.74749">
        <ele>385.3</ele>
        <time>2017-11-01T09:30:01.999Z</time>
      </trkpt>
      <trkpt lat="47.51154" lon="6.74747">
        <ele>385.7</ele>
        <time>2017-11-01T09:30:02.999Z</time>
      </trkpt>
      <trkpt lat="47.51157" lon="6.74742">
        <ele>386.7</ele>
        <time>2017-11-01T09:30:05.999Z</time>
      </trkpt>
      <trkpt lat="47.51157" lon="6.7474">
        <ele>387</ele>
        <time>2017-11-01T09:30:06.999Z</time>
      </trkpt>
      <trkpt lat="47.51157" lon="6.74736">
        <ele>388</ele>
        <time>2017-11-01T09:30:09.999Z</time>
      </trkpt>
      <trkpt lat="47.51156" lon="6.74733">
        <ele>388.4</ele>
        <time>2017-11-01T09:30:10.999Z</time>
      </trkpt>
      <trkpt lat="47.51155" lon="6.74728">
        <ele>389.1</ele>
        <time>2017-11-01T09:30:13.999Z</time>
      </trkpt>
      <trkpt lat="47.51155" lon="6.74726">
        <ele>389.3</ele>
        <time>2017-11-01T09:30:14.999Z</time>
      </trkpt>
      <trkpt lat="47.51156" lon="6.7472">
        <ele>390.2</ele>
        <time>2017-11-01T09:30:18.999Z</time>
      </trkpt>
      <trkpt lat="47.51156" lon="6.74719">
        <ele>390.4</ele>
        <time>2017-11-01T09:30:19.999Z</time>
      </trkpt>
      <trkpt lat="47.51156" lon="6.74713">
        <ele>391.4</ele>
        <time>2017-11-01T09:30:23.999Z</time>
      </trkpt>
      <trkpt lat="47.51156" lon="6.7471">
        <ele>391.6</ele>
        <time>2017-11-01T09:30:24.999Z</time>
      </trkpt>
      <trkpt lat="47.51155" lon="6.74705">
        <ele>392.5</ele>
        <time>2017-11-01T09:30:28.999Z</time>
      </trkpt>
      <trkpt lat="47.51155" lon="6.74704">
        <ele>392.8</ele>
        <time>2017-11-01T09:30:29.999Z</time>
      </trkpt>
      <trkpt lat="47.51155" lon="6.74699">
        <ele>393.8</ele>
        <time>2017-11-01T09:30:33.999Z</time>
      </trkpt>
      <trkpt lat="47.51156" lon="6.74697">
        <ele>394.1</ele>
        <time>2017-11-01T09:30:34.999Z</time>
      </trkpt>
      <trkpt lat="47.51158" lon="6.74692">
        <ele>395.7</ele>
        <time>2017-11-01T09:30:43.999Z</time>
      </trkpt>
      <trkpt lat="47.51159" lon="6.74692">
        <ele>395.9</ele>
        <time>2017-11-01T09:30:44.999Z</time>
      </trkpt>
      <trkpt lat="47.51159" lon="6.74685">
        <ele>396.9</ele>
        <time>2017-11-01T09:30:51.999Z</time>
      </trkpt>
      <trkpt lat="47.51159" lon="6.74684">
        <ele>397</ele>
        <time>2017-11-01T09:30:52.999Z</time>
      </trkpt>
      <trkpt lat="47.5116" lon="6.74678">
        <ele>398.6</ele>
        <time>2017-11-01T09:31:01.999Z</time>
      </trkpt>
      <trkpt lat="47.5116" lon="6.74678">
        <ele>398.9</ele>
        <time>2017-11-01T09:31:02.999Z</time>
      </trkpt>
      <trkpt lat="47.51162" lon="6.74672">
        <ele>399.7</ele>
        <time>2017-11-01T09:31:05.999Z</time>
      </trkpt>
      <trkpt lat="47.51164" lon="6.7467">
        <ele>400</ele>
        <time>2017-11-01T09:31:06.999Z</time>
      </trkpt>
      <trkpt lat="47.51166" lon="6.74665">
        <ele>400.5</ele>
        <time>2017-11-01T09:31:09.999Z</time>
      </trkpt>
      <trkpt lat="47.51166" lon="6.74663">
        <ele>400.6</ele>
        <time>2017-11-01T09:31:10.999Z</time>
      </trkpt>
      <trkpt lat="47.51167" lon="6.74657">
        <ele>401.3</ele>
        <time>2017-11-01T09:31:14.999Z</time>
      </trkpt>
      <trkpt lat="47.51167" lon="6.74655">
        <ele>401.5</ele>
        <time>2017-11-01T09:31:15.999Z</time>
      </trkpt>
      <trkpt lat="47.51168" lon="6.74649">
        <ele>402.2</ele>
        <time>2017-11-01T09:31:19.999Z</time>
      </trkpt>
      <trkpt lat="47.51169" lon="6.74648">
        <ele>402.3</ele>
        <time>2017-11-01T09:31:20.999Z</time>
      </trkpt>
      <trkpt lat="47.51171" lon="6.74643">
        <ele>402.5</ele>
        <time>2017-11-01T09:31:23.999Z</time>
      </trkpt>
      <trkpt lat="47.51172" lon="6.7464">
        <ele>402.6</ele>
        <time>2017-11-01T09:31:24.999Z</time>
      </trkpt>
      <trkpt lat="47.51175" lon="6.74636">
        <ele>402.7</ele>
        <time>2017-11-01T09:31:29.999Z</time>
      </trkpt>
      <trkpt lat="47.51175" lon="6.74635">
        <ele>402.7</ele>
        <time>2017-11-01T09:31:30.999Z</time>
      </trkpt>
      <trkpt lat="47.51179" lon="6.74633">
        <ele>401.5</ele>
        <time>2017-11-01T09:31:37.999Z</time>
      </trkpt>
      <trkpt lat="47.5118" lon="6.74633">
        <ele>401.3</ele>
        <time>2017-11-01T09:31:38.999Z</time>
      </trkpt>
      <trkpt lat="47.51182" lon="6.74629">
        <ele>400.9</ele>
        <time>2017-11-01T09:31:43.999Z</time>
      </trkpt>
      <trkpt lat="47.51183" lon="6.74628">
        <ele>400.9</ele>
        <time>2017-11-01T09:31:44.999Z</time>
      </trkpt>
      <trkpt lat="47.51184" lon="6.74626">
        <ele>400.8</ele>
        <time>2017-11-01T09:31:45.999Z</time>
      </trkpt>
      <trkpt lat="47.51187" lon="6.74622">
        <ele>400.9</ele>
        <time>2017-11-01T09:31:46.999Z</time>
      </trkpt>
      <trkpt lat="47.5119" lon="6.74618">
        <ele>401.3</ele>
        <time>2017-11-01T09:31:49.999Z</time>
      </trkpt>
      <trkpt lat="47.5119" lon="6.74617">
        <ele>401.6</ele>
        <time>2017-11-01T09:31:50.999Z</time>
      </trkpt>
      <trkpt lat="47.51192" lon="6.74611">
        <ele>402.7</ele>
        <time>2017-11-01T09:31:54.999Z</time>
      </trkpt>
      <trkpt lat="47.51193" lon="6.74609">
        <ele>402.9</ele>
        <time>2017-11-01T09:31:55.999Z</time>
      </trkpt>
      <trkpt lat="47.51196" lon="6.74605">
        <ele>404.4</ele>
        <time>2017-11-01T09:32:01.999Z</time>
      </trkpt>
      <trkpt lat="47.51197" lon="6.74605">
        <ele>404.7</ele>
        <time>2017-11-01T09:32:02.999Z</time>
      </trkpt>
      <trkpt lat="47.51201" lon="6.74603">
        <ele>405.7</ele>
        <time>2017-11-01T09:32:05.999Z</time>
      </trkpt>
      <trkpt lat="47.51202" lon="6.74603">
        <ele>406.1</ele>
        <time>2017-11-01T09:32:06.999Z</time>
      </trkpt>
      <trkpt lat="47.51205" lon="6.74599">
        <ele>407.7</ele>
        <time>2017-11-01T09:32:10.999Z</time>
      </trkpt>
      <trkpt lat="47.51206" lon="6.74599">
        <ele>408</ele>
        <time>2017-11-01T09:32:11.999Z</time>
      </trkpt>
      <trkpt lat="47.5121" lon="6.74597">
        <ele>410.8</ele>
        <time>2017-11-01T09:32:20.999Z</time>
      </trkpt>
      <trkpt lat="47.51211" lon="6.74597">
        <ele>411.2</ele>
        <time>2017-11-01T09:32:21.999Z</time>
      </trkpt>
      <trkpt lat="47.51214" lon="6.74594">
        <ele>412.6</ele>
        <time>2017-11-01T09:32:30.999Z</time>
      </trkpt>
      <trkpt lat="47.51215" lon="6.74593">
        <ele>412.8</ele>
        <time>2017-11-01T09:32:31.999Z</time>
      </trkpt>
      <trkpt lat="47.51218" lon="6.74589">
        <ele>413</ele>
        <time>2017-11-01T09:32:34.999Z</time>
      </trkpt>
      <trkpt lat="47.51221" lon="6.74586">
        <ele>412.9</ele>
        <time>2017-11-01T09:32:35.999Z</time>
      </trkpt>
      <trkpt lat="47.51223" lon="6.74581">
        <ele>413</ele>
        <time>2017-11-01T09:32:39.999Z</time>
      </trkpt>
      <trkpt lat="47.51223" lon="6.7458">
        <ele>413</ele>
        <time>2017-11-01T09:32:40.999Z</time>
      </trkpt>
      <trkpt lat="47.51227" lon="6.74577">
        <ele>413.2</ele>
        <time>2017-11-01T09:32:44.999Z</time>
      </trkpt>
      <trkpt lat="47.51228" lon="6.74576">
        <ele>413.2</ele>
        <time>2017-11-01T09:32:45.999Z</time>
      </trkpt>
      <trkpt lat="47.51231" lon="6.74572">
        <ele>413.1</ele>
        <time>2017-11-01T09:32:47.999Z</time>
      </trkpt>
      <trkpt lat="47.51231" lon="6.74571">
        <ele>413</ele>
        <time>2017-11-01T09:32:48.999Z</time>
      </trkpt>
      <trkpt lat="47.51233" lon="6.74568">
        <ele>412.9</ele>
        <time>2017-11-01T09:32:50.999Z</time>
      </trkpt>
      <trkpt lat="47.51235" lon="6.74566">
        <ele>412.8</ele>
        <time>2017-11-01T09:32:51.999Z</time>
      </trkpt>
      <trkpt lat="47.51239" lon="6.74564">
        <ele>412.6</ele>
        <time>2017-11-01T09:32:55.999Z</time>
      </trkpt>
      <trkpt lat="47.51239" lon="6.74563">
        <ele>412.6</ele>
        <time>2017-11-01T09:32:56.999Z</time>
      </trkpt>
      <trkpt lat="47.51242" lon="6.7456">
        <ele>412.7</ele>
        <time>2017-11-01T09:32:59.999Z</time>
      </trkpt>
      <trkpt lat="47.51242" lon="6.74558">
        <ele>412.7</ele>
        <time>2017-11-01T09:33:00.999Z</time>
      </trkpt>
      <trkpt lat="47.51243" lon="6.74557">
        <ele>412.8</ele>
        <time>2017-11-01T09:33:01.999Z</time>
      </trkpt>
      <trkpt lat="47.51245" lon="6.74553">
        <ele>412.8</ele>
        <time>2017-11-01T09:33:02.999Z</time>
      </trkpt>
      <trkpt lat="47.51247" lon="6.74548">
        <ele>412.9</ele>
        <time>2017-11-01T09:33:04.999Z</time>
      </trkpt>
      <trkpt lat="47.51248" lon="6.74547">
        <ele>413</ele>
        <time>2017-11-01T09:33:05.999Z</time>
      </trkpt>
      <trkpt lat="47.51251" lon="6.74543">
        <ele>413.2</ele>
        <time>2017-11-01T09:33:07.999Z</time>
      </trkpt>
      <trkpt lat="47.51253" lon="6.74541">
        <ele>413.2</ele>
        <time>2017-11-01T09:33:08.999Z</time>
      </trkpt>
      <trkpt lat="47.51256" lon="6.74537">
        <ele>413.2</ele>
        <time>2017-11-01T09:33:12.999Z</time>
      </trkpt>
      <trkpt lat="47.51257" lon="6.74536">
        <ele>413.2</ele>
        <time>2017-11-01T09:33:13.999Z</time>
      </trkpt>
      <trkpt lat="47.51259" lon="6.74533">
        <ele>413.2</ele>
        <time>2017-11-01T09:33:15.999Z</time>
      </trkpt>
      <trkpt lat="47.51262" lon="6.74531">
        <ele>413.2</ele>
        <time>2017-11-01T09:33:16.999Z</time>
      </trkpt>
      <trkpt lat="47.51266" lon="6.74528">
        <ele>413</ele>
        <time>2017-11-01T09:33:18.999Z</time>
      </trkpt>
      <trkpt lat="47.51267" lon="6.74527">
        <ele>413</ele>
        <time>2017-11-01T09:33:19.999Z</time>
      </trkpt>
      <trkpt lat="47.5127" lon="6.74525">
        <ele>412.4</ele>
        <time>2017-11-01T09:33:22.999Z</time>
      </trkpt>
      <trkpt lat="47.51272" lon="6.74524">
        <ele>412.2</ele>
        <time>2017-11-01T09:33:23.999Z</time>
      </trkpt>
      <trkpt lat="47.51275" lon="6.74521">
        <ele>411.9</ele>
        <time>2017-11-01T09:33:25.999Z</time>
      </trkpt>
      <trkpt lat="47.51277" lon="6.74519">
        <ele>411.8</ele>
        <time>2017-11-01T09:33:26.999Z</time>
      </trkpt>
      <trkpt lat="47.51281" lon="6.74516">
        <ele>411.8</ele>
        <time>2017-11-01T09:33:28.999Z</time>
      </trkpt>
      <trkpt lat="47.51282" lon="6.74513">
        <ele>411.8</ele>
        <time>2017-11-01T09:33:29.999Z</time>
      </trkpt>
      <trkpt lat="47.51285" lon="6.7451">
        <ele>411.6</ele>
        <time>2017-11-01T09:33:31.999Z</time>
      </trkpt>
      <trkpt lat="47.51287" lon="6.74508">
        <ele>411.5</ele>
        <time>2017-11-01T09:33:32.999Z</time>
      </trkpt>
      <trkpt lat="47.51289" lon="6.74507">
        <ele>411.6</ele>
        <time>2017-11-01T09:33:33.999Z</time>
      </trkpt>
      <trkpt lat="47.51291" lon="6.74505">
        <ele>411.8</ele>
        <time>2017-11-01T09:33:34.999Z</time>
      </trkpt>
      <trkpt lat="47.51295" lon="6.74502">
        <ele>412.1</ele>
        <time>2017-11-01T09:33:36.999Z</time>
      </trkpt>
      <trkpt lat="47.51295" lon="6.745">
        <ele>412.2</ele>
        <time>2017-11-01T09:33:37.999Z</time>
      </trkpt>
      <trkpt lat="47.51297" lon="6.74497">
        <ele>412.3</ele>
        <time>2017-11-01T09:33:38.999Z</time>
      </trkpt>
      <trkpt lat="47.51299" lon="6.74494">
        <ele>412.3</ele>
        <time>2017-11-01T09:33:39.999Z</time>
      </trkpt>
      <trkpt lat="47.513" lon="6.74489">
        <ele>412.4</ele>
        <time>2017-11-01T09:33:41.999Z</time>
      </trkpt>
      <trkpt lat="47.513" lon="6.74486">
        <ele>412.4</ele>
        <time>2017-11-01T09:33:42.999Z</time>
      </trkpt>
      <trkpt lat="47.51301" lon="6.7448">
        <ele>412.2</ele>
        <time>2017-11-01T09:33:44.999Z</time>
      </trkpt>
      <trkpt lat="47.51302" lon="6.74478">
        <ele>412.1</ele>
        <time>2017-11-01T09:33:45.999Z</time>
      </trkpt>
      <trkpt lat="47.51303" lon="6.74472">
        <ele>412.1</ele>
        <time>2017-11-01T09:33:47.999Z</time>
      </trkpt>
      <trkpt lat="47.51303" lon="6.74471">
        <ele>412.2</ele>
        <time>2017-11-01T09:33:48.999Z</time>
      </trkpt>
      <trkpt lat="47.51303" lon="6.74465">
        <ele>412.3</ele>
        <time>2017-11-01T09:33:50.999Z</time>
      </trkpt>
      <trkpt lat="47.51304" lon="6.74463">
        <ele>412.3</ele>
        <time>2017-11-01T09:33:51.999Z</time>
      </trkpt>
      <trkpt lat="47.51303" lon="6.74458">
        <ele>412.3</ele>
        <time>2017-11-01T09:33:57.999Z</time>
      </trkpt>
      <trkpt lat="47.51303" lon="6.74457">
        <ele>412.3</ele>
        <time>2017-11-01T09:33:58.999Z</time>
      </trkpt>
      <trkpt lat="47.51302" lon="6.74452">
        <ele>412.2</ele>
        <time>2017-11-01T09:34:01.999Z</time>
      </trkpt>
      <trkpt lat="47.51302" lon="6.7445">
        <ele>412.1</ele>
        <time>2017-11-01T09:34:02.999Z</time>
      </trkpt>
      <trkpt lat="47.51302" lon="6.74447">
        <ele>412.3</ele>
        <time>2017-11-01T09:34:03.999Z</time>
      </trkpt>
      <trkpt lat="47.51303" lon="6.74442">
        <ele>412.4</ele>
        <time>2017-11-01T09:34:04.999Z</time>
      </trkpt>
      <trkpt lat="47.51303" lon="6.74436">
        <ele>412.9</ele>
        <time>2017-11-01T09:34:07.999Z</time>
      </trkpt>
      <trkpt lat="47.51303" lon="6.74435">
        <ele>413</ele>
        <time>2017-11-01T09:34:08.999Z</time>
      </trkpt>
      <trkpt lat="47.51302" lon="6.74429">
        <ele>413.9</ele>
        <time>2017-11-01T09:34:13.999Z</time>
      </trkpt>
      <trkpt lat="47.51302" lon="6.74428">
        <ele>414.2</ele>
        <time>2017-11-01T09:34:14.999Z</time>
      </trkpt>
      <trkpt lat="47.51303" lon="6.74422">
        <ele>415.3</ele>
        <time>2017-11-01T09:34:18.999Z</time>
      </trkpt>
      <trkpt lat="47.51303" lon="6.7442">
        <ele>415.5</ele>
        <time>2017-11-01T09:34:19.999Z</time>
      </trkpt>
      <trkpt lat="47.51302" lon="6.74415">
        <ele>415.9</ele>
        <time>2017-11-01T09:34:21.999Z</time>
      </trkpt>
      <trkpt lat="47.51302" lon="6.74411">
        <ele>416</ele>
        <time>2017-11-01T09:34:22.999Z</time>
      </trkpt>
      <trkpt lat="47.51303" lon="6.74407">
        <ele>416.2</ele>
        <time>2017-11-01T09:34:23.999Z</time>
      </trkpt>
      <trkpt lat="47.51304" lon="6.74404">
        <ele>416.4</ele>
        <time>2017-11-01T09:34:24.999Z</time>
      </trkpt>
      <trkpt lat="47.51305" lon="6.744">
        <ele>416.7</ele>
        <time>2017-11-01T09:34:26.999Z</time>
      </trkpt>
      <trkpt lat="47.51306" lon="6.74397">
        <ele>416.9</ele>
        <time>2017-11-01T09:34:27.999Z</time>
      </trkpt>
      <trkpt lat="47.51309" lon="6.74393">
        <ele>417.3</ele>
        <time>2017-11-01T09:34:29.999Z</time>
      </trkpt>
      <trkpt lat="47.5131" lon="6.74391">
        <ele>417.5</ele>
        <time>2017-11-01T09:34:30.999Z</time>
      </trkpt>
      <trkpt lat="47.51312" lon="6.74387">
        <ele>418.1</ele>
        <time>2017-11-01T09:34:32.999Z</time>
      </trkpt>
      <trkpt lat="47.51314" lon="6.74385">
        <ele>418.2</ele>
        <time>2017-11-01T09:34:33.999Z</time>
      </trkpt>
      <trkpt lat="47.51316" lon="6.7438">
        <ele>418.6</ele>
        <time>2017-11-01T09:34:35.999Z</time>
      </trkpt>
      <trkpt lat="47.51318" lon="6.74377">
        <ele>418.7</ele>
        <time>2017-11-01T09:34:36.999Z</time>
      </trkpt>
      <trkpt lat="47.51319" lon="6.74374">
        <ele>418.9</ele>
        <time>2017-11-01T09:34:37.999Z</time>
      </trkpt>
      <trkpt lat="47.5132" lon="6.74371">
        <ele>419</ele>
        <time>2017-11-01T09:34:38.999Z</time>
      </trkpt>
      <trkpt lat="47.51322" lon="6.74366">
        <ele>419.4</ele>
        <time>2017-11-01T09:34:40.999Z</time>
      </trkpt>
      <trkpt lat="47.51323" lon="6.74364">
        <ele>419.5</ele>
        <time>2017-11-01T09:34:41.999Z</time>
      </trkpt>
      <trkpt lat="47.51324" lon="6.7436">
        <ele>419.6</ele>
        <time>2017-11-01T09:34:42.999Z</time>
      </trkpt>
      <trkpt lat="47.51326" lon="6.74357">
        <ele>419.6</ele>
        <time>2017-11-01T09:34:43.999Z</time>
      </trkpt>
      <trkpt lat="47.51328" lon="6.74352">
        <ele>419.8</ele>
        <time>2017-11-01T09:34:45.999Z</time>
      </trkpt>
      <trkpt lat="47.51328" lon="6.7435">
        <ele>419.9</ele>
        <time>2017-11-01T09:34:46.999Z</time>
      </trkpt>
      <trkpt lat="47.51328" lon="6.74345">
        <ele>420.4</ele>
        <time>2017-11-01T09:34:49.999Z</time>
      </trkpt>
      <trkpt lat="47.51329" lon="6.74342">
        <ele>420.7</ele>
        <time>2017-11-01T09:34:50.999Z</time>
      </trkpt>
      <trkpt lat="47.5133" lon="6.74337">
        <ele>421.3</ele>
        <time>2017-11-01T09:34:52.999Z</time>
      </trkpt>
      <trkpt lat="47.51331" lon="6.74334">
        <ele>421.5</ele>
        <time>2017-11-01T09:34:53.999Z</time>
      </trkpt>
      <trkpt lat="47.51333" lon="6.7433">
        <ele>422</ele>
        <time>2017-11-01T09:34:55.999Z</time>
      </trkpt>
      <trkpt lat="47.51334" lon="6.74327">
        <ele>422.2</ele>
        <time>2017-11-01T09:34:56.999Z</time>
      </trkpt>
      <trkpt lat="47.51336" lon="6.74324">
        <ele>422.6</ele>
        <time>2017-11-01T09:34:58.999Z</time>
      </trkpt>
      <trkpt lat="47.51337" lon="6.74322">
        <ele>422.8</ele>
        <time>2017-11-01T09:34:59.999Z</time>
      </trkpt>
      <trkpt lat="47.51339" lon="6.74318">
        <ele>423.4</ele>
        <time>2017-11-01T09:35:01.999Z</time>
      </trkpt>
      <trkpt lat="47.5134" lon="6.74316">
        <ele>423.6</ele>
        <time>2017-11-01T09:35:02.999Z</time>
      </trkpt>
      <trkpt lat="47.51342" lon="6.74311">
        <ele>424.5</ele>
        <time>2017-11-01T09:35:05.999Z</time>
      </trkpt>
      <trkpt lat="47.51343" lon="6.7431">
        <ele>424.8</ele>
        <time>2017-11-01T09:35:06.999Z</time>
      </trkpt>
      <trkpt lat="47.51345" lon="6.74306">
        <ele>425.3</ele>
        <time>2017-11-01T09:35:08.999Z</time>
      </trkpt>
      <trkpt lat="47.51346" lon="6.74303">
        <ele>425.6</ele>
        <time>2017-11-01T09:35:09.999Z</time>
      </trkpt>
      <trkpt lat="47.51347" lon="6.74296">
        <ele>426.5</ele>
        <time>2017-11-01T09:35:12.999Z</time>
      </trkpt>
      <trkpt lat="47.51348" lon="6.74296">
        <ele>426.8</ele>
        <time>2017-11-01T09:35:13.999Z</time>
      </trkpt>
      <trkpt lat="47.5135" lon="6.74291">
        <ele>427.5</ele>
        <time>2017-11-01T09:35:16.999Z</time>
      </trkpt>
      <trkpt lat="47.5135" lon="6.74289">
        <ele>427.8</ele>
        <time>2017-11-01T09:35:17.999Z</time>
      </trkpt>
      <trkpt lat="47.51353" lon="6.74283">
        <ele>429</ele>
        <time>2017-11-01T09:35:21.999Z</time>
      </trkpt>
      <trkpt lat="47.51354" lon="6.74281">
        <ele>429.3</ele>
        <time>2017-11-01T09:35:22.999Z</time>
      </trkpt>
      <trkpt lat="47.51355" lon="6.74277">
        <ele>429.5</ele>
        <time>2017-11-01T09:35:23.999Z</time>
      </trkpt>
      <trkpt lat="47.51356" lon="6.74274">
        <ele>429.7</ele>
        <time>2017-11-01T09:35:24.999Z</time>
      </trkpt>
      <trkpt lat="47.51357" lon="6.74268">
        <ele>430.8</ele>
        <time>2017-11-01T09:35:29.999Z</time>
      </trkpt>
      <trkpt lat="47.51358" lon="6.74266">
        <ele>431</ele>
        <time>2017-11-01T09:35:30.999Z</time>
      </trkpt>
      <trkpt lat="47.5136" lon="6.74262">
        <ele>431.5</ele>
        <time>2017-11-01T09:35:33.999Z</time>
      </trkpt>
      <trkpt lat="47.51361" lon="6.74261">
        <ele>431.7</ele>
        <time>2017-11-01T09:35:34.999Z</time>
      </trkpt>
      <trkpt lat="47.51363" lon="6.74257">
        <ele>432.1</ele>
        <time>2017-11-01T09:35:36.999Z</time>
      </trkpt>
      <trkpt lat="47.51364" lon="6.74255">
        <ele>432.3</ele>
        <time>2017-11-01T09:35:37.999Z</time>
      </trkpt>
      <trkpt lat="47.51364" lon="6.7425">
        <ele>432.6</ele>
        <time>2017-11-01T09:35:39.999Z</time>
      </trkpt>
      <trkpt lat="47.51365" lon="6.74247">
        <ele>432.8</ele>
        <time>2017-11-01T09:35:40.999Z</time>
      </trkpt>
      <trkpt lat="47.51365" lon="6.74241">
        <ele>433.4</ele>
        <time>2017-11-01T09:35:43.999Z</time>
      </trkpt>
      <trkpt lat="47.51366" lon="6.74239">
        <ele>433.6</ele>
        <time>2017-11-01T09:35:44.999Z</time>
      </trkpt>
      <trkpt lat="47.51368" lon="6.74235">
        <ele>433.9</ele>
        <time>2017-11-01T09:35:46.999Z</time>
      </trkpt>
      <trkpt lat="47.51369" lon="6.74233">
        <ele>434.2</ele>
        <time>2017-11-01T09:35:47.999Z</time>
      </trkpt>
      <trkpt lat="47.5137" lon="6.74227">
        <ele>434.6</ele>
        <time>2017-11-01T09:35:50.999Z</time>
      </trkpt>
      <trkpt lat="47.5137" lon="6.74224">
        <ele>434.7</ele>
        <time>2017-11-01T09:35:51.999Z</time>
      </trkpt>
      <trkpt lat="47.51372" lon="6.74219">
        <ele>435.1</ele>
        <time>2017-11-01T09:35:53.999Z</time>
      </trkpt>
      <trkpt lat="47.51373" lon="6.74217">
        <ele>435.3</ele>
        <time>2017-11-01T09:35:54.999Z</time>
      </trkpt>
      <trkpt lat="47.51376" lon="6.74213">
        <ele>435.9</ele>
        <time>2017-11-01T09:35:57.999Z</time>
      </trkpt>
      <trkpt lat="47.51377" lon="6.74211">
        <ele>435.9</ele>
        <time>2017-11-01T09:35:58.999Z</time>
      </trkpt>
      <trkpt lat="47.51378" lon="6.74205">
        <ele>436.1</ele>
        <time>2017-11-01T09:36:00.999Z</time>
      </trkpt>
      <trkpt lat="47.51379" lon="6.74202">
        <ele>436.2</ele>
        <time>2017-11-01T09:36:01.999Z</time>
      </trkpt>
      <trkpt lat="47.51381" lon="6.74198">
        <ele>436.6</ele>
        <time>2017-11-01T09:36:04.999Z</time>
      </trkpt>
      <trkpt lat="47.51382" lon="6.74195">
        <ele>436.8</ele>
        <time>2017-11-01T09:36:05.999Z</time>
      </trkpt>
      <trkpt lat="47.51383" lon="6.74191">
        <ele>437</ele>
        <time>2017-11-01T09:36:06.999Z</time>
      </trkpt>
      <trkpt lat="47.51384" lon="6.74188">
        <ele>437.1</ele>
        <time>2017-11-01T09:36:07.999Z</time>
      </trkpt>
      <trkpt lat="47.51385" lon="6.74182">
        <ele>437.4</ele>
        <time>2017-11-01T09:36:09.999Z</time>
      </trkpt>
      <trkpt lat="47.51386" lon="6.74179">
        <ele>437.5</ele>
        <time>2017-11-01T09:36:10.999Z</time>
      </trkpt>
      <trkpt lat="47.51388" lon="6.74175">
        <ele>437.7</ele>
        <time>2017-11-01T09:36:12.999Z</time>
      </trkpt>
      <trkpt lat="47.51389" lon="6.74173">
        <ele>437.7</ele>
        <time>2017-11-01T09:36:13.999Z</time>
      </trkpt>
      <trkpt lat="47.5139" lon="6.74167">
        <ele>437.9</ele>
        <time>2017-11-01T09:36:16.999Z</time>
      </trkpt>
      <trkpt lat="47.51391" lon="6.74164">
        <ele>437.9</ele>
        <time>2017-11-01T09:36:17.999Z</time>
      </trkpt>
      <trkpt lat="47.51392" lon="6.74162">
        <ele>437.9</ele>
        <time>2017-11-01T09:36:18.999Z</time>
      </trkpt>
      <trkpt lat="47.51393" lon="6.74158">
        <ele>438</ele>
        <time>2017-11-01T09:36:19.999Z</time>
      </trkpt>
      <trkpt lat="47.51395" lon="6.74153">
        <ele>438</ele>
        <time>2017-11-01T09:36:21.999Z</time>
      </trkpt>
      <trkpt lat="47.51395" lon="6.74151">
        <ele>437.9</ele>
        <time>2017-11-01T09:36:22.999Z</time>
      </trkpt>
      <trkpt lat="47.51399" lon="6.74152">
        <ele>437.5</ele>
        <time>2017-11-01T09:36:42.999Z</time>
      </trkpt>
      <trkpt lat="47.514" lon="6.74152">
        <ele>437.5</ele>
        <time>2017-11-01T09:36:43.999Z</time>
      </trkpt>
      <trkpt lat="47.51404" lon="6.74155">
        <ele>437.7</ele>
        <time>2017-11-01T09:37:00.999Z</time>
      </trkpt>
      <trkpt lat="47.51404" lon="6.74155">
        <ele>437.8</ele>
        <time>2017-11-01T09:37:01.999Z</time>
      </trkpt>
      <trkpt lat="47.51403" lon="6.74151">
        <ele>438.4</ele>
        <time>2017-11-01T09:37:20.999Z</time>
      </trkpt>
      <trkpt lat="47.51404" lon="6.74146">
        <ele>438.4</ele>
        <time>2017-11-01T09:37:21.999Z</time>
      </trkpt>
      <trkpt lat="47.51404" lon="6.74142">
        <ele>438.4</ele>
        <time>2017-11-01T09:37:22.999Z</time>
      </trkpt>
      <trkpt lat="47.51406" lon="6.74139">
        <ele>438.5</ele>
        <time>2017-11-01T09:37:23.999Z</time>
      </trkpt>
      <trkpt lat="47.51407" lon="6.74134">
        <ele>438.8</ele>
        <time>2017-11-01T09:37:25.999Z</time>
      </trkpt>
      <trkpt lat="47.51407" lon="6.74131">
        <ele>438.8</ele>
        <time>2017-11-01T09:37:26.999Z</time>
      </trkpt>
      <trkpt lat="47.51407" lon="6.74126">
        <ele>439</ele>
        <time>2017-11-01T09:37:28.999Z</time>
      </trkpt>
      <trkpt lat="47.51407" lon="6.74122">
        <ele>439</ele>
        <time>2017-11-01T09:37:29.999Z</time>
      </trkpt>
      <trkpt lat="47.51408" lon="6.74117">
        <ele>439</ele>
        <time>2017-11-01T09:37:32.999Z</time>
      </trkpt>
      <trkpt lat="47.5141" lon="6.74114">
        <ele>439</ele>
        <time>2017-11-01T09:37:33.999Z</time>
      </trkpt>
      <trkpt lat="47.5141" lon="6.7411">
        <ele>439</ele>
        <time>2017-11-01T09:37:35.999Z</time>
      </trkpt>
      <trkpt lat="47.51411" lon="6.74108">
        <ele>439</ele>
        <time>2017-11-01T09:37:36.999Z</time>
      </trkpt>
      <trkpt lat="47.51412" lon="6.74102">
        <ele>439</ele>
        <time>2017-11-01T09:37:39.999Z</time>
      </trkpt>
      <trkpt lat="47.51412" lon="6.741">
        <ele>439</ele>
        <time>2017-11-01T09:37:40.999Z</time>
      </trkpt>
      <trkpt lat="47.51412" lon="6.74094">
        <ele>439</ele>
        <time>2017-11-01T09:37:42.999Z</time>
      </trkpt>
      <trkpt lat="47.51412" lon="6.7409">
        <ele>439</ele>
        <time>2017-11-01T09:37:43.999Z</time>
      </trkpt>
      <trkpt lat="47.51413" lon="6.74085">
        <ele>439</ele>
        <time>2017-11-01T09:37:45.999Z</time>
      </trkpt>
      <trkpt lat="47.51413" lon="6.74082">
        <ele>439.1</ele>
        <time>2017-11-01T09:37:46.999Z</time>
      </trkpt>
      <trkpt lat="47.51415" lon="6.74076">
        <ele>439.2</ele>
        <time>2017-11-01T09:37:48.999Z</time>
      </trkpt>
      <trkpt lat="47.51415" lon="6.74074">
        <ele>439.2</ele>
        <time>2017-11-01T09:37:49.999Z</time>
      </trkpt>
      <trkpt lat="47.51417" lon="6.74069">
        <ele>439.2</ele>
        <time>2017-11-01T09:37:51.999Z</time>
      </trkpt>
      <trkpt lat="47.51418" lon="6.74067">
        <ele>439.1</ele>
        <time>2017-11-01T09:37:52.999Z</time>
      </trkpt>
      <trkpt lat="47.51421" lon="6.74064">
        <ele>438.9</ele>
        <time>2017-11-01T09:37:54.999Z</time>
      </trkpt>
      <trkpt lat="47.51424" lon="6.74063">
        <ele>438.8</ele>
        <time>2017-11-01T09:37:55.999Z</time>
      </trkpt>
      <trkpt lat="47.51426" lon="6.74061">
        <ele>438.7</ele>
        <time>2017-11-01T09:37:57.999Z</time>
      </trkpt>
      <trkpt lat="47.51427" lon="6.74059">
        <ele>438.7</ele>
        <time>2017-11-01T09:37:58.999Z</time>
      </trkpt>
      <trkpt lat="47.51429" lon="6.74055">
        <ele>438.5</ele>
        <time>2017-11-01T09:38:00.999Z</time>
      </trkpt>
      <trkpt lat="47.51431" lon="6.74053">
        <ele>438.4</ele>
        <time>2017-11-01T09:38:01.999Z</time>
      </trkpt>
      <trkpt lat="47.51432" lon="6.7405">
        <ele>438.4</ele>
        <time>2017-11-01T09:38:02.999Z</time>
      </trkpt>
      <trkpt lat="47.51435" lon="6.74047">
        <ele>438.4</ele>
        <time>2017-11-01T09:38:03.999Z</time>
      </trkpt>
      <trkpt lat="47.51436" lon="6.74044">
        <ele>438.2</ele>
        <time>2017-11-01T09:38:04.999Z</time>
      </trkpt>
      <trkpt lat="47.51437" lon="6.74041">
        <ele>438.1</ele>
        <time>2017-11-01T09:38:05.999Z</time>
      </trkpt>
      <trkpt lat="47.51437" lon="6.74037">
        <ele>438.1</ele>
        <time>2017-11-01T09:38:06.999Z</time>
      </trkpt>
      <trkpt lat="47.51437" lon="6.74034">
        <ele>438</ele>
        <time>2017-11-01T09:38:07.999Z</time>
      </trkpt>
      <trkpt lat="47.51437" lon="6.74028">
        <ele>438</ele>
        <time>2017-11-01T09:38:10.999Z</time>
      </trkpt>
      <trkpt lat="47.51437" lon="6.74026">
        <ele>438</ele>
        <time>2017-11-01T09:38:11.999Z</time>
      </trkpt>
      <trkpt lat="47.51438" lon="6.74021">
        <ele>437.9</ele>
        <time>2017-11-01T09:38:13.999Z</time>
      </trkpt>
      <trkpt lat="47.51438" lon="6.74018">
        <ele>437.8</ele>
        <time>2017-11-01T09:38:14.999Z</time>
      </trkpt>
      <trkpt lat="47.51439" lon="6.74016">
        <ele>437.8</ele>
        <time>2017-11-01T09:38:15.999Z</time>
      </trkpt>
      <trkpt lat="47.5144" lon="6.74012">
        <ele>437.7</ele>
        <time>2017-11-01T09:38:16.999Z</time>
      </trkpt>
      <trkpt lat="47.5144" lon="6.74006">
        <ele>437.6</ele>
        <time>2017-11-01T09:38:18.999Z</time>
      </trkpt>
      <trkpt lat="47.5144" lon="6.74005">
        <ele>437.5</ele>
        <time>2017-11-01T09:38:19.999Z</time>
      </trkpt>
      <trkpt lat="47.51441" lon="6.74">
        <ele>437.2</ele>
        <time>2017-11-01T09:38:22.999Z</time>
      </trkpt>
      <trkpt lat="47.5144" lon="6.73997">
        <ele>437</ele>
        <time>2017-11-01T09:38:23.999Z</time>
      </trkpt>
      <trkpt lat="47.51439" lon="6.7399">
        <ele>436.9</ele>
        <time>2017-11-01T09:38:26.999Z</time>
      </trkpt>
      <trkpt lat="47.51439" lon="6.73987">
        <ele>436.8</ele>
        <time>2017-11-01T09:38:27.999Z</time>
      </trkpt>
      <trkpt lat="47.5144" lon="6.73981">
        <ele>436.8</ele>
        <time>2017-11-01T09:38:29.999Z</time>
      </trkpt>
      <trkpt lat="47.51441" lon="6.73978">
        <ele>436.7</ele>
        <time>2017-11-01T09:38:30.999Z</time>
      </trkpt>
      <trkpt lat="47.51441" lon="6.73971">
        <ele>436.4</ele>
        <time>2017-11-01T09:38:32.999Z</time>
      </trkpt>
      <trkpt lat="47.51441" lon="6.73968">
        <ele>436.4</ele>
        <time>2017-11-01T09:38:33.999Z</time>
      </trkpt>
      <trkpt lat="47.51441" lon="6.73963">
        <ele>436.4</ele>
        <time>2017-11-01T09:38:35.999Z</time>
      </trkpt>
      <trkpt lat="47.51441" lon="6.7396">
        <ele>436.4</ele>
        <time>2017-11-01T09:38:36.999Z</time>
      </trkpt>
      <trkpt lat="47.5144" lon="6.73954">
        <ele>436.5</ele>
        <time>2017-11-01T09:38:39.999Z</time>
      </trkpt>
      <trkpt lat="47.5144" lon="6.73952">
        <ele>436.6</ele>
        <time>2017-11-01T09:38:40.999Z</time>
      </trkpt>
      <trkpt lat="47.51439" lon="6.73947">
        <ele>436.6</ele>
        <time>2017-11-01T09:38:42.999Z</time>
      </trkpt>
      <trkpt lat="47.5144" lon="6.73944">
        <ele>436.6</ele>
        <time>2017-11-01T09:38:43.999Z</time>
      </trkpt>
      <trkpt lat="47.51439" lon="6.73939">
        <ele>436.6</ele>
        <time>2017-11-01T09:38:46.999Z</time>
      </trkpt>
      <trkpt lat="47.51439" lon="6.73935">
        <ele>436.5</ele>
        <time>2017-11-01T09:38:47.999Z</time>
      </trkpt>
      <trkpt lat="47.51438" lon="6.73929">
        <ele>436.7</ele>
        <time>2017-11-01T09:38:49.999Z</time>
      </trkpt>
      <trkpt lat="47.51438" lon="6.73928">
        <ele>436.8</ele>
        <time>2017-11-01T09:38:50.999Z</time>
      </trkpt>
      <trkpt lat="47.51438" lon="6.73921">
        <ele>437.2</ele>
        <time>2017-11-01T09:38:54.999Z</time>
      </trkpt>
      <trkpt lat="47.51438" lon="6.7392">
        <ele>437.3</ele>
        <time>2017-11-01T09:38:55.999Z</time>
      </trkpt>
      <trkpt lat="47.51438" lon="6.73915">
        <ele>437.7</ele>
        <time>2017-11-01T09:38:59.999Z</time>
      </trkpt>
      <trkpt lat="47.51437" lon="6.73913">
        <ele>437.7</ele>
        <time>2017-11-01T09:39:00.999Z</time>
      </trkpt>
      <trkpt lat="47.51436" lon="6.7391">
        <ele>437.5</ele>
        <time>2017-11-01T09:39:02.999Z</time>
      </trkpt>
      <trkpt lat="47.51435" lon="6.73907">
        <ele>437.4</ele>
        <time>2017-11-01T09:39:03.999Z</time>
      </trkpt>
      <trkpt lat="47.51435" lon="6.73901">
        <ele>437.3</ele>
        <time>2017-11-01T09:39:05.999Z</time>
      </trkpt>
      <trkpt lat="47.51435" lon="6.73898">
        <ele>437.3</ele>
        <time>2017-11-01T09:39:06.999Z</time>
      </trkpt>
      <trkpt lat="47.51434" lon="6.73892">
        <ele>437.2</ele>
        <time>2017-11-01T09:39:08.999Z</time>
      </trkpt>
      <trkpt lat="47.51433" lon="6.7389">
        <ele>437.2</ele>
        <time>2017-11-01T09:39:09.999Z</time>
      </trkpt>
      <trkpt lat="47.51432" lon="6.73886">
        <ele>437.2</ele>
        <time>2017-11-01T09:39:11.999Z</time>
      </trkpt>
      <trkpt lat="47.51432" lon="6.73883">
        <ele>437.3</ele>
        <time>2017-11-01T09:39:12.999Z</time>
      </trkpt>
      <trkpt lat="47.51431" lon="6.73877">
        <ele>437.4</ele>
        <time>2017-11-01T09:39:15.999Z</time>
      </trkpt>
      <trkpt lat="47.5143" lon="6.73875">
        <ele>437.4</ele>
        <time>2017-11-01T09:39:16.999Z</time>
      </trkpt>
      <trkpt lat="47.51428" lon="6.73869">
        <ele>437.8</ele>
        <time>2017-11-01T09:39:20.999Z</time>
      </trkpt>
      <trkpt lat="47.51428" lon="6.73867">
        <ele>437.9</ele>
        <time>2017-11-01T09:39:21.999Z</time>
      </trkpt>
      <trkpt lat="47.51427" lon="6.73861">
        <ele>438.3</ele>
        <time>2017-11-01T09:39:24.999Z</time>
      </trkpt>
      <trkpt lat="47.51426" lon="6.73859">
        <ele>438.4</ele>
        <time>2017-11-01T09:39:25.999Z</time>
      </trkpt>
      <trkpt lat="47.51425" lon="6.73855">
        <ele>438.7</ele>
        <time>2017-11-01T09:39:27.999Z</time>
      </trkpt>
      <trkpt lat="47.51423" lon="6.73852">
        <ele>438.8</ele>
        <time>2017-11-01T09:39:28.999Z</time>
      </trkpt>
      <trkpt lat="47.51422" lon="6.73847">
        <ele>438.9</ele>
        <time>2017-11-01T09:39:30.999Z</time>
      </trkpt>
      <trkpt lat="47.51422" lon="6.73845">
        <ele>438.9</ele>
        <time>2017-11-01T09:39:31.999Z</time>
      </trkpt>
      <trkpt lat="47.51425" lon="6.73842">
        <ele>439.4</ele>
        <time>2017-11-01T09:39:46.999Z</time>
      </trkpt>
      <trkpt lat="47.51425" lon="6.73841">
        <ele>439.2</ele>
        <time>2017-11-01T09:39:47.999Z</time>
      </trkpt>
      <trkpt lat="47.51428" lon="6.73838">
        <ele>439.1</ele>
        <time>2017-11-01T09:39:50.999Z</time>
      </trkpt>
      <trkpt lat="47.51429" lon="6.73835">
        <ele>439.1</ele>
        <time>2017-11-01T09:39:51.999Z</time>
      </trkpt>
      <trkpt lat="47.51431" lon="6.73831">
        <ele>439.2</ele>
        <time>2017-11-01T09:39:54.999Z</time>
      </trkpt>
      <trkpt lat="47.51432" lon="6.7383">
        <ele>439.2</ele>
        <time>2017-11-01T09:39:55.999Z</time>
      </trkpt>
      <trkpt lat="47.51432" lon="6.73824">
        <ele>441.8</ele>
        <time>2017-11-01T09:40:08.999Z</time>
      </trkpt>
      <trkpt lat="47.51431" lon="6.73822">
        <ele>442</ele>
        <time>2017-11-01T09:40:09.999Z</time>
      </trkpt>
      <trkpt lat="47.51431" lon="6.73815">
        <ele>442.3</ele>
        <time>2017-11-01T09:40:10.999Z</time>
      </trkpt>
      <trkpt lat="47.51431" lon="6.73813">
        <ele>442.6</ele>
        <time>2017-11-01T09:40:11.999Z</time>
      </trkpt>
      <trkpt lat="47.51432" lon="6.73806">
        <ele>443</ele>
        <time>2017-11-01T09:40:13.999Z</time>
      </trkpt>
      <trkpt lat="47.51432" lon="6.73805">
        <ele>443.2</ele>
        <time>2017-11-01T09:40:14.999Z</time>
      </trkpt>
      <trkpt lat="47.51431" lon="6.73799">
        <ele>443.8</ele>
        <time>2017-11-01T09:40:16.999Z</time>
      </trkpt>
      <trkpt lat="47.5143" lon="6.73797">
        <ele>444.1</ele>
        <time>2017-11-01T09:40:17.999Z</time>
      </trkpt>
      <trkpt lat="47.51429" lon="6.73791">
        <ele>444.6</ele>
        <time>2017-11-01T09:40:19.999Z</time>
      </trkpt>
      <trkpt lat="47.51428" lon="6.73789">
        <ele>444.9</ele>
        <time>2017-11-01T09:40:20.999Z</time>
      </trkpt>
      <trkpt lat="47.51427" lon="6.73786">
        <ele>445.1</ele>
        <time>2017-11-01T09:40:21.999Z</time>
      </trkpt>
      <trkpt lat="47.51426" lon="6.7378">
        <ele>445.2</ele>
        <time>2017-11-01T09:40:22.999Z</time>
      </trkpt>
      <trkpt lat="47.51423" lon="6.73777">
        <ele>445.3</ele>
        <time>2017-11-01T09:40:24.999Z</time>
      </trkpt>
      <trkpt lat="47.51422" lon="6.73776">
        <ele>445.4</ele>
        <time>2017-11-01T09:40:25.999Z</time>
      </trkpt>
      <trkpt lat="47.5142" lon="6.73771">
        <ele>445.4</ele>
        <time>2017-11-01T09:40:26.999Z</time>
      </trkpt>
      <trkpt lat="47.5142" lon="6.7377">
        <ele>445.5</ele>
        <time>2017-11-01T09:40:27.999Z</time>
      </trkpt>
      <trkpt lat="47.51418" lon="6.73764">
        <ele>445.7</ele>
        <time>2017-11-01T09:40:30.999Z</time>
      </trkpt>
      <trkpt lat="47.51417" lon="6.73761">
        <ele>445.7</ele>
        <time>2017-11-01T09:40:31.999Z</time>
      </trkpt>
      <trkpt lat="47.51416" lon="6.73755">
        <ele>445.6</ele>
        <time>2017-11-01T09:40:32.999Z</time>
      </trkpt>
      <trkpt lat="47.51415" lon="6.73753">
        <ele>445.7</ele>
        <time>2017-11-01T09:40:33.999Z</time>
      </trkpt>
      <trkpt lat="47.51414" lon="6.7375">
        <ele>445.9</ele>
        <time>2017-11-01T09:40:35.999Z</time>
      </trkpt>
      <trkpt lat="47.51413" lon="6.73746">
        <ele>446</ele>
        <time>2017-11-01T09:40:36.999Z</time>
      </trkpt>
      <trkpt lat="47.51413" lon="6.7374">
        <ele>446</ele>
        <time>2017-11-01T09:40:37.999Z</time>
      </trkpt>
      <trkpt lat="47.51413" lon="6.73739">
        <ele>446.2</ele>
        <time>2017-11-01T09:40:38.999Z</time>
      </trkpt>
      <trkpt lat="47.51413" lon="6.73736">
        <ele>446.6</ele>
        <time>2017-11-01T09:40:41.999Z</time>
      </trkpt>
      <trkpt lat="47.51411" lon="6.7373">
        <ele>446.6</ele>
        <time>2017-11-01T09:40:42.999Z</time>
      </trkpt>
      <trkpt lat="47.5141" lon="6.73724">
        <ele>446.8</ele>
        <time>2017-11-01T09:40:43.999Z</time>
      </trkpt>
      <trkpt lat="47.5141" lon="6.73719">
        <ele>446.9</ele>
        <time>2017-11-01T09:40:44.999Z</time>
      </trkpt>
      <trkpt lat="47.5141" lon="6.73714">
        <ele>447.3</ele>
        <time>2017-11-01T09:40:47.999Z</time>
      </trkpt>
      <trkpt lat="47.51411" lon="6.73712">
        <ele>447.3</ele>
        <time>2017-11-01T09:40:48.999Z</time>
      </trkpt>
      <trkpt lat="47.51412" lon="6.73709">
        <ele>447.4</ele>
        <time>2017-11-01T09:40:49.999Z</time>
      </trkpt>
      <trkpt lat="47.51414" lon="6.73703">
        <ele>447.4</ele>
        <time>2017-11-01T09:40:50.999Z</time>
      </trkpt>
      <trkpt lat="47.51415" lon="6.73696">
        <ele>447.5</ele>
        <time>2017-11-01T09:40:51.999Z</time>
      </trkpt>
      <trkpt lat="47.51413" lon="6.73692">
        <ele>447.6</ele>
        <time>2017-11-01T09:40:53.999Z</time>
      </trkpt>
      <trkpt lat="47.51412" lon="6.7369">
        <ele>447.7</ele>
        <time>2017-11-01T09:40:54.999Z</time>
      </trkpt>
      <trkpt lat="47.5141" lon="6.73686">
        <ele>447.6</ele>
        <time>2017-11-01T09:40:56.999Z</time>
      </trkpt>
      <trkpt lat="47.51409" lon="6.73681">
        <ele>447.6</ele>
        <time>2017-11-01T09:40:57.999Z</time>
      </trkpt>
      <trkpt lat="47.51409" lon="6.73679">
        <ele>447.5</ele>
        <time>2017-11-01T09:40:58.999Z</time>
      </trkpt>
      <trkpt lat="47.51408" lon="6.73672">
        <ele>447.2</ele>
        <time>2017-11-01T09:40:59.999Z</time>
      </trkpt>
      <trkpt lat="47.51408" lon="6.73667">
        <ele>447.2</ele>
        <time>2017-11-01T09:41:01.999Z</time>
      </trkpt>
      <trkpt lat="47.51409" lon="6.73664">
        <ele>447.2</ele>
        <time>2017-11-01T09:41:02.999Z</time>
      </trkpt>
      <trkpt lat="47.5141" lon="6.7366">
        <ele>447.2</ele>
        <time>2017-11-01T09:41:03.999Z</time>
      </trkpt>
      <trkpt lat="47.51411" lon="6.73657">
        <ele>447.2</ele>
        <time>2017-11-01T09:41:04.999Z</time>
      </trkpt>
      <trkpt lat="47.51412" lon="6.73651">
        <ele>447.2</ele>
        <time>2017-11-01T09:41:05.999Z</time>
      </trkpt>
      <trkpt lat="47.51411" lon="6.73648">
        <ele>447.3</ele>
        <time>2017-11-01T09:41:06.999Z</time>
      </trkpt>
      <trkpt lat="47.51411" lon="6.73645">
        <ele>447.5</ele>
        <time>2017-11-01T09:41:07.999Z</time>
      </trkpt>
      <trkpt lat="47.5141" lon="6.73641">
        <ele>447.6</ele>
        <time>2017-11-01T09:41:08.999Z</time>
      </trkpt>
      <trkpt lat="47.51409" lon="6.73635">
        <ele>447.8</ele>
        <time>2017-11-01T09:41:11.999Z</time>
      </trkpt>
      <trkpt lat="47.5141" lon="6.73634">
        <ele>447.9</ele>
        <time>2017-11-01T09:41:12.999Z</time>
      </trkpt>
      <trkpt lat="47.51411" lon="6.7363">
        <ele>448.1</ele>
        <time>2017-11-01T09:41:14.999Z</time>
      </trkpt>
      <trkpt lat="47.51412" lon="6.73627">
        <ele>448.2</ele>
        <time>2017-11-01T09:41:15.999Z</time>
      </trkpt>
      <trkpt lat="47.51413" lon="6.73623">
        <ele>448.3</ele>
        <time>2017-11-01T09:41:17.999Z</time>
      </trkpt>
      <trkpt lat="47.51415" lon="6.73622">
        <ele>448.4</ele>
        <time>2017-11-01T09:41:18.999Z</time>
      </trkpt>
      <trkpt lat="47.51416" lon="6.73619">
        <ele>448.5</ele>
        <time>2017-11-01T09:41:20.999Z</time>
      </trkpt>
      <trkpt lat="47.51416" lon="6.73614">
        <ele>448.5</ele>
        <time>2017-11-01T09:41:21.999Z</time>
      </trkpt>
      <trkpt lat="47.51417" lon="6.7361">
        <ele>448.4</ele>
        <time>2017-11-01T09:41:22.999Z</time>
      </trkpt>
      <trkpt lat="47.51417" lon="6.73604">
        <ele>448.4</ele>
        <time>2017-11-01T09:41:23.999Z</time>
      </trkpt>
      <trkpt lat="47.51416" lon="6.73598">
        <ele>448.4</ele>
        <time>2017-11-01T09:41:25.999Z</time>
      </trkpt>
      <trkpt lat="47.51416" lon="6.73595">
        <ele>448.4</ele>
        <time>2017-11-01T09:41:26.999Z</time>
      </trkpt>
      <trkpt lat="47.51416" lon="6.7359">
        <ele>448.4</ele>
        <time>2017-11-01T09:41:28.999Z</time>
      </trkpt>
      <trkpt lat="47.51417" lon="6.73587">
        <ele>448.3</ele>
        <time>2017-11-01T09:41:29.999Z</time>
      </trkpt>
      <trkpt lat="47.51418" lon="6.73581">
        <ele>448.2</ele>
        <time>2017-11-01T09:41:31.999Z</time>
      </trkpt>
      <trkpt lat="47.51418" lon="6.73576">
        <ele>448.2</ele>
        <time>2017-11-01T09:41:32.999Z</time>
      </trkpt>
      <trkpt lat="47.51419" lon="6.73572">
        <ele>448.2</ele>
        <time>2017-11-01T09:41:33.999Z</time>
      </trkpt>
      <trkpt lat="47.51419" lon="6.73568">
        <ele>448.1</ele>
        <time>2017-11-01T09:41:34.999Z</time>
      </trkpt>
      <trkpt lat="47.5142" lon="6.73564">
        <ele>448</ele>
        <time>2017-11-01T09:41:35.999Z</time>
      </trkpt>
      <trkpt lat="47.5142" lon="6.7356">
        <ele>448</ele>
        <time>2017-11-01T09:41:36.999Z</time>
      </trkpt>
      <trkpt lat="47.51419" lon="6.73555">
        <ele>447.9</ele>
        <time>2017-11-01T09:41:37.999Z</time>
      </trkpt>
      <trkpt lat="47.51419" lon="6.73551">
        <ele>447.8</ele>
        <time>2017-11-01T09:41:38.999Z</time>
      </trkpt>
      <trkpt lat="47.51419" lon="6.73546">
        <ele>447.8</ele>
        <time>2017-11-01T09:41:39.999Z</time>
      </trkpt>
      <trkpt lat="47.51419" lon="6.73543">
        <ele>447.8</ele>
        <time>2017-11-01T09:41:40.999Z</time>
      </trkpt>
      <trkpt lat="47.51419" lon="6.73536">
        <ele>447.7</ele>
        <time>2017-11-01T09:41:42.999Z</time>
      </trkpt>
      <trkpt lat="47.5142" lon="6.73534">
        <ele>447.8</ele>
        <time>2017-11-01T09:41:43.999Z</time>
      </trkpt>
      <trkpt lat="47.51422" lon="6.7353">
        <ele>448.1</ele>
        <time>2017-11-01T09:41:45.999Z</time>
      </trkpt>
      <trkpt lat="47.51423" lon="6.73527">
        <ele>448.2</ele>
        <time>2017-11-01T09:41:46.999Z</time>
      </trkpt>
      <trkpt lat="47.51424" lon="6.73521">
        <ele>448.4</ele>
        <time>2017-11-01T09:41:48.999Z</time>
      </trkpt>
      <trkpt lat="47.51425" lon="6.73518">
        <ele>448.5</ele>
        <time>2017-11-01T09:41:49.999Z</time>
      </trkpt>
      <trkpt lat="47.51427" lon="6.73513">
        <ele>448.8</ele>
        <time>2017-11-01T09:41:51.999Z</time>
      </trkpt>
      <trkpt lat="47.51427" lon="6.73509">
        <ele>448.9</ele>
        <time>2017-11-01T09:41:52.999Z</time>
      </trkpt>
      <trkpt lat="47.51427" lon="6.73504">
        <ele>449.3</ele>
        <time>2017-11-01T09:41:55.999Z</time>
      </trkpt>
      <trkpt lat="47.51428" lon="6.73502">
        <ele>449.4</ele>
        <time>2017-11-01T09:41:56.999Z</time>
      </trkpt>
      <trkpt lat="47.51432" lon="6.735">
        <ele>452</ele>
        <time>2017-11-01T09:42:24.999Z</time>
      </trkpt>
      <trkpt lat="47.51432" lon="6.73499">
        <ele>452</ele>
        <time>2017-11-01T09:42:25.999Z</time>
      </trkpt>
      <trkpt lat="47.51431" lon="6.73493">
        <ele>452.1</ele>
        <time>2017-11-01T09:42:33.999Z</time>
      </trkpt>
      <trkpt lat="47.5143" lon="6.73493">
        <ele>452.1</ele>
        <time>2017-11-01T09:42:34.999Z</time>
      </trkpt>
      <trkpt lat="47.51429" lon="6.73487">
        <ele>452.7</ele>
        <time>2017-11-01T09:42:49.999Z</time>
      </trkpt>
      <trkpt lat="47.51431" lon="6.73484">
        <ele>452.9</ele>
        <time>2017-11-01T09:42:50.999Z</time>
      </trkpt>
      <trkpt lat="47.51433" lon="6.73481">
        <ele>453.4</ele>
        <time>2017-11-01T09:42:52.999Z</time>
      </trkpt>
      <trkpt lat="47.51433" lon="6.73478">
        <ele>453.7</ele>
        <time>2017-11-01T09:42:53.999Z</time>
      </trkpt>
      <trkpt lat="47.51433" lon="6.73472">
        <ele>454.3</ele>
        <time>2017-11-01T09:42:56.999Z</time>
      </trkpt>
      <trkpt lat="47.51433" lon="6.7347">
        <ele>454.3</ele>
        <time>2017-11-01T09:42:57.999Z</time>
      </trkpt>
      <trkpt lat="47.51433" lon="6.73463">
        <ele>454.4</ele>
        <time>2017-11-01T09:42:59.999Z</time>
      </trkpt>
      <trkpt lat="47.51434" lon="6.7346">
        <ele>454.5</ele>
        <time>2017-11-01T09:43:00.999Z</time>
      </trkpt>
      <trkpt lat="47.51434" lon="6.73457">
        <ele>454.7</ele>
        <time>2017-11-01T09:43:01.999Z</time>
      </trkpt>
      <trkpt lat="47.51435" lon="6.73454">
        <ele>454.8</ele>
        <time>2017-11-01T09:43:02.999Z</time>
      </trkpt>
      <trkpt lat="47.51436" lon="6.73447">
        <ele>454.9</ele>
        <time>2017-11-01T09:43:04.999Z</time>
      </trkpt>
      <trkpt lat="47.51437" lon="6.73443">
        <ele>454.9</ele>
        <time>2017-11-01T09:43:05.999Z</time>
      </trkpt>
      <trkpt lat="47.51438" lon="6.73437">
        <ele>455.1</ele>
        <time>2017-11-01T09:43:07.999Z</time>
      </trkpt>
      <trkpt lat="47.51438" lon="6.73434">
        <ele>455.1</ele>
        <time>2017-11-01T09:43:08.999Z</time>
      </trkpt>
      <trkpt lat="47.51439" lon="6.73431">
        <ele>455.2</ele>
        <time>2017-11-01T09:43:09.999Z</time>
      </trkpt>
      <trkpt lat="47.5144" lon="6.73426">
        <ele>455.2</ele>
        <time>2017-11-01T09:43:10.999Z</time>
      </trkpt>
      <trkpt lat="47.51441" lon="6.73419">
        <ele>455.3</ele>
        <time>2017-11-01T09:43:12.999Z</time>
      </trkpt>
      <trkpt lat="47.51441" lon="6.73416">
        <ele>455.4</ele>
        <time>2017-11-01T09:43:13.999Z</time>
      </trkpt>
      <trkpt lat="47.51442" lon="6.73412">
        <ele>455.5</ele>
        <time>2017-11-01T09:43:14.999Z</time>
      </trkpt>
      <trkpt lat="47.51443" lon="6.73408">
        <ele>455.6</ele>
        <time>2017-11-01T09:43:15.999Z</time>
      </trkpt>
      <trkpt lat="47.51444" lon="6.73402">
        <ele>455.7</ele>
        <time>2017-11-01T09:43:18.999Z</time>
      </trkpt>
      <trkpt lat="47.51445" lon="6.73397">
        <ele>455.7</ele>
        <time>2017-11-01T09:43:19.999Z</time>
      </trkpt>
      <trkpt lat="47.51446" lon="6.73392">
        <ele>455.7</ele>
        <time>2017-11-01T09:43:20.999Z</time>
      </trkpt>
      <trkpt lat="47.51447" lon="6.73388">
        <ele>455.7</ele>
        <time>2017-11-01T09:43:21.999Z</time>
      </trkpt>
      <trkpt lat="47.51449" lon="6.73384">
        <ele>455.6</ele>
        <time>2017-11-01T09:43:22.999Z</time>
      </trkpt>
      <trkpt lat="47.51449" lon="6.73381">
        <ele>455.6</ele>
        <time>2017-11-01T09:43:23.999Z</time>
      </trkpt>
      <trkpt lat="47.51451" lon="6.73375">
        <ele>455.6</ele>
        <time>2017-11-01T09:43:25.999Z</time>
      </trkpt>
      <trkpt lat="47.51452" lon="6.73371">
        <ele>455.5</ele>
        <time>2017-11-01T09:43:26.999Z</time>
      </trkpt>
      <trkpt lat="47.51452" lon="6.73367">
        <ele>455.5</ele>
        <time>2017-11-01T09:43:27.999Z</time>
      </trkpt>
      <trkpt lat="47.51453" lon="6.73363">
        <ele>455.6</ele>
        <time>2017-11-01T09:43:28.999Z</time>
      </trkpt>
      <trkpt lat="47.51453" lon="6.73359">
        <ele>455.5</ele>
        <time>2017-11-01T09:43:29.999Z</time>
      </trkpt>
      <trkpt lat="47.51454" lon="6.73356">
        <ele>455.5</ele>
        <time>2017-11-01T09:43:30.999Z</time>
      </trkpt>
      <trkpt lat="47.51454" lon="6.73353">
        <ele>455.5</ele>
        <time>2017-11-01T09:43:31.999Z</time>
      </trkpt>
      <trkpt lat="47.51455" lon="6.73349">
        <ele>455.4</ele>
        <time>2017-11-01T09:43:32.999Z</time>
      </trkpt>
      <trkpt lat="47.51458" lon="6.73345">
        <ele>455.1</ele>
        <time>2017-11-01T09:43:34.999Z</time>
      </trkpt>
      <trkpt lat="47.5146" lon="6.73343">
        <ele>455</ele>
        <time>2017-11-01T09:43:35.999Z</time>
      </trkpt>
      <trkpt lat="47.51461" lon="6.7334">
        <ele>454.9</ele>
        <time>2017-11-01T09:43:36.999Z</time>
      </trkpt>
      <trkpt lat="47.51463" lon="6.73335">
        <ele>454.9</ele>
        <time>2017-11-01T09:43:37.999Z</time>
      </trkpt>
      <trkpt lat="47.51463" lon="6.73331">
        <ele>454.8</ele>
        <time>2017-11-01T09:43:38.999Z</time>
      </trkpt>
      <trkpt lat="47.51464" lon="6.73326">
        <ele>454.7</ele>
        <time>2017-11-01T09:43:39.999Z</time>
      </trkpt>
      <trkpt lat="47.51466" lon="6.73322">
        <ele>454.6</ele>
        <time>2017-11-01T09:43:40.999Z</time>
      </trkpt>
      <trkpt lat="47.51466" lon="6.73317">
        <ele>454.5</ele>
        <time>2017-11-01T09:43:41.999Z</time>
      </trkpt>
      <trkpt lat="47.51467" lon="6.73314">
        <ele>454.3</ele>
        <time>2017-11-01T09:43:42.999Z</time>
      </trkpt>
      <trkpt lat="47.51467" lon="6.73311">
        <ele>454.2</ele>
        <time>2017-11-01T09:43:43.999Z</time>
      </trkpt>
      <trkpt lat="47.51468" lon="6.73305">
        <ele>453.9</ele>
        <time>2017-11-01T09:43:45.999Z</time>
      </trkpt>
      <trkpt lat="47.51469" lon="6.73302">
        <ele>453.8</ele>
        <time>2017-11-01T09:43:46.999Z</time>
      </trkpt>
      <trkpt lat="47.5147" lon="6.73298">
        <ele>453.6</ele>
        <time>2017-11-01T09:43:47.999Z</time>
      </trkpt>
      <trkpt lat="47.5147" lon="6.73293">
        <ele>453.4</ele>
        <time>2017-11-01T09:43:48.999Z</time>
      </trkpt>
      <trkpt lat="47.51471" lon="6.73289">
        <ele>453.2</ele>
        <time>2017-11-01T09:43:49.999Z</time>
      </trkpt>
      <trkpt lat="47.51471" lon="6.73285">
        <ele>452.9</ele>
        <time>2017-11-01T09:43:50.999Z</time>
      </trkpt>
      <trkpt lat="47.51472" lon="6.73281">
        <ele>452.7</ele>
        <time>2017-11-01T09:43:51.999Z</time>
      </trkpt>
      <trkpt lat="47.51473" lon="6.73278">
        <ele>452.5</ele>
        <time>2017-11-01T09:43:52.999Z</time>
      </trkpt>
      <trkpt lat="47.51474" lon="6.73274">
        <ele>452.3</ele>
        <time>2017-11-01T09:43:53.999Z</time>
      </trkpt>
      <trkpt lat="47.51474" lon="6.7327">
        <ele>452.1</ele>
        <time>2017-11-01T09:43:54.999Z</time>
      </trkpt>
      <trkpt lat="47.51475" lon="6.73264">
        <ele>450</ele>
        <time>2017-11-01T09:43:55.999Z</time>
      </trkpt>
      <trkpt lat="47.51476" lon="6.7326">
        <ele>449.8</ele>
        <time>2017-11-01T09:43:56.999Z</time>
      </trkpt>
      <trkpt lat="47.51478" lon="6.73255">
        <ele>449.6</ele>
        <time>2017-11-01T09:43:57.999Z</time>
      </trkpt>
      <trkpt lat="47.5148" lon="6.73251">
        <ele>449.4</ele>
        <time>2017-11-01T09:43:58.999Z</time>
      </trkpt>
      <trkpt lat="47.5148" lon="6.73246">
        <ele>449.3</ele>
        <time>2017-11-01T09:43:59.999Z</time>
      </trkpt>
      <trkpt lat="47.51482" lon="6.73242">
        <ele>449.2</ele>
        <time>2017-11-01T09:44:00.999Z</time>
      </trkpt>
      <trkpt lat="47.51482" lon="6.73238">
        <ele>449</ele>
        <time>2017-11-01T09:44:01.999Z</time>
      </trkpt>
      <trkpt lat="47.51483" lon="6.73234">
        <ele>448.8</ele>
        <time>2017-11-01T09:44:02.999Z</time>
      </trkpt>
      <trkpt lat="47.51483" lon="6.73231">
        <ele>448.6</ele>
        <time>2017-11-01T09:44:03.999Z</time>
      </trkpt>
      <trkpt lat="47.51484" lon="6.73227">
        <ele>448.5</ele>
        <time>2017-11-01T09:44:04.999Z</time>
      </trkpt>
      <trkpt lat="47.51484" lon="6.73222">
        <ele>448.3</ele>
        <time>2017-11-01T09:44:05.999Z</time>
      </trkpt>
      <trkpt lat="47.51484" lon="6.7322">
        <ele>448.1</ele>
        <time>2017-11-01T09:44:06.999Z</time>
      </trkpt>
      <trkpt lat="47.51483" lon="6.73217">
        <ele>448</ele>
        <time>2017-11-01T09:44:07.999Z</time>
      </trkpt>
      <trkpt lat="47.51482" lon="6.73213">
        <ele>447.9</ele>
        <time>2017-11-01T09:44:08.999Z</time>
      </trkpt>
      <trkpt lat="47.51481" lon="6.73208">
        <ele>447.7</ele>
        <time>2017-11-01T09:44:09.999Z</time>
      </trkpt>
      <trkpt lat="47.51482" lon="6.73204">
        <ele>447.6</ele>
        <time>2017-11-01T09:44:10.999Z</time>
      </trkpt>
      <trkpt lat="47.51482" lon="6.73199">
        <ele>447.4</ele>
        <time>2017-11-01T09:44:11.999Z</time>
      </trkpt>
      <trkpt lat="47.51482" lon="6.73193">
        <ele>447.2</ele>
        <time>2017-11-01T09:44:12.999Z</time>
      </trkpt>
      <trkpt lat="47.51482" lon="6.73187">
        <ele>447.1</ele>
        <time>2017-11-01T09:44:13.999Z</time>
      </trkpt>
      <trkpt lat="47.51481" lon="6.73171">
        <ele>447.2</ele>
        <time>2017-11-01T09:44:14.999Z</time>
      </trkpt>
      <trkpt lat="47.51478" lon="6.73163">
        <ele>447.2</ele>
        <time>2017-11-01T09:44:15.999Z</time>
      </trkpt>
      <trkpt lat="47.51476" lon="6.73155">
        <ele>447.3</ele>
        <time>2017-11-01T09:44:16.999Z</time>
      </trkpt>
      <trkpt lat="47.51474" lon="6.73146">
        <ele>447.5</ele>
        <time>2017-11-01T09:44:17.999Z</time>
      </trkpt>
      <trkpt lat="47.51473" lon="6.73135">
        <ele>447.7</ele>
        <time>2017-11-01T09:44:18.999Z</time>
      </trkpt>
      <trkpt lat="47.51471" lon="6.73128">
        <ele>447.9</ele>
        <time>2017-11-01T09:44:19.999Z</time>
      </trkpt>
      <trkpt lat="47.51469" lon="6.73121">
        <ele>448.1</ele>
        <time>2017-11-01T09:44:20.999Z</time>
      </trkpt>
      <trkpt lat="47.51467" lon="6.73115">
        <ele>448.3</ele>
        <time>2017-11-01T09:44:21.999Z</time>
      </trkpt>
      <trkpt lat="47.51464" lon="6.73107">
        <ele>448.5</ele>
        <time>2017-11-01T09:44:22.999Z</time>
      </trkpt>
      <trkpt lat="47.5146" lon="6.73094">
        <ele>448.7</ele>
        <time>2017-11-01T09:44:23.999Z</time>
      </trkpt>
      <trkpt lat="47.5146" lon="6.7309">
        <ele>449</ele>
        <time>2017-11-01T09:44:24.999Z</time>
      </trkpt>
      <trkpt lat="47.5146" lon="6.73086">
        <ele>449.3</ele>
        <time>2017-11-01T09:44:25.999Z</time>
      </trkpt>
      <trkpt lat="47.5146" lon="6.73082">
        <ele>449.6</ele>
        <time>2017-11-01T09:44:26.999Z</time>
      </trkpt>
      <trkpt lat="47.5146" lon="6.73073">
        <ele>450.1</ele>
        <time>2017-11-01T09:44:27.999Z</time>
      </trkpt>
      <trkpt lat="47.51459" lon="6.73067">
        <ele>450.8</ele>
        <time>2017-11-01T09:44:29.999Z</time>
      </trkpt>
      <trkpt lat="47.51459" lon="6.73063">
        <ele>451.1</ele>
        <time>2017-11-01T09:44:30.999Z</time>
      </trkpt>
      <trkpt lat="47.51458" lon="6.73056">
        <ele>451.8</ele>
        <time>2017-11-01T09:44:33.999Z</time>
      </trkpt>
      <trkpt lat="47.51458" lon="6.73053">
        <ele>452</ele>
        <time>2017-11-01T09:44:34.999Z</time>
      </trkpt>
      <trkpt lat="47.51458" lon="6.73044">
        <ele>452.2</ele>
        <time>2017-11-01T09:44:35.999Z</time>
      </trkpt>
      <trkpt lat="47.51458" lon="6.73039">
        <ele>452.3</ele>
        <time>2017-11-01T09:44:36.999Z</time>
      </trkpt>
      <trkpt lat="47.51457" lon="6.73035">
        <ele>452.5</ele>
        <time>2017-11-01T09:44:37.999Z</time>
      </trkpt>
      <trkpt lat="47.51457" lon="6.73031">
        <ele>452.7</ele>
        <time>2017-11-01T09:44:38.999Z</time>
      </trkpt>
      <trkpt lat="47.51457" lon="6.73026">
        <ele>453</ele>
        <time>2017-11-01T09:44:39.999Z</time>
      </trkpt>
      <trkpt lat="47.51457" lon="6.73019">
        <ele>453.9</ele>
        <time>2017-11-01T09:44:42.999Z</time>
      </trkpt>
      <trkpt lat="47.51457" lon="6.73017">
        <ele>454.2</ele>
        <time>2017-11-01T09:44:43.999Z</time>
      </trkpt>
      <trkpt lat="47.51458" lon="6.73012">
        <ele>455</ele>
        <time>2017-11-01T09:44:45.999Z</time>
      </trkpt>
      <trkpt lat="47.51458" lon="6.73009">
        <ele>455.4</ele>
        <time>2017-11-01T09:44:46.999Z</time>
      </trkpt>
      <trkpt lat="47.51462" lon="6.73006">
        <ele>459.2</ele>
        <time>2017-11-01T09:45:03.999Z</time>
      </trkpt>
      <trkpt lat="47.51461" lon="6.73004">
        <ele>459.2</ele>
        <time>2017-11-01T09:45:04.999Z</time>
      </trkpt>
      <trkpt lat="47.51463" lon="6.72998">
        <ele>461.1</ele>
        <time>2017-11-01T09:45:26.999Z</time>
      </trkpt>
      <trkpt lat="47.51462" lon="6.72996">
        <ele>461.3</ele>
        <time>2017-11-01T09:45:27.999Z</time>
      </trkpt>
      <trkpt lat="47.51461" lon="6.72992">
        <ele>462.4</ele>
        <time>2017-11-01T09:45:31.999Z</time>
      </trkpt>
      <trkpt lat="47.51461" lon="6.72989">
        <ele>462.7</ele>
        <time>2017-11-01T09:45:32.999Z</time>
      </trkpt>
      <trkpt lat="47.51462" lon="6.72982">
        <ele>463.1</ele>
        <time>2017-11-01T09:45:33.999Z</time>
      </trkpt>
      <trkpt lat="47.51464" lon="6.72977">
        <ele>464.3</ele>
        <time>2017-11-01T09:45:37.999Z</time>
      </trkpt>
      <trkpt lat="47.51465" lon="6.72975">
        <ele>464.6</ele>
        <time>2017-11-01T09:45:38.999Z</time>
      </trkpt>
      <trkpt lat="47.51463" lon="6.72968">
        <ele>465.2</ele>
        <time>2017-11-01T09:45:49.999Z</time>
      </trkpt>
      <trkpt lat="47.51462" lon="6.72967">
        <ele>465.3</ele>
        <time>2017-11-01T09:45:50.999Z</time>
      </trkpt>
      <trkpt lat="47.5146" lon="6.72963">
        <ele>466</ele>
        <time>2017-11-01T09:45:56.999Z</time>
      </trkpt>
      <trkpt lat="47.51459" lon="6.72962">
        <ele>465.9</ele>
        <time>2017-11-01T09:45:57.999Z</time>
      </trkpt>
      <trkpt lat="47.51458" lon="6.72958">
        <ele>465.6</ele>
        <time>2017-11-01T09:45:59.999Z</time>
      </trkpt>
      <trkpt lat="47.51456" lon="6.72956">
        <ele>465.5</ele>
        <time>2017-11-01T09:46:00.999Z</time>
      </trkpt>
      <trkpt lat="47.51453" lon="6.72953">
        <ele>465.4</ele>
        <time>2017-11-01T09:46:02.999Z</time>
      </trkpt>
      <trkpt lat="47.51452" lon="6.72952">
        <ele>465.4</ele>
        <time>2017-11-01T09:46:03.999Z</time>
      </trkpt>
      <trkpt lat="47.51451" lon="6.7295">
        <ele>465.3</ele>
        <time>2017-11-01T09:46:04.999Z</time>
      </trkpt>
      <trkpt lat="47.51449" lon="6.72945">
        <ele>465.3</ele>
        <time>2017-11-01T09:46:05.999Z</time>
      </trkpt>
      <trkpt lat="47.51446" lon="6.72943">
        <ele>465.3</ele>
        <time>2017-11-01T09:46:07.999Z</time>
      </trkpt>
      <trkpt lat="47.51445" lon="6.72941">
        <ele>465.1</ele>
        <time>2017-11-01T09:46:08.999Z</time>
      </trkpt>
      <trkpt lat="47.51443" lon="6.72935">
        <ele>464.5</ele>
        <time>2017-11-01T09:46:15.999Z</time>
      </trkpt>
      <trkpt lat="47.51443" lon="6.72934">
        <ele>464.4</ele>
        <time>2017-11-01T09:46:16.999Z</time>
      </trkpt>
      <trkpt lat="47.51441" lon="6.7293">
        <ele>464.3</ele>
        <time>2017-11-01T09:46:19.999Z</time>
      </trkpt>
      <trkpt lat="47.5144" lon="6.72928">
        <ele>464.3</ele>
        <time>2017-11-01T09:46:20.999Z</time>
      </trkpt>
      <trkpt lat="47.51439" lon="6.72926">
        <ele>464.1</ele>
        <time>2017-11-01T09:46:23.999Z</time>
      </trkpt>
      <trkpt lat="47.51437" lon="6.72921">
        <ele>464.1</ele>
        <time>2017-11-01T09:46:24.999Z</time>
      </trkpt>
      <trkpt lat="47.51436" lon="6.72919">
        <ele>464</ele>
        <time>2017-11-01T09:46:25.999Z</time>
      </trkpt>
      <trkpt lat="47.51433" lon="6.72915">
        <ele>464</ele>
        <time>2017-11-01T09:46:26.999Z</time>
      </trkpt>
      <trkpt lat="47.51432" lon="6.7291">
        <ele>464</ele>
        <time>2017-11-01T09:46:29.999Z</time>
      </trkpt>
      <trkpt lat="47.51431" lon="6.72907">
        <ele>464.1</ele>
        <time>2017-11-01T09:46:30.999Z</time>
      </trkpt>
      <trkpt lat="47.51429" lon="6.72904">
        <ele>464.1</ele>
        <time>2017-11-01T09:46:31.999Z</time>
      </trkpt>
      <trkpt lat="47.51428" lon="6.729">
        <ele>464.2</ele>
        <time>2017-11-01T09:46:32.999Z</time>
      </trkpt>
      <trkpt lat="47.51425" lon="6.72893">
        <ele>464.4</ele>
        <time>2017-11-01T09:46:33.999Z</time>
      </trkpt>
      <trkpt lat="47.51423" lon="6.72889">
        <ele>464.6</ele>
        <time>2017-11-01T09:46:34.999Z</time>
      </trkpt>
      <trkpt lat="47.51419" lon="6.72884">
        <ele>464.9</ele>
        <time>2017-11-01T09:46:35.999Z</time>
      </trkpt>
      <trkpt lat="47.51416" lon="6.72879">
        <ele>465.1</ele>
        <time>2017-11-01T09:46:36.999Z</time>
      </trkpt>
      <trkpt lat="47.51416" lon="6.72877">
        <ele>465.3</ele>
        <time>2017-11-01T09:46:37.999Z</time>
      </trkpt>
      <trkpt lat="47.51414" lon="6.7287">
        <ele>465.5</ele>
        <time>2017-11-01T09:46:38.999Z</time>
      </trkpt>
      <trkpt lat="47.51413" lon="6.72864">
        <ele>465.9</ele>
        <time>2017-11-01T09:46:40.999Z</time>
      </trkpt>
      <trkpt lat="47.51413" lon="6.72862">
        <ele>466.1</ele>
        <time>2017-11-01T09:46:41.999Z</time>
      </trkpt>
      <trkpt lat="47.51413" lon="6.72857">
        <ele>466.5</ele>
        <time>2017-11-01T09:46:43.999Z</time>
      </trkpt>
      <trkpt lat="47.51413" lon="6.72854">
        <ele>466.8</ele>
        <time>2017-11-01T09:46:44.999Z</time>
      </trkpt>
      <trkpt lat="47.51412" lon="6.72848">
        <ele>467.3</ele>
        <time>2017-11-01T09:46:46.999Z</time>
      </trkpt>
      <trkpt lat="47.51412" lon="6.72845">
        <ele>467.6</ele>
        <time>2017-11-01T09:46:47.999Z</time>
      </trkpt>
      <trkpt lat="47.5141" lon="6.7284">
        <ele>468.2</ele>
        <time>2017-11-01T09:46:49.999Z</time>
      </trkpt>
      <trkpt lat="47.5141" lon="6.72836">
        <ele>468.4</ele>
        <time>2017-11-01T09:46:50.999Z</time>
      </trkpt>
      <trkpt lat="47.51408" lon="6.72831">
        <ele>468.8</ele>
        <time>2017-11-01T09:46:52.999Z</time>
      </trkpt>
      <trkpt lat="47.51407" lon="6.72829">
        <ele>469</ele>
        <time>2017-11-01T09:46:53.999Z</time>
      </trkpt>
      <trkpt lat="47.51407" lon="6.72824">
        <ele>469.3</ele>
        <time>2017-11-01T09:46:55.999Z</time>
      </trkpt>
      <trkpt lat="47.51407" lon="6.72821">
        <ele>469.4</ele>
        <time>2017-11-01T09:46:56.999Z</time>
      </trkpt>
      <trkpt lat="47.51407" lon="6.72815">
        <ele>469.7</ele>
        <time>2017-11-01T09:46:58.999Z</time>
      </trkpt>
      <trkpt lat="47.51407" lon="6.72812">
        <ele>469.9</ele>
        <time>2017-11-01T09:46:59.999Z</time>
      </trkpt>
      <trkpt lat="47.51405" lon="6.72806">
        <ele>470.1</ele>
        <time>2017-11-01T09:47:01.999Z</time>
      </trkpt>
      <trkpt lat="47.51404" lon="6.72802">
        <ele>470.1</ele>
        <time>2017-11-01T09:47:02.999Z</time>
      </trkpt>
      <trkpt lat="47.51404" lon="6.72798">
        <ele>470.2</ele>
        <time>2017-11-01T09:47:03.999Z</time>
      </trkpt>
      <trkpt lat="47.51403" lon="6.72794">
        <ele>470.2</ele>
        <time>2017-11-01T09:47:04.999Z</time>
      </trkpt>
      <trkpt lat="47.51402" lon="6.72788">
        <ele>470.3</ele>
        <time>2017-11-01T09:47:06.999Z</time>
      </trkpt>
      <trkpt lat="47.51401" lon="6.72786">
        <ele>470.3</ele>
        <time>2017-11-01T09:47:07.999Z</time>
      </trkpt>
      <trkpt lat="47.514" lon="6.72782">
        <ele>470.2</ele>
        <time>2017-11-01T09:47:09.999Z</time>
      </trkpt>
      <trkpt lat="47.51399" lon="6.7278">
        <ele>470.1</ele>
        <time>2017-11-01T09:47:10.999Z</time>
      </trkpt>
      <trkpt lat="47.51399" lon="6.72774">
        <ele>470</ele>
        <time>2017-11-01T09:47:12.999Z</time>
      </trkpt>
      <trkpt lat="47.51399" lon="6.7277">
        <ele>469.8</ele>
        <time>2017-11-01T09:47:13.999Z</time>
      </trkpt>
      <trkpt lat="47.514" lon="6.72764">
        <ele>469.4</ele>
        <time>2017-11-01T09:47:15.999Z</time>
      </trkpt>
      <trkpt lat="47.51399" lon="6.72762">
        <ele>469.1</ele>
        <time>2017-11-01T09:47:16.999Z</time>
      </trkpt>
      <trkpt lat="47.51401" lon="6.72759">
        <ele>468.4</ele>
        <time>2017-11-01T09:47:18.999Z</time>
      </trkpt>
      <trkpt lat="47.51402" lon="6.72753">
        <ele>468.1</ele>
        <time>2017-11-01T09:47:19.999Z</time>
      </trkpt>
      <trkpt lat="47.514" lon="6.72747">
        <ele>467.3</ele>
        <time>2017-11-01T09:47:31.999Z</time>
      </trkpt>
      <trkpt lat="47.51399" lon="6.72743">
        <ele>467.5</ele>
        <time>2017-11-01T09:47:32.999Z</time>
      </trkpt>
      <trkpt lat="47.51399" lon="6.72737">
        <ele>467.6</ele>
        <time>2017-11-01T09:47:34.999Z</time>
      </trkpt>
      <trkpt lat="47.514" lon="6.72735">
        <ele>467.7</ele>
        <time>2017-11-01T09:47:35.999Z</time>
      </trkpt>
      <trkpt lat="47.51399" lon="6.72733">
        <ele>467.8</ele>
        <time>2017-11-01T09:47:36.999Z</time>
      </trkpt>
      <trkpt lat="47.51396" lon="6.72727">
        <ele>467.9</ele>
        <time>2017-11-01T09:47:37.999Z</time>
      </trkpt>
      <trkpt lat="47.51396" lon="6.72722">
        <ele>469.4</ele>
        <time>2017-11-01T09:48:08.999Z</time>
      </trkpt>
      <trkpt lat="47.51395" lon="6.7272">
        <ele>469.7</ele>
        <time>2017-11-01T09:48:09.999Z</time>
      </trkpt>
      <trkpt lat="47.51393" lon="6.72717">
        <ele>469.9</ele>
        <time>2017-11-01T09:48:10.999Z</time>
      </trkpt>
      <trkpt lat="47.51391" lon="6.72711">
        <ele>470.1</ele>
        <time>2017-11-01T09:48:11.999Z</time>
      </trkpt>
      <trkpt lat="47.51389" lon="6.72706">
        <ele>470.3</ele>
        <time>2017-11-01T09:48:12.999Z</time>
      </trkpt>
      <trkpt lat="47.51386" lon="6.72694">
        <ele>470.5</ele>
        <time>2017-11-01T09:48:13.999Z</time>
      </trkpt>
      <trkpt lat="47.51381" lon="6.72691">
        <ele>470.6</ele>
        <time>2017-11-01T09:48:14.999Z</time>
      </trkpt>
      <trkpt lat="47.51379" lon="6.72687">
        <ele>470.8</ele>
        <time>2017-11-01T09:48:17.999Z</time>
      </trkpt>
      <trkpt lat="47.51377" lon="6.72682">
        <ele>470.9</ele>
        <time>2017-11-01T09:48:18.999Z</time>
      </trkpt>
      <trkpt lat="47.51373" lon="6.72675">
        <ele>470.9</ele>
        <time>2017-11-01T09:48:19.999Z</time>
      </trkpt>
      <trkpt lat="47.5137" lon="6.7267">
        <ele>470.9</ele>
        <time>2017-11-01T09:48:20.999Z</time>
      </trkpt>
      <trkpt lat="47.51368" lon="6.72667">
        <ele>471</ele>
        <time>2017-11-01T09:48:21.999Z</time>
      </trkpt>
      <trkpt lat="47.51367" lon="6.72662">
        <ele>471.1</ele>
        <time>2017-11-01T09:48:22.999Z</time>
      </trkpt>
      <trkpt lat="47.51364" lon="6.72659">
        <ele>471</ele>
        <time>2017-11-01T09:48:23.999Z</time>
      </trkpt>
      <trkpt lat="47.51361" lon="6.72654">
        <ele>471.1</ele>
        <time>2017-11-01T09:48:24.999Z</time>
      </trkpt>
      <trkpt lat="47.51358" lon="6.7265">
        <ele>471.1</ele>
        <time>2017-11-01T09:48:25.999Z</time>
      </trkpt>
      <trkpt lat="47.51355" lon="6.72647">
        <ele>471.2</ele>
        <time>2017-11-01T09:48:26.999Z</time>
      </trkpt>
      <trkpt lat="47.51351" lon="6.72644">
        <ele>471.3</ele>
        <time>2017-11-01T09:48:27.999Z</time>
      </trkpt>
      <trkpt lat="47.51349" lon="6.72641">
        <ele>471.4</ele>
        <time>2017-11-01T09:48:28.999Z</time>
      </trkpt>
      <trkpt lat="47.51346" lon="6.72636">
        <ele>471.4</ele>
        <time>2017-11-01T09:48:29.999Z</time>
      </trkpt>
      <trkpt lat="47.51343" lon="6.72633">
        <ele>471.4</ele>
        <time>2017-11-01T09:48:30.999Z</time>
      </trkpt>
      <trkpt lat="47.5134" lon="6.7263">
        <ele>471.4</ele>
        <time>2017-11-01T09:48:31.999Z</time>
      </trkpt>
      <trkpt lat="47.51336" lon="6.72626">
        <ele>471.4</ele>
        <time>2017-11-01T09:48:32.999Z</time>
      </trkpt>
      <trkpt lat="47.51333" lon="6.72622">
        <ele>471.4</ele>
        <time>2017-11-01T09:48:33.999Z</time>
      </trkpt>
      <trkpt lat="47.51331" lon="6.72618">
        <ele>471.4</ele>
        <time>2017-11-01T09:48:34.999Z</time>
      </trkpt>
      <trkpt lat="47.51329" lon="6.72615">
        <ele>471.4</ele>
        <time>2017-11-01T09:48:35.999Z</time>
      </trkpt>
      <trkpt lat="47.51327" lon="6.72613">
        <ele>471.3</ele>
        <time>2017-11-01T09:48:36.999Z</time>
      </trkpt>
      <trkpt lat="47.51324" lon="6.72611">
        <ele>471.3</ele>
        <time>2017-11-01T09:48:37.999Z</time>
      </trkpt>
      <trkpt lat="47.51321" lon="6.72609">
        <ele>471.3</ele>
        <time>2017-11-01T09:48:38.999Z</time>
      </trkpt>
      <trkpt lat="47.51319" lon="6.72606">
        <ele>471.3</ele>
        <time>2017-11-01T09:48:39.999Z</time>
      </trkpt>
      <trkpt lat="47.51316" lon="6.72604">
        <ele>471.3</ele>
        <time>2017-11-01T09:48:40.999Z</time>
      </trkpt>
      <trkpt lat="47.51314" lon="6.72603">
        <ele>471.3</ele>
        <time>2017-11-01T09:48:41.999Z</time>
      </trkpt>
      <trkpt lat="47.51309" lon="6.726">
        <ele>471.4</ele>
        <time>2017-11-01T09:48:42.999Z</time>
      </trkpt>
      <trkpt lat="47.51307" lon="6.72599">
        <ele>471.3</ele>
        <time>2017-11-01T09:48:43.999Z</time>
      </trkpt>
      <trkpt lat="47.51304" lon="6.72598">
        <ele>471.3</ele>
        <time>2017-11-01T09:48:44.999Z</time>
      </trkpt>
      <trkpt lat="47.51302" lon="6.72596">
        <ele>471.2</ele>
        <time>2017-11-01T09:48:45.999Z</time>
      </trkpt>
      <trkpt lat="47.51299" lon="6.72595">
        <ele>471.2</ele>
        <time>2017-11-01T09:48:46.999Z</time>
      </trkpt>
      <trkpt lat="47.51297" lon="6.72594">
        <ele>471.1</ele>
        <time>2017-11-01T09:48:47.999Z</time>
      </trkpt>
      <trkpt lat="47.51294" lon="6.72592">
        <ele>471</ele>
        <time>2017-11-01T09:48:48.999Z</time>
      </trkpt>
      <trkpt lat="47.51292" lon="6.72586">
        <ele>470.9</ele>
        <time>2017-11-01T09:48:55.999Z</time>
      </trkpt>
      <trkpt lat="47.51291" lon="6.72585">
        <ele>470.8</ele>
        <time>2017-11-01T09:48:56.999Z</time>
      </trkpt>
      <trkpt lat="47.51288" lon="6.72584">
        <ele>470.9</ele>
        <time>2017-11-01T09:48:57.999Z</time>
      </trkpt>
      <trkpt lat="47.51284" lon="6.72583">
        <ele>470.9</ele>
        <time>2017-11-01T09:48:58.999Z</time>
      </trkpt>
      <trkpt lat="47.5128" lon="6.72584">
        <ele>471.1</ele>
        <time>2017-11-01T09:48:59.999Z</time>
      </trkpt>
      <trkpt lat="47.51276" lon="6.72585">
        <ele>471.2</ele>
        <time>2017-11-01T09:49:00.999Z</time>
      </trkpt>
      <trkpt lat="47.51271" lon="6.72586">
        <ele>471.3</ele>
        <time>2017-11-01T09:49:01.999Z</time>
      </trkpt>
      <trkpt lat="47.51266" lon="6.72585">
        <ele>471.5</ele>
        <time>2017-11-01T09:49:02.999Z</time>
      </trkpt>
      <trkpt lat="47.51262" lon="6.72586">
        <ele>471.5</ele>
        <time>2017-11-01T09:49:03.999Z</time>
      </trkpt>
      <trkpt lat="47.51258" lon="6.72587">
        <ele>471.6</ele>
        <time>2017-11-01T09:49:04.999Z</time>
      </trkpt>
      <trkpt lat="47.51252" lon="6.72587">
        <ele>471.7</ele>
        <time>2017-11-01T09:49:05.999Z</time>
      </trkpt>
      <trkpt lat="47.51246" lon="6.72586">
        <ele>471.9</ele>
        <time>2017-11-01T09:49:06.999Z</time>
      </trkpt>
      <trkpt lat="47.51241" lon="6.72588">
        <ele>472</ele>
        <time>2017-11-01T09:49:07.999Z</time>
      </trkpt>
      <trkpt lat="47.51235" lon="6.72587">
        <ele>472.1</ele>
        <time>2017-11-01T09:49:08.999Z</time>
      </trkpt>
      <trkpt lat="47.5123" lon="6.72584">
        <ele>472.2</ele>
        <time>2017-11-01T09:49:09.999Z</time>
      </trkpt>
      <trkpt lat="47.51225" lon="6.72583">
        <ele>472.4</ele>
        <time>2017-11-01T09:49:10.999Z</time>
      </trkpt>
      <trkpt lat="47.51222" lon="6.72583">
        <ele>472.7</ele>
        <time>2017-11-01T09:49:13.999Z</time>
      </trkpt>
      <trkpt lat="47.51217" lon="6.72581">
        <ele>472.9</ele>
        <time>2017-11-01T09:49:14.999Z</time>
      </trkpt>
      <trkpt lat="47.51212" lon="6.72578">
        <ele>473</ele>
        <time>2017-11-01T09:49:15.999Z</time>
      </trkpt>
      <trkpt lat="47.51208" lon="6.72578">
        <ele>473.2</ele>
        <time>2017-11-01T09:49:16.999Z</time>
      </trkpt>
      <trkpt lat="47.51205" lon="6.72577">
        <ele>473.3</ele>
        <time>2017-11-01T09:49:17.999Z</time>
      </trkpt>
      <trkpt lat="47.51203" lon="6.72574">
        <ele>473.5</ele>
        <time>2017-11-01T09:49:18.999Z</time>
      </trkpt>
      <trkpt lat="47.512" lon="6.7257">
        <ele>473.6</ele>
        <time>2017-11-01T09:49:19.999Z</time>
      </trkpt>
      <trkpt lat="47.51199" lon="6.72568">
        <ele>473.7</ele>
        <time>2017-11-01T09:49:20.999Z</time>
      </trkpt>
      <trkpt lat="47.51196" lon="6.72566">
        <ele>473.8</ele>
        <time>2017-11-01T09:49:21.999Z</time>
      </trkpt>
      <trkpt lat="47.51194" lon="6.72565">
        <ele>473.9</ele>
        <time>2017-11-01T09:49:22.999Z</time>
      </trkpt>
      <trkpt lat="47.51191" lon="6.72564">
        <ele>474</ele>
        <time>2017-11-01T09:49:23.999Z</time>
      </trkpt>
      <trkpt lat="47.51188" lon="6.72562">
        <ele>474.2</ele>
        <time>2017-11-01T09:49:24.999Z</time>
      </trkpt>
      <trkpt lat="47.51184" lon="6.72559">
        <ele>474.2</ele>
        <time>2017-11-01T09:49:25.999Z</time>
      </trkpt>
      <trkpt lat="47.51183" lon="6.72558">
        <ele>474.4</ele>
        <time>2017-11-01T09:49:26.999Z</time>
      </trkpt>
      <trkpt lat="47.51179" lon="6.72556">
        <ele>474.4</ele>
        <time>2017-11-01T09:49:27.999Z</time>
      </trkpt>
      <trkpt lat="47.51175" lon="6.72553">
        <ele>474.8</ele>
        <time>2017-11-01T09:49:29.999Z</time>
      </trkpt>
      <trkpt lat="47.51174" lon="6.72553">
        <ele>474.9</ele>
        <time>2017-11-01T09:49:30.999Z</time>
      </trkpt>
      <trkpt lat="47.51172" lon="6.72551">
        <ele>475</ele>
        <time>2017-11-01T09:49:31.999Z</time>
      </trkpt>
      <trkpt lat="47.51168" lon="6.72547">
        <ele>475.2</ele>
        <time>2017-11-01T09:49:32.999Z</time>
      </trkpt>
      <trkpt lat="47.51165" lon="6.72541">
        <ele>475.3</ele>
        <time>2017-11-01T09:49:33.999Z</time>
      </trkpt>
      <trkpt lat="47.51165" lon="6.72536">
        <ele>475.6</ele>
        <time>2017-11-01T09:49:35.999Z</time>
      </trkpt>
      <trkpt lat="47.51167" lon="6.72532">
        <ele>475.8</ele>
        <time>2017-11-01T09:49:36.999Z</time>
      </trkpt>
      <trkpt lat="47.5117" lon="6.72526">
        <ele>475.8</ele>
        <time>2017-11-01T09:49:37.999Z</time>
      </trkpt>
      <trkpt lat="47.51172" lon="6.7252">
        <ele>475.8</ele>
        <time>2017-11-01T09:49:38.999Z</time>
      </trkpt>
      <trkpt lat="47.51174" lon="6.72515">
        <ele>475.7</ele>
        <time>2017-11-01T09:49:39.999Z</time>
      </trkpt>
      <trkpt lat="47.51176" lon="6.72511">
        <ele>475.6</ele>
        <time>2017-11-01T09:49:40.999Z</time>
      </trkpt>
      <trkpt lat="47.51178" lon="6.72506">
        <ele>475.6</ele>
        <time>2017-11-01T09:49:41.999Z</time>
      </trkpt>
      <trkpt lat="47.5118" lon="6.72503">
        <ele>475.5</ele>
        <time>2017-11-01T09:49:42.999Z</time>
      </trkpt>
      <trkpt lat="47.51181" lon="6.725">
        <ele>475.4</ele>
        <time>2017-11-01T09:49:43.999Z</time>
      </trkpt>
      <trkpt lat="47.51184" lon="6.72497">
        <ele>475.3</ele>
        <time>2017-11-01T09:49:44.999Z</time>
      </trkpt>
      <trkpt lat="47.51186" lon="6.72495">
        <ele>475.3</ele>
        <time>2017-11-01T09:49:45.999Z</time>
      </trkpt>
      <trkpt lat="47.51189" lon="6.72491">
        <ele>475.2</ele>
        <time>2017-11-01T09:49:47.999Z</time>
      </trkpt>
      <trkpt lat="47.5119" lon="6.72489">
        <ele>475.1</ele>
        <time>2017-11-01T09:49:48.999Z</time>
      </trkpt>
      <trkpt lat="47.51191" lon="6.72486">
        <ele>475.1</ele>
        <time>2017-11-01T09:49:49.999Z</time>
      </trkpt>
      <trkpt lat="47.51192" lon="6.72483">
        <ele>475.1</ele>
        <time>2017-11-01T09:49:50.999Z</time>
      </trkpt>
      <trkpt lat="47.51194" lon="6.72478">
        <ele>475</ele>
        <time>2017-11-01T09:49:52.999Z</time>
      </trkpt>
      <trkpt lat="47.51195" lon="6.72475">
        <ele>475</ele>
        <time>2017-11-01T09:49:53.999Z</time>
      </trkpt>
      <trkpt lat="47.51196" lon="6.72473">
        <ele>474.9</ele>
        <time>2017-11-01T09:49:54.999Z</time>
      </trkpt>
      <trkpt lat="47.512" lon="6.72471">
        <ele>474.7</ele>
        <time>2017-11-01T09:49:55.999Z</time>
      </trkpt>
      <trkpt lat="47.51202" lon="6.72468">
        <ele>474.7</ele>
        <time>2017-11-01T09:49:56.999Z</time>
      </trkpt>
      <trkpt lat="47.51204" lon="6.72466">
        <ele>474.7</ele>
        <time>2017-11-01T09:49:57.999Z</time>
      </trkpt>
      <trkpt lat="47.51205" lon="6.7246">
        <ele>474.5</ele>
        <time>2017-11-01T09:50:00.999Z</time>
      </trkpt>
      <trkpt lat="47.51206" lon="6.72458">
        <ele>474.4</ele>
        <time>2017-11-01T09:50:01.999Z</time>
      </trkpt>
      <trkpt lat="47.51208" lon="6.72455">
        <ele>474.4</ele>
        <time>2017-11-01T09:50:02.999Z</time>
      </trkpt>
      <trkpt lat="47.51209" lon="6.72452">
        <ele>474.2</ele>
        <time>2017-11-01T09:50:03.999Z</time>
      </trkpt>
      <trkpt lat="47.51208" lon="6.72446">
        <ele>474.3</ele>
        <time>2017-11-01T09:50:08.999Z</time>
      </trkpt>
      <trkpt lat="47.5121" lon="6.72442">
        <ele>474.3</ele>
        <time>2017-11-01T09:50:09.999Z</time>
      </trkpt>
      <trkpt lat="47.51211" lon="6.72438">
        <ele>474.4</ele>
        <time>2017-11-01T09:50:11.999Z</time>
      </trkpt>
      <trkpt lat="47.51214" lon="6.72433">
        <ele>474.4</ele>
        <time>2017-11-01T09:50:12.999Z</time>
      </trkpt>
      <trkpt lat="47.51215" lon="6.72429">
        <ele>474.4</ele>
        <time>2017-11-01T09:50:13.999Z</time>
      </trkpt>
      <trkpt lat="47.51216" lon="6.72426">
        <ele>474.3</ele>
        <time>2017-11-01T09:50:14.999Z</time>
      </trkpt>
      <trkpt lat="47.51218" lon="6.72421">
        <ele>474.2</ele>
        <time>2017-11-01T09:50:16.999Z</time>
      </trkpt>
      <trkpt lat="47.5122" lon="6.72414">
        <ele>474.2</ele>
        <time>2017-11-01T09:50:17.999Z</time>
      </trkpt>
      <trkpt lat="47.51221" lon="6.72409">
        <ele>474.2</ele>
        <time>2017-11-01T09:50:18.999Z</time>
      </trkpt>
      <trkpt lat="47.51221" lon="6.72403">
        <ele>474.2</ele>
        <time>2017-11-01T09:50:19.999Z</time>
      </trkpt>
      <trkpt lat="47.51222" lon="6.72399">
        <ele>474.2</ele>
        <time>2017-11-01T09:50:20.999Z</time>
      </trkpt>
      <trkpt lat="47.51223" lon="6.72393">
        <ele>474.2</ele>
        <time>2017-11-01T09:50:21.999Z</time>
      </trkpt>
      <trkpt lat="47.51225" lon="6.72386">
        <ele>474.3</ele>
        <time>2017-11-01T09:50:22.999Z</time>
      </trkpt>
      <trkpt lat="47.51225" lon="6.72382">
        <ele>474.3</ele>
        <time>2017-11-01T09:50:23.999Z</time>
      </trkpt>
      <trkpt lat="47.51225" lon="6.72376">
        <ele>474.4</ele>
        <time>2017-11-01T09:50:24.999Z</time>
      </trkpt>
      <trkpt lat="47.51225" lon="6.7237">
        <ele>474.4</ele>
        <time>2017-11-01T09:50:25.999Z</time>
      </trkpt>
      <trkpt lat="47.51225" lon="6.72368">
        <ele>474.6</ele>
        <time>2017-11-01T09:50:26.999Z</time>
      </trkpt>
      <trkpt lat="47.51226" lon="6.72363">
        <ele>474.8</ele>
        <time>2017-11-01T09:50:28.999Z</time>
      </trkpt>
      <trkpt lat="47.51226" lon="6.7236">
        <ele>475</ele>
        <time>2017-11-01T09:50:29.999Z</time>
      </trkpt>
      <trkpt lat="47.51227" lon="6.72357">
        <ele>475.2</ele>
        <time>2017-11-01T09:50:30.999Z</time>
      </trkpt>
      <trkpt lat="47.51228" lon="6.72352">
        <ele>475.5</ele>
        <time>2017-11-01T09:50:31.999Z</time>
      </trkpt>
      <trkpt lat="47.51229" lon="6.72346">
        <ele>475.7</ele>
        <time>2017-11-01T09:50:32.999Z</time>
      </trkpt>
      <trkpt lat="47.5123" lon="6.72342">
        <ele>476</ele>
        <time>2017-11-01T09:50:33.999Z</time>
      </trkpt>
      <trkpt lat="47.51231" lon="6.72339">
        <ele>476.2</ele>
        <time>2017-11-01T09:50:34.999Z</time>
      </trkpt>
      <trkpt lat="47.51231" lon="6.72335">
        <ele>476.3</ele>
        <time>2017-11-01T09:50:35.999Z</time>
      </trkpt>
      <trkpt lat="47.51232" lon="6.72328">
        <ele>476.6</ele>
        <time>2017-11-01T09:50:36.999Z</time>
      </trkpt>
      <trkpt lat="47.51233" lon="6.72322">
        <ele>476.8</ele>
        <time>2017-11-01T09:50:37.999Z</time>
      </trkpt>
      <trkpt lat="47.51232" lon="6.72316">
        <ele>477.1</ele>
        <time>2017-11-01T09:50:38.999Z</time>
      </trkpt>
      <trkpt lat="47.51233" lon="6.72311">
        <ele>477.5</ele>
        <time>2017-11-01T09:50:41.999Z</time>
      </trkpt>
      <trkpt lat="47.51233" lon="6.72309">
        <ele>477.7</ele>
        <time>2017-11-01T09:50:42.999Z</time>
      </trkpt>
      <trkpt lat="47.51232" lon="6.72304">
        <ele>477.8</ele>
        <time>2017-11-01T09:50:44.999Z</time>
      </trkpt>
      <trkpt lat="47.51231" lon="6.72299">
        <ele>477.8</ele>
        <time>2017-11-01T09:50:45.999Z</time>
      </trkpt>
      <trkpt lat="47.5123" lon="6.72292">
        <ele>477.8</ele>
        <time>2017-11-01T09:50:46.999Z</time>
      </trkpt>
      <trkpt lat="47.51231" lon="6.72287">
        <ele>477.9</ele>
        <time>2017-11-01T09:50:47.999Z</time>
      </trkpt>
      <trkpt lat="47.51234" lon="6.72284">
        <ele>478</ele>
        <time>2017-11-01T09:50:48.999Z</time>
      </trkpt>
      <trkpt lat="47.51237" lon="6.72281">
        <ele>478.2</ele>
        <time>2017-11-01T09:50:49.999Z</time>
      </trkpt>
      <trkpt lat="47.51238" lon="6.72275">
        <ele>478.3</ele>
        <time>2017-11-01T09:50:51.999Z</time>
      </trkpt>
      <trkpt lat="47.51237" lon="6.72271">
        <ele>478.2</ele>
        <time>2017-11-01T09:50:52.999Z</time>
      </trkpt>
      <trkpt lat="47.51237" lon="6.72267">
        <ele>478.2</ele>
        <time>2017-11-01T09:50:55.999Z</time>
      </trkpt>
      <trkpt lat="47.51238" lon="6.72264">
        <ele>478.2</ele>
        <time>2017-11-01T09:50:56.999Z</time>
      </trkpt>
      <trkpt lat="47.51238" lon="6.72261">
        <ele>478.2</ele>
        <time>2017-11-01T09:50:58.999Z</time>
      </trkpt>
      <trkpt lat="47.51238" lon="6.72257">
        <ele>478.3</ele>
        <time>2017-11-01T09:50:59.999Z</time>
      </trkpt>
      <trkpt lat="47.51237" lon="6.72253">
        <ele>478.4</ele>
        <time>2017-11-01T09:51:00.999Z</time>
      </trkpt>
      <trkpt lat="47.51238" lon="6.72245">
        <ele>478.5</ele>
        <time>2017-11-01T09:51:01.999Z</time>
      </trkpt>
      <trkpt lat="47.51239" lon="6.7224">
        <ele>478.6</ele>
        <time>2017-11-01T09:51:02.999Z</time>
      </trkpt>
      <trkpt lat="47.51239" lon="6.72235">
        <ele>478.6</ele>
        <time>2017-11-01T09:51:03.999Z</time>
      </trkpt>
      <trkpt lat="47.51239" lon="6.7223">
        <ele>478.7</ele>
        <time>2017-11-01T09:51:04.999Z</time>
      </trkpt>
      <trkpt lat="47.51239" lon="6.72225">
        <ele>478.8</ele>
        <time>2017-11-01T09:51:05.999Z</time>
      </trkpt>
      <trkpt lat="47.51238" lon="6.72217">
        <ele>478.8</ele>
        <time>2017-11-01T09:51:06.999Z</time>
      </trkpt>
      <trkpt lat="47.51238" lon="6.72213">
        <ele>478.9</ele>
        <time>2017-11-01T09:51:07.999Z</time>
      </trkpt>
      <trkpt lat="47.51239" lon="6.7221">
        <ele>479</ele>
        <time>2017-11-01T09:51:08.999Z</time>
      </trkpt>
      <trkpt lat="47.51238" lon="6.72205">
        <ele>479</ele>
        <time>2017-11-01T09:51:09.999Z</time>
      </trkpt>
      <trkpt lat="47.51238" lon="6.72202">
        <ele>479.1</ele>
        <time>2017-11-01T09:51:10.999Z</time>
      </trkpt>
      <trkpt lat="47.51237" lon="6.72197">
        <ele>479.3</ele>
        <time>2017-11-01T09:51:12.999Z</time>
      </trkpt>
      <trkpt lat="47.51237" lon="6.7219">
        <ele>479.3</ele>
        <time>2017-11-01T09:51:13.999Z</time>
      </trkpt>
      <trkpt lat="47.51237" lon="6.72185">
        <ele>479.4</ele>
        <time>2017-11-01T09:51:14.999Z</time>
      </trkpt>
      <trkpt lat="47.51236" lon="6.72178">
        <ele>479.6</ele>
        <time>2017-11-01T09:51:15.999Z</time>
      </trkpt>
      <trkpt lat="47.51235" lon="6.72172">
        <ele>479.7</ele>
        <time>2017-11-01T09:51:17.999Z</time>
      </trkpt>
      <trkpt lat="47.51236" lon="6.72169">
        <ele>479.8</ele>
        <time>2017-11-01T09:51:18.999Z</time>
      </trkpt>
      <trkpt lat="47.51236" lon="6.72163">
        <ele>479.9</ele>
        <time>2017-11-01T09:51:19.999Z</time>
      </trkpt>
      <trkpt lat="47.51236" lon="6.72161">
        <ele>479.9</ele>
        <time>2017-11-01T09:51:20.999Z</time>
      </trkpt>
      <trkpt lat="47.51236" lon="6.72157">
        <ele>479.8</ele>
        <time>2017-11-01T09:51:22.999Z</time>
      </trkpt>
      <trkpt lat="47.51235" lon="6.72153">
        <ele>479.7</ele>
        <time>2017-11-01T09:51:23.999Z</time>
      </trkpt>
      <trkpt lat="47.51234" lon="6.72149">
        <ele>479.6</ele>
        <time>2017-11-01T09:51:24.999Z</time>
      </trkpt>
      <trkpt lat="47.51235" lon="6.72142">
        <ele>479.6</ele>
        <time>2017-11-01T09:51:25.999Z</time>
      </trkpt>
      <trkpt lat="47.51236" lon="6.72137">
        <ele>479.6</ele>
        <time>2017-11-01T09:51:26.999Z</time>
      </trkpt>
      <trkpt lat="47.51236" lon="6.72132">
        <ele>479.5</ele>
        <time>2017-11-01T09:51:27.999Z</time>
      </trkpt>
      <trkpt lat="47.51236" lon="6.72127">
        <ele>479.6</ele>
        <time>2017-11-01T09:51:29.999Z</time>
      </trkpt>
      <trkpt lat="47.51237" lon="6.72125">
        <ele>479.5</ele>
        <time>2017-11-01T09:51:30.999Z</time>
      </trkpt>
      <trkpt lat="47.51237" lon="6.72121">
        <ele>479.5</ele>
        <time>2017-11-01T09:51:31.999Z</time>
      </trkpt>
      <trkpt lat="47.51237" lon="6.72118">
        <ele>479.5</ele>
        <time>2017-11-01T09:51:32.999Z</time>
      </trkpt>
      <trkpt lat="47.51237" lon="6.72114">
        <ele>479.5</ele>
        <time>2017-11-01T09:51:34.999Z</time>
      </trkpt>
      <trkpt lat="47.51237" lon="6.72111">
        <ele>479.6</ele>
        <time>2017-11-01T09:51:35.999Z</time>
      </trkpt>
      <trkpt lat="47.51237" lon="6.72108">
        <ele>479.6</ele>
        <time>2017-11-01T09:51:36.999Z</time>
      </trkpt>
      <trkpt lat="47.51236" lon="6.72104">
        <ele>479.5</ele>
        <time>2017-11-01T09:51:37.999Z</time>
      </trkpt>
      <trkpt lat="47.51235" lon="6.72101">
        <ele>479.6</ele>
        <time>2017-11-01T09:51:38.999Z</time>
      </trkpt>
      <trkpt lat="47.51235" lon="6.72097">
        <ele>479.6</ele>
        <time>2017-11-01T09:51:39.999Z</time>
      </trkpt>
      <trkpt lat="47.51235" lon="6.72093">
        <ele>479.6</ele>
        <time>2017-11-01T09:51:40.999Z</time>
      </trkpt>
      <trkpt lat="47.51234" lon="6.72088">
        <ele>479.7</ele>
        <time>2017-11-01T09:51:41.999Z</time>
      </trkpt>
      <trkpt lat="47.51234" lon="6.72085">
        <ele>479.8</ele>
        <time>2017-11-01T09:51:42.999Z</time>
      </trkpt>
      <trkpt lat="47.51235" lon="6.72081">
        <ele>479.8</ele>
        <time>2017-11-01T09:51:43.999Z</time>
      </trkpt>
      <trkpt lat="47.51235" lon="6.72077">
        <ele>479.9</ele>
        <time>2017-11-01T09:51:44.999Z</time>
      </trkpt>
      <trkpt lat="47.51235" lon="6.72073">
        <ele>479.9</ele>
        <time>2017-11-01T09:51:45.999Z</time>
      </trkpt>
      <trkpt lat="47.51235" lon="6.72068">
        <ele>480</ele>
        <time>2017-11-01T09:51:46.999Z</time>
      </trkpt>
      <trkpt lat="47.51235" lon="6.72064">
        <ele>480.1</ele>
        <time>2017-11-01T09:51:47.999Z</time>
      </trkpt>
      <trkpt lat="47.51235" lon="6.72058">
        <ele>480.1</ele>
        <time>2017-11-01T09:51:49.999Z</time>
      </trkpt>
      <trkpt lat="47.51234" lon="6.72054">
        <ele>480.1</ele>
        <time>2017-11-01T09:51:50.999Z</time>
      </trkpt>
      <trkpt lat="47.51232" lon="6.72048">
        <ele>480.2</ele>
        <time>2017-11-01T09:51:51.999Z</time>
      </trkpt>
      <trkpt lat="47.51232" lon="6.72045">
        <ele>480.1</ele>
        <time>2017-11-01T09:51:52.999Z</time>
      </trkpt>
      <trkpt lat="47.51231" lon="6.72042">
        <ele>480.1</ele>
        <time>2017-11-01T09:51:53.999Z</time>
      </trkpt>
      <trkpt lat="47.51231" lon="6.72037">
        <ele>480.1</ele>
        <time>2017-11-01T09:51:54.999Z</time>
      </trkpt>
      <trkpt lat="47.51231" lon="6.72032">
        <ele>480.1</ele>
        <time>2017-11-01T09:51:55.999Z</time>
      </trkpt>
      <trkpt lat="47.51231" lon="6.72029">
        <ele>480.1</ele>
        <time>2017-11-01T09:51:56.999Z</time>
      </trkpt>
      <trkpt lat="47.51232" lon="6.72025">
        <ele>480.2</ele>
        <time>2017-11-01T09:51:57.999Z</time>
      </trkpt>
      <trkpt lat="47.51232" lon="6.72022">
        <ele>480.3</ele>
        <time>2017-11-01T09:51:58.999Z</time>
      </trkpt>
      <trkpt lat="47.51233" lon="6.72018">
        <ele>480.2</ele>
        <time>2017-11-01T09:52:01.999Z</time>
      </trkpt>
      <trkpt lat="47.51233" lon="6.72015">
        <ele>480.1</ele>
        <time>2017-11-01T09:52:02.999Z</time>
      </trkpt>
      <trkpt lat="47.51234" lon="6.72012">
        <ele>480</ele>
        <time>2017-11-01T09:52:03.999Z</time>
      </trkpt>
      <trkpt lat="47.51234" lon="6.72007">
        <ele>479.8</ele>
        <time>2017-11-01T09:52:04.999Z</time>
      </trkpt>
      <trkpt lat="47.51233" lon="6.72001">
        <ele>479.7</ele>
        <time>2017-11-01T09:52:05.999Z</time>
      </trkpt>
      <trkpt lat="47.51234" lon="6.71998">
        <ele>479.7</ele>
        <time>2017-11-01T09:52:06.999Z</time>
      </trkpt>
      <trkpt lat="47.51234" lon="6.71995">
        <ele>479.6</ele>
        <time>2017-11-01T09:52:07.999Z</time>
      </trkpt>
      <trkpt lat="47.51232" lon="6.71987">
        <ele>479.5</ele>
        <time>2017-11-01T09:52:08.999Z</time>
      </trkpt>
      <trkpt lat="47.51231" lon="6.7198">
        <ele>479.4</ele>
        <time>2017-11-01T09:52:09.999Z</time>
      </trkpt>
      <trkpt lat="47.51232" lon="6.71974">
        <ele>479.2</ele>
        <time>2017-11-01T09:52:10.999Z</time>
      </trkpt>
      <trkpt lat="47.51233" lon="6.7197">
        <ele>479</ele>
        <time>2017-11-01T09:52:11.999Z</time>
      </trkpt>
      <trkpt lat="47.51234" lon="6.71962">
        <ele>478.9</ele>
        <time>2017-11-01T09:52:12.999Z</time>
      </trkpt>
      <trkpt lat="47.51235" lon="6.71954">
        <ele>478.8</ele>
        <time>2017-11-01T09:52:13.999Z</time>
      </trkpt>
      <trkpt lat="47.51235" lon="6.7195">
        <ele>478.8</ele>
        <time>2017-11-01T09:52:14.999Z</time>
      </trkpt>
      <trkpt lat="47.51235" lon="6.71944">
        <ele>478.9</ele>
        <time>2017-11-01T09:52:15.999Z</time>
      </trkpt>
      <trkpt lat="47.51234" lon="6.71936">
        <ele>478.8</ele>
        <time>2017-11-01T09:52:16.999Z</time>
      </trkpt>
      <trkpt lat="47.51233" lon="6.71933">
        <ele>478.8</ele>
        <time>2017-11-01T09:52:17.999Z</time>
      </trkpt>
      <trkpt lat="47.51232" lon="6.71929">
        <ele>478.7</ele>
        <time>2017-11-01T09:52:18.999Z</time>
      </trkpt>
      <trkpt lat="47.51231" lon="6.71926">
        <ele>478.7</ele>
        <time>2017-11-01T09:52:19.999Z</time>
      </trkpt>
      <trkpt lat="47.51229" lon="6.71919">
        <ele>478.7</ele>
        <time>2017-11-01T09:52:20.999Z</time>
      </trkpt>
      <trkpt lat="47.51229" lon="6.71916">
        <ele>478.8</ele>
        <time>2017-11-01T09:52:21.999Z</time>
      </trkpt>
      <trkpt lat="47.51229" lon="6.71909">
        <ele>478.8</ele>
        <time>2017-11-01T09:52:22.999Z</time>
      </trkpt>
      <trkpt lat="47.51229" lon="6.71903">
        <ele>478.8</ele>
        <time>2017-11-01T09:52:23.999Z</time>
      </trkpt>
      <trkpt lat="47.51229" lon="6.71901">
        <ele>478.8</ele>
        <time>2017-11-01T09:52:24.999Z</time>
      </trkpt>
      <trkpt lat="47.51227" lon="6.71896">
        <ele>478.7</ele>
        <time>2017-11-01T09:52:25.999Z</time>
      </trkpt>
      <trkpt lat="47.51227" lon="6.71895">
        <ele>478.7</ele>
        <time>2017-11-01T09:52:26.999Z</time>
      </trkpt>
      <trkpt lat="47.51225" lon="6.71889">
        <ele>478.6</ele>
        <time>2017-11-01T09:52:27.999Z</time>
      </trkpt>
      <trkpt lat="47.51224" lon="6.71887">
        <ele>478.6</ele>
        <time>2017-11-01T09:52:28.999Z</time>
      </trkpt>
      <trkpt lat="47.51224" lon="6.71882">
        <ele>478.5</ele>
        <time>2017-11-01T09:52:30.999Z</time>
      </trkpt>
      <trkpt lat="47.51223" lon="6.7188">
        <ele>478.3</ele>
        <time>2017-11-01T09:52:31.999Z</time>
      </trkpt>
      <trkpt lat="47.51224" lon="6.71875">
        <ele>478</ele>
        <time>2017-11-01T09:52:33.999Z</time>
      </trkpt>
      <trkpt lat="47.51222" lon="6.71868">
        <ele>477.9</ele>
        <time>2017-11-01T09:52:34.999Z</time>
      </trkpt>
      <trkpt lat="47.51222" lon="6.71864">
        <ele>477.8</ele>
        <time>2017-11-01T09:52:35.999Z</time>
      </trkpt>
      <trkpt lat="47.5122" lon="6.71857">
        <ele>477.7</ele>
        <time>2017-11-01T09:52:36.999Z</time>
      </trkpt>
      <trkpt lat="47.5122" lon="6.71852">
        <ele>477.4</ele>
        <time>2017-11-01T09:52:38.999Z</time>
      </trkpt>
      <trkpt lat="47.5122" lon="6.71849">
        <ele>477.4</ele>
        <time>2017-11-01T09:52:39.999Z</time>
      </trkpt>
      <trkpt lat="47.51219" lon="6.71842">
        <ele>477.3</ele>
        <time>2017-11-01T09:52:40.999Z</time>
      </trkpt>
      <trkpt lat="47.51218" lon="6.71834">
        <ele>477.4</ele>
        <time>2017-11-01T09:52:41.999Z</time>
      </trkpt>
      <trkpt lat="47.51216" lon="6.71828">
        <ele>477.3</ele>
        <time>2017-11-01T09:52:42.999Z</time>
      </trkpt>
      <trkpt lat="47.51215" lon="6.71822">
        <ele>477.4</ele>
        <time>2017-11-01T09:52:44.999Z</time>
      </trkpt>
      <trkpt lat="47.51215" lon="6.71818">
        <ele>477.5</ele>
        <time>2017-11-01T09:52:45.999Z</time>
      </trkpt>
      <trkpt lat="47.51213" lon="6.71812">
        <ele>477.7</ele>
        <time>2017-11-01T09:52:46.999Z</time>
      </trkpt>
      <trkpt lat="47.51212" lon="6.71807">
        <ele>478.3</ele>
        <time>2017-11-01T09:52:48.999Z</time>
      </trkpt>
      <trkpt lat="47.5121" lon="6.71806">
        <ele>478.6</ele>
        <time>2017-11-01T09:52:49.999Z</time>
      </trkpt>
      <trkpt lat="47.51208" lon="6.71804">
        <ele>478.9</ele>
        <time>2017-11-01T09:52:50.999Z</time>
      </trkpt>
      <trkpt lat="47.51205" lon="6.718">
        <ele>479.1</ele>
        <time>2017-11-01T09:52:51.999Z</time>
      </trkpt>
      <trkpt lat="47.51203" lon="6.71795">
        <ele>479.3</ele>
        <time>2017-11-01T09:52:53.000Z</time>
      </trkpt>
      <trkpt lat="47.51203" lon="6.71793">
        <ele>479.5</ele>
        <time>2017-11-01T09:52:53.999Z</time>
      </trkpt>
      <trkpt lat="47.51202" lon="6.71788">
        <ele>480.5</ele>
        <time>2017-11-01T09:52:57.000Z</time>
      </trkpt>
      <trkpt lat="47.51201" lon="6.71787">
        <ele>480.9</ele>
        <time>2017-11-01T09:52:58.000Z</time>
      </trkpt>
      <trkpt lat="47.51203" lon="6.71781">
        <ele>481.7</ele>
        <time>2017-11-01T09:53:00.000Z</time>
      </trkpt>
      <trkpt lat="47.51205" lon="6.71777">
        <ele>482</ele>
        <time>2017-11-01T09:53:01.000Z</time>
      </trkpt>
      <trkpt lat="47.51207" lon="6.71772">
        <ele>483</ele>
        <time>2017-11-01T09:53:04.000Z</time>
      </trkpt>
      <trkpt lat="47.51207" lon="6.7177">
        <ele>483.3</ele>
        <time>2017-11-01T09:53:05.000Z</time>
      </trkpt>
      <trkpt lat="47.51206" lon="6.71766">
        <ele>483.7</ele>
        <time>2017-11-01T09:53:06.000Z</time>
      </trkpt>
      <trkpt lat="47.51206" lon="6.71758">
        <ele>484.1</ele>
        <time>2017-11-01T09:53:07.000Z</time>
      </trkpt>
      <trkpt lat="47.51207" lon="6.71753">
        <ele>484.4</ele>
        <time>2017-11-01T09:53:08.000Z</time>
      </trkpt>
      <trkpt lat="47.51208" lon="6.71748">
        <ele>484.6</ele>
        <time>2017-11-01T09:53:09.000Z</time>
      </trkpt>
      <trkpt lat="47.51209" lon="6.71743">
        <ele>484.8</ele>
        <time>2017-11-01T09:53:10.000Z</time>
      </trkpt>
      <trkpt lat="47.5121" lon="6.71738">
        <ele>485</ele>
        <time>2017-11-01T09:53:11.000Z</time>
      </trkpt>
      <trkpt lat="47.51211" lon="6.71732">
        <ele>485.1</ele>
        <time>2017-11-01T09:53:12.000Z</time>
      </trkpt>
      <trkpt lat="47.51212" lon="6.71729">
        <ele>485.2</ele>
        <time>2017-11-01T09:53:13.000Z</time>
      </trkpt>
      <trkpt lat="47.51214" lon="6.71719">
        <ele>485.4</ele>
        <time>2017-11-01T09:53:14.000Z</time>
      </trkpt>
      <trkpt lat="47.51213" lon="6.71714">
        <ele>485.5</ele>
        <time>2017-11-01T09:53:15.000Z</time>
      </trkpt>
      <trkpt lat="47.51213" lon="6.71709">
        <ele>485.7</ele>
        <time>2017-11-01T09:53:16.000Z</time>
      </trkpt>
      <trkpt lat="47.51213" lon="6.71705">
        <ele>486.1</ele>
        <time>2017-11-01T09:53:18.000Z</time>
      </trkpt>
      <trkpt lat="47.51213" lon="6.71702">
        <ele>486.2</ele>
        <time>2017-11-01T09:53:19.000Z</time>
      </trkpt>
      <trkpt lat="47.51214" lon="6.71696">
        <ele>486.7</ele>
        <time>2017-11-01T09:53:21.000Z</time>
      </trkpt>
      <trkpt lat="47.51215" lon="6.71694">
        <ele>486.9</ele>
        <time>2017-11-01T09:53:22.000Z</time>
      </trkpt>
      <trkpt lat="47.51216" lon="6.71688">
        <ele>487.4</ele>
        <time>2017-11-01T09:53:24.000Z</time>
      </trkpt>
      <trkpt lat="47.51215" lon="6.71686">
        <ele>487.6</ele>
        <time>2017-11-01T09:53:25.000Z</time>
      </trkpt>
      <trkpt lat="47.51214" lon="6.71683">
        <ele>487.7</ele>
        <time>2017-11-01T09:53:26.000Z</time>
      </trkpt>
      <trkpt lat="47.51213" lon="6.7168">
        <ele>487.8</ele>
        <time>2017-11-01T09:53:27.000Z</time>
      </trkpt>
      <trkpt lat="47.51212" lon="6.71674">
        <ele>487.9</ele>
        <time>2017-11-01T09:53:29.000Z</time>
      </trkpt>
      <trkpt lat="47.51211" lon="6.71672">
        <ele>487.9</ele>
        <time>2017-11-01T09:53:30.000Z</time>
      </trkpt>
      <trkpt lat="47.51209" lon="6.71665">
        <ele>487.8</ele>
        <time>2017-11-01T09:53:32.000Z</time>
      </trkpt>
      <trkpt lat="47.51209" lon="6.71663">
        <ele>487.7</ele>
        <time>2017-11-01T09:53:33.000Z</time>
      </trkpt>
      <trkpt lat="47.5121" lon="6.7166">
        <ele>487.6</ele>
        <time>2017-11-01T09:53:34.000Z</time>
      </trkpt>
      <trkpt lat="47.51211" lon="6.71657">
        <ele>487.5</ele>
        <time>2017-11-01T09:53:35.000Z</time>
      </trkpt>
      <trkpt lat="47.51212" lon="6.71652">
        <ele>487.4</ele>
        <time>2017-11-01T09:53:36.000Z</time>
      </trkpt>
      <trkpt lat="47.51213" lon="6.71648">
        <ele>487.4</ele>
        <time>2017-11-01T09:53:37.000Z</time>
      </trkpt>
      <trkpt lat="47.51213" lon="6.71642">
        <ele>487.3</ele>
        <time>2017-11-01T09:53:39.000Z</time>
      </trkpt>
      <trkpt lat="47.51213" lon="6.71637">
        <ele>487.2</ele>
        <time>2017-11-01T09:53:40.000Z</time>
      </trkpt>
      <trkpt lat="47.51215" lon="6.71631">
        <ele>487</ele>
        <time>2017-11-01T09:53:42.000Z</time>
      </trkpt>
      <trkpt lat="47.51216" lon="6.71629">
        <ele>486.9</ele>
        <time>2017-11-01T09:53:43.000Z</time>
      </trkpt>
      <trkpt lat="47.51217" lon="6.71624">
        <ele>486.7</ele>
        <time>2017-11-01T09:53:45.000Z</time>
      </trkpt>
      <trkpt lat="47.51218" lon="6.71621">
        <ele>486.6</ele>
        <time>2017-11-01T09:53:46.000Z</time>
      </trkpt>
      <trkpt lat="47.51217" lon="6.71616">
        <ele>486.4</ele>
        <time>2017-11-01T09:53:48.000Z</time>
      </trkpt>
      <trkpt lat="47.51217" lon="6.71612">
        <ele>486.3</ele>
        <time>2017-11-01T09:53:49.000Z</time>
      </trkpt>
      <trkpt lat="47.51218" lon="6.7161">
        <ele>486.2</ele>
        <time>2017-11-01T09:53:50.000Z</time>
      </trkpt>
      <trkpt lat="47.5122" lon="6.71607">
        <ele>486.1</ele>
        <time>2017-11-01T09:53:51.000Z</time>
      </trkpt>
      <trkpt lat="47.51221" lon="6.71603">
        <ele>485.9</ele>
        <time>2017-11-01T09:53:52.000Z</time>
      </trkpt>
      <trkpt lat="47.51222" lon="6.71599">
        <ele>485.7</ele>
        <time>2017-11-01T09:53:53.000Z</time>
      </trkpt>
      <trkpt lat="47.51222" lon="6.71594">
        <ele>485.5</ele>
        <time>2017-11-01T09:53:54.000Z</time>
      </trkpt>
      <trkpt lat="47.51222" lon="6.71588">
        <ele>485.3</ele>
        <time>2017-11-01T09:53:55.000Z</time>
      </trkpt>
      <trkpt lat="47.51222" lon="6.71582">
        <ele>485.2</ele>
        <time>2017-11-01T09:53:56.000Z</time>
      </trkpt>
      <trkpt lat="47.5122" lon="6.71574">
        <ele>485.2</ele>
        <time>2017-11-01T09:53:57.000Z</time>
      </trkpt>
      <trkpt lat="47.51222" lon="6.71566">
        <ele>485.2</ele>
        <time>2017-11-01T09:53:58.000Z</time>
      </trkpt>
      <trkpt lat="47.51224" lon="6.71557">
        <ele>485.2</ele>
        <time>2017-11-01T09:53:59.000Z</time>
      </trkpt>
      <trkpt lat="47.51224" lon="6.71552">
        <ele>485.2</ele>
        <time>2017-11-01T09:54:00.000Z</time>
      </trkpt>
      <trkpt lat="47.51224" lon="6.71544">
        <ele>485.2</ele>
        <time>2017-11-01T09:54:01.000Z</time>
      </trkpt>
      <trkpt lat="47.51225" lon="6.71531">
        <ele>485.2</ele>
        <time>2017-11-01T09:54:02.000Z</time>
      </trkpt>
      <trkpt lat="47.51229" lon="6.71524">
        <ele>485</ele>
        <time>2017-11-01T09:54:03.000Z</time>
      </trkpt>
      <trkpt lat="47.5123" lon="6.71521">
        <ele>485</ele>
        <time>2017-11-01T09:54:04.000Z</time>
      </trkpt>
      <trkpt lat="47.51231" lon="6.71518">
        <ele>485</ele>
        <time>2017-11-01T09:54:05.000Z</time>
      </trkpt>
      <trkpt lat="47.51232" lon="6.71515">
        <ele>484.9</ele>
        <time>2017-11-01T09:54:06.000Z</time>
      </trkpt>
      <trkpt lat="47.51232" lon="6.71509">
        <ele>484.8</ele>
        <time>2017-11-01T09:54:07.000Z</time>
      </trkpt>
      <trkpt lat="47.51232" lon="6.71502">
        <ele>484.7</ele>
        <time>2017-11-01T09:54:08.000Z</time>
      </trkpt>
      <trkpt lat="47.51233" lon="6.71496">
        <ele>484.7</ele>
        <time>2017-11-01T09:54:10.000Z</time>
      </trkpt>
      <trkpt lat="47.51232" lon="6.71493">
        <ele>484.8</ele>
        <time>2017-11-01T09:54:11.000Z</time>
      </trkpt>
      <trkpt lat="47.51231" lon="6.7149">
        <ele>485</ele>
        <time>2017-11-01T09:54:12.000Z</time>
      </trkpt>
      <trkpt lat="47.5123" lon="6.71487">
        <ele>485.2</ele>
        <time>2017-11-01T09:54:13.000Z</time>
      </trkpt>
      <trkpt lat="47.51229" lon="6.71478">
        <ele>485.3</ele>
        <time>2017-11-01T09:54:14.000Z</time>
      </trkpt>
      <trkpt lat="47.51228" lon="6.71473">
        <ele>485.8</ele>
        <time>2017-11-01T09:54:17.000Z</time>
      </trkpt>
      <trkpt lat="47.51227" lon="6.71469">
        <ele>486</ele>
        <time>2017-11-01T09:54:18.000Z</time>
      </trkpt>
      <trkpt lat="47.51227" lon="6.71465">
        <ele>486.2</ele>
        <time>2017-11-01T09:54:19.000Z</time>
      </trkpt>
      <trkpt lat="47.51228" lon="6.71461">
        <ele>486.3</ele>
        <time>2017-11-01T09:54:20.000Z</time>
      </trkpt>
      <trkpt lat="47.51227" lon="6.71456">
        <ele>486.4</ele>
        <time>2017-11-01T09:54:21.000Z</time>
      </trkpt>
      <trkpt lat="47.51227" lon="6.7145">
        <ele>486.4</ele>
        <time>2017-11-01T09:54:22.000Z</time>
      </trkpt>
      <trkpt lat="47.51227" lon="6.71439">
        <ele>486.4</ele>
        <time>2017-11-01T09:54:23.000Z</time>
      </trkpt>
      <trkpt lat="47.51228" lon="6.71433">
        <ele>486.4</ele>
        <time>2017-11-01T09:54:24.000Z</time>
      </trkpt>
      <trkpt lat="47.51229" lon="6.71427">
        <ele>486.5</ele>
        <time>2017-11-01T09:54:25.000Z</time>
      </trkpt>
      <trkpt lat="47.5123" lon="6.71421">
        <ele>486.5</ele>
        <time>2017-11-01T09:54:26.000Z</time>
      </trkpt>
      <trkpt lat="47.51232" lon="6.71414">
        <ele>486.6</ele>
        <time>2017-11-01T09:54:27.000Z</time>
      </trkpt>
      <trkpt lat="47.51233" lon="6.71409">
        <ele>486.7</ele>
        <time>2017-11-01T09:54:28.000Z</time>
      </trkpt>
      <trkpt lat="47.51234" lon="6.71405">
        <ele>486.9</ele>
        <time>2017-11-01T09:54:29.000Z</time>
      </trkpt>
      <trkpt lat="47.51235" lon="6.71401">
        <ele>487</ele>
        <time>2017-11-01T09:54:30.000Z</time>
      </trkpt>
      <trkpt lat="47.51236" lon="6.71395">
        <ele>487.2</ele>
        <time>2017-11-01T09:54:31.000Z</time>
      </trkpt>
      <trkpt lat="47.51235" lon="6.7139">
        <ele>487.4</ele>
        <time>2017-11-01T09:54:32.000Z</time>
      </trkpt>
      <trkpt lat="47.51234" lon="6.71385">
        <ele>487.6</ele>
        <time>2017-11-01T09:54:33.000Z</time>
      </trkpt>
      <trkpt lat="47.51232" lon="6.71373">
        <ele>487.9</ele>
        <time>2017-11-01T09:54:34.000Z</time>
      </trkpt>
      <trkpt lat="47.51232" lon="6.71366">
        <ele>488.1</ele>
        <time>2017-11-01T09:54:35.000Z</time>
      </trkpt>
      <trkpt lat="47.51233" lon="6.71361">
        <ele>488.3</ele>
        <time>2017-11-01T09:54:36.000Z</time>
      </trkpt>
      <trkpt lat="47.51234" lon="6.71357">
        <ele>488.4</ele>
        <time>2017-11-01T09:54:37.000Z</time>
      </trkpt>
      <trkpt lat="47.51236" lon="6.71352">
        <ele>488.4</ele>
        <time>2017-11-01T09:54:38.000Z</time>
      </trkpt>
      <trkpt lat="47.51237" lon="6.71349">
        <ele>488.4</ele>
        <time>2017-11-01T09:54:39.000Z</time>
      </trkpt>
      <trkpt lat="47.51238" lon="6.71346">
        <ele>488.4</ele>
        <time>2017-11-01T09:54:40.000Z</time>
      </trkpt>
      <trkpt lat="47.51239" lon="6.71343">
        <ele>488.4</ele>
        <time>2017-11-01T09:54:41.000Z</time>
      </trkpt>
      <trkpt lat="47.51241" lon="6.71338">
        <ele>488.4</ele>
        <time>2017-11-01T09:54:42.000Z</time>
      </trkpt>
      <trkpt lat="47.51241" lon="6.71333">
        <ele>488.4</ele>
        <time>2017-11-01T09:54:43.000Z</time>
      </trkpt>
      <trkpt lat="47.51241" lon="6.71329">
        <ele>488.5</ele>
        <time>2017-11-01T09:54:44.000Z</time>
      </trkpt>
      <trkpt lat="47.51242" lon="6.71322">
        <ele>488.6</ele>
        <time>2017-11-01T09:54:45.000Z</time>
      </trkpt>
      <trkpt lat="47.51241" lon="6.71311">
        <ele>489.9</ele>
        <time>2017-11-01T09:54:46.000Z</time>
      </trkpt>
      <trkpt lat="47.51241" lon="6.71304">
        <ele>490</ele>
        <time>2017-11-01T09:54:47.000Z</time>
      </trkpt>
      <trkpt lat="47.5124" lon="6.71299">
        <ele>490.1</ele>
        <time>2017-11-01T09:54:48.000Z</time>
      </trkpt>
      <trkpt lat="47.51238" lon="6.71293">
        <ele>490.3</ele>
        <time>2017-11-01T09:54:49.000Z</time>
      </trkpt>
      <trkpt lat="47.51237" lon="6.71288">
        <ele>490.6</ele>
        <time>2017-11-01T09:54:50.000Z</time>
      </trkpt>
      <trkpt lat="47.51236" lon="6.71283">
        <ele>490.8</ele>
        <time>2017-11-01T09:54:51.000Z</time>
      </trkpt>
      <trkpt lat="47.51236" lon="6.71278">
        <ele>491</ele>
        <time>2017-11-01T09:54:52.000Z</time>
      </trkpt>
      <trkpt lat="47.51237" lon="6.7127">
        <ele>491.2</ele>
        <time>2017-11-01T09:54:53.000Z</time>
      </trkpt>
      <trkpt lat="47.51238" lon="6.71267">
        <ele>491.4</ele>
        <time>2017-11-01T09:54:54.000Z</time>
      </trkpt>
      <trkpt lat="47.51239" lon="6.71263">
        <ele>491.7</ele>
        <time>2017-11-01T09:54:55.000Z</time>
      </trkpt>
      <trkpt lat="47.5124" lon="6.71259">
        <ele>491.9</ele>
        <time>2017-11-01T09:54:56.000Z</time>
      </trkpt>
      <trkpt lat="47.51243" lon="6.71255">
        <ele>492.1</ele>
        <time>2017-11-01T09:54:57.000Z</time>
      </trkpt>
      <trkpt lat="47.51244" lon="6.71251">
        <ele>492.3</ele>
        <time>2017-11-01T09:54:58.000Z</time>
      </trkpt>
      <trkpt lat="47.51245" lon="6.71247">
        <ele>492.4</ele>
        <time>2017-11-01T09:54:59.000Z</time>
      </trkpt>
      <trkpt lat="47.51245" lon="6.71243">
        <ele>492.4</ele>
        <time>2017-11-01T09:55:00.000Z</time>
      </trkpt>
      <trkpt lat="47.51244" lon="6.7124">
        <ele>492.4</ele>
        <time>2017-11-01T09:55:01.000Z</time>
      </trkpt>
      <trkpt lat="47.51243" lon="6.71238">
        <ele>492.6</ele>
        <time>2017-11-01T09:55:03.000Z</time>
      </trkpt>
      <trkpt lat="47.51244" lon="6.71233">
        <ele>492.6</ele>
        <time>2017-11-01T09:55:04.000Z</time>
      </trkpt>
      <trkpt lat="47.51245" lon="6.71225">
        <ele>492.6</ele>
        <time>2017-11-01T09:55:05.000Z</time>
      </trkpt>
      <trkpt lat="47.51248" lon="6.71217">
        <ele>492.8</ele>
        <time>2017-11-01T09:55:06.000Z</time>
      </trkpt>
      <trkpt lat="47.51251" lon="6.71207">
        <ele>493</ele>
        <time>2017-11-01T09:55:07.000Z</time>
      </trkpt>
      <trkpt lat="47.51251" lon="6.71201">
        <ele>493.2</ele>
        <time>2017-11-01T09:55:08.000Z</time>
      </trkpt>
      <trkpt lat="47.51251" lon="6.71193">
        <ele>493.4</ele>
        <time>2017-11-01T09:55:09.000Z</time>
      </trkpt>
      <trkpt lat="47.51252" lon="6.71186">
        <ele>493.6</ele>
        <time>2017-11-01T09:55:10.000Z</time>
      </trkpt>
      <trkpt lat="47.51252" lon="6.71181">
        <ele>494</ele>
        <time>2017-11-01T09:55:12.000Z</time>
      </trkpt>
      <trkpt lat="47.5125" lon="6.71176">
        <ele>494.3</ele>
        <time>2017-11-01T09:55:13.000Z</time>
      </trkpt>
      <trkpt lat="47.51251" lon="6.71171">
        <ele>494.6</ele>
        <time>2017-11-01T09:55:14.000Z</time>
      </trkpt>
      <trkpt lat="47.51254" lon="6.71166">
        <ele>494.8</ele>
        <time>2017-11-01T09:55:15.000Z</time>
      </trkpt>
      <trkpt lat="47.51255" lon="6.71159">
        <ele>495.1</ele>
        <time>2017-11-01T09:55:16.000Z</time>
      </trkpt>
      <trkpt lat="47.51254" lon="6.71155">
        <ele>495.3</ele>
        <time>2017-11-01T09:55:17.000Z</time>
      </trkpt>
      <trkpt lat="47.51254" lon="6.71146">
        <ele>495.5</ele>
        <time>2017-11-01T09:55:18.000Z</time>
      </trkpt>
      <trkpt lat="47.51254" lon="6.71136">
        <ele>495.7</ele>
        <time>2017-11-01T09:55:19.000Z</time>
      </trkpt>
      <trkpt lat="47.51255" lon="6.71133">
        <ele>495.9</ele>
        <time>2017-11-01T09:55:20.000Z</time>
      </trkpt>
      <trkpt lat="47.51254" lon="6.71129">
        <ele>496.1</ele>
        <time>2017-11-01T09:55:21.000Z</time>
      </trkpt>
      <trkpt lat="47.51252" lon="6.71122">
        <ele>496.3</ele>
        <time>2017-11-01T09:55:22.000Z</time>
      </trkpt>
      <trkpt lat="47.51251" lon="6.71116">
        <ele>496.4</ele>
        <time>2017-11-01T09:55:24.000Z</time>
      </trkpt>
      <trkpt lat="47.51253" lon="6.71109">
        <ele>496.5</ele>
        <time>2017-11-01T09:55:25.000Z</time>
      </trkpt>
      <trkpt lat="47.51255" lon="6.71103">
        <ele>496.7</ele>
        <time>2017-11-01T09:55:26.000Z</time>
      </trkpt>
      <trkpt lat="47.51256" lon="6.71099">
        <ele>496.7</ele>
        <time>2017-11-01T09:55:27.000Z</time>
      </trkpt>
      <trkpt lat="47.51258" lon="6.71094">
        <ele>496.7</ele>
        <time>2017-11-01T09:55:28.000Z</time>
      </trkpt>
      <trkpt lat="47.51256" lon="6.71092">
        <ele>496.8</ele>
        <time>2017-11-01T09:55:29.000Z</time>
      </trkpt>
      <trkpt lat="47.51255" lon="6.71086">
        <ele>496.9</ele>
        <time>2017-11-01T09:55:30.000Z</time>
      </trkpt>
      <trkpt lat="47.51259" lon="6.71083">
        <ele>496.9</ele>
        <time>2017-11-01T09:55:31.000Z</time>
      </trkpt>
      <trkpt lat="47.5126" lon="6.71083">
        <ele>496.9</ele>
        <time>2017-11-01T09:55:32.000Z</time>
      </trkpt>
      <trkpt lat="47.51263" lon="6.71079">
        <ele>497.3</ele>
        <time>2017-11-01T09:55:35.000Z</time>
      </trkpt>
      <trkpt lat="47.51263" lon="6.71078">
        <ele>497.5</ele>
        <time>2017-11-01T09:55:36.000Z</time>
      </trkpt>
      <trkpt lat="47.51264" lon="6.71076">
        <ele>497.6</ele>
        <time>2017-11-01T09:55:37.000Z</time>
      </trkpt>
      <trkpt lat="47.51265" lon="6.7107">
        <ele>497.7</ele>
        <time>2017-11-01T09:55:38.000Z</time>
      </trkpt>
      <trkpt lat="47.51266" lon="6.71063">
        <ele>498.1</ele>
        <time>2017-11-01T09:55:40.000Z</time>
      </trkpt>
      <trkpt lat="47.51267" lon="6.71061">
        <ele>498.3</ele>
        <time>2017-11-01T09:55:41.000Z</time>
      </trkpt>
      <trkpt lat="47.51267" lon="6.71058">
        <ele>498.4</ele>
        <time>2017-11-01T09:55:42.000Z</time>
      </trkpt>
      <trkpt lat="47.51271" lon="6.71052">
        <ele>498.7</ele>
        <time>2017-11-01T09:55:43.000Z</time>
      </trkpt>
      <trkpt lat="47.51273" lon="6.71044">
        <ele>498.8</ele>
        <time>2017-11-01T09:55:44.000Z</time>
      </trkpt>
      <trkpt lat="47.51274" lon="6.71038">
        <ele>498.9</ele>
        <time>2017-11-01T09:55:45.000Z</time>
      </trkpt>
      <trkpt lat="47.51275" lon="6.71032">
        <ele>499</ele>
        <time>2017-11-01T09:55:46.000Z</time>
      </trkpt>
      <trkpt lat="47.51275" lon="6.71025">
        <ele>499.1</ele>
        <time>2017-11-01T09:55:48.000Z</time>
      </trkpt>
      <trkpt lat="47.51276" lon="6.71024">
        <ele>499.1</ele>
        <time>2017-11-01T09:55:49.000Z</time>
      </trkpt>
      <trkpt lat="47.51276" lon="6.71021">
        <ele>499.1</ele>
        <time>2017-11-01T09:55:50.000Z</time>
      </trkpt>
      <trkpt lat="47.51277" lon="6.71017">
        <ele>499.1</ele>
        <time>2017-11-01T09:55:51.000Z</time>
      </trkpt>
      <trkpt lat="47.51277" lon="6.71013">
        <ele>499.1</ele>
        <time>2017-11-01T09:55:52.000Z</time>
      </trkpt>
      <trkpt lat="47.51278" lon="6.71006">
        <ele>499.1</ele>
        <time>2017-11-01T09:55:53.000Z</time>
      </trkpt>
      <trkpt lat="47.51279" lon="6.70995">
        <ele>499.1</ele>
        <time>2017-11-01T09:55:54.000Z</time>
      </trkpt>
      <trkpt lat="47.51279" lon="6.70988">
        <ele>499.1</ele>
        <time>2017-11-01T09:55:55.000Z</time>
      </trkpt>
      <trkpt lat="47.5128" lon="6.70982">
        <ele>499.2</ele>
        <time>2017-11-01T09:55:56.000Z</time>
      </trkpt>
      <trkpt lat="47.51281" lon="6.70977">
        <ele>499.1</ele>
        <time>2017-11-01T09:55:57.000Z</time>
      </trkpt>
      <trkpt lat="47.51281" lon="6.70971">
        <ele>499.1</ele>
        <time>2017-11-01T09:55:58.000Z</time>
      </trkpt>
      <trkpt lat="47.51281" lon="6.70966">
        <ele>499.1</ele>
        <time>2017-11-01T09:55:59.000Z</time>
      </trkpt>
      <trkpt lat="47.5128" lon="6.70962">
        <ele>499</ele>
        <time>2017-11-01T09:56:00.000Z</time>
      </trkpt>
      <trkpt lat="47.5128" lon="6.70958">
        <ele>498.9</ele>
        <time>2017-11-01T09:56:01.000Z</time>
      </trkpt>
      <trkpt lat="47.51279" lon="6.70953">
        <ele>498.8</ele>
        <time>2017-11-01T09:56:02.000Z</time>
      </trkpt>
      <trkpt lat="47.51278" lon="6.70948">
        <ele>498.7</ele>
        <time>2017-11-01T09:56:03.000Z</time>
      </trkpt>
      <trkpt lat="47.51275" lon="6.70943">
        <ele>498.6</ele>
        <time>2017-11-01T09:56:04.000Z</time>
      </trkpt>
      <trkpt lat="47.51277" lon="6.70939">
        <ele>497.9</ele>
        <time>2017-11-01T09:56:08.000Z</time>
      </trkpt>
      <trkpt lat="47.51277" lon="6.70934">
        <ele>497.7</ele>
        <time>2017-11-01T09:56:09.000Z</time>
      </trkpt>
      <trkpt lat="47.51278" lon="6.70928">
        <ele>497.5</ele>
        <time>2017-11-01T09:56:10.000Z</time>
      </trkpt>
      <trkpt lat="47.51278" lon="6.70924">
        <ele>497.2</ele>
        <time>2017-11-01T09:56:11.000Z</time>
      </trkpt>
      <trkpt lat="47.5128" lon="6.70921">
        <ele>496.9</ele>
        <time>2017-11-01T09:56:13.000Z</time>
      </trkpt>
      <trkpt lat="47.5128" lon="6.70917">
        <ele>496.8</ele>
        <time>2017-11-01T09:56:14.000Z</time>
      </trkpt>
      <trkpt lat="47.51282" lon="6.70913">
        <ele>496.6</ele>
        <time>2017-11-01T09:56:16.000Z</time>
      </trkpt>
      <trkpt lat="47.51284" lon="6.70911">
        <ele>496.6</ele>
        <time>2017-11-01T09:56:17.000Z</time>
      </trkpt>
      <trkpt lat="47.51288" lon="6.70908">
        <ele>496.4</ele>
        <time>2017-11-01T09:56:19.000Z</time>
      </trkpt>
      <trkpt lat="47.5129" lon="6.70907">
        <ele>496.3</ele>
        <time>2017-11-01T09:56:20.000Z</time>
      </trkpt>
      <trkpt lat="47.51293" lon="6.70904">
        <ele>496.2</ele>
        <time>2017-11-01T09:56:21.000Z</time>
      </trkpt>
      <trkpt lat="47.51295" lon="6.70901">
        <ele>496</ele>
        <time>2017-11-01T09:56:22.000Z</time>
      </trkpt>
      <trkpt lat="47.51298" lon="6.70897">
        <ele>495.8</ele>
        <time>2017-11-01T09:56:23.000Z</time>
      </trkpt>
      <trkpt lat="47.513" lon="6.70894">
        <ele>495.7</ele>
        <time>2017-11-01T09:56:24.000Z</time>
      </trkpt>
      <trkpt lat="47.51302" lon="6.7089">
        <ele>495.6</ele>
        <time>2017-11-01T09:56:25.000Z</time>
      </trkpt>
      <trkpt lat="47.51303" lon="6.70887">
        <ele>495.5</ele>
        <time>2017-11-01T09:56:26.000Z</time>
      </trkpt>
      <trkpt lat="47.51303" lon="6.70883">
        <ele>495.3</ele>
        <time>2017-11-01T09:56:27.000Z</time>
      </trkpt>
      <trkpt lat="47.51302" lon="6.70879">
        <ele>495.1</ele>
        <time>2017-11-01T09:56:28.000Z</time>
      </trkpt>
      <trkpt lat="47.51301" lon="6.70875">
        <ele>495</ele>
        <time>2017-11-01T09:56:29.000Z</time>
      </trkpt>
      <trkpt lat="47.51299" lon="6.70871">
        <ele>494.7</ele>
        <time>2017-11-01T09:56:30.000Z</time>
      </trkpt>
      <trkpt lat="47.51296" lon="6.70865">
        <ele>494.5</ele>
        <time>2017-11-01T09:56:31.000Z</time>
      </trkpt>
      <trkpt lat="47.51295" lon="6.70863">
        <ele>494.2</ele>
        <time>2017-11-01T09:56:32.000Z</time>
      </trkpt>
      <trkpt lat="47.51293" lon="6.7086">
        <ele>493.9</ele>
        <time>2017-11-01T09:56:33.000Z</time>
      </trkpt>
      <trkpt lat="47.51293" lon="6.70857">
        <ele>493.7</ele>
        <time>2017-11-01T09:56:34.000Z</time>
      </trkpt>
      <trkpt lat="47.51292" lon="6.70852">
        <ele>493.4</ele>
        <time>2017-11-01T09:56:35.000Z</time>
      </trkpt>
      <trkpt lat="47.51292" lon="6.70848">
        <ele>493.1</ele>
        <time>2017-11-01T09:56:36.000Z</time>
      </trkpt>
      <trkpt lat="47.51291" lon="6.70844">
        <ele>492.9</ele>
        <time>2017-11-01T09:56:37.000Z</time>
      </trkpt>
      <trkpt lat="47.5129" lon="6.7084">
        <ele>492.7</ele>
        <time>2017-11-01T09:56:38.000Z</time>
      </trkpt>
      <trkpt lat="47.51289" lon="6.70835">
        <ele>492.6</ele>
        <time>2017-11-01T09:56:39.000Z</time>
      </trkpt>
      <trkpt lat="47.51288" lon="6.70832">
        <ele>492.6</ele>
        <time>2017-11-01T09:56:40.000Z</time>
      </trkpt>
      <trkpt lat="47.51287" lon="6.70827">
        <ele>492.6</ele>
        <time>2017-11-01T09:56:41.000Z</time>
      </trkpt>
      <trkpt lat="47.51287" lon="6.70823">
        <ele>492.5</ele>
        <time>2017-11-01T09:56:42.000Z</time>
      </trkpt>
      <trkpt lat="47.51287" lon="6.70819">
        <ele>492.6</ele>
        <time>2017-11-01T09:56:43.000Z</time>
      </trkpt>
      <trkpt lat="47.51288" lon="6.70815">
        <ele>492.5</ele>
        <time>2017-11-01T09:56:44.000Z</time>
      </trkpt>
      <trkpt lat="47.51289" lon="6.70811">
        <ele>492.5</ele>
        <time>2017-11-01T09:56:45.000Z</time>
      </trkpt>
      <trkpt lat="47.5129" lon="6.70805">
        <ele>492.4</ele>
        <time>2017-11-01T09:56:46.000Z</time>
      </trkpt>
      <trkpt lat="47.51291" lon="6.708">
        <ele>492.5</ele>
        <time>2017-11-01T09:56:47.000Z</time>
      </trkpt>
      <trkpt lat="47.51295" lon="6.7079">
        <ele>492.5</ele>
        <time>2017-11-01T09:56:48.000Z</time>
      </trkpt>
      <trkpt lat="47.51297" lon="6.70787">
        <ele>491.7</ele>
        <time>2017-11-01T09:57:03.000Z</time>
      </trkpt>
      <trkpt lat="47.51298" lon="6.70785">
        <ele>491.5</ele>
        <time>2017-11-01T09:57:04.000Z</time>
      </trkpt>
      <trkpt lat="47.51298" lon="6.70778">
        <ele>490.3</ele>
        <time>2017-11-01T09:57:11.000Z</time>
      </trkpt>
      <trkpt lat="47.51296" lon="6.70776">
        <ele>490.2</ele>
        <time>2017-11-01T09:57:12.000Z</time>
      </trkpt>
      <trkpt lat="47.51293" lon="6.70772">
        <ele>490</ele>
        <time>2017-11-01T09:57:14.000Z</time>
      </trkpt>
      <trkpt lat="47.51291" lon="6.70769">
        <ele>489.9</ele>
        <time>2017-11-01T09:57:15.000Z</time>
      </trkpt>
      <trkpt lat="47.51288" lon="6.70766">
        <ele>489.5</ele>
        <time>2017-11-01T09:57:19.000Z</time>
      </trkpt>
      <trkpt lat="47.51285" lon="6.70766">
        <ele>489.5</ele>
        <time>2017-11-01T09:57:20.000Z</time>
      </trkpt>
      <trkpt lat="47.51282" lon="6.70764">
        <ele>489.4</ele>
        <time>2017-11-01T09:57:22.000Z</time>
      </trkpt>
      <trkpt lat="47.5128" lon="6.70763">
        <ele>489.3</ele>
        <time>2017-11-01T09:57:23.000Z</time>
      </trkpt>
      <trkpt lat="47.51276" lon="6.70762">
        <ele>489.1</ele>
        <time>2017-11-01T09:57:24.000Z</time>
      </trkpt>
      <trkpt lat="47.51273" lon="6.70761">
        <ele>489</ele>
        <time>2017-11-01T09:57:25.000Z</time>
      </trkpt>
      <trkpt lat="47.5127" lon="6.7076">
        <ele>488.8</ele>
        <time>2017-11-01T09:57:26.000Z</time>
      </trkpt>
      <trkpt lat="47.51267" lon="6.70759">
        <ele>488.6</ele>
        <time>2017-11-01T09:57:27.000Z</time>
      </trkpt>
      <trkpt lat="47.51263" lon="6.70757">
        <ele>488.5</ele>
        <time>2017-11-01T09:57:28.000Z</time>
      </trkpt>
      <trkpt lat="47.51257" lon="6.70756">
        <ele>488.4</ele>
        <time>2017-11-01T09:57:29.000Z</time>
      </trkpt>
      <trkpt lat="47.51252" lon="6.70755">
        <ele>488.2</ele>
        <time>2017-11-01T09:57:30.000Z</time>
      </trkpt>
      <trkpt lat="47.5124" lon="6.70753">
        <ele>488.1</ele>
        <time>2017-11-01T09:57:31.000Z</time>
      </trkpt>
      <trkpt lat="47.5123" lon="6.70751">
        <ele>487.3</ele>
        <time>2017-11-01T09:57:32.000Z</time>
      </trkpt>
      <trkpt lat="47.5122" lon="6.7075">
        <ele>487</ele>
        <time>2017-11-01T09:57:33.000Z</time>
      </trkpt>
      <trkpt lat="47.51213" lon="6.70745">
        <ele>486.8</ele>
        <time>2017-11-01T09:57:34.000Z</time>
      </trkpt>
      <trkpt lat="47.51201" lon="6.7074">
        <ele>486.4</ele>
        <time>2017-11-01T09:57:35.000Z</time>
      </trkpt>
      <trkpt lat="47.51192" lon="6.70736">
        <ele>485.6</ele>
        <time>2017-11-01T09:57:36.000Z</time>
      </trkpt>
      <trkpt lat="47.51183" lon="6.70731">
        <ele>484.6</ele>
        <time>2017-11-01T09:57:37.000Z</time>
      </trkpt>
      <trkpt lat="47.51176" lon="6.70728">
        <ele>483.9</ele>
        <time>2017-11-01T09:57:38.000Z</time>
      </trkpt>
      <trkpt lat="47.51169" lon="6.70726">
        <ele>481.7</ele>
        <time>2017-11-01T09:57:39.000Z</time>
      </trkpt>
      <trkpt lat="47.51163" lon="6.70724">
        <ele>479.5</ele>
        <time>2017-11-01T09:57:40.000Z</time>
      </trkpt>
      <trkpt lat="47.51154" lon="6.70722">
        <ele>477.9</ele>
        <time>2017-11-01T09:57:41.000Z</time>
      </trkpt>
      <trkpt lat="47.51145" lon="6.7072">
        <ele>476.3</ele>
        <time>2017-11-01T09:57:42.000Z</time>
      </trkpt>
      <trkpt lat="47.51137" lon="6.70718">
        <ele>475.5</ele>
        <time>2017-11-01T09:57:43.000Z</time>
      </trkpt>
      <trkpt lat="47.51128" lon="6.70717">
        <ele>474.9</ele>
        <time>2017-11-01T09:57:44.000Z</time>
      </trkpt>
      <trkpt lat="47.51119" lon="6.70715">
        <ele>474.1</ele>
        <time>2017-11-01T09:57:45.000Z</time>
      </trkpt>
      <trkpt lat="47.51109" lon="6.70713">
        <ele>472.4</ele>
        <time>2017-11-01T09:57:46.000Z</time>
      </trkpt>
      <trkpt lat="47.51101" lon="6.70714">
        <ele>470.1</ele>
        <time>2017-11-01T09:57:47.000Z</time>
      </trkpt>
      <trkpt lat="47.51092" lon="6.70715">
        <ele>467.8</ele>
        <time>2017-11-01T09:57:48.000Z</time>
      </trkpt>
      <trkpt lat="47.51085" lon="6.70714">
        <ele>465</ele>
        <time>2017-11-01T09:57:49.000Z</time>
      </trkpt>
      <trkpt lat="47.51078" lon="6.70714">
        <ele>462.8</ele>
        <time>2017-11-01T09:57:50.000Z</time>
      </trkpt>
      <trkpt lat="47.51072" lon="6.70714">
        <ele>460.4</ele>
        <time>2017-11-01T09:57:51.000Z</time>
      </trkpt>
      <trkpt lat="47.51066" lon="6.70713">
        <ele>458.6</ele>
        <time>2017-11-01T09:57:52.000Z</time>
      </trkpt>
      <trkpt lat="47.51061" lon="6.70713">
        <ele>456.7</ele>
        <time>2017-11-01T09:57:53.000Z</time>
      </trkpt>
      <trkpt lat="47.51058" lon="6.7071">
        <ele>456.4</ele>
        <time>2017-11-01T09:57:54.000Z</time>
      </trkpt>
      <trkpt lat="47.51056" lon="6.70709">
        <ele>456</ele>
        <time>2017-11-01T09:57:55.000Z</time>
      </trkpt>
      <trkpt lat="47.51054" lon="6.70707">
        <ele>455.7</ele>
        <time>2017-11-01T09:57:56.000Z</time>
      </trkpt>
      <trkpt lat="47.51052" lon="6.70705">
        <ele>455.3</ele>
        <time>2017-11-01T09:57:57.000Z</time>
      </trkpt>
      <trkpt lat="47.51049" lon="6.70703">
        <ele>454.9</ele>
        <time>2017-11-01T09:57:58.000Z</time>
      </trkpt>
      <trkpt lat="47.51047" lon="6.70701">
        <ele>454.6</ele>
        <time>2017-11-01T09:57:59.000Z</time>
      </trkpt>
      <trkpt lat="47.51047" lon="6.70701">
        <ele>453.1</ele>
        <time>2017-11-01T09:58:05.000Z</time>
      </trkpt>
      <trkpt lat="47.51032" lon="6.7069">
        <ele>452.8</ele>
        <time>2017-11-01T09:58:06.000Z</time>
      </trkpt>
      <trkpt lat="47.51032" lon="6.7069">
        <ele>451.9</ele>
        <time>2017-11-01T09:58:08.000Z</time>
      </trkpt>
      <trkpt lat="47.51024" lon="6.70677">
        <ele>451.4</ele>
        <time>2017-11-01T09:58:09.000Z</time>
      </trkpt>
      <trkpt lat="47.51024" lon="6.70677">
        <ele>451</ele>
        <time>2017-11-01T09:58:10.000Z</time>
      </trkpt>
      <trkpt lat="47.51018" lon="6.70663">
        <ele>450.6</ele>
        <time>2017-11-01T09:58:11.000Z</time>
      </trkpt>
      <trkpt lat="47.51015" lon="6.70659">
        <ele>450.2</ele>
        <time>2017-11-01T09:58:12.000Z</time>
      </trkpt>
      <trkpt lat="47.51013" lon="6.70656">
        <ele>449.8</ele>
        <time>2017-11-01T09:58:13.000Z</time>
      </trkpt>
      <trkpt lat="47.51012" lon="6.70654">
        <ele>444.8</ele>
        <time>2017-11-01T09:58:29.000Z</time>
      </trkpt>
      <trkpt lat="47.50989" lon="6.70656">
        <ele>444.3</ele>
        <time>2017-11-01T09:58:30.000Z</time>
      </trkpt>
      <trkpt lat="47.50989" lon="6.70656">
        <ele>443.8</ele>
        <time>2017-11-01T09:58:31.000Z</time>
      </trkpt>
      <trkpt lat="47.50983" lon="6.70662">
        <ele>443.3</ele>
        <time>2017-11-01T09:58:32.000Z</time>
      </trkpt>
      <trkpt lat="47.5098" lon="6.70666">
        <ele>442.8</ele>
        <time>2017-11-01T09:58:33.000Z</time>
      </trkpt>
      <trkpt lat="47.50977" lon="6.70668">
        <ele>442.2</ele>
        <time>2017-11-01T09:58:34.000Z</time>
      </trkpt>
      <trkpt lat="47.50974" lon="6.70672">
        <ele>441.7</ele>
        <time>2017-11-01T09:58:35.000Z</time>
      </trkpt>
      <trkpt lat="47.50971" lon="6.70674">
        <ele>441.1</ele>
        <time>2017-11-01T09:58:36.000Z</time>
      </trkpt>
      <trkpt lat="47.50967" lon="6.70675">
        <ele>440.6</ele>
        <time>2017-11-01T09:58:37.000Z</time>
      </trkpt>
      <trkpt lat="47.50965" lon="6.70679">
        <ele>440.1</ele>
        <time>2017-11-01T09:58:38.000Z</time>
      </trkpt>
      <trkpt lat="47.50963" lon="6.70685">
        <ele>439.6</ele>
        <time>2017-11-01T09:58:39.000Z</time>
      </trkpt>
      <trkpt lat="47.50961" lon="6.7069">
        <ele>434.7</ele>
        <time>2017-11-01T09:58:40.000Z</time>
      </trkpt>
      <trkpt lat="47.50958" lon="6.70694">
        <ele>434.3</ele>
        <time>2017-11-01T09:58:41.000Z</time>
      </trkpt>
      <trkpt lat="47.50955" lon="6.70696">
        <ele>433.9</ele>
        <time>2017-11-01T09:58:42.000Z</time>
      </trkpt>
      <trkpt lat="47.5095" lon="6.70697">
        <ele>431.1</ele>
        <time>2017-11-01T09:58:51.000Z</time>
      </trkpt>
      <trkpt lat="47.50946" lon="6.70685">
        <ele>430.6</ele>
        <time>2017-11-01T09:58:52.000Z</time>
      </trkpt>
      <trkpt lat="47.50946" lon="6.70685">
        <ele>429.7</ele>
        <time>2017-11-01T09:58:56.000Z</time>
      </trkpt>
      <trkpt lat="47.50933" lon="6.70682">
        <ele>429.5</ele>
        <time>2017-11-01T09:58:57.000Z</time>
      </trkpt>
      <trkpt lat="47.50933" lon="6.70682">
        <ele>428.7</ele>
        <time>2017-11-01T09:59:02.000Z</time>
      </trkpt>
      <trkpt lat="47.50927" lon="6.70684">
        <ele>428.7</ele>
        <time>2017-11-01T09:59:03.000Z</time>
      </trkpt>
      <trkpt lat="47.50927" lon="6.70684">
        <ele>427.1</ele>
        <time>2017-11-01T09:59:16.000Z</time>
      </trkpt>
      <trkpt lat="47.50932" lon="6.70696">
        <ele>426.9</ele>
        <time>2017-11-01T09:59:17.000Z</time>
      </trkpt>
      <trkpt lat="47.50932" lon="6.70696">
        <ele>423.6</ele>
        <time>2017-11-01T09:59:29.000Z</time>
      </trkpt>
      <trkpt lat="47.50938" lon="6.70722">
        <ele>423.3</ele>
        <time>2017-11-01T09:59:30.000Z</time>
      </trkpt>
      <trkpt lat="47.50938" lon="6.70722">
        <ele>422</ele>
        <time>2017-11-01T09:59:37.000Z</time>
      </trkpt>
      <trkpt lat="47.50935" lon="6.70734">
        <ele>421.8</ele>
        <time>2017-11-01T09:59:38.000Z</time>
      </trkpt>
      <trkpt lat="47.50935" lon="6.70734">
        <ele>420.5</ele>
        <time>2017-11-01T09:59:50.000Z</time>
      </trkpt>
      <trkpt lat="47.50944" lon="6.70754">
        <ele>420.4</ele>
        <time>2017-11-01T09:59:51.000Z</time>
      </trkpt>
      <trkpt lat="47.50944" lon="6.70754">
        <ele>419.4</ele>
        <time>2017-11-01T09:59:57.000Z</time>
      </trkpt>
      <trkpt lat="47.50953" lon="6.70775">
        <ele>419.2</ele>
        <time>2017-11-01T09:59:58.000Z</time>
      </trkpt>
      <trkpt lat="47.50953" lon="6.70775">
        <ele>417.7</ele>
        <time>2017-11-01T10:00:05.000Z</time>
      </trkpt>
      <trkpt lat="47.5096" lon="6.7079">
        <ele>417.6</ele>
        <time>2017-11-01T10:00:06.000Z</time>
      </trkpt>
      <trkpt lat="47.5096" lon="6.7079">
        <ele>417.1</ele>
        <time>2017-11-01T10:00:11.000Z</time>
      </trkpt>
      <trkpt lat="47.5097" lon="6.70804">
        <ele>417</ele>
        <time>2017-11-01T10:00:12.000Z</time>
      </trkpt>
      <trkpt lat="47.5097" lon="6.70804">
        <ele>417.2</ele>
        <time>2017-11-01T10:00:26.000Z</time>
      </trkpt>
      <trkpt lat="47.5098" lon="6.70813">
        <ele>417.2</ele>
        <time>2017-11-01T10:00:27.000Z</time>
      </trkpt>
      <trkpt lat="47.5098" lon="6.70813">
        <ele>417.6</ele>
        <time>2017-11-01T10:00:33.000Z</time>
      </trkpt>
      <trkpt lat="47.50988" lon="6.70818">
        <ele>417.6</ele>
        <time>2017-11-01T10:00:34.000Z</time>
      </trkpt>
      <trkpt lat="47.50988" lon="6.70818">
        <ele>417.3</ele>
        <time>2017-11-01T10:00:44.000Z</time>
      </trkpt>
      <trkpt lat="47.50999" lon="6.70828">
        <ele>417.3</ele>
        <time>2017-11-01T10:00:45.000Z</time>
      </trkpt>
      <trkpt lat="47.50999" lon="6.70828">
        <ele>417.4</ele>
        <time>2017-11-01T10:00:51.000Z</time>
      </trkpt>
      <trkpt lat="47.51009" lon="6.70839">
        <ele>417.4</ele>
        <time>2017-11-01T10:00:52.000Z</time>
      </trkpt>
      <trkpt lat="47.51009" lon="6.70839">
        <ele>417.5</ele>
        <time>2017-11-01T10:00:55.000Z</time>
      </trkpt>
      <trkpt lat="47.51017" lon="6.70852">
        <ele>417.6</ele>
        <time>2017-11-01T10:00:56.000Z</time>
      </trkpt>
      <trkpt lat="47.51019" lon="6.70857">
        <ele>417.6</ele>
        <time>2017-11-01T10:00:58.000Z</time>
      </trkpt>
      <trkpt lat="47.5102" lon="6.70859">
        <ele>417.7</ele>
        <time>2017-11-01T10:00:59.000Z</time>
      </trkpt>
      <trkpt lat="47.51021" lon="6.70862">
        <ele>418.8</ele>
        <time>2017-11-01T10:01:16.000Z</time>
      </trkpt>
      <trkpt lat="47.51031" lon="6.70877">
        <ele>418.9</ele>
        <time>2017-11-01T10:01:17.000Z</time>
      </trkpt>
      <trkpt lat="47.51031" lon="6.70877">
        <ele>422.7</ele>
        <time>2017-11-01T10:01:29.000Z</time>
      </trkpt>
      <trkpt lat="47.51044" lon="6.7088">
        <ele>423.2</ele>
        <time>2017-11-01T10:01:30.000Z</time>
      </trkpt>
      <trkpt lat="47.51044" lon="6.7088">
        <ele>425.3</ele>
        <time>2017-11-01T10:01:38.000Z</time>
      </trkpt>
      <trkpt lat="47.51052" lon="6.70886">
        <ele>425.6</ele>
        <time>2017-11-01T10:01:39.000Z</time>
      </trkpt>
      <trkpt lat="47.51052" lon="6.70886">
        <ele>426.6</ele>
        <time>2017-11-01T10:01:42.000Z</time>
      </trkpt>
      <trkpt lat="47.51057" lon="6.70898">
        <ele>426.8</ele>
        <time>2017-11-01T10:01:43.000Z</time>
      </trkpt>
      <trkpt lat="47.51058" lon="6.70901">
        <ele>426.9</ele>
        <time>2017-11-01T10:01:44.000Z</time>
      </trkpt>
      <trkpt lat="47.51059" lon="6.70905">
        <ele>427.1</ele>
        <time>2017-11-01T10:01:45.000Z</time>
      </trkpt>
      <trkpt lat="47.51061" lon="6.7091">
        <ele>427.6</ele>
        <time>2017-11-01T10:01:47.000Z</time>
      </trkpt>
      <trkpt lat="47.51062" lon="6.70911">
        <ele>427.9</ele>
        <time>2017-11-01T10:01:48.000Z</time>
      </trkpt>
      <trkpt lat="47.51063" lon="6.70912">
        <ele>429.6</ele>
        <time>2017-11-01T10:01:56.000Z</time>
      </trkpt>
      <trkpt lat="47.51067" lon="6.70927">
        <ele>429.6</ele>
        <time>2017-11-01T10:01:57.000Z</time>
      </trkpt>
      <trkpt lat="47.51068" lon="6.70932">
        <ele>429.6</ele>
        <time>2017-11-01T10:02:00.000Z</time>
      </trkpt>
      <trkpt lat="47.51069" lon="6.70934">
        <ele>429.6</ele>
        <time>2017-11-01T10:02:01.000Z</time>
      </trkpt>
      <trkpt lat="47.5107" lon="6.70938">
        <ele>429.8</ele>
        <time>2017-11-01T10:02:03.000Z</time>
      </trkpt>
      <trkpt lat="47.51071" lon="6.7094">
        <ele>429.8</ele>
        <time>2017-11-01T10:02:04.000Z</time>
      </trkpt>
      <trkpt lat="47.51071" lon="6.70942">
        <ele>429.5</ele>
        <time>2017-11-01T10:02:13.000Z</time>
      </trkpt>
      <trkpt lat="47.51075" lon="6.7096">
        <ele>429.5</ele>
        <time>2017-11-01T10:02:14.000Z</time>
      </trkpt>
      <trkpt lat="47.51075" lon="6.7096">
        <ele>429.3</ele>
        <time>2017-11-01T10:02:19.000Z</time>
      </trkpt>
      <trkpt lat="47.51078" lon="6.70975">
        <ele>429.1</ele>
        <time>2017-11-01T10:02:20.000Z</time>
      </trkpt>
      <trkpt lat="47.51078" lon="6.70975">
        <ele>427.7</ele>
        <time>2017-11-01T10:02:30.000Z</time>
      </trkpt>
      <trkpt lat="47.5108" lon="6.70992">
        <ele>427.6</ele>
        <time>2017-11-01T10:02:31.000Z</time>
      </trkpt>
      <trkpt lat="47.5108" lon="6.70992">
        <ele>427.5</ele>
        <time>2017-11-01T10:02:33.000Z</time>
      </trkpt>
      <trkpt lat="47.51082" lon="6.71">
        <ele>427.5</ele>
        <time>2017-11-01T10:02:34.000Z</time>
      </trkpt>
      <trkpt lat="47.51082" lon="6.71003">
        <ele>427.6</ele>
        <time>2017-11-01T10:02:35.000Z</time>
      </trkpt>
      <trkpt lat="47.51082" lon="6.71007">
        <ele>427.6</ele>
        <time>2017-11-01T10:02:36.000Z</time>
      </trkpt>
      <trkpt lat="47.51082" lon="6.7101">
        <ele>427.6</ele>
        <time>2017-11-01T10:02:37.000Z</time>
      </trkpt>
      <trkpt lat="47.51082" lon="6.71014">
        <ele>427.6</ele>
        <time>2017-11-01T10:02:38.000Z</time>
      </trkpt>
      <trkpt lat="47.51082" lon="6.71018">
        <ele>427.6</ele>
        <time>2017-11-01T10:02:39.000Z</time>
      </trkpt>
      <trkpt lat="47.51082" lon="6.71021">
        <ele>427.5</ele>
        <time>2017-11-01T10:02:40.000Z</time>
      </trkpt>
      <trkpt lat="47.51082" lon="6.71028">
        <ele>427.3</ele>
        <time>2017-11-01T10:02:42.000Z</time>
      </trkpt>
      <trkpt lat="47.51082" lon="6.71032">
        <ele>427.2</ele>
        <time>2017-11-01T10:02:43.000Z</time>
      </trkpt>
      <trkpt lat="47.51082" lon="6.71036">
        <ele>427</ele>
        <time>2017-11-01T10:02:44.000Z</time>
      </trkpt>
      <trkpt lat="47.51083" lon="6.71039">
        <ele>426.8</ele>
        <time>2017-11-01T10:02:45.000Z</time>
      </trkpt>
      <trkpt lat="47.51083" lon="6.71043">
        <ele>426.5</ele>
        <time>2017-11-01T10:02:46.000Z</time>
      </trkpt>
      <trkpt lat="47.51083" lon="6.71047">
        <ele>426.3</ele>
        <time>2017-11-01T10:02:47.000Z</time>
      </trkpt>
      <trkpt lat="47.51083" lon="6.71052">
        <ele>426</ele>
        <time>2017-11-01T10:02:49.000Z</time>
      </trkpt>
      <trkpt lat="47.51082" lon="6.71054">
        <ele>425.9</ele>
        <time>2017-11-01T10:02:50.000Z</time>
      </trkpt>
      <trkpt lat="47.51082" lon="6.71058">
        <ele>425.7</ele>
        <time>2017-11-01T10:02:51.000Z</time>
      </trkpt>
      <trkpt lat="47.51082" lon="6.71062">
        <ele>425.6</ele>
        <time>2017-11-01T10:02:52.000Z</time>
      </trkpt>
      <trkpt lat="47.51082" lon="6.71068">
        <ele>425.3</ele>
        <time>2017-11-01T10:02:54.000Z</time>
      </trkpt>
      <trkpt lat="47.51082" lon="6.71071">
        <ele>425.2</ele>
        <time>2017-11-01T10:02:55.000Z</time>
      </trkpt>
      <trkpt lat="47.51082" lon="6.71075">
        <ele>425.1</ele>
        <time>2017-11-01T10:02:56.000Z</time>
      </trkpt>
      <trkpt lat="47.51082" lon="6.7108">
        <ele>425</ele>
        <time>2017-11-01T10:02:57.000Z</time>
      </trkpt>
      <trkpt lat="47.51082" lon="6.71084">
        <ele>424.9</ele>
        <time>2017-11-01T10:02:58.000Z</time>
      </trkpt>
      <trkpt lat="47.51082" lon="6.71087">
        <ele>424.9</ele>
        <time>2017-11-01T10:02:59.000Z</time>
      </trkpt>
      <trkpt lat="47.51081" lon="6.71093">
        <ele>424.6</ele>
        <time>2017-11-01T10:03:01.000Z</time>
      </trkpt>
      <trkpt lat="47.51081" lon="6.71096">
        <ele>424.5</ele>
        <time>2017-11-01T10:03:02.000Z</time>
      </trkpt>
      <trkpt lat="47.51081" lon="6.71101">
        <ele>424.4</ele>
        <time>2017-11-01T10:03:03.000Z</time>
      </trkpt>
      <trkpt lat="47.51081" lon="6.71106">
        <ele>424.2</ele>
        <time>2017-11-01T10:03:04.000Z</time>
      </trkpt>
      <trkpt lat="47.51081" lon="6.71111">
        <ele>424.1</ele>
        <time>2017-11-01T10:03:05.000Z</time>
      </trkpt>
      <trkpt lat="47.51081" lon="6.71115">
        <ele>423.9</ele>
        <time>2017-11-01T10:03:06.000Z</time>
      </trkpt>
      <trkpt lat="47.51082" lon="6.7112">
        <ele>423.7</ele>
        <time>2017-11-01T10:03:07.000Z</time>
      </trkpt>
      <trkpt lat="47.51082" lon="6.71123">
        <ele>423.6</ele>
        <time>2017-11-01T10:03:08.000Z</time>
      </trkpt>
      <trkpt lat="47.51083" lon="6.71126">
        <ele>423.4</ele>
        <time>2017-11-01T10:03:09.000Z</time>
      </trkpt>
      <trkpt lat="47.51084" lon="6.71131">
        <ele>423.2</ele>
        <time>2017-11-01T10:03:10.000Z</time>
      </trkpt>
      <trkpt lat="47.51085" lon="6.71136">
        <ele>423</ele>
        <time>2017-11-01T10:03:11.000Z</time>
      </trkpt>
      <trkpt lat="47.51086" lon="6.71141">
        <ele>422.8</ele>
        <time>2017-11-01T10:03:12.000Z</time>
      </trkpt>
      <trkpt lat="47.51087" lon="6.71145">
        <ele>422.6</ele>
        <time>2017-11-01T10:03:13.000Z</time>
      </trkpt>
      <trkpt lat="47.51088" lon="6.71148">
        <ele>422.4</ele>
        <time>2017-11-01T10:03:14.000Z</time>
      </trkpt>
      <trkpt lat="47.51088" lon="6.71153">
        <ele>422.2</ele>
        <time>2017-11-01T10:03:15.000Z</time>
      </trkpt>
      <trkpt lat="47.51087" lon="6.71158">
        <ele>422</ele>
        <time>2017-11-01T10:03:16.000Z</time>
      </trkpt>
      <trkpt lat="47.51087" lon="6.71163">
        <ele>421.8</ele>
        <time>2017-11-01T10:03:17.000Z</time>
      </trkpt>
      <trkpt lat="47.51086" lon="6.71167">
        <ele>421.6</ele>
        <time>2017-11-01T10:03:18.000Z</time>
      </trkpt>
      <trkpt lat="47.51084" lon="6.71173">
        <ele>421.4</ele>
        <time>2017-11-01T10:03:20.000Z</time>
      </trkpt>
      <trkpt lat="47.51083" lon="6.71177">
        <ele>421.2</ele>
        <time>2017-11-01T10:03:21.000Z</time>
      </trkpt>
      <trkpt lat="47.51082" lon="6.71181">
        <ele>421.1</ele>
        <time>2017-11-01T10:03:22.000Z</time>
      </trkpt>
      <trkpt lat="47.51081" lon="6.71187">
        <ele>421</ele>
        <time>2017-11-01T10:03:23.000Z</time>
      </trkpt>
      <trkpt lat="47.5108" lon="6.71192">
        <ele>420.8</ele>
        <time>2017-11-01T10:03:24.000Z</time>
      </trkpt>
      <trkpt lat="47.51079" lon="6.71195">
        <ele>420.7</ele>
        <time>2017-11-01T10:03:25.000Z</time>
      </trkpt>
      <trkpt lat="47.51076" lon="6.71199">
        <ele>420.7</ele>
        <time>2017-11-01T10:03:26.000Z</time>
      </trkpt>
      <trkpt lat="47.51074" lon="6.71203">
        <ele>420.7</ele>
        <time>2017-11-01T10:03:27.000Z</time>
      </trkpt>
      <trkpt lat="47.51071" lon="6.71207">
        <ele>420.7</ele>
        <time>2017-11-01T10:03:28.000Z</time>
      </trkpt>
      <trkpt lat="47.51069" lon="6.71211">
        <ele>420.7</ele>
        <time>2017-11-01T10:03:29.000Z</time>
      </trkpt>
      <trkpt lat="47.51066" lon="6.71216">
        <ele>420.7</ele>
        <time>2017-11-01T10:03:30.000Z</time>
      </trkpt>
      <trkpt lat="47.51064" lon="6.71221">
        <ele>420.7</ele>
        <time>2017-11-01T10:03:31.000Z</time>
      </trkpt>
      <trkpt lat="47.51061" lon="6.71225">
        <ele>420.7</ele>
        <time>2017-11-01T10:03:32.000Z</time>
      </trkpt>
      <trkpt lat="47.51057" lon="6.71227">
        <ele>422.1</ele>
        <time>2017-11-01T10:03:33.000Z</time>
      </trkpt>
      <trkpt lat="47.51052" lon="6.71228">
        <ele>423.1</ele>
        <time>2017-11-01T10:03:34.000Z</time>
      </trkpt>
      <trkpt lat="47.51048" lon="6.71228">
        <ele>423.3</ele>
        <time>2017-11-01T10:03:35.000Z</time>
      </trkpt>
      <trkpt lat="47.51043" lon="6.7123">
        <ele>423.4</ele>
        <time>2017-11-01T10:03:36.000Z</time>
      </trkpt>
      <trkpt lat="47.51039" lon="6.71231">
        <ele>423.4</ele>
        <time>2017-11-01T10:03:37.000Z</time>
      </trkpt>
      <trkpt lat="47.51035" lon="6.71231">
        <ele>423.5</ele>
        <time>2017-11-01T10:03:38.000Z</time>
      </trkpt>
      <trkpt lat="47.51031" lon="6.71231">
        <ele>423.6</ele>
        <time>2017-11-01T10:03:39.000Z</time>
      </trkpt>
      <trkpt lat="47.51025" lon="6.71231">
        <ele>424.7</ele>
        <time>2017-11-01T10:03:40.000Z</time>
      </trkpt>
      <trkpt lat="47.5102" lon="6.71229">
        <ele>425.4</ele>
        <time>2017-11-01T10:03:41.000Z</time>
      </trkpt>
      <trkpt lat="47.51016" lon="6.71227">
        <ele>426.9</ele>
        <time>2017-11-01T10:03:42.000Z</time>
      </trkpt>
      <trkpt lat="47.51009" lon="6.71224">
        <ele>427.3</ele>
        <time>2017-11-01T10:03:43.000Z</time>
      </trkpt>
      <trkpt lat="47.51004" lon="6.71222">
        <ele>427.3</ele>
        <time>2017-11-01T10:03:44.000Z</time>
      </trkpt>
      <trkpt lat="47.50997" lon="6.71221">
        <ele>427.7</ele>
        <time>2017-11-01T10:03:45.000Z</time>
      </trkpt>
      <trkpt lat="47.5099" lon="6.7122">
        <ele>428.7</ele>
        <time>2017-11-01T10:03:46.000Z</time>
      </trkpt>
      <trkpt lat="47.50983" lon="6.71219">
        <ele>429</ele>
        <time>2017-11-01T10:03:47.000Z</time>
      </trkpt>
      <trkpt lat="47.50977" lon="6.71218">
        <ele>428.2</ele>
        <time>2017-11-01T10:03:48.000Z</time>
      </trkpt>
      <trkpt lat="47.50972" lon="6.71215">
        <ele>427.3</ele>
        <time>2017-11-01T10:03:49.000Z</time>
      </trkpt>
      <trkpt lat="47.50968" lon="6.7121">
        <ele>427.2</ele>
        <time>2017-11-01T10:03:50.000Z</time>
      </trkpt>
      <trkpt lat="47.50962" lon="6.71205">
        <ele>427.8</ele>
        <time>2017-11-01T10:03:51.000Z</time>
      </trkpt>
      <trkpt lat="47.50957" lon="6.71205">
        <ele>428</ele>
        <time>2017-11-01T10:03:52.000Z</time>
      </trkpt>
      <trkpt lat="47.50953" lon="6.71207">
        <ele>427.8</ele>
        <time>2017-11-01T10:03:53.000Z</time>
      </trkpt>
      <trkpt lat="47.50948" lon="6.71207">
        <ele>427.7</ele>
        <time>2017-11-01T10:03:54.000Z</time>
      </trkpt>
      <trkpt lat="47.50944" lon="6.71206">
        <ele>427.6</ele>
        <time>2017-11-01T10:03:55.000Z</time>
      </trkpt>
      <trkpt lat="47.50939" lon="6.71205">
        <ele>427.5</ele>
        <time>2017-11-01T10:03:56.000Z</time>
      </trkpt>
      <trkpt lat="47.50934" lon="6.71205">
        <ele>427.4</ele>
        <time>2017-11-01T10:03:57.000Z</time>
      </trkpt>
      <trkpt lat="47.50929" lon="6.71204">
        <ele>427.2</ele>
        <time>2017-11-01T10:03:58.000Z</time>
      </trkpt>
      <trkpt lat="47.50923" lon="6.71203">
        <ele>427</ele>
        <time>2017-11-01T10:03:59.000Z</time>
      </trkpt>
      <trkpt lat="47.50919" lon="6.71199">
        <ele>426.8</ele>
        <time>2017-11-01T10:04:00.000Z</time>
      </trkpt>
      <trkpt lat="47.50916" lon="6.71195">
        <ele>426.7</ele>
        <time>2017-11-01T10:04:01.000Z</time>
      </trkpt>
      <trkpt lat="47.50912" lon="6.71192">
        <ele>426.5</ele>
        <time>2017-11-01T10:04:02.000Z</time>
      </trkpt>
      <trkpt lat="47.50908" lon="6.71189">
        <ele>426.4</ele>
        <time>2017-11-01T10:04:03.000Z</time>
      </trkpt>
      <trkpt lat="47.50906" lon="6.71188">
        <ele>426.4</ele>
        <time>2017-11-01T10:04:04.000Z</time>
      </trkpt>
      <trkpt lat="47.50901" lon="6.7119">
        <ele>426.2</ele>
        <time>2017-11-01T10:04:05.000Z</time>
      </trkpt>
      <trkpt lat="47.50901" lon="6.71196">
        <ele>425.9</ele>
        <time>2017-11-01T10:04:06.000Z</time>
      </trkpt>
      <trkpt lat="47.509" lon="6.71199">
        <ele>425.5</ele>
        <time>2017-11-01T10:04:07.000Z</time>
      </trkpt>
      <trkpt lat="47.50899" lon="6.71204">
        <ele>425.2</ele>
        <time>2017-11-01T10:04:08.000Z</time>
      </trkpt>
      <trkpt lat="47.50899" lon="6.7121">
        <ele>424.8</ele>
        <time>2017-11-01T10:04:09.000Z</time>
      </trkpt>
      <trkpt lat="47.50899" lon="6.71215">
        <ele>424.4</ele>
        <time>2017-11-01T10:04:10.000Z</time>
      </trkpt>
      <trkpt lat="47.50899" lon="6.7122">
        <ele>424</ele>
        <time>2017-11-01T10:04:11.000Z</time>
      </trkpt>
      <trkpt lat="47.50898" lon="6.71226">
        <ele>423.6</ele>
        <time>2017-11-01T10:04:12.000Z</time>
      </trkpt>
      <trkpt lat="47.50896" lon="6.71233">
        <ele>423.1</ele>
        <time>2017-11-01T10:04:13.000Z</time>
      </trkpt>
      <trkpt lat="47.50894" lon="6.71239">
        <ele>422.7</ele>
        <time>2017-11-01T10:04:14.000Z</time>
      </trkpt>
      <trkpt lat="47.50893" lon="6.71246">
        <ele>422.2</ele>
        <time>2017-11-01T10:04:15.000Z</time>
      </trkpt>
      <trkpt lat="47.50892" lon="6.71253">
        <ele>421.8</ele>
        <time>2017-11-01T10:04:16.000Z</time>
      </trkpt>
      <trkpt lat="47.5089" lon="6.71261">
        <ele>417.7</ele>
        <time>2017-11-01T10:04:17.000Z</time>
      </trkpt>
      <trkpt lat="47.50888" lon="6.71267">
        <ele>417.4</ele>
        <time>2017-11-01T10:04:18.000Z</time>
      </trkpt>
      <trkpt lat="47.50887" lon="6.71274">
        <ele>417</ele>
        <time>2017-11-01T10:04:19.000Z</time>
      </trkpt>
      <trkpt lat="47.50885" lon="6.71284">
        <ele>416.7</ele>
        <time>2017-11-01T10:04:20.000Z</time>
      </trkpt>
      <trkpt lat="47.50883" lon="6.71289">
        <ele>416.3</ele>
        <time>2017-11-01T10:04:21.000Z</time>
      </trkpt>
      <trkpt lat="47.50881" lon="6.71294">
        <ele>415.9</ele>
        <time>2017-11-01T10:04:22.000Z</time>
      </trkpt>
      <trkpt lat="47.50879" lon="6.71303">
        <ele>411.5</ele>
        <time>2017-11-01T10:04:23.000Z</time>
      </trkpt>
      <trkpt lat="47.50877" lon="6.71312">
        <ele>411.3</ele>
        <time>2017-11-01T10:04:24.000Z</time>
      </trkpt>
      <trkpt lat="47.50875" lon="6.71318">
        <ele>411.1</ele>
        <time>2017-11-01T10:04:25.000Z</time>
      </trkpt>
      <trkpt lat="47.50873" lon="6.71323">
        <ele>410.9</ele>
        <time>2017-11-01T10:04:26.000Z</time>
      </trkpt>
      <trkpt lat="47.50872" lon="6.71329">
        <ele>410.7</ele>
        <time>2017-11-01T10:04:27.000Z</time>
      </trkpt>
      <trkpt lat="47.5087" lon="6.71335">
        <ele>410.5</ele>
        <time>2017-11-01T10:04:28.000Z</time>
      </trkpt>
      <trkpt lat="47.5087" lon="6.71341">
        <ele>408.9</ele>
        <time>2017-11-01T10:04:29.000Z</time>
      </trkpt>
      <trkpt lat="47.50868" lon="6.71347">
        <ele>407.1</ele>
        <time>2017-11-01T10:04:30.000Z</time>
      </trkpt>
      <trkpt lat="47.50866" lon="6.71352">
        <ele>406.3</ele>
        <time>2017-11-01T10:04:31.000Z</time>
      </trkpt>
      <trkpt lat="47.50864" lon="6.71358">
        <ele>405.6</ele>
        <time>2017-11-01T10:04:32.000Z</time>
      </trkpt>
      <trkpt lat="47.50861" lon="6.71365">
        <ele>405.4</ele>
        <time>2017-11-01T10:04:33.000Z</time>
      </trkpt>
      <trkpt lat="47.50859" lon="6.71372">
        <ele>405.4</ele>
        <time>2017-11-01T10:04:34.000Z</time>
      </trkpt>
      <trkpt lat="47.50856" lon="6.71379">
        <ele>405.2</ele>
        <time>2017-11-01T10:04:35.000Z</time>
      </trkpt>
      <trkpt lat="47.50854" lon="6.71386">
        <ele>403.9</ele>
        <time>2017-11-01T10:04:36.000Z</time>
      </trkpt>
      <trkpt lat="47.50854" lon="6.71391">
        <ele>403.8</ele>
        <time>2017-11-01T10:04:37.000Z</time>
      </trkpt>
      <trkpt lat="47.50854" lon="6.71395">
        <ele>403.6</ele>
        <time>2017-11-01T10:04:38.000Z</time>
      </trkpt>
      <trkpt lat="47.50853" lon="6.71401">
        <ele>403.5</ele>
        <time>2017-11-01T10:04:39.000Z</time>
      </trkpt>
      <trkpt lat="47.50851" lon="6.71407">
        <ele>403.3</ele>
        <time>2017-11-01T10:04:40.000Z</time>
      </trkpt>
      <trkpt lat="47.5085" lon="6.71413">
        <ele>403.1</ele>
        <time>2017-11-01T10:04:41.000Z</time>
      </trkpt>
      <trkpt lat="47.5085" lon="6.71419">
        <ele>402.9</ele>
        <time>2017-11-01T10:04:42.000Z</time>
      </trkpt>
      <trkpt lat="47.5085" lon="6.71425">
        <ele>402.7</ele>
        <time>2017-11-01T10:04:43.000Z</time>
      </trkpt>
      <trkpt lat="47.50849" lon="6.71432">
        <ele>402.5</ele>
        <time>2017-11-01T10:04:44.000Z</time>
      </trkpt>
      <trkpt lat="47.50849" lon="6.71437">
        <ele>402.3</ele>
        <time>2017-11-01T10:04:45.000Z</time>
      </trkpt>
      <trkpt lat="47.50848" lon="6.71443">
        <ele>402.1</ele>
        <time>2017-11-01T10:04:46.000Z</time>
      </trkpt>
      <trkpt lat="47.50847" lon="6.71448">
        <ele>402</ele>
        <time>2017-11-01T10:04:47.000Z</time>
      </trkpt>
      <trkpt lat="47.50846" lon="6.71454">
        <ele>401.7</ele>
        <time>2017-11-01T10:04:48.000Z</time>
      </trkpt>
      <trkpt lat="47.50845" lon="6.71459">
        <ele>401.4</ele>
        <time>2017-11-01T10:04:49.000Z</time>
      </trkpt>
      <trkpt lat="47.50844" lon="6.71465">
        <ele>401.2</ele>
        <time>2017-11-01T10:04:50.000Z</time>
      </trkpt>
      <trkpt lat="47.50844" lon="6.71471">
        <ele>401</ele>
        <time>2017-11-01T10:04:51.000Z</time>
      </trkpt>
      <trkpt lat="47.50843" lon="6.71477">
        <ele>398.5</ele>
        <time>2017-11-01T10:04:52.000Z</time>
      </trkpt>
      <trkpt lat="47.50841" lon="6.71483">
        <ele>398.2</ele>
        <time>2017-11-01T10:04:53.000Z</time>
      </trkpt>
      <trkpt lat="47.5084" lon="6.71489">
        <ele>396.2</ele>
        <time>2017-11-01T10:04:54.000Z</time>
      </trkpt>
      <trkpt lat="47.5084" lon="6.71494">
        <ele>394.9</ele>
        <time>2017-11-01T10:04:55.000Z</time>
      </trkpt>
      <trkpt lat="47.50839" lon="6.715">
        <ele>394.7</ele>
        <time>2017-11-01T10:04:56.000Z</time>
      </trkpt>
      <trkpt lat="47.50838" lon="6.71505">
        <ele>394.4</ele>
        <time>2017-11-01T10:04:57.000Z</time>
      </trkpt>
      <trkpt lat="47.50837" lon="6.7151">
        <ele>394.1</ele>
        <time>2017-11-01T10:04:58.000Z</time>
      </trkpt>
      <trkpt lat="47.50837" lon="6.71516">
        <ele>393.8</ele>
        <time>2017-11-01T10:04:59.000Z</time>
      </trkpt>
      <trkpt lat="47.50836" lon="6.71522">
        <ele>393.5</ele>
        <time>2017-11-01T10:05:00.000Z</time>
      </trkpt>
      <trkpt lat="47.50836" lon="6.71527">
        <ele>393.3</ele>
        <time>2017-11-01T10:05:01.000Z</time>
      </trkpt>
      <trkpt lat="47.50835" lon="6.71531">
        <ele>393</ele>
        <time>2017-11-01T10:05:02.000Z</time>
      </trkpt>
      <trkpt lat="47.50835" lon="6.71536">
        <ele>392.7</ele>
        <time>2017-11-01T10:05:03.000Z</time>
      </trkpt>
      <trkpt lat="47.50835" lon="6.71539">
        <ele>392.4</ele>
        <time>2017-11-01T10:05:04.000Z</time>
      </trkpt>
      <trkpt lat="47.50834" lon="6.71543">
        <ele>392.2</ele>
        <time>2017-11-01T10:05:05.000Z</time>
      </trkpt>
      <trkpt lat="47.50834" lon="6.71547">
        <ele>392</ele>
        <time>2017-11-01T10:05:06.000Z</time>
      </trkpt>
      <trkpt lat="47.50833" lon="6.71551">
        <ele>391.8</ele>
        <time>2017-11-01T10:05:07.000Z</time>
      </trkpt>
      <trkpt lat="47.50832" lon="6.71555">
        <ele>391.6</ele>
        <time>2017-11-01T10:05:08.000Z</time>
      </trkpt>
      <trkpt lat="47.50832" lon="6.71561">
        <ele>391.3</ele>
        <time>2017-11-01T10:05:09.000Z</time>
      </trkpt>
      <trkpt lat="47.50831" lon="6.71566">
        <ele>391.1</ele>
        <time>2017-11-01T10:05:10.000Z</time>
      </trkpt>
      <trkpt lat="47.5083" lon="6.71572">
        <ele>390.9</ele>
        <time>2017-11-01T10:05:11.000Z</time>
      </trkpt>
      <trkpt lat="47.5083" lon="6.71578">
        <ele>390.6</ele>
        <time>2017-11-01T10:05:12.000Z</time>
      </trkpt>
      <trkpt lat="47.5083" lon="6.71583">
        <ele>390.4</ele>
        <time>2017-11-01T10:05:13.000Z</time>
      </trkpt>
      <trkpt lat="47.50829" lon="6.71588">
        <ele>390.2</ele>
        <time>2017-11-01T10:05:14.000Z</time>
      </trkpt>
      <trkpt lat="47.50829" lon="6.71593">
        <ele>390</ele>
        <time>2017-11-01T10:05:15.000Z</time>
      </trkpt>
      <trkpt lat="47.50829" lon="6.71597">
        <ele>389.8</ele>
        <time>2017-11-01T10:05:16.000Z</time>
      </trkpt>
      <trkpt lat="47.50828" lon="6.71603">
        <ele>389.5</ele>
        <time>2017-11-01T10:05:17.000Z</time>
      </trkpt>
      <trkpt lat="47.50828" lon="6.7161">
        <ele>389.2</ele>
        <time>2017-11-01T10:05:18.000Z</time>
      </trkpt>
      <trkpt lat="47.50827" lon="6.71617">
        <ele>389</ele>
        <time>2017-11-01T10:05:19.000Z</time>
      </trkpt>
      <trkpt lat="47.50827" lon="6.71624">
        <ele>388.8</ele>
        <time>2017-11-01T10:05:20.000Z</time>
      </trkpt>
      <trkpt lat="47.50826" lon="6.7163">
        <ele>388.6</ele>
        <time>2017-11-01T10:05:21.000Z</time>
      </trkpt>
      <trkpt lat="47.50827" lon="6.71635">
        <ele>388.3</ele>
        <time>2017-11-01T10:05:22.000Z</time>
      </trkpt>
      <trkpt lat="47.50826" lon="6.71641">
        <ele>388.1</ele>
        <time>2017-11-01T10:05:23.000Z</time>
      </trkpt>
      <trkpt lat="47.50825" lon="6.71646">
        <ele>387.9</ele>
        <time>2017-11-01T10:05:24.000Z</time>
      </trkpt>
      <trkpt lat="47.50824" lon="6.71652">
        <ele>387.8</ele>
        <time>2017-11-01T10:05:25.000Z</time>
      </trkpt>
      <trkpt lat="47.50823" lon="6.71657">
        <ele>387.8</ele>
        <time>2017-11-01T10:05:26.000Z</time>
      </trkpt>
      <trkpt lat="47.5082" lon="6.71663">
        <ele>387.7</ele>
        <time>2017-11-01T10:05:27.000Z</time>
      </trkpt>
      <trkpt lat="47.50817" lon="6.71668">
        <ele>387.6</ele>
        <time>2017-11-01T10:05:28.000Z</time>
      </trkpt>
      <trkpt lat="47.50814" lon="6.71671">
        <ele>387.5</ele>
        <time>2017-11-01T10:05:29.000Z</time>
      </trkpt>
      <trkpt lat="47.50811" lon="6.71673">
        <ele>387.4</ele>
        <time>2017-11-01T10:05:30.000Z</time>
      </trkpt>
      <trkpt lat="47.50809" lon="6.71674">
        <ele>387.4</ele>
        <time>2017-11-01T10:05:31.000Z</time>
      </trkpt>
      <trkpt lat="47.50805" lon="6.71676">
        <ele>387.6</ele>
        <time>2017-11-01T10:05:33.000Z</time>
      </trkpt>
      <trkpt lat="47.50804" lon="6.71678">
        <ele>387.7</ele>
        <time>2017-11-01T10:05:34.000Z</time>
      </trkpt>
      <trkpt lat="47.50801" lon="6.7168">
        <ele>388.1</ele>
        <time>2017-11-01T10:05:38.000Z</time>
      </trkpt>
      <trkpt lat="47.50797" lon="6.7168">
        <ele>388.2</ele>
        <time>2017-11-01T10:05:39.000Z</time>
      </trkpt>
      <trkpt lat="47.50795" lon="6.71685">
        <ele>388.4</ele>
        <time>2017-11-01T10:05:40.000Z</time>
      </trkpt>
      <trkpt lat="47.50795" lon="6.71686">
        <ele>388.7</ele>
        <time>2017-11-01T10:05:41.000Z</time>
      </trkpt>
      <trkpt lat="47.50799" lon="6.71686">
        <ele>393.7</ele>
        <time>2017-11-01T10:05:55.000Z</time>
      </trkpt>
      <trkpt lat="47.508" lon="6.71686">
        <ele>394</ele>
        <time>2017-11-01T10:05:56.000Z</time>
      </trkpt>
      <trkpt lat="47.50802" lon="6.71687">
        <ele>396.1</ele>
        <time>2017-11-01T10:06:24.000Z</time>
      </trkpt>
      <trkpt lat="47.50804" lon="6.71681">
        <ele>395.9</ele>
        <time>2017-11-01T10:06:25.000Z</time>
      </trkpt>
      <trkpt lat="47.50806" lon="6.71677">
        <ele>395.9</ele>
        <time>2017-11-01T10:06:26.000Z</time>
      </trkpt>
      <trkpt lat="47.50809" lon="6.71674">
        <ele>395.8</ele>
        <time>2017-11-01T10:06:27.000Z</time>
      </trkpt>
      <trkpt lat="47.50813" lon="6.71672">
        <ele>395.7</ele>
        <time>2017-11-01T10:06:29.000Z</time>
      </trkpt>
      <trkpt lat="47.50815" lon="6.71672">
        <ele>395.7</ele>
        <time>2017-11-01T10:06:30.000Z</time>
      </trkpt>
      <trkpt lat="47.50816" lon="6.71673">
        <ele>395.6</ele>
        <time>2017-11-01T10:06:31.000Z</time>
      </trkpt>
      <trkpt lat="47.5082" lon="6.71673">
        <ele>395.6</ele>
        <time>2017-11-01T10:06:32.000Z</time>
      </trkpt>
      <trkpt lat="47.50824" lon="6.71672">
        <ele>397.2</ele>
        <time>2017-11-01T10:06:46.000Z</time>
      </trkpt>
      <trkpt lat="47.50825" lon="6.71673">
        <ele>397.3</ele>
        <time>2017-11-01T10:06:47.000Z</time>
      </trkpt>
      <trkpt lat="47.50828" lon="6.71677">
        <ele>397.4</ele>
        <time>2017-11-01T10:06:48.000Z</time>
      </trkpt>
      <trkpt lat="47.5083" lon="6.71681">
        <ele>397.3</ele>
        <time>2017-11-01T10:06:49.000Z</time>
      </trkpt>
      <trkpt lat="47.50832" lon="6.71687">
        <ele>397.4</ele>
        <time>2017-11-01T10:06:51.000Z</time>
      </trkpt>
      <trkpt lat="47.50831" lon="6.71688">
        <ele>397.4</ele>
        <time>2017-11-01T10:06:52.000Z</time>
      </trkpt>
      <trkpt lat="47.50833" lon="6.71693">
        <ele>397.3</ele>
        <time>2017-11-01T10:07:14.000Z</time>
      </trkpt>
      <trkpt lat="47.50833" lon="6.71694">
        <ele>397.3</ele>
        <time>2017-11-01T10:07:15.000Z</time>
      </trkpt>
      <trkpt lat="47.50833" lon="6.71699">
        <ele>397.3</ele>
        <time>2017-11-01T10:07:18.000Z</time>
      </trkpt>
      <trkpt lat="47.50834" lon="6.71701">
        <ele>397.4</ele>
        <time>2017-11-01T10:07:19.000Z</time>
      </trkpt>
      <trkpt lat="47.50837" lon="6.71704">
        <ele>398.4</ele>
        <time>2017-11-01T10:07:24.000Z</time>
      </trkpt>
      <trkpt lat="47.50838" lon="6.71705">
        <ele>398.7</ele>
        <time>2017-11-01T10:07:25.000Z</time>
      </trkpt>
      <trkpt lat="47.5084" lon="6.71708">
        <ele>399.5</ele>
        <time>2017-11-01T10:07:29.000Z</time>
      </trkpt>
      <trkpt lat="47.50844" lon="6.7171">
        <ele>399.7</ele>
        <time>2017-11-01T10:07:30.000Z</time>
      </trkpt>
      <trkpt lat="47.50848" lon="6.71711">
        <ele>399.9</ele>
        <time>2017-11-01T10:07:31.000Z</time>
      </trkpt>
      <trkpt lat="47.50849" lon="6.71711">
        <ele>400.2</ele>
        <time>2017-11-01T10:07:32.000Z</time>
      </trkpt>
      <trkpt lat="47.50851" lon="6.7171">
        <ele>400.7</ele>
        <time>2017-11-01T10:07:35.000Z</time>
      </trkpt>
      <trkpt lat="47.50854" lon="6.71708">
        <ele>400.9</ele>
        <time>2017-11-01T10:07:36.000Z</time>
      </trkpt>
      <trkpt lat="47.50858" lon="6.71705">
        <ele>402.2</ele>
        <time>2017-11-01T10:07:43.000Z</time>
      </trkpt>
      <trkpt lat="47.50861" lon="6.71702">
        <ele>402.3</ele>
        <time>2017-11-01T10:07:44.000Z</time>
      </trkpt>
      <trkpt lat="47.50863" lon="6.71699">
        <ele>402.4</ele>
        <time>2017-11-01T10:07:45.000Z</time>
      </trkpt>
      <trkpt lat="47.50865" lon="6.71699">
        <ele>402.6</ele>
        <time>2017-11-01T10:07:46.000Z</time>
      </trkpt>
      <trkpt lat="47.50869" lon="6.71696">
        <ele>404.5</ele>
        <time>2017-11-01T10:07:54.000Z</time>
      </trkpt>
      <trkpt lat="47.5087" lon="6.71697">
        <ele>404.7</ele>
        <time>2017-11-01T10:07:55.000Z</time>
      </trkpt>
      <trkpt lat="47.50873" lon="6.71699">
        <ele>405.1</ele>
        <time>2017-11-01T10:07:57.000Z</time>
      </trkpt>
      <trkpt lat="47.50874" lon="6.71702">
        <ele>405.3</ele>
        <time>2017-11-01T10:07:58.000Z</time>
      </trkpt>
      <trkpt lat="47.50877" lon="6.71705">
        <ele>405.5</ele>
        <time>2017-11-01T10:08:01.000Z</time>
      </trkpt>
      <trkpt lat="47.50878" lon="6.71706">
        <ele>405.6</ele>
        <time>2017-11-01T10:08:02.000Z</time>
      </trkpt>
      <trkpt lat="47.50881" lon="6.7171">
        <ele>405.7</ele>
        <time>2017-11-01T10:08:06.000Z</time>
      </trkpt>
      <trkpt lat="47.50882" lon="6.71711">
        <ele>405.8</ele>
        <time>2017-11-01T10:08:07.000Z</time>
      </trkpt>
      <trkpt lat="47.50885" lon="6.71714">
        <ele>407.1</ele>
        <time>2017-11-01T10:08:15.000Z</time>
      </trkpt>
      <trkpt lat="47.50886" lon="6.71715">
        <ele>407.2</ele>
        <time>2017-11-01T10:08:16.000Z</time>
      </trkpt>
      <trkpt lat="47.50888" lon="6.7172">
        <ele>407.7</ele>
        <time>2017-11-01T10:08:24.000Z</time>
      </trkpt>
      <trkpt lat="47.50889" lon="6.71722">
        <ele>407.7</ele>
        <time>2017-11-01T10:08:25.000Z</time>
      </trkpt>
      <trkpt lat="47.50891" lon="6.71727">
        <ele>407.6</ele>
        <time>2017-11-01T10:08:28.000Z</time>
      </trkpt>
      <trkpt lat="47.50891" lon="6.7173">
        <ele>407.5</ele>
        <time>2017-11-01T10:08:29.000Z</time>
      </trkpt>
      <trkpt lat="47.50891" lon="6.71735">
        <ele>407.4</ele>
        <time>2017-11-01T10:08:31.000Z</time>
      </trkpt>
      <trkpt lat="47.50891" lon="6.71737">
        <ele>407.4</ele>
        <time>2017-11-01T10:08:32.000Z</time>
      </trkpt>
      <trkpt lat="47.50894" lon="6.7174">
        <ele>407.4</ele>
        <time>2017-11-01T10:08:34.000Z</time>
      </trkpt>
      <trkpt lat="47.50895" lon="6.71742">
        <ele>407.4</ele>
        <time>2017-11-01T10:08:35.000Z</time>
      </trkpt>
      <trkpt lat="47.50898" lon="6.71746">
        <ele>407.1</ele>
        <time>2017-11-01T10:08:37.000Z</time>
      </trkpt>
      <trkpt lat="47.50899" lon="6.71749">
        <ele>406.9</ele>
        <time>2017-11-01T10:08:38.000Z</time>
      </trkpt>
      <trkpt lat="47.50902" lon="6.71754">
        <ele>406.7</ele>
        <time>2017-11-01T10:08:40.000Z</time>
      </trkpt>
      <trkpt lat="47.50903" lon="6.71756">
        <ele>406.7</ele>
        <time>2017-11-01T10:08:41.000Z</time>
      </trkpt>
      <trkpt lat="47.50905" lon="6.71761">
        <ele>407</ele>
        <time>2017-11-01T10:08:44.000Z</time>
      </trkpt>
      <trkpt lat="47.50906" lon="6.71766">
        <ele>407.1</ele>
        <time>2017-11-01T10:08:45.000Z</time>
      </trkpt>
      <trkpt lat="47.50908" lon="6.71772">
        <ele>407.3</ele>
        <time>2017-11-01T10:08:47.000Z</time>
      </trkpt>
      <trkpt lat="47.50909" lon="6.71772">
        <ele>407.5</ele>
        <time>2017-11-01T10:08:48.000Z</time>
      </trkpt>
      <trkpt lat="47.50912" lon="6.71775">
        <ele>408.2</ele>
        <time>2017-11-01T10:08:52.000Z</time>
      </trkpt>
      <trkpt lat="47.50912" lon="6.71776">
        <ele>408.4</ele>
        <time>2017-11-01T10:08:53.000Z</time>
      </trkpt>
      <trkpt lat="47.50915" lon="6.71779">
        <ele>408.8</ele>
        <time>2017-11-01T10:08:55.000Z</time>
      </trkpt>
      <trkpt lat="47.50916" lon="6.71782">
        <ele>409</ele>
        <time>2017-11-01T10:08:56.000Z</time>
      </trkpt>
      <trkpt lat="47.50918" lon="6.71786">
        <ele>409.8</ele>
        <time>2017-11-01T10:08:59.000Z</time>
      </trkpt>
      <trkpt lat="47.50918" lon="6.71787">
        <ele>410.1</ele>
        <time>2017-11-01T10:09:00.000Z</time>
      </trkpt>
      <trkpt lat="47.50919" lon="6.71792">
        <ele>410.8</ele>
        <time>2017-11-01T10:09:04.000Z</time>
      </trkpt>
      <trkpt lat="47.50919" lon="6.71794">
        <ele>411</ele>
        <time>2017-11-01T10:09:05.000Z</time>
      </trkpt>
      <trkpt lat="47.50918" lon="6.71799">
        <ele>411.2</ele>
        <time>2017-11-01T10:09:07.000Z</time>
      </trkpt>
      <trkpt lat="47.50918" lon="6.71801">
        <ele>411.5</ele>
        <time>2017-11-01T10:09:08.000Z</time>
      </trkpt>
      <trkpt lat="47.50919" lon="6.71806">
        <ele>412.2</ele>
        <time>2017-11-01T10:09:11.000Z</time>
      </trkpt>
      <trkpt lat="47.50921" lon="6.71807">
        <ele>412.5</ele>
        <time>2017-11-01T10:09:12.000Z</time>
      </trkpt>
      <trkpt lat="47.50924" lon="6.71805">
        <ele>413.3</ele>
        <time>2017-11-01T10:09:15.000Z</time>
      </trkpt>
      <trkpt lat="47.50926" lon="6.71803">
        <ele>413.5</ele>
        <time>2017-11-01T10:09:16.000Z</time>
      </trkpt>
      <trkpt lat="47.50928" lon="6.718">
        <ele>413.6</ele>
        <time>2017-11-01T10:09:17.000Z</time>
      </trkpt>
      <trkpt lat="47.5093" lon="6.71798">
        <ele>413.7</ele>
        <time>2017-11-01T10:09:18.000Z</time>
      </trkpt>
      <trkpt lat="47.50934" lon="6.71795">
        <ele>414</ele>
        <time>2017-11-01T10:09:21.000Z</time>
      </trkpt>
      <trkpt lat="47.50934" lon="6.71795">
        <ele>414</ele>
        <time>2017-11-01T10:09:22.000Z</time>
      </trkpt>
      <trkpt lat="47.50938" lon="6.71793">
        <ele>414.3</ele>
        <time>2017-11-01T10:09:24.000Z</time>
      </trkpt>
      <trkpt lat="47.50939" lon="6.71793">
        <ele>414.4</ele>
        <time>2017-11-01T10:09:25.000Z</time>
      </trkpt>
      <trkpt lat="47.50943" lon="6.71791">
        <ele>415.1</ele>
        <time>2017-11-01T10:09:29.000Z</time>
      </trkpt>
      <trkpt lat="47.50944" lon="6.71791">
        <ele>415.3</ele>
        <time>2017-11-01T10:09:30.000Z</time>
      </trkpt>
      <trkpt lat="47.50948" lon="6.71792">
        <ele>415.9</ele>
        <time>2017-11-01T10:09:34.000Z</time>
      </trkpt>
      <trkpt lat="47.50949" lon="6.71793">
        <ele>416</ele>
        <time>2017-11-01T10:09:35.000Z</time>
      </trkpt>
      <trkpt lat="47.5095" lon="6.71798">
        <ele>416.1</ele>
        <time>2017-11-01T10:09:36.000Z</time>
      </trkpt>
      <trkpt lat="47.50951" lon="6.71801">
        <ele>416.2</ele>
        <time>2017-11-01T10:09:37.000Z</time>
      </trkpt>
      <trkpt lat="47.50951" lon="6.71806">
        <ele>416.5</ele>
        <time>2017-11-01T10:09:40.000Z</time>
      </trkpt>
      <trkpt lat="47.50952" lon="6.7181">
        <ele>416.6</ele>
        <time>2017-11-01T10:09:41.000Z</time>
      </trkpt>
      <trkpt lat="47.50952" lon="6.71816">
        <ele>416.8</ele>
        <time>2017-11-01T10:09:45.000Z</time>
      </trkpt>
      <trkpt lat="47.50953" lon="6.71818">
        <ele>416.9</ele>
        <time>2017-11-01T10:09:46.000Z</time>
      </trkpt>
      <trkpt lat="47.50953" lon="6.71822">
        <ele>416.9</ele>
        <time>2017-11-01T10:09:47.000Z</time>
      </trkpt>
      <trkpt lat="47.50954" lon="6.71825">
        <ele>416.9</ele>
        <time>2017-11-01T10:09:48.000Z</time>
      </trkpt>
      <trkpt lat="47.50955" lon="6.7183">
        <ele>416.8</ele>
        <time>2017-11-01T10:09:50.000Z</time>
      </trkpt>
      <trkpt lat="47.50956" lon="6.71833">
        <ele>416.7</ele>
        <time>2017-11-01T10:09:51.000Z</time>
      </trkpt>
      <trkpt lat="47.50956" lon="6.71836">
        <ele>416.6</ele>
        <time>2017-11-01T10:09:52.000Z</time>
      </trkpt>
      <trkpt lat="47.50957" lon="6.71841">
        <ele>416.6</ele>
        <time>2017-11-01T10:09:53.000Z</time>
      </trkpt>
      <trkpt lat="47.50958" lon="6.71846">
        <ele>416.4</ele>
        <time>2017-11-01T10:09:55.000Z</time>
      </trkpt>
      <trkpt lat="47.50958" lon="6.71847">
        <ele>416.3</ele>
        <time>2017-11-01T10:09:56.000Z</time>
      </trkpt>
      <trkpt lat="47.50956" lon="6.71852">
        <ele>416.1</ele>
        <time>2017-11-01T10:09:59.000Z</time>
      </trkpt>
      <trkpt lat="47.50956" lon="6.71856">
        <ele>416</ele>
        <time>2017-11-01T10:10:00.000Z</time>
      </trkpt>
      <trkpt lat="47.50957" lon="6.71861">
        <ele>416</ele>
        <time>2017-11-01T10:10:01.000Z</time>
      </trkpt>
      <trkpt lat="47.50957" lon="6.71865">
        <ele>415.9</ele>
        <time>2017-11-01T10:10:02.000Z</time>
      </trkpt>
      <trkpt lat="47.50956" lon="6.71871">
        <ele>415.8</ele>
        <time>2017-11-01T10:10:04.000Z</time>
      </trkpt>
      <trkpt lat="47.50956" lon="6.71874">
        <ele>415.7</ele>
        <time>2017-11-01T10:10:05.000Z</time>
      </trkpt>
      <trkpt lat="47.50957" lon="6.7188">
        <ele>415.7</ele>
        <time>2017-11-01T10:10:08.000Z</time>
      </trkpt>
      <trkpt lat="47.50958" lon="6.71884">
        <ele>415.6</ele>
        <time>2017-11-01T10:10:09.000Z</time>
      </trkpt>
      <trkpt lat="47.50958" lon="6.71887">
        <ele>415.6</ele>
        <time>2017-11-01T10:10:10.000Z</time>
      </trkpt>
      <trkpt lat="47.5096" lon="6.71891">
        <ele>415.4</ele>
        <time>2017-11-01T10:10:11.000Z</time>
      </trkpt>
      <trkpt lat="47.5096" lon="6.71896">
        <ele>415.3</ele>
        <time>2017-11-01T10:10:13.000Z</time>
      </trkpt>
      <trkpt lat="47.5096" lon="6.71898">
        <ele>415.2</ele>
        <time>2017-11-01T10:10:14.000Z</time>
      </trkpt>
      <trkpt lat="47.50961" lon="6.71902">
        <ele>415.1</ele>
        <time>2017-11-01T10:10:17.000Z</time>
      </trkpt>
      <trkpt lat="47.50962" lon="6.71906">
        <ele>415.1</ele>
        <time>2017-11-01T10:10:18.000Z</time>
      </trkpt>
      <trkpt lat="47.50962" lon="6.71909">
        <ele>415.2</ele>
        <time>2017-11-01T10:10:19.000Z</time>
      </trkpt>
      <trkpt lat="47.50962" lon="6.71913">
        <ele>415.3</ele>
        <time>2017-11-01T10:10:20.000Z</time>
      </trkpt>
      <trkpt lat="47.50962" lon="6.71918">
        <ele>415.3</ele>
        <time>2017-11-01T10:10:21.000Z</time>
      </trkpt>
      <trkpt lat="47.50962" lon="6.71921">
        <ele>415.4</ele>
        <time>2017-11-01T10:10:22.000Z</time>
      </trkpt>
      <trkpt lat="47.50962" lon="6.71925">
        <ele>415.4</ele>
        <time>2017-11-01T10:10:23.000Z</time>
      </trkpt>
      <trkpt lat="47.50963" lon="6.71929">
        <ele>415.5</ele>
        <time>2017-11-01T10:10:24.000Z</time>
      </trkpt>
      <trkpt lat="47.50964" lon="6.71933">
        <ele>415.5</ele>
        <time>2017-11-01T10:10:25.000Z</time>
      </trkpt>
      <trkpt lat="47.50966" lon="6.71935">
        <ele>415.6</ele>
        <time>2017-11-01T10:10:26.000Z</time>
      </trkpt>
      <trkpt lat="47.50968" lon="6.71938">
        <ele>415.7</ele>
        <time>2017-11-01T10:10:27.000Z</time>
      </trkpt>
      <trkpt lat="47.50969" lon="6.71943">
        <ele>415.8</ele>
        <time>2017-11-01T10:10:28.000Z</time>
      </trkpt>
      <trkpt lat="47.5097" lon="6.71948">
        <ele>416</ele>
        <time>2017-11-01T10:10:30.000Z</time>
      </trkpt>
      <trkpt lat="47.50971" lon="6.71951">
        <ele>416.1</ele>
        <time>2017-11-01T10:10:31.000Z</time>
      </trkpt>
      <trkpt lat="47.50973" lon="6.71955">
        <ele>416.6</ele>
        <time>2017-11-01T10:10:33.000Z</time>
      </trkpt>
      <trkpt lat="47.50973" lon="6.71958">
        <ele>416.6</ele>
        <time>2017-11-01T10:10:34.000Z</time>
      </trkpt>
      <trkpt lat="47.50974" lon="6.71961">
        <ele>416.7</ele>
        <time>2017-11-01T10:10:35.000Z</time>
      </trkpt>
      <trkpt lat="47.50976" lon="6.71965">
        <ele>416.8</ele>
        <time>2017-11-01T10:10:36.000Z</time>
      </trkpt>
      <trkpt lat="47.50976" lon="6.7197">
        <ele>417.2</ele>
        <time>2017-11-01T10:10:38.000Z</time>
      </trkpt>
      <trkpt lat="47.50976" lon="6.71973">
        <ele>417.3</ele>
        <time>2017-11-01T10:10:39.000Z</time>
      </trkpt>
      <trkpt lat="47.50974" lon="6.71976">
        <ele>417.5</ele>
        <time>2017-11-01T10:10:41.000Z</time>
      </trkpt>
      <trkpt lat="47.50974" lon="6.71979">
        <ele>417.6</ele>
        <time>2017-11-01T10:10:42.000Z</time>
      </trkpt>
      <trkpt lat="47.50974" lon="6.71985">
        <ele>419.6</ele>
        <time>2017-11-01T10:10:57.000Z</time>
      </trkpt>
      <trkpt lat="47.50974" lon="6.71986">
        <ele>419.6</ele>
        <time>2017-11-01T10:10:58.000Z</time>
      </trkpt>
      <trkpt lat="47.50978" lon="6.71986">
        <ele>419.9</ele>
        <time>2017-11-01T10:11:07.000Z</time>
      </trkpt>
      <trkpt lat="47.50978" lon="6.71984">
        <ele>419.8</ele>
        <time>2017-11-01T10:11:08.000Z</time>
      </trkpt>
      <trkpt lat="47.50979" lon="6.71978">
        <ele>419.8</ele>
        <time>2017-11-01T10:11:10.000Z</time>
      </trkpt>
      <trkpt lat="47.5098" lon="6.71976">
        <ele>419.8</ele>
        <time>2017-11-01T10:11:11.000Z</time>
      </trkpt>
      <trkpt lat="47.50983" lon="6.71972">
        <ele>419.1</ele>
        <time>2017-11-01T10:11:15.000Z</time>
      </trkpt>
      <trkpt lat="47.50983" lon="6.71971">
        <ele>419</ele>
        <time>2017-11-01T10:11:16.000Z</time>
      </trkpt>
      <trkpt lat="47.50981" lon="6.71976">
        <ele>419.4</ele>
        <time>2017-11-01T10:11:29.000Z</time>
      </trkpt>
      <trkpt lat="47.50979" lon="6.71979">
        <ele>419.8</ele>
        <time>2017-11-01T10:11:30.000Z</time>
      </trkpt>
      <trkpt lat="47.50977" lon="6.71984">
        <ele>420.1</ele>
        <time>2017-11-01T10:11:32.000Z</time>
      </trkpt>
      <trkpt lat="47.50976" lon="6.71987">
        <ele>420.2</ele>
        <time>2017-11-01T10:11:33.000Z</time>
      </trkpt>
      <trkpt lat="47.50975" lon="6.71991">
        <ele>420.3</ele>
        <time>2017-11-01T10:11:34.000Z</time>
      </trkpt>
      <trkpt lat="47.50973" lon="6.71996">
        <ele>420.3</ele>
        <time>2017-11-01T10:11:35.000Z</time>
      </trkpt>
      <trkpt lat="47.50972" lon="6.71999">
        <ele>420.4</ele>
        <time>2017-11-01T10:11:36.000Z</time>
      </trkpt>
      <trkpt lat="47.50971" lon="6.72003">
        <ele>420.5</ele>
        <time>2017-11-01T10:11:37.000Z</time>
      </trkpt>
      <trkpt lat="47.50969" lon="6.72008">
        <ele>420.6</ele>
        <time>2017-11-01T10:11:38.000Z</time>
      </trkpt>
      <trkpt lat="47.50968" lon="6.72014">
        <ele>420.7</ele>
        <time>2017-11-01T10:11:39.000Z</time>
      </trkpt>
      <trkpt lat="47.50966" lon="6.72019">
        <ele>420.8</ele>
        <time>2017-11-01T10:11:40.000Z</time>
      </trkpt>
      <trkpt lat="47.50965" lon="6.72023">
        <ele>420.8</ele>
        <time>2017-11-01T10:11:41.000Z</time>
      </trkpt>
      <trkpt lat="47.50963" lon="6.72028">
        <ele>420.9</ele>
        <time>2017-11-01T10:11:42.000Z</time>
      </trkpt>
      <trkpt lat="47.50961" lon="6.72033">
        <ele>420.9</ele>
        <time>2017-11-01T10:11:43.000Z</time>
      </trkpt>
      <trkpt lat="47.50958" lon="6.72039">
        <ele>420.4</ele>
        <time>2017-11-01T10:11:44.000Z</time>
      </trkpt>
      <trkpt lat="47.50955" lon="6.72045">
        <ele>419.5</ele>
        <time>2017-11-01T10:11:45.000Z</time>
      </trkpt>
      <trkpt lat="47.50952" lon="6.72051">
        <ele>417.9</ele>
        <time>2017-11-01T10:11:46.000Z</time>
      </trkpt>
      <trkpt lat="47.50948" lon="6.72059">
        <ele>416.7</ele>
        <time>2017-11-01T10:11:47.000Z</time>
      </trkpt>
      <trkpt lat="47.50945" lon="6.72068">
        <ele>416</ele>
        <time>2017-11-01T10:11:48.000Z</time>
      </trkpt>
      <trkpt lat="47.50943" lon="6.72078">
        <ele>415.1</ele>
        <time>2017-11-01T10:11:49.000Z</time>
      </trkpt>
      <trkpt lat="47.50941" lon="6.72085">
        <ele>414.1</ele>
        <time>2017-11-01T10:11:50.000Z</time>
      </trkpt>
      <trkpt lat="47.50938" lon="6.72092">
        <ele>413.2</ele>
        <time>2017-11-01T10:11:51.000Z</time>
      </trkpt>
      <trkpt lat="47.50936" lon="6.72099">
        <ele>412.5</ele>
        <time>2017-11-01T10:11:52.000Z</time>
      </trkpt>
      <trkpt lat="47.50933" lon="6.72108">
        <ele>412.1</ele>
        <time>2017-11-01T10:11:53.000Z</time>
      </trkpt>
      <trkpt lat="47.5093" lon="6.72117">
        <ele>411</ele>
        <time>2017-11-01T10:11:54.000Z</time>
      </trkpt>
      <trkpt lat="47.50927" lon="6.72123">
        <ele>411.3</ele>
        <time>2017-11-01T10:11:55.000Z</time>
      </trkpt>
      <trkpt lat="47.50925" lon="6.7213">
        <ele>410.6</ele>
        <time>2017-11-01T10:11:56.000Z</time>
      </trkpt>
      <trkpt lat="47.50921" lon="6.72138">
        <ele>409.6</ele>
        <time>2017-11-01T10:11:57.000Z</time>
      </trkpt>
      <trkpt lat="47.50918" lon="6.72146">
        <ele>410.2</ele>
        <time>2017-11-01T10:11:58.000Z</time>
      </trkpt>
      <trkpt lat="47.50914" lon="6.72152">
        <ele>410.5</ele>
        <time>2017-11-01T10:11:59.000Z</time>
      </trkpt>
      <trkpt lat="47.50911" lon="6.72158">
        <ele>410.5</ele>
        <time>2017-11-01T10:12:00.000Z</time>
      </trkpt>
      <trkpt lat="47.50908" lon="6.72163">
        <ele>410.6</ele>
        <time>2017-11-01T10:12:01.000Z</time>
      </trkpt>
      <trkpt lat="47.50905" lon="6.72169">
        <ele>410.5</ele>
        <time>2017-11-01T10:12:02.000Z</time>
      </trkpt>
      <trkpt lat="47.509" lon="6.72175">
        <ele>410.5</ele>
        <time>2017-11-01T10:12:03.000Z</time>
      </trkpt>
      <trkpt lat="47.50898" lon="6.7218">
        <ele>410.4</ele>
        <time>2017-11-01T10:12:04.000Z</time>
      </trkpt>
      <trkpt lat="47.50897" lon="6.72185">
        <ele>410.3</ele>
        <time>2017-11-01T10:12:05.000Z</time>
      </trkpt>
      <trkpt lat="47.50893" lon="6.7219">
        <ele>409.3</ele>
        <time>2017-11-01T10:12:06.000Z</time>
      </trkpt>
      <trkpt lat="47.50891" lon="6.72195">
        <ele>409.3</ele>
        <time>2017-11-01T10:12:07.000Z</time>
      </trkpt>
      <trkpt lat="47.50889" lon="6.722">
        <ele>409.3</ele>
        <time>2017-11-01T10:12:08.000Z</time>
      </trkpt>
      <trkpt lat="47.50886" lon="6.72205">
        <ele>409.2</ele>
        <time>2017-11-01T10:12:09.000Z</time>
      </trkpt>
      <trkpt lat="47.50883" lon="6.72209">
        <ele>409.1</ele>
        <time>2017-11-01T10:12:10.000Z</time>
      </trkpt>
      <trkpt lat="47.5088" lon="6.72215">
        <ele>408.9</ele>
        <time>2017-11-01T10:12:11.000Z</time>
      </trkpt>
      <trkpt lat="47.50876" lon="6.72221">
        <ele>408.9</ele>
        <time>2017-11-01T10:12:12.000Z</time>
      </trkpt>
      <trkpt lat="47.50874" lon="6.72227">
        <ele>408.7</ele>
        <time>2017-11-01T10:12:13.000Z</time>
      </trkpt>
      <trkpt lat="47.50871" lon="6.72232">
        <ele>408.5</ele>
        <time>2017-11-01T10:12:14.000Z</time>
      </trkpt>
      <trkpt lat="47.50869" lon="6.72238">
        <ele>408.4</ele>
        <time>2017-11-01T10:12:15.000Z</time>
      </trkpt>
      <trkpt lat="47.50866" lon="6.72243">
        <ele>408.2</ele>
        <time>2017-11-01T10:12:16.000Z</time>
      </trkpt>
      <trkpt lat="47.50864" lon="6.72247">
        <ele>408</ele>
        <time>2017-11-01T10:12:17.000Z</time>
      </trkpt>
      <trkpt lat="47.50861" lon="6.72251">
        <ele>407.9</ele>
        <time>2017-11-01T10:12:18.000Z</time>
      </trkpt>
      <trkpt lat="47.50858" lon="6.72256">
        <ele>407.6</ele>
        <time>2017-11-01T10:12:19.000Z</time>
      </trkpt>
      <trkpt lat="47.50855" lon="6.7226">
        <ele>407.6</ele>
        <time>2017-11-01T10:12:20.000Z</time>
      </trkpt>
      <trkpt lat="47.50853" lon="6.72264">
        <ele>407.5</ele>
        <time>2017-11-01T10:12:21.000Z</time>
      </trkpt>
      <trkpt lat="47.5085" lon="6.72269">
        <ele>407.5</ele>
        <time>2017-11-01T10:12:22.000Z</time>
      </trkpt>
      <trkpt lat="47.50848" lon="6.72273">
        <ele>407.6</ele>
        <time>2017-11-01T10:12:23.000Z</time>
      </trkpt>
      <trkpt lat="47.50847" lon="6.72275">
        <ele>407.8</ele>
        <time>2017-11-01T10:12:24.000Z</time>
      </trkpt>
      <trkpt lat="47.50843" lon="6.72275">
        <ele>408.2</ele>
        <time>2017-11-01T10:12:32.000Z</time>
      </trkpt>
      <trkpt lat="47.50842" lon="6.72273">
        <ele>408.2</ele>
        <time>2017-11-01T10:12:33.000Z</time>
      </trkpt>
      <trkpt lat="47.50837" lon="6.72274">
        <ele>407.4</ele>
        <time>2017-11-01T10:12:49.000Z</time>
      </trkpt>
      <trkpt lat="47.50837" lon="6.72274">
        <ele>407.1</ele>
        <time>2017-11-01T10:12:50.000Z</time>
      </trkpt>
      <trkpt lat="47.50834" lon="6.72273">
        <ele>405.8</ele>
        <time>2017-11-01T10:12:57.000Z</time>
      </trkpt>
      <trkpt lat="47.50833" lon="6.7227">
        <ele>405.6</ele>
        <time>2017-11-01T10:12:58.000Z</time>
      </trkpt>
      <trkpt lat="47.50829" lon="6.72267">
        <ele>405.1</ele>
        <time>2017-11-01T10:13:00.000Z</time>
      </trkpt>
      <trkpt lat="47.50828" lon="6.72266">
        <ele>404.8</ele>
        <time>2017-11-01T10:13:01.000Z</time>
      </trkpt>
      <trkpt lat="47.50824" lon="6.72263">
        <ele>404.4</ele>
        <time>2017-11-01T10:13:03.000Z</time>
      </trkpt>
      <trkpt lat="47.50821" lon="6.72262">
        <ele>404.2</ele>
        <time>2017-11-01T10:13:04.000Z</time>
      </trkpt>
      <trkpt lat="47.50817" lon="6.72263">
        <ele>403.6</ele>
        <time>2017-11-01T10:13:07.000Z</time>
      </trkpt>
      <trkpt lat="47.50816" lon="6.72264">
        <ele>403.3</ele>
        <time>2017-11-01T10:13:08.000Z</time>
      </trkpt>
      <trkpt lat="47.50814" lon="6.7227">
        <ele>402.8</ele>
        <time>2017-11-01T10:13:11.000Z</time>
      </trkpt>
      <trkpt lat="47.50814" lon="6.72271">
        <ele>402.6</ele>
        <time>2017-11-01T10:13:12.000Z</time>
      </trkpt>
      <trkpt lat="47.50814" lon="6.72277">
        <ele>402.1</ele>
        <time>2017-11-01T10:13:14.000Z</time>
      </trkpt>
      <trkpt lat="47.50814" lon="6.72279">
        <ele>402</ele>
        <time>2017-11-01T10:13:15.000Z</time>
      </trkpt>
      <trkpt lat="47.50814" lon="6.72283">
        <ele>401.9</ele>
        <time>2017-11-01T10:13:16.000Z</time>
      </trkpt>
      <trkpt lat="47.50814" lon="6.72286">
        <ele>401.8</ele>
        <time>2017-11-01T10:13:17.000Z</time>
      </trkpt>
      <trkpt lat="47.50813" lon="6.72288">
        <ele>401.7</ele>
        <time>2017-11-01T10:13:18.000Z</time>
      </trkpt>
      <trkpt lat="47.50813" lon="6.72293">
        <ele>401.6</ele>
        <time>2017-11-01T10:13:19.000Z</time>
      </trkpt>
      <trkpt lat="47.50812" lon="6.72296">
        <ele>401.5</ele>
        <time>2017-11-01T10:13:20.000Z</time>
      </trkpt>
      <trkpt lat="47.50813" lon="6.723">
        <ele>401.3</ele>
        <time>2017-11-01T10:13:21.000Z</time>
      </trkpt>
      <trkpt lat="47.50813" lon="6.72305">
        <ele>401</ele>
        <time>2017-11-01T10:13:22.000Z</time>
      </trkpt>
      <trkpt lat="47.50812" lon="6.72308">
        <ele>400.8</ele>
        <time>2017-11-01T10:13:23.000Z</time>
      </trkpt>
      <trkpt lat="47.50813" lon="6.72315">
        <ele>400.3</ele>
        <time>2017-11-01T10:13:25.000Z</time>
      </trkpt>
      <trkpt lat="47.50813" lon="6.72317">
        <ele>400.1</ele>
        <time>2017-11-01T10:13:26.000Z</time>
      </trkpt>
      <trkpt lat="47.50813" lon="6.72321">
        <ele>399.9</ele>
        <time>2017-11-01T10:13:27.000Z</time>
      </trkpt>
      <trkpt lat="47.50812" lon="6.72326">
        <ele>399.7</ele>
        <time>2017-11-01T10:13:28.000Z</time>
      </trkpt>
      <trkpt lat="47.50812" lon="6.7233">
        <ele>399.5</ele>
        <time>2017-11-01T10:13:29.000Z</time>
      </trkpt>
      <trkpt lat="47.50812" lon="6.72333">
        <ele>399.3</ele>
        <time>2017-11-01T10:13:30.000Z</time>
      </trkpt>
      <trkpt lat="47.50812" lon="6.72338">
        <ele>399</ele>
        <time>2017-11-01T10:13:32.000Z</time>
      </trkpt>
      <trkpt lat="47.50812" lon="6.72341">
        <ele>398.9</ele>
        <time>2017-11-01T10:13:33.000Z</time>
      </trkpt>
      <trkpt lat="47.5081" lon="6.72347">
        <ele>397.8</ele>
        <time>2017-11-01T10:13:41.000Z</time>
      </trkpt>
      <trkpt lat="47.5081" lon="6.72348">
        <ele>397.8</ele>
        <time>2017-11-01T10:13:42.000Z</time>
      </trkpt>
      <trkpt lat="47.5081" lon="6.72355">
        <ele>397.4</ele>
        <time>2017-11-01T10:13:46.000Z</time>
      </trkpt>
      <trkpt lat="47.50809" lon="6.72357">
        <ele>397.3</ele>
        <time>2017-11-01T10:13:47.000Z</time>
      </trkpt>
      <trkpt lat="47.50809" lon="6.72362">
        <ele>397.2</ele>
        <time>2017-11-01T10:13:48.000Z</time>
      </trkpt>
      <trkpt lat="47.50809" lon="6.72365">
        <ele>397.2</ele>
        <time>2017-11-01T10:13:49.000Z</time>
      </trkpt>
      <trkpt lat="47.50811" lon="6.7237">
        <ele>397.2</ele>
        <time>2017-11-01T10:13:55.000Z</time>
      </trkpt>
      <trkpt lat="47.50813" lon="6.72371">
        <ele>397.3</ele>
        <time>2017-11-01T10:13:56.000Z</time>
      </trkpt>
      <trkpt lat="47.50815" lon="6.72373">
        <ele>397.4</ele>
        <time>2017-11-01T10:13:57.000Z</time>
      </trkpt>
      <trkpt lat="47.50816" lon="6.72375">
        <ele>397.3</ele>
        <time>2017-11-01T10:13:58.000Z</time>
      </trkpt>
      <trkpt lat="47.5082" lon="6.72378">
        <ele>397.2</ele>
        <time>2017-11-01T10:14:01.000Z</time>
      </trkpt>
      <trkpt lat="47.5082" lon="6.7238">
        <ele>397.1</ele>
        <time>2017-11-01T10:14:02.000Z</time>
      </trkpt>
      <trkpt lat="47.50822" lon="6.72385">
        <ele>396.6</ele>
        <time>2017-11-01T10:14:05.000Z</time>
      </trkpt>
      <trkpt lat="47.50823" lon="6.72385">
        <ele>396.4</ele>
        <time>2017-11-01T10:14:06.000Z</time>
      </trkpt>
      <trkpt lat="47.50825" lon="6.72383">
        <ele>397.2</ele>
        <time>2017-11-01T10:14:11.000Z</time>
      </trkpt>
      <trkpt lat="47.50827" lon="6.72381">
        <ele>397.7</ele>
        <time>2017-11-01T10:14:12.000Z</time>
      </trkpt>
      <trkpt lat="47.50828" lon="6.7238">
        <ele>398.1</ele>
        <time>2017-11-01T10:14:13.000Z</time>
      </trkpt>
      <trkpt lat="47.50832" lon="6.72377">
        <ele>398.5</ele>
        <time>2017-11-01T10:14:14.000Z</time>
      </trkpt>
      <trkpt lat="47.5083" lon="6.72374">
        <ele>401</ele>
        <time>2017-11-01T10:14:25.000Z</time>
      </trkpt>
      <trkpt lat="47.5083" lon="6.7237">
        <ele>401.6</ele>
        <time>2017-11-01T10:14:26.000Z</time>
      </trkpt>
      <trkpt lat="47.5083" lon="6.72365">
        <ele>402.1</ele>
        <time>2017-11-01T10:14:27.000Z</time>
      </trkpt>
      <trkpt lat="47.5083" lon="6.72361">
        <ele>402.6</ele>
        <time>2017-11-01T10:14:28.000Z</time>
      </trkpt>
      <trkpt lat="47.5083" lon="6.72355">
        <ele>403.1</ele>
        <time>2017-11-01T10:14:29.000Z</time>
      </trkpt>
      <trkpt lat="47.50831" lon="6.7235">
        <ele>403.7</ele>
        <time>2017-11-01T10:14:30.000Z</time>
      </trkpt>
      <trkpt lat="47.50832" lon="6.72346">
        <ele>404.3</ele>
        <time>2017-11-01T10:14:31.000Z</time>
      </trkpt>
      <trkpt lat="47.50832" lon="6.72342">
        <ele>404.8</ele>
        <time>2017-11-01T10:14:32.000Z</time>
      </trkpt>
      <trkpt lat="47.50831" lon="6.72336">
        <ele>405.9</ele>
        <time>2017-11-01T10:14:37.000Z</time>
      </trkpt>
      <trkpt lat="47.5083" lon="6.72335">
        <ele>406.3</ele>
        <time>2017-11-01T10:14:38.000Z</time>
      </trkpt>
      <trkpt lat="47.50828" lon="6.72331">
        <ele>406.8</ele>
        <time>2017-11-01T10:14:40.000Z</time>
      </trkpt>
      <trkpt lat="47.50827" lon="6.7233">
        <ele>407</ele>
        <time>2017-11-01T10:14:41.000Z</time>
      </trkpt>
      <trkpt lat="47.50828" lon="6.72325">
        <ele>407.2</ele>
        <time>2017-11-01T10:14:43.000Z</time>
      </trkpt>
      <trkpt lat="47.50828" lon="6.72322">
        <ele>407.4</ele>
        <time>2017-11-01T10:14:44.000Z</time>
      </trkpt>
      <trkpt lat="47.50827" lon="6.72319">
        <ele>407.4</ele>
        <time>2017-11-01T10:14:45.000Z</time>
      </trkpt>
      <trkpt lat="47.50827" lon="6.72316">
        <ele>407.5</ele>
        <time>2017-11-01T10:14:46.000Z</time>
      </trkpt>
      <trkpt lat="47.50826" lon="6.72311">
        <ele>407.6</ele>
        <time>2017-11-01T10:14:47.000Z</time>
      </trkpt>
      <trkpt lat="47.50826" lon="6.72307">
        <ele>407.7</ele>
        <time>2017-11-01T10:14:48.000Z</time>
      </trkpt>
      <trkpt lat="47.50826" lon="6.72301">
        <ele>407.8</ele>
        <time>2017-11-01T10:14:49.000Z</time>
      </trkpt>
      <trkpt lat="47.50825" lon="6.72297">
        <ele>408</ele>
        <time>2017-11-01T10:14:50.000Z</time>
      </trkpt>
      <trkpt lat="47.50823" lon="6.72293">
        <ele>408.1</ele>
        <time>2017-11-01T10:14:51.000Z</time>
      </trkpt>
      <trkpt lat="47.50821" lon="6.72288">
        <ele>408.2</ele>
        <time>2017-11-01T10:14:52.000Z</time>
      </trkpt>
      <trkpt lat="47.50818" lon="6.72283">
        <ele>408.3</ele>
        <time>2017-11-01T10:14:53.000Z</time>
      </trkpt>
      <trkpt lat="47.50815" lon="6.72279">
        <ele>408.4</ele>
        <time>2017-11-01T10:14:54.000Z</time>
      </trkpt>
      <trkpt lat="47.50813" lon="6.72276">
        <ele>408.5</ele>
        <time>2017-11-01T10:14:55.000Z</time>
      </trkpt>
      <trkpt lat="47.50811" lon="6.72273">
        <ele>408.5</ele>
        <time>2017-11-01T10:14:56.000Z</time>
      </trkpt>
      <trkpt lat="47.5081" lon="6.72269">
        <ele>408.7</ele>
        <time>2017-11-01T10:14:57.000Z</time>
      </trkpt>
      <trkpt lat="47.50808" lon="6.72265">
        <ele>408.8</ele>
        <time>2017-11-01T10:14:58.000Z</time>
      </trkpt>
      <trkpt lat="47.50807" lon="6.7226">
        <ele>408.9</ele>
        <time>2017-11-01T10:14:59.000Z</time>
      </trkpt>
      <trkpt lat="47.50805" lon="6.72256">
        <ele>409.1</ele>
        <time>2017-11-01T10:15:00.000Z</time>
      </trkpt>
      <trkpt lat="47.50803" lon="6.72252">
        <ele>409.3</ele>
        <time>2017-11-01T10:15:01.000Z</time>
      </trkpt>
      <trkpt lat="47.50801" lon="6.72248">
        <ele>409.4</ele>
        <time>2017-11-01T10:15:02.000Z</time>
      </trkpt>
      <trkpt lat="47.50798" lon="6.72244">
        <ele>409.4</ele>
        <time>2017-11-01T10:15:03.000Z</time>
      </trkpt>
      <trkpt lat="47.50796" lon="6.72243">
        <ele>409.4</ele>
        <time>2017-11-01T10:15:04.000Z</time>
      </trkpt>
      <trkpt lat="47.50791" lon="6.72243">
        <ele>409.4</ele>
        <time>2017-11-01T10:15:06.000Z</time>
      </trkpt>
      <trkpt lat="47.50789" lon="6.72243">
        <ele>409.4</ele>
        <time>2017-11-01T10:15:07.000Z</time>
      </trkpt>
      <trkpt lat="47.50786" lon="6.72243">
        <ele>409.4</ele>
        <time>2017-11-01T10:15:08.000Z</time>
      </trkpt>
      <trkpt lat="47.50784" lon="6.72242">
        <ele>409.4</ele>
        <time>2017-11-01T10:15:09.000Z</time>
      </trkpt>
      <trkpt lat="47.50781" lon="6.72241">
        <ele>409.4</ele>
        <time>2017-11-01T10:15:10.000Z</time>
      </trkpt>
      <trkpt lat="47.50779" lon="6.72239">
        <ele>409.4</ele>
        <time>2017-11-01T10:15:11.000Z</time>
      </trkpt>
      <trkpt lat="47.50776" lon="6.72239">
        <ele>409.4</ele>
        <time>2017-11-01T10:15:12.000Z</time>
      </trkpt>
      <trkpt lat="47.50773" lon="6.72237">
        <ele>409.4</ele>
        <time>2017-11-01T10:15:13.000Z</time>
      </trkpt>
      <trkpt lat="47.5077" lon="6.72235">
        <ele>409.3</ele>
        <time>2017-11-01T10:15:14.000Z</time>
      </trkpt>
      <trkpt lat="47.50767" lon="6.72233">
        <ele>409.2</ele>
        <time>2017-11-01T10:15:15.000Z</time>
      </trkpt>
      <trkpt lat="47.50764" lon="6.72231">
        <ele>408.1</ele>
        <time>2017-11-01T10:15:16.000Z</time>
      </trkpt>
      <trkpt lat="47.5076" lon="6.7223">
        <ele>407.3</ele>
        <time>2017-11-01T10:15:17.000Z</time>
      </trkpt>
      <trkpt lat="47.50756" lon="6.72228">
        <ele>406.3</ele>
        <time>2017-11-01T10:15:18.000Z</time>
      </trkpt>
      <trkpt lat="47.50752" lon="6.72226">
        <ele>405.4</ele>
        <time>2017-11-01T10:15:19.000Z</time>
      </trkpt>
      <trkpt lat="47.50747" lon="6.72224">
        <ele>404.7</ele>
        <time>2017-11-01T10:15:20.000Z</time>
      </trkpt>
      <trkpt lat="47.50743" lon="6.72221">
        <ele>404.7</ele>
        <time>2017-11-01T10:15:21.000Z</time>
      </trkpt>
      <trkpt lat="47.5074" lon="6.72219">
        <ele>404.9</ele>
        <time>2017-11-01T10:15:22.000Z</time>
      </trkpt>
      <trkpt lat="47.50736" lon="6.72216">
        <ele>405</ele>
        <time>2017-11-01T10:15:23.000Z</time>
      </trkpt>
      <trkpt lat="47.50733" lon="6.72215">
        <ele>405</ele>
        <time>2017-11-01T10:15:24.000Z</time>
      </trkpt>
      <trkpt lat="47.50729" lon="6.72213">
        <ele>405.1</ele>
        <time>2017-11-01T10:15:25.000Z</time>
      </trkpt>
      <trkpt lat="47.50725" lon="6.72211">
        <ele>404.9</ele>
        <time>2017-11-01T10:15:26.000Z</time>
      </trkpt>
      <trkpt lat="47.50722" lon="6.72209">
        <ele>404.9</ele>
        <time>2017-11-01T10:15:27.000Z</time>
      </trkpt>
      <trkpt lat="47.50718" lon="6.72207">
        <ele>404.9</ele>
        <time>2017-11-01T10:15:28.000Z</time>
      </trkpt>
      <trkpt lat="47.50715" lon="6.72208">
        <ele>404.8</ele>
        <time>2017-11-01T10:15:29.000Z</time>
      </trkpt>
      <trkpt lat="47.5071" lon="6.72211">
        <ele>404.8</ele>
        <time>2017-11-01T10:15:30.000Z</time>
      </trkpt>
      <trkpt lat="47.50709" lon="6.72215">
        <ele>404.7</ele>
        <time>2017-11-01T10:15:31.000Z</time>
      </trkpt>
      <trkpt lat="47.50707" lon="6.72221">
        <ele>404.6</ele>
        <time>2017-11-01T10:15:32.000Z</time>
      </trkpt>
      <trkpt lat="47.50707" lon="6.72224">
        <ele>404.4</ele>
        <time>2017-11-01T10:15:33.000Z</time>
      </trkpt>
      <trkpt lat="47.50705" lon="6.72231">
        <ele>404.3</ele>
        <time>2017-11-01T10:15:34.000Z</time>
      </trkpt>
      <trkpt lat="47.50703" lon="6.72236">
        <ele>404.2</ele>
        <time>2017-11-01T10:15:35.000Z</time>
      </trkpt>
      <trkpt lat="47.50703" lon="6.72242">
        <ele>404</ele>
        <time>2017-11-01T10:15:36.000Z</time>
      </trkpt>
      <trkpt lat="47.50702" lon="6.72246">
        <ele>403.7</ele>
        <time>2017-11-01T10:15:37.000Z</time>
      </trkpt>
      <trkpt lat="47.50701" lon="6.72249">
        <ele>403.5</ele>
        <time>2017-11-01T10:15:38.000Z</time>
      </trkpt>
      <trkpt lat="47.50701" lon="6.72252">
        <ele>403.3</ele>
        <time>2017-11-01T10:15:39.000Z</time>
      </trkpt>
      <trkpt lat="47.507" lon="6.72256">
        <ele>403</ele>
        <time>2017-11-01T10:15:40.000Z</time>
      </trkpt>
      <trkpt lat="47.50698" lon="6.72259">
        <ele>402.8</ele>
        <time>2017-11-01T10:15:41.000Z</time>
      </trkpt>
      <trkpt lat="47.50696" lon="6.72263">
        <ele>402.6</ele>
        <time>2017-11-01T10:15:42.000Z</time>
      </trkpt>
      <trkpt lat="47.50694" lon="6.72266">
        <ele>402.3</ele>
        <time>2017-11-01T10:15:43.000Z</time>
      </trkpt>
      <trkpt lat="47.50692" lon="6.72273">
        <ele>402</ele>
        <time>2017-11-01T10:15:44.000Z</time>
      </trkpt>
      <trkpt lat="47.5069" lon="6.7228">
        <ele>401.7</ele>
        <time>2017-11-01T10:15:45.000Z</time>
      </trkpt>
      <trkpt lat="47.50688" lon="6.72288">
        <ele>401.4</ele>
        <time>2017-11-01T10:15:46.000Z</time>
      </trkpt>
      <trkpt lat="47.50684" lon="6.72294">
        <ele>398.1</ele>
        <time>2017-11-01T10:15:47.000Z</time>
      </trkpt>
      <trkpt lat="47.50682" lon="6.72299">
        <ele>395.5</ele>
        <time>2017-11-01T10:15:48.000Z</time>
      </trkpt>
      <trkpt lat="47.50679" lon="6.72306">
        <ele>395.2</ele>
        <time>2017-11-01T10:15:49.000Z</time>
      </trkpt>
      <trkpt lat="47.50677" lon="6.72311">
        <ele>393</ele>
        <time>2017-11-01T10:15:50.000Z</time>
      </trkpt>
      <trkpt lat="47.50675" lon="6.72316">
        <ele>390.8</ele>
        <time>2017-11-01T10:15:51.000Z</time>
      </trkpt>
      <trkpt lat="47.50673" lon="6.7232">
        <ele>390.7</ele>
        <time>2017-11-01T10:15:52.000Z</time>
      </trkpt>
      <trkpt lat="47.50671" lon="6.72326">
        <ele>389.6</ele>
        <time>2017-11-01T10:15:53.000Z</time>
      </trkpt>
      <trkpt lat="47.50669" lon="6.72331">
        <ele>388.4</ele>
        <time>2017-11-01T10:15:54.000Z</time>
      </trkpt>
      <trkpt lat="47.50666" lon="6.72336">
        <ele>388.3</ele>
        <time>2017-11-01T10:15:55.000Z</time>
      </trkpt>
      <trkpt lat="47.50662" lon="6.72342">
        <ele>388.3</ele>
        <time>2017-11-01T10:15:56.000Z</time>
      </trkpt>
      <trkpt lat="47.5066" lon="6.72346">
        <ele>388.2</ele>
        <time>2017-11-01T10:15:57.000Z</time>
      </trkpt>
      <trkpt lat="47.50658" lon="6.72349">
        <ele>388.2</ele>
        <time>2017-11-01T10:15:58.000Z</time>
      </trkpt>
      <trkpt lat="47.50656" lon="6.72353">
        <ele>388.2</ele>
        <time>2017-11-01T10:15:59.000Z</time>
      </trkpt>
      <trkpt lat="47.50655" lon="6.72358">
        <ele>388.2</ele>
        <time>2017-11-01T10:16:00.000Z</time>
      </trkpt>
      <trkpt lat="47.50654" lon="6.72362">
        <ele>388.1</ele>
        <time>2017-11-01T10:16:01.000Z</time>
      </trkpt>
      <trkpt lat="47.50652" lon="6.72367">
        <ele>388</ele>
        <time>2017-11-01T10:16:02.000Z</time>
      </trkpt>
      <trkpt lat="47.50649" lon="6.72373">
        <ele>387.9</ele>
        <time>2017-11-01T10:16:03.000Z</time>
      </trkpt>
      <trkpt lat="47.50647" lon="6.72377">
        <ele>388</ele>
        <time>2017-11-01T10:16:04.000Z</time>
      </trkpt>
      <trkpt lat="47.50645" lon="6.72381">
        <ele>388</ele>
        <time>2017-11-01T10:16:05.000Z</time>
      </trkpt>
      <trkpt lat="47.50644" lon="6.72386">
        <ele>387.9</ele>
        <time>2017-11-01T10:16:06.000Z</time>
      </trkpt>
      <trkpt lat="47.50643" lon="6.72393">
        <ele>387.9</ele>
        <time>2017-11-01T10:16:07.000Z</time>
      </trkpt>
      <trkpt lat="47.50641" lon="6.72396">
        <ele>387.9</ele>
        <time>2017-11-01T10:16:08.000Z</time>
      </trkpt>
      <trkpt lat="47.5064" lon="6.724">
        <ele>387.9</ele>
        <time>2017-11-01T10:16:09.000Z</time>
      </trkpt>
      <trkpt lat="47.50638" lon="6.72404">
        <ele>387.9</ele>
        <time>2017-11-01T10:16:10.000Z</time>
      </trkpt>
      <trkpt lat="47.50636" lon="6.72407">
        <ele>387.9</ele>
        <time>2017-11-01T10:16:11.000Z</time>
      </trkpt>
      <trkpt lat="47.50634" lon="6.7241">
        <ele>387.9</ele>
        <time>2017-11-01T10:16:12.000Z</time>
      </trkpt>
      <trkpt lat="47.50633" lon="6.72413">
        <ele>387.9</ele>
        <time>2017-11-01T10:16:13.000Z</time>
      </trkpt>
      <trkpt lat="47.50629" lon="6.72417">
        <ele>388</ele>
        <time>2017-11-01T10:16:15.000Z</time>
      </trkpt>
      <trkpt lat="47.50627" lon="6.72419">
        <ele>388</ele>
        <time>2017-11-01T10:16:16.000Z</time>
      </trkpt>
      <trkpt lat="47.50625" lon="6.72422">
        <ele>388</ele>
        <time>2017-11-01T10:16:17.000Z</time>
      </trkpt>
      <trkpt lat="47.50623" lon="6.72427">
        <ele>387.9</ele>
        <time>2017-11-01T10:16:18.000Z</time>
      </trkpt>
      <trkpt lat="47.50621" lon="6.72431">
        <ele>387.8</ele>
        <time>2017-11-01T10:16:19.000Z</time>
      </trkpt>
      <trkpt lat="47.50618" lon="6.72435">
        <ele>387.7</ele>
        <time>2017-11-01T10:16:20.000Z</time>
      </trkpt>
      <trkpt lat="47.50616" lon="6.72439">
        <ele>387.7</ele>
        <time>2017-11-01T10:16:21.000Z</time>
      </trkpt>
      <trkpt lat="47.50614" lon="6.72443">
        <ele>387.6</ele>
        <time>2017-11-01T10:16:22.000Z</time>
      </trkpt>
      <trkpt lat="47.50612" lon="6.72448">
        <ele>387.6</ele>
        <time>2017-11-01T10:16:23.000Z</time>
      </trkpt>
      <trkpt lat="47.5061" lon="6.72455">
        <ele>387.6</ele>
        <time>2017-11-01T10:16:24.000Z</time>
      </trkpt>
      <trkpt lat="47.50607" lon="6.72462">
        <ele>387.6</ele>
        <time>2017-11-01T10:16:25.000Z</time>
      </trkpt>
      <trkpt lat="47.50605" lon="6.72467">
        <ele>387.7</ele>
        <time>2017-11-01T10:16:26.000Z</time>
      </trkpt>
      <trkpt lat="47.50604" lon="6.72472">
        <ele>387.8</ele>
        <time>2017-11-01T10:16:27.000Z</time>
      </trkpt>
      <trkpt lat="47.50602" lon="6.72476">
        <ele>387.9</ele>
        <time>2017-11-01T10:16:28.000Z</time>
      </trkpt>
      <trkpt lat="47.50601" lon="6.72479">
        <ele>387.9</ele>
        <time>2017-11-01T10:16:29.000Z</time>
      </trkpt>
      <trkpt lat="47.50599" lon="6.72483">
        <ele>388</ele>
        <time>2017-11-01T10:16:30.000Z</time>
      </trkpt>
      <trkpt lat="47.50598" lon="6.72486">
        <ele>388</ele>
        <time>2017-11-01T10:16:31.000Z</time>
      </trkpt>
      <trkpt lat="47.50596" lon="6.7249">
        <ele>388.1</ele>
        <time>2017-11-01T10:16:32.000Z</time>
      </trkpt>
      <trkpt lat="47.50595" lon="6.72495">
        <ele>388.2</ele>
        <time>2017-11-01T10:16:33.000Z</time>
      </trkpt>
      <trkpt lat="47.50593" lon="6.72499">
        <ele>388.4</ele>
        <time>2017-11-01T10:16:34.000Z</time>
      </trkpt>
      <trkpt lat="47.50592" lon="6.72502">
        <ele>388.5</ele>
        <time>2017-11-01T10:16:35.000Z</time>
      </trkpt>
      <trkpt lat="47.50591" lon="6.72506">
        <ele>388.6</ele>
        <time>2017-11-01T10:16:36.000Z</time>
      </trkpt>
      <trkpt lat="47.50589" lon="6.7251">
        <ele>388.7</ele>
        <time>2017-11-01T10:16:37.000Z</time>
      </trkpt>
      <trkpt lat="47.50588" lon="6.72513">
        <ele>388.9</ele>
        <time>2017-11-01T10:16:38.000Z</time>
      </trkpt>
      <trkpt lat="47.50586" lon="6.72517">
        <ele>388.9</ele>
        <time>2017-11-01T10:16:39.000Z</time>
      </trkpt>
      <trkpt lat="47.50584" lon="6.72521">
        <ele>389</ele>
        <time>2017-11-01T10:16:40.000Z</time>
      </trkpt>
      <trkpt lat="47.50582" lon="6.72526">
        <ele>389.1</ele>
        <time>2017-11-01T10:16:41.000Z</time>
      </trkpt>
      <trkpt lat="47.5058" lon="6.7253">
        <ele>389.2</ele>
        <time>2017-11-01T10:16:42.000Z</time>
      </trkpt>
      <trkpt lat="47.50578" lon="6.72534">
        <ele>389.3</ele>
        <time>2017-11-01T10:16:43.000Z</time>
      </trkpt>
      <trkpt lat="47.50576" lon="6.72538">
        <ele>389.5</ele>
        <time>2017-11-01T10:16:44.000Z</time>
      </trkpt>
      <trkpt lat="47.50575" lon="6.72541">
        <ele>389.5</ele>
        <time>2017-11-01T10:16:45.000Z</time>
      </trkpt>
      <trkpt lat="47.50573" lon="6.72545">
        <ele>389.6</ele>
        <time>2017-11-01T10:16:46.000Z</time>
      </trkpt>
      <trkpt lat="47.50572" lon="6.72548">
        <ele>389.7</ele>
        <time>2017-11-01T10:16:47.000Z</time>
      </trkpt>
      <trkpt lat="47.5057" lon="6.72552">
        <ele>389.8</ele>
        <time>2017-11-01T10:16:48.000Z</time>
      </trkpt>
      <trkpt lat="47.50568" lon="6.72557">
        <ele>389.9</ele>
        <time>2017-11-01T10:16:49.000Z</time>
      </trkpt>
      <trkpt lat="47.50566" lon="6.72561">
        <ele>390</ele>
        <time>2017-11-01T10:16:50.000Z</time>
      </trkpt>
      <trkpt lat="47.50564" lon="6.72565">
        <ele>390.2</ele>
        <time>2017-11-01T10:16:51.000Z</time>
      </trkpt>
      <trkpt lat="47.50563" lon="6.7257">
        <ele>390.3</ele>
        <time>2017-11-01T10:16:52.000Z</time>
      </trkpt>
      <trkpt lat="47.5056" lon="6.72575">
        <ele>390.4</ele>
        <time>2017-11-01T10:16:53.000Z</time>
      </trkpt>
      <trkpt lat="47.50558" lon="6.72581">
        <ele>390.5</ele>
        <time>2017-11-01T10:16:54.000Z</time>
      </trkpt>
      <trkpt lat="47.50556" lon="6.72584">
        <ele>390.6</ele>
        <time>2017-11-01T10:16:55.000Z</time>
      </trkpt>
      <trkpt lat="47.50554" lon="6.72588">
        <ele>390.7</ele>
        <time>2017-11-01T10:16:56.000Z</time>
      </trkpt>
      <trkpt lat="47.50553" lon="6.72592">
        <ele>390.8</ele>
        <time>2017-11-01T10:16:57.000Z</time>
      </trkpt>
      <trkpt lat="47.50551" lon="6.72597">
        <ele>390.9</ele>
        <time>2017-11-01T10:16:58.000Z</time>
      </trkpt>
      <trkpt lat="47.50549" lon="6.72601">
        <ele>391</ele>
        <time>2017-11-01T10:16:59.000Z</time>
      </trkpt>
      <trkpt lat="47.50547" lon="6.72607">
        <ele>391.1</ele>
        <time>2017-11-01T10:17:00.000Z</time>
      </trkpt>
      <trkpt lat="47.50546" lon="6.72611">
        <ele>391.2</ele>
        <time>2017-11-01T10:17:01.000Z</time>
      </trkpt>
      <trkpt lat="47.50545" lon="6.72615">
        <ele>391.3</ele>
        <time>2017-11-01T10:17:02.000Z</time>
      </trkpt>
      <trkpt lat="47.50543" lon="6.72621">
        <ele>391.4</ele>
        <time>2017-11-01T10:17:03.000Z</time>
      </trkpt>
      <trkpt lat="47.50542" lon="6.72625">
        <ele>391.4</ele>
        <time>2017-11-01T10:17:04.000Z</time>
      </trkpt>
      <trkpt lat="47.5054" lon="6.72629">
        <ele>391.5</ele>
        <time>2017-11-01T10:17:05.000Z</time>
      </trkpt>
      <trkpt lat="47.50539" lon="6.72634">
        <ele>391.5</ele>
        <time>2017-11-01T10:17:06.000Z</time>
      </trkpt>
      <trkpt lat="47.50538" lon="6.72639">
        <ele>391.6</ele>
        <time>2017-11-01T10:17:07.000Z</time>
      </trkpt>
      <trkpt lat="47.50537" lon="6.72643">
        <ele>391.7</ele>
        <time>2017-11-01T10:17:08.000Z</time>
      </trkpt>
      <trkpt lat="47.50536" lon="6.72647">
        <ele>391.7</ele>
        <time>2017-11-01T10:17:09.000Z</time>
      </trkpt>
      <trkpt lat="47.50535" lon="6.72651">
        <ele>391.8</ele>
        <time>2017-11-01T10:17:10.000Z</time>
      </trkpt>
      <trkpt lat="47.50535" lon="6.72656">
        <ele>391.9</ele>
        <time>2017-11-01T10:17:11.000Z</time>
      </trkpt>
      <trkpt lat="47.50534" lon="6.7266">
        <ele>392</ele>
        <time>2017-11-01T10:17:12.000Z</time>
      </trkpt>
      <trkpt lat="47.50533" lon="6.72665">
        <ele>392.1</ele>
        <time>2017-11-01T10:17:13.000Z</time>
      </trkpt>
      <trkpt lat="47.50533" lon="6.7267">
        <ele>392.1</ele>
        <time>2017-11-01T10:17:14.000Z</time>
      </trkpt>
      <trkpt lat="47.50532" lon="6.72675">
        <ele>392.2</ele>
        <time>2017-11-01T10:17:15.000Z</time>
      </trkpt>
      <trkpt lat="47.50531" lon="6.7268">
        <ele>392.3</ele>
        <time>2017-11-01T10:17:17.000Z</time>
      </trkpt>
      <trkpt lat="47.5053" lon="6.72684">
        <ele>392.3</ele>
        <time>2017-11-01T10:17:18.000Z</time>
      </trkpt>
      <trkpt lat="47.5053" lon="6.72688">
        <ele>392.4</ele>
        <time>2017-11-01T10:17:19.000Z</time>
      </trkpt>
      <trkpt lat="47.50529" lon="6.72692">
        <ele>392.5</ele>
        <time>2017-11-01T10:17:20.000Z</time>
      </trkpt>
      <trkpt lat="47.50529" lon="6.72697">
        <ele>392.6</ele>
        <time>2017-11-01T10:17:21.000Z</time>
      </trkpt>
      <trkpt lat="47.50529" lon="6.72701">
        <ele>392.7</ele>
        <time>2017-11-01T10:17:22.000Z</time>
      </trkpt>
      <trkpt lat="47.50529" lon="6.72706">
        <ele>392.8</ele>
        <time>2017-11-01T10:17:23.000Z</time>
      </trkpt>
      <trkpt lat="47.50529" lon="6.72709">
        <ele>392.9</ele>
        <time>2017-11-01T10:17:24.000Z</time>
      </trkpt>
      <trkpt lat="47.5053" lon="6.72713">
        <ele>393</ele>
        <time>2017-11-01T10:17:25.000Z</time>
      </trkpt>
      <trkpt lat="47.50529" lon="6.72717">
        <ele>393.1</ele>
        <time>2017-11-01T10:17:26.000Z</time>
      </trkpt>
      <trkpt lat="47.50528" lon="6.72721">
        <ele>393</ele>
        <time>2017-11-01T10:17:27.000Z</time>
      </trkpt>
      <trkpt lat="47.50529" lon="6.72726">
        <ele>393</ele>
        <time>2017-11-01T10:17:28.000Z</time>
      </trkpt>
      <trkpt lat="47.50529" lon="6.7273">
        <ele>393</ele>
        <time>2017-11-01T10:17:29.000Z</time>
      </trkpt>
      <trkpt lat="47.50529" lon="6.72733">
        <ele>392.9</ele>
        <time>2017-11-01T10:17:30.000Z</time>
      </trkpt>
      <trkpt lat="47.50529" lon="6.72736">
        <ele>392.9</ele>
        <time>2017-11-01T10:17:31.000Z</time>
      </trkpt>
      <trkpt lat="47.50528" lon="6.72742">
        <ele>392.9</ele>
        <time>2017-11-01T10:17:32.000Z</time>
      </trkpt>
      <trkpt lat="47.50529" lon="6.72746">
        <ele>392.8</ele>
        <time>2017-11-01T10:17:33.000Z</time>
      </trkpt>
      <trkpt lat="47.5053" lon="6.72751">
        <ele>392.8</ele>
        <time>2017-11-01T10:17:34.000Z</time>
      </trkpt>
      <trkpt lat="47.5053" lon="6.72755">
        <ele>392.7</ele>
        <time>2017-11-01T10:17:35.000Z</time>
      </trkpt>
      <trkpt lat="47.50531" lon="6.72758">
        <ele>392.6</ele>
        <time>2017-11-01T10:17:36.000Z</time>
      </trkpt>
      <trkpt lat="47.50531" lon="6.72762">
        <ele>392.6</ele>
        <time>2017-11-01T10:17:37.000Z</time>
      </trkpt>
      <trkpt lat="47.50531" lon="6.72767">
        <ele>392.5</ele>
        <time>2017-11-01T10:17:38.000Z</time>
      </trkpt>
      <trkpt lat="47.50531" lon="6.72771">
        <ele>392.4</ele>
        <time>2017-11-01T10:17:39.000Z</time>
      </trkpt>
      <trkpt lat="47.50531" lon="6.72775">
        <ele>392.4</ele>
        <time>2017-11-01T10:17:40.000Z</time>
      </trkpt>
      <trkpt lat="47.50531" lon="6.7278">
        <ele>392.3</ele>
        <time>2017-11-01T10:17:41.000Z</time>
      </trkpt>
      <trkpt lat="47.50531" lon="6.72784">
        <ele>392.3</ele>
        <time>2017-11-01T10:17:42.000Z</time>
      </trkpt>
      <trkpt lat="47.50531" lon="6.7279">
        <ele>392.3</ele>
        <time>2017-11-01T10:17:43.000Z</time>
      </trkpt>
      <trkpt lat="47.50531" lon="6.72795">
        <ele>392.2</ele>
        <time>2017-11-01T10:17:44.000Z</time>
      </trkpt>
      <trkpt lat="47.50531" lon="6.72799">
        <ele>392</ele>
        <time>2017-11-01T10:17:45.000Z</time>
      </trkpt>
      <trkpt lat="47.50531" lon="6.72803">
        <ele>391.9</ele>
        <time>2017-11-01T10:17:46.000Z</time>
      </trkpt>
      <trkpt lat="47.50531" lon="6.72807">
        <ele>391.8</ele>
        <time>2017-11-01T10:17:47.000Z</time>
      </trkpt>
      <trkpt lat="47.50531" lon="6.72811">
        <ele>391.7</ele>
        <time>2017-11-01T10:17:48.000Z</time>
      </trkpt>
      <trkpt lat="47.50532" lon="6.72817">
        <ele>391.6</ele>
        <time>2017-11-01T10:17:49.000Z</time>
      </trkpt>
      <trkpt lat="47.50532" lon="6.72824">
        <ele>391.5</ele>
        <time>2017-11-01T10:17:50.000Z</time>
      </trkpt>
      <trkpt lat="47.50532" lon="6.7283">
        <ele>391.4</ele>
        <time>2017-11-01T10:17:51.000Z</time>
      </trkpt>
      <trkpt lat="47.50532" lon="6.72835">
        <ele>391.3</ele>
        <time>2017-11-01T10:17:52.000Z</time>
      </trkpt>
      <trkpt lat="47.50532" lon="6.7284">
        <ele>391.3</ele>
        <time>2017-11-01T10:17:53.000Z</time>
      </trkpt>
      <trkpt lat="47.50532" lon="6.72844">
        <ele>391.3</ele>
        <time>2017-11-01T10:17:54.000Z</time>
      </trkpt>
      <trkpt lat="47.50532" lon="6.72847">
        <ele>391.2</ele>
        <time>2017-11-01T10:17:55.000Z</time>
      </trkpt>
      <trkpt lat="47.50531" lon="6.72852">
        <ele>391.2</ele>
        <time>2017-11-01T10:17:56.000Z</time>
      </trkpt>
      <trkpt lat="47.50529" lon="6.72855">
        <ele>391.3</ele>
        <time>2017-11-01T10:17:57.000Z</time>
      </trkpt>
      <trkpt lat="47.50527" lon="6.7286">
        <ele>391.3</ele>
        <time>2017-11-01T10:17:58.000Z</time>
      </trkpt>
      <trkpt lat="47.50525" lon="6.72862">
        <ele>391.5</ele>
        <time>2017-11-01T10:17:59.000Z</time>
      </trkpt>
      <trkpt lat="47.50522" lon="6.72865">
        <ele>391.7</ele>
        <time>2017-11-01T10:18:00.000Z</time>
      </trkpt>
      <trkpt lat="47.50518" lon="6.72868">
        <ele>392</ele>
        <time>2017-11-01T10:18:01.000Z</time>
      </trkpt>
      <trkpt lat="47.50515" lon="6.72871">
        <ele>392.2</ele>
        <time>2017-11-01T10:18:02.000Z</time>
      </trkpt>
      <trkpt lat="47.50511" lon="6.72874">
        <ele>394.1</ele>
        <time>2017-11-01T10:18:03.000Z</time>
      </trkpt>
      <trkpt lat="47.50506" lon="6.72877">
        <ele>395.3</ele>
        <time>2017-11-01T10:18:04.000Z</time>
      </trkpt>
      <trkpt lat="47.50503" lon="6.72881">
        <ele>395.8</ele>
        <time>2017-11-01T10:18:05.000Z</time>
      </trkpt>
      <trkpt lat="47.50498" lon="6.72885">
        <ele>397</ele>
        <time>2017-11-01T10:18:06.000Z</time>
      </trkpt>
      <trkpt lat="47.50494" lon="6.7289">
        <ele>397.4</ele>
        <time>2017-11-01T10:18:07.000Z</time>
      </trkpt>
      <trkpt lat="47.50491" lon="6.72894">
        <ele>397.2</ele>
        <time>2017-11-01T10:18:08.000Z</time>
      </trkpt>
      <trkpt lat="47.50487" lon="6.72898">
        <ele>398.2</ele>
        <time>2017-11-01T10:18:09.000Z</time>
      </trkpt>
      <trkpt lat="47.50484" lon="6.72903">
        <ele>399.2</ele>
        <time>2017-11-01T10:18:10.000Z</time>
      </trkpt>
      <trkpt lat="47.50481" lon="6.72907">
        <ele>399.1</ele>
        <time>2017-11-01T10:18:11.000Z</time>
      </trkpt>
      <trkpt lat="47.50477" lon="6.72911">
        <ele>399.4</ele>
        <time>2017-11-01T10:18:12.000Z</time>
      </trkpt>
      <trkpt lat="47.50474" lon="6.72915">
        <ele>399.6</ele>
        <time>2017-11-01T10:18:13.000Z</time>
      </trkpt>
      <trkpt lat="47.50471" lon="6.72918">
        <ele>399.1</ele>
        <time>2017-11-01T10:18:14.000Z</time>
      </trkpt>
      <trkpt lat="47.50467" lon="6.72923">
        <ele>399</ele>
        <time>2017-11-01T10:18:15.000Z</time>
      </trkpt>
      <trkpt lat="47.50464" lon="6.72927">
        <ele>398.9</ele>
        <time>2017-11-01T10:18:16.000Z</time>
      </trkpt>
      <trkpt lat="47.50461" lon="6.7293">
        <ele>398.4</ele>
        <time>2017-11-01T10:18:17.000Z</time>
      </trkpt>
      <trkpt lat="47.50458" lon="6.72934">
        <ele>398.4</ele>
        <time>2017-11-01T10:18:18.000Z</time>
      </trkpt>
      <trkpt lat="47.50454" lon="6.72937">
        <ele>398.7</ele>
        <time>2017-11-01T10:18:19.000Z</time>
      </trkpt>
      <trkpt lat="47.50451" lon="6.7294">
        <ele>398.8</ele>
        <time>2017-11-01T10:18:20.000Z</time>
      </trkpt>
      <trkpt lat="47.50447" lon="6.72942">
        <ele>398.7</ele>
        <time>2017-11-01T10:18:21.000Z</time>
      </trkpt>
      <trkpt lat="47.50442" lon="6.72942">
        <ele>398.5</ele>
        <time>2017-11-01T10:18:22.000Z</time>
      </trkpt>
      <trkpt lat="47.50437" lon="6.72942">
        <ele>398.2</ele>
        <time>2017-11-01T10:18:23.000Z</time>
      </trkpt>
      <trkpt lat="47.50433" lon="6.72942">
        <ele>398.1</ele>
        <time>2017-11-01T10:18:24.000Z</time>
      </trkpt>
      <trkpt lat="47.50428" lon="6.72941">
        <ele>398</ele>
        <time>2017-11-01T10:18:25.000Z</time>
      </trkpt>
      <trkpt lat="47.50424" lon="6.7294">
        <ele>398.1</ele>
        <time>2017-11-01T10:18:26.000Z</time>
      </trkpt>
      <trkpt lat="47.5042" lon="6.72939">
        <ele>398.1</ele>
        <time>2017-11-01T10:18:27.000Z</time>
      </trkpt>
      <trkpt lat="47.50415" lon="6.72937">
        <ele>397.9</ele>
        <time>2017-11-01T10:18:28.000Z</time>
      </trkpt>
      <trkpt lat="47.5041" lon="6.72936">
        <ele>397.5</ele>
        <time>2017-11-01T10:18:29.000Z</time>
      </trkpt>
      <trkpt lat="47.50406" lon="6.72934">
        <ele>396.9</ele>
        <time>2017-11-01T10:18:30.000Z</time>
      </trkpt>
      <trkpt lat="47.50401" lon="6.72932">
        <ele>396.3</ele>
        <time>2017-11-01T10:18:31.000Z</time>
      </trkpt>
      <trkpt lat="47.50396" lon="6.72931">
        <ele>395.7</ele>
        <time>2017-11-01T10:18:32.000Z</time>
      </trkpt>
      <trkpt lat="47.50391" lon="6.7293">
        <ele>395.2</ele>
        <time>2017-11-01T10:18:33.000Z</time>
      </trkpt>
      <trkpt lat="47.50387" lon="6.72929">
        <ele>394.7</ele>
        <time>2017-11-01T10:18:34.000Z</time>
      </trkpt>
      <trkpt lat="47.50383" lon="6.72928">
        <ele>394.2</ele>
        <time>2017-11-01T10:18:35.000Z</time>
      </trkpt>
      <trkpt lat="47.50379" lon="6.72927">
        <ele>393.8</ele>
        <time>2017-11-01T10:18:36.000Z</time>
      </trkpt>
      <trkpt lat="47.50375" lon="6.72927">
        <ele>393.6</ele>
        <time>2017-11-01T10:18:37.000Z</time>
      </trkpt>
      <trkpt lat="47.50371" lon="6.72926">
        <ele>393.4</ele>
        <time>2017-11-01T10:18:38.000Z</time>
      </trkpt>
      <trkpt lat="47.50368" lon="6.72925">
        <ele>393</ele>
        <time>2017-11-01T10:18:39.000Z</time>
      </trkpt>
      <trkpt lat="47.50364" lon="6.72924">
        <ele>393</ele>
        <time>2017-11-01T10:18:40.000Z</time>
      </trkpt>
      <trkpt lat="47.50361" lon="6.72923">
        <ele>392.5</ele>
        <time>2017-11-01T10:18:41.000Z</time>
      </trkpt>
      <trkpt lat="47.50357" lon="6.72921">
        <ele>392.2</ele>
        <time>2017-11-01T10:18:42.000Z</time>
      </trkpt>
      <trkpt lat="47.50352" lon="6.7292">
        <ele>391.9</ele>
        <time>2017-11-01T10:18:43.000Z</time>
      </trkpt>
      <trkpt lat="47.50347" lon="6.72918">
        <ele>391.9</ele>
        <time>2017-11-01T10:18:44.000Z</time>
      </trkpt>
      <trkpt lat="47.50343" lon="6.72916">
        <ele>391.8</ele>
        <time>2017-11-01T10:18:45.000Z</time>
      </trkpt>
      <trkpt lat="47.50339" lon="6.72915">
        <ele>391.7</ele>
        <time>2017-11-01T10:18:46.000Z</time>
      </trkpt>
      <trkpt lat="47.50334" lon="6.72914">
        <ele>391.5</ele>
        <time>2017-11-01T10:18:47.000Z</time>
      </trkpt>
      <trkpt lat="47.50329" lon="6.72911">
        <ele>391.1</ele>
        <time>2017-11-01T10:18:48.000Z</time>
      </trkpt>
      <trkpt lat="47.50323" lon="6.72909">
        <ele>390.6</ele>
        <time>2017-11-01T10:18:49.000Z</time>
      </trkpt>
      <trkpt lat="47.50318" lon="6.72907">
        <ele>389.6</ele>
        <time>2017-11-01T10:18:50.000Z</time>
      </trkpt>
      <trkpt lat="47.50314" lon="6.72905">
        <ele>389.2</ele>
        <time>2017-11-01T10:18:51.000Z</time>
      </trkpt>
      <trkpt lat="47.5031" lon="6.72903">
        <ele>389.2</ele>
        <time>2017-11-01T10:18:52.000Z</time>
      </trkpt>
      <trkpt lat="47.50306" lon="6.72902">
        <ele>389.6</ele>
        <time>2017-11-01T10:18:53.000Z</time>
      </trkpt>
      <trkpt lat="47.50302" lon="6.72899">
        <ele>390.1</ele>
        <time>2017-11-01T10:18:54.000Z</time>
      </trkpt>
      <trkpt lat="47.50298" lon="6.72898">
        <ele>390.8</ele>
        <time>2017-11-01T10:18:55.000Z</time>
      </trkpt>
      <trkpt lat="47.50294" lon="6.72897">
        <ele>391</ele>
        <time>2017-11-01T10:18:56.000Z</time>
      </trkpt>
      <trkpt lat="47.50291" lon="6.72897">
        <ele>391.3</ele>
        <time>2017-11-01T10:18:57.000Z</time>
      </trkpt>
      <trkpt lat="47.50287" lon="6.72898">
        <ele>391.3</ele>
        <time>2017-11-01T10:18:58.000Z</time>
      </trkpt>
      <trkpt lat="47.50284" lon="6.72898">
        <ele>391.3</ele>
        <time>2017-11-01T10:18:59.000Z</time>
      </trkpt>
      <trkpt lat="47.5028" lon="6.72899">
        <ele>391.2</ele>
        <time>2017-11-01T10:19:00.000Z</time>
      </trkpt>
      <trkpt lat="47.50276" lon="6.72904">
        <ele>391.1</ele>
        <time>2017-11-01T10:19:01.000Z</time>
      </trkpt>
      <trkpt lat="47.50275" lon="6.72909">
        <ele>391</ele>
        <time>2017-11-01T10:19:02.000Z</time>
      </trkpt>
      <trkpt lat="47.50274" lon="6.72914">
        <ele>390.9</ele>
        <time>2017-11-01T10:19:03.000Z</time>
      </trkpt>
      <trkpt lat="47.50273" lon="6.72919">
        <ele>390.8</ele>
        <time>2017-11-01T10:19:04.000Z</time>
      </trkpt>
      <trkpt lat="47.50272" lon="6.72922">
        <ele>390.6</ele>
        <time>2017-11-01T10:19:05.000Z</time>
      </trkpt>
      <trkpt lat="47.50269" lon="6.72928">
        <ele>390.5</ele>
        <time>2017-11-01T10:19:06.000Z</time>
      </trkpt>
      <trkpt lat="47.50268" lon="6.72934">
        <ele>389.1</ele>
        <time>2017-11-01T10:19:07.000Z</time>
      </trkpt>
      <trkpt lat="47.50266" lon="6.72939">
        <ele>389</ele>
        <time>2017-11-01T10:19:08.000Z</time>
      </trkpt>
      <trkpt lat="47.50264" lon="6.72945">
        <ele>387.4</ele>
        <time>2017-11-01T10:19:09.000Z</time>
      </trkpt>
      <trkpt lat="47.50262" lon="6.7295">
        <ele>387.3</ele>
        <time>2017-11-01T10:19:10.000Z</time>
      </trkpt>
      <trkpt lat="47.50259" lon="6.72957">
        <ele>387.2</ele>
        <time>2017-11-01T10:19:11.000Z</time>
      </trkpt>
      <trkpt lat="47.50258" lon="6.7296">
        <ele>387.1</ele>
        <time>2017-11-01T10:19:12.000Z</time>
      </trkpt>
      <trkpt lat="47.50256" lon="6.72965">
        <ele>387</ele>
        <time>2017-11-01T10:19:13.000Z</time>
      </trkpt>
      <trkpt lat="47.50254" lon="6.7297">
        <ele>386.9</ele>
        <time>2017-11-01T10:19:14.000Z</time>
      </trkpt>
      <trkpt lat="47.50252" lon="6.72975">
        <ele>386.9</ele>
        <time>2017-11-01T10:19:15.000Z</time>
      </trkpt>
      <trkpt lat="47.5025" lon="6.72981">
        <ele>386.9</ele>
        <time>2017-11-01T10:19:16.000Z</time>
      </trkpt>
      <trkpt lat="47.50247" lon="6.72987">
        <ele>387.1</ele>
        <time>2017-11-01T10:19:17.000Z</time>
      </trkpt>
      <trkpt lat="47.50244" lon="6.72992">
        <ele>386.9</ele>
        <time>2017-11-01T10:19:18.000Z</time>
      </trkpt>
      <trkpt lat="47.50242" lon="6.72998">
        <ele>387.4</ele>
        <time>2017-11-01T10:19:19.000Z</time>
      </trkpt>
      <trkpt lat="47.5024" lon="6.73004">
        <ele>388.1</ele>
        <time>2017-11-01T10:19:20.000Z</time>
      </trkpt>
      <trkpt lat="47.50239" lon="6.7301">
        <ele>388.5</ele>
        <time>2017-11-01T10:19:21.000Z</time>
      </trkpt>
      <trkpt lat="47.50237" lon="6.73014">
        <ele>388.3</ele>
        <time>2017-11-01T10:19:22.000Z</time>
      </trkpt>
      <trkpt lat="47.50236" lon="6.73018">
        <ele>388.3</ele>
        <time>2017-11-01T10:19:23.000Z</time>
      </trkpt>
      <trkpt lat="47.50233" lon="6.73023">
        <ele>388.5</ele>
        <time>2017-11-01T10:19:24.000Z</time>
      </trkpt>
      <trkpt lat="47.50231" lon="6.73028">
        <ele>388.6</ele>
        <time>2017-11-01T10:19:25.000Z</time>
      </trkpt>
      <trkpt lat="47.50229" lon="6.73032">
        <ele>388.9</ele>
        <time>2017-11-01T10:19:26.000Z</time>
      </trkpt>
      <trkpt lat="47.50227" lon="6.73038">
        <ele>388.9</ele>
        <time>2017-11-01T10:19:27.000Z</time>
      </trkpt>
      <trkpt lat="47.50224" lon="6.73043">
        <ele>388.9</ele>
        <time>2017-11-01T10:19:28.000Z</time>
      </trkpt>
      <trkpt lat="47.50223" lon="6.73049">
        <ele>388.9</ele>
        <time>2017-11-01T10:19:29.000Z</time>
      </trkpt>
      <trkpt lat="47.50222" lon="6.73053">
        <ele>388.9</ele>
        <time>2017-11-01T10:19:30.000Z</time>
      </trkpt>
      <trkpt lat="47.5022" lon="6.73058">
        <ele>388.9</ele>
        <time>2017-11-01T10:19:31.000Z</time>
      </trkpt>
      <trkpt lat="47.50219" lon="6.73062">
        <ele>388.8</ele>
        <time>2017-11-01T10:19:32.000Z</time>
      </trkpt>
      <trkpt lat="47.50217" lon="6.73067">
        <ele>388.8</ele>
        <time>2017-11-01T10:19:33.000Z</time>
      </trkpt>
      <trkpt lat="47.50214" lon="6.73072">
        <ele>388.8</ele>
        <time>2017-11-01T10:19:34.000Z</time>
      </trkpt>
      <trkpt lat="47.50212" lon="6.73078">
        <ele>388.8</ele>
        <time>2017-11-01T10:19:35.000Z</time>
      </trkpt>
      <trkpt lat="47.50211" lon="6.73083">
        <ele>388</ele>
        <time>2017-11-01T10:19:36.000Z</time>
      </trkpt>
      <trkpt lat="47.50209" lon="6.73087">
        <ele>388</ele>
        <time>2017-11-01T10:19:37.000Z</time>
      </trkpt>
      <trkpt lat="47.50208" lon="6.73093">
        <ele>387.9</ele>
        <time>2017-11-01T10:19:38.000Z</time>
      </trkpt>
      <trkpt lat="47.50206" lon="6.73098">
        <ele>387.9</ele>
        <time>2017-11-01T10:19:39.000Z</time>
      </trkpt>
      <trkpt lat="47.50204" lon="6.73103">
        <ele>387.1</ele>
        <time>2017-11-01T10:19:40.000Z</time>
      </trkpt>
      <trkpt lat="47.50201" lon="6.73109">
        <ele>386.1</ele>
        <time>2017-11-01T10:19:41.000Z</time>
      </trkpt>
      <trkpt lat="47.50198" lon="6.73114">
        <ele>385.9</ele>
        <time>2017-11-01T10:19:42.000Z</time>
      </trkpt>
      <trkpt lat="47.50196" lon="6.73118">
        <ele>385.9</ele>
        <time>2017-11-01T10:19:43.000Z</time>
      </trkpt>
      <trkpt lat="47.50194" lon="6.73123">
        <ele>385.9</ele>
        <time>2017-11-01T10:19:44.000Z</time>
      </trkpt>
      <trkpt lat="47.50192" lon="6.73128">
        <ele>385.9</ele>
        <time>2017-11-01T10:19:45.000Z</time>
      </trkpt>
      <trkpt lat="47.50191" lon="6.73133">
        <ele>385.8</ele>
        <time>2017-11-01T10:19:46.000Z</time>
      </trkpt>
      <trkpt lat="47.50191" lon="6.73138">
        <ele>385.8</ele>
        <time>2017-11-01T10:19:47.000Z</time>
      </trkpt>
      <trkpt lat="47.50193" lon="6.73139">
        <ele>385.9</ele>
        <time>2017-11-01T10:19:48.000Z</time>
      </trkpt>
      <trkpt lat="47.50195" lon="6.73143">
        <ele>385.9</ele>
        <time>2017-11-01T10:19:49.000Z</time>
      </trkpt>
      <trkpt lat="47.50199" lon="6.73145">
        <ele>385.9</ele>
        <time>2017-11-01T10:19:50.000Z</time>
      </trkpt>
      <trkpt lat="47.50201" lon="6.73147">
        <ele>385.9</ele>
        <time>2017-11-01T10:19:51.000Z</time>
      </trkpt>
      <trkpt lat="47.50203" lon="6.73148">
        <ele>385.9</ele>
        <time>2017-11-01T10:19:52.000Z</time>
      </trkpt>
      <trkpt lat="47.50205" lon="6.73149">
        <ele>386</ele>
        <time>2017-11-01T10:19:53.000Z</time>
      </trkpt>
      <trkpt lat="47.50208" lon="6.73151">
        <ele>386.1</ele>
        <time>2017-11-01T10:19:54.000Z</time>
      </trkpt>
      <trkpt lat="47.5021" lon="6.73153">
        <ele>386.1</ele>
        <time>2017-11-01T10:19:55.000Z</time>
      </trkpt>
      <trkpt lat="47.50213" lon="6.73156">
        <ele>386.1</ele>
        <time>2017-11-01T10:19:56.000Z</time>
      </trkpt>
      <trkpt lat="47.50216" lon="6.73159">
        <ele>386.1</ele>
        <time>2017-11-01T10:19:57.000Z</time>
      </trkpt>
      <trkpt lat="47.50219" lon="6.73161">
        <ele>386.2</ele>
        <time>2017-11-01T10:19:58.000Z</time>
      </trkpt>
      <trkpt lat="47.50222" lon="6.73164">
        <ele>386.2</ele>
        <time>2017-11-01T10:19:59.000Z</time>
      </trkpt>
      <trkpt lat="47.50225" lon="6.73167">
        <ele>386.1</ele>
        <time>2017-11-01T10:20:00.000Z</time>
      </trkpt>
      <trkpt lat="47.50227" lon="6.7317">
        <ele>386.1</ele>
        <time>2017-11-01T10:20:01.000Z</time>
      </trkpt>
      <trkpt lat="47.5023" lon="6.73174">
        <ele>386</ele>
        <time>2017-11-01T10:20:02.000Z</time>
      </trkpt>
      <trkpt lat="47.50234" lon="6.73178">
        <ele>386</ele>
        <time>2017-11-01T10:20:03.000Z</time>
      </trkpt>
      <trkpt lat="47.50237" lon="6.73181">
        <ele>386</ele>
        <time>2017-11-01T10:20:04.000Z</time>
      </trkpt>
      <trkpt lat="47.50239" lon="6.73184">
        <ele>386</ele>
        <time>2017-11-01T10:20:05.000Z</time>
      </trkpt>
      <trkpt lat="47.50241" lon="6.73186">
        <ele>386</ele>
        <time>2017-11-01T10:20:06.000Z</time>
      </trkpt>
      <trkpt lat="47.50244" lon="6.73189">
        <ele>386</ele>
        <time>2017-11-01T10:20:07.000Z</time>
      </trkpt>
      <trkpt lat="47.50246" lon="6.73192">
        <ele>386</ele>
        <time>2017-11-01T10:20:08.000Z</time>
      </trkpt>
      <trkpt lat="47.50249" lon="6.73195">
        <ele>386.1</ele>
        <time>2017-11-01T10:20:09.000Z</time>
      </trkpt>
      <trkpt lat="47.50252" lon="6.73198">
        <ele>386.1</ele>
        <time>2017-11-01T10:20:10.000Z</time>
      </trkpt>
      <trkpt lat="47.50256" lon="6.73202">
        <ele>386.1</ele>
        <time>2017-11-01T10:20:11.000Z</time>
      </trkpt>
      <trkpt lat="47.50259" lon="6.73205">
        <ele>386.2</ele>
        <time>2017-11-01T10:20:12.000Z</time>
      </trkpt>
      <trkpt lat="47.50262" lon="6.73208">
        <ele>386.2</ele>
        <time>2017-11-01T10:20:13.000Z</time>
      </trkpt>
      <trkpt lat="47.50265" lon="6.73211">
        <ele>386.2</ele>
        <time>2017-11-01T10:20:14.000Z</time>
      </trkpt>
      <trkpt lat="47.50267" lon="6.73214">
        <ele>386.3</ele>
        <time>2017-11-01T10:20:15.000Z</time>
      </trkpt>
      <trkpt lat="47.50271" lon="6.73218">
        <ele>386.3</ele>
        <time>2017-11-01T10:20:16.000Z</time>
      </trkpt>
      <trkpt lat="47.50273" lon="6.73222">
        <ele>386.4</ele>
        <time>2017-11-01T10:20:17.000Z</time>
      </trkpt>
      <trkpt lat="47.50274" lon="6.73223">
        <ele>386.4</ele>
        <time>2017-11-01T10:20:18.000Z</time>
      </trkpt>
      <trkpt lat="47.50278" lon="6.73227">
        <ele>386.5</ele>
        <time>2017-11-01T10:20:19.000Z</time>
      </trkpt>
      <trkpt lat="47.50281" lon="6.73231">
        <ele>386.6</ele>
        <time>2017-11-01T10:20:20.000Z</time>
      </trkpt>
      <trkpt lat="47.50283" lon="6.73234">
        <ele>386.6</ele>
        <time>2017-11-01T10:20:21.000Z</time>
      </trkpt>
      <trkpt lat="47.50286" lon="6.73237">
        <ele>386.6</ele>
        <time>2017-11-01T10:20:22.000Z</time>
      </trkpt>
      <trkpt lat="47.50289" lon="6.7324">
        <ele>386.6</ele>
        <time>2017-11-01T10:20:23.000Z</time>
      </trkpt>
      <trkpt lat="47.50292" lon="6.73243">
        <ele>386.6</ele>
        <time>2017-11-01T10:20:24.000Z</time>
      </trkpt>
      <trkpt lat="47.50295" lon="6.73247">
        <ele>386.5</ele>
        <time>2017-11-01T10:20:25.000Z</time>
      </trkpt>
      <trkpt lat="47.50298" lon="6.7325">
        <ele>386.5</ele>
        <time>2017-11-01T10:20:26.000Z</time>
      </trkpt>
      <trkpt lat="47.50301" lon="6.73251">
        <ele>386.5</ele>
        <time>2017-11-01T10:20:27.000Z</time>
      </trkpt>
      <trkpt lat="47.50305" lon="6.73254">
        <ele>386.4</ele>
        <time>2017-11-01T10:20:28.000Z</time>
      </trkpt>
      <trkpt lat="47.50307" lon="6.73256">
        <ele>386.4</ele>
        <time>2017-11-01T10:20:29.000Z</time>
      </trkpt>
      <trkpt lat="47.5031" lon="6.73257">
        <ele>386.4</ele>
        <time>2017-11-01T10:20:30.000Z</time>
      </trkpt>
      <trkpt lat="47.50312" lon="6.73259">
        <ele>386.2</ele>
        <time>2017-11-01T10:20:31.000Z</time>
      </trkpt>
      <trkpt lat="47.50315" lon="6.73261">
        <ele>386.1</ele>
        <time>2017-11-01T10:20:32.000Z</time>
      </trkpt>
      <trkpt lat="47.50318" lon="6.73263">
        <ele>385.9</ele>
        <time>2017-11-01T10:20:33.000Z</time>
      </trkpt>
      <trkpt lat="47.50321" lon="6.73266">
        <ele>385.8</ele>
        <time>2017-11-01T10:20:34.000Z</time>
      </trkpt>
      <trkpt lat="47.50324" lon="6.73268">
        <ele>385.7</ele>
        <time>2017-11-01T10:20:35.000Z</time>
      </trkpt>
      <trkpt lat="47.50326" lon="6.7327">
        <ele>385.6</ele>
        <time>2017-11-01T10:20:36.000Z</time>
      </trkpt>
      <trkpt lat="47.50329" lon="6.73273">
        <ele>385.5</ele>
        <time>2017-11-01T10:20:37.000Z</time>
      </trkpt>
      <trkpt lat="47.50332" lon="6.73275">
        <ele>385.3</ele>
        <time>2017-11-01T10:20:38.000Z</time>
      </trkpt>
      <trkpt lat="47.50333" lon="6.73277">
        <ele>385.2</ele>
        <time>2017-11-01T10:20:39.000Z</time>
      </trkpt>
      <trkpt lat="47.50336" lon="6.73279">
        <ele>385</ele>
        <time>2017-11-01T10:20:40.000Z</time>
      </trkpt>
      <trkpt lat="47.50338" lon="6.7328">
        <ele>384.9</ele>
        <time>2017-11-01T10:20:41.000Z</time>
      </trkpt>
      <trkpt lat="47.50341" lon="6.73281">
        <ele>384.9</ele>
        <time>2017-11-01T10:20:42.000Z</time>
      </trkpt>
      <trkpt lat="47.50343" lon="6.73282">
        <ele>385</ele>
        <time>2017-11-01T10:20:43.000Z</time>
      </trkpt>
      <trkpt lat="47.50346" lon="6.73283">
        <ele>385.1</ele>
        <time>2017-11-01T10:20:44.000Z</time>
      </trkpt>
      <trkpt lat="47.50348" lon="6.73285">
        <ele>385.2</ele>
        <time>2017-11-01T10:20:45.000Z</time>
      </trkpt>
      <trkpt lat="47.50352" lon="6.73286">
        <ele>385.4</ele>
        <time>2017-11-01T10:20:46.000Z</time>
      </trkpt>
      <trkpt lat="47.50353" lon="6.73286">
        <ele>385.5</ele>
        <time>2017-11-01T10:20:47.000Z</time>
      </trkpt>
      <trkpt lat="47.50357" lon="6.73287">
        <ele>385.8</ele>
        <time>2017-11-01T10:20:49.000Z</time>
      </trkpt>
      <trkpt lat="47.50359" lon="6.73288">
        <ele>385.9</ele>
        <time>2017-11-01T10:20:50.000Z</time>
      </trkpt>
      <trkpt lat="47.50362" lon="6.73289">
        <ele>386</ele>
        <time>2017-11-01T10:20:51.000Z</time>
      </trkpt>
      <trkpt lat="47.50364" lon="6.7329">
        <ele>386.2</ele>
        <time>2017-11-01T10:20:52.000Z</time>
      </trkpt>
      <trkpt lat="47.50366" lon="6.73291">
        <ele>386.4</ele>
        <time>2017-11-01T10:20:53.000Z</time>
      </trkpt>
      <trkpt lat="47.50369" lon="6.73293">
        <ele>386.6</ele>
        <time>2017-11-01T10:20:54.000Z</time>
      </trkpt>
      <trkpt lat="47.50373" lon="6.73295">
        <ele>386.9</ele>
        <time>2017-11-01T10:20:56.000Z</time>
      </trkpt>
      <trkpt lat="47.50374" lon="6.73295">
        <ele>387</ele>
        <time>2017-11-01T10:20:57.000Z</time>
      </trkpt>
      <trkpt lat="47.50377" lon="6.73297">
        <ele>387.3</ele>
        <time>2017-11-01T10:20:59.000Z</time>
      </trkpt>
      <trkpt lat="47.50379" lon="6.73298">
        <ele>387.5</ele>
        <time>2017-11-01T10:21:00.000Z</time>
      </trkpt>
      <trkpt lat="47.50382" lon="6.733">
        <ele>387.8</ele>
        <time>2017-11-01T10:21:01.000Z</time>
      </trkpt>
      <trkpt lat="47.50384" lon="6.73301">
        <ele>388.1</ele>
        <time>2017-11-01T10:21:02.000Z</time>
      </trkpt>
      <trkpt lat="47.50386" lon="6.73302">
        <ele>388.4</ele>
        <time>2017-11-01T10:21:03.000Z</time>
      </trkpt>
      <trkpt lat="47.50389" lon="6.73304">
        <ele>388.7</ele>
        <time>2017-11-01T10:21:04.000Z</time>
      </trkpt>
      <trkpt lat="47.50393" lon="6.73304">
        <ele>388.9</ele>
        <time>2017-11-01T10:21:05.000Z</time>
      </trkpt>
      <trkpt lat="47.50395" lon="6.73305">
        <ele>389.1</ele>
        <time>2017-11-01T10:21:06.000Z</time>
      </trkpt>
      <trkpt lat="47.50398" lon="6.73306">
        <ele>389.3</ele>
        <time>2017-11-01T10:21:07.000Z</time>
      </trkpt>
      <trkpt lat="47.504" lon="6.73307">
        <ele>389.5</ele>
        <time>2017-11-01T10:21:08.000Z</time>
      </trkpt>
      <trkpt lat="47.50404" lon="6.73309">
        <ele>390.1</ele>
        <time>2017-11-01T10:21:10.000Z</time>
      </trkpt>
      <trkpt lat="47.50406" lon="6.7331">
        <ele>390.3</ele>
        <time>2017-11-01T10:21:11.000Z</time>
      </trkpt>
      <trkpt lat="47.50408" lon="6.73312">
        <ele>390.4</ele>
        <time>2017-11-01T10:21:12.000Z</time>
      </trkpt>
      <trkpt lat="47.5041" lon="6.73314">
        <ele>390.5</ele>
        <time>2017-11-01T10:21:13.000Z</time>
      </trkpt>
      <trkpt lat="47.50412" lon="6.73316">
        <ele>390.7</ele>
        <time>2017-11-01T10:21:14.000Z</time>
      </trkpt>
      <trkpt lat="47.50415" lon="6.73317">
        <ele>390.8</ele>
        <time>2017-11-01T10:21:15.000Z</time>
      </trkpt>
      <trkpt lat="47.50418" lon="6.73317">
        <ele>391</ele>
        <time>2017-11-01T10:21:16.000Z</time>
      </trkpt>
      <trkpt lat="47.5042" lon="6.73319">
        <ele>391.2</ele>
        <time>2017-11-01T10:21:17.000Z</time>
      </trkpt>
      <trkpt lat="47.50422" lon="6.73321">
        <ele>391.5</ele>
        <time>2017-11-01T10:21:18.000Z</time>
      </trkpt>
      <trkpt lat="47.50425" lon="6.73321">
        <ele>391.7</ele>
        <time>2017-11-01T10:21:19.000Z</time>
      </trkpt>
      <trkpt lat="47.50428" lon="6.73322">
        <ele>391.9</ele>
        <time>2017-11-01T10:21:20.000Z</time>
      </trkpt>
      <trkpt lat="47.50431" lon="6.73324">
        <ele>392.1</ele>
        <time>2017-11-01T10:21:21.000Z</time>
      </trkpt>
      <trkpt lat="47.50434" lon="6.73326">
        <ele>392.2</ele>
        <time>2017-11-01T10:21:22.000Z</time>
      </trkpt>
      <trkpt lat="47.50437" lon="6.73329">
        <ele>392.4</ele>
        <time>2017-11-01T10:21:23.000Z</time>
      </trkpt>
      <trkpt lat="47.50439" lon="6.73331">
        <ele>392.5</ele>
        <time>2017-11-01T10:21:24.000Z</time>
      </trkpt>
      <trkpt lat="47.5044" lon="6.73333">
        <ele>392.7</ele>
        <time>2017-11-01T10:21:25.000Z</time>
      </trkpt>
      <trkpt lat="47.50442" lon="6.73335">
        <ele>392.8</ele>
        <time>2017-11-01T10:21:26.000Z</time>
      </trkpt>
      <trkpt lat="47.50444" lon="6.73337">
        <ele>393</ele>
        <time>2017-11-01T10:21:27.000Z</time>
      </trkpt>
      <trkpt lat="47.50446" lon="6.7334">
        <ele>393.2</ele>
        <time>2017-11-01T10:21:28.000Z</time>
      </trkpt>
      <trkpt lat="47.50448" lon="6.73343">
        <ele>393.4</ele>
        <time>2017-11-01T10:21:29.000Z</time>
      </trkpt>
      <trkpt lat="47.5045" lon="6.73345">
        <ele>393.5</ele>
        <time>2017-11-01T10:21:30.000Z</time>
      </trkpt>
      <trkpt lat="47.50452" lon="6.73347">
        <ele>393.7</ele>
        <time>2017-11-01T10:21:31.000Z</time>
      </trkpt>
      <trkpt lat="47.50454" lon="6.7335">
        <ele>393.8</ele>
        <time>2017-11-01T10:21:32.000Z</time>
      </trkpt>
      <trkpt lat="47.50456" lon="6.73352">
        <ele>393.9</ele>
        <time>2017-11-01T10:21:33.000Z</time>
      </trkpt>
      <trkpt lat="47.50458" lon="6.73356">
        <ele>394</ele>
        <time>2017-11-01T10:21:34.000Z</time>
      </trkpt>
      <trkpt lat="47.5046" lon="6.73358">
        <ele>394.2</ele>
        <time>2017-11-01T10:21:35.000Z</time>
      </trkpt>
      <trkpt lat="47.50463" lon="6.73361">
        <ele>394.7</ele>
        <time>2017-11-01T10:21:37.000Z</time>
      </trkpt>
      <trkpt lat="47.50464" lon="6.73363">
        <ele>394.8</ele>
        <time>2017-11-01T10:21:38.000Z</time>
      </trkpt>
      <trkpt lat="47.50466" lon="6.73365">
        <ele>394.9</ele>
        <time>2017-11-01T10:21:39.000Z</time>
      </trkpt>
      <trkpt lat="47.50469" lon="6.73368">
        <ele>395.1</ele>
        <time>2017-11-01T10:21:40.000Z</time>
      </trkpt>
      <trkpt lat="47.50471" lon="6.73371">
        <ele>395.4</ele>
        <time>2017-11-01T10:21:41.000Z</time>
      </trkpt>
      <trkpt lat="47.50473" lon="6.73374">
        <ele>395.5</ele>
        <time>2017-11-01T10:21:42.000Z</time>
      </trkpt>
      <trkpt lat="47.50475" lon="6.73378">
        <ele>395.7</ele>
        <time>2017-11-01T10:21:43.000Z</time>
      </trkpt>
      <trkpt lat="47.50478" lon="6.73382">
        <ele>395.8</ele>
        <time>2017-11-01T10:21:44.000Z</time>
      </trkpt>
      <trkpt lat="47.5048" lon="6.73386">
        <ele>395.8</ele>
        <time>2017-11-01T10:21:45.000Z</time>
      </trkpt>
      <trkpt lat="47.50482" lon="6.73388">
        <ele>395.9</ele>
        <time>2017-11-01T10:21:46.000Z</time>
      </trkpt>
      <trkpt lat="47.50484" lon="6.73391">
        <ele>396</ele>
        <time>2017-11-01T10:21:47.000Z</time>
      </trkpt>
      <trkpt lat="47.50486" lon="6.73393">
        <ele>396.1</ele>
        <time>2017-11-01T10:21:48.000Z</time>
      </trkpt>
      <trkpt lat="47.50488" lon="6.73396">
        <ele>396.2</ele>
        <time>2017-11-01T10:21:49.000Z</time>
      </trkpt>
      <trkpt lat="47.5049" lon="6.734">
        <ele>396.4</ele>
        <time>2017-11-01T10:21:50.000Z</time>
      </trkpt>
      <trkpt lat="47.50493" lon="6.73404">
        <ele>396.6</ele>
        <time>2017-11-01T10:21:52.000Z</time>
      </trkpt>
      <trkpt lat="47.50495" lon="6.73406">
        <ele>396.7</ele>
        <time>2017-11-01T10:21:53.000Z</time>
      </trkpt>
      <trkpt lat="47.50498" lon="6.7341">
        <ele>397</ele>
        <time>2017-11-01T10:21:55.000Z</time>
      </trkpt>
      <trkpt lat="47.50499" lon="6.7341">
        <ele>397.2</ele>
        <time>2017-11-01T10:21:56.000Z</time>
      </trkpt>
      <trkpt lat="47.50501" lon="6.73412">
        <ele>397.5</ele>
        <time>2017-11-01T10:21:58.000Z</time>
      </trkpt>
      <trkpt lat="47.50503" lon="6.73413">
        <ele>397.7</ele>
        <time>2017-11-01T10:21:59.000Z</time>
      </trkpt>
      <trkpt lat="47.50506" lon="6.73417">
        <ele>397.9</ele>
        <time>2017-11-01T10:22:01.000Z</time>
      </trkpt>
      <trkpt lat="47.50507" lon="6.73419">
        <ele>397.9</ele>
        <time>2017-11-01T10:22:02.000Z</time>
      </trkpt>
      <trkpt lat="47.5051" lon="6.73422">
        <ele>398.1</ele>
        <time>2017-11-01T10:22:04.000Z</time>
      </trkpt>
      <trkpt lat="47.50512" lon="6.73424">
        <ele>398.1</ele>
        <time>2017-11-01T10:22:05.000Z</time>
      </trkpt>
      <trkpt lat="47.50516" lon="6.73426">
        <ele>397.9</ele>
        <time>2017-11-01T10:22:07.000Z</time>
      </trkpt>
      <trkpt lat="47.50518" lon="6.73428">
        <ele>397.8</ele>
        <time>2017-11-01T10:22:08.000Z</time>
      </trkpt>
      <trkpt lat="47.5052" lon="6.73429">
        <ele>397.7</ele>
        <time>2017-11-01T10:22:09.000Z</time>
      </trkpt>
      <trkpt lat="47.50523" lon="6.7343">
        <ele>397.6</ele>
        <time>2017-11-01T10:22:10.000Z</time>
      </trkpt>
      <trkpt lat="47.50526" lon="6.73433">
        <ele>397.5</ele>
        <time>2017-11-01T10:22:11.000Z</time>
      </trkpt>
      <trkpt lat="47.50528" lon="6.73435">
        <ele>397.5</ele>
        <time>2017-11-01T10:22:12.000Z</time>
      </trkpt>
      <trkpt lat="47.50531" lon="6.73438">
        <ele>397.4</ele>
        <time>2017-11-01T10:22:13.000Z</time>
      </trkpt>
      <trkpt lat="47.50532" lon="6.73441">
        <ele>397.3</ele>
        <time>2017-11-01T10:22:14.000Z</time>
      </trkpt>
      <trkpt lat="47.50535" lon="6.73446">
        <ele>397</ele>
        <time>2017-11-01T10:22:16.000Z</time>
      </trkpt>
      <trkpt lat="47.50536" lon="6.73448">
        <ele>396.9</ele>
        <time>2017-11-01T10:22:17.000Z</time>
      </trkpt>
      <trkpt lat="47.50538" lon="6.7345">
        <ele>396.8</ele>
        <time>2017-11-01T10:22:18.000Z</time>
      </trkpt>
      <trkpt lat="47.5054" lon="6.73452">
        <ele>396.7</ele>
        <time>2017-11-01T10:22:19.000Z</time>
      </trkpt>
      <trkpt lat="47.50542" lon="6.73455">
        <ele>396.6</ele>
        <time>2017-11-01T10:22:20.000Z</time>
      </trkpt>
      <trkpt lat="47.50543" lon="6.73459">
        <ele>396.5</ele>
        <time>2017-11-01T10:22:21.000Z</time>
      </trkpt>
      <trkpt lat="47.50545" lon="6.73463">
        <ele>396.4</ele>
        <time>2017-11-01T10:22:22.000Z</time>
      </trkpt>
      <trkpt lat="47.50546" lon="6.73465">
        <ele>396.2</ele>
        <time>2017-11-01T10:22:23.000Z</time>
      </trkpt>
      <trkpt lat="47.50549" lon="6.73468">
        <ele>396</ele>
        <time>2017-11-01T10:22:25.000Z</time>
      </trkpt>
      <trkpt lat="47.5055" lon="6.7347">
        <ele>396</ele>
        <time>2017-11-01T10:22:26.000Z</time>
      </trkpt>
      <trkpt lat="47.50553" lon="6.73475">
        <ele>396</ele>
        <time>2017-11-01T10:22:28.000Z</time>
      </trkpt>
      <trkpt lat="47.50554" lon="6.73476">
        <ele>396</ele>
        <time>2017-11-01T10:22:29.000Z</time>
      </trkpt>
      <trkpt lat="47.50556" lon="6.73479">
        <ele>395.9</ele>
        <time>2017-11-01T10:22:30.000Z</time>
      </trkpt>
      <trkpt lat="47.50558" lon="6.73481">
        <ele>395.8</ele>
        <time>2017-11-01T10:22:31.000Z</time>
      </trkpt>
      <trkpt lat="47.50561" lon="6.73485">
        <ele>395.6</ele>
        <time>2017-11-01T10:22:33.000Z</time>
      </trkpt>
      <trkpt lat="47.50562" lon="6.73487">
        <ele>395.5</ele>
        <time>2017-11-01T10:22:34.000Z</time>
      </trkpt>
      <trkpt lat="47.50565" lon="6.7349">
        <ele>395.3</ele>
        <time>2017-11-01T10:22:36.000Z</time>
      </trkpt>
      <trkpt lat="47.50566" lon="6.73492">
        <ele>395.2</ele>
        <time>2017-11-01T10:22:37.000Z</time>
      </trkpt>
      <trkpt lat="47.50568" lon="6.73496">
        <ele>395.2</ele>
        <time>2017-11-01T10:22:38.000Z</time>
      </trkpt>
      <trkpt lat="47.50571" lon="6.735">
        <ele>395.1</ele>
        <time>2017-11-01T10:22:39.000Z</time>
      </trkpt>
      <trkpt lat="47.50573" lon="6.73503">
        <ele>395.1</ele>
        <time>2017-11-01T10:22:40.000Z</time>
      </trkpt>
      <trkpt lat="47.50576" lon="6.73505">
        <ele>395.1</ele>
        <time>2017-11-01T10:22:41.000Z</time>
      </trkpt>
      <trkpt lat="47.50579" lon="6.73505">
        <ele>395</ele>
        <time>2017-11-01T10:22:42.000Z</time>
      </trkpt>
      <trkpt lat="47.50581" lon="6.73506">
        <ele>395</ele>
        <time>2017-11-01T10:22:43.000Z</time>
      </trkpt>
      <trkpt lat="47.50585" lon="6.73507">
        <ele>394.9</ele>
        <time>2017-11-01T10:22:45.000Z</time>
      </trkpt>
      <trkpt lat="47.50587" lon="6.73508">
        <ele>394.8</ele>
        <time>2017-11-01T10:22:46.000Z</time>
      </trkpt>
      <trkpt lat="47.5059" lon="6.73511">
        <ele>394.5</ele>
        <time>2017-11-01T10:22:48.000Z</time>
      </trkpt>
      <trkpt lat="47.50591" lon="6.73512">
        <ele>394.3</ele>
        <time>2017-11-01T10:22:49.000Z</time>
      </trkpt>
      <trkpt lat="47.50593" lon="6.73515">
        <ele>394.1</ele>
        <time>2017-11-01T10:22:50.000Z</time>
      </trkpt>
      <trkpt lat="47.50596" lon="6.73517">
        <ele>394</ele>
        <time>2017-11-01T10:22:51.000Z</time>
      </trkpt>
      <trkpt lat="47.50598" lon="6.73521">
        <ele>394.1</ele>
        <time>2017-11-01T10:22:53.000Z</time>
      </trkpt>
      <trkpt lat="47.50601" lon="6.73523">
        <ele>394.3</ele>
        <time>2017-11-01T10:22:54.000Z</time>
      </trkpt>
      <trkpt lat="47.50606" lon="6.73525">
        <ele>394.5</ele>
        <time>2017-11-01T10:22:55.000Z</time>
      </trkpt>
      <trkpt lat="47.50612" lon="6.73528">
        <ele>394.7</ele>
        <time>2017-11-01T10:22:56.000Z</time>
      </trkpt>
      <trkpt lat="47.50614" lon="6.7353">
        <ele>394.9</ele>
        <time>2017-11-01T10:22:57.000Z</time>
      </trkpt>
      <trkpt lat="47.50618" lon="6.73534">
        <ele>395.1</ele>
        <time>2017-11-01T10:22:58.000Z</time>
      </trkpt>
      <trkpt lat="47.50619" lon="6.73537">
        <ele>395.3</ele>
        <time>2017-11-01T10:22:59.000Z</time>
      </trkpt>
      <trkpt lat="47.50622" lon="6.73541">
        <ele>395.7</ele>
        <time>2017-11-01T10:23:00.000Z</time>
      </trkpt>
      <trkpt lat="47.50626" lon="6.73543">
        <ele>396</ele>
        <time>2017-11-01T10:23:01.000Z</time>
      </trkpt>
      <trkpt lat="47.50629" lon="6.73547">
        <ele>396.4</ele>
        <time>2017-11-01T10:23:02.000Z</time>
      </trkpt>
      <trkpt lat="47.50631" lon="6.73548">
        <ele>396.8</ele>
        <time>2017-11-01T10:23:03.000Z</time>
      </trkpt>
      <trkpt lat="47.50633" lon="6.73553">
        <ele>397.2</ele>
        <time>2017-11-01T10:23:04.000Z</time>
      </trkpt>
      <trkpt lat="47.50636" lon="6.73556">
        <ele>399.7</ele>
        <time>2017-11-01T10:23:09.000Z</time>
      </trkpt>
      <trkpt lat="47.50637" lon="6.73558">
        <ele>400.1</ele>
        <time>2017-11-01T10:23:10.000Z</time>
      </trkpt>
      <trkpt lat="47.50637" lon="6.73564">
        <ele>400.9</ele>
        <time>2017-11-01T10:23:12.000Z</time>
      </trkpt>
      <trkpt lat="47.5064" lon="6.73567">
        <ele>401.5</ele>
        <time>2017-11-01T10:23:14.000Z</time>
      </trkpt>
      <trkpt lat="47.5064" lon="6.73571">
        <ele>402</ele>
        <time>2017-11-01T10:23:15.000Z</time>
      </trkpt>
      <trkpt lat="47.50641" lon="6.73574">
        <ele>402.4</ele>
        <time>2017-11-01T10:23:16.000Z</time>
      </trkpt>
      <trkpt lat="47.50641" lon="6.73578">
        <ele>402.7</ele>
        <time>2017-11-01T10:23:17.000Z</time>
      </trkpt>
      <trkpt lat="47.50642" lon="6.73583">
        <ele>403</ele>
        <time>2017-11-01T10:23:18.000Z</time>
      </trkpt>
      <trkpt lat="47.50642" lon="6.73587">
        <ele>403.4</ele>
        <time>2017-11-01T10:23:19.000Z</time>
      </trkpt>
      <trkpt lat="47.50643" lon="6.73592">
        <ele>403.6</ele>
        <time>2017-11-01T10:23:20.000Z</time>
      </trkpt>
      <trkpt lat="47.50645" lon="6.73597">
        <ele>403.9</ele>
        <time>2017-11-01T10:23:21.000Z</time>
      </trkpt>
      <trkpt lat="47.50646" lon="6.736">
        <ele>404.1</ele>
        <time>2017-11-01T10:23:22.000Z</time>
      </trkpt>
      <trkpt lat="47.50648" lon="6.73606">
        <ele>404.4</ele>
        <time>2017-11-01T10:23:24.000Z</time>
      </trkpt>
      <trkpt lat="47.50649" lon="6.73609">
        <ele>404.4</ele>
        <time>2017-11-01T10:23:25.000Z</time>
      </trkpt>
      <trkpt lat="47.50651" lon="6.73613">
        <ele>404.4</ele>
        <time>2017-11-01T10:23:26.000Z</time>
      </trkpt>
      <trkpt lat="47.50652" lon="6.73617">
        <ele>404.4</ele>
        <time>2017-11-01T10:23:27.000Z</time>
      </trkpt>
      <trkpt lat="47.50654" lon="6.73621">
        <ele>404.6</ele>
        <time>2017-11-01T10:23:28.000Z</time>
      </trkpt>
      <trkpt lat="47.50655" lon="6.73626">
        <ele>404.6</ele>
        <time>2017-11-01T10:23:29.000Z</time>
      </trkpt>
      <trkpt lat="47.50655" lon="6.7363">
        <ele>404.6</ele>
        <time>2017-11-01T10:23:30.000Z</time>
      </trkpt>
      <trkpt lat="47.50654" lon="6.73635">
        <ele>404.7</ele>
        <time>2017-11-01T10:23:31.000Z</time>
      </trkpt>
      <trkpt lat="47.50653" lon="6.73639">
        <ele>404.7</ele>
        <time>2017-11-01T10:23:32.000Z</time>
      </trkpt>
      <trkpt lat="47.50652" lon="6.73641">
        <ele>404.8</ele>
        <time>2017-11-01T10:23:33.000Z</time>
      </trkpt>
      <trkpt lat="47.50652" lon="6.73646">
        <ele>404.8</ele>
        <time>2017-11-01T10:23:33.999Z</time>
      </trkpt>
      <trkpt lat="47.50652" lon="6.73649">
        <ele>404.9</ele>
        <time>2017-11-01T10:23:34.999Z</time>
      </trkpt>
      <trkpt lat="47.50652" lon="6.73654">
        <ele>405</ele>
        <time>2017-11-01T10:23:35.999Z</time>
      </trkpt>
      <trkpt lat="47.50653" lon="6.73659">
        <ele>405</ele>
        <time>2017-11-01T10:23:36.999Z</time>
      </trkpt>
      <trkpt lat="47.50653" lon="6.73663">
        <ele>405</ele>
        <time>2017-11-01T10:23:37.999Z</time>
      </trkpt>
      <trkpt lat="47.50654" lon="6.73668">
        <ele>405.1</ele>
        <time>2017-11-01T10:23:38.999Z</time>
      </trkpt>
      <trkpt lat="47.50654" lon="6.73672">
        <ele>405.2</ele>
        <time>2017-11-01T10:23:39.999Z</time>
      </trkpt>
      <trkpt lat="47.50655" lon="6.73675">
        <ele>405.3</ele>
        <time>2017-11-01T10:23:40.999Z</time>
      </trkpt>
      <trkpt lat="47.50655" lon="6.73678">
        <ele>405.3</ele>
        <time>2017-11-01T10:23:41.999Z</time>
      </trkpt>
      <trkpt lat="47.50656" lon="6.73682">
        <ele>405.4</ele>
        <time>2017-11-01T10:23:42.999Z</time>
      </trkpt>
      <trkpt lat="47.50656" lon="6.73686">
        <ele>405.6</ele>
        <time>2017-11-01T10:23:43.999Z</time>
      </trkpt>
      <trkpt lat="47.50656" lon="6.73691">
        <ele>405.7</ele>
        <time>2017-11-01T10:23:44.999Z</time>
      </trkpt>
      <trkpt lat="47.50656" lon="6.73695">
        <ele>405.9</ele>
        <time>2017-11-01T10:23:45.999Z</time>
      </trkpt>
      <trkpt lat="47.50657" lon="6.737">
        <ele>406.1</ele>
        <time>2017-11-01T10:23:46.999Z</time>
      </trkpt>
      <trkpt lat="47.50657" lon="6.7371">
        <ele>406.3</ele>
        <time>2017-11-01T10:23:48.999Z</time>
      </trkpt>
      <trkpt lat="47.50657" lon="6.73716">
        <ele>406.3</ele>
        <time>2017-11-01T10:23:49.999Z</time>
      </trkpt>
      <trkpt lat="47.50656" lon="6.73721">
        <ele>406.4</ele>
        <time>2017-11-01T10:23:50.999Z</time>
      </trkpt>
      <trkpt lat="47.50657" lon="6.73727">
        <ele>406.5</ele>
        <time>2017-11-01T10:23:51.999Z</time>
      </trkpt>
      <trkpt lat="47.50656" lon="6.73731">
        <ele>406.6</ele>
        <time>2017-11-01T10:23:52.999Z</time>
      </trkpt>
      <trkpt lat="47.50656" lon="6.73737">
        <ele>406.7</ele>
        <time>2017-11-01T10:23:53.999Z</time>
      </trkpt>
      <trkpt lat="47.50655" lon="6.73743">
        <ele>406.9</ele>
        <time>2017-11-01T10:23:54.999Z</time>
      </trkpt>
      <trkpt lat="47.50655" lon="6.73749">
        <ele>407</ele>
        <time>2017-11-01T10:23:55.999Z</time>
      </trkpt>
      <trkpt lat="47.50654" lon="6.73754">
        <ele>408</ele>
        <time>2017-11-01T10:23:56.999Z</time>
      </trkpt>
      <trkpt lat="47.50653" lon="6.73772">
        <ele>408.8</ele>
        <time>2017-11-01T10:23:59.999Z</time>
      </trkpt>
      <trkpt lat="47.50653" lon="6.73778">
        <ele>408.9</ele>
        <time>2017-11-01T10:24:00.999Z</time>
      </trkpt>
      <trkpt lat="47.50653" lon="6.73784">
        <ele>409</ele>
        <time>2017-11-01T10:24:01.999Z</time>
      </trkpt>
      <trkpt lat="47.50653" lon="6.7379">
        <ele>409.1</ele>
        <time>2017-11-01T10:24:02.999Z</time>
      </trkpt>
      <trkpt lat="47.50652" lon="6.73796">
        <ele>409.1</ele>
        <time>2017-11-01T10:24:03.999Z</time>
      </trkpt>
      <trkpt lat="47.50651" lon="6.73802">
        <ele>409.1</ele>
        <time>2017-11-01T10:24:04.999Z</time>
      </trkpt>
      <trkpt lat="47.5065" lon="6.73808">
        <ele>409.2</ele>
        <time>2017-11-01T10:24:05.999Z</time>
      </trkpt>
      <trkpt lat="47.5065" lon="6.73812">
        <ele>409.2</ele>
        <time>2017-11-01T10:24:06.999Z</time>
      </trkpt>
      <trkpt lat="47.50649" lon="6.73825">
        <ele>409.3</ele>
        <time>2017-11-01T10:24:08.999Z</time>
      </trkpt>
      <trkpt lat="47.50648" lon="6.73832">
        <ele>409.7</ele>
        <time>2017-11-01T10:24:09.999Z</time>
      </trkpt>
      <trkpt lat="47.50647" lon="6.73837">
        <ele>410</ele>
        <time>2017-11-01T10:24:10.999Z</time>
      </trkpt>
      <trkpt lat="47.50647" lon="6.73842">
        <ele>410.1</ele>
        <time>2017-11-01T10:24:11.999Z</time>
      </trkpt>
      <trkpt lat="47.50646" lon="6.73846">
        <ele>410.2</ele>
        <time>2017-11-01T10:24:12.999Z</time>
      </trkpt>
      <trkpt lat="47.50645" lon="6.73852">
        <ele>410.2</ele>
        <time>2017-11-01T10:24:13.999Z</time>
      </trkpt>
      <trkpt lat="47.50644" lon="6.73861">
        <ele>410.2</ele>
        <time>2017-11-01T10:24:15.999Z</time>
      </trkpt>
      <trkpt lat="47.50644" lon="6.73865">
        <ele>410.2</ele>
        <time>2017-11-01T10:24:16.999Z</time>
      </trkpt>
      <trkpt lat="47.50642" lon="6.7387">
        <ele>410.2</ele>
        <time>2017-11-01T10:24:17.999Z</time>
      </trkpt>
      <trkpt lat="47.5064" lon="6.73875">
        <ele>410.1</ele>
        <time>2017-11-01T10:24:18.999Z</time>
      </trkpt>
      <trkpt lat="47.50638" lon="6.73881">
        <ele>410.1</ele>
        <time>2017-11-01T10:24:19.999Z</time>
      </trkpt>
      <trkpt lat="47.50637" lon="6.73883">
        <ele>410.1</ele>
        <time>2017-11-01T10:24:20.999Z</time>
      </trkpt>
      <trkpt lat="47.50635" lon="6.73886">
        <ele>409.9</ele>
        <time>2017-11-01T10:24:21.999Z</time>
      </trkpt>
      <trkpt lat="47.50634" lon="6.73889">
        <ele>409.7</ele>
        <time>2017-11-01T10:24:22.999Z</time>
      </trkpt>
      <trkpt lat="47.50633" lon="6.73893">
        <ele>409.6</ele>
        <time>2017-11-01T10:24:23.999Z</time>
      </trkpt>
      <trkpt lat="47.50632" lon="6.73899">
        <ele>409.4</ele>
        <time>2017-11-01T10:24:24.999Z</time>
      </trkpt>
      <trkpt lat="47.50631" lon="6.73904">
        <ele>409.3</ele>
        <time>2017-11-01T10:24:25.999Z</time>
      </trkpt>
      <trkpt lat="47.50629" lon="6.73908">
        <ele>409.2</ele>
        <time>2017-11-01T10:24:26.999Z</time>
      </trkpt>
      <trkpt lat="47.50627" lon="6.73913">
        <ele>409</ele>
        <time>2017-11-01T10:24:27.999Z</time>
      </trkpt>
      <trkpt lat="47.50625" lon="6.73917">
        <ele>408.9</ele>
        <time>2017-11-01T10:24:28.999Z</time>
      </trkpt>
      <trkpt lat="47.50623" lon="6.73921">
        <ele>408.7</ele>
        <time>2017-11-01T10:24:29.999Z</time>
      </trkpt>
      <trkpt lat="47.5062" lon="6.73924">
        <ele>408.6</ele>
        <time>2017-11-01T10:24:30.999Z</time>
      </trkpt>
      <trkpt lat="47.50619" lon="6.73927">
        <ele>408.5</ele>
        <time>2017-11-01T10:24:31.999Z</time>
      </trkpt>
      <trkpt lat="47.50617" lon="6.7393">
        <ele>408.4</ele>
        <time>2017-11-01T10:24:32.999Z</time>
      </trkpt>
      <trkpt lat="47.50614" lon="6.73934">
        <ele>407.1</ele>
        <time>2017-11-01T10:24:33.999Z</time>
      </trkpt>
      <trkpt lat="47.50612" lon="6.7394">
        <ele>405.9</ele>
        <time>2017-11-01T10:24:34.999Z</time>
      </trkpt>
      <trkpt lat="47.50611" lon="6.73946">
        <ele>404.7</ele>
        <time>2017-11-01T10:24:35.999Z</time>
      </trkpt>
      <trkpt lat="47.50609" lon="6.73951">
        <ele>404.5</ele>
        <time>2017-11-01T10:24:36.999Z</time>
      </trkpt>
      <trkpt lat="47.50607" lon="6.73957">
        <ele>404.4</ele>
        <time>2017-11-01T10:24:37.999Z</time>
      </trkpt>
      <trkpt lat="47.50605" lon="6.73964">
        <ele>403.1</ele>
        <time>2017-11-01T10:24:38.999Z</time>
      </trkpt>
      <trkpt lat="47.50603" lon="6.7397">
        <ele>401.8</ele>
        <time>2017-11-01T10:24:39.999Z</time>
      </trkpt>
      <trkpt lat="47.506" lon="6.73976">
        <ele>400.6</ele>
        <time>2017-11-01T10:24:40.999Z</time>
      </trkpt>
      <trkpt lat="47.50598" lon="6.73982">
        <ele>400.5</ele>
        <time>2017-11-01T10:24:41.999Z</time>
      </trkpt>
      <trkpt lat="47.50589" lon="6.74003">
        <ele>400.5</ele>
        <time>2017-11-01T10:24:44.999Z</time>
      </trkpt>
      <trkpt lat="47.50586" lon="6.7401">
        <ele>400.5</ele>
        <time>2017-11-01T10:24:45.999Z</time>
      </trkpt>
      <trkpt lat="47.50583" lon="6.74016">
        <ele>400.3</ele>
        <time>2017-11-01T10:24:46.999Z</time>
      </trkpt>
      <trkpt lat="47.50579" lon="6.74022">
        <ele>400.3</ele>
        <time>2017-11-01T10:24:47.999Z</time>
      </trkpt>
      <trkpt lat="47.50577" lon="6.74028">
        <ele>400.4</ele>
        <time>2017-11-01T10:24:48.999Z</time>
      </trkpt>
      <trkpt lat="47.50573" lon="6.74035">
        <ele>400.4</ele>
        <time>2017-11-01T10:24:49.999Z</time>
      </trkpt>
      <trkpt lat="47.5057" lon="6.7404">
        <ele>400.3</ele>
        <time>2017-11-01T10:24:50.999Z</time>
      </trkpt>
      <trkpt lat="47.50562" lon="6.74057">
        <ele>400.1</ele>
        <time>2017-11-01T10:24:53.999Z</time>
      </trkpt>
      <trkpt lat="47.5056" lon="6.74062">
        <ele>400.1</ele>
        <time>2017-11-01T10:24:54.999Z</time>
      </trkpt>
      <trkpt lat="47.50558" lon="6.74065">
        <ele>400.1</ele>
        <time>2017-11-01T10:24:55.999Z</time>
      </trkpt>
      <trkpt lat="47.50556" lon="6.74068">
        <ele>400.1</ele>
        <time>2017-11-01T10:24:56.999Z</time>
      </trkpt>
      <trkpt lat="47.50551" lon="6.7408">
        <ele>400.1</ele>
        <time>2017-11-01T10:24:58.999Z</time>
      </trkpt>
      <trkpt lat="47.50549" lon="6.74086">
        <ele>399.9</ele>
        <time>2017-11-01T10:24:59.999Z</time>
      </trkpt>
      <trkpt lat="47.50546" lon="6.74091">
        <ele>399.8</ele>
        <time>2017-11-01T10:25:00.999Z</time>
      </trkpt>
      <trkpt lat="47.50544" lon="6.74095">
        <ele>399.7</ele>
        <time>2017-11-01T10:25:01.999Z</time>
      </trkpt>
      <trkpt lat="47.50541" lon="6.74101">
        <ele>399.6</ele>
        <time>2017-11-01T10:25:02.999Z</time>
      </trkpt>
      <trkpt lat="47.50539" lon="6.74105">
        <ele>399.4</ele>
        <time>2017-11-01T10:25:03.999Z</time>
      </trkpt>
      <trkpt lat="47.50538" lon="6.7411">
        <ele>399.2</ele>
        <time>2017-11-01T10:25:04.999Z</time>
      </trkpt>
      <trkpt lat="47.50536" lon="6.74115">
        <ele>399</ele>
        <time>2017-11-01T10:25:05.999Z</time>
      </trkpt>
      <trkpt lat="47.50534" lon="6.7412">
        <ele>398.9</ele>
        <time>2017-11-01T10:25:06.999Z</time>
      </trkpt>
      <trkpt lat="47.50531" lon="6.74126">
        <ele>398.7</ele>
        <time>2017-11-01T10:25:07.999Z</time>
      </trkpt>
      <trkpt lat="47.50529" lon="6.7413">
        <ele>398.7</ele>
        <time>2017-11-01T10:25:08.999Z</time>
      </trkpt>
      <trkpt lat="47.50527" lon="6.74135">
        <ele>398.7</ele>
        <time>2017-11-01T10:25:09.999Z</time>
      </trkpt>
      <trkpt lat="47.50524" lon="6.7414">
        <ele>398.6</ele>
        <time>2017-11-01T10:25:10.999Z</time>
      </trkpt>
      <trkpt lat="47.50522" lon="6.74144">
        <ele>398.6</ele>
        <time>2017-11-01T10:25:11.999Z</time>
      </trkpt>
      <trkpt lat="47.50521" lon="6.74147">
        <ele>398.4</ele>
        <time>2017-11-01T10:25:12.999Z</time>
      </trkpt>
      <trkpt lat="47.50519" lon="6.74151">
        <ele>398.3</ele>
        <time>2017-11-01T10:25:13.999Z</time>
      </trkpt>
      <trkpt lat="47.50516" lon="6.74156">
        <ele>398.1</ele>
        <time>2017-11-01T10:25:14.999Z</time>
      </trkpt>
      <trkpt lat="47.50514" lon="6.7416">
        <ele>397.9</ele>
        <time>2017-11-01T10:25:15.999Z</time>
      </trkpt>
      <trkpt lat="47.50513" lon="6.74164">
        <ele>397.8</ele>
        <time>2017-11-01T10:25:16.999Z</time>
      </trkpt>
      <trkpt lat="47.50511" lon="6.74168">
        <ele>397.7</ele>
        <time>2017-11-01T10:25:17.999Z</time>
      </trkpt>
      <trkpt lat="47.50509" lon="6.74172">
        <ele>397.4</ele>
        <time>2017-11-01T10:25:19.999Z</time>
      </trkpt>
      <trkpt lat="47.50507" lon="6.74174">
        <ele>397.2</ele>
        <time>2017-11-01T10:25:20.999Z</time>
      </trkpt>
      <trkpt lat="47.50505" lon="6.74178">
        <ele>397.1</ele>
        <time>2017-11-01T10:25:21.999Z</time>
      </trkpt>
      <trkpt lat="47.50503" lon="6.74183">
        <ele>396.9</ele>
        <time>2017-11-01T10:25:22.999Z</time>
      </trkpt>
      <trkpt lat="47.505" lon="6.74187">
        <ele>396.7</ele>
        <time>2017-11-01T10:25:23.999Z</time>
      </trkpt>
      <trkpt lat="47.50497" lon="6.74191">
        <ele>396.5</ele>
        <time>2017-11-01T10:25:24.999Z</time>
      </trkpt>
      <trkpt lat="47.50495" lon="6.74197">
        <ele>396.3</ele>
        <time>2017-11-01T10:25:25.999Z</time>
      </trkpt>
      <trkpt lat="47.50493" lon="6.74202">
        <ele>396.1</ele>
        <time>2017-11-01T10:25:26.999Z</time>
      </trkpt>
      <trkpt lat="47.5049" lon="6.74208">
        <ele>396</ele>
        <time>2017-11-01T10:25:27.999Z</time>
      </trkpt>
      <trkpt lat="47.50489" lon="6.74212">
        <ele>395.7</ele>
        <time>2017-11-01T10:25:28.999Z</time>
      </trkpt>
      <trkpt lat="47.50488" lon="6.74215">
        <ele>395.5</ele>
        <time>2017-11-01T10:25:29.999Z</time>
      </trkpt>
      <trkpt lat="47.50487" lon="6.74219">
        <ele>395.3</ele>
        <time>2017-11-01T10:25:30.999Z</time>
      </trkpt>
      <trkpt lat="47.50485" lon="6.74223">
        <ele>395.1</ele>
        <time>2017-11-01T10:25:31.999Z</time>
      </trkpt>
      <trkpt lat="47.50484" lon="6.74227">
        <ele>394.9</ele>
        <time>2017-11-01T10:25:32.999Z</time>
      </trkpt>
      <trkpt lat="47.50483" lon="6.74232">
        <ele>394.7</ele>
        <time>2017-11-01T10:25:33.999Z</time>
      </trkpt>
      <trkpt lat="47.50481" lon="6.74237">
        <ele>394.6</ele>
        <time>2017-11-01T10:25:34.999Z</time>
      </trkpt>
      <trkpt lat="47.5048" lon="6.74242">
        <ele>394.5</ele>
        <time>2017-11-01T10:25:35.999Z</time>
      </trkpt>
      <trkpt lat="47.50478" lon="6.74248">
        <ele>394.5</ele>
        <time>2017-11-01T10:25:36.999Z</time>
      </trkpt>
      <trkpt lat="47.50476" lon="6.74253">
        <ele>394.5</ele>
        <time>2017-11-01T10:25:37.999Z</time>
      </trkpt>
      <trkpt lat="47.50474" lon="6.74258">
        <ele>394.5</ele>
        <time>2017-11-01T10:25:38.999Z</time>
      </trkpt>
      <trkpt lat="47.50471" lon="6.74265">
        <ele>394.5</ele>
        <time>2017-11-01T10:25:39.999Z</time>
      </trkpt>
      <trkpt lat="47.50469" lon="6.74272">
        <ele>394.6</ele>
        <time>2017-11-01T10:25:40.999Z</time>
      </trkpt>
      <trkpt lat="47.50467" lon="6.74276">
        <ele>395.2</ele>
        <time>2017-11-01T10:25:41.999Z</time>
      </trkpt>
      <trkpt lat="47.50464" lon="6.74281">
        <ele>395.9</ele>
        <time>2017-11-01T10:25:42.999Z</time>
      </trkpt>
      <trkpt lat="47.50462" lon="6.74287">
        <ele>396.7</ele>
        <time>2017-11-01T10:25:43.999Z</time>
      </trkpt>
      <trkpt lat="47.50459" lon="6.74292">
        <ele>397.3</ele>
        <time>2017-11-01T10:25:44.999Z</time>
      </trkpt>
      <trkpt lat="47.50456" lon="6.74298">
        <ele>397.4</ele>
        <time>2017-11-01T10:25:45.999Z</time>
      </trkpt>
      <trkpt lat="47.50453" lon="6.74304">
        <ele>397.4</ele>
        <time>2017-11-01T10:25:46.999Z</time>
      </trkpt>
      <trkpt lat="47.5045" lon="6.74311">
        <ele>397.5</ele>
        <time>2017-11-01T10:25:47.999Z</time>
      </trkpt>
      <trkpt lat="47.50448" lon="6.74316">
        <ele>397.6</ele>
        <time>2017-11-01T10:25:48.999Z</time>
      </trkpt>
      <trkpt lat="47.50445" lon="6.74322">
        <ele>397.5</ele>
        <time>2017-11-01T10:25:49.999Z</time>
      </trkpt>
      <trkpt lat="47.50443" lon="6.74326">
        <ele>397.3</ele>
        <time>2017-11-01T10:25:50.999Z</time>
      </trkpt>
      <trkpt lat="47.50441" lon="6.74331">
        <ele>396.7</ele>
        <time>2017-11-01T10:25:51.999Z</time>
      </trkpt>
      <trkpt lat="47.50438" lon="6.74337">
        <ele>395.9</ele>
        <time>2017-11-01T10:25:52.999Z</time>
      </trkpt>
      <trkpt lat="47.50436" lon="6.74342">
        <ele>395.9</ele>
        <time>2017-11-01T10:25:53.999Z</time>
      </trkpt>
      <trkpt lat="47.50433" lon="6.74346">
        <ele>395.9</ele>
        <time>2017-11-01T10:25:54.999Z</time>
      </trkpt>
      <trkpt lat="47.5043" lon="6.74352">
        <ele>395.4</ele>
        <time>2017-11-01T10:25:55.999Z</time>
      </trkpt>
      <trkpt lat="47.50428" lon="6.74356">
        <ele>395.7</ele>
        <time>2017-11-01T10:25:56.999Z</time>
      </trkpt>
      <trkpt lat="47.50426" lon="6.7436">
        <ele>396.1</ele>
        <time>2017-11-01T10:25:57.999Z</time>
      </trkpt>
      <trkpt lat="47.50424" lon="6.74366">
        <ele>396.2</ele>
        <time>2017-11-01T10:25:58.999Z</time>
      </trkpt>
      <trkpt lat="47.50422" lon="6.7437">
        <ele>396.3</ele>
        <time>2017-11-01T10:25:59.999Z</time>
      </trkpt>
      <trkpt lat="47.5042" lon="6.74374">
        <ele>396.4</ele>
        <time>2017-11-01T10:26:00.999Z</time>
      </trkpt>
      <trkpt lat="47.50419" lon="6.74379">
        <ele>396.5</ele>
        <time>2017-11-01T10:26:01.999Z</time>
      </trkpt>
      <trkpt lat="47.50417" lon="6.74383">
        <ele>396.6</ele>
        <time>2017-11-01T10:26:02.999Z</time>
      </trkpt>
      <trkpt lat="47.50415" lon="6.74387">
        <ele>396.7</ele>
        <time>2017-11-01T10:26:03.999Z</time>
      </trkpt>
      <trkpt lat="47.50412" lon="6.74391">
        <ele>396.8</ele>
        <time>2017-11-01T10:26:04.999Z</time>
      </trkpt>
      <trkpt lat="47.5041" lon="6.74395">
        <ele>396.9</ele>
        <time>2017-11-01T10:26:05.999Z</time>
      </trkpt>
      <trkpt lat="47.50407" lon="6.744">
        <ele>397.9</ele>
        <time>2017-11-01T10:26:06.999Z</time>
      </trkpt>
      <trkpt lat="47.50405" lon="6.74406">
        <ele>398.7</ele>
        <time>2017-11-01T10:26:07.999Z</time>
      </trkpt>
      <trkpt lat="47.50402" lon="6.74411">
        <ele>399.5</ele>
        <time>2017-11-01T10:26:08.999Z</time>
      </trkpt>
      <trkpt lat="47.50398" lon="6.74417">
        <ele>400.3</ele>
        <time>2017-11-01T10:26:09.999Z</time>
      </trkpt>
      <trkpt lat="47.50395" lon="6.74423">
        <ele>401</ele>
        <time>2017-11-01T10:26:10.999Z</time>
      </trkpt>
      <trkpt lat="47.50393" lon="6.74429">
        <ele>401.7</ele>
        <time>2017-11-01T10:26:11.999Z</time>
      </trkpt>
      <trkpt lat="47.5039" lon="6.74436">
        <ele>402.5</ele>
        <time>2017-11-01T10:26:12.999Z</time>
      </trkpt>
      <trkpt lat="47.50387" lon="6.74442">
        <ele>402.9</ele>
        <time>2017-11-01T10:26:13.999Z</time>
      </trkpt>
      <trkpt lat="47.50385" lon="6.74448">
        <ele>403.2</ele>
        <time>2017-11-01T10:26:14.999Z</time>
      </trkpt>
      <trkpt lat="47.50383" lon="6.74454">
        <ele>403.6</ele>
        <time>2017-11-01T10:26:15.999Z</time>
      </trkpt>
      <trkpt lat="47.5038" lon="6.7446">
        <ele>403.6</ele>
        <time>2017-11-01T10:26:16.999Z</time>
      </trkpt>
      <trkpt lat="47.50378" lon="6.74467">
        <ele>403.3</ele>
        <time>2017-11-01T10:26:17.999Z</time>
      </trkpt>
      <trkpt lat="47.50377" lon="6.74472">
        <ele>403.3</ele>
        <time>2017-11-01T10:26:18.999Z</time>
      </trkpt>
      <trkpt lat="47.50375" lon="6.74477">
        <ele>403.3</ele>
        <time>2017-11-01T10:26:19.999Z</time>
      </trkpt>
      <trkpt lat="47.50373" lon="6.74483">
        <ele>403.3</ele>
        <time>2017-11-01T10:26:20.999Z</time>
      </trkpt>
      <trkpt lat="47.50372" lon="6.74488">
        <ele>403.3</ele>
        <time>2017-11-01T10:26:21.999Z</time>
      </trkpt>
      <trkpt lat="47.50371" lon="6.74495">
        <ele>403.4</ele>
        <time>2017-11-01T10:26:22.999Z</time>
      </trkpt>
      <trkpt lat="47.50371" lon="6.74501">
        <ele>403</ele>
        <time>2017-11-01T10:26:23.999Z</time>
      </trkpt>
      <trkpt lat="47.50372" lon="6.74506">
        <ele>403</ele>
        <time>2017-11-01T10:26:24.999Z</time>
      </trkpt>
      <trkpt lat="47.50374" lon="6.74513">
        <ele>402.2</ele>
        <time>2017-11-01T10:26:25.999Z</time>
      </trkpt>
      <trkpt lat="47.50376" lon="6.74518">
        <ele>402.1</ele>
        <time>2017-11-01T10:26:26.999Z</time>
      </trkpt>
      <trkpt lat="47.50378" lon="6.74523">
        <ele>402</ele>
        <time>2017-11-01T10:26:27.999Z</time>
      </trkpt>
      <trkpt lat="47.5038" lon="6.74528">
        <ele>401.7</ele>
        <time>2017-11-01T10:26:28.999Z</time>
      </trkpt>
      <trkpt lat="47.50382" lon="6.74533">
        <ele>401.7</ele>
        <time>2017-11-01T10:26:29.999Z</time>
      </trkpt>
      <trkpt lat="47.50384" lon="6.74537">
        <ele>401.7</ele>
        <time>2017-11-01T10:26:30.999Z</time>
      </trkpt>
      <trkpt lat="47.50386" lon="6.74543">
        <ele>401</ele>
        <time>2017-11-01T10:26:31.999Z</time>
      </trkpt>
      <trkpt lat="47.50387" lon="6.74548">
        <ele>400.9</ele>
        <time>2017-11-01T10:26:32.999Z</time>
      </trkpt>
      <trkpt lat="47.50388" lon="6.74554">
        <ele>400.8</ele>
        <time>2017-11-01T10:26:33.999Z</time>
      </trkpt>
      <trkpt lat="47.50389" lon="6.74561">
        <ele>400.8</ele>
        <time>2017-11-01T10:26:34.999Z</time>
      </trkpt>
      <trkpt lat="47.5039" lon="6.74566">
        <ele>400.2</ele>
        <time>2017-11-01T10:26:35.999Z</time>
      </trkpt>
      <trkpt lat="47.50391" lon="6.74571">
        <ele>399.5</ele>
        <time>2017-11-01T10:26:36.999Z</time>
      </trkpt>
      <trkpt lat="47.50391" lon="6.74577">
        <ele>398.6</ele>
        <time>2017-11-01T10:26:37.999Z</time>
      </trkpt>
      <trkpt lat="47.50392" lon="6.74584">
        <ele>398.2</ele>
        <time>2017-11-01T10:26:38.999Z</time>
      </trkpt>
      <trkpt lat="47.50392" lon="6.74588">
        <ele>398.2</ele>
        <time>2017-11-01T10:26:39.999Z</time>
      </trkpt>
      <trkpt lat="47.50393" lon="6.74595">
        <ele>398.1</ele>
        <time>2017-11-01T10:26:40.999Z</time>
      </trkpt>
      <trkpt lat="47.50393" lon="6.74601">
        <ele>398.2</ele>
        <time>2017-11-01T10:26:41.999Z</time>
      </trkpt>
      <trkpt lat="47.50394" lon="6.74607">
        <ele>398.3</ele>
        <time>2017-11-01T10:26:42.999Z</time>
      </trkpt>
      <trkpt lat="47.50395" lon="6.74614">
        <ele>398.3</ele>
        <time>2017-11-01T10:26:43.999Z</time>
      </trkpt>
      <trkpt lat="47.50396" lon="6.7462">
        <ele>398.9</ele>
        <time>2017-11-01T10:26:44.999Z</time>
      </trkpt>
      <trkpt lat="47.50397" lon="6.74627">
        <ele>399.1</ele>
        <time>2017-11-01T10:26:45.999Z</time>
      </trkpt>
      <trkpt lat="47.50398" lon="6.74634">
        <ele>398.7</ele>
        <time>2017-11-01T10:26:46.999Z</time>
      </trkpt>
      <trkpt lat="47.50398" lon="6.7464">
        <ele>398.7</ele>
        <time>2017-11-01T10:26:47.999Z</time>
      </trkpt>
      <trkpt lat="47.50399" lon="6.74646">
        <ele>399.3</ele>
        <time>2017-11-01T10:26:48.999Z</time>
      </trkpt>
      <trkpt lat="47.50399" lon="6.74653">
        <ele>399.9</ele>
        <time>2017-11-01T10:26:49.999Z</time>
      </trkpt>
      <trkpt lat="47.504" lon="6.74659">
        <ele>400.6</ele>
        <time>2017-11-01T10:26:50.999Z</time>
      </trkpt>
      <trkpt lat="47.504" lon="6.74665">
        <ele>401.5</ele>
        <time>2017-11-01T10:26:51.999Z</time>
      </trkpt>
      <trkpt lat="47.504" lon="6.74672">
        <ele>401.2</ele>
        <time>2017-11-01T10:26:52.999Z</time>
      </trkpt>
      <trkpt lat="47.504" lon="6.74679">
        <ele>400.8</ele>
        <time>2017-11-01T10:26:53.999Z</time>
      </trkpt>
      <trkpt lat="47.50399" lon="6.74686">
        <ele>400.2</ele>
        <time>2017-11-01T10:26:54.999Z</time>
      </trkpt>
      <trkpt lat="47.50397" lon="6.74692">
        <ele>400</ele>
        <time>2017-11-01T10:26:55.999Z</time>
      </trkpt>
      <trkpt lat="47.50395" lon="6.74698">
        <ele>399.9</ele>
        <time>2017-11-01T10:26:56.999Z</time>
      </trkpt>
      <trkpt lat="47.50394" lon="6.74704">
        <ele>399.8</ele>
        <time>2017-11-01T10:26:57.999Z</time>
      </trkpt>
      <trkpt lat="47.50392" lon="6.74709">
        <ele>400</ele>
        <time>2017-11-01T10:26:58.999Z</time>
      </trkpt>
      <trkpt lat="47.50391" lon="6.74713">
        <ele>400</ele>
        <time>2017-11-01T10:26:59.999Z</time>
      </trkpt>
      <trkpt lat="47.50389" lon="6.74719">
        <ele>399.9</ele>
        <time>2017-11-01T10:27:00.999Z</time>
      </trkpt>
      <trkpt lat="47.50387" lon="6.74724">
        <ele>399.9</ele>
        <time>2017-11-01T10:27:01.999Z</time>
      </trkpt>
      <trkpt lat="47.50386" lon="6.74728">
        <ele>399.5</ele>
        <time>2017-11-01T10:27:02.999Z</time>
      </trkpt>
      <trkpt lat="47.50384" lon="6.74734">
        <ele>399.6</ele>
        <time>2017-11-01T10:27:03.999Z</time>
      </trkpt>
      <trkpt lat="47.50382" lon="6.7474">
        <ele>399.8</ele>
        <time>2017-11-01T10:27:04.999Z</time>
      </trkpt>
      <trkpt lat="47.5038" lon="6.74747">
        <ele>400.2</ele>
        <time>2017-11-01T10:27:05.999Z</time>
      </trkpt>
      <trkpt lat="47.50378" lon="6.74754">
        <ele>400</ele>
        <time>2017-11-01T10:27:06.999Z</time>
      </trkpt>
      <trkpt lat="47.50375" lon="6.74761">
        <ele>400.4</ele>
        <time>2017-11-01T10:27:07.999Z</time>
      </trkpt>
      <trkpt lat="47.50373" lon="6.74768">
        <ele>400.2</ele>
        <time>2017-11-01T10:27:08.999Z</time>
      </trkpt>
      <trkpt lat="47.50371" lon="6.74774">
        <ele>399.6</ele>
        <time>2017-11-01T10:27:09.999Z</time>
      </trkpt>
      <trkpt lat="47.50368" lon="6.74782">
        <ele>399.4</ele>
        <time>2017-11-01T10:27:10.999Z</time>
      </trkpt>
      <trkpt lat="47.50367" lon="6.74788">
        <ele>399.4</ele>
        <time>2017-11-01T10:27:11.999Z</time>
      </trkpt>
      <trkpt lat="47.50365" lon="6.74793">
        <ele>399.6</ele>
        <time>2017-11-01T10:27:12.999Z</time>
      </trkpt>
      <trkpt lat="47.50364" lon="6.74799">
        <ele>399.8</ele>
        <time>2017-11-01T10:27:13.999Z</time>
      </trkpt>
      <trkpt lat="47.50362" lon="6.74807">
        <ele>400.1</ele>
        <time>2017-11-01T10:27:14.999Z</time>
      </trkpt>
      <trkpt lat="47.5036" lon="6.74814">
        <ele>400.3</ele>
        <time>2017-11-01T10:27:15.999Z</time>
      </trkpt>
      <trkpt lat="47.50358" lon="6.7482">
        <ele>400</ele>
        <time>2017-11-01T10:27:16.999Z</time>
      </trkpt>
      <trkpt lat="47.50357" lon="6.74827">
        <ele>399.7</ele>
        <time>2017-11-01T10:27:17.999Z</time>
      </trkpt>
      <trkpt lat="47.50355" lon="6.74834">
        <ele>399.4</ele>
        <time>2017-11-01T10:27:18.999Z</time>
      </trkpt>
      <trkpt lat="47.50353" lon="6.74841">
        <ele>399</ele>
        <time>2017-11-01T10:27:19.999Z</time>
      </trkpt>
      <trkpt lat="47.50351" lon="6.74848">
        <ele>398.8</ele>
        <time>2017-11-01T10:27:20.999Z</time>
      </trkpt>
      <trkpt lat="47.50349" lon="6.74855">
        <ele>398.9</ele>
        <time>2017-11-01T10:27:21.999Z</time>
      </trkpt>
      <trkpt lat="47.50347" lon="6.74861">
        <ele>399.1</ele>
        <time>2017-11-01T10:27:22.999Z</time>
      </trkpt>
      <trkpt lat="47.50345" lon="6.7487">
        <ele>398.2</ele>
        <time>2017-11-01T10:27:23.999Z</time>
      </trkpt>
      <trkpt lat="47.50343" lon="6.74878">
        <ele>397.6</ele>
        <time>2017-11-01T10:27:24.999Z</time>
      </trkpt>
      <trkpt lat="47.50341" lon="6.74885">
        <ele>397.6</ele>
        <time>2017-11-01T10:27:25.999Z</time>
      </trkpt>
      <trkpt lat="47.50339" lon="6.74891">
        <ele>397.6</ele>
        <time>2017-11-01T10:27:26.999Z</time>
      </trkpt>
      <trkpt lat="47.50337" lon="6.74898">
        <ele>397.9</ele>
        <time>2017-11-01T10:27:27.999Z</time>
      </trkpt>
      <trkpt lat="47.50335" lon="6.74906">
        <ele>398.3</ele>
        <time>2017-11-01T10:27:28.999Z</time>
      </trkpt>
      <trkpt lat="47.50333" lon="6.74913">
        <ele>398.2</ele>
        <time>2017-11-01T10:27:29.999Z</time>
      </trkpt>
      <trkpt lat="47.50331" lon="6.74919">
        <ele>398</ele>
        <time>2017-11-01T10:27:30.999Z</time>
      </trkpt>
      <trkpt lat="47.50329" lon="6.74927">
        <ele>398</ele>
        <time>2017-11-01T10:27:31.999Z</time>
      </trkpt>
      <trkpt lat="47.50328" lon="6.74934">
        <ele>397.5</ele>
        <time>2017-11-01T10:27:32.999Z</time>
      </trkpt>
      <trkpt lat="47.50326" lon="6.74941">
        <ele>396.8</ele>
        <time>2017-11-01T10:27:33.999Z</time>
      </trkpt>
      <trkpt lat="47.50324" lon="6.74947">
        <ele>395.8</ele>
        <time>2017-11-01T10:27:34.999Z</time>
      </trkpt>
      <trkpt lat="47.50322" lon="6.74954">
        <ele>394.6</ele>
        <time>2017-11-01T10:27:35.999Z</time>
      </trkpt>
      <trkpt lat="47.5032" lon="6.74962">
        <ele>393.1</ele>
        <time>2017-11-01T10:27:36.999Z</time>
      </trkpt>
      <trkpt lat="47.50318" lon="6.7497">
        <ele>391.9</ele>
        <time>2017-11-01T10:27:37.999Z</time>
      </trkpt>
      <trkpt lat="47.50316" lon="6.74975">
        <ele>391</ele>
        <time>2017-11-01T10:27:38.999Z</time>
      </trkpt>
      <trkpt lat="47.50314" lon="6.74981">
        <ele>390.8</ele>
        <time>2017-11-01T10:27:39.999Z</time>
      </trkpt>
      <trkpt lat="47.50311" lon="6.74987">
        <ele>390.6</ele>
        <time>2017-11-01T10:27:40.999Z</time>
      </trkpt>
      <trkpt lat="47.50307" lon="6.74992">
        <ele>390.6</ele>
        <time>2017-11-01T10:27:41.999Z</time>
      </trkpt>
      <trkpt lat="47.50305" lon="6.74996">
        <ele>390.4</ele>
        <time>2017-11-01T10:27:42.999Z</time>
      </trkpt>
      <trkpt lat="47.503" lon="6.75">
        <ele>390.3</ele>
        <time>2017-11-01T10:27:43.999Z</time>
      </trkpt>
      <trkpt lat="47.50296" lon="6.75004">
        <ele>390.2</ele>
        <time>2017-11-01T10:27:44.999Z</time>
      </trkpt>
      <trkpt lat="47.50291" lon="6.75008">
        <ele>390.1</ele>
        <time>2017-11-01T10:27:45.999Z</time>
      </trkpt>
      <trkpt lat="47.50286" lon="6.75012">
        <ele>388.5</ele>
        <time>2017-11-01T10:27:46.999Z</time>
      </trkpt>
      <trkpt lat="47.50281" lon="6.75017">
        <ele>387</ele>
        <time>2017-11-01T10:27:47.999Z</time>
      </trkpt>
      <trkpt lat="47.50277" lon="6.75019">
        <ele>385.4</ele>
        <time>2017-11-01T10:27:48.999Z</time>
      </trkpt>
      <trkpt lat="47.50273" lon="6.75022">
        <ele>385.2</ele>
        <time>2017-11-01T10:27:49.999Z</time>
      </trkpt>
      <trkpt lat="47.50271" lon="6.75025">
        <ele>385</ele>
        <time>2017-11-01T10:27:50.999Z</time>
      </trkpt>
      <trkpt lat="47.50268" lon="6.75026">
        <ele>384.8</ele>
        <time>2017-11-01T10:27:51.999Z</time>
      </trkpt>
      <trkpt lat="47.50263" lon="6.75025">
        <ele>384.6</ele>
        <time>2017-11-01T10:27:52.999Z</time>
      </trkpt>
      <trkpt lat="47.5026" lon="6.75022">
        <ele>384.4</ele>
        <time>2017-11-01T10:27:53.999Z</time>
      </trkpt>
      <trkpt lat="47.50257" lon="6.7502">
        <ele>384.2</ele>
        <time>2017-11-01T10:27:54.999Z</time>
      </trkpt>
      <trkpt lat="47.50254" lon="6.75016">
        <ele>384.1</ele>
        <time>2017-11-01T10:27:56.999Z</time>
      </trkpt>
      <trkpt lat="47.50254" lon="6.7501">
        <ele>384</ele>
        <time>2017-11-01T10:27:57.999Z</time>
      </trkpt>
      <trkpt lat="47.50252" lon="6.75003">
        <ele>383.4</ele>
        <time>2017-11-01T10:27:58.999Z</time>
      </trkpt>
      <trkpt lat="47.5025" lon="6.74995">
        <ele>382.7</ele>
        <time>2017-11-01T10:27:59.999Z</time>
      </trkpt>
      <trkpt lat="47.50248" lon="6.74988">
        <ele>381.7</ele>
        <time>2017-11-01T10:28:00.999Z</time>
      </trkpt>
      <trkpt lat="47.50245" lon="6.7498">
        <ele>380.6</ele>
        <time>2017-11-01T10:28:01.999Z</time>
      </trkpt>
      <trkpt lat="47.50242" lon="6.74974">
        <ele>379.8</ele>
        <time>2017-11-01T10:28:02.999Z</time>
      </trkpt>
      <trkpt lat="47.50239" lon="6.7497">
        <ele>379.6</ele>
        <time>2017-11-01T10:28:03.999Z</time>
      </trkpt>
      <trkpt lat="47.50237" lon="6.74967">
        <ele>379.2</ele>
        <time>2017-11-01T10:28:04.999Z</time>
      </trkpt>
      <trkpt lat="47.50234" lon="6.74964">
        <ele>379.2</ele>
        <time>2017-11-01T10:28:05.999Z</time>
      </trkpt>
      <trkpt lat="47.50233" lon="6.74962">
        <ele>379.2</ele>
        <time>2017-11-01T10:28:06.999Z</time>
      </trkpt>
      <trkpt lat="47.50231" lon="6.7496">
        <ele>379.3</ele>
        <time>2017-11-01T10:28:07.999Z</time>
      </trkpt>
      <trkpt lat="47.50227" lon="6.74957">
        <ele>379.3</ele>
        <time>2017-11-01T10:28:08.999Z</time>
      </trkpt>
      <trkpt lat="47.50224" lon="6.74957">
        <ele>379.2</ele>
        <time>2017-11-01T10:28:09.999Z</time>
      </trkpt>
      <trkpt lat="47.50222" lon="6.74959">
        <ele>379.2</ele>
        <time>2017-11-01T10:28:10.999Z</time>
      </trkpt>
      <trkpt lat="47.50218" lon="6.74962">
        <ele>379.2</ele>
        <time>2017-11-01T10:28:11.999Z</time>
      </trkpt>
      <trkpt lat="47.50215" lon="6.74965">
        <ele>378.9</ele>
        <time>2017-11-01T10:28:12.999Z</time>
      </trkpt>
      <trkpt lat="47.50211" lon="6.74969">
        <ele>378.5</ele>
        <time>2017-11-01T10:28:13.999Z</time>
      </trkpt>
      <trkpt lat="47.50208" lon="6.74974">
        <ele>377.9</ele>
        <time>2017-11-01T10:28:14.999Z</time>
      </trkpt>
      <trkpt lat="47.50205" lon="6.74978">
        <ele>378</ele>
        <time>2017-11-01T10:28:15.999Z</time>
      </trkpt>
      <trkpt lat="47.50202" lon="6.74983">
        <ele>378.2</ele>
        <time>2017-11-01T10:28:16.999Z</time>
      </trkpt>
      <trkpt lat="47.50199" lon="6.74989">
        <ele>378.6</ele>
        <time>2017-11-01T10:28:17.999Z</time>
      </trkpt>
      <trkpt lat="47.50197" lon="6.74995">
        <ele>378.7</ele>
        <time>2017-11-01T10:28:18.999Z</time>
      </trkpt>
      <trkpt lat="47.50195" lon="6.75002">
        <ele>378.9</ele>
        <time>2017-11-01T10:28:19.999Z</time>
      </trkpt>
      <trkpt lat="47.50195" lon="6.75009">
        <ele>379.2</ele>
        <time>2017-11-01T10:28:20.999Z</time>
      </trkpt>
      <trkpt lat="47.50194" lon="6.75016">
        <ele>379.2</ele>
        <time>2017-11-01T10:28:21.999Z</time>
      </trkpt>
      <trkpt lat="47.50193" lon="6.75023">
        <ele>379</ele>
        <time>2017-11-01T10:28:22.999Z</time>
      </trkpt>
      <trkpt lat="47.50192" lon="6.75032">
        <ele>378.7</ele>
        <time>2017-11-01T10:28:23.999Z</time>
      </trkpt>
      <trkpt lat="47.50191" lon="6.7504">
        <ele>378.2</ele>
        <time>2017-11-01T10:28:24.999Z</time>
      </trkpt>
      <trkpt lat="47.50191" lon="6.75048">
        <ele>377.9</ele>
        <time>2017-11-01T10:28:25.999Z</time>
      </trkpt>
      <trkpt lat="47.5019" lon="6.75057">
        <ele>377.1</ele>
        <time>2017-11-01T10:28:26.999Z</time>
      </trkpt>
      <trkpt lat="47.50189" lon="6.75065">
        <ele>376.2</ele>
        <time>2017-11-01T10:28:27.999Z</time>
      </trkpt>
      <trkpt lat="47.50188" lon="6.75075">
        <ele>375.4</ele>
        <time>2017-11-01T10:28:28.999Z</time>
      </trkpt>
      <trkpt lat="47.50187" lon="6.75084">
        <ele>374.8</ele>
        <time>2017-11-01T10:28:29.999Z</time>
      </trkpt>
      <trkpt lat="47.50186" lon="6.75093">
        <ele>374.3</ele>
        <time>2017-11-01T10:28:30.999Z</time>
      </trkpt>
      <trkpt lat="47.50184" lon="6.75103">
        <ele>373.9</ele>
        <time>2017-11-01T10:28:31.999Z</time>
      </trkpt>
      <trkpt lat="47.50183" lon="6.75112">
        <ele>373.8</ele>
        <time>2017-11-01T10:28:32.999Z</time>
      </trkpt>
      <trkpt lat="47.50178" lon="6.75118">
        <ele>373.2</ele>
        <time>2017-11-01T10:28:33.999Z</time>
      </trkpt>
      <trkpt lat="47.50173" lon="6.75122">
        <ele>372.5</ele>
        <time>2017-11-01T10:28:34.999Z</time>
      </trkpt>
      <trkpt lat="47.50168" lon="6.75128">
        <ele>371.2</ele>
        <time>2017-11-01T10:28:35.999Z</time>
      </trkpt>
      <trkpt lat="47.50163" lon="6.75134">
        <ele>370.6</ele>
        <time>2017-11-01T10:28:36.999Z</time>
      </trkpt>
      <trkpt lat="47.50158" lon="6.75139">
        <ele>370.1</ele>
        <time>2017-11-01T10:28:37.999Z</time>
      </trkpt>
      <trkpt lat="47.50153" lon="6.75144">
        <ele>369.3</ele>
        <time>2017-11-01T10:28:38.999Z</time>
      </trkpt>
      <trkpt lat="47.50147" lon="6.75149">
        <ele>368.8</ele>
        <time>2017-11-01T10:28:39.999Z</time>
      </trkpt>
      <trkpt lat="47.50142" lon="6.75153">
        <ele>368.4</ele>
        <time>2017-11-01T10:28:40.999Z</time>
      </trkpt>
      <trkpt lat="47.50137" lon="6.75158">
        <ele>368.5</ele>
        <time>2017-11-01T10:28:41.999Z</time>
      </trkpt>
      <trkpt lat="47.50131" lon="6.75163">
        <ele>368.6</ele>
        <time>2017-11-01T10:28:42.999Z</time>
      </trkpt>
      <trkpt lat="47.50126" lon="6.75167">
        <ele>368.2</ele>
        <time>2017-11-01T10:28:43.999Z</time>
      </trkpt>
      <trkpt lat="47.50119" lon="6.75172">
        <ele>368.5</ele>
        <time>2017-11-01T10:28:44.999Z</time>
      </trkpt>
      <trkpt lat="47.50114" lon="6.75177">
        <ele>368.8</ele>
        <time>2017-11-01T10:28:45.999Z</time>
      </trkpt>
      <trkpt lat="47.50109" lon="6.75181">
        <ele>368.7</ele>
        <time>2017-11-01T10:28:46.999Z</time>
      </trkpt>
      <trkpt lat="47.50104" lon="6.75183">
        <ele>368.6</ele>
        <time>2017-11-01T10:28:47.999Z</time>
      </trkpt>
      <trkpt lat="47.50098" lon="6.75187">
        <ele>367.4</ele>
        <time>2017-11-01T10:28:48.999Z</time>
      </trkpt>
      <trkpt lat="47.50093" lon="6.75189">
        <ele>366.9</ele>
        <time>2017-11-01T10:28:49.999Z</time>
      </trkpt>
      <trkpt lat="47.50088" lon="6.75192">
        <ele>366.1</ele>
        <time>2017-11-01T10:28:50.999Z</time>
      </trkpt>
      <trkpt lat="47.50083" lon="6.75194">
        <ele>366.1</ele>
        <time>2017-11-01T10:28:51.999Z</time>
      </trkpt>
      <trkpt lat="47.50078" lon="6.75196">
        <ele>366.1</ele>
        <time>2017-11-01T10:28:52.999Z</time>
      </trkpt>
      <trkpt lat="47.50072" lon="6.75198">
        <ele>365.7</ele>
        <time>2017-11-01T10:28:53.999Z</time>
      </trkpt>
      <trkpt lat="47.50068" lon="6.75199">
        <ele>366.4</ele>
        <time>2017-11-01T10:28:54.999Z</time>
      </trkpt>
      <trkpt lat="47.50062" lon="6.75201">
        <ele>367.2</ele>
        <time>2017-11-01T10:28:55.999Z</time>
      </trkpt>
      <trkpt lat="47.50056" lon="6.75202">
        <ele>367.4</ele>
        <time>2017-11-01T10:28:56.999Z</time>
      </trkpt>
      <trkpt lat="47.50051" lon="6.75202">
        <ele>367.4</ele>
        <time>2017-11-01T10:28:57.999Z</time>
      </trkpt>
      <trkpt lat="47.50045" lon="6.75203">
        <ele>367.5</ele>
        <time>2017-11-01T10:28:58.999Z</time>
      </trkpt>
      <trkpt lat="47.5004" lon="6.75204">
        <ele>367.3</ele>
        <time>2017-11-01T10:28:59.999Z</time>
      </trkpt>
      <trkpt lat="47.50035" lon="6.75205">
        <ele>366.7</ele>
        <time>2017-11-01T10:29:00.999Z</time>
      </trkpt>
      <trkpt lat="47.5003" lon="6.75208">
        <ele>366.3</ele>
        <time>2017-11-01T10:29:01.999Z</time>
      </trkpt>
      <trkpt lat="47.50025" lon="6.75211">
        <ele>366</ele>
        <time>2017-11-01T10:29:02.999Z</time>
      </trkpt>
      <trkpt lat="47.5002" lon="6.75216">
        <ele>366.3</ele>
        <time>2017-11-01T10:29:03.999Z</time>
      </trkpt>
      <trkpt lat="47.50016" lon="6.75221">
        <ele>366.8</ele>
        <time>2017-11-01T10:29:04.999Z</time>
      </trkpt>
      <trkpt lat="47.50013" lon="6.75226">
        <ele>367.6</ele>
        <time>2017-11-01T10:29:05.999Z</time>
      </trkpt>
      <trkpt lat="47.5001" lon="6.75231">
        <ele>368.6</ele>
        <time>2017-11-01T10:29:06.999Z</time>
      </trkpt>
      <trkpt lat="47.50009" lon="6.75238">
        <ele>369.1</ele>
        <time>2017-11-01T10:29:07.999Z</time>
      </trkpt>
      <trkpt lat="47.50007" lon="6.75245">
        <ele>369.8</ele>
        <time>2017-11-01T10:29:08.999Z</time>
      </trkpt>
      <trkpt lat="47.50006" lon="6.75251">
        <ele>370.3</ele>
        <time>2017-11-01T10:29:09.999Z</time>
      </trkpt>
      <trkpt lat="47.50005" lon="6.75257">
        <ele>370.6</ele>
        <time>2017-11-01T10:29:10.999Z</time>
      </trkpt>
      <trkpt lat="47.50005" lon="6.75264">
        <ele>370.2</ele>
        <time>2017-11-01T10:29:11.999Z</time>
      </trkpt>
      <trkpt lat="47.50006" lon="6.75271">
        <ele>369.7</ele>
        <time>2017-11-01T10:29:12.999Z</time>
      </trkpt>
      <trkpt lat="47.50006" lon="6.7528">
        <ele>369.2</ele>
        <time>2017-11-01T10:29:13.999Z</time>
      </trkpt>
      <trkpt lat="47.50007" lon="6.75288">
        <ele>368.8</ele>
        <time>2017-11-01T10:29:14.999Z</time>
      </trkpt>
      <trkpt lat="47.50007" lon="6.75295">
        <ele>368.8</ele>
        <time>2017-11-01T10:29:15.999Z</time>
      </trkpt>
      <trkpt lat="47.50008" lon="6.75302">
        <ele>368.3</ele>
        <time>2017-11-01T10:29:16.999Z</time>
      </trkpt>
      <trkpt lat="47.50008" lon="6.75309">
        <ele>368.3</ele>
        <time>2017-11-01T10:29:17.999Z</time>
      </trkpt>
      <trkpt lat="47.50008" lon="6.75313">
        <ele>368.1</ele>
        <time>2017-11-01T10:29:18.999Z</time>
      </trkpt>
      <trkpt lat="47.50009" lon="6.75319">
        <ele>368</ele>
        <time>2017-11-01T10:29:19.999Z</time>
      </trkpt>
      <trkpt lat="47.5001" lon="6.75327">
        <ele>368</ele>
        <time>2017-11-01T10:29:20.999Z</time>
      </trkpt>
      <trkpt lat="47.5001" lon="6.75334">
        <ele>367.5</ele>
        <time>2017-11-01T10:29:21.999Z</time>
      </trkpt>
      <trkpt lat="47.50011" lon="6.75341">
        <ele>367.1</ele>
        <time>2017-11-01T10:29:22.999Z</time>
      </trkpt>
      <trkpt lat="47.50011" lon="6.75346">
        <ele>366.7</ele>
        <time>2017-11-01T10:29:23.999Z</time>
      </trkpt>
      <trkpt lat="47.50011" lon="6.75352">
        <ele>366.8</ele>
        <time>2017-11-01T10:29:24.999Z</time>
      </trkpt>
      <trkpt lat="47.5001" lon="6.75358">
        <ele>366.8</ele>
        <time>2017-11-01T10:29:25.999Z</time>
      </trkpt>
      <trkpt lat="47.50009" lon="6.75364">
        <ele>367.3</ele>
        <time>2017-11-01T10:29:26.999Z</time>
      </trkpt>
      <trkpt lat="47.50008" lon="6.7537">
        <ele>367.4</ele>
        <time>2017-11-01T10:29:27.999Z</time>
      </trkpt>
      <trkpt lat="47.50007" lon="6.75374">
        <ele>367.5</ele>
        <time>2017-11-01T10:29:28.999Z</time>
      </trkpt>
      <trkpt lat="47.50006" lon="6.75378">
        <ele>367.6</ele>
        <time>2017-11-01T10:29:29.999Z</time>
      </trkpt>
      <trkpt lat="47.50004" lon="6.75382">
        <ele>367.7</ele>
        <time>2017-11-01T10:29:30.999Z</time>
      </trkpt>
      <trkpt lat="47.50002" lon="6.75386">
        <ele>367.8</ele>
        <time>2017-11-01T10:29:31.999Z</time>
      </trkpt>
      <trkpt lat="47.49999" lon="6.7539">
        <ele>367.9</ele>
        <time>2017-11-01T10:29:32.999Z</time>
      </trkpt>
      <trkpt lat="47.49997" lon="6.75394">
        <ele>368</ele>
        <time>2017-11-01T10:29:33.999Z</time>
      </trkpt>
      <trkpt lat="47.49995" lon="6.75396">
        <ele>368.2</ele>
        <time>2017-11-01T10:29:34.999Z</time>
      </trkpt>
      <trkpt lat="47.49993" lon="6.75399">
        <ele>368.2</ele>
        <time>2017-11-01T10:29:35.999Z</time>
      </trkpt>
      <trkpt lat="47.49991" lon="6.75401">
        <ele>368.3</ele>
        <time>2017-11-01T10:29:36.999Z</time>
      </trkpt>
      <trkpt lat="47.49988" lon="6.75405">
        <ele>369.1</ele>
        <time>2017-11-01T10:29:45.999Z</time>
      </trkpt>
      <trkpt lat="47.49983" lon="6.75416">
        <ele>369.2</ele>
        <time>2017-11-01T10:29:46.999Z</time>
      </trkpt>
      <trkpt lat="47.49983" lon="6.75416">
        <ele>372.6</ele>
        <time>2017-11-01T10:31:01.999Z</time>
      </trkpt>
      <trkpt lat="47.4999" lon="6.75426">
        <ele>372.8</ele>
        <time>2017-11-01T10:31:02.999Z</time>
      </trkpt>
      <trkpt lat="47.49991" lon="6.75429">
        <ele>372.9</ele>
        <time>2017-11-01T10:31:03.999Z</time>
      </trkpt>
      <trkpt lat="47.49992" lon="6.75432">
        <ele>373</ele>
        <time>2017-11-01T10:31:04.999Z</time>
      </trkpt>
      <trkpt lat="47.49994" lon="6.75434">
        <ele>373.1</ele>
        <time>2017-11-01T10:31:05.999Z</time>
      </trkpt>
      <trkpt lat="47.49995" lon="6.75438">
        <ele>373.2</ele>
        <time>2017-11-01T10:31:06.999Z</time>
      </trkpt>
      <trkpt lat="47.49997" lon="6.75443">
        <ele>373.2</ele>
        <time>2017-11-01T10:31:07.999Z</time>
      </trkpt>
      <trkpt lat="47.49996" lon="6.75446">
        <ele>373.3</ele>
        <time>2017-11-01T10:31:08.999Z</time>
      </trkpt>
      <trkpt lat="47.49998" lon="6.7545">
        <ele>373.5</ele>
        <time>2017-11-01T10:31:10.999Z</time>
      </trkpt>
      <trkpt lat="47.49999" lon="6.75452">
        <ele>373.5</ele>
        <time>2017-11-01T10:31:11.999Z</time>
      </trkpt>
      <trkpt lat="47.5" lon="6.75454">
        <ele>373.5</ele>
        <time>2017-11-01T10:31:12.999Z</time>
      </trkpt>
      <trkpt lat="47.50002" lon="6.75456">
        <ele>373.5</ele>
        <time>2017-11-01T10:31:13.999Z</time>
      </trkpt>
      <trkpt lat="47.50004" lon="6.7546">
        <ele>373.5</ele>
        <time>2017-11-01T10:31:14.999Z</time>
      </trkpt>
      <trkpt lat="47.50006" lon="6.75464">
        <ele>373.4</ele>
        <time>2017-11-01T10:31:15.999Z</time>
      </trkpt>
      <trkpt lat="47.50008" lon="6.75468">
        <ele>373.3</ele>
        <time>2017-11-01T10:31:16.999Z</time>
      </trkpt>
      <trkpt lat="47.5001" lon="6.75472">
        <ele>373.3</ele>
        <time>2017-11-01T10:31:17.999Z</time>
      </trkpt>
      <trkpt lat="47.50011" lon="6.75475">
        <ele>373.2</ele>
        <time>2017-11-01T10:31:18.999Z</time>
      </trkpt>
      <trkpt lat="47.50012" lon="6.75478">
        <ele>373.3</ele>
        <time>2017-11-01T10:31:19.999Z</time>
      </trkpt>
      <trkpt lat="47.50014" lon="6.75482">
        <ele>373.4</ele>
        <time>2017-11-01T10:31:21.999Z</time>
      </trkpt>
      <trkpt lat="47.50016" lon="6.75486">
        <ele>373.4</ele>
        <time>2017-11-01T10:31:22.999Z</time>
      </trkpt>
      <trkpt lat="47.50017" lon="6.75491">
        <ele>373.3</ele>
        <time>2017-11-01T10:31:24.999Z</time>
      </trkpt>
      <trkpt lat="47.50017" lon="6.75493">
        <ele>373.2</ele>
        <time>2017-11-01T10:31:25.999Z</time>
      </trkpt>
      <trkpt lat="47.50018" lon="6.75497">
        <ele>373.1</ele>
        <time>2017-11-01T10:31:26.999Z</time>
      </trkpt>
      <trkpt lat="47.50018" lon="6.75501">
        <ele>373</ele>
        <time>2017-11-01T10:31:27.999Z</time>
      </trkpt>
      <trkpt lat="47.50018" lon="6.75503">
        <ele>372.9</ele>
        <time>2017-11-01T10:31:28.999Z</time>
      </trkpt>
      <trkpt lat="47.50019" lon="6.75507">
        <ele>372.7</ele>
        <time>2017-11-01T10:31:29.999Z</time>
      </trkpt>
      <trkpt lat="47.50018" lon="6.75511">
        <ele>372.5</ele>
        <time>2017-11-01T10:31:30.999Z</time>
      </trkpt>
      <trkpt lat="47.50018" lon="6.75515">
        <ele>372.4</ele>
        <time>2017-11-01T10:31:31.999Z</time>
      </trkpt>
      <trkpt lat="47.50017" lon="6.75521">
        <ele>372.1</ele>
        <time>2017-11-01T10:31:33.999Z</time>
      </trkpt>
      <trkpt lat="47.50017" lon="6.75523">
        <ele>372</ele>
        <time>2017-11-01T10:31:34.999Z</time>
      </trkpt>
      <trkpt lat="47.50019" lon="6.75527">
        <ele>371.9</ele>
        <time>2017-11-01T10:31:36.999Z</time>
      </trkpt>
      <trkpt lat="47.5002" lon="6.7553">
        <ele>372</ele>
        <time>2017-11-01T10:31:37.999Z</time>
      </trkpt>
      <trkpt lat="47.5002" lon="6.75533">
        <ele>372.1</ele>
        <time>2017-11-01T10:31:38.999Z</time>
      </trkpt>
      <trkpt lat="47.50021" lon="6.75536">
        <ele>372.2</ele>
        <time>2017-11-01T10:31:39.999Z</time>
      </trkpt>
      <trkpt lat="47.50022" lon="6.75542">
        <ele>372.4</ele>
        <time>2017-11-01T10:31:41.999Z</time>
      </trkpt>
      <trkpt lat="47.50023" lon="6.75546">
        <ele>372.5</ele>
        <time>2017-11-01T10:31:42.999Z</time>
      </trkpt>
      <trkpt lat="47.50025" lon="6.75549">
        <ele>372.7</ele>
        <time>2017-11-01T10:31:43.999Z</time>
      </trkpt>
      <trkpt lat="47.50026" lon="6.75551">
        <ele>372.8</ele>
        <time>2017-11-01T10:31:44.999Z</time>
      </trkpt>
      <trkpt lat="47.50027" lon="6.75554">
        <ele>372.9</ele>
        <time>2017-11-01T10:31:45.999Z</time>
      </trkpt>
      <trkpt lat="47.50028" lon="6.75557">
        <ele>373</ele>
        <time>2017-11-01T10:31:46.999Z</time>
      </trkpt>
      <trkpt lat="47.50029" lon="6.75561">
        <ele>373.2</ele>
        <time>2017-11-01T10:31:47.999Z</time>
      </trkpt>
      <trkpt lat="47.5003" lon="6.75564">
        <ele>373.3</ele>
        <time>2017-11-01T10:31:48.999Z</time>
      </trkpt>
      <trkpt lat="47.50032" lon="6.75568">
        <ele>373.7</ele>
        <time>2017-11-01T10:31:50.999Z</time>
      </trkpt>
      <trkpt lat="47.50033" lon="6.75571">
        <ele>373.9</ele>
        <time>2017-11-01T10:31:51.999Z</time>
      </trkpt>
      <trkpt lat="47.50035" lon="6.75576">
        <ele>374.3</ele>
        <time>2017-11-01T10:31:53.999Z</time>
      </trkpt>
      <trkpt lat="47.50036" lon="6.75578">
        <ele>374.5</ele>
        <time>2017-11-01T10:31:54.999Z</time>
      </trkpt>
      <trkpt lat="47.50038" lon="6.75584">
        <ele>375</ele>
        <time>2017-11-01T10:31:56.999Z</time>
      </trkpt>
      <trkpt lat="47.50039" lon="6.75586">
        <ele>375.2</ele>
        <time>2017-11-01T10:31:57.999Z</time>
      </trkpt>
      <trkpt lat="47.50039" lon="6.75589">
        <ele>375.7</ele>
        <time>2017-11-01T10:31:59.999Z</time>
      </trkpt>
      <trkpt lat="47.5004" lon="6.75593">
        <ele>375.8</ele>
        <time>2017-11-01T10:32:00.999Z</time>
      </trkpt>
      <trkpt lat="47.50041" lon="6.75597">
        <ele>376</ele>
        <time>2017-11-01T10:32:02.999Z</time>
      </trkpt>
      <trkpt lat="47.50042" lon="6.75599">
        <ele>376.1</ele>
        <time>2017-11-01T10:32:03.999Z</time>
      </trkpt>
      <trkpt lat="47.50044" lon="6.75604">
        <ele>376.4</ele>
        <time>2017-11-01T10:32:05.999Z</time>
      </trkpt>
      <trkpt lat="47.50045" lon="6.75607">
        <ele>376.6</ele>
        <time>2017-11-01T10:32:06.999Z</time>
      </trkpt>
      <trkpt lat="47.50047" lon="6.75612">
        <ele>376.7</ele>
        <time>2017-11-01T10:32:07.999Z</time>
      </trkpt>
      <trkpt lat="47.50048" lon="6.75614">
        <ele>376.8</ele>
        <time>2017-11-01T10:32:08.999Z</time>
      </trkpt>
      <trkpt lat="47.50049" lon="6.75618">
        <ele>376.9</ele>
        <time>2017-11-01T10:32:09.999Z</time>
      </trkpt>
      <trkpt lat="47.5005" lon="6.75621">
        <ele>377</ele>
        <time>2017-11-01T10:32:10.999Z</time>
      </trkpt>
      <trkpt lat="47.50052" lon="6.75626">
        <ele>377.2</ele>
        <time>2017-11-01T10:32:12.999Z</time>
      </trkpt>
      <trkpt lat="47.50053" lon="6.75629">
        <ele>377.3</ele>
        <time>2017-11-01T10:32:13.999Z</time>
      </trkpt>
      <trkpt lat="47.50056" lon="6.75633">
        <ele>377.3</ele>
        <time>2017-11-01T10:32:15.999Z</time>
      </trkpt>
      <trkpt lat="47.50057" lon="6.75636">
        <ele>377.4</ele>
        <time>2017-11-01T10:32:16.999Z</time>
      </trkpt>
      <trkpt lat="47.5006" lon="6.7564">
        <ele>377.6</ele>
        <time>2017-11-01T10:32:18.999Z</time>
      </trkpt>
      <trkpt lat="47.50061" lon="6.75642">
        <ele>377.7</ele>
        <time>2017-11-01T10:32:19.999Z</time>
      </trkpt>
      <trkpt lat="47.50064" lon="6.75646">
        <ele>378</ele>
        <time>2017-11-01T10:32:21.999Z</time>
      </trkpt>
      <trkpt lat="47.50066" lon="6.75649">
        <ele>378.1</ele>
        <time>2017-11-01T10:32:22.999Z</time>
      </trkpt>
      <trkpt lat="47.50068" lon="6.75653">
        <ele>378.4</ele>
        <time>2017-11-01T10:32:24.999Z</time>
      </trkpt>
      <trkpt lat="47.50069" lon="6.75654">
        <ele>378.6</ele>
        <time>2017-11-01T10:32:25.999Z</time>
      </trkpt>
      <trkpt lat="47.50071" lon="6.75659">
        <ele>378.9</ele>
        <time>2017-11-01T10:32:28.999Z</time>
      </trkpt>
      <trkpt lat="47.50072" lon="6.75662">
        <ele>379</ele>
        <time>2017-11-01T10:32:29.999Z</time>
      </trkpt>
      <trkpt lat="47.50074" lon="6.75666">
        <ele>379.2</ele>
        <time>2017-11-01T10:32:31.999Z</time>
      </trkpt>
      <trkpt lat="47.50075" lon="6.75668">
        <ele>379.3</ele>
        <time>2017-11-01T10:32:32.999Z</time>
      </trkpt>
      <trkpt lat="47.50076" lon="6.75671">
        <ele>379.5</ele>
        <time>2017-11-01T10:32:34.999Z</time>
      </trkpt>
      <trkpt lat="47.50077" lon="6.75674">
        <ele>379.6</ele>
        <time>2017-11-01T10:32:35.999Z</time>
      </trkpt>
      <trkpt lat="47.50079" lon="6.75678">
        <ele>379.7</ele>
        <time>2017-11-01T10:32:37.999Z</time>
      </trkpt>
      <trkpt lat="47.50079" lon="6.7568">
        <ele>379.8</ele>
        <time>2017-11-01T10:32:38.999Z</time>
      </trkpt>
      <trkpt lat="47.50081" lon="6.75685">
        <ele>380</ele>
        <time>2017-11-01T10:32:40.999Z</time>
      </trkpt>
      <trkpt lat="47.50083" lon="6.75687">
        <ele>380.1</ele>
        <time>2017-11-01T10:32:41.999Z</time>
      </trkpt>
      <trkpt lat="47.50084" lon="6.75689">
        <ele>380</ele>
        <time>2017-11-01T10:32:42.999Z</time>
      </trkpt>
      <trkpt lat="47.50086" lon="6.75692">
        <ele>380</ele>
        <time>2017-11-01T10:32:43.999Z</time>
      </trkpt>
      <trkpt lat="47.50088" lon="6.75696">
        <ele>380.2</ele>
        <time>2017-11-01T10:32:45.999Z</time>
      </trkpt>
      <trkpt lat="47.5009" lon="6.75698">
        <ele>380.1</ele>
        <time>2017-11-01T10:32:46.999Z</time>
      </trkpt>
      <trkpt lat="47.50093" lon="6.75701">
        <ele>380.2</ele>
        <time>2017-11-01T10:32:48.999Z</time>
      </trkpt>
      <trkpt lat="47.50095" lon="6.75702">
        <ele>380.2</ele>
        <time>2017-11-01T10:32:49.999Z</time>
      </trkpt>
      <trkpt lat="47.50098" lon="6.75706">
        <ele>380.2</ele>
        <time>2017-11-01T10:32:51.999Z</time>
      </trkpt>
      <trkpt lat="47.50101" lon="6.7571">
        <ele>380.2</ele>
        <time>2017-11-01T10:32:52.999Z</time>
      </trkpt>
      <trkpt lat="47.50104" lon="6.75713">
        <ele>380</ele>
        <time>2017-11-01T10:32:54.999Z</time>
      </trkpt>
      <trkpt lat="47.50105" lon="6.75715">
        <ele>380</ele>
        <time>2017-11-01T10:32:55.999Z</time>
      </trkpt>
      <trkpt lat="47.50109" lon="6.75718">
        <ele>379.9</ele>
        <time>2017-11-01T10:32:57.999Z</time>
      </trkpt>
      <trkpt lat="47.5011" lon="6.75719">
        <ele>379.7</ele>
        <time>2017-11-01T10:32:58.999Z</time>
      </trkpt>
      <trkpt lat="47.50113" lon="6.75722">
        <ele>379.7</ele>
        <time>2017-11-01T10:33:00.999Z</time>
      </trkpt>
      <trkpt lat="47.50114" lon="6.75724">
        <ele>379.8</ele>
        <time>2017-11-01T10:33:01.999Z</time>
      </trkpt>
      <trkpt lat="47.50116" lon="6.75728">
        <ele>380.2</ele>
        <time>2017-11-01T10:33:04.999Z</time>
      </trkpt>
      <trkpt lat="47.50118" lon="6.7573">
        <ele>380.4</ele>
        <time>2017-11-01T10:33:05.999Z</time>
      </trkpt>
      <trkpt lat="47.5012" lon="6.75732">
        <ele>380.6</ele>
        <time>2017-11-01T10:33:06.999Z</time>
      </trkpt>
      <trkpt lat="47.50122" lon="6.75733">
        <ele>380.8</ele>
        <time>2017-11-01T10:33:07.999Z</time>
      </trkpt>
      <trkpt lat="47.50124" lon="6.75735">
        <ele>381</ele>
        <time>2017-11-01T10:33:08.999Z</time>
      </trkpt>
      <trkpt lat="47.50125" lon="6.75737">
        <ele>381.2</ele>
        <time>2017-11-01T10:33:09.999Z</time>
      </trkpt>
      <trkpt lat="47.50129" lon="6.75741">
        <ele>381.5</ele>
        <time>2017-11-01T10:33:11.999Z</time>
      </trkpt>
      <trkpt lat="47.50129" lon="6.75743">
        <ele>381.6</ele>
        <time>2017-11-01T10:33:12.999Z</time>
      </trkpt>
      <trkpt lat="47.50133" lon="6.75746">
        <ele>381.9</ele>
        <time>2017-11-01T10:33:14.999Z</time>
      </trkpt>
      <trkpt lat="47.50134" lon="6.75748">
        <ele>382</ele>
        <time>2017-11-01T10:33:15.999Z</time>
      </trkpt>
      <trkpt lat="47.50136" lon="6.75753">
        <ele>382.3</ele>
        <time>2017-11-01T10:33:17.999Z</time>
      </trkpt>
      <trkpt lat="47.50138" lon="6.75754">
        <ele>382.4</ele>
        <time>2017-11-01T10:33:18.999Z</time>
      </trkpt>
      <trkpt lat="47.5014" lon="6.75758">
        <ele>382.7</ele>
        <time>2017-11-01T10:33:20.999Z</time>
      </trkpt>
      <trkpt lat="47.50142" lon="6.7576">
        <ele>382.8</ele>
        <time>2017-11-01T10:33:21.999Z</time>
      </trkpt>
      <trkpt lat="47.50144" lon="6.75762">
        <ele>383</ele>
        <time>2017-11-01T10:33:22.999Z</time>
      </trkpt>
      <trkpt lat="47.50146" lon="6.75764">
        <ele>383.2</ele>
        <time>2017-11-01T10:33:23.999Z</time>
      </trkpt>
      <trkpt lat="47.50149" lon="6.75769">
        <ele>383.3</ele>
        <time>2017-11-01T10:33:25.999Z</time>
      </trkpt>
      <trkpt lat="47.50151" lon="6.7577">
        <ele>383.3</ele>
        <time>2017-11-01T10:33:26.999Z</time>
      </trkpt>
      <trkpt lat="47.50154" lon="6.75774">
        <ele>383.4</ele>
        <time>2017-11-01T10:33:28.999Z</time>
      </trkpt>
      <trkpt lat="47.50156" lon="6.75775">
        <ele>383.4</ele>
        <time>2017-11-01T10:33:29.999Z</time>
      </trkpt>
      <trkpt lat="47.50159" lon="6.75779">
        <ele>383.4</ele>
        <time>2017-11-01T10:33:31.999Z</time>
      </trkpt>
      <trkpt lat="47.50161" lon="6.7578">
        <ele>383.3</ele>
        <time>2017-11-01T10:33:32.999Z</time>
      </trkpt>
      <trkpt lat="47.50163" lon="6.75784">
        <ele>383.2</ele>
        <time>2017-11-01T10:33:34.999Z</time>
      </trkpt>
      <trkpt lat="47.50165" lon="6.75785">
        <ele>383.1</ele>
        <time>2017-11-01T10:33:35.999Z</time>
      </trkpt>
      <trkpt lat="47.50166" lon="6.75787">
        <ele>383.1</ele>
        <time>2017-11-01T10:33:36.999Z</time>
      </trkpt>
      <trkpt lat="47.50167" lon="6.75791">
        <ele>383</ele>
        <time>2017-11-01T10:33:37.999Z</time>
      </trkpt>
      <trkpt lat="47.50168" lon="6.75794">
        <ele>382.9</ele>
        <time>2017-11-01T10:33:38.999Z</time>
      </trkpt>
      <trkpt lat="47.5017" lon="6.75796">
        <ele>382.8</ele>
        <time>2017-11-01T10:33:39.999Z</time>
      </trkpt>
      <trkpt lat="47.50173" lon="6.758">
        <ele>382.7</ele>
        <time>2017-11-01T10:33:41.999Z</time>
      </trkpt>
      <trkpt lat="47.50174" lon="6.75802">
        <ele>382.6</ele>
        <time>2017-11-01T10:33:42.999Z</time>
      </trkpt>
      <trkpt lat="47.50176" lon="6.75806">
        <ele>382.5</ele>
        <time>2017-11-01T10:33:44.999Z</time>
      </trkpt>
      <trkpt lat="47.50176" lon="6.75808">
        <ele>382.5</ele>
        <time>2017-11-01T10:33:45.999Z</time>
      </trkpt>
      <trkpt lat="47.50178" lon="6.75813">
        <ele>382.3</ele>
        <time>2017-11-01T10:33:48.999Z</time>
      </trkpt>
      <trkpt lat="47.50179" lon="6.75815">
        <ele>382.2</ele>
        <time>2017-11-01T10:33:49.999Z</time>
      </trkpt>
      <trkpt lat="47.5018" lon="6.7582">
        <ele>382</ele>
        <time>2017-11-01T10:33:51.999Z</time>
      </trkpt>
      <trkpt lat="47.50181" lon="6.75823">
        <ele>382</ele>
        <time>2017-11-01T10:33:52.999Z</time>
      </trkpt>
      <trkpt lat="47.50182" lon="6.75826">
        <ele>382.1</ele>
        <time>2017-11-01T10:33:53.999Z</time>
      </trkpt>
      <trkpt lat="47.50183" lon="6.75829">
        <ele>382.1</ele>
        <time>2017-11-01T10:33:54.999Z</time>
      </trkpt>
      <trkpt lat="47.50186" lon="6.75833">
        <ele>381.9</ele>
        <time>2017-11-01T10:33:56.999Z</time>
      </trkpt>
      <trkpt lat="47.50187" lon="6.75837">
        <ele>381.8</ele>
        <time>2017-11-01T10:33:57.999Z</time>
      </trkpt>
      <trkpt lat="47.50188" lon="6.7584">
        <ele>381.7</ele>
        <time>2017-11-01T10:33:58.999Z</time>
      </trkpt>
      <trkpt lat="47.50189" lon="6.75843">
        <ele>381.6</ele>
        <time>2017-11-01T10:33:59.999Z</time>
      </trkpt>
      <trkpt lat="47.50191" lon="6.75847">
        <ele>381.5</ele>
        <time>2017-11-01T10:34:01.999Z</time>
      </trkpt>
      <trkpt lat="47.50192" lon="6.75849">
        <ele>381.5</ele>
        <time>2017-11-01T10:34:02.999Z</time>
      </trkpt>
      <trkpt lat="47.50192" lon="6.75852">
        <ele>381.4</ele>
        <time>2017-11-01T10:34:03.999Z</time>
      </trkpt>
      <trkpt lat="47.50193" lon="6.75856">
        <ele>381.4</ele>
        <time>2017-11-01T10:34:04.999Z</time>
      </trkpt>
      <trkpt lat="47.50195" lon="6.75861">
        <ele>381.5</ele>
        <time>2017-11-01T10:34:06.999Z</time>
      </trkpt>
      <trkpt lat="47.50196" lon="6.75862">
        <ele>381.6</ele>
        <time>2017-11-01T10:34:07.999Z</time>
      </trkpt>
      <trkpt lat="47.502" lon="6.75867">
        <ele>381.7</ele>
        <time>2017-11-01T10:34:09.999Z</time>
      </trkpt>
      <trkpt lat="47.50201" lon="6.7587">
        <ele>381.9</ele>
        <time>2017-11-01T10:34:10.999Z</time>
      </trkpt>
      <trkpt lat="47.50202" lon="6.75875">
        <ele>382.2</ele>
        <time>2017-11-01T10:34:12.999Z</time>
      </trkpt>
      <trkpt lat="47.50203" lon="6.75878">
        <ele>382.3</ele>
        <time>2017-11-01T10:34:13.999Z</time>
      </trkpt>
      <trkpt lat="47.50204" lon="6.75882">
        <ele>382.6</ele>
        <time>2017-11-01T10:34:15.999Z</time>
      </trkpt>
      <trkpt lat="47.50204" lon="6.75884">
        <ele>382.7</ele>
        <time>2017-11-01T10:34:16.999Z</time>
      </trkpt>
      <trkpt lat="47.50207" lon="6.75888">
        <ele>382.8</ele>
        <time>2017-11-01T10:34:18.999Z</time>
      </trkpt>
      <trkpt lat="47.50208" lon="6.75891">
        <ele>383</ele>
        <time>2017-11-01T10:34:19.999Z</time>
      </trkpt>
      <trkpt lat="47.5021" lon="6.75896">
        <ele>383.5</ele>
        <time>2017-11-01T10:34:21.999Z</time>
      </trkpt>
      <trkpt lat="47.50211" lon="6.75898">
        <ele>383.8</ele>
        <time>2017-11-01T10:34:22.999Z</time>
      </trkpt>
      <trkpt lat="47.50213" lon="6.75903">
        <ele>384.2</ele>
        <time>2017-11-01T10:34:24.999Z</time>
      </trkpt>
      <trkpt lat="47.50214" lon="6.75905">
        <ele>384.4</ele>
        <time>2017-11-01T10:34:25.999Z</time>
      </trkpt>
      <trkpt lat="47.50214" lon="6.7591">
        <ele>384.8</ele>
        <time>2017-11-01T10:34:27.999Z</time>
      </trkpt>
      <trkpt lat="47.50215" lon="6.75912">
        <ele>385.1</ele>
        <time>2017-11-01T10:34:28.999Z</time>
      </trkpt>
      <trkpt lat="47.50216" lon="6.75915">
        <ele>385.4</ele>
        <time>2017-11-01T10:34:29.999Z</time>
      </trkpt>
      <trkpt lat="47.50217" lon="6.75919">
        <ele>385.7</ele>
        <time>2017-11-01T10:34:30.999Z</time>
      </trkpt>
      <trkpt lat="47.50219" lon="6.75924">
        <ele>386.2</ele>
        <time>2017-11-01T10:34:32.999Z</time>
      </trkpt>
      <trkpt lat="47.5022" lon="6.75927">
        <ele>386.5</ele>
        <time>2017-11-01T10:34:33.999Z</time>
      </trkpt>
      <trkpt lat="47.50222" lon="6.75933">
        <ele>387</ele>
        <time>2017-11-01T10:34:35.999Z</time>
      </trkpt>
      <trkpt lat="47.50223" lon="6.75937">
        <ele>387.3</ele>
        <time>2017-11-01T10:34:36.999Z</time>
      </trkpt>
      <trkpt lat="47.50224" lon="6.7594">
        <ele>387.8</ele>
        <time>2017-11-01T10:34:38.999Z</time>
      </trkpt>
      <trkpt lat="47.50224" lon="6.75943">
        <ele>388</ele>
        <time>2017-11-01T10:34:39.999Z</time>
      </trkpt>
      <trkpt lat="47.50225" lon="6.75949">
        <ele>388.5</ele>
        <time>2017-11-01T10:34:41.999Z</time>
      </trkpt>
      <trkpt lat="47.50225" lon="6.75951">
        <ele>388.7</ele>
        <time>2017-11-01T10:34:42.999Z</time>
      </trkpt>
      <trkpt lat="47.50226" lon="6.75957">
        <ele>389.5</ele>
        <time>2017-11-01T10:34:45.999Z</time>
      </trkpt>
      <trkpt lat="47.50227" lon="6.75959">
        <ele>389.8</ele>
        <time>2017-11-01T10:34:46.999Z</time>
      </trkpt>
      <trkpt lat="47.50228" lon="6.75964">
        <ele>390.2</ele>
        <time>2017-11-01T10:34:48.999Z</time>
      </trkpt>
      <trkpt lat="47.50228" lon="6.75966">
        <ele>390.4</ele>
        <time>2017-11-01T10:34:49.999Z</time>
      </trkpt>
      <trkpt lat="47.50229" lon="6.7597">
        <ele>390.8</ele>
        <time>2017-11-01T10:34:51.999Z</time>
      </trkpt>
      <trkpt lat="47.5023" lon="6.75973">
        <ele>391</ele>
        <time>2017-11-01T10:34:52.999Z</time>
      </trkpt>
      <trkpt lat="47.50232" lon="6.75977">
        <ele>391.6</ele>
        <time>2017-11-01T10:34:54.999Z</time>
      </trkpt>
      <trkpt lat="47.50233" lon="6.7598">
        <ele>391.8</ele>
        <time>2017-11-01T10:34:55.999Z</time>
      </trkpt>
      <trkpt lat="47.50236" lon="6.75983">
        <ele>392.6</ele>
        <time>2017-11-01T10:34:58.999Z</time>
      </trkpt>
      <trkpt lat="47.50236" lon="6.75985">
        <ele>392.9</ele>
        <time>2017-11-01T10:34:59.999Z</time>
      </trkpt>
      <trkpt lat="47.50234" lon="6.7599">
        <ele>394.7</ele>
        <time>2017-11-01T10:35:07.999Z</time>
      </trkpt>
      <trkpt lat="47.50233" lon="6.75991">
        <ele>394.8</ele>
        <time>2017-11-01T10:35:08.999Z</time>
      </trkpt>
      <trkpt lat="47.50229" lon="6.75993">
        <ele>395</ele>
        <time>2017-11-01T10:35:10.999Z</time>
      </trkpt>
      <trkpt lat="47.50228" lon="6.75994">
        <ele>395</ele>
        <time>2017-11-01T10:35:11.999Z</time>
      </trkpt>
      <trkpt lat="47.50224" lon="6.75997">
        <ele>395</ele>
        <time>2017-11-01T10:35:14.999Z</time>
      </trkpt>
      <trkpt lat="47.50223" lon="6.75997">
        <ele>395</ele>
        <time>2017-11-01T10:35:15.999Z</time>
      </trkpt>
      <trkpt lat="47.50221" lon="6.75998">
        <ele>395</ele>
        <time>2017-11-01T10:35:16.999Z</time>
      </trkpt>
      <trkpt lat="47.50218" lon="6.76001">
        <ele>395</ele>
        <time>2017-11-01T10:35:17.999Z</time>
      </trkpt>
      <trkpt lat="47.50213" lon="6.76003">
        <ele>395.4</ele>
        <time>2017-11-01T10:35:21.999Z</time>
      </trkpt>
      <trkpt lat="47.50213" lon="6.76003">
        <ele>395.6</ele>
        <time>2017-11-01T10:35:22.999Z</time>
      </trkpt>
      <trkpt lat="47.50208" lon="6.76005">
        <ele>396.1</ele>
        <time>2017-11-01T10:35:26.999Z</time>
      </trkpt>
      <trkpt lat="47.50207" lon="6.76006">
        <ele>396.3</ele>
        <time>2017-11-01T10:35:27.999Z</time>
      </trkpt>
      <trkpt lat="47.50204" lon="6.76004">
        <ele>396.6</ele>
        <time>2017-11-01T10:35:29.999Z</time>
      </trkpt>
      <trkpt lat="47.50202" lon="6.76003">
        <ele>396.8</ele>
        <time>2017-11-01T10:35:30.999Z</time>
      </trkpt>
      <trkpt lat="47.50198" lon="6.76005">
        <ele>397.6</ele>
        <time>2017-11-01T10:35:34.999Z</time>
      </trkpt>
      <trkpt lat="47.50198" lon="6.76006">
        <ele>397.9</ele>
        <time>2017-11-01T10:35:35.999Z</time>
      </trkpt>
      <trkpt lat="47.50194" lon="6.76009">
        <ele>398.8</ele>
        <time>2017-11-01T10:35:40.999Z</time>
      </trkpt>
      <trkpt lat="47.50194" lon="6.76011">
        <ele>399</ele>
        <time>2017-11-01T10:35:41.999Z</time>
      </trkpt>
      <trkpt lat="47.50195" lon="6.76016">
        <ele>400</ele>
        <time>2017-11-01T10:35:51.999Z</time>
      </trkpt>
      <trkpt lat="47.50196" lon="6.76017">
        <ele>400.1</ele>
        <time>2017-11-01T10:35:52.999Z</time>
      </trkpt>
      <trkpt lat="47.50198" lon="6.76022">
        <ele>400.2</ele>
        <time>2017-11-01T10:35:57.999Z</time>
      </trkpt>
      <trkpt lat="47.50198" lon="6.76023">
        <ele>400.2</ele>
        <time>2017-11-01T10:35:58.999Z</time>
      </trkpt>
      <trkpt lat="47.50195" lon="6.76018">
        <ele>404.9</ele>
        <time>2017-11-01T10:36:19.999Z</time>
      </trkpt>
      <trkpt lat="47.50195" lon="6.76018">
        <ele>405.3</ele>
        <time>2017-11-01T10:36:20.999Z</time>
      </trkpt>
      <trkpt lat="47.50199" lon="6.7602">
        <ele>405.7</ele>
        <time>2017-11-01T10:36:25.999Z</time>
      </trkpt>
      <trkpt lat="47.502" lon="6.7602">
        <ele>405.7</ele>
        <time>2017-11-01T10:36:26.999Z</time>
      </trkpt>
      <trkpt lat="47.50197" lon="6.76023">
        <ele>408.9</ele>
        <time>2017-11-01T10:36:59.999Z</time>
      </trkpt>
      <trkpt lat="47.50195" lon="6.76022">
        <ele>408.7</ele>
        <time>2017-11-01T10:37:00.999Z</time>
      </trkpt>
      <trkpt lat="47.50192" lon="6.76018">
        <ele>412.5</ele>
        <time>2017-11-01T10:37:32.999Z</time>
      </trkpt>
      <trkpt lat="47.5019" lon="6.76019">
        <ele>412.6</ele>
        <time>2017-11-01T10:37:33.999Z</time>
      </trkpt>
      <trkpt lat="47.50186" lon="6.76018">
        <ele>412.6</ele>
        <time>2017-11-01T10:37:36.999Z</time>
      </trkpt>
      <trkpt lat="47.50185" lon="6.76018">
        <ele>412.8</ele>
        <time>2017-11-01T10:37:37.999Z</time>
      </trkpt>
      <trkpt lat="47.50181" lon="6.76018">
        <ele>413</ele>
        <time>2017-11-01T10:37:39.999Z</time>
      </trkpt>
      <trkpt lat="47.50179" lon="6.76019">
        <ele>413.2</ele>
        <time>2017-11-01T10:37:40.999Z</time>
      </trkpt>
      <trkpt lat="47.50175" lon="6.76019">
        <ele>413.7</ele>
        <time>2017-11-01T10:37:42.999Z</time>
      </trkpt>
      <trkpt lat="47.50173" lon="6.76019">
        <ele>413.8</ele>
        <time>2017-11-01T10:37:43.999Z</time>
      </trkpt>
      <trkpt lat="47.50169" lon="6.76019">
        <ele>414.2</ele>
        <time>2017-11-01T10:37:45.999Z</time>
      </trkpt>
      <trkpt lat="47.50167" lon="6.76019">
        <ele>414.5</ele>
        <time>2017-11-01T10:37:46.999Z</time>
      </trkpt>
      <trkpt lat="47.50164" lon="6.7602">
        <ele>415.6</ele>
        <time>2017-11-01T10:37:50.999Z</time>
      </trkpt>
      <trkpt lat="47.50162" lon="6.7602">
        <ele>415.9</ele>
        <time>2017-11-01T10:37:51.999Z</time>
      </trkpt>
      <trkpt lat="47.50158" lon="6.7602">
        <ele>416.7</ele>
        <time>2017-11-01T10:37:55.999Z</time>
      </trkpt>
      <trkpt lat="47.50157" lon="6.76021">
        <ele>416.8</ele>
        <time>2017-11-01T10:37:56.999Z</time>
      </trkpt>
      <trkpt lat="47.50153" lon="6.76021">
        <ele>417.3</ele>
        <time>2017-11-01T10:38:00.999Z</time>
      </trkpt>
      <trkpt lat="47.50152" lon="6.76022">
        <ele>417.5</ele>
        <time>2017-11-01T10:38:01.999Z</time>
      </trkpt>
      <trkpt lat="47.50148" lon="6.76023">
        <ele>417.9</ele>
        <time>2017-11-01T10:38:06.999Z</time>
      </trkpt>
      <trkpt lat="47.50147" lon="6.76023">
        <ele>418</ele>
        <time>2017-11-01T10:38:07.999Z</time>
      </trkpt>
      <trkpt lat="47.50143" lon="6.76023">
        <ele>418.3</ele>
        <time>2017-11-01T10:38:11.999Z</time>
      </trkpt>
      <trkpt lat="47.50142" lon="6.76024">
        <ele>418.4</ele>
        <time>2017-11-01T10:38:12.999Z</time>
      </trkpt>
      <trkpt lat="47.5014" lon="6.76025">
        <ele>418.6</ele>
        <time>2017-11-01T10:38:14.999Z</time>
      </trkpt>
      <trkpt lat="47.50137" lon="6.76027">
        <ele>418.8</ele>
        <time>2017-11-01T10:38:15.999Z</time>
      </trkpt>
      <trkpt lat="47.50134" lon="6.76029">
        <ele>419.3</ele>
        <time>2017-11-01T10:38:18.999Z</time>
      </trkpt>
      <trkpt lat="47.50132" lon="6.76029">
        <ele>419.5</ele>
        <time>2017-11-01T10:38:19.999Z</time>
      </trkpt>
      <trkpt lat="47.50129" lon="6.76033">
        <ele>419.9</ele>
        <time>2017-11-01T10:38:22.999Z</time>
      </trkpt>
      <trkpt lat="47.50128" lon="6.76033">
        <ele>420</ele>
        <time>2017-11-01T10:38:23.999Z</time>
      </trkpt>
      <trkpt lat="47.50124" lon="6.76036">
        <ele>420.1</ele>
        <time>2017-11-01T10:38:26.999Z</time>
      </trkpt>
      <trkpt lat="47.50123" lon="6.76036">
        <ele>420.2</ele>
        <time>2017-11-01T10:38:27.999Z</time>
      </trkpt>
      <trkpt lat="47.50119" lon="6.76036">
        <ele>420.7</ele>
        <time>2017-11-01T10:38:32.999Z</time>
      </trkpt>
      <trkpt lat="47.50119" lon="6.76036">
        <ele>420.8</ele>
        <time>2017-11-01T10:38:33.999Z</time>
      </trkpt>
      <trkpt lat="47.50114" lon="6.76037">
        <ele>421.2</ele>
        <time>2017-11-01T10:38:37.999Z</time>
      </trkpt>
      <trkpt lat="47.50113" lon="6.76037">
        <ele>421.2</ele>
        <time>2017-11-01T10:38:38.999Z</time>
      </trkpt>
      <trkpt lat="47.5011" lon="6.76038">
        <ele>421.2</ele>
        <time>2017-11-01T10:38:39.999Z</time>
      </trkpt>
      <trkpt lat="47.50107" lon="6.7604">
        <ele>421.3</ele>
        <time>2017-11-01T10:38:40.999Z</time>
      </trkpt>
      <trkpt lat="47.50104" lon="6.76041">
        <ele>421.3</ele>
        <time>2017-11-01T10:38:42.999Z</time>
      </trkpt>
      <trkpt lat="47.50101" lon="6.76043">
        <ele>421.3</ele>
        <time>2017-11-01T10:38:43.999Z</time>
      </trkpt>
      <trkpt lat="47.50099" lon="6.76048">
        <ele>421.5</ele>
        <time>2017-11-01T10:38:48.999Z</time>
      </trkpt>
      <trkpt lat="47.501" lon="6.76051">
        <ele>421.5</ele>
        <time>2017-11-01T10:38:49.999Z</time>
      </trkpt>
      <trkpt lat="47.50103" lon="6.76056">
        <ele>421.4</ele>
        <time>2017-11-01T10:38:51.999Z</time>
      </trkpt>
      <trkpt lat="47.50103" lon="6.76058">
        <ele>421.4</ele>
        <time>2017-11-01T10:38:52.999Z</time>
      </trkpt>
      <trkpt lat="47.50104" lon="6.76063">
        <ele>421.2</ele>
        <time>2017-11-01T10:38:54.999Z</time>
      </trkpt>
      <trkpt lat="47.50105" lon="6.76065">
        <ele>421.1</ele>
        <time>2017-11-01T10:38:55.999Z</time>
      </trkpt>
      <trkpt lat="47.50106" lon="6.76071">
        <ele>421.1</ele>
        <time>2017-11-01T10:38:57.999Z</time>
      </trkpt>
      <trkpt lat="47.50109" lon="6.76073">
        <ele>421.1</ele>
        <time>2017-11-01T10:38:58.999Z</time>
      </trkpt>
      <trkpt lat="47.50108" lon="6.76078">
        <ele>421.1</ele>
        <time>2017-11-01T10:39:00.999Z</time>
      </trkpt>
      <trkpt lat="47.50109" lon="6.7608">
        <ele>421.1</ele>
        <time>2017-11-01T10:39:01.999Z</time>
      </trkpt>
      <trkpt lat="47.50111" lon="6.76084">
        <ele>421.1</ele>
        <time>2017-11-01T10:39:02.999Z</time>
      </trkpt>
      <trkpt lat="47.50112" lon="6.76087">
        <ele>420.9</ele>
        <time>2017-11-01T10:39:03.999Z</time>
      </trkpt>
      <trkpt lat="47.50113" lon="6.76092">
        <ele>420.5</ele>
        <time>2017-11-01T10:39:05.999Z</time>
      </trkpt>
      <trkpt lat="47.50113" lon="6.76095">
        <ele>420.4</ele>
        <time>2017-11-01T10:39:06.999Z</time>
      </trkpt>
      <trkpt lat="47.50113" lon="6.76101">
        <ele>420.1</ele>
        <time>2017-11-01T10:39:09.999Z</time>
      </trkpt>
      <trkpt lat="47.50113" lon="6.76103">
        <ele>419.9</ele>
        <time>2017-11-01T10:39:10.999Z</time>
      </trkpt>
      <trkpt lat="47.50115" lon="6.76107">
        <ele>419.5</ele>
        <time>2017-11-01T10:39:12.999Z</time>
      </trkpt>
      <trkpt lat="47.50116" lon="6.76109">
        <ele>419.3</ele>
        <time>2017-11-01T10:39:13.999Z</time>
      </trkpt>
      <trkpt lat="47.50118" lon="6.76114">
        <ele>418.9</ele>
        <time>2017-11-01T10:39:15.999Z</time>
      </trkpt>
      <trkpt lat="47.50119" lon="6.76116">
        <ele>418.8</ele>
        <time>2017-11-01T10:39:16.999Z</time>
      </trkpt>
      <trkpt lat="47.50122" lon="6.76121">
        <ele>418.1</ele>
        <time>2017-11-01T10:39:19.999Z</time>
      </trkpt>
      <trkpt lat="47.50123" lon="6.76122">
        <ele>418</ele>
        <time>2017-11-01T10:39:20.999Z</time>
      </trkpt>
      <trkpt lat="47.50123" lon="6.76128">
        <ele>417.6</ele>
        <time>2017-11-01T10:39:23.999Z</time>
      </trkpt>
      <trkpt lat="47.50124" lon="6.76132">
        <ele>417.4</ele>
        <time>2017-11-01T10:39:24.999Z</time>
      </trkpt>
      <trkpt lat="47.50124" lon="6.76136">
        <ele>417.2</ele>
        <time>2017-11-01T10:39:25.999Z</time>
      </trkpt>
      <trkpt lat="47.50124" lon="6.76139">
        <ele>417</ele>
        <time>2017-11-01T10:39:26.999Z</time>
      </trkpt>
      <trkpt lat="47.50126" lon="6.76143">
        <ele>416.8</ele>
        <time>2017-11-01T10:39:27.999Z</time>
      </trkpt>
      <trkpt lat="47.50127" lon="6.76148">
        <ele>416.7</ele>
        <time>2017-11-01T10:39:28.999Z</time>
      </trkpt>
      <trkpt lat="47.50129" lon="6.76153">
        <ele>416.3</ele>
        <time>2017-11-01T10:39:30.999Z</time>
      </trkpt>
      <trkpt lat="47.50129" lon="6.76156">
        <ele>416.1</ele>
        <time>2017-11-01T10:39:31.999Z</time>
      </trkpt>
      <trkpt lat="47.5013" lon="6.76162">
        <ele>415.7</ele>
        <time>2017-11-01T10:39:33.999Z</time>
      </trkpt>
      <trkpt lat="47.50129" lon="6.76165">
        <ele>415.5</ele>
        <time>2017-11-01T10:39:34.999Z</time>
      </trkpt>
      <trkpt lat="47.50131" lon="6.7617">
        <ele>414.6</ele>
        <time>2017-11-01T10:39:37.999Z</time>
      </trkpt>
      <trkpt lat="47.50132" lon="6.76172">
        <ele>414.3</ele>
        <time>2017-11-01T10:39:38.999Z</time>
      </trkpt>
      <trkpt lat="47.50133" lon="6.76176">
        <ele>413.6</ele>
        <time>2017-11-01T10:39:40.999Z</time>
      </trkpt>
      <trkpt lat="47.50134" lon="6.76179">
        <ele>413.3</ele>
        <time>2017-11-01T10:39:41.999Z</time>
      </trkpt>
      <trkpt lat="47.50134" lon="6.76185">
        <ele>412.6</ele>
        <time>2017-11-01T10:39:43.999Z</time>
      </trkpt>
      <trkpt lat="47.50134" lon="6.76188">
        <ele>412.2</ele>
        <time>2017-11-01T10:39:44.999Z</time>
      </trkpt>
      <trkpt lat="47.50136" lon="6.76192">
        <ele>411.3</ele>
        <time>2017-11-01T10:39:46.999Z</time>
      </trkpt>
      <trkpt lat="47.50137" lon="6.76196">
        <ele>411</ele>
        <time>2017-11-01T10:39:47.999Z</time>
      </trkpt>
      <trkpt lat="47.50138" lon="6.76202">
        <ele>410.3</ele>
        <time>2017-11-01T10:39:49.999Z</time>
      </trkpt>
      <trkpt lat="47.50138" lon="6.76207">
        <ele>410</ele>
        <time>2017-11-01T10:39:50.999Z</time>
      </trkpt>
      <trkpt lat="47.50138" lon="6.76212">
        <ele>409.7</ele>
        <time>2017-11-01T10:39:51.999Z</time>
      </trkpt>
      <trkpt lat="47.50138" lon="6.76216">
        <ele>409.3</ele>
        <time>2017-11-01T10:39:52.999Z</time>
      </trkpt>
      <trkpt lat="47.50139" lon="6.76219">
        <ele>408.9</ele>
        <time>2017-11-01T10:39:53.999Z</time>
      </trkpt>
      <trkpt lat="47.50141" lon="6.76224">
        <ele>408.7</ele>
        <time>2017-11-01T10:39:54.999Z</time>
      </trkpt>
      <trkpt lat="47.50143" lon="6.76228">
        <ele>408.6</ele>
        <time>2017-11-01T10:39:55.999Z</time>
      </trkpt>
      <trkpt lat="47.50144" lon="6.76233">
        <ele>408.4</ele>
        <time>2017-11-01T10:39:56.999Z</time>
      </trkpt>
      <trkpt lat="47.50146" lon="6.76237">
        <ele>408.3</ele>
        <time>2017-11-01T10:39:57.999Z</time>
      </trkpt>
      <trkpt lat="47.50148" lon="6.76241">
        <ele>408.2</ele>
        <time>2017-11-01T10:39:58.999Z</time>
      </trkpt>
      <trkpt lat="47.50149" lon="6.76245">
        <ele>408.3</ele>
        <time>2017-11-01T10:39:59.999Z</time>
      </trkpt>
      <trkpt lat="47.5015" lon="6.76249">
        <ele>408.3</ele>
        <time>2017-11-01T10:40:00.999Z</time>
      </trkpt>
      <trkpt lat="47.50151" lon="6.76252">
        <ele>408.3</ele>
        <time>2017-11-01T10:40:01.999Z</time>
      </trkpt>
      <trkpt lat="47.50152" lon="6.76257">
        <ele>408.3</ele>
        <time>2017-11-01T10:40:02.999Z</time>
      </trkpt>
      <trkpt lat="47.50152" lon="6.76261">
        <ele>408.5</ele>
        <time>2017-11-01T10:40:03.999Z</time>
      </trkpt>
      <trkpt lat="47.50152" lon="6.76265">
        <ele>408.6</ele>
        <time>2017-11-01T10:40:04.999Z</time>
      </trkpt>
      <trkpt lat="47.50153" lon="6.76269">
        <ele>408.6</ele>
        <time>2017-11-01T10:40:05.999Z</time>
      </trkpt>
      <trkpt lat="47.50153" lon="6.76272">
        <ele>408.7</ele>
        <time>2017-11-01T10:40:06.999Z</time>
      </trkpt>
      <trkpt lat="47.50154" lon="6.76277">
        <ele>408.9</ele>
        <time>2017-11-01T10:40:07.999Z</time>
      </trkpt>
      <trkpt lat="47.50154" lon="6.76281">
        <ele>409</ele>
        <time>2017-11-01T10:40:08.999Z</time>
      </trkpt>
      <trkpt lat="47.50154" lon="6.76286">
        <ele>409.3</ele>
        <time>2017-11-01T10:40:09.999Z</time>
      </trkpt>
      <trkpt lat="47.50155" lon="6.7629">
        <ele>409.5</ele>
        <time>2017-11-01T10:40:10.999Z</time>
      </trkpt>
      <trkpt lat="47.50155" lon="6.76294">
        <ele>409.8</ele>
        <time>2017-11-01T10:40:11.999Z</time>
      </trkpt>
      <trkpt lat="47.50155" lon="6.76298">
        <ele>410.1</ele>
        <time>2017-11-01T10:40:12.999Z</time>
      </trkpt>
      <trkpt lat="47.50156" lon="6.76302">
        <ele>410.4</ele>
        <time>2017-11-01T10:40:13.999Z</time>
      </trkpt>
      <trkpt lat="47.50156" lon="6.76307">
        <ele>410.7</ele>
        <time>2017-11-01T10:40:14.999Z</time>
      </trkpt>
      <trkpt lat="47.50158" lon="6.7631">
        <ele>411.2</ele>
        <time>2017-11-01T10:40:15.999Z</time>
      </trkpt>
      <trkpt lat="47.5016" lon="6.76313">
        <ele>411.5</ele>
        <time>2017-11-01T10:40:16.999Z</time>
      </trkpt>
      <trkpt lat="47.50161" lon="6.76314">
        <ele>412</ele>
        <time>2017-11-01T10:40:17.999Z</time>
      </trkpt>
      <trkpt lat="47.50163" lon="6.76317">
        <ele>412.4</ele>
        <time>2017-11-01T10:40:18.999Z</time>
      </trkpt>
      <trkpt lat="47.50164" lon="6.76321">
        <ele>412.8</ele>
        <time>2017-11-01T10:40:19.999Z</time>
      </trkpt>
      <trkpt lat="47.50164" lon="6.76325">
        <ele>413.2</ele>
        <time>2017-11-01T10:40:20.999Z</time>
      </trkpt>
      <trkpt lat="47.50165" lon="6.7633">
        <ele>413.5</ele>
        <time>2017-11-01T10:40:21.999Z</time>
      </trkpt>
      <trkpt lat="47.50165" lon="6.76334">
        <ele>413.8</ele>
        <time>2017-11-01T10:40:22.999Z</time>
      </trkpt>
      <trkpt lat="47.50166" lon="6.76338">
        <ele>414</ele>
        <time>2017-11-01T10:40:23.999Z</time>
      </trkpt>
      <trkpt lat="47.50167" lon="6.76341">
        <ele>414.1</ele>
        <time>2017-11-01T10:40:24.999Z</time>
      </trkpt>
      <trkpt lat="47.50167" lon="6.76344">
        <ele>414.2</ele>
        <time>2017-11-01T10:40:25.999Z</time>
      </trkpt>
      <trkpt lat="47.50167" lon="6.76348">
        <ele>414.3</ele>
        <time>2017-11-01T10:40:26.999Z</time>
      </trkpt>
      <trkpt lat="47.50168" lon="6.76351">
        <ele>414.5</ele>
        <time>2017-11-01T10:40:27.999Z</time>
      </trkpt>
      <trkpt lat="47.50168" lon="6.76355">
        <ele>414.7</ele>
        <time>2017-11-01T10:40:28.999Z</time>
      </trkpt>
      <trkpt lat="47.50169" lon="6.7636">
        <ele>414.8</ele>
        <time>2017-11-01T10:40:29.999Z</time>
      </trkpt>
      <trkpt lat="47.50169" lon="6.76364">
        <ele>415</ele>
        <time>2017-11-01T10:40:30.999Z</time>
      </trkpt>
      <trkpt lat="47.5017" lon="6.7637">
        <ele>415.3</ele>
        <time>2017-11-01T10:40:31.999Z</time>
      </trkpt>
      <trkpt lat="47.50173" lon="6.76376">
        <ele>415.5</ele>
        <time>2017-11-01T10:40:32.999Z</time>
      </trkpt>
      <trkpt lat="47.50174" lon="6.7638">
        <ele>415.7</ele>
        <time>2017-11-01T10:40:33.999Z</time>
      </trkpt>
      <trkpt lat="47.50176" lon="6.76385">
        <ele>415.8</ele>
        <time>2017-11-01T10:40:34.999Z</time>
      </trkpt>
      <trkpt lat="47.50179" lon="6.76388">
        <ele>416</ele>
        <time>2017-11-01T10:40:35.999Z</time>
      </trkpt>
      <trkpt lat="47.5018" lon="6.76392">
        <ele>416.1</ele>
        <time>2017-11-01T10:40:36.999Z</time>
      </trkpt>
      <trkpt lat="47.50181" lon="6.76396">
        <ele>416.3</ele>
        <time>2017-11-01T10:40:37.999Z</time>
      </trkpt>
      <trkpt lat="47.50182" lon="6.764">
        <ele>416.4</ele>
        <time>2017-11-01T10:40:38.999Z</time>
      </trkpt>
      <trkpt lat="47.50183" lon="6.76403">
        <ele>416.6</ele>
        <time>2017-11-01T10:40:39.999Z</time>
      </trkpt>
      <trkpt lat="47.50185" lon="6.76406">
        <ele>416.7</ele>
        <time>2017-11-01T10:40:40.999Z</time>
      </trkpt>
      <trkpt lat="47.50187" lon="6.76407">
        <ele>416.7</ele>
        <time>2017-11-01T10:40:41.999Z</time>
      </trkpt>
      <trkpt lat="47.50188" lon="6.7641">
        <ele>416.8</ele>
        <time>2017-11-01T10:40:42.999Z</time>
      </trkpt>
      <trkpt lat="47.50189" lon="6.76413">
        <ele>416.9</ele>
        <time>2017-11-01T10:40:43.999Z</time>
      </trkpt>
      <trkpt lat="47.5019" lon="6.76417">
        <ele>417</ele>
        <time>2017-11-01T10:40:44.999Z</time>
      </trkpt>
      <trkpt lat="47.50189" lon="6.76421">
        <ele>417</ele>
        <time>2017-11-01T10:40:45.999Z</time>
      </trkpt>
      <trkpt lat="47.50191" lon="6.76427">
        <ele>417</ele>
        <time>2017-11-01T10:40:46.999Z</time>
      </trkpt>
      <trkpt lat="47.50192" lon="6.76432">
        <ele>417</ele>
        <time>2017-11-01T10:40:47.999Z</time>
      </trkpt>
      <trkpt lat="47.50194" lon="6.76437">
        <ele>417</ele>
        <time>2017-11-01T10:40:48.999Z</time>
      </trkpt>
      <trkpt lat="47.50197" lon="6.76442">
        <ele>416.9</ele>
        <time>2017-11-01T10:40:50.999Z</time>
      </trkpt>
      <trkpt lat="47.50198" lon="6.76445">
        <ele>417</ele>
        <time>2017-11-01T10:40:51.999Z</time>
      </trkpt>
      <trkpt lat="47.50202" lon="6.76449">
        <ele>417</ele>
        <time>2017-11-01T10:40:53.999Z</time>
      </trkpt>
      <trkpt lat="47.50203" lon="6.76451">
        <ele>417</ele>
        <time>2017-11-01T10:40:54.999Z</time>
      </trkpt>
      <trkpt lat="47.50204" lon="6.76455">
        <ele>417</ele>
        <time>2017-11-01T10:40:55.999Z</time>
      </trkpt>
      <trkpt lat="47.50206" lon="6.76459">
        <ele>416.9</ele>
        <time>2017-11-01T10:40:56.999Z</time>
      </trkpt>
      <trkpt lat="47.50207" lon="6.76464">
        <ele>416.8</ele>
        <time>2017-11-01T10:40:57.999Z</time>
      </trkpt>
      <trkpt lat="47.50209" lon="6.76467">
        <ele>416.8</ele>
        <time>2017-11-01T10:40:58.999Z</time>
      </trkpt>
      <trkpt lat="47.50211" lon="6.76472">
        <ele>416.8</ele>
        <time>2017-11-01T10:41:00.999Z</time>
      </trkpt>
      <trkpt lat="47.50212" lon="6.76473">
        <ele>416.9</ele>
        <time>2017-11-01T10:41:01.999Z</time>
      </trkpt>
      <trkpt lat="47.50212" lon="6.76479">
        <ele>417</ele>
        <time>2017-11-01T10:41:02.999Z</time>
      </trkpt>
      <trkpt lat="47.50212" lon="6.76484">
        <ele>417</ele>
        <time>2017-11-01T10:41:03.999Z</time>
      </trkpt>
      <trkpt lat="47.50214" lon="6.76489">
        <ele>417.1</ele>
        <time>2017-11-01T10:41:04.999Z</time>
      </trkpt>
      <trkpt lat="47.50216" lon="6.76491">
        <ele>417.2</ele>
        <time>2017-11-01T10:41:05.999Z</time>
      </trkpt>
      <trkpt lat="47.50219" lon="6.76496">
        <ele>417.4</ele>
        <time>2017-11-01T10:41:07.999Z</time>
      </trkpt>
      <trkpt lat="47.5022" lon="6.76497">
        <ele>417.5</ele>
        <time>2017-11-01T10:41:08.999Z</time>
      </trkpt>
      <trkpt lat="47.50221" lon="6.76501">
        <ele>417.6</ele>
        <time>2017-11-01T10:41:09.999Z</time>
      </trkpt>
      <trkpt lat="47.50222" lon="6.76504">
        <ele>417.7</ele>
        <time>2017-11-01T10:41:10.999Z</time>
      </trkpt>
      <trkpt lat="47.50223" lon="6.76506">
        <ele>417.9</ele>
        <time>2017-11-01T10:41:11.999Z</time>
      </trkpt>
      <trkpt lat="47.50225" lon="6.76509">
        <ele>418</ele>
        <time>2017-11-01T10:41:12.999Z</time>
      </trkpt>
      <trkpt lat="47.50226" lon="6.76514">
        <ele>418.3</ele>
        <time>2017-11-01T10:41:15.999Z</time>
      </trkpt>
      <trkpt lat="47.50227" lon="6.76516">
        <ele>418.2</ele>
        <time>2017-11-01T10:41:16.999Z</time>
      </trkpt>
      <trkpt lat="47.50229" lon="6.7652">
        <ele>418.2</ele>
        <time>2017-11-01T10:41:18.999Z</time>
      </trkpt>
      <trkpt lat="47.5023" lon="6.76523">
        <ele>418.2</ele>
        <time>2017-11-01T10:41:19.999Z</time>
      </trkpt>
      <trkpt lat="47.50231" lon="6.76525">
        <ele>418.2</ele>
        <time>2017-11-01T10:41:20.999Z</time>
      </trkpt>
      <trkpt lat="47.50233" lon="6.76529">
        <ele>418.1</ele>
        <time>2017-11-01T10:41:21.999Z</time>
      </trkpt>
      <trkpt lat="47.50234" lon="6.76532">
        <ele>418.1</ele>
        <time>2017-11-01T10:41:22.999Z</time>
      </trkpt>
      <trkpt lat="47.50234" lon="6.76537">
        <ele>418.1</ele>
        <time>2017-11-01T10:41:23.999Z</time>
      </trkpt>
      <trkpt lat="47.50235" lon="6.76543">
        <ele>418.2</ele>
        <time>2017-11-01T10:41:24.999Z</time>
      </trkpt>
      <trkpt lat="47.50235" lon="6.76545">
        <ele>418.2</ele>
        <time>2017-11-01T10:41:25.999Z</time>
      </trkpt>
      <trkpt lat="47.50233" lon="6.76549">
        <ele>418.4</ele>
        <time>2017-11-01T10:41:30.999Z</time>
      </trkpt>
      <trkpt lat="47.5023" lon="6.76549">
        <ele>418.5</ele>
        <time>2017-11-01T10:41:31.999Z</time>
      </trkpt>
      <trkpt lat="47.50228" lon="6.76551">
        <ele>418.7</ele>
        <time>2017-11-01T10:41:32.999Z</time>
      </trkpt>
      <trkpt lat="47.50225" lon="6.76552">
        <ele>419</ele>
        <time>2017-11-01T10:41:33.999Z</time>
      </trkpt>
      <trkpt lat="47.50223" lon="6.76554">
        <ele>419.4</ele>
        <time>2017-11-01T10:41:34.999Z</time>
      </trkpt>
      <trkpt lat="47.5022" lon="6.76555">
        <ele>419.8</ele>
        <time>2017-11-01T10:41:35.999Z</time>
      </trkpt>
      <trkpt lat="47.50217" lon="6.76556">
        <ele>420.2</ele>
        <time>2017-11-01T10:41:36.999Z</time>
      </trkpt>
      <trkpt lat="47.50213" lon="6.76557">
        <ele>420.5</ele>
        <time>2017-11-01T10:41:37.999Z</time>
      </trkpt>
      <trkpt lat="47.50209" lon="6.76559">
        <ele>420.8</ele>
        <time>2017-11-01T10:41:38.999Z</time>
      </trkpt>
      <trkpt lat="47.50205" lon="6.76561">
        <ele>421</ele>
        <time>2017-11-01T10:41:39.999Z</time>
      </trkpt>
      <trkpt lat="47.50201" lon="6.76563">
        <ele>421.4</ele>
        <time>2017-11-01T10:41:40.999Z</time>
      </trkpt>
      <trkpt lat="47.50199" lon="6.76564">
        <ele>421.8</ele>
        <time>2017-11-01T10:41:41.999Z</time>
      </trkpt>
      <trkpt lat="47.50196" lon="6.76567">
        <ele>422.5</ele>
        <time>2017-11-01T10:41:43.999Z</time>
      </trkpt>
      <trkpt lat="47.50195" lon="6.76569">
        <ele>422.8</ele>
        <time>2017-11-01T10:41:44.999Z</time>
      </trkpt>
      <trkpt lat="47.50195" lon="6.76575">
        <ele>423.4</ele>
        <time>2017-11-01T10:41:46.999Z</time>
      </trkpt>
      <trkpt lat="47.50195" lon="6.76579">
        <ele>423.7</ele>
        <time>2017-11-01T10:41:47.999Z</time>
      </trkpt>
      <trkpt lat="47.50196" lon="6.76584">
        <ele>424.3</ele>
        <time>2017-11-01T10:41:49.999Z</time>
      </trkpt>
      <trkpt lat="47.50197" lon="6.76587">
        <ele>424.7</ele>
        <time>2017-11-01T10:41:50.999Z</time>
      </trkpt>
      <trkpt lat="47.50199" lon="6.76592">
        <ele>425.3</ele>
        <time>2017-11-01T10:41:52.999Z</time>
      </trkpt>
      <trkpt lat="47.50199" lon="6.76595">
        <ele>425.8</ele>
        <time>2017-11-01T10:41:53.999Z</time>
      </trkpt>
      <trkpt lat="47.502" lon="6.76599">
        <ele>426.2</ele>
        <time>2017-11-01T10:41:54.999Z</time>
      </trkpt>
      <trkpt lat="47.502" lon="6.76602">
        <ele>426.6</ele>
        <time>2017-11-01T10:41:55.999Z</time>
      </trkpt>
      <trkpt lat="47.50201" lon="6.76606">
        <ele>426.8</ele>
        <time>2017-11-01T10:41:56.999Z</time>
      </trkpt>
      <trkpt lat="47.50201" lon="6.76609">
        <ele>427.2</ele>
        <time>2017-11-01T10:41:57.999Z</time>
      </trkpt>
      <trkpt lat="47.50202" lon="6.76613">
        <ele>427.4</ele>
        <time>2017-11-01T10:41:58.999Z</time>
      </trkpt>
      <trkpt lat="47.50203" lon="6.76616">
        <ele>427.5</ele>
        <time>2017-11-01T10:41:59.999Z</time>
      </trkpt>
      <trkpt lat="47.50203" lon="6.7662">
        <ele>427.7</ele>
        <time>2017-11-01T10:42:00.999Z</time>
      </trkpt>
      <trkpt lat="47.50204" lon="6.76624">
        <ele>427.9</ele>
        <time>2017-11-01T10:42:01.999Z</time>
      </trkpt>
      <trkpt lat="47.50204" lon="6.76628">
        <ele>428</ele>
        <time>2017-11-01T10:42:02.999Z</time>
      </trkpt>
      <trkpt lat="47.50205" lon="6.76632">
        <ele>428.2</ele>
        <time>2017-11-01T10:42:03.999Z</time>
      </trkpt>
      <trkpt lat="47.50205" lon="6.76636">
        <ele>428.3</ele>
        <time>2017-11-01T10:42:04.999Z</time>
      </trkpt>
      <trkpt lat="47.50206" lon="6.76639">
        <ele>428.4</ele>
        <time>2017-11-01T10:42:05.999Z</time>
      </trkpt>
      <trkpt lat="47.50207" lon="6.76643">
        <ele>428.6</ele>
        <time>2017-11-01T10:42:06.999Z</time>
      </trkpt>
      <trkpt lat="47.50207" lon="6.76646">
        <ele>428.8</ele>
        <time>2017-11-01T10:42:07.999Z</time>
      </trkpt>
      <trkpt lat="47.50208" lon="6.76648">
        <ele>428.9</ele>
        <time>2017-11-01T10:42:08.999Z</time>
      </trkpt>
      <trkpt lat="47.50209" lon="6.76652">
        <ele>429</ele>
        <time>2017-11-01T10:42:09.999Z</time>
      </trkpt>
      <trkpt lat="47.5021" lon="6.76656">
        <ele>429.1</ele>
        <time>2017-11-01T10:42:10.999Z</time>
      </trkpt>
      <trkpt lat="47.50211" lon="6.76659">
        <ele>429.3</ele>
        <time>2017-11-01T10:42:11.999Z</time>
      </trkpt>
      <trkpt lat="47.50211" lon="6.76662">
        <ele>429.5</ele>
        <time>2017-11-01T10:42:12.999Z</time>
      </trkpt>
      <trkpt lat="47.50212" lon="6.76665">
        <ele>429.8</ele>
        <time>2017-11-01T10:42:13.999Z</time>
      </trkpt>
      <trkpt lat="47.50213" lon="6.76669">
        <ele>430</ele>
        <time>2017-11-01T10:42:14.999Z</time>
      </trkpt>
      <trkpt lat="47.50214" lon="6.76673">
        <ele>430.1</ele>
        <time>2017-11-01T10:42:15.999Z</time>
      </trkpt>
      <trkpt lat="47.50215" lon="6.76677">
        <ele>430.4</ele>
        <time>2017-11-01T10:42:16.999Z</time>
      </trkpt>
      <trkpt lat="47.50217" lon="6.76681">
        <ele>430.7</ele>
        <time>2017-11-01T10:42:17.999Z</time>
      </trkpt>
      <trkpt lat="47.50218" lon="6.76685">
        <ele>431</ele>
        <time>2017-11-01T10:42:18.999Z</time>
      </trkpt>
      <trkpt lat="47.50219" lon="6.76688">
        <ele>431.2</ele>
        <time>2017-11-01T10:42:19.999Z</time>
      </trkpt>
      <trkpt lat="47.5022" lon="6.76692">
        <ele>431.4</ele>
        <time>2017-11-01T10:42:20.999Z</time>
      </trkpt>
      <trkpt lat="47.50222" lon="6.76695">
        <ele>431.6</ele>
        <time>2017-11-01T10:42:21.999Z</time>
      </trkpt>
      <trkpt lat="47.50223" lon="6.76698">
        <ele>431.8</ele>
        <time>2017-11-01T10:42:22.999Z</time>
      </trkpt>
      <trkpt lat="47.50225" lon="6.76702">
        <ele>432.1</ele>
        <time>2017-11-01T10:42:23.999Z</time>
      </trkpt>
      <trkpt lat="47.50226" lon="6.76706">
        <ele>432.3</ele>
        <time>2017-11-01T10:42:24.999Z</time>
      </trkpt>
      <trkpt lat="47.50227" lon="6.76709">
        <ele>432.5</ele>
        <time>2017-11-01T10:42:25.999Z</time>
      </trkpt>
      <trkpt lat="47.50229" lon="6.76715">
        <ele>432.6</ele>
        <time>2017-11-01T10:42:26.999Z</time>
      </trkpt>
      <trkpt lat="47.50231" lon="6.7672">
        <ele>432.7</ele>
        <time>2017-11-01T10:42:27.999Z</time>
      </trkpt>
      <trkpt lat="47.50232" lon="6.76723">
        <ele>432.7</ele>
        <time>2017-11-01T10:42:28.999Z</time>
      </trkpt>
      <trkpt lat="47.50234" lon="6.76727">
        <ele>432.9</ele>
        <time>2017-11-01T10:42:29.999Z</time>
      </trkpt>
      <trkpt lat="47.50236" lon="6.76731">
        <ele>432.9</ele>
        <time>2017-11-01T10:42:30.999Z</time>
      </trkpt>
      <trkpt lat="47.50238" lon="6.76736">
        <ele>433.1</ele>
        <time>2017-11-01T10:42:31.999Z</time>
      </trkpt>
      <trkpt lat="47.5024" lon="6.76739">
        <ele>433.2</ele>
        <time>2017-11-01T10:42:32.999Z</time>
      </trkpt>
      <trkpt lat="47.50242" lon="6.76741">
        <ele>433.4</ele>
        <time>2017-11-01T10:42:33.999Z</time>
      </trkpt>
      <trkpt lat="47.50244" lon="6.76745">
        <ele>433.4</ele>
        <time>2017-11-01T10:42:34.999Z</time>
      </trkpt>
      <trkpt lat="47.50247" lon="6.76748">
        <ele>433.5</ele>
        <time>2017-11-01T10:42:35.999Z</time>
      </trkpt>
      <trkpt lat="47.50249" lon="6.76749">
        <ele>433.7</ele>
        <time>2017-11-01T10:42:36.999Z</time>
      </trkpt>
      <trkpt lat="47.50252" lon="6.76749">
        <ele>433.8</ele>
        <time>2017-11-01T10:42:37.999Z</time>
      </trkpt>
      <trkpt lat="47.50257" lon="6.76749">
        <ele>434</ele>
        <time>2017-11-01T10:42:38.999Z</time>
      </trkpt>
      <trkpt lat="47.50261" lon="6.76748">
        <ele>434.1</ele>
        <time>2017-11-01T10:42:39.999Z</time>
      </trkpt>
      <trkpt lat="47.50264" lon="6.76747">
        <ele>434.3</ele>
        <time>2017-11-01T10:42:40.999Z</time>
      </trkpt>
      <trkpt lat="47.50268" lon="6.76745">
        <ele>435.9</ele>
        <time>2017-11-01T10:42:41.999Z</time>
      </trkpt>
      <trkpt lat="47.50272" lon="6.76744">
        <ele>436.1</ele>
        <time>2017-11-01T10:42:42.999Z</time>
      </trkpt>
      <trkpt lat="47.50276" lon="6.76742">
        <ele>436.9</ele>
        <time>2017-11-01T10:42:43.999Z</time>
      </trkpt>
      <trkpt lat="47.5028" lon="6.76741">
        <ele>437.9</ele>
        <time>2017-11-01T10:42:44.999Z</time>
      </trkpt>
      <trkpt lat="47.50284" lon="6.7674">
        <ele>437.9</ele>
        <time>2017-11-01T10:42:45.999Z</time>
      </trkpt>
      <trkpt lat="47.50288" lon="6.76738">
        <ele>438.5</ele>
        <time>2017-11-01T10:42:46.999Z</time>
      </trkpt>
      <trkpt lat="47.50291" lon="6.76737">
        <ele>438.9</ele>
        <time>2017-11-01T10:42:47.999Z</time>
      </trkpt>
      <trkpt lat="47.50296" lon="6.76736">
        <ele>438.9</ele>
        <time>2017-11-01T10:42:48.999Z</time>
      </trkpt>
      <trkpt lat="47.503" lon="6.76735">
        <ele>439</ele>
        <time>2017-11-01T10:42:49.999Z</time>
      </trkpt>
      <trkpt lat="47.50305" lon="6.76735">
        <ele>438.6</ele>
        <time>2017-11-01T10:42:50.999Z</time>
      </trkpt>
      <trkpt lat="47.5031" lon="6.76733">
        <ele>438.6</ele>
        <time>2017-11-01T10:42:51.999Z</time>
      </trkpt>
      <trkpt lat="47.50315" lon="6.76732">
        <ele>439.3</ele>
        <time>2017-11-01T10:42:52.999Z</time>
      </trkpt>
      <trkpt lat="47.50319" lon="6.7673">
        <ele>439.1</ele>
        <time>2017-11-01T10:42:53.999Z</time>
      </trkpt>
      <trkpt lat="47.50322" lon="6.76728">
        <ele>439</ele>
        <time>2017-11-01T10:42:54.999Z</time>
      </trkpt>
      <trkpt lat="47.50325" lon="6.76727">
        <ele>438.5</ele>
        <time>2017-11-01T10:42:55.999Z</time>
      </trkpt>
      <trkpt lat="47.50329" lon="6.76725">
        <ele>438</ele>
        <time>2017-11-01T10:42:56.999Z</time>
      </trkpt>
      <trkpt lat="47.50334" lon="6.76723">
        <ele>437.6</ele>
        <time>2017-11-01T10:42:57.999Z</time>
      </trkpt>
      <trkpt lat="47.50337" lon="6.76722">
        <ele>437.6</ele>
        <time>2017-11-01T10:42:58.999Z</time>
      </trkpt>
      <trkpt lat="47.50341" lon="6.7672">
        <ele>437.3</ele>
        <time>2017-11-01T10:42:59.999Z</time>
      </trkpt>
      <trkpt lat="47.50345" lon="6.76719">
        <ele>437.1</ele>
        <time>2017-11-01T10:43:00.999Z</time>
      </trkpt>
      <trkpt lat="47.50349" lon="6.76718">
        <ele>437.2</ele>
        <time>2017-11-01T10:43:01.999Z</time>
      </trkpt>
      <trkpt lat="47.50353" lon="6.76716">
        <ele>438</ele>
        <time>2017-11-01T10:43:02.999Z</time>
      </trkpt>
      <trkpt lat="47.50358" lon="6.76713">
        <ele>438.8</ele>
        <time>2017-11-01T10:43:03.999Z</time>
      </trkpt>
      <trkpt lat="47.50362" lon="6.76711">
        <ele>439.2</ele>
        <time>2017-11-01T10:43:04.999Z</time>
      </trkpt>
      <trkpt lat="47.50365" lon="6.7671">
        <ele>439.6</ele>
        <time>2017-11-01T10:43:05.999Z</time>
      </trkpt>
      <trkpt lat="47.50369" lon="6.76708">
        <ele>439.9</ele>
        <time>2017-11-01T10:43:06.999Z</time>
      </trkpt>
      <trkpt lat="47.50373" lon="6.76705">
        <ele>440.2</ele>
        <time>2017-11-01T10:43:07.999Z</time>
      </trkpt>
      <trkpt lat="47.50377" lon="6.76703">
        <ele>439.8</ele>
        <time>2017-11-01T10:43:08.999Z</time>
      </trkpt>
      <trkpt lat="47.50381" lon="6.76702">
        <ele>439.9</ele>
        <time>2017-11-01T10:43:09.999Z</time>
      </trkpt>
      <trkpt lat="47.50386" lon="6.767">
        <ele>439.8</ele>
        <time>2017-11-01T10:43:10.999Z</time>
      </trkpt>
      <trkpt lat="47.5039" lon="6.76698">
        <ele>440</ele>
        <time>2017-11-01T10:43:11.999Z</time>
      </trkpt>
      <trkpt lat="47.50394" lon="6.76696">
        <ele>439.6</ele>
        <time>2017-11-01T10:43:12.999Z</time>
      </trkpt>
      <trkpt lat="47.50397" lon="6.76695">
        <ele>439.4</ele>
        <time>2017-11-01T10:43:13.999Z</time>
      </trkpt>
      <trkpt lat="47.50401" lon="6.76694">
        <ele>440.4</ele>
        <time>2017-11-01T10:43:14.999Z</time>
      </trkpt>
      <trkpt lat="47.50404" lon="6.76693">
        <ele>441.1</ele>
        <time>2017-11-01T10:43:15.999Z</time>
      </trkpt>
      <trkpt lat="47.50409" lon="6.76691">
        <ele>442</ele>
        <time>2017-11-01T10:43:16.999Z</time>
      </trkpt>
      <trkpt lat="47.50413" lon="6.7669">
        <ele>442.3</ele>
        <time>2017-11-01T10:43:17.999Z</time>
      </trkpt>
      <trkpt lat="47.50417" lon="6.76688">
        <ele>443</ele>
        <time>2017-11-01T10:43:18.999Z</time>
      </trkpt>
      <trkpt lat="47.5042" lon="6.76687">
        <ele>443.4</ele>
        <time>2017-11-01T10:43:19.999Z</time>
      </trkpt>
      <trkpt lat="47.50424" lon="6.76686">
        <ele>444</ele>
        <time>2017-11-01T10:43:20.999Z</time>
      </trkpt>
      <trkpt lat="47.50427" lon="6.76684">
        <ele>444.2</ele>
        <time>2017-11-01T10:43:21.999Z</time>
      </trkpt>
      <trkpt lat="47.50431" lon="6.76682">
        <ele>444.4</ele>
        <time>2017-11-01T10:43:22.999Z</time>
      </trkpt>
      <trkpt lat="47.50435" lon="6.7668">
        <ele>444.7</ele>
        <time>2017-11-01T10:43:23.999Z</time>
      </trkpt>
      <trkpt lat="47.50439" lon="6.76677">
        <ele>445.1</ele>
        <time>2017-11-01T10:43:24.999Z</time>
      </trkpt>
      <trkpt lat="47.50442" lon="6.76675">
        <ele>445.2</ele>
        <time>2017-11-01T10:43:25.999Z</time>
      </trkpt>
      <trkpt lat="47.50446" lon="6.76674">
        <ele>445.3</ele>
        <time>2017-11-01T10:43:26.999Z</time>
      </trkpt>
      <trkpt lat="47.50451" lon="6.76672">
        <ele>445.5</ele>
        <time>2017-11-01T10:43:27.999Z</time>
      </trkpt>
      <trkpt lat="47.50455" lon="6.7667">
        <ele>445.8</ele>
        <time>2017-11-01T10:43:28.999Z</time>
      </trkpt>
      <trkpt lat="47.50459" lon="6.76669">
        <ele>445.6</ele>
        <time>2017-11-01T10:43:29.999Z</time>
      </trkpt>
      <trkpt lat="47.50462" lon="6.76668">
        <ele>445.7</ele>
        <time>2017-11-01T10:43:30.999Z</time>
      </trkpt>
      <trkpt lat="47.50467" lon="6.76666">
        <ele>445.8</ele>
        <time>2017-11-01T10:43:31.999Z</time>
      </trkpt>
      <trkpt lat="47.50471" lon="6.76665">
        <ele>446.4</ele>
        <time>2017-11-01T10:43:32.999Z</time>
      </trkpt>
      <trkpt lat="47.50475" lon="6.76663">
        <ele>446.4</ele>
        <time>2017-11-01T10:43:33.999Z</time>
      </trkpt>
      <trkpt lat="47.50479" lon="6.76661">
        <ele>446.5</ele>
        <time>2017-11-01T10:43:34.999Z</time>
      </trkpt>
      <trkpt lat="47.50482" lon="6.7666">
        <ele>446.6</ele>
        <time>2017-11-01T10:43:35.999Z</time>
      </trkpt>
      <trkpt lat="47.50485" lon="6.76659">
        <ele>446.6</ele>
        <time>2017-11-01T10:43:36.999Z</time>
      </trkpt>
      <trkpt lat="47.50488" lon="6.76658">
        <ele>446.6</ele>
        <time>2017-11-01T10:43:37.999Z</time>
      </trkpt>
      <trkpt lat="47.50491" lon="6.76657">
        <ele>446.6</ele>
        <time>2017-11-01T10:43:38.999Z</time>
      </trkpt>
      <trkpt lat="47.50494" lon="6.76656">
        <ele>446.6</ele>
        <time>2017-11-01T10:43:39.999Z</time>
      </trkpt>
      <trkpt lat="47.50498" lon="6.76654">
        <ele>446.6</ele>
        <time>2017-11-01T10:43:40.999Z</time>
      </trkpt>
      <trkpt lat="47.50502" lon="6.76653">
        <ele>446.7</ele>
        <time>2017-11-01T10:43:41.999Z</time>
      </trkpt>
      <trkpt lat="47.50505" lon="6.76653">
        <ele>446.8</ele>
        <time>2017-11-01T10:43:42.999Z</time>
      </trkpt>
      <trkpt lat="47.50508" lon="6.76653">
        <ele>446.8</ele>
        <time>2017-11-01T10:43:43.999Z</time>
      </trkpt>
      <trkpt lat="47.50511" lon="6.76654">
        <ele>446.8</ele>
        <time>2017-11-01T10:43:44.999Z</time>
      </trkpt>
      <trkpt lat="47.50514" lon="6.76657">
        <ele>446.7</ele>
        <time>2017-11-01T10:43:45.999Z</time>
      </trkpt>
      <trkpt lat="47.50515" lon="6.76661">
        <ele>446.6</ele>
        <time>2017-11-01T10:43:46.999Z</time>
      </trkpt>
      <trkpt lat="47.50516" lon="6.76665">
        <ele>446.5</ele>
        <time>2017-11-01T10:43:47.999Z</time>
      </trkpt>
      <trkpt lat="47.50517" lon="6.76671">
        <ele>446</ele>
        <time>2017-11-01T10:43:48.999Z</time>
      </trkpt>
      <trkpt lat="47.50519" lon="6.76677">
        <ele>445.6</ele>
        <time>2017-11-01T10:43:49.999Z</time>
      </trkpt>
      <trkpt lat="47.50522" lon="6.76683">
        <ele>444.7</ele>
        <time>2017-11-01T10:43:50.999Z</time>
      </trkpt>
      <trkpt lat="47.50526" lon="6.76689">
        <ele>444.1</ele>
        <time>2017-11-01T10:43:51.999Z</time>
      </trkpt>
      <trkpt lat="47.50529" lon="6.76691">
        <ele>443.6</ele>
        <time>2017-11-01T10:43:52.999Z</time>
      </trkpt>
      <trkpt lat="47.50533" lon="6.76692">
        <ele>443.2</ele>
        <time>2017-11-01T10:43:53.999Z</time>
      </trkpt>
      <trkpt lat="47.50537" lon="6.76691">
        <ele>443</ele>
        <time>2017-11-01T10:43:54.999Z</time>
      </trkpt>
      <trkpt lat="47.50541" lon="6.76691">
        <ele>442.9</ele>
        <time>2017-11-01T10:43:55.999Z</time>
      </trkpt>
      <trkpt lat="47.50545" lon="6.76691">
        <ele>443</ele>
        <time>2017-11-01T10:43:56.999Z</time>
      </trkpt>
      <trkpt lat="47.50548" lon="6.76691">
        <ele>443</ele>
        <time>2017-11-01T10:43:57.999Z</time>
      </trkpt>
      <trkpt lat="47.50553" lon="6.7669">
        <ele>443.2</ele>
        <time>2017-11-01T10:43:58.999Z</time>
      </trkpt>
      <trkpt lat="47.50557" lon="6.76689">
        <ele>443.2</ele>
        <time>2017-11-01T10:43:59.999Z</time>
      </trkpt>
      <trkpt lat="47.5056" lon="6.76687">
        <ele>443.2</ele>
        <time>2017-11-01T10:44:00.999Z</time>
      </trkpt>
      <trkpt lat="47.50565" lon="6.76685">
        <ele>444</ele>
        <time>2017-11-01T10:44:01.999Z</time>
      </trkpt>
      <trkpt lat="47.50569" lon="6.76683">
        <ele>444.9</ele>
        <time>2017-11-01T10:44:02.999Z</time>
      </trkpt>
      <trkpt lat="47.50572" lon="6.76682">
        <ele>445.2</ele>
        <time>2017-11-01T10:44:03.999Z</time>
      </trkpt>
      <trkpt lat="47.50576" lon="6.7668">
        <ele>445.6</ele>
        <time>2017-11-01T10:44:04.999Z</time>
      </trkpt>
      <trkpt lat="47.5058" lon="6.76678">
        <ele>445.7</ele>
        <time>2017-11-01T10:44:05.999Z</time>
      </trkpt>
      <trkpt lat="47.50585" lon="6.76677">
        <ele>445.9</ele>
        <time>2017-11-01T10:44:06.999Z</time>
      </trkpt>
      <trkpt lat="47.50589" lon="6.76675">
        <ele>446</ele>
        <time>2017-11-01T10:44:07.999Z</time>
      </trkpt>
      <trkpt lat="47.50594" lon="6.76674">
        <ele>446.1</ele>
        <time>2017-11-01T10:44:08.999Z</time>
      </trkpt>
      <trkpt lat="47.50599" lon="6.76672">
        <ele>446.2</ele>
        <time>2017-11-01T10:44:09.999Z</time>
      </trkpt>
      <trkpt lat="47.50604" lon="6.76671">
        <ele>446</ele>
        <time>2017-11-01T10:44:10.999Z</time>
      </trkpt>
      <trkpt lat="47.50609" lon="6.76669">
        <ele>445.6</ele>
        <time>2017-11-01T10:44:11.999Z</time>
      </trkpt>
      <trkpt lat="47.50614" lon="6.76668">
        <ele>444.9</ele>
        <time>2017-11-01T10:44:12.999Z</time>
      </trkpt>
      <trkpt lat="47.50618" lon="6.76666">
        <ele>444.2</ele>
        <time>2017-11-01T10:44:13.999Z</time>
      </trkpt>
      <trkpt lat="47.50623" lon="6.76665">
        <ele>443.6</ele>
        <time>2017-11-01T10:44:14.999Z</time>
      </trkpt>
      <trkpt lat="47.50628" lon="6.76663">
        <ele>442.8</ele>
        <time>2017-11-01T10:44:15.999Z</time>
      </trkpt>
      <trkpt lat="47.50634" lon="6.7666">
        <ele>442.4</ele>
        <time>2017-11-01T10:44:16.999Z</time>
      </trkpt>
      <trkpt lat="47.50641" lon="6.76657">
        <ele>441.8</ele>
        <time>2017-11-01T10:44:17.999Z</time>
      </trkpt>
      <trkpt lat="47.50648" lon="6.76653">
        <ele>441.3</ele>
        <time>2017-11-01T10:44:18.999Z</time>
      </trkpt>
      <trkpt lat="47.50654" lon="6.76649">
        <ele>441.6</ele>
        <time>2017-11-01T10:44:19.999Z</time>
      </trkpt>
      <trkpt lat="47.50659" lon="6.76646">
        <ele>441.2</ele>
        <time>2017-11-01T10:44:20.999Z</time>
      </trkpt>
      <trkpt lat="47.50665" lon="6.76642">
        <ele>440.7</ele>
        <time>2017-11-01T10:44:21.999Z</time>
      </trkpt>
      <trkpt lat="47.5067" lon="6.76639">
        <ele>440.1</ele>
        <time>2017-11-01T10:44:22.999Z</time>
      </trkpt>
      <trkpt lat="47.50676" lon="6.76635">
        <ele>439.8</ele>
        <time>2017-11-01T10:44:23.999Z</time>
      </trkpt>
      <trkpt lat="47.50682" lon="6.76633">
        <ele>439.1</ele>
        <time>2017-11-01T10:44:24.999Z</time>
      </trkpt>
      <trkpt lat="47.50687" lon="6.7663">
        <ele>438.6</ele>
        <time>2017-11-01T10:44:25.999Z</time>
      </trkpt>
      <trkpt lat="47.50693" lon="6.76628">
        <ele>438</ele>
        <time>2017-11-01T10:44:26.999Z</time>
      </trkpt>
      <trkpt lat="47.50699" lon="6.76628">
        <ele>438.1</ele>
        <time>2017-11-01T10:44:27.999Z</time>
      </trkpt>
      <trkpt lat="47.50706" lon="6.76629">
        <ele>438</ele>
        <time>2017-11-01T10:44:28.999Z</time>
      </trkpt>
      <trkpt lat="47.50712" lon="6.7663">
        <ele>437.9</ele>
        <time>2017-11-01T10:44:29.999Z</time>
      </trkpt>
      <trkpt lat="47.50716" lon="6.76631">
        <ele>438.3</ele>
        <time>2017-11-01T10:44:30.999Z</time>
      </trkpt>
      <trkpt lat="47.5072" lon="6.76633">
        <ele>438.3</ele>
        <time>2017-11-01T10:44:31.999Z</time>
      </trkpt>
      <trkpt lat="47.50725" lon="6.76634">
        <ele>438.2</ele>
        <time>2017-11-01T10:44:32.999Z</time>
      </trkpt>
      <trkpt lat="47.50728" lon="6.76636">
        <ele>437.7</ele>
        <time>2017-11-01T10:44:33.999Z</time>
      </trkpt>
      <trkpt lat="47.50731" lon="6.76639">
        <ele>437.5</ele>
        <time>2017-11-01T10:44:34.999Z</time>
      </trkpt>
      <trkpt lat="47.50735" lon="6.76642">
        <ele>437.5</ele>
        <time>2017-11-01T10:44:35.999Z</time>
      </trkpt>
      <trkpt lat="47.50739" lon="6.76646">
        <ele>437.5</ele>
        <time>2017-11-01T10:44:36.999Z</time>
      </trkpt>
      <trkpt lat="47.50743" lon="6.7665">
        <ele>437.5</ele>
        <time>2017-11-01T10:44:37.999Z</time>
      </trkpt>
      <trkpt lat="47.50746" lon="6.76654">
        <ele>437.5</ele>
        <time>2017-11-01T10:44:38.999Z</time>
      </trkpt>
      <trkpt lat="47.50749" lon="6.76658">
        <ele>437.5</ele>
        <time>2017-11-01T10:44:39.999Z</time>
      </trkpt>
      <trkpt lat="47.50752" lon="6.76662">
        <ele>436.8</ele>
        <time>2017-11-01T10:44:40.999Z</time>
      </trkpt>
      <trkpt lat="47.50754" lon="6.76667">
        <ele>436.8</ele>
        <time>2017-11-01T10:44:41.999Z</time>
      </trkpt>
      <trkpt lat="47.50758" lon="6.76672">
        <ele>436.8</ele>
        <time>2017-11-01T10:44:42.999Z</time>
      </trkpt>
      <trkpt lat="47.5076" lon="6.76675">
        <ele>436.9</ele>
        <time>2017-11-01T10:44:43.999Z</time>
      </trkpt>
      <trkpt lat="47.50762" lon="6.76679">
        <ele>437.2</ele>
        <time>2017-11-01T10:44:44.999Z</time>
      </trkpt>
      <trkpt lat="47.50765" lon="6.76684">
        <ele>437.2</ele>
        <time>2017-11-01T10:44:45.999Z</time>
      </trkpt>
      <trkpt lat="47.50769" lon="6.76689">
        <ele>438.2</ele>
        <time>2017-11-01T10:44:46.999Z</time>
      </trkpt>
      <trkpt lat="47.5077" lon="6.76692">
        <ele>438.9</ele>
        <time>2017-11-01T10:44:47.999Z</time>
      </trkpt>
      <trkpt lat="47.50773" lon="6.76697">
        <ele>439.3</ele>
        <time>2017-11-01T10:44:48.999Z</time>
      </trkpt>
      <trkpt lat="47.50776" lon="6.76703">
        <ele>439.4</ele>
        <time>2017-11-01T10:44:49.999Z</time>
      </trkpt>
      <trkpt lat="47.50778" lon="6.76707">
        <ele>439.4</ele>
        <time>2017-11-01T10:44:50.999Z</time>
      </trkpt>
      <trkpt lat="47.50781" lon="6.76713">
        <ele>439.1</ele>
        <time>2017-11-01T10:44:51.999Z</time>
      </trkpt>
      <trkpt lat="47.50784" lon="6.76718">
        <ele>438.5</ele>
        <time>2017-11-01T10:44:52.999Z</time>
      </trkpt>
      <trkpt lat="47.50784" lon="6.76725">
        <ele>437.3</ele>
        <time>2017-11-01T10:44:53.999Z</time>
      </trkpt>
      <trkpt lat="47.50786" lon="6.76734">
        <ele>436</ele>
        <time>2017-11-01T10:44:54.999Z</time>
      </trkpt>
      <trkpt lat="47.50786" lon="6.76742">
        <ele>436</ele>
        <time>2017-11-01T10:44:55.999Z</time>
      </trkpt>
      <trkpt lat="47.50787" lon="6.7675">
        <ele>435.4</ele>
        <time>2017-11-01T10:44:56.999Z</time>
      </trkpt>
      <trkpt lat="47.50789" lon="6.76755">
        <ele>434.8</ele>
        <time>2017-11-01T10:44:57.999Z</time>
      </trkpt>
      <trkpt lat="47.50792" lon="6.76762">
        <ele>434.9</ele>
        <time>2017-11-01T10:44:58.999Z</time>
      </trkpt>
      <trkpt lat="47.50795" lon="6.76767">
        <ele>433.9</ele>
        <time>2017-11-01T10:44:59.999Z</time>
      </trkpt>
      <trkpt lat="47.50799" lon="6.76773">
        <ele>433.7</ele>
        <time>2017-11-01T10:45:00.999Z</time>
      </trkpt>
      <trkpt lat="47.50802" lon="6.76781">
        <ele>433.5</ele>
        <time>2017-11-01T10:45:01.999Z</time>
      </trkpt>
      <trkpt lat="47.50805" lon="6.76789">
        <ele>433.3</ele>
        <time>2017-11-01T10:45:02.999Z</time>
      </trkpt>
      <trkpt lat="47.50809" lon="6.76796">
        <ele>433.5</ele>
        <time>2017-11-01T10:45:03.999Z</time>
      </trkpt>
      <trkpt lat="47.50813" lon="6.76805">
        <ele>434.1</ele>
        <time>2017-11-01T10:45:04.999Z</time>
      </trkpt>
      <trkpt lat="47.50817" lon="6.76812">
        <ele>434.1</ele>
        <time>2017-11-01T10:45:05.999Z</time>
      </trkpt>
      <trkpt lat="47.50823" lon="6.76819">
        <ele>433.9</ele>
        <time>2017-11-01T10:45:06.999Z</time>
      </trkpt>
      <trkpt lat="47.50828" lon="6.76827">
        <ele>433.8</ele>
        <time>2017-11-01T10:45:07.999Z</time>
      </trkpt>
      <trkpt lat="47.50834" lon="6.76835">
        <ele>433.3</ele>
        <time>2017-11-01T10:45:08.999Z</time>
      </trkpt>
      <trkpt lat="47.50838" lon="6.76842">
        <ele>432.8</ele>
        <time>2017-11-01T10:45:09.999Z</time>
      </trkpt>
      <trkpt lat="47.50843" lon="6.7685">
        <ele>432.1</ele>
        <time>2017-11-01T10:45:10.999Z</time>
      </trkpt>
      <trkpt lat="47.50848" lon="6.76859">
        <ele>432.2</ele>
        <time>2017-11-01T10:45:11.999Z</time>
      </trkpt>
      <trkpt lat="47.50853" lon="6.76867">
        <ele>431.8</ele>
        <time>2017-11-01T10:45:12.999Z</time>
      </trkpt>
      <trkpt lat="47.50856" lon="6.76874">
        <ele>431.6</ele>
        <time>2017-11-01T10:45:13.999Z</time>
      </trkpt>
      <trkpt lat="47.50862" lon="6.7688">
        <ele>431.3</ele>
        <time>2017-11-01T10:45:14.999Z</time>
      </trkpt>
      <trkpt lat="47.50868" lon="6.76886">
        <ele>430.5</ele>
        <time>2017-11-01T10:45:15.999Z</time>
      </trkpt>
      <trkpt lat="47.50873" lon="6.76892">
        <ele>429.4</ele>
        <time>2017-11-01T10:45:16.999Z</time>
      </trkpt>
      <trkpt lat="47.50879" lon="6.76899">
        <ele>429.4</ele>
        <time>2017-11-01T10:45:17.999Z</time>
      </trkpt>
      <trkpt lat="47.50884" lon="6.76905">
        <ele>429.3</ele>
        <time>2017-11-01T10:45:18.999Z</time>
      </trkpt>
      <trkpt lat="47.50889" lon="6.7691">
        <ele>429.1</ele>
        <time>2017-11-01T10:45:19.999Z</time>
      </trkpt>
      <trkpt lat="47.50893" lon="6.76915">
        <ele>429.4</ele>
        <time>2017-11-01T10:45:20.999Z</time>
      </trkpt>
      <trkpt lat="47.50898" lon="6.76919">
        <ele>430.1</ele>
        <time>2017-11-01T10:45:21.999Z</time>
      </trkpt>
      <trkpt lat="47.50902" lon="6.76923">
        <ele>430.7</ele>
        <time>2017-11-01T10:45:22.999Z</time>
      </trkpt>
      <trkpt lat="47.50907" lon="6.76927">
        <ele>431.4</ele>
        <time>2017-11-01T10:45:23.999Z</time>
      </trkpt>
      <trkpt lat="47.50912" lon="6.76931">
        <ele>432.2</ele>
        <time>2017-11-01T10:45:24.999Z</time>
      </trkpt>
      <trkpt lat="47.50917" lon="6.76935">
        <ele>433</ele>
        <time>2017-11-01T10:45:25.999Z</time>
      </trkpt>
      <trkpt lat="47.50921" lon="6.76938">
        <ele>433.6</ele>
        <time>2017-11-01T10:45:26.999Z</time>
      </trkpt>
      <trkpt lat="47.50925" lon="6.7694">
        <ele>433.6</ele>
        <time>2017-11-01T10:45:27.999Z</time>
      </trkpt>
      <trkpt lat="47.5093" lon="6.76941">
        <ele>433.6</ele>
        <time>2017-11-01T10:45:28.999Z</time>
      </trkpt>
      <trkpt lat="47.50936" lon="6.76943">
        <ele>433.2</ele>
        <time>2017-11-01T10:45:29.999Z</time>
      </trkpt>
      <trkpt lat="47.50941" lon="6.76944">
        <ele>433</ele>
        <time>2017-11-01T10:45:30.999Z</time>
      </trkpt>
      <trkpt lat="47.50946" lon="6.76945">
        <ele>432.1</ele>
        <time>2017-11-01T10:45:31.999Z</time>
      </trkpt>
      <trkpt lat="47.5095" lon="6.76948">
        <ele>432</ele>
        <time>2017-11-01T10:45:32.999Z</time>
      </trkpt>
      <trkpt lat="47.50954" lon="6.7695">
        <ele>431.8</ele>
        <time>2017-11-01T10:45:33.999Z</time>
      </trkpt>
      <trkpt lat="47.50959" lon="6.76953">
        <ele>431.9</ele>
        <time>2017-11-01T10:45:34.999Z</time>
      </trkpt>
      <trkpt lat="47.50965" lon="6.76957">
        <ele>432.1</ele>
        <time>2017-11-01T10:45:35.999Z</time>
      </trkpt>
      <trkpt lat="47.50972" lon="6.76958">
        <ele>432.6</ele>
        <time>2017-11-01T10:45:36.999Z</time>
      </trkpt>
      <trkpt lat="47.50978" lon="6.76958">
        <ele>432.8</ele>
        <time>2017-11-01T10:45:37.999Z</time>
      </trkpt>
      <trkpt lat="47.50984" lon="6.76958">
        <ele>433</ele>
        <time>2017-11-01T10:45:38.999Z</time>
      </trkpt>
      <trkpt lat="47.50989" lon="6.76953">
        <ele>432.6</ele>
        <time>2017-11-01T10:45:39.999Z</time>
      </trkpt>
      <trkpt lat="47.50994" lon="6.76947">
        <ele>431.4</ele>
        <time>2017-11-01T10:45:40.999Z</time>
      </trkpt>
      <trkpt lat="47.51" lon="6.76945">
        <ele>430.6</ele>
        <time>2017-11-01T10:45:41.999Z</time>
      </trkpt>
      <trkpt lat="47.51005" lon="6.76946">
        <ele>430.4</ele>
        <time>2017-11-01T10:45:42.999Z</time>
      </trkpt>
      <trkpt lat="47.51007" lon="6.7695">
        <ele>430.3</ele>
        <time>2017-11-01T10:45:43.999Z</time>
      </trkpt>
      <trkpt lat="47.5101" lon="6.76952">
        <ele>430.2</ele>
        <time>2017-11-01T10:45:44.999Z</time>
      </trkpt>
      <trkpt lat="47.51014" lon="6.76954">
        <ele>430</ele>
        <time>2017-11-01T10:45:45.999Z</time>
      </trkpt>
      <trkpt lat="47.5102" lon="6.76957">
        <ele>429.8</ele>
        <time>2017-11-01T10:45:46.999Z</time>
      </trkpt>
      <trkpt lat="47.51024" lon="6.76959">
        <ele>429.6</ele>
        <time>2017-11-01T10:45:47.999Z</time>
      </trkpt>
      <trkpt lat="47.51029" lon="6.76961">
        <ele>429.3</ele>
        <time>2017-11-01T10:45:48.999Z</time>
      </trkpt>
      <trkpt lat="47.51032" lon="6.76962">
        <ele>429.1</ele>
        <time>2017-11-01T10:45:49.999Z</time>
      </trkpt>
      <trkpt lat="47.51036" lon="6.76966">
        <ele>429</ele>
        <time>2017-11-01T10:45:50.999Z</time>
      </trkpt>
      <trkpt lat="47.51038" lon="6.76968">
        <ele>428.3</ele>
        <time>2017-11-01T10:45:51.999Z</time>
      </trkpt>
      <trkpt lat="47.51042" lon="6.76972">
        <ele>427.5</ele>
        <time>2017-11-01T10:45:52.999Z</time>
      </trkpt>
      <trkpt lat="47.51045" lon="6.76975">
        <ele>427.1</ele>
        <time>2017-11-01T10:45:53.999Z</time>
      </trkpt>
      <trkpt lat="47.51049" lon="6.76979">
        <ele>426.6</ele>
        <time>2017-11-01T10:45:54.999Z</time>
      </trkpt>
      <trkpt lat="47.51053" lon="6.76984">
        <ele>426.3</ele>
        <time>2017-11-01T10:45:55.999Z</time>
      </trkpt>
      <trkpt lat="47.51058" lon="6.76989">
        <ele>426.4</ele>
        <time>2017-11-01T10:45:56.999Z</time>
      </trkpt>
      <trkpt lat="47.51061" lon="6.76992">
        <ele>426.5</ele>
        <time>2017-11-01T10:45:57.999Z</time>
      </trkpt>
      <trkpt lat="47.51065" lon="6.76996">
        <ele>427.1</ele>
        <time>2017-11-01T10:45:58.999Z</time>
      </trkpt>
      <trkpt lat="47.5107" lon="6.77">
        <ele>427.8</ele>
        <time>2017-11-01T10:45:59.999Z</time>
      </trkpt>
      <trkpt lat="47.51074" lon="6.77004">
        <ele>427.8</ele>
        <time>2017-11-01T10:46:00.999Z</time>
      </trkpt>
      <trkpt lat="47.51077" lon="6.77007">
        <ele>428.1</ele>
        <time>2017-11-01T10:46:01.999Z</time>
      </trkpt>
      <trkpt lat="47.5108" lon="6.77009">
        <ele>428.3</ele>
        <time>2017-11-01T10:46:02.999Z</time>
      </trkpt>
      <trkpt lat="47.51086" lon="6.77014">
        <ele>428</ele>
        <time>2017-11-01T10:46:03.999Z</time>
      </trkpt>
      <trkpt lat="47.51092" lon="6.77019">
        <ele>427.3</ele>
        <time>2017-11-01T10:46:04.999Z</time>
      </trkpt>
      <trkpt lat="47.51096" lon="6.77024">
        <ele>426.8</ele>
        <time>2017-11-01T10:46:05.999Z</time>
      </trkpt>
      <trkpt lat="47.51101" lon="6.77028">
        <ele>426.6</ele>
        <time>2017-11-01T10:46:06.999Z</time>
      </trkpt>
      <trkpt lat="47.51105" lon="6.77032">
        <ele>426.6</ele>
        <time>2017-11-01T10:46:07.999Z</time>
      </trkpt>
      <trkpt lat="47.51108" lon="6.77035">
        <ele>426.6</ele>
        <time>2017-11-01T10:46:08.999Z</time>
      </trkpt>
      <trkpt lat="47.51111" lon="6.77038">
        <ele>426.5</ele>
        <time>2017-11-01T10:46:09.999Z</time>
      </trkpt>
      <trkpt lat="47.51116" lon="6.77041">
        <ele>424.9</ele>
        <time>2017-11-01T10:46:10.999Z</time>
      </trkpt>
      <trkpt lat="47.51119" lon="6.77044">
        <ele>424.7</ele>
        <time>2017-11-01T10:46:11.999Z</time>
      </trkpt>
      <trkpt lat="47.51124" lon="6.77047">
        <ele>423.7</ele>
        <time>2017-11-01T10:46:12.999Z</time>
      </trkpt>
      <trkpt lat="47.51128" lon="6.7705">
        <ele>422.6</ele>
        <time>2017-11-01T10:46:13.999Z</time>
      </trkpt>
      <trkpt lat="47.51131" lon="6.77053">
        <ele>422.1</ele>
        <time>2017-11-01T10:46:14.999Z</time>
      </trkpt>
      <trkpt lat="47.51137" lon="6.77057">
        <ele>421.1</ele>
        <time>2017-11-01T10:46:15.999Z</time>
      </trkpt>
      <trkpt lat="47.51142" lon="6.7706">
        <ele>420.8</ele>
        <time>2017-11-01T10:46:16.999Z</time>
      </trkpt>
      <trkpt lat="47.51144" lon="6.77065">
        <ele>420.7</ele>
        <time>2017-11-01T10:46:17.999Z</time>
      </trkpt>
      <trkpt lat="47.51148" lon="6.77068">
        <ele>419.9</ele>
        <time>2017-11-01T10:46:18.999Z</time>
      </trkpt>
      <trkpt lat="47.51152" lon="6.77072">
        <ele>419.8</ele>
        <time>2017-11-01T10:46:19.999Z</time>
      </trkpt>
      <trkpt lat="47.51155" lon="6.77076">
        <ele>419.5</ele>
        <time>2017-11-01T10:46:20.999Z</time>
      </trkpt>
      <trkpt lat="47.51159" lon="6.77081">
        <ele>419.4</ele>
        <time>2017-11-01T10:46:21.999Z</time>
      </trkpt>
      <trkpt lat="47.51163" lon="6.77085">
        <ele>419.3</ele>
        <time>2017-11-01T10:46:22.999Z</time>
      </trkpt>
      <trkpt lat="47.51167" lon="6.7709">
        <ele>419.8</ele>
        <time>2017-11-01T10:46:23.999Z</time>
      </trkpt>
      <trkpt lat="47.5117" lon="6.77095">
        <ele>420.3</ele>
        <time>2017-11-01T10:46:24.999Z</time>
      </trkpt>
      <trkpt lat="47.51173" lon="6.771">
        <ele>420.8</ele>
        <time>2017-11-01T10:46:25.999Z</time>
      </trkpt>
      <trkpt lat="47.51176" lon="6.77106">
        <ele>421</ele>
        <time>2017-11-01T10:46:26.999Z</time>
      </trkpt>
      <trkpt lat="47.51179" lon="6.7711">
        <ele>421</ele>
        <time>2017-11-01T10:46:27.999Z</time>
      </trkpt>
      <trkpt lat="47.51182" lon="6.77115">
        <ele>420.8</ele>
        <time>2017-11-01T10:46:28.999Z</time>
      </trkpt>
      <trkpt lat="47.51185" lon="6.77121">
        <ele>420.3</ele>
        <time>2017-11-01T10:46:29.999Z</time>
      </trkpt>
      <trkpt lat="47.51188" lon="6.77126">
        <ele>420.3</ele>
        <time>2017-11-01T10:46:30.999Z</time>
      </trkpt>
      <trkpt lat="47.5119" lon="6.77129">
        <ele>420.3</ele>
        <time>2017-11-01T10:46:31.999Z</time>
      </trkpt>
      <trkpt lat="47.51192" lon="6.77133">
        <ele>420.4</ele>
        <time>2017-11-01T10:46:32.999Z</time>
      </trkpt>
      <trkpt lat="47.51194" lon="6.77136">
        <ele>420.4</ele>
        <time>2017-11-01T10:46:33.999Z</time>
      </trkpt>
      <trkpt lat="47.51195" lon="6.77138">
        <ele>420.4</ele>
        <time>2017-11-01T10:46:34.999Z</time>
      </trkpt>
      <trkpt lat="47.51198" lon="6.77143">
        <ele>420.5</ele>
        <time>2017-11-01T10:46:36.999Z</time>
      </trkpt>
      <trkpt lat="47.512" lon="6.77147">
        <ele>420.5</ele>
        <time>2017-11-01T10:46:37.999Z</time>
      </trkpt>
      <trkpt lat="47.51202" lon="6.77151">
        <ele>420.7</ele>
        <time>2017-11-01T10:46:39.999Z</time>
      </trkpt>
      <trkpt lat="47.51204" lon="6.77153">
        <ele>420.7</ele>
        <time>2017-11-01T10:46:40.999Z</time>
      </trkpt>
      <trkpt lat="47.51206" lon="6.77157">
        <ele>420.8</ele>
        <time>2017-11-01T10:46:41.999Z</time>
      </trkpt>
      <trkpt lat="47.51207" lon="6.77159">
        <ele>420.8</ele>
        <time>2017-11-01T10:46:42.999Z</time>
      </trkpt>
      <trkpt lat="47.51208" lon="6.77162">
        <ele>420.8</ele>
        <time>2017-11-01T10:46:43.999Z</time>
      </trkpt>
      <trkpt lat="47.5121" lon="6.77164">
        <ele>420.9</ele>
        <time>2017-11-01T10:46:44.999Z</time>
      </trkpt>
      <trkpt lat="47.51211" lon="6.77167">
        <ele>421</ele>
        <time>2017-11-01T10:46:45.999Z</time>
      </trkpt>
      <trkpt lat="47.51212" lon="6.7717">
        <ele>421.1</ele>
        <time>2017-11-01T10:46:46.999Z</time>
      </trkpt>
      <trkpt lat="47.51214" lon="6.77174">
        <ele>421.7</ele>
        <time>2017-11-01T10:46:48.999Z</time>
      </trkpt>
      <trkpt lat="47.51216" lon="6.77177">
        <ele>422</ele>
        <time>2017-11-01T10:46:49.999Z</time>
      </trkpt>
      <trkpt lat="47.51218" lon="6.7718">
        <ele>422.4</ele>
        <time>2017-11-01T10:46:50.999Z</time>
      </trkpt>
      <trkpt lat="47.5122" lon="6.77183">
        <ele>422.8</ele>
        <time>2017-11-01T10:46:51.999Z</time>
      </trkpt>
      <trkpt lat="47.51222" lon="6.77186">
        <ele>423.1</ele>
        <time>2017-11-01T10:46:52.999Z</time>
      </trkpt>
      <trkpt lat="47.51224" lon="6.7719">
        <ele>423.5</ele>
        <time>2017-11-01T10:46:53.999Z</time>
      </trkpt>
      <trkpt lat="47.51227" lon="6.77197">
        <ele>423.9</ele>
        <time>2017-11-01T10:46:54.999Z</time>
      </trkpt>
      <trkpt lat="47.5123" lon="6.77203">
        <ele>424.1</ele>
        <time>2017-11-01T10:46:55.999Z</time>
      </trkpt>
      <trkpt lat="47.51232" lon="6.77207">
        <ele>424.2</ele>
        <time>2017-11-01T10:46:56.999Z</time>
      </trkpt>
      <trkpt lat="47.51233" lon="6.77211">
        <ele>424.3</ele>
        <time>2017-11-01T10:46:57.999Z</time>
      </trkpt>
      <trkpt lat="47.51235" lon="6.77215">
        <ele>424.3</ele>
        <time>2017-11-01T10:46:58.999Z</time>
      </trkpt>
      <trkpt lat="47.51237" lon="6.77219">
        <ele>424.3</ele>
        <time>2017-11-01T10:46:59.999Z</time>
      </trkpt>
      <trkpt lat="47.51239" lon="6.77222">
        <ele>424.4</ele>
        <time>2017-11-01T10:47:00.999Z</time>
      </trkpt>
      <trkpt lat="47.5124" lon="6.77225">
        <ele>424.4</ele>
        <time>2017-11-01T10:47:01.999Z</time>
      </trkpt>
      <trkpt lat="47.51242" lon="6.77229">
        <ele>424.4</ele>
        <time>2017-11-01T10:47:02.999Z</time>
      </trkpt>
      <trkpt lat="47.51244" lon="6.77234">
        <ele>424.5</ele>
        <time>2017-11-01T10:47:03.999Z</time>
      </trkpt>
      <trkpt lat="47.51247" lon="6.77238">
        <ele>424.5</ele>
        <time>2017-11-01T10:47:04.999Z</time>
      </trkpt>
      <trkpt lat="47.51249" lon="6.77241">
        <ele>424.6</ele>
        <time>2017-11-01T10:47:05.999Z</time>
      </trkpt>
      <trkpt lat="47.51251" lon="6.77245">
        <ele>424.7</ele>
        <time>2017-11-01T10:47:06.999Z</time>
      </trkpt>
      <trkpt lat="47.51254" lon="6.77249">
        <ele>424.7</ele>
        <time>2017-11-01T10:47:07.999Z</time>
      </trkpt>
      <trkpt lat="47.51256" lon="6.77253">
        <ele>424.7</ele>
        <time>2017-11-01T10:47:08.999Z</time>
      </trkpt>
      <trkpt lat="47.51258" lon="6.77256">
        <ele>424.8</ele>
        <time>2017-11-01T10:47:09.999Z</time>
      </trkpt>
      <trkpt lat="47.51261" lon="6.7726">
        <ele>424.8</ele>
        <time>2017-11-01T10:47:10.999Z</time>
      </trkpt>
      <trkpt lat="47.51264" lon="6.77263">
        <ele>424.8</ele>
        <time>2017-11-01T10:47:11.999Z</time>
      </trkpt>
      <trkpt lat="47.51267" lon="6.77265">
        <ele>424.7</ele>
        <time>2017-11-01T10:47:12.999Z</time>
      </trkpt>
      <trkpt lat="47.51269" lon="6.77267">
        <ele>424.7</ele>
        <time>2017-11-01T10:47:13.999Z</time>
      </trkpt>
      <trkpt lat="47.51273" lon="6.77271">
        <ele>425</ele>
        <time>2017-11-01T10:47:14.999Z</time>
      </trkpt>
      <trkpt lat="47.51276" lon="6.77273">
        <ele>425.7</ele>
        <time>2017-11-01T10:47:15.999Z</time>
      </trkpt>
      <trkpt lat="47.5128" lon="6.77275">
        <ele>425.6</ele>
        <time>2017-11-01T10:47:16.999Z</time>
      </trkpt>
      <trkpt lat="47.51284" lon="6.77277">
        <ele>425.3</ele>
        <time>2017-11-01T10:47:17.999Z</time>
      </trkpt>
      <trkpt lat="47.51289" lon="6.77279">
        <ele>425.2</ele>
        <time>2017-11-01T10:47:18.999Z</time>
      </trkpt>
      <trkpt lat="47.51293" lon="6.77282">
        <ele>424.8</ele>
        <time>2017-11-01T10:47:19.999Z</time>
      </trkpt>
      <trkpt lat="47.51298" lon="6.77284">
        <ele>425</ele>
        <time>2017-11-01T10:47:20.999Z</time>
      </trkpt>
      <trkpt lat="47.51303" lon="6.77286">
        <ele>424.9</ele>
        <time>2017-11-01T10:47:21.999Z</time>
      </trkpt>
      <trkpt lat="47.51309" lon="6.77289">
        <ele>424.7</ele>
        <time>2017-11-01T10:47:22.999Z</time>
      </trkpt>
      <trkpt lat="47.51316" lon="6.77291">
        <ele>424.5</ele>
        <time>2017-11-01T10:47:23.999Z</time>
      </trkpt>
      <trkpt lat="47.51322" lon="6.77291">
        <ele>424.4</ele>
        <time>2017-11-01T10:47:24.999Z</time>
      </trkpt>
      <trkpt lat="47.51327" lon="6.77291">
        <ele>424.6</ele>
        <time>2017-11-01T10:47:25.999Z</time>
      </trkpt>
      <trkpt lat="47.51334" lon="6.77288">
        <ele>424.2</ele>
        <time>2017-11-01T10:47:26.999Z</time>
      </trkpt>
      <trkpt lat="47.51341" lon="6.77284">
        <ele>424.1</ele>
        <time>2017-11-01T10:47:27.999Z</time>
      </trkpt>
      <trkpt lat="47.51349" lon="6.77279">
        <ele>423.7</ele>
        <time>2017-11-01T10:47:28.999Z</time>
      </trkpt>
      <trkpt lat="47.51356" lon="6.77273">
        <ele>423</ele>
        <time>2017-11-01T10:47:29.999Z</time>
      </trkpt>
      <trkpt lat="47.51363" lon="6.77267">
        <ele>422.6</ele>
        <time>2017-11-01T10:47:30.999Z</time>
      </trkpt>
      <trkpt lat="47.5137" lon="6.77261">
        <ele>421.8</ele>
        <time>2017-11-01T10:47:31.999Z</time>
      </trkpt>
      <trkpt lat="47.51379" lon="6.77254">
        <ele>420.9</ele>
        <time>2017-11-01T10:47:32.999Z</time>
      </trkpt>
      <trkpt lat="47.51387" lon="6.77249">
        <ele>420.4</ele>
        <time>2017-11-01T10:47:33.999Z</time>
      </trkpt>
      <trkpt lat="47.51396" lon="6.77243">
        <ele>420.1</ele>
        <time>2017-11-01T10:47:34.999Z</time>
      </trkpt>
      <trkpt lat="47.51405" lon="6.77238">
        <ele>420.2</ele>
        <time>2017-11-01T10:47:35.999Z</time>
      </trkpt>
      <trkpt lat="47.51414" lon="6.77232">
        <ele>420.3</ele>
        <time>2017-11-01T10:47:36.999Z</time>
      </trkpt>
      <trkpt lat="47.51423" lon="6.77228">
        <ele>420.9</ele>
        <time>2017-11-01T10:47:37.999Z</time>
      </trkpt>
      <trkpt lat="47.51432" lon="6.77224">
        <ele>421.2</ele>
        <time>2017-11-01T10:47:38.999Z</time>
      </trkpt>
      <trkpt lat="47.5144" lon="6.77219">
        <ele>421.1</ele>
        <time>2017-11-01T10:47:39.999Z</time>
      </trkpt>
      <trkpt lat="47.51448" lon="6.77215">
        <ele>421.1</ele>
        <time>2017-11-01T10:47:40.999Z</time>
      </trkpt>
      <trkpt lat="47.51455" lon="6.77212">
        <ele>421.4</ele>
        <time>2017-11-01T10:47:41.999Z</time>
      </trkpt>
      <trkpt lat="47.51462" lon="6.77208">
        <ele>420.7</ele>
        <time>2017-11-01T10:47:42.999Z</time>
      </trkpt>
      <trkpt lat="47.51468" lon="6.77205">
        <ele>421.1</ele>
        <time>2017-11-01T10:47:43.999Z</time>
      </trkpt>
      <trkpt lat="47.51475" lon="6.77205">
        <ele>421.6</ele>
        <time>2017-11-01T10:47:44.999Z</time>
      </trkpt>
      <trkpt lat="47.51479" lon="6.7721">
        <ele>421.7</ele>
        <time>2017-11-01T10:47:45.999Z</time>
      </trkpt>
      <trkpt lat="47.51483" lon="6.77215">
        <ele>421.1</ele>
        <time>2017-11-01T10:47:46.999Z</time>
      </trkpt>
      <trkpt lat="47.51484" lon="6.77222">
        <ele>420.5</ele>
        <time>2017-11-01T10:47:47.999Z</time>
      </trkpt>
      <trkpt lat="47.51485" lon="6.77231">
        <ele>419.6</ele>
        <time>2017-11-01T10:47:48.999Z</time>
      </trkpt>
      <trkpt lat="47.51486" lon="6.77238">
        <ele>419.2</ele>
        <time>2017-11-01T10:47:49.999Z</time>
      </trkpt>
      <trkpt lat="47.51486" lon="6.77246">
        <ele>419.2</ele>
        <time>2017-11-01T10:47:50.999Z</time>
      </trkpt>
      <trkpt lat="47.51486" lon="6.77252">
        <ele>418.8</ele>
        <time>2017-11-01T10:47:51.999Z</time>
      </trkpt>
      <trkpt lat="47.51486" lon="6.7726">
        <ele>419.1</ele>
        <time>2017-11-01T10:47:52.999Z</time>
      </trkpt>
      <trkpt lat="47.51491" lon="6.77265">
        <ele>419.1</ele>
        <time>2017-11-01T10:47:53.999Z</time>
      </trkpt>
      <trkpt lat="47.51496" lon="6.77268">
        <ele>419.5</ele>
        <time>2017-11-01T10:47:54.999Z</time>
      </trkpt>
      <trkpt lat="47.515" lon="6.77269">
        <ele>419.6</ele>
        <time>2017-11-01T10:47:55.999Z</time>
      </trkpt>
      <trkpt lat="47.51505" lon="6.77267">
        <ele>420.1</ele>
        <time>2017-11-01T10:47:56.999Z</time>
      </trkpt>
      <trkpt lat="47.51509" lon="6.77264">
        <ele>420.8</ele>
        <time>2017-11-01T10:47:57.999Z</time>
      </trkpt>
      <trkpt lat="47.51513" lon="6.77262">
        <ele>421.5</ele>
        <time>2017-11-01T10:47:58.999Z</time>
      </trkpt>
      <trkpt lat="47.51517" lon="6.77258">
        <ele>421.8</ele>
        <time>2017-11-01T10:47:59.999Z</time>
      </trkpt>
      <trkpt lat="47.51522" lon="6.77255">
        <ele>421.9</ele>
        <time>2017-11-01T10:48:00.999Z</time>
      </trkpt>
      <trkpt lat="47.51527" lon="6.7725">
        <ele>422.5</ele>
        <time>2017-11-01T10:48:01.999Z</time>
      </trkpt>
      <trkpt lat="47.51531" lon="6.77247">
        <ele>423.2</ele>
        <time>2017-11-01T10:48:02.999Z</time>
      </trkpt>
      <trkpt lat="47.51534" lon="6.77245">
        <ele>424.1</ele>
        <time>2017-11-01T10:48:03.999Z</time>
      </trkpt>
      <trkpt lat="47.51538" lon="6.77242">
        <ele>425.4</ele>
        <time>2017-11-01T10:48:04.999Z</time>
      </trkpt>
      <trkpt lat="47.51542" lon="6.77241">
        <ele>425.4</ele>
        <time>2017-11-01T10:48:05.999Z</time>
      </trkpt>
      <trkpt lat="47.51546" lon="6.77239">
        <ele>425.5</ele>
        <time>2017-11-01T10:48:06.999Z</time>
      </trkpt>
      <trkpt lat="47.51549" lon="6.77237">
        <ele>425.6</ele>
        <time>2017-11-01T10:48:07.999Z</time>
      </trkpt>
      <trkpt lat="47.51552" lon="6.77235">
        <ele>425.7</ele>
        <time>2017-11-01T10:48:08.999Z</time>
      </trkpt>
      <trkpt lat="47.51555" lon="6.77233">
        <ele>425.8</ele>
        <time>2017-11-01T10:48:09.999Z</time>
      </trkpt>
      <trkpt lat="47.51557" lon="6.77232">
        <ele>425.8</ele>
        <time>2017-11-01T10:48:10.999Z</time>
      </trkpt>
      <trkpt lat="47.5156" lon="6.7723">
        <ele>425.8</ele>
        <time>2017-11-01T10:48:11.999Z</time>
      </trkpt>
      <trkpt lat="47.51563" lon="6.77231">
        <ele>425.9</ele>
        <time>2017-11-01T10:48:12.999Z</time>
      </trkpt>
      <trkpt lat="47.51566" lon="6.77233">
        <ele>426</ele>
        <time>2017-11-01T10:48:13.999Z</time>
      </trkpt>
      <trkpt lat="47.51568" lon="6.77236">
        <ele>426.1</ele>
        <time>2017-11-01T10:48:14.999Z</time>
      </trkpt>
      <trkpt lat="47.51569" lon="6.77241">
        <ele>426.2</ele>
        <time>2017-11-01T10:48:15.999Z</time>
      </trkpt>
      <trkpt lat="47.51571" lon="6.77246">
        <ele>426.2</ele>
        <time>2017-11-01T10:48:16.999Z</time>
      </trkpt>
      <trkpt lat="47.51572" lon="6.7725">
        <ele>426.3</ele>
        <time>2017-11-01T10:48:17.999Z</time>
      </trkpt>
      <trkpt lat="47.51573" lon="6.77253">
        <ele>426.3</ele>
        <time>2017-11-01T10:48:18.999Z</time>
      </trkpt>
      <trkpt lat="47.51574" lon="6.77257">
        <ele>426.3</ele>
        <time>2017-11-01T10:48:19.999Z</time>
      </trkpt>
      <trkpt lat="47.51575" lon="6.77262">
        <ele>426.2</ele>
        <time>2017-11-01T10:48:20.999Z</time>
      </trkpt>
      <trkpt lat="47.51575" lon="6.77265">
        <ele>426.2</ele>
        <time>2017-11-01T10:48:21.999Z</time>
      </trkpt>
      <trkpt lat="47.51576" lon="6.7727">
        <ele>426.2</ele>
        <time>2017-11-01T10:48:22.999Z</time>
      </trkpt>
      <trkpt lat="47.51577" lon="6.77274">
        <ele>426.2</ele>
        <time>2017-11-01T10:48:23.999Z</time>
      </trkpt>
      <trkpt lat="47.51578" lon="6.77277">
        <ele>426.3</ele>
        <time>2017-11-01T10:48:24.999Z</time>
      </trkpt>
      <trkpt lat="47.51579" lon="6.77281">
        <ele>426.4</ele>
        <time>2017-11-01T10:48:25.999Z</time>
      </trkpt>
      <trkpt lat="47.5158" lon="6.77284">
        <ele>426.4</ele>
        <time>2017-11-01T10:48:26.999Z</time>
      </trkpt>
      <trkpt lat="47.51581" lon="6.77287">
        <ele>426.4</ele>
        <time>2017-11-01T10:48:27.999Z</time>
      </trkpt>
      <trkpt lat="47.51583" lon="6.77291">
        <ele>426.4</ele>
        <time>2017-11-01T10:48:28.999Z</time>
      </trkpt>
      <trkpt lat="47.51585" lon="6.77296">
        <ele>426.3</ele>
        <time>2017-11-01T10:48:29.999Z</time>
      </trkpt>
      <trkpt lat="47.51586" lon="6.77299">
        <ele>426.2</ele>
        <time>2017-11-01T10:48:30.999Z</time>
      </trkpt>
      <trkpt lat="47.51588" lon="6.77304">
        <ele>426.2</ele>
        <time>2017-11-01T10:48:31.999Z</time>
      </trkpt>
      <trkpt lat="47.5159" lon="6.77308">
        <ele>426.1</ele>
        <time>2017-11-01T10:48:32.999Z</time>
      </trkpt>
      <trkpt lat="47.51591" lon="6.77312">
        <ele>426.1</ele>
        <time>2017-11-01T10:48:33.999Z</time>
      </trkpt>
      <trkpt lat="47.51593" lon="6.77316">
        <ele>426.2</ele>
        <time>2017-11-01T10:48:34.999Z</time>
      </trkpt>
      <trkpt lat="47.51594" lon="6.7732">
        <ele>426.2</ele>
        <time>2017-11-01T10:48:35.999Z</time>
      </trkpt>
      <trkpt lat="47.51597" lon="6.77325">
        <ele>426.3</ele>
        <time>2017-11-01T10:48:36.999Z</time>
      </trkpt>
      <trkpt lat="47.51598" lon="6.77328">
        <ele>426.3</ele>
        <time>2017-11-01T10:48:37.999Z</time>
      </trkpt>
      <trkpt lat="47.516" lon="6.77331">
        <ele>426.4</ele>
        <time>2017-11-01T10:48:38.999Z</time>
      </trkpt>
      <trkpt lat="47.51602" lon="6.77335">
        <ele>426.4</ele>
        <time>2017-11-01T10:48:39.999Z</time>
      </trkpt>
      <trkpt lat="47.51603" lon="6.77338">
        <ele>426.4</ele>
        <time>2017-11-01T10:48:40.999Z</time>
      </trkpt>
      <trkpt lat="47.51605" lon="6.77343">
        <ele>426.5</ele>
        <time>2017-11-01T10:48:42.999Z</time>
      </trkpt>
      <trkpt lat="47.51607" lon="6.77346">
        <ele>426.5</ele>
        <time>2017-11-01T10:48:43.999Z</time>
      </trkpt>
      <trkpt lat="47.51609" lon="6.77349">
        <ele>426.4</ele>
        <time>2017-11-01T10:48:44.999Z</time>
      </trkpt>
      <trkpt lat="47.51612" lon="6.77354">
        <ele>426.4</ele>
        <time>2017-11-01T10:48:45.999Z</time>
      </trkpt>
      <trkpt lat="47.51614" lon="6.77359">
        <ele>426.4</ele>
        <time>2017-11-01T10:48:46.999Z</time>
      </trkpt>
      <trkpt lat="47.51617" lon="6.77363">
        <ele>426.4</ele>
        <time>2017-11-01T10:48:47.999Z</time>
      </trkpt>
      <trkpt lat="47.51618" lon="6.77366">
        <ele>426.4</ele>
        <time>2017-11-01T10:48:48.999Z</time>
      </trkpt>
      <trkpt lat="47.5162" lon="6.77368">
        <ele>426.4</ele>
        <time>2017-11-01T10:48:49.999Z</time>
      </trkpt>
      <trkpt lat="47.51622" lon="6.77372">
        <ele>426.5</ele>
        <time>2017-11-01T10:48:50.999Z</time>
      </trkpt>
      <trkpt lat="47.51623" lon="6.77376">
        <ele>426.6</ele>
        <time>2017-11-01T10:48:51.999Z</time>
      </trkpt>
      <trkpt lat="47.51627" lon="6.7738">
        <ele>426.6</ele>
        <time>2017-11-01T10:48:52.999Z</time>
      </trkpt>
      <trkpt lat="47.51629" lon="6.77383">
        <ele>426.6</ele>
        <time>2017-11-01T10:48:53.999Z</time>
      </trkpt>
      <trkpt lat="47.51631" lon="6.77386">
        <ele>426.6</ele>
        <time>2017-11-01T10:48:54.999Z</time>
      </trkpt>
      <trkpt lat="47.51633" lon="6.77389">
        <ele>426.7</ele>
        <time>2017-11-01T10:48:55.999Z</time>
      </trkpt>
      <trkpt lat="47.51636" lon="6.77391">
        <ele>426.7</ele>
        <time>2017-11-01T10:48:56.999Z</time>
      </trkpt>
      <trkpt lat="47.51638" lon="6.77391">
        <ele>426.8</ele>
        <time>2017-11-01T10:48:57.999Z</time>
      </trkpt>
      <trkpt lat="47.51641" lon="6.77389">
        <ele>426.8</ele>
        <time>2017-11-01T10:48:58.999Z</time>
      </trkpt>
      <trkpt lat="47.51644" lon="6.77387">
        <ele>426.9</ele>
        <time>2017-11-01T10:48:59.999Z</time>
      </trkpt>
      <trkpt lat="47.51647" lon="6.77385">
        <ele>427</ele>
        <time>2017-11-01T10:49:00.999Z</time>
      </trkpt>
      <trkpt lat="47.51649" lon="6.77382">
        <ele>427.1</ele>
        <time>2017-11-01T10:49:01.999Z</time>
      </trkpt>
      <trkpt lat="47.51653" lon="6.77379">
        <ele>427.2</ele>
        <time>2017-11-01T10:49:02.999Z</time>
      </trkpt>
      <trkpt lat="47.51656" lon="6.77376">
        <ele>427.4</ele>
        <time>2017-11-01T10:49:03.999Z</time>
      </trkpt>
      <trkpt lat="47.51658" lon="6.77373">
        <ele>427.5</ele>
        <time>2017-11-01T10:49:04.999Z</time>
      </trkpt>
      <trkpt lat="47.51661" lon="6.77371">
        <ele>427.6</ele>
        <time>2017-11-01T10:49:05.999Z</time>
      </trkpt>
      <trkpt lat="47.51664" lon="6.77369">
        <ele>427.8</ele>
        <time>2017-11-01T10:49:06.999Z</time>
      </trkpt>
      <trkpt lat="47.51668" lon="6.77366">
        <ele>427.9</ele>
        <time>2017-11-01T10:49:07.999Z</time>
      </trkpt>
      <trkpt lat="47.51671" lon="6.77364">
        <ele>428.1</ele>
        <time>2017-11-01T10:49:08.999Z</time>
      </trkpt>
      <trkpt lat="47.51673" lon="6.77362">
        <ele>428.3</ele>
        <time>2017-11-01T10:49:09.999Z</time>
      </trkpt>
      <trkpt lat="47.51677" lon="6.77359">
        <ele>428.4</ele>
        <time>2017-11-01T10:49:10.999Z</time>
      </trkpt>
      <trkpt lat="47.51682" lon="6.77357">
        <ele>429.7</ele>
        <time>2017-11-01T10:49:11.999Z</time>
      </trkpt>
      <trkpt lat="47.51686" lon="6.77355">
        <ele>429.8</ele>
        <time>2017-11-01T10:49:12.999Z</time>
      </trkpt>
      <trkpt lat="47.51689" lon="6.77354">
        <ele>429.9</ele>
        <time>2017-11-01T10:49:13.999Z</time>
      </trkpt>
      <trkpt lat="47.51692" lon="6.77354">
        <ele>430</ele>
        <time>2017-11-01T10:49:14.999Z</time>
      </trkpt>
      <trkpt lat="47.51696" lon="6.77354">
        <ele>430.1</ele>
        <time>2017-11-01T10:49:15.999Z</time>
      </trkpt>
      <trkpt lat="47.51699" lon="6.77354">
        <ele>430.2</ele>
        <time>2017-11-01T10:49:16.999Z</time>
      </trkpt>
      <trkpt lat="47.51702" lon="6.77354">
        <ele>430.2</ele>
        <time>2017-11-01T10:49:17.999Z</time>
      </trkpt>
      <trkpt lat="47.51705" lon="6.77354">
        <ele>430.3</ele>
        <time>2017-11-01T10:49:18.999Z</time>
      </trkpt>
      <trkpt lat="47.51709" lon="6.77355">
        <ele>430.4</ele>
        <time>2017-11-01T10:49:19.999Z</time>
      </trkpt>
      <trkpt lat="47.51712" lon="6.77355">
        <ele>430.5</ele>
        <time>2017-11-01T10:49:20.999Z</time>
      </trkpt>
      <trkpt lat="47.51717" lon="6.77356">
        <ele>430.6</ele>
        <time>2017-11-01T10:49:21.999Z</time>
      </trkpt>
      <trkpt lat="47.51721" lon="6.77356">
        <ele>430.6</ele>
        <time>2017-11-01T10:49:22.999Z</time>
      </trkpt>
      <trkpt lat="47.51724" lon="6.77357">
        <ele>430.7</ele>
        <time>2017-11-01T10:49:23.999Z</time>
      </trkpt>
      <trkpt lat="47.51728" lon="6.77357">
        <ele>430.8</ele>
        <time>2017-11-01T10:49:24.999Z</time>
      </trkpt>
      <trkpt lat="47.51731" lon="6.77358">
        <ele>430.8</ele>
        <time>2017-11-01T10:49:25.999Z</time>
      </trkpt>
      <trkpt lat="47.51736" lon="6.77359">
        <ele>430.9</ele>
        <time>2017-11-01T10:49:26.999Z</time>
      </trkpt>
      <trkpt lat="47.5174" lon="6.77361">
        <ele>431</ele>
        <time>2017-11-01T10:49:27.999Z</time>
      </trkpt>
      <trkpt lat="47.51744" lon="6.77363">
        <ele>431</ele>
        <time>2017-11-01T10:49:28.999Z</time>
      </trkpt>
      <trkpt lat="47.51747" lon="6.77367">
        <ele>430.9</ele>
        <time>2017-11-01T10:49:29.999Z</time>
      </trkpt>
      <trkpt lat="47.51747" lon="6.77372">
        <ele>430.9</ele>
        <time>2017-11-01T10:49:30.999Z</time>
      </trkpt>
      <trkpt lat="47.51747" lon="6.77376">
        <ele>430.9</ele>
        <time>2017-11-01T10:49:31.999Z</time>
      </trkpt>
      <trkpt lat="47.51746" lon="6.77382">
        <ele>430.9</ele>
        <time>2017-11-01T10:49:32.999Z</time>
      </trkpt>
      <trkpt lat="47.51744" lon="6.77388">
        <ele>430.9</ele>
        <time>2017-11-01T10:49:33.999Z</time>
      </trkpt>
      <trkpt lat="47.51743" lon="6.77393">
        <ele>431</ele>
        <time>2017-11-01T10:49:34.999Z</time>
      </trkpt>
      <trkpt lat="47.51742" lon="6.77398">
        <ele>431</ele>
        <time>2017-11-01T10:49:35.999Z</time>
      </trkpt>
      <trkpt lat="47.51741" lon="6.77402">
        <ele>431.1</ele>
        <time>2017-11-01T10:49:36.999Z</time>
      </trkpt>
      <trkpt lat="47.51739" lon="6.77409">
        <ele>431.2</ele>
        <time>2017-11-01T10:49:37.999Z</time>
      </trkpt>
      <trkpt lat="47.51739" lon="6.77414">
        <ele>431.3</ele>
        <time>2017-11-01T10:49:38.999Z</time>
      </trkpt>
      <trkpt lat="47.51738" lon="6.77418">
        <ele>431.4</ele>
        <time>2017-11-01T10:49:39.999Z</time>
      </trkpt>
      <trkpt lat="47.51737" lon="6.77424">
        <ele>431.6</ele>
        <time>2017-11-01T10:49:40.999Z</time>
      </trkpt>
      <trkpt lat="47.51736" lon="6.77428">
        <ele>431.7</ele>
        <time>2017-11-01T10:49:41.999Z</time>
      </trkpt>
      <trkpt lat="47.51735" lon="6.77432">
        <ele>431.8</ele>
        <time>2017-11-01T10:49:42.999Z</time>
      </trkpt>
      <trkpt lat="47.51735" lon="6.77437">
        <ele>431.9</ele>
        <time>2017-11-01T10:49:43.999Z</time>
      </trkpt>
      <trkpt lat="47.51734" lon="6.77442">
        <ele>431.9</ele>
        <time>2017-11-01T10:49:44.999Z</time>
      </trkpt>
      <trkpt lat="47.51733" lon="6.77447">
        <ele>432</ele>
        <time>2017-11-01T10:49:45.999Z</time>
      </trkpt>
      <trkpt lat="47.51732" lon="6.77453">
        <ele>432</ele>
        <time>2017-11-01T10:49:46.999Z</time>
      </trkpt>
      <trkpt lat="47.51732" lon="6.77458">
        <ele>432.1</ele>
        <time>2017-11-01T10:49:47.999Z</time>
      </trkpt>
      <trkpt lat="47.51731" lon="6.77463">
        <ele>432.1</ele>
        <time>2017-11-01T10:49:48.999Z</time>
      </trkpt>
      <trkpt lat="47.51731" lon="6.77468">
        <ele>432.1</ele>
        <time>2017-11-01T10:49:49.999Z</time>
      </trkpt>
      <trkpt lat="47.51732" lon="6.77472">
        <ele>432.1</ele>
        <time>2017-11-01T10:49:50.999Z</time>
      </trkpt>
      <trkpt lat="47.51734" lon="6.77477">
        <ele>432.1</ele>
        <time>2017-11-01T10:49:51.999Z</time>
      </trkpt>
      <trkpt lat="47.51737" lon="6.77481">
        <ele>432.2</ele>
        <time>2017-11-01T10:49:52.999Z</time>
      </trkpt>
      <trkpt lat="47.51741" lon="6.77482">
        <ele>432.2</ele>
        <time>2017-11-01T10:49:53.999Z</time>
      </trkpt>
      <trkpt lat="47.51745" lon="6.77483">
        <ele>432.3</ele>
        <time>2017-11-01T10:49:54.999Z</time>
      </trkpt>
      <trkpt lat="47.51749" lon="6.77484">
        <ele>432.5</ele>
        <time>2017-11-01T10:49:55.999Z</time>
      </trkpt>
      <trkpt lat="47.51753" lon="6.77485">
        <ele>432.6</ele>
        <time>2017-11-01T10:49:56.999Z</time>
      </trkpt>
      <trkpt lat="47.51757" lon="6.77485">
        <ele>432.8</ele>
        <time>2017-11-01T10:49:57.999Z</time>
      </trkpt>
      <trkpt lat="47.5176" lon="6.77485">
        <ele>432.9</ele>
        <time>2017-11-01T10:49:58.999Z</time>
      </trkpt>
      <trkpt lat="47.51763" lon="6.77485">
        <ele>433.1</ele>
        <time>2017-11-01T10:49:59.999Z</time>
      </trkpt>
      <trkpt lat="47.51767" lon="6.77486">
        <ele>433.2</ele>
        <time>2017-11-01T10:50:00.999Z</time>
      </trkpt>
      <trkpt lat="47.51771" lon="6.77486">
        <ele>433.3</ele>
        <time>2017-11-01T10:50:01.999Z</time>
      </trkpt>
      <trkpt lat="47.51773" lon="6.77487">
        <ele>433.4</ele>
        <time>2017-11-01T10:50:02.999Z</time>
      </trkpt>
      <trkpt lat="47.51776" lon="6.77488">
        <ele>433.4</ele>
        <time>2017-11-01T10:50:03.999Z</time>
      </trkpt>
      <trkpt lat="47.5178" lon="6.77489">
        <ele>433.5</ele>
        <time>2017-11-01T10:50:04.999Z</time>
      </trkpt>
      <trkpt lat="47.51784" lon="6.77492">
        <ele>433.4</ele>
        <time>2017-11-01T10:50:05.999Z</time>
      </trkpt>
      <trkpt lat="47.51789" lon="6.77496">
        <ele>434.2</ele>
        <time>2017-11-01T10:50:06.999Z</time>
      </trkpt>
      <trkpt lat="47.51794" lon="6.77497">
        <ele>435.1</ele>
        <time>2017-11-01T10:50:07.999Z</time>
      </trkpt>
      <trkpt lat="47.51798" lon="6.77499">
        <ele>435.6</ele>
        <time>2017-11-01T10:50:08.999Z</time>
      </trkpt>
      <trkpt lat="47.51802" lon="6.775">
        <ele>435.6</ele>
        <time>2017-11-01T10:50:09.999Z</time>
      </trkpt>
      <trkpt lat="47.51806" lon="6.77497">
        <ele>435.6</ele>
        <time>2017-11-01T10:50:10.999Z</time>
      </trkpt>
      <trkpt lat="47.51808" lon="6.77493">
        <ele>435.6</ele>
        <time>2017-11-01T10:50:11.999Z</time>
      </trkpt>
      <trkpt lat="47.51809" lon="6.77487">
        <ele>436.1</ele>
        <time>2017-11-01T10:50:12.999Z</time>
      </trkpt>
      <trkpt lat="47.51809" lon="6.77479">
        <ele>436.4</ele>
        <time>2017-11-01T10:50:13.999Z</time>
      </trkpt>
      <trkpt lat="47.51807" lon="6.77473">
        <ele>436.4</ele>
        <time>2017-11-01T10:50:14.999Z</time>
      </trkpt>
      <trkpt lat="47.51804" lon="6.7747">
        <ele>436.4</ele>
        <time>2017-11-01T10:50:15.999Z</time>
      </trkpt>
      <trkpt lat="47.51803" lon="6.77469">
        <ele>437.4</ele>
        <time>2017-11-01T10:50:46.999Z</time>
      </trkpt>
      <trkpt lat="47.51806" lon="6.77479">
        <ele>437.4</ele>
        <time>2017-11-01T10:50:47.999Z</time>
      </trkpt>
      <trkpt lat="47.51806" lon="6.77479">
        <ele>437.3</ele>
        <time>2017-11-01T10:51:40.999Z</time>
      </trkpt>
    </trkseg>
  </trk>
</gpx>